<?xml version="1.0" encoding="UTF-8"?>
<gpx xmlns="http://www.topografix.com/GPX/1/1" version="1.1" creator="Nokia Sports Tracker" xmlns:xsi="http://www.w3.org/2001/XMLSchema-instance" xsi:schemaLocation="http://www.topografix.com/GPX/1/1 http://www.topografix.com/GPX/1/1/gpx.xsd">
<metadata>
<name>14.03.2010 10:24</name>
<desc>Nordic Walking</desc>
<author><name>Jörg U.</name></author>
<time>2010-03-14T10:24:49.48</time>
</metadata>
<trk>
<name>14.03.2010 10:24</name>
<trkseg>
<trkpt lat="48.940092" lon="8.669852">
<ele>295.5</ele>
<speed>3.7</speed>
<course>90.0</course>
<desc>Speed 3.7 km/h Distance 0.00 km</desc>
<time>2010-03-14T10:24:49.64</time>
<name>1</name>
</trkpt>
<trkpt lat="48.940092" lon="8.669853">
<ele>295.5</ele>
<speed>1.6</speed>
<course>128.1</course>
<desc>Speed 1.6 km/h Distance 0.00 km</desc>
<time>2010-03-14T10:24:50.64</time>
<name>2</name>
</trkpt>
<trkpt lat="48.940090" lon="8.669857">
<ele>295.5</ele>
<speed>1.6</speed>
<course>161.2</course>
<desc>Speed 1.6 km/h Distance 0.00 km</desc>
<time>2010-03-14T10:24:51.64</time>
<name>3</name>
</trkpt>
<trkpt lat="48.940083" lon="8.669860">
<ele>295.5</ele>
<speed>1.5</speed>
<course>167.4</course>
<desc>Speed 1.5 km/h Distance 0.00 km</desc>
<time>2010-03-14T10:24:52.64</time>
<name>4</name>
</trkpt>
<trkpt lat="48.940078" lon="8.669862">
<ele>295.5</ele>
<speed>0.9</speed>
<course>136.7</course>
<desc>Speed 0.9 km/h Distance 0.00 km</desc>
<time>2010-03-14T10:24:53.64</time>
<name>5</name>
</trkpt>
<trkpt lat="48.940067" lon="8.669878">
<ele>295.5</ele>
<speed>3.5</speed>
<course>127.2</course>
<desc>Speed 3.5 km/h Distance 0.00 km</desc>
<time>2010-03-14T10:24:54.64</time>
<name>6</name>
</trkpt>
<trkpt lat="48.940055" lon="8.669902">
<ele>295.5</ele>
<speed>4.1</speed>
<course>130.9</course>
<desc>Speed 4.1 km/h Distance 0.01 km</desc>
<time>2010-03-14T10:24:55.64</time>
<name>7</name>
</trkpt>
<trkpt lat="48.940042" lon="8.669925">
<ele>295.5</ele>
<speed>2.7</speed>
<course>106.9</course>
<desc>Speed 2.7 km/h Distance 0.01 km</desc>
<time>2010-03-14T10:24:56.64</time>
<name>8</name>
</trkpt>
<trkpt lat="48.940040" lon="8.669933">
<ele>295.5</ele>
<speed>1.0</speed>
<course>103.2</course>
<desc>Speed 1.0 km/h Distance 0.01 km</desc>
<time>2010-03-14T10:24:57.72</time>
<name>9</name>
</trkpt>
<trkpt lat="48.940037" lon="8.669955">
<ele>295.5</ele>
<speed>3.7</speed>
<course>127.3</course>
<desc>Speed 3.7 km/h Distance 0.01 km</desc>
<time>2010-03-14T10:24:58.69</time>
<name>10</name>
</trkpt>
<trkpt lat="48.940027" lon="8.669975">
<ele>295.5</ele>
<speed>2.9</speed>
<course>133.1</course>
<desc>Speed 2.9 km/h Distance 0.01 km</desc>
<time>2010-03-14T10:24:59.69</time>
<name>11</name>
</trkpt>
<trkpt lat="48.940013" lon="8.669997">
<ele>295.5</ele>
<speed>3.1</speed>
<course>124.7</course>
<desc>Speed 3.1 km/h Distance 0.01 km</desc>
<time>2010-03-14T10:25:00.69</time>
<name>12</name>
</trkpt>
<trkpt lat="48.940005" lon="8.670015">
<ele>295.5</ele>
<speed>2.1</speed>
<course>122.1</course>
<desc>Speed 2.1 km/h Distance 0.02 km</desc>
<time>2010-03-14T10:25:01.69</time>
<name>13</name>
</trkpt>
<trkpt lat="48.939993" lon="8.670043">
<ele>295.5</ele>
<speed>3.3</speed>
<course>118.3</course>
<desc>Speed 3.3 km/h Distance 0.02 km</desc>
<time>2010-03-14T10:25:02.69</time>
<name>14</name>
</trkpt>
<trkpt lat="48.939983" lon="8.670072">
<ele>295.5</ele>
<speed>4.4</speed>
<course>115.1</course>
<desc>Speed 4.4 km/h Distance 0.02 km</desc>
<time>2010-03-14T10:25:03.69</time>
<name>15</name>
</trkpt>
<trkpt lat="48.939977" lon="8.670093">
<ele>295.5</ele>
<speed>4.3</speed>
<course>115.1</course>
<desc>Speed 4.3 km/h Distance 0.02 km</desc>
<time>2010-03-14T10:25:04.69</time>
<name>16</name>
</trkpt>
<trkpt lat="48.939970" lon="8.670115">
<ele>295.5</ele>
<speed>3.8</speed>
<course>133.6</course>
<desc>Speed 3.8 km/h Distance 0.02 km</desc>
<time>2010-03-14T10:25:05.69</time>
<name>17</name>
</trkpt>
<trkpt lat="48.939962" lon="8.670128">
<ele>295.5</ele>
<speed>3.1</speed>
<course>127.4</course>
<desc>Speed 3.1 km/h Distance 0.03 km</desc>
<time>2010-03-14T10:25:06.69</time>
<name>18</name>
</trkpt>
<trkpt lat="48.939957" lon="8.670138">
<ele>295.5</ele>
<speed>1.7</speed>
<course>135.5</course>
<desc>Speed 1.7 km/h Distance 0.03 km</desc>
<time>2010-03-14T10:25:07.69</time>
<name>19</name>
</trkpt>
<trkpt lat="48.939947" lon="8.670153">
<ele>295.5</ele>
<speed>2.1</speed>
<course>147.7</course>
<desc>Speed 2.1 km/h Distance 0.03 km</desc>
<time>2010-03-14T10:25:08.69</time>
<name>20</name>
</trkpt>
<trkpt lat="48.939942" lon="8.670158">
<ele>295.5</ele>
<speed>1.0</speed>
<course>117.0</course>
<desc>Speed 1.0 km/h Distance 0.03 km</desc>
<time>2010-03-14T10:25:09.69</time>
<name>21</name>
</trkpt>
<trkpt lat="48.939938" lon="8.670168">
<ele>295.5</ele>
<speed>2.5</speed>
<course>117.0</course>
<desc>Speed 2.5 km/h Distance 0.03 km</desc>
<time>2010-03-14T10:25:10.69</time>
<name>22</name>
</trkpt>
<trkpt lat="48.939935" lon="8.670178">
<ele>295.5</ele>
<speed>2.4</speed>
<course>119.7</course>
<desc>Speed 2.4 km/h Distance 0.03 km</desc>
<time>2010-03-14T10:25:11.69</time>
<name>23</name>
</trkpt>
<trkpt lat="48.939930" lon="8.670192">
<ele>295.5</ele>
<speed>2.9</speed>
<course>133.5</course>
<desc>Speed 2.9 km/h Distance 0.03 km</desc>
<time>2010-03-14T10:25:12.69</time>
<name>24</name>
</trkpt>
<trkpt lat="48.939922" lon="8.670205">
<ele>295.5</ele>
<speed>4.2</speed>
<course>131.1</course>
<desc>Speed 4.2 km/h Distance 0.03 km</desc>
<time>2010-03-14T10:25:13.69</time>
<name>25</name>
</trkpt>
<trkpt lat="48.939915" lon="8.670217">
<ele>295.5</ele>
<speed>3.0</speed>
<course>130.3</course>
<desc>Speed 3.0 km/h Distance 0.03 km</desc>
<time>2010-03-14T10:25:14.69</time>
<name>26</name>
</trkpt>
<trkpt lat="48.939907" lon="8.670232">
<ele>295.5</ele>
<speed>3.7</speed>
<course>154.4</course>
<desc>Speed 3.7 km/h Distance 0.04 km</desc>
<time>2010-03-14T10:25:15.69</time>
<name>27</name>
</trkpt>
<trkpt lat="48.939900" lon="8.670237">
<ele>295.5</ele>
<speed>1.7</speed>
<course>124.0</course>
<desc>Speed 1.7 km/h Distance 0.04 km</desc>
<time>2010-03-14T10:25:16.69</time>
<name>28</name>
</trkpt>
<trkpt lat="48.939893" lon="8.670252">
<ele>295.5</ele>
<speed>3.9</speed>
<course>119.7</course>
<desc>Speed 3.9 km/h Distance 0.04 km</desc>
<time>2010-03-14T10:25:17.69</time>
<name>29</name>
</trkpt>
<trkpt lat="48.939888" lon="8.670265">
<ele>295.5</ele>
<speed>3.8</speed>
<course>121.3</course>
<desc>Speed 3.8 km/h Distance 0.04 km</desc>
<time>2010-03-14T10:25:18.69</time>
<name>30</name>
</trkpt>
<trkpt lat="48.939882" lon="8.670282">
<ele>295.5</ele>
<speed>3.7</speed>
<course>180.0</course>
<desc>Speed 3.7 km/h Distance 0.04 km</desc>
<time>2010-03-14T10:25:19.69</time>
<name>31</name>
</trkpt>
<trkpt lat="48.939878" lon="8.670282">
<ele>295.5</ele>
<speed>0.8</speed>
<course>127.0</course>
<desc>Speed 0.8 km/h Distance 0.04 km</desc>
<time>2010-03-14T10:25:20.69</time>
<name>32</name>
</trkpt>
<trkpt lat="48.939875" lon="8.670288">
<ele>295.5</ele>
<speed>1.2</speed>
<course>119.7</course>
<desc>Speed 1.2 km/h Distance 0.04 km</desc>
<time>2010-03-14T10:25:21.69</time>
<name>33</name>
</trkpt>
<trkpt lat="48.939870" lon="8.670302">
<ele>295.5</ele>
<speed>2.7</speed>
<course>124.7</course>
<desc>Speed 2.7 km/h Distance 0.04 km</desc>
<time>2010-03-14T10:25:22.69</time>
<name>34</name>
</trkpt>
<trkpt lat="48.939862" lon="8.670320">
<ele>295.5</ele>
<speed>3.9</speed>
<course>123.1</course>
<desc>Speed 3.9 km/h Distance 0.04 km</desc>
<time>2010-03-14T10:25:23.69</time>
<name>35</name>
</trkpt>
<trkpt lat="48.939852" lon="8.670343">
<ele>295.5</ele>
<speed>4.1</speed>
<course>119.0</course>
<desc>Speed 4.1 km/h Distance 0.05 km</desc>
<time>2010-03-14T10:25:24.69</time>
<name>36</name>
</trkpt>
<trkpt lat="48.939845" lon="8.670362">
<ele>295.5</ele>
<speed>4.0</speed>
<course>119.7</course>
<desc>Speed 4.0 km/h Distance 0.05 km</desc>
<time>2010-03-14T10:25:25.69</time>
<name>37</name>
</trkpt>
<trkpt lat="48.939840" lon="8.670375">
<ele>295.5</ele>
<speed>3.6</speed>
<course>124.1</course>
<desc>Speed 3.6 km/h Distance 0.05 km</desc>
<time>2010-03-14T10:25:26.69</time>
<name>38</name>
</trkpt>
<trkpt lat="48.939833" lon="8.670390">
<ele>295.5</ele>
<speed>3.7</speed>
<course>133.4</course>
<desc>Speed 3.7 km/h Distance 0.05 km</desc>
<time>2010-03-14T10:25:27.69</time>
<name>39</name>
</trkpt>
<trkpt lat="48.939825" lon="8.670403">
<ele>295.5</ele>
<speed>3.2</speed>
<course>114.5</course>
<desc>Speed 3.2 km/h Distance 0.05 km</desc>
<time>2010-03-14T10:25:28.69</time>
<name>40</name>
</trkpt>
<trkpt lat="48.939820" lon="8.670420">
<ele>295.5</ele>
<speed>3.9</speed>
<course>127.2</course>
<desc>Speed 3.9 km/h Distance 0.05 km</desc>
<time>2010-03-14T10:25:29.69</time>
<name>41</name>
</trkpt>
<trkpt lat="48.939813" lon="8.670433">
<ele>295.5</ele>
<speed>3.7</speed>
<course>119.7</course>
<desc>Speed 3.7 km/h Distance 0.05 km</desc>
<time>2010-03-14T10:25:30.69</time>
<name>42</name>
</trkpt>
<trkpt lat="48.939808" lon="8.670447">
<ele>295.5</ele>
<speed>4.1</speed>
<course>132.2</course>
<desc>Speed 4.1 km/h Distance 0.05 km</desc>
<time>2010-03-14T10:25:31.69</time>
<name>43</name>
</trkpt>
<trkpt lat="48.939803" lon="8.670455">
<ele>295.5</ele>
<speed>2.4</speed>
<course>140.6</course>
<desc>Speed 2.4 km/h Distance 0.06 km</desc>
<time>2010-03-14T10:25:32.69</time>
<name>44</name>
</trkpt>
<trkpt lat="48.939797" lon="8.670463">
<ele>295.5</ele>
<speed>2.7</speed>
<course>123.1</course>
<desc>Speed 2.7 km/h Distance 0.06 km</desc>
<time>2010-03-14T10:25:33.69</time>
<name>45</name>
</trkpt>
<trkpt lat="48.939792" lon="8.670475">
<ele>295.5</ele>
<speed>3.2</speed>
<course>140.6</course>
<desc>Speed 3.2 km/h Distance 0.06 km</desc>
<time>2010-03-14T10:25:34.69</time>
<name>46</name>
</trkpt>
<trkpt lat="48.939785" lon="8.670483">
<ele>295.5</ele>
<speed>3.1</speed>
<course>127.4</course>
<desc>Speed 3.1 km/h Distance 0.06 km</desc>
<time>2010-03-14T10:25:35.69</time>
<name>47</name>
</trkpt>
<trkpt lat="48.939780" lon="8.670493">
<ele>295.5</ele>
<speed>2.8</speed>
<course>127.4</course>
<desc>Speed 2.8 km/h Distance 0.06 km</desc>
<time>2010-03-14T10:25:36.69</time>
<name>48</name>
</trkpt>
<trkpt lat="48.939775" lon="8.670503">
<ele>295.5</ele>
<speed>3.1</speed>
<course>123.3</course>
<desc>Speed 3.1 km/h Distance 0.06 km</desc>
<time>2010-03-14T10:25:37.69</time>
<name>49</name>
</trkpt>
<trkpt lat="48.939770" lon="8.670515">
<ele>295.5</ele>
<speed>3.7</speed>
<course>130.2</course>
<desc>Speed 3.7 km/h Distance 0.06 km</desc>
<time>2010-03-14T10:25:38.69</time>
<name>50</name>
</trkpt>
<trkpt lat="48.939762" lon="8.670530">
<ele>295.5</ele>
<speed>4.1</speed>
<course>135.5</course>
<desc>Speed 4.1 km/h Distance 0.06 km</desc>
<time>2010-03-14T10:25:39.69</time>
<name>51</name>
</trkpt>
<trkpt lat="48.939758" lon="8.670535">
<ele>295.5</ele>
<speed>1.7</speed>
<course>124.0</course>
<desc>Speed 1.7 km/h Distance 0.06 km</desc>
<time>2010-03-14T10:25:40.69</time>
<name>52</name>
</trkpt>
<trkpt lat="48.939752" lon="8.670550">
<ele>295.5</ele>
<speed>3.9</speed>
<course>122.9</course>
<desc>Speed 3.9 km/h Distance 0.06 km</desc>
<time>2010-03-14T10:25:41.69</time>
<name>53</name>
</trkpt>
<trkpt lat="48.939747" lon="8.670562">
<ele>295.5</ele>
<speed>2.6</speed>
<course>135.4</course>
<desc>Speed 2.6 km/h Distance 0.07 km</desc>
<time>2010-03-14T10:25:42.69</time>
<name>54</name>
</trkpt>
<trkpt lat="48.939737" lon="8.670577">
<ele>295.5</ele>
<speed>3.9</speed>
<course>130.2</course>
<desc>Speed 3.9 km/h Distance 0.07 km</desc>
<time>2010-03-14T10:25:43.69</time>
<name>55</name>
</trkpt>
<trkpt lat="48.939728" lon="8.670592">
<ele>295.5</ele>
<speed>3.0</speed>
<course>135.5</course>
<desc>Speed 3.0 km/h Distance 0.07 km</desc>
<time>2010-03-14T10:25:44.69</time>
<name>56</name>
</trkpt>
<trkpt lat="48.939722" lon="8.670602">
<ele>295.5</ele>
<speed>1.3</speed>
<course>145.9</course>
<desc>Speed 1.3 km/h Distance 0.07 km</desc>
<time>2010-03-14T10:25:45.69</time>
<name>57</name>
</trkpt>
<trkpt lat="48.939717" lon="8.670607">
<ele>295.5</ele>
<speed>1.7</speed>
<course>127.3</course>
<desc>Speed 1.7 km/h Distance 0.07 km</desc>
<time>2010-03-14T10:25:46.69</time>
<name>58</name>
</trkpt>
<trkpt lat="48.939708" lon="8.670623">
<ele>295.5</ele>
<speed>4.8</speed>
<course>130.2</course>
<desc>Speed 4.8 km/h Distance 0.07 km</desc>
<time>2010-03-14T10:25:47.69</time>
<name>59</name>
</trkpt>
<trkpt lat="48.939700" lon="8.670638">
<ele>295.5</ele>
<speed>3.9</speed>
<course>115.1</course>
<desc>Speed 3.9 km/h Distance 0.07 km</desc>
<time>2010-03-14T10:25:48.69</time>
<name>60</name>
</trkpt>
<trkpt lat="48.939693" lon="8.670660">
<ele>295.5</ele>
<speed>5.0</speed>
<course>116.9</course>
<desc>Speed 5.0 km/h Distance 0.08 km</desc>
<time>2010-03-14T10:25:49.69</time>
<name>61</name>
</trkpt>
<trkpt lat="48.939687" lon="8.670680">
<ele>295.5</ele>
<speed>3.7</speed>
<course>106.9</course>
<desc>Speed 3.7 km/h Distance 0.08 km</desc>
<time>2010-03-14T10:25:50.69</time>
<name>62</name>
</trkpt>
<trkpt lat="48.939683" lon="8.670697">
<ele>295.5</ele>
<speed>2.5</speed>
<course>146.3</course>
<desc>Speed 2.5 km/h Distance 0.08 km</desc>
<time>2010-03-14T10:25:51.69</time>
<name>63</name>
</trkpt>
<trkpt lat="48.939680" lon="8.670700">
<ele>295.5</ele>
<speed>1.0</speed>
<course>132.6</course>
<desc>Speed 1.0 km/h Distance 0.08 km</desc>
<time>2010-03-14T10:25:52.69</time>
<name>64</name>
</trkpt>
<trkpt lat="48.939675" lon="8.670708">
<ele>295.5</ele>
<speed>3.2</speed>
<course>146.3</course>
<desc>Speed 3.2 km/h Distance 0.08 km</desc>
<time>2010-03-14T10:25:53.69</time>
<name>65</name>
</trkpt>
<trkpt lat="48.939672" lon="8.670712">
<ele>295.5</ele>
<speed>1.4</speed>
<course>146.3</course>
<desc>Speed 1.4 km/h Distance 0.08 km</desc>
<time>2010-03-14T10:25:54.69</time>
<name>66</name>
</trkpt>
<trkpt lat="48.939668" lon="8.670715">
<ele>295.5</ele>
<speed>1.2</speed>
<course>127.2</course>
<desc>Speed 1.2 km/h Distance 0.08 km</desc>
<time>2010-03-14T10:25:55.69</time>
<name>67</name>
</trkpt>
<trkpt lat="48.939663" lon="8.670725">
<ele>295.5</ele>
<speed>3.1</speed>
<course>121.3</course>
<desc>Speed 3.1 km/h Distance 0.08 km</desc>
<time>2010-03-14T10:25:56.69</time>
<name>68</name>
</trkpt>
<trkpt lat="48.939657" lon="8.670742">
<ele>295.5</ele>
<speed>4.3</speed>
<course>112.5</course>
<desc>Speed 4.3 km/h Distance 0.08 km</desc>
<time>2010-03-14T10:25:57.69</time>
<name>69</name>
</trkpt>
<trkpt lat="48.939652" lon="8.670760">
<ele>295.5</ele>
<speed>4.4</speed>
<course>119.0</course>
<desc>Speed 4.4 km/h Distance 0.08 km</desc>
<time>2010-03-14T10:25:58.69</time>
<name>70</name>
</trkpt>
<trkpt lat="48.939645" lon="8.670778">
<ele>295.5</ele>
<speed>4.1</speed>
<course>124.6</course>
<desc>Speed 4.1 km/h Distance 0.09 km</desc>
<time>2010-03-14T10:25:59.69</time>
<name>71</name>
</trkpt>
<trkpt lat="48.939637" lon="8.670797">
<ele>295.5</ele>
<speed>4.3</speed>
<course>110.9</course>
<desc>Speed 4.3 km/h Distance 0.09 km</desc>
<time>2010-03-14T10:26:00.69</time>
<name>72</name>
</trkpt>
<trkpt lat="48.939633" lon="8.670810">
<ele>295.5</ele>
<speed>2.3</speed>
<course>127.2</course>
<desc>Speed 2.3 km/h Distance 0.09 km</desc>
<time>2010-03-14T10:26:01.69</time>
<name>73</name>
</trkpt>
<trkpt lat="48.939625" lon="8.670827">
<ele>295.5</ele>
<speed>4.7</speed>
<course>127.3</course>
<desc>Speed 4.7 km/h Distance 0.09 km</desc>
<time>2010-03-14T10:26:02.69</time>
<name>74</name>
</trkpt>
<trkpt lat="48.939617" lon="8.670843">
<ele>295.5</ele>
<speed>4.4</speed>
<course>130.9</course>
<desc>Speed 4.4 km/h Distance 0.09 km</desc>
<time>2010-03-14T10:26:03.69</time>
<name>75</name>
</trkpt>
<trkpt lat="48.939610" lon="8.670855">
<ele>295.5</ele>
<speed>3.7</speed>
<course>116.9</course>
<desc>Speed 3.7 km/h Distance 0.09 km</desc>
<time>2010-03-14T10:26:04.69</time>
<name>76</name>
</trkpt>
<trkpt lat="48.939605" lon="8.670870">
<ele>295.5</ele>
<speed>3.4</speed>
<course>127.0</course>
<desc>Speed 3.4 km/h Distance 0.09 km</desc>
<time>2010-03-14T10:26:05.69</time>
<name>77</name>
</trkpt>
<trkpt lat="48.939598" lon="8.670883">
<ele>295.5</ele>
<speed>3.3</speed>
<course>124.6</course>
<desc>Speed 3.3 km/h Distance 0.09 km</desc>
<time>2010-03-14T10:26:06.69</time>
<name>78</name>
</trkpt>
<trkpt lat="48.939590" lon="8.670902">
<ele>295.5</ele>
<speed>5.0</speed>
<course>124.6</course>
<desc>Speed 5.0 km/h Distance 0.10 km</desc>
<time>2010-03-14T10:26:07.69</time>
<name>79</name>
</trkpt>
<trkpt lat="48.939582" lon="8.670920">
<ele>295.5</ele>
<speed>5.3</speed>
<course>135.5</course>
<desc>Speed 5.3 km/h Distance 0.10 km</desc>
<time>2010-03-14T10:26:08.69</time>
<name>80</name>
</trkpt>
<trkpt lat="48.939575" lon="8.670930">
<ele>295.5</ele>
<speed>3.6</speed>
<course>138.6</course>
<desc>Speed 3.6 km/h Distance 0.10 km</desc>
<time>2010-03-14T10:26:09.69</time>
<name>81</name>
</trkpt>
<trkpt lat="48.939565" lon="8.670943">
<ele>295.5</ele>
<speed>4.2</speed>
<course>127.3</course>
<desc>Speed 4.2 km/h Distance 0.10 km</desc>
<time>2010-03-14T10:26:10.69</time>
<name>82</name>
</trkpt>
<trkpt lat="48.939557" lon="8.670960">
<ele>295.5</ele>
<speed>3.7</speed>
<course>130.9</course>
<desc>Speed 3.7 km/h Distance 0.10 km</desc>
<time>2010-03-14T10:26:11.69</time>
<name>83</name>
</trkpt>
<trkpt lat="48.939550" lon="8.670972">
<ele>295.5</ele>
<speed>2.4</speed>
<course>121.4</course>
<desc>Speed 2.4 km/h Distance 0.10 km</desc>
<time>2010-03-14T10:26:12.69</time>
<name>84</name>
</trkpt>
<trkpt lat="48.939547" lon="8.670980">
<ele>295.5</ele>
<speed>2.2</speed>
<course>130.2</course>
<desc>Speed 2.2 km/h Distance 0.10 km</desc>
<time>2010-03-14T10:26:13.69</time>
<name>85</name>
</trkpt>
<trkpt lat="48.939538" lon="8.670995">
<ele>295.5</ele>
<speed>4.5</speed>
<course>124.0</course>
<desc>Speed 4.5 km/h Distance 0.11 km</desc>
<time>2010-03-14T10:26:14.69</time>
<name>86</name>
</trkpt>
<trkpt lat="48.939532" lon="8.671010">
<ele>295.5</ele>
<speed>3.7</speed>
<course>127.3</course>
<desc>Speed 3.7 km/h Distance 0.11 km</desc>
<time>2010-03-14T10:26:15.69</time>
<name>87</name>
</trkpt>
<trkpt lat="48.939525" lon="8.671023">
<ele>295.5</ele>
<speed>3.5</speed>
<course>136.5</course>
<desc>Speed 3.5 km/h Distance 0.11 km</desc>
<time>2010-03-14T10:26:16.69</time>
<name>88</name>
</trkpt>
<trkpt lat="48.939522" lon="8.671028">
<ele>295.5</ele>
<speed>1.5</speed>
<course>138.7</course>
<desc>Speed 1.5 km/h Distance 0.11 km</desc>
<time>2010-03-14T10:26:17.69</time>
<name>89</name>
</trkpt>
<trkpt lat="48.939512" lon="8.671042">
<ele>295.5</ele>
<speed>4.9</speed>
<course>133.4</course>
<desc>Speed 4.9 km/h Distance 0.11 km</desc>
<time>2010-03-14T10:26:18.69</time>
<name>90</name>
</trkpt>
<trkpt lat="48.939503" lon="8.671055">
<ele>295.5</ele>
<speed>4.1</speed>
<course>124.0</course>
<desc>Speed 4.1 km/h Distance 0.11 km</desc>
<time>2010-03-14T10:26:19.69</time>
<name>91</name>
</trkpt>
<trkpt lat="48.939497" lon="8.671070">
<ele>295.5</ele>
<speed>4.5</speed>
<course>137.4</course>
<desc>Speed 4.5 km/h Distance 0.11 km</desc>
<time>2010-03-14T10:26:20.69</time>
<name>92</name>
</trkpt>
<trkpt lat="48.939488" lon="8.671082">
<ele>295.5</ele>
<speed>4.0</speed>
<course>135.5</course>
<desc>Speed 4.0 km/h Distance 0.11 km</desc>
<time>2010-03-14T10:26:21.69</time>
<name>93</name>
</trkpt>
<trkpt lat="48.939478" lon="8.671097">
<ele>295.5</ele>
<speed>4.3</speed>
<course>116.9</course>
<desc>Speed 4.3 km/h Distance 0.12 km</desc>
<time>2010-03-14T10:26:22.69</time>
<name>94</name>
</trkpt>
<trkpt lat="48.939472" lon="8.671117">
<ele>295.5</ele>
<speed>5.0</speed>
<course>135.4</course>
<desc>Speed 5.0 km/h Distance 0.12 km</desc>
<time>2010-03-14T10:26:23.69</time>
<name>95</name>
</trkpt>
<trkpt lat="48.939462" lon="8.671132">
<ele>295.5</ele>
<speed>4.2</speed>
<course>133.5</course>
<desc>Speed 4.2 km/h Distance 0.12 km</desc>
<time>2010-03-14T10:26:24.69</time>
<name>96</name>
</trkpt>
<trkpt lat="48.939453" lon="8.671145">
<ele>295.5</ele>
<speed>3.2</speed>
<course>133.5</course>
<desc>Speed 3.2 km/h Distance 0.12 km</desc>
<time>2010-03-14T10:26:25.69</time>
<name>97</name>
</trkpt>
<trkpt lat="48.939445" lon="8.671158">
<ele>295.5</ele>
<speed>4.1</speed>
<course>127.3</course>
<desc>Speed 4.1 km/h Distance 0.12 km</desc>
<time>2010-03-14T10:26:26.69</time>
<name>98</name>
</trkpt>
<trkpt lat="48.939438" lon="8.671172">
<ele>295.5</ele>
<speed>3.7</speed>
<course>132.9</course>
<desc>Speed 3.7 km/h Distance 0.12 km</desc>
<time>2010-03-14T10:26:27.69</time>
<name>99</name>
</trkpt>
<trkpt lat="48.939433" lon="8.671180">
<ele>295.5</ele>
<speed>2.3</speed>
<course>180.0</course>
<desc>Speed 2.3 km/h Distance 0.12 km</desc>
<time>2010-03-14T10:26:28.69</time>
<name>100</name>
</trkpt>
<trkpt lat="48.939427" lon="8.671180">
<ele>295.5</ele>
<speed>1.0</speed>
<course>151.4</course>
<desc>Speed 1.0 km/h Distance 0.12 km</desc>
<time>2010-03-14T10:26:29.69</time>
<name>101</name>
</trkpt>
<trkpt lat="48.939417" lon="8.671188">
<ele>295.5</ele>
<speed>3.9</speed>
<course>132.2</course>
<desc>Speed 3.9 km/h Distance 0.13 km</desc>
<time>2010-03-14T10:26:30.69</time>
<name>102</name>
</trkpt>
<trkpt lat="48.939412" lon="8.671197">
<ele>295.5</ele>
<speed>2.2</speed>
<course>130.1</course>
<desc>Speed 2.2 km/h Distance 0.13 km</desc>
<time>2010-03-14T10:26:31.69</time>
<name>103</name>
</trkpt>
<trkpt lat="48.939403" lon="8.671212">
<ele>295.5</ele>
<speed>4.4</speed>
<course>127.2</course>
<desc>Speed 4.4 km/h Distance 0.13 km</desc>
<time>2010-03-14T10:26:32.69</time>
<name>104</name>
</trkpt>
<trkpt lat="48.939395" lon="8.671228">
<ele>295.5</ele>
<speed>4.2</speed>
<course>130.9</course>
<desc>Speed 4.2 km/h Distance 0.13 km</desc>
<time>2010-03-14T10:26:33.69</time>
<name>105</name>
</trkpt>
<trkpt lat="48.939388" lon="8.671240">
<ele>295.5</ele>
<speed>3.4</speed>
<course>119.7</course>
<desc>Speed 3.4 km/h Distance 0.13 km</desc>
<time>2010-03-14T10:26:34.69</time>
<name>106</name>
</trkpt>
<trkpt lat="48.939383" lon="8.671253">
<ele>295.5</ele>
<speed>3.3</speed>
<course>138.8</course>
<desc>Speed 3.3 km/h Distance 0.13 km</desc>
<time>2010-03-14T10:26:35.69</time>
<name>107</name>
</trkpt>
<trkpt lat="48.939373" lon="8.671267">
<ele>295.5</ele>
<speed>4.1</speed>
<course>138.8</course>
<desc>Speed 4.1 km/h Distance 0.13 km</desc>
<time>2010-03-14T10:26:36.69</time>
<name>108</name>
</trkpt>
<trkpt lat="48.939363" lon="8.671280">
<ele>295.5</ele>
<speed>3.9</speed>
<course>127.3</course>
<desc>Speed 3.9 km/h Distance 0.13 km</desc>
<time>2010-03-14T10:26:37.69</time>
<name>109</name>
</trkpt>
<trkpt lat="48.939353" lon="8.671300">
<ele>295.5</ele>
<speed>4.6</speed>
<course>131.6</course>
<desc>Speed 4.6 km/h Distance 0.14 km</desc>
<time>2010-03-14T10:26:38.69</time>
<name>110</name>
</trkpt>
<trkpt lat="48.939342" lon="8.671320">
<ele>295.5</ele>
<speed>4.4</speed>
<course>127.3</course>
<desc>Speed 4.4 km/h Distance 0.14 km</desc>
<time>2010-03-14T10:26:39.69</time>
<name>111</name>
</trkpt>
<trkpt lat="48.939333" lon="8.671337">
<ele>295.5</ele>
<speed>5.1</speed>
<course>146.8</course>
<desc>Speed 5.1 km/h Distance 0.14 km</desc>
<time>2010-03-14T10:26:40.69</time>
<name>112</name>
</trkpt>
<trkpt lat="48.939323" lon="8.671347">
<ele>295.5</ele>
<speed>3.6</speed>
<course>134.1</course>
<desc>Speed 3.6 km/h Distance 0.14 km</desc>
<time>2010-03-14T10:26:41.69</time>
<name>113</name>
</trkpt>
<trkpt lat="48.939312" lon="8.671365">
<ele>295.5</ele>
<speed>5.0</speed>
<course>136.9</course>
<desc>Speed 5.0 km/h Distance 0.14 km</desc>
<time>2010-03-14T10:26:42.69</time>
<name>114</name>
</trkpt>
<trkpt lat="48.939300" lon="8.671382">
<ele>295.5</ele>
<speed>4.0</speed>
<course>119.8</course>
<desc>Speed 4.0 km/h Distance 0.14 km</desc>
<time>2010-03-14T10:26:43.69</time>
<name>115</name>
</trkpt>
<trkpt lat="48.939290" lon="8.671408">
<ele>295.5</ele>
<speed>5.4</speed>
<course>127.3</course>
<desc>Speed 5.4 km/h Distance 0.15 km</desc>
<time>2010-03-14T10:26:44.69</time>
<name>116</name>
</trkpt>
<trkpt lat="48.939283" lon="8.671422">
<ele>295.5</ele>
<speed>4.1</speed>
<course>127.3</course>
<desc>Speed 4.1 km/h Distance 0.15 km</desc>
<time>2010-03-14T10:26:45.69</time>
<name>117</name>
</trkpt>
<trkpt lat="48.939277" lon="8.671435">
<ele>295.5</ele>
<speed>3.5</speed>
<course>133.6</course>
<desc>Speed 3.5 km/h Distance 0.15 km</desc>
<time>2010-03-14T10:26:46.69</time>
<name>118</name>
</trkpt>
<trkpt lat="48.939268" lon="8.671448">
<ele>295.5</ele>
<speed>4.3</speed>
<course>129.7</course>
<desc>Speed 4.3 km/h Distance 0.15 km</desc>
<time>2010-03-14T10:26:47.69</time>
<name>119</name>
</trkpt>
<trkpt lat="48.939258" lon="8.671467">
<ele>295.5</ele>
<speed>5.0</speed>
<course>129.7</course>
<desc>Speed 5.0 km/h Distance 0.15 km</desc>
<time>2010-03-14T10:26:48.69</time>
<name>120</name>
</trkpt>
<trkpt lat="48.939248" lon="8.671485">
<ele>295.5</ele>
<speed>4.4</speed>
<course>133.4</course>
<desc>Speed 4.4 km/h Distance 0.15 km</desc>
<time>2010-03-14T10:26:49.69</time>
<name>121</name>
</trkpt>
<trkpt lat="48.939240" lon="8.671498">
<ele>295.5</ele>
<speed>3.6</speed>
<course>152.1</course>
<desc>Speed 3.6 km/h Distance 0.16 km</desc>
<time>2010-03-14T10:26:50.69</time>
<name>122</name>
</trkpt>
<trkpt lat="48.939232" lon="8.671505">
<ele>295.5</ele>
<speed>2.9</speed>
<course>135.5</course>
<desc>Speed 2.9 km/h Distance 0.16 km</desc>
<time>2010-03-14T10:26:51.69</time>
<name>123</name>
</trkpt>
<trkpt lat="48.939222" lon="8.671520">
<ele>295.5</ele>
<speed>4.8</speed>
<course>120.4</course>
<desc>Speed 4.8 km/h Distance 0.16 km</desc>
<time>2010-03-14T10:26:52.69</time>
<name>124</name>
</trkpt>
<trkpt lat="48.939213" lon="8.671542">
<ele>295.5</ele>
<speed>5.0</speed>
<course>127.3</course>
<desc>Speed 5.0 km/h Distance 0.16 km</desc>
<time>2010-03-14T10:26:53.69</time>
<name>125</name>
</trkpt>
<trkpt lat="48.939203" lon="8.671562">
<ele>295.5</ele>
<speed>4.0</speed>
<course>125.1</course>
<desc>Speed 4.0 km/h Distance 0.16 km</desc>
<time>2010-03-14T10:26:54.69</time>
<name>126</name>
</trkpt>
<trkpt lat="48.939193" lon="8.671583">
<ele>295.5</ele>
<speed>4.3</speed>
<course>138.0</course>
<desc>Speed 4.3 km/h Distance 0.16 km</desc>
<time>2010-03-14T10:26:55.69</time>
<name>127</name>
</trkpt>
<trkpt lat="48.939180" lon="8.671602">
<ele>295.5</ele>
<speed>3.9</speed>
<course>130.9</course>
<desc>Speed 3.9 km/h Distance 0.17 km</desc>
<time>2010-03-14T10:26:56.69</time>
<name>128</name>
</trkpt>
<trkpt lat="48.939173" lon="8.671613">
<ele>295.5</ele>
<speed>3.8</speed>
<course>130.9</course>
<desc>Speed 3.8 km/h Distance 0.17 km</desc>
<time>2010-03-14T10:26:57.69</time>
<name>129</name>
</trkpt>
<trkpt lat="48.939167" lon="8.671625">
<ele>295.5</ele>
<speed>3.7</speed>
<course>127.3</course>
<desc>Speed 3.7 km/h Distance 0.17 km</desc>
<time>2010-03-14T10:26:58.69</time>
<name>130</name>
</trkpt>
<trkpt lat="48.939157" lon="8.671645">
<ele>295.5</ele>
<speed>5.8</speed>
<course>135.5</course>
<desc>Speed 5.8 km/h Distance 0.17 km</desc>
<time>2010-03-14T10:26:59.69</time>
<name>131</name>
</trkpt>
<trkpt lat="48.939150" lon="8.671655">
<ele>295.5</ele>
<speed>3.6</speed>
<course>130.3</course>
<desc>Speed 3.6 km/h Distance 0.17 km</desc>
<time>2010-03-14T10:27:00.69</time>
<name>132</name>
</trkpt>
<trkpt lat="48.939142" lon="8.671670">
<ele>295.5</ele>
<speed>4.8</speed>
<course>130.2</course>
<desc>Speed 4.8 km/h Distance 0.17 km</desc>
<time>2010-03-14T10:27:01.69</time>
<name>133</name>
</trkpt>
<trkpt lat="48.939133" lon="8.671685">
<ele>295.5</ele>
<speed>4.5</speed>
<course>132.4</course>
<desc>Speed 4.5 km/h Distance 0.17 km</desc>
<time>2010-03-14T10:27:02.69</time>
<name>134</name>
</trkpt>
<trkpt lat="48.939123" lon="8.671702">
<ele>295.5</ele>
<speed>4.6</speed>
<course>121.3</course>
<desc>Speed 4.6 km/h Distance 0.18 km</desc>
<time>2010-03-14T10:27:03.69</time>
<name>135</name>
</trkpt>
<trkpt lat="48.939117" lon="8.671718">
<ele>295.5</ele>
<speed>4.4</speed>
<course>116.9</course>
<desc>Speed 4.4 km/h Distance 0.18 km</desc>
<time>2010-03-14T10:27:04.69</time>
<name>136</name>
</trkpt>
<trkpt lat="48.939112" lon="8.671733">
<ele>295.5</ele>
<speed>3.3</speed>
<course>122.4</course>
<desc>Speed 3.3 km/h Distance 0.18 km</desc>
<time>2010-03-14T10:27:05.69</time>
<name>137</name>
</trkpt>
<trkpt lat="48.939103" lon="8.671753">
<ele>295.5</ele>
<speed>4.5</speed>
<course>120.4</course>
<desc>Speed 4.5 km/h Distance 0.18 km</desc>
<time>2010-03-14T10:27:06.69</time>
<name>138</name>
</trkpt>
<trkpt lat="48.939095" lon="8.671775">
<ele>295.5</ele>
<speed>4.4</speed>
<course>124.7</course>
<desc>Speed 4.4 km/h Distance 0.18 km</desc>
<time>2010-03-14T10:27:07.69</time>
<name>139</name>
</trkpt>
<trkpt lat="48.939087" lon="8.671793">
<ele>295.5</ele>
<speed>3.5</speed>
<course>135.5</course>
<desc>Speed 3.5 km/h Distance 0.18 km</desc>
<time>2010-03-14T10:27:08.69</time>
<name>140</name>
</trkpt>
<trkpt lat="48.939080" lon="8.671803">
<ele>295.5</ele>
<speed>2.9</speed>
<course>127.3</course>
<desc>Speed 2.9 km/h Distance 0.18 km</desc>
<time>2010-03-14T10:27:09.69</time>
<name>141</name>
</trkpt>
<trkpt lat="48.939072" lon="8.671820">
<ele>295.5</ele>
<speed>4.3</speed>
<course>124.7</course>
<desc>Speed 4.3 km/h Distance 0.19 km</desc>
<time>2010-03-14T10:27:10.69</time>
<name>142</name>
</trkpt>
<trkpt lat="48.939063" lon="8.671838">
<ele>295.5</ele>
<speed>4.8</speed>
<course>127.3</course>
<desc>Speed 4.8 km/h Distance 0.19 km</desc>
<time>2010-03-14T10:27:11.69</time>
<name>143</name>
</trkpt>
<trkpt lat="48.939055" lon="8.671855">
<ele>295.5</ele>
<speed>4.7</speed>
<course>114.5</course>
<desc>Speed 4.7 km/h Distance 0.19 km</desc>
<time>2010-03-14T10:27:12.69</time>
<name>144</name>
</trkpt>
<trkpt lat="48.939050" lon="8.671872">
<ele>295.5</ele>
<speed>3.7</speed>
<course>124.1</course>
<desc>Speed 3.7 km/h Distance 0.19 km</desc>
<time>2010-03-14T10:27:13.69</time>
<name>145</name>
</trkpt>
<trkpt lat="48.939043" lon="8.671887">
<ele>295.5</ele>
<speed>3.0</speed>
<course>121.3</course>
<desc>Speed 3.0 km/h Distance 0.19 km</desc>
<time>2010-03-14T10:27:14.69</time>
<name>146</name>
</trkpt>
<trkpt lat="48.939037" lon="8.671903">
<ele>295.5</ele>
<speed>4.6</speed>
<course>116.9</course>
<desc>Speed 4.6 km/h Distance 0.19 km</desc>
<time>2010-03-14T10:27:15.69</time>
<name>147</name>
</trkpt>
<trkpt lat="48.939032" lon="8.671918">
<ele>295.5</ele>
<speed>4.1</speed>
<course>114.6</course>
<desc>Speed 4.1 km/h Distance 0.19 km</desc>
<time>2010-03-14T10:27:16.69</time>
<name>148</name>
</trkpt>
<trkpt lat="48.939027" lon="8.671935">
<ele>295.5</ele>
<speed>4.1</speed>
<course>119.7</course>
<desc>Speed 4.1 km/h Distance 0.20 km</desc>
<time>2010-03-14T10:27:17.69</time>
<name>149</name>
</trkpt>
<trkpt lat="48.939022" lon="8.671948">
<ele>295.5</ele>
<speed>3.2</speed>
<course>122.9</course>
<desc>Speed 3.2 km/h Distance 0.20 km</desc>
<time>2010-03-14T10:27:18.69</time>
<name>150</name>
</trkpt>
<trkpt lat="48.939017" lon="8.671960">
<ele>295.5</ele>
<speed>3.5</speed>
<course>121.3</course>
<desc>Speed 3.5 km/h Distance 0.20 km</desc>
<time>2010-03-14T10:27:19.69</time>
<name>151</name>
</trkpt>
<trkpt lat="48.939010" lon="8.671977">
<ele>295.5</ele>
<speed>5.0</speed>
<course>141.9</course>
<desc>Speed 5.0 km/h Distance 0.20 km</desc>
<time>2010-03-14T10:27:20.69</time>
<name>152</name>
</trkpt>
<trkpt lat="48.939002" lon="8.671987">
<ele>295.5</ele>
<speed>3.7</speed>
<course>122.9</course>
<desc>Speed 3.7 km/h Distance 0.20 km</desc>
<time>2010-03-14T10:27:21.69</time>
<name>153</name>
</trkpt>
<trkpt lat="48.938997" lon="8.671998">
<ele>295.5</ele>
<speed>3.5</speed>
<course>132.2</course>
<desc>Speed 3.5 km/h Distance 0.20 km</desc>
<time>2010-03-14T10:27:22.69</time>
<name>154</name>
</trkpt>
<trkpt lat="48.938992" lon="8.672007">
<ele>295.5</ele>
<speed>3.2</speed>
<course>127.0</course>
<desc>Speed 3.2 km/h Distance 0.20 km</desc>
<time>2010-03-14T10:27:23.69</time>
<name>155</name>
</trkpt>
<trkpt lat="48.938988" lon="8.672013">
<ele>295.5</ele>
<speed>2.1</speed>
<course>135.5</course>
<desc>Speed 2.1 km/h Distance 0.20 km</desc>
<time>2010-03-14T10:27:24.69</time>
<name>156</name>
</trkpt>
<trkpt lat="48.938982" lon="8.672023">
<ele>295.5</ele>
<speed>3.5</speed>
<course>161.2</course>
<desc>Speed 3.5 km/h Distance 0.20 km</desc>
<time>2010-03-14T10:27:25.69</time>
<name>157</name>
</trkpt>
<trkpt lat="48.938975" lon="8.672027">
<ele>295.5</ele>
<speed>2.1</speed>
<course>133.5</course>
<desc>Speed 2.1 km/h Distance 0.20 km</desc>
<time>2010-03-14T10:27:26.69</time>
<name>158</name>
</trkpt>
<trkpt lat="48.938967" lon="8.672040">
<ele>295.5</ele>
<speed>4.7</speed>
<course>127.2</course>
<desc>Speed 4.7 km/h Distance 0.21 km</desc>
<time>2010-03-14T10:27:27.69</time>
<name>159</name>
</trkpt>
<trkpt lat="48.938960" lon="8.672053">
<ele>295.5</ele>
<speed>3.8</speed>
<course>124.1</course>
<desc>Speed 3.8 km/h Distance 0.21 km</desc>
<time>2010-03-14T10:27:28.69</time>
<name>160</name>
</trkpt>
<trkpt lat="48.938953" lon="8.672068">
<ele>295.5</ele>
<speed>3.6</speed>
<course>137.5</course>
<desc>Speed 3.6 km/h Distance 0.21 km</desc>
<time>2010-03-14T10:27:29.69</time>
<name>161</name>
</trkpt>
<trkpt lat="48.938945" lon="8.672080">
<ele>295.5</ele>
<speed>4.0</speed>
<course>137.5</course>
<desc>Speed 4.0 km/h Distance 0.21 km</desc>
<time>2010-03-14T10:27:30.69</time>
<name>162</name>
</trkpt>
<trkpt lat="48.938937" lon="8.672092">
<ele>295.5</ele>
<speed>4.0</speed>
<course>127.3</course>
<desc>Speed 4.0 km/h Distance 0.21 km</desc>
<time>2010-03-14T10:27:31.69</time>
<name>163</name>
</trkpt>
<trkpt lat="48.938928" lon="8.672108">
<ele>295.5</ele>
<speed>4.7</speed>
<course>132.4</course>
<desc>Speed 4.7 km/h Distance 0.21 km</desc>
<time>2010-03-14T10:27:32.69</time>
<name>164</name>
</trkpt>
<trkpt lat="48.938918" lon="8.672125">
<ele>295.5</ele>
<speed>4.7</speed>
<course>133.5</course>
<desc>Speed 4.7 km/h Distance 0.21 km</desc>
<time>2010-03-14T10:27:33.69</time>
<name>165</name>
</trkpt>
<trkpt lat="48.938910" lon="8.672138">
<ele>295.5</ele>
<speed>4.5</speed>
<course>124.1</course>
<desc>Speed 4.5 km/h Distance 0.22 km</desc>
<time>2010-03-14T10:27:34.69</time>
<name>166</name>
</trkpt>
<trkpt lat="48.938903" lon="8.672153">
<ele>295.5</ele>
<speed>4.8</speed>
<course>138.8</course>
<desc>Speed 4.8 km/h Distance 0.22 km</desc>
<time>2010-03-14T10:27:35.69</time>
<name>167</name>
</trkpt>
<trkpt lat="48.938893" lon="8.672167">
<ele>295.5</ele>
<speed>4.6</speed>
<course>130.9</course>
<desc>Speed 4.6 km/h Distance 0.22 km</desc>
<time>2010-03-14T10:27:36.69</time>
<name>168</name>
</trkpt>
<trkpt lat="48.938887" lon="8.672178">
<ele>295.5</ele>
<speed>3.7</speed>
<course>130.2</course>
<desc>Speed 3.7 km/h Distance 0.22 km</desc>
<time>2010-03-14T10:27:37.69</time>
<name>169</name>
</trkpt>
<trkpt lat="48.938878" lon="8.672193">
<ele>295.5</ele>
<speed>5.1</speed>
<course>142.5</course>
<desc>Speed 5.1 km/h Distance 0.22 km</desc>
<time>2010-03-14T10:27:38.69</time>
<name>170</name>
</trkpt>
<trkpt lat="48.938868" lon="8.672205">
<ele>295.5</ele>
<speed>4.6</speed>
<course>151.7</course>
<desc>Speed 4.6 km/h Distance 0.22 km</desc>
<time>2010-03-14T10:27:39.69</time>
<name>171</name>
</trkpt>
<trkpt lat="48.938858" lon="8.672213">
<ele>295.5</ele>
<speed>3.9</speed>
<course>147.0</course>
<desc>Speed 3.9 km/h Distance 0.22 km</desc>
<time>2010-03-14T10:27:40.69</time>
<name>172</name>
</trkpt>
<trkpt lat="48.938848" lon="8.672223">
<ele>295.5</ele>
<speed>4.4</speed>
<course>135.4</course>
<desc>Speed 4.4 km/h Distance 0.23 km</desc>
<time>2010-03-14T10:27:41.69</time>
<name>173</name>
</trkpt>
<trkpt lat="48.938838" lon="8.672238">
<ele>295.5</ele>
<speed>4.6</speed>
<course>150.2</course>
<desc>Speed 4.6 km/h Distance 0.23 km</desc>
<time>2010-03-14T10:27:42.69</time>
<name>174</name>
</trkpt>
<trkpt lat="48.938825" lon="8.672250">
<ele>295.5</ele>
<speed>4.5</speed>
<course>155.4</course>
<desc>Speed 4.5 km/h Distance 0.23 km</desc>
<time>2010-03-14T10:27:43.69</time>
<name>175</name>
</trkpt>
<trkpt lat="48.938813" lon="8.672258">
<ele>295.5</ele>
<speed>4.6</speed>
<course>150.6</course>
<desc>Speed 4.6 km/h Distance 0.23 km</desc>
<time>2010-03-14T10:27:44.69</time>
<name>176</name>
</trkpt>
<trkpt lat="48.938802" lon="8.672268">
<ele>295.5</ele>
<speed>4.3</speed>
<course>175.3</course>
<desc>Speed 4.3 km/h Distance 0.23 km</desc>
<time>2010-03-14T10:27:45.69</time>
<name>177</name>
</trkpt>
<trkpt lat="48.938790" lon="8.672270">
<ele>295.5</ele>
<speed>3.6</speed>
<course>151.4</course>
<desc>Speed 3.6 km/h Distance 0.23 km</desc>
<time>2010-03-14T10:27:46.69</time>
<name>178</name>
</trkpt>
<trkpt lat="48.938780" lon="8.672278">
<ele>295.5</ele>
<speed>4.0</speed>
<course>159.1</course>
<desc>Speed 4.0 km/h Distance 0.23 km</desc>
<time>2010-03-14T10:27:47.69</time>
<name>179</name>
</trkpt>
<trkpt lat="48.938768" lon="8.672285">
<ele>295.5</ele>
<speed>3.9</speed>
<course>142.5</course>
<desc>Speed 3.9 km/h Distance 0.24 km</desc>
<time>2010-03-14T10:27:48.69</time>
<name>180</name>
</trkpt>
<trkpt lat="48.938758" lon="8.672297">
<ele>295.5</ele>
<speed>4.2</speed>
<course>150.8</course>
<desc>Speed 4.2 km/h Distance 0.24 km</desc>
<time>2010-03-14T10:27:49.69</time>
<name>181</name>
</trkpt>
<trkpt lat="48.938747" lon="8.672307">
<ele>295.5</ele>
<speed>3.7</speed>
<course>150.6</course>
<desc>Speed 3.7 km/h Distance 0.24 km</desc>
<time>2010-03-14T10:27:50.69</time>
<name>182</name>
</trkpt>
<trkpt lat="48.938735" lon="8.672317">
<ele>295.5</ele>
<speed>4.2</speed>
<course>171.0</course>
<desc>Speed 4.2 km/h Distance 0.24 km</desc>
<time>2010-03-14T10:27:51.69</time>
<name>183</name>
</trkpt>
<trkpt lat="48.938722" lon="8.672320">
<ele>295.5</ele>
<speed>4.3</speed>
<course>150.2</course>
<desc>Speed 4.3 km/h Distance 0.24 km</desc>
<time>2010-03-14T10:27:52.69</time>
<name>184</name>
</trkpt>
<trkpt lat="48.938708" lon="8.672332">
<ele>295.5</ele>
<speed>4.4</speed>
<course>139.8</course>
<desc>Speed 4.4 km/h Distance 0.24 km</desc>
<time>2010-03-14T10:27:53.69</time>
<name>185</name>
</trkpt>
<trkpt lat="48.938697" lon="8.672347">
<ele>295.5</ele>
<speed>5.3</speed>
<course>166.5</course>
<desc>Speed 5.3 km/h Distance 0.24 km</desc>
<time>2010-03-14T10:27:54.69</time>
<name>186</name>
</trkpt>
<trkpt lat="48.938683" lon="8.672352">
<ele>295.5</ele>
<speed>3.9</speed>
<course>146.8</course>
<desc>Speed 3.9 km/h Distance 0.25 km</desc>
<time>2010-03-14T10:27:55.69</time>
<name>187</name>
</trkpt>
<trkpt lat="48.938673" lon="8.672362">
<ele>295.5</ele>
<speed>3.5</speed>
<course>146.6</course>
<desc>Speed 3.5 km/h Distance 0.25 km</desc>
<time>2010-03-14T10:27:56.69</time>
<name>188</name>
</trkpt>
<trkpt lat="48.938662" lon="8.672373">
<ele>295.5</ele>
<speed>3.8</speed>
<course>153.6</course>
<desc>Speed 3.8 km/h Distance 0.25 km</desc>
<time>2010-03-14T10:27:57.69</time>
<name>189</name>
</trkpt>
<trkpt lat="48.938648" lon="8.672383">
<ele>295.5</ele>
<speed>4.1</speed>
<course>142.5</course>
<desc>Speed 4.1 km/h Distance 0.25 km</desc>
<time>2010-03-14T10:27:58.69</time>
<name>190</name>
</trkpt>
<trkpt lat="48.938638" lon="8.672395">
<ele>295.5</ele>
<speed>4.6</speed>
<course>170.3</course>
<desc>Speed 4.6 km/h Distance 0.25 km</desc>
<time>2010-03-14T10:27:59.69</time>
<name>191</name>
</trkpt>
<trkpt lat="48.938625" lon="8.672398">
<ele>295.5</ele>
<speed>4.8</speed>
<course>156.3</course>
<desc>Speed 4.8 km/h Distance 0.25 km</desc>
<time>2010-03-14T10:28:00.69</time>
<name>192</name>
</trkpt>
<trkpt lat="48.938610" lon="8.672408">
<ele>295.5</ele>
<speed>5.1</speed>
<course>164.0</course>
<desc>Speed 5.1 km/h Distance 0.26 km</desc>
<time>2010-03-14T10:28:01.69</time>
<name>193</name>
</trkpt>
<trkpt lat="48.938598" lon="8.672413">
<ele>295.5</ele>
<speed>4.1</speed>
<course>191.2</course>
<desc>Speed 4.1 km/h Distance 0.26 km</desc>
<time>2010-03-14T10:28:02.69</time>
<name>194</name>
</trkpt>
<trkpt lat="48.938587" lon="8.672410">
<ele>295.5</ele>
<speed>4.1</speed>
<course>168.8</course>
<desc>Speed 4.1 km/h Distance 0.26 km</desc>
<time>2010-03-14T10:28:03.69</time>
<name>195</name>
</trkpt>
<trkpt lat="48.938575" lon="8.672413">
<ele>295.5</ele>
<speed>3.9</speed>
<course>168.8</course>
<desc>Speed 3.9 km/h Distance 0.26 km</desc>
<time>2010-03-14T10:28:04.69</time>
<name>196</name>
</trkpt>
<trkpt lat="48.938563" lon="8.672417">
<ele>295.5</ele>
<speed>3.5</speed>
<course>136.7</course>
<desc>Speed 3.5 km/h Distance 0.26 km</desc>
<time>2010-03-14T10:28:05.69</time>
<name>197</name>
</trkpt>
<trkpt lat="48.938552" lon="8.672433">
<ele>295.5</ele>
<speed>4.7</speed>
<course>150.6</course>
<desc>Speed 4.7 km/h Distance 0.26 km</desc>
<time>2010-03-14T10:28:06.69</time>
<name>198</name>
</trkpt>
<trkpt lat="48.938540" lon="8.672443">
<ele>295.5</ele>
<speed>4.9</speed>
<course>161.9</course>
<desc>Speed 4.9 km/h Distance 0.26 km</desc>
<time>2010-03-14T10:28:07.69</time>
<name>199</name>
</trkpt>
<trkpt lat="48.938527" lon="8.672450">
<ele>295.5</ele>
<speed>4.8</speed>
<course>142.5</course>
<desc>Speed 4.8 km/h Distance 0.27 km</desc>
<time>2010-03-14T10:28:08.69</time>
<name>200</name>
</trkpt>
<trkpt lat="48.938517" lon="8.672462">
<ele>295.5</ele>
<speed>4.1</speed>
<course>133.5</course>
<desc>Speed 4.1 km/h Distance 0.27 km</desc>
<time>2010-03-14T10:28:09.69</time>
<name>201</name>
</trkpt>
<trkpt lat="48.938508" lon="8.672475">
<ele>295.5</ele>
<speed>4.6</speed>
<course>151.4</course>
<desc>Speed 4.6 km/h Distance 0.27 km</desc>
<time>2010-03-14T10:28:10.69</time>
<name>202</name>
</trkpt>
<trkpt lat="48.938498" lon="8.672483">
<ele>295.5</ele>
<speed>3.6</speed>
<course>137.4</course>
<desc>Speed 3.6 km/h Distance 0.27 km</desc>
<time>2010-03-14T10:28:11.69</time>
<name>203</name>
</trkpt>
<trkpt lat="48.938490" lon="8.672495">
<ele>295.5</ele>
<speed>3.7</speed>
<course>167.4</course>
<desc>Speed 3.7 km/h Distance 0.27 km</desc>
<time>2010-03-14T10:28:12.69</time>
<name>204</name>
</trkpt>
<trkpt lat="48.938475" lon="8.672500">
<ele>295.5</ele>
<speed>4.5</speed>
<course>175.6</course>
<desc>Speed 4.5 km/h Distance 0.27 km</desc>
<time>2010-03-14T10:28:13.69</time>
<name>205</name>
</trkpt>
<trkpt lat="48.938465" lon="8.672502">
<ele>295.5</ele>
<speed>3.4</speed>
<course>171.9</course>
<desc>Speed 3.4 km/h Distance 0.27 km</desc>
<time>2010-03-14T10:28:14.69</time>
<name>206</name>
</trkpt>
<trkpt lat="48.938455" lon="8.672503">
<ele>295.5</ele>
<speed>3.6</speed>
<course>192.6</course>
<desc>Speed 3.6 km/h Distance 0.27 km</desc>
<time>2010-03-14T10:28:15.69</time>
<name>207</name>
</trkpt>
<trkpt lat="48.938445" lon="8.672500">
<ele>295.5</ele>
<speed>3.5</speed>
<course>226.4</course>
<desc>Speed 3.5 km/h Distance 0.28 km</desc>
<time>2010-03-14T10:28:16.69</time>
<name>208</name>
</trkpt>
<trkpt lat="48.938437" lon="8.672487">
<ele>295.5</ele>
<speed>4.2</speed>
<course>198.2</course>
<desc>Speed 4.2 km/h Distance 0.28 km</desc>
<time>2010-03-14T10:28:17.69</time>
<name>209</name>
</trkpt>
<trkpt lat="48.938427" lon="8.672482">
<ele>295.5</ele>
<speed>3.5</speed>
<course>186.3</course>
<desc>Speed 3.5 km/h Distance 0.28 km</desc>
<time>2010-03-14T10:28:18.69</time>
<name>210</name>
</trkpt>
<trkpt lat="48.938415" lon="8.672480">
<ele>295.5</ele>
<speed>3.6</speed>
<course>185.3</course>
<desc>Speed 3.6 km/h Distance 0.28 km</desc>
<time>2010-03-14T10:28:19.69</time>
<name>211</name>
</trkpt>
<trkpt lat="48.938402" lon="8.672478">
<ele>295.5</ele>
<speed>4.0</speed>
<course>159.1</course>
<desc>Speed 4.0 km/h Distance 0.28 km</desc>
<time>2010-03-14T10:28:20.69</time>
<name>212</name>
</trkpt>
<trkpt lat="48.938390" lon="8.672485">
<ele>295.5</ele>
<speed>4.2</speed>
<course>174.7</course>
<desc>Speed 4.2 km/h Distance 0.28 km</desc>
<time>2010-03-14T10:28:21.69</time>
<name>213</name>
</trkpt>
<trkpt lat="48.938377" lon="8.672487">
<ele>295.5</ele>
<speed>4.1</speed>
<course>170.5</course>
<desc>Speed 4.1 km/h Distance 0.28 km</desc>
<time>2010-03-14T10:28:22.69</time>
<name>214</name>
</trkpt>
<trkpt lat="48.938365" lon="8.672490">
<ele>295.5</ele>
<speed>4.3</speed>
<course>176.1</course>
<desc>Speed 4.3 km/h Distance 0.29 km</desc>
<time>2010-03-14T10:28:23.69</time>
<name>215</name>
</trkpt>
<trkpt lat="48.938352" lon="8.672492">
<ele>295.5</ele>
<speed>4.4</speed>
<course>168.8</course>
<desc>Speed 4.4 km/h Distance 0.29 km</desc>
<time>2010-03-14T10:28:24.69</time>
<name>216</name>
</trkpt>
<trkpt lat="48.938340" lon="8.672495">
<ele>295.5</ele>
<speed>4.0</speed>
<course>170.3</course>
<desc>Speed 4.0 km/h Distance 0.29 km</desc>
<time>2010-03-14T10:28:25.69</time>
<name>217</name>
</trkpt>
<trkpt lat="48.938327" lon="8.672498">
<ele>295.5</ele>
<speed>3.9</speed>
<course>185.3</course>
<desc>Speed 3.9 km/h Distance 0.29 km</desc>
<time>2010-03-14T10:28:26.69</time>
<name>218</name>
</trkpt>
<trkpt lat="48.938313" lon="8.672497">
<ele>295.5</ele>
<speed>4.0</speed>
<course>154.8</course>
<desc>Speed 4.0 km/h Distance 0.29 km</desc>
<time>2010-03-14T10:28:27.69</time>
<name>219</name>
</trkpt>
<trkpt lat="48.938302" lon="8.672505">
<ele>295.5</ele>
<speed>3.9</speed>
<course>167.8</course>
<desc>Speed 3.9 km/h Distance 0.29 km</desc>
<time>2010-03-14T10:28:28.69</time>
<name>220</name>
</trkpt>
<trkpt lat="48.938287" lon="8.672510">
<ele>295.5</ele>
<speed>4.6</speed>
<course>175.3</course>
<desc>Speed 4.6 km/h Distance 0.29 km</desc>
<time>2010-03-14T10:28:29.69</time>
<name>221</name>
</trkpt>
<trkpt lat="48.938275" lon="8.672512">
<ele>295.5</ele>
<speed>3.7</speed>
<course>159.9</course>
<desc>Speed 3.7 km/h Distance 0.30 km</desc>
<time>2010-03-14T10:28:30.69</time>
<name>222</name>
</trkpt>
<trkpt lat="48.938260" lon="8.672520">
<ele>295.5</ele>
<speed>4.2</speed>
<course>190.4</course>
<desc>Speed 4.2 km/h Distance 0.30 km</desc>
<time>2010-03-14T10:28:31.69</time>
<name>223</name>
</trkpt>
<trkpt lat="48.938248" lon="8.672517">
<ele>295.5</ele>
<speed>4.1</speed>
<course>203.8</course>
<desc>Speed 4.1 km/h Distance 0.30 km</desc>
<time>2010-03-14T10:28:32.69</time>
<name>224</name>
</trkpt>
<trkpt lat="48.938238" lon="8.672510">
<ele>295.5</ele>
<speed>3.8</speed>
<course>189.7</course>
<desc>Speed 3.8 km/h Distance 0.30 km</desc>
<time>2010-03-14T10:28:33.69</time>
<name>225</name>
</trkpt>
<trkpt lat="48.938225" lon="8.672507">
<ele>295.5</ele>
<speed>4.3</speed>
<course>198.2</course>
<desc>Speed 4.3 km/h Distance 0.30 km</desc>
<time>2010-03-14T10:28:34.69</time>
<name>226</name>
</trkpt>
<trkpt lat="48.938215" lon="8.672502">
<ele>295.5</ele>
<speed>3.2</speed>
<course>180.0</course>
<desc>Speed 3.2 km/h Distance 0.30 km</desc>
<time>2010-03-14T10:28:35.69</time>
<name>227</name>
</trkpt>
<trkpt lat="48.938205" lon="8.672502">
<ele>295.5</ele>
<speed>3.3</speed>
<course>166.0</course>
<desc>Speed 3.3 km/h Distance 0.30 km</desc>
<time>2010-03-14T10:28:36.69</time>
<name>228</name>
</trkpt>
<trkpt lat="48.938192" lon="8.672507">
<ele>295.5</ele>
<speed>4.2</speed>
<course>177.8</course>
<desc>Speed 4.2 km/h Distance 0.31 km</desc>
<time>2010-03-14T10:28:37.69</time>
<name>229</name>
</trkpt>
<trkpt lat="48.938180" lon="8.672507">
<ele>295.5</ele>
<speed>3.6</speed>
<course>171.0</course>
<desc>Speed 3.6 km/h Distance 0.31 km</desc>
<time>2010-03-14T10:28:38.69</time>
<name>230</name>
</trkpt>
<trkpt lat="48.938167" lon="8.672510">
<ele>295.5</ele>
<speed>4.5</speed>
<course>166.0</course>
<desc>Speed 4.5 km/h Distance 0.31 km</desc>
<time>2010-03-14T10:28:39.69</time>
<name>231</name>
</trkpt>
<trkpt lat="48.938153" lon="8.672515">
<ele>295.5</ele>
<speed>4.0</speed>
<course>159.4</course>
<desc>Speed 4.0 km/h Distance 0.31 km</desc>
<time>2010-03-14T10:28:40.69</time>
<name>232</name>
</trkpt>
<trkpt lat="48.938142" lon="8.672522">
<ele>295.5</ele>
<speed>4.2</speed>
<course>161.8</course>
<desc>Speed 4.2 km/h Distance 0.31 km</desc>
<time>2010-03-14T10:28:41.69</time>
<name>233</name>
</trkpt>
<trkpt lat="48.938132" lon="8.672527">
<ele>295.5</ele>
<speed>4.0</speed>
<course>180.0</course>
<desc>Speed 4.0 km/h Distance 0.31 km</desc>
<time>2010-03-14T10:28:42.69</time>
<name>234</name>
</trkpt>
<trkpt lat="48.938120" lon="8.672527">
<ele>295.5</ele>
<speed>3.6</speed>
<course>171.0</course>
<desc>Speed 3.6 km/h Distance 0.31 km</desc>
<time>2010-03-14T10:28:43.69</time>
<name>235</name>
</trkpt>
<trkpt lat="48.938107" lon="8.672530">
<ele>295.5</ele>
<speed>4.2</speed>
<course>166.5</course>
<desc>Speed 4.2 km/h Distance 0.32 km</desc>
<time>2010-03-14T10:28:44.69</time>
<name>236</name>
</trkpt>
<trkpt lat="48.938093" lon="8.672535">
<ele>295.5</ele>
<speed>3.7</speed>
<course>198.1</course>
<desc>Speed 3.7 km/h Distance 0.32 km</desc>
<time>2010-03-14T10:28:45.69</time>
<name>237</name>
</trkpt>
<trkpt lat="48.938080" lon="8.672528">
<ele>295.5</ele>
<speed>3.7</speed>
<course>184.7</course>
<desc>Speed 3.7 km/h Distance 0.32 km</desc>
<time>2010-03-14T10:28:46.69</time>
<name>238</name>
</trkpt>
<trkpt lat="48.938068" lon="8.672527">
<ele>295.5</ele>
<speed>3.7</speed>
<course>156.6</course>
<desc>Speed 3.7 km/h Distance 0.32 km</desc>
<time>2010-03-14T10:28:47.69</time>
<name>239</name>
</trkpt>
<trkpt lat="48.938058" lon="8.672533">
<ele>295.5</ele>
<speed>4.2</speed>
<course>151.4</course>
<desc>Speed 4.2 km/h Distance 0.32 km</desc>
<time>2010-03-14T10:28:48.69</time>
<name>240</name>
</trkpt>
<trkpt lat="48.938048" lon="8.672542">
<ele>295.5</ele>
<speed>4.0</speed>
<course>154.0</course>
<desc>Speed 4.0 km/h Distance 0.32 km</desc>
<time>2010-03-14T10:28:49.69</time>
<name>241</name>
</trkpt>
<trkpt lat="48.938035" lon="8.672552">
<ele>295.5</ele>
<speed>4.6</speed>
<course>134.1</course>
<desc>Speed 4.6 km/h Distance 0.32 km</desc>
<time>2010-03-14T10:28:50.69</time>
<name>242</name>
</trkpt>
<trkpt lat="48.938023" lon="8.672570">
<ele>295.5</ele>
<speed>5.0</speed>
<course>135.5</course>
<desc>Speed 5.0 km/h Distance 0.33 km</desc>
<time>2010-03-14T10:28:51.69</time>
<name>243</name>
</trkpt>
<trkpt lat="48.938010" lon="8.672590">
<ele>295.5</ele>
<speed>5.1</speed>
<course>143.1</course>
<desc>Speed 5.1 km/h Distance 0.33 km</desc>
<time>2010-03-14T10:28:52.69</time>
<name>244</name>
</trkpt>
<trkpt lat="48.937998" lon="8.672603">
<ele>295.5</ele>
<speed>4.5</speed>
<course>127.2</course>
<desc>Speed 4.5 km/h Distance 0.33 km</desc>
<time>2010-03-14T10:28:53.69</time>
<name>245</name>
</trkpt>
<trkpt lat="48.937990" lon="8.672620">
<ele>295.5</ele>
<speed>4.7</speed>
<course>127.3</course>
<desc>Speed 4.7 km/h Distance 0.33 km</desc>
<time>2010-03-14T10:28:54.69</time>
<name>246</name>
</trkpt>
<trkpt lat="48.937982" lon="8.672637">
<ele>295.5</ele>
<speed>4.6</speed>
<course>134.1</course>
<desc>Speed 4.6 km/h Distance 0.33 km</desc>
<time>2010-03-14T10:28:55.69</time>
<name>247</name>
</trkpt>
<trkpt lat="48.937970" lon="8.672655">
<ele>295.5</ele>
<speed>4.7</speed>
<course>131.6</course>
<desc>Speed 4.7 km/h Distance 0.33 km</desc>
<time>2010-03-14T10:28:56.69</time>
<name>248</name>
</trkpt>
<trkpt lat="48.937958" lon="8.672675">
<ele>295.5</ele>
<speed>4.8</speed>
<course>137.4</course>
<desc>Speed 4.8 km/h Distance 0.34 km</desc>
<time>2010-03-14T10:28:57.69</time>
<name>249</name>
</trkpt>
<trkpt lat="48.937950" lon="8.672687">
<ele>295.5</ele>
<speed>4.3</speed>
<course>127.3</course>
<desc>Speed 4.3 km/h Distance 0.34 km</desc>
<time>2010-03-14T10:28:58.69</time>
<name>250</name>
</trkpt>
<trkpt lat="48.937943" lon="8.672700">
<ele>295.5</ele>
<speed>4.1</speed>
<course>141.9</course>
<desc>Speed 4.1 km/h Distance 0.34 km</desc>
<time>2010-03-14T10:28:59.69</time>
<name>251</name>
</trkpt>
<trkpt lat="48.937935" lon="8.672710">
<ele>295.5</ele>
<speed>3.9</speed>
<course>142.5</course>
<desc>Speed 3.9 km/h Distance 0.34 km</desc>
<time>2010-03-14T10:29:00.69</time>
<name>252</name>
</trkpt>
<trkpt lat="48.937925" lon="8.672722">
<ele>295.5</ele>
<speed>4.6</speed>
<course>159.4</course>
<desc>Speed 4.6 km/h Distance 0.34 km</desc>
<time>2010-03-14T10:29:01.69</time>
<name>253</name>
</trkpt>
<trkpt lat="48.937913" lon="8.672728">
<ele>295.5</ele>
<speed>4.1</speed>
<course>161.9</course>
<desc>Speed 4.1 km/h Distance 0.34 km</desc>
<time>2010-03-14T10:29:02.69</time>
<name>254</name>
</trkpt>
<trkpt lat="48.937900" lon="8.672735">
<ele>295.5</ele>
<speed>4.0</speed>
<course>159.9</course>
<desc>Speed 4.0 km/h Distance 0.34 km</desc>
<time>2010-03-14T10:29:03.69</time>
<name>255</name>
</trkpt>
<trkpt lat="48.937885" lon="8.672743">
<ele>295.5</ele>
<speed>4.6</speed>
<course>177.8</course>
<desc>Speed 4.6 km/h Distance 0.35 km</desc>
<time>2010-03-14T10:29:04.69</time>
<name>256</name>
</trkpt>
<trkpt lat="48.937873" lon="8.672743">
<ele>295.5</ele>
<speed>3.9</speed>
<course>166.5</course>
<desc>Speed 3.9 km/h Distance 0.35 km</desc>
<time>2010-03-14T10:29:05.69</time>
<name>257</name>
</trkpt>
<trkpt lat="48.937860" lon="8.672748">
<ele>295.5</ele>
<speed>4.8</speed>
<course>168.3</course>
<desc>Speed 4.8 km/h Distance 0.35 km</desc>
<time>2010-03-14T10:29:06.69</time>
<name>258</name>
</trkpt>
<trkpt lat="48.937845" lon="8.672753">
<ele>295.5</ele>
<speed>5.4</speed>
<course>184.7</course>
<desc>Speed 5.4 km/h Distance 0.35 km</desc>
<time>2010-03-14T10:29:07.69</time>
<name>259</name>
</trkpt>
<trkpt lat="48.937833" lon="8.672752">
<ele>295.5</ele>
<speed>4.4</speed>
<course>184.7</course>
<desc>Speed 4.4 km/h Distance 0.35 km</desc>
<time>2010-03-14T10:29:08.69</time>
<name>260</name>
</trkpt>
<trkpt lat="48.937822" lon="8.672750">
<ele>295.5</ele>
<speed>4.2</speed>
<course>178.8</course>
<desc>Speed 4.2 km/h Distance 0.35 km</desc>
<time>2010-03-14T10:29:09.69</time>
<name>261</name>
</trkpt>
<trkpt lat="48.937808" lon="8.672750">
<ele>295.5</ele>
<speed>4.5</speed>
<course>169.6</course>
<desc>Speed 4.5 km/h Distance 0.35 km</desc>
<time>2010-03-14T10:29:10.69</time>
<name>262</name>
</trkpt>
<trkpt lat="48.937797" lon="8.672753">
<ele>295.5</ele>
<speed>3.7</speed>
<course>183.8</course>
<desc>Speed 3.7 km/h Distance 0.36 km</desc>
<time>2010-03-14T10:29:11.69</time>
<name>263</name>
</trkpt>
<trkpt lat="48.937782" lon="8.672752">
<ele>295.5</ele>
<speed>4.5</speed>
<course>171.2</course>
<desc>Speed 4.5 km/h Distance 0.36 km</desc>
<time>2010-03-14T10:29:12.69</time>
<name>264</name>
</trkpt>
<trkpt lat="48.937767" lon="8.672755">
<ele>295.5</ele>
<speed>4.6</speed>
<course>170.5</course>
<desc>Speed 4.6 km/h Distance 0.36 km</desc>
<time>2010-03-14T10:29:13.69</time>
<name>265</name>
</trkpt>
<trkpt lat="48.937755" lon="8.672758">
<ele>295.5</ele>
<speed>3.9</speed>
<course>159.4</course>
<desc>Speed 3.9 km/h Distance 0.36 km</desc>
<time>2010-03-14T10:29:14.69</time>
<name>266</name>
</trkpt>
<trkpt lat="48.937743" lon="8.672765">
<ele>295.5</ele>
<speed>4.0</speed>
<course>166.2</course>
<desc>Speed 4.0 km/h Distance 0.36 km</desc>
<time>2010-03-14T10:29:15.69</time>
<name>267</name>
</trkpt>
<trkpt lat="48.937735" lon="8.672768">
<ele>295.5</ele>
<speed>3.1</speed>
<course>141.9</course>
<desc>Speed 3.1 km/h Distance 0.36 km</desc>
<time>2010-03-14T10:29:16.69</time>
<name>268</name>
</trkpt>
<trkpt lat="48.937727" lon="8.672778">
<ele>295.5</ele>
<speed>4.2</speed>
<course>258.9</course>
<desc>Speed 4.2 km/h Distance 0.36 km</desc>
<time>2010-03-14T10:29:17.69</time>
<name>269</name>
</trkpt>
<trkpt lat="48.937720" lon="8.672727">
<ele>295.5</ele>
<speed>3.6</speed>
<course>174.7</course>
<desc>Speed 3.6 km/h Distance 0.37 km</desc>
<time>2010-03-14T10:29:19.69</time>
<name>270</name>
</trkpt>
<trkpt lat="48.937707" lon="8.672728">
<ele>295.5</ele>
<speed>3.7</speed>
<course>169.8</course>
<desc>Speed 3.7 km/h Distance 0.37 km</desc>
<time>2010-03-14T10:29:20.69</time>
<name>271</name>
</trkpt>
<trkpt lat="48.937688" lon="8.672733">
<ele>295.5</ele>
<speed>4.6</speed>
<course>171.9</course>
<desc>Speed 4.6 km/h Distance 0.37 km</desc>
<time>2010-03-14T10:29:21.69</time>
<name>272</name>
</trkpt>
<trkpt lat="48.937673" lon="8.672737">
<ele>295.5</ele>
<speed>5.0</speed>
<course>167.4</course>
<desc>Speed 5.0 km/h Distance 0.37 km</desc>
<time>2010-03-14T10:29:22.69</time>
<name>273</name>
</trkpt>
<trkpt lat="48.937658" lon="8.672742">
<ele>295.5</ele>
<speed>4.7</speed>
<course>165.1</course>
<desc>Speed 4.7 km/h Distance 0.37 km</desc>
<time>2010-03-14T10:29:23.69</time>
<name>274</name>
</trkpt>
<trkpt lat="48.937642" lon="8.672748">
<ele>295.5</ele>
<speed>4.4</speed>
<course>137.9</course>
<desc>Speed 4.4 km/h Distance 0.38 km</desc>
<time>2010-03-14T10:29:24.69</time>
<name>275</name>
</trkpt>
<trkpt lat="48.937628" lon="8.672767">
<ele>295.5</ele>
<speed>4.8</speed>
<course>149.4</course>
<desc>Speed 4.8 km/h Distance 0.38 km</desc>
<time>2010-03-14T10:29:25.69</time>
<name>276</name>
</trkpt>
<trkpt lat="48.937612" lon="8.672782">
<ele>295.5</ele>
<speed>4.4</speed>
<course>144.2</course>
<desc>Speed 4.4 km/h Distance 0.38 km</desc>
<time>2010-03-14T10:29:26.69</time>
<name>277</name>
</trkpt>
<trkpt lat="48.937595" lon="8.672800">
<ele>295.5</ele>
<speed>3.9</speed>
<course>152.3</course>
<desc>Speed 3.9 km/h Distance 0.38 km</desc>
<time>2010-03-14T10:29:27.69</time>
<name>278</name>
</trkpt>
<trkpt lat="48.937578" lon="8.672813">
<ele>295.5</ele>
<speed>4.2</speed>
<course>151.8</course>
<desc>Speed 4.2 km/h Distance 0.39 km</desc>
<time>2010-03-14T10:29:28.69</time>
<name>279</name>
</trkpt>
<trkpt lat="48.937560" lon="8.672828">
<ele>295.5</ele>
<speed>4.7</speed>
<course>146.7</course>
<desc>Speed 4.7 km/h Distance 0.39 km</desc>
<time>2010-03-14T10:29:29.69</time>
<name>280</name>
</trkpt>
<trkpt lat="48.937542" lon="8.672847">
<ele>295.5</ele>
<speed>4.8</speed>
<course>165.7</course>
<desc>Speed 4.8 km/h Distance 0.39 km</desc>
<time>2010-03-14T10:29:30.69</time>
<name>281</name>
</trkpt>
<trkpt lat="48.937525" lon="8.672853">
<ele>295.5</ele>
<speed>4.6</speed>
<course>180.0</course>
<desc>Speed 4.6 km/h Distance 0.39 km</desc>
<time>2010-03-14T10:29:31.69</time>
<name>282</name>
</trkpt>
<trkpt lat="48.937510" lon="8.672853">
<ele>295.5</ele>
<speed>4.7</speed>
<course>151.4</course>
<desc>Speed 4.7 km/h Distance 0.39 km</desc>
<time>2010-03-14T10:29:32.69</time>
<name>283</name>
</trkpt>
<trkpt lat="48.937500" lon="8.672862">
<ele>295.5</ele>
<speed>4.1</speed>
<course>189.0</course>
<desc>Speed 4.1 km/h Distance 0.39 km</desc>
<time>2010-03-14T10:29:33.69</time>
<name>284</name>
</trkpt>
<trkpt lat="48.937487" lon="8.672858">
<ele>295.5</ele>
<speed>4.4</speed>
<course>202.1</course>
<desc>Speed 4.4 km/h Distance 0.40 km</desc>
<time>2010-03-14T10:29:34.69</time>
<name>285</name>
</trkpt>
<trkpt lat="48.937473" lon="8.672850">
<ele>295.5</ele>
<speed>4.4</speed>
<course>191.2</course>
<desc>Speed 4.4 km/h Distance 0.40 km</desc>
<time>2010-03-14T10:29:35.69</time>
<name>286</name>
</trkpt>
<trkpt lat="48.937462" lon="8.672847">
<ele>295.5</ele>
<speed>3.9</speed>
<course>168.8</course>
<desc>Speed 3.9 km/h Distance 0.40 km</desc>
<time>2010-03-14T10:29:36.69</time>
<name>287</name>
</trkpt>
<trkpt lat="48.937450" lon="8.672850">
<ele>295.5</ele>
<speed>4.0</speed>
<course>199.3</course>
<desc>Speed 4.0 km/h Distance 0.40 km</desc>
<time>2010-03-14T10:29:37.69</time>
<name>288</name>
</trkpt>
<trkpt lat="48.937440" lon="8.672845">
<ele>295.5</ele>
<speed>3.5</speed>
<course>173.7</course>
<desc>Speed 3.5 km/h Distance 0.40 km</desc>
<time>2010-03-14T10:29:38.69</time>
<name>289</name>
</trkpt>
<trkpt lat="48.937428" lon="8.672847">
<ele>295.5</ele>
<speed>3.9</speed>
<course>161.6</course>
<desc>Speed 3.9 km/h Distance 0.40 km</desc>
<time>2010-03-14T10:29:39.69</time>
<name>290</name>
</trkpt>
<trkpt lat="48.937415" lon="8.672853">
<ele>295.5</ele>
<speed>4.2</speed>
<course>168.8</course>
<desc>Speed 4.2 km/h Distance 0.40 km</desc>
<time>2010-03-14T10:29:40.69</time>
<name>291</name>
</trkpt>
<trkpt lat="48.937403" lon="8.672857">
<ele>295.5</ele>
<speed>3.8</speed>
<course>152.8</course>
<desc>Speed 3.8 km/h Distance 0.41 km</desc>
<time>2010-03-14T10:29:41.69</time>
<name>292</name>
</trkpt>
<trkpt lat="48.937388" lon="8.672868">
<ele>295.5</ele>
<speed>4.5</speed>
<course>156.3</course>
<desc>Speed 4.5 km/h Distance 0.41 km</desc>
<time>2010-03-14T10:29:42.69</time>
<name>293</name>
</trkpt>
<trkpt lat="48.937373" lon="8.672878">
<ele>295.5</ele>
<speed>4.3</speed>
<course>161.6</course>
<desc>Speed 4.3 km/h Distance 0.41 km</desc>
<time>2010-03-14T10:29:43.69</time>
<name>294</name>
</trkpt>
<trkpt lat="48.937360" lon="8.672885">
<ele>295.5</ele>
<speed>4.1</speed>
<course>116.9</course>
<desc>Speed 4.1 km/h Distance 0.41 km</desc>
<time>2010-03-14T10:29:44.69</time>
<name>295</name>
</trkpt>
<trkpt lat="48.937322" lon="8.673000">
<ele>295.5</ele>
<speed>2.8</speed>
<course>139.6</course>
<desc>Speed 2.8 km/h Distance 0.42 km</desc>
<time>2010-03-14T10:29:46.69</time>
<name>296</name>
</trkpt>
<trkpt lat="48.937305" lon="8.673022">
<ele>295.5</ele>
<speed>3.9</speed>
<course>136.8</course>
<desc>Speed 3.9 km/h Distance 0.42 km</desc>
<time>2010-03-14T10:29:47.69</time>
<name>297</name>
</trkpt>
<trkpt lat="48.937293" lon="8.673038">
<ele>295.5</ele>
<speed>2.9</speed>
<course>131.9</course>
<desc>Speed 2.9 km/h Distance 0.42 km</desc>
<time>2010-03-14T10:29:48.69</time>
<name>298</name>
</trkpt>
<trkpt lat="48.937277" lon="8.673067">
<ele>295.5</ele>
<speed>3.2</speed>
<course>133.1</course>
<desc>Speed 3.2 km/h Distance 0.43 km</desc>
<time>2010-03-14T10:29:49.69</time>
<name>299</name>
</trkpt>
<trkpt lat="48.937263" lon="8.673088">
<ele>295.5</ele>
<speed>3.0</speed>
<course>128.9</course>
<desc>Speed 3.0 km/h Distance 0.43 km</desc>
<time>2010-03-14T10:29:50.69</time>
<name>300</name>
</trkpt>
<trkpt lat="48.937248" lon="8.673117">
<ele>295.5</ele>
<speed>3.7</speed>
<course>146.6</course>
<desc>Speed 3.7 km/h Distance 0.43 km</desc>
<time>2010-03-14T10:29:51.69</time>
<name>301</name>
</trkpt>
<trkpt lat="48.937235" lon="8.673130">
<ele>295.5</ele>
<speed>3.9</speed>
<course>140.6</course>
<desc>Speed 3.9 km/h Distance 0.43 km</desc>
<time>2010-03-14T10:29:52.69</time>
<name>302</name>
</trkpt>
<trkpt lat="48.937222" lon="8.673147">
<ele>295.5</ele>
<speed>4.0</speed>
<course>131.0</course>
<desc>Speed 4.0 km/h Distance 0.44 km</desc>
<time>2010-03-14T10:29:53.69</time>
<name>303</name>
</trkpt>
<trkpt lat="48.937208" lon="8.673170">
<ele>295.5</ele>
<speed>4.0</speed>
<course>139.6</course>
<desc>Speed 4.0 km/h Distance 0.44 km</desc>
<time>2010-03-14T10:29:54.69</time>
<name>304</name>
</trkpt>
<trkpt lat="48.937192" lon="8.673192">
<ele>295.5</ele>
<speed>4.1</speed>
<course>141.7</course>
<desc>Speed 4.1 km/h Distance 0.44 km</desc>
<time>2010-03-14T10:29:55.69</time>
<name>305</name>
</trkpt>
<trkpt lat="48.937175" lon="8.673212">
<ele>295.5</ele>
<speed>4.0</speed>
<course>146.7</course>
<desc>Speed 4.0 km/h Distance 0.44 km</desc>
<time>2010-03-14T10:29:56.69</time>
<name>306</name>
</trkpt>
<trkpt lat="48.937160" lon="8.673227">
<ele>295.5</ele>
<speed>3.5</speed>
<course>171.0</course>
<desc>Speed 3.5 km/h Distance 0.45 km</desc>
<time>2010-03-14T10:29:57.69</time>
<name>307</name>
</trkpt>
<trkpt lat="48.937147" lon="8.673230">
<ele>295.5</ele>
<speed>3.6</speed>
<course>171.0</course>
<desc>Speed 3.6 km/h Distance 0.45 km</desc>
<time>2010-03-14T10:29:58.69</time>
<name>308</name>
</trkpt>
<trkpt lat="48.937133" lon="8.673233">
<ele>295.5</ele>
<speed>3.6</speed>
<course>170.3</course>
<desc>Speed 3.6 km/h Distance 0.45 km</desc>
<time>2010-03-14T10:29:59.69</time>
<name>309</name>
</trkpt>
<trkpt lat="48.937120" lon="8.673237">
<ele>295.5</ele>
<speed>3.2</speed>
<course>198.1</course>
<desc>Speed 3.2 km/h Distance 0.45 km</desc>
<time>2010-03-14T10:30:00.69</time>
<name>310</name>
</trkpt>
<trkpt lat="48.937107" lon="8.673230">
<ele>295.5</ele>
<speed>3.4</speed>
<course>205.2</course>
<desc>Speed 3.4 km/h Distance 0.45 km</desc>
<time>2010-03-14T10:30:01.69</time>
<name>311</name>
</trkpt>
<trkpt lat="48.937095" lon="8.673222">
<ele>295.5</ele>
<speed>3.3</speed>
<course>186.3</course>
<desc>Speed 3.3 km/h Distance 0.45 km</desc>
<time>2010-03-14T10:30:02.69</time>
<name>312</name>
</trkpt>
<trkpt lat="48.937083" lon="8.673220">
<ele>295.5</ele>
<speed>3.4</speed>
<course>174.7</course>
<desc>Speed 3.4 km/h Distance 0.45 km</desc>
<time>2010-03-14T10:30:03.69</time>
<name>313</name>
</trkpt>
<trkpt lat="48.937070" lon="8.673222">
<ele>295.5</ele>
<speed>4.0</speed>
<course>176.2</course>
<desc>Speed 4.0 km/h Distance 0.46 km</desc>
<time>2010-03-14T10:30:04.69</time>
<name>314</name>
</trkpt>
<trkpt lat="48.937055" lon="8.673223">
<ele>295.5</ele>
<speed>3.6</speed>
<course>141.9</course>
<desc>Speed 3.6 km/h Distance 0.46 km</desc>
<time>2010-03-14T10:30:05.69</time>
<name>315</name>
</trkpt>
<trkpt lat="48.937047" lon="8.673233">
<ele>295.5</ele>
<speed>2.7</speed>
<course>159.1</course>
<desc>Speed 2.7 km/h Distance 0.46 km</desc>
<time>2010-03-14T10:30:06.69</time>
<name>316</name>
</trkpt>
<trkpt lat="48.937035" lon="8.673240">
<ele>295.5</ele>
<speed>3.4</speed>
<course>184.4</course>
<desc>Speed 3.4 km/h Distance 0.46 km</desc>
<time>2010-03-14T10:30:07.69</time>
<name>317</name>
</trkpt>
<trkpt lat="48.937025" lon="8.673238">
<ele>295.5</ele>
<speed>3.9</speed>
<course>159.2</course>
<desc>Speed 3.9 km/h Distance 0.46 km</desc>
<time>2010-03-14T10:30:08.69</time>
<name>318</name>
</trkpt>
<trkpt lat="48.937017" lon="8.673243">
<ele>295.5</ele>
<speed>2.5</speed>
<course>167.4</course>
<desc>Speed 2.5 km/h Distance 0.46 km</desc>
<time>2010-03-14T10:30:09.69</time>
<name>319</name>
</trkpt>
<trkpt lat="48.937008" lon="8.673247">
<ele>295.5</ele>
<speed>3.3</speed>
<course>191.6</course>
<desc>Speed 3.3 km/h Distance 0.46 km</desc>
<time>2010-03-14T10:30:10.69</time>
<name>320</name>
</trkpt>
<trkpt lat="48.936998" lon="8.673243">
<ele>295.5</ele>
<speed>3.5</speed>
<course>180.0</course>
<desc>Speed 3.5 km/h Distance 0.46 km</desc>
<time>2010-03-14T10:30:11.69</time>
<name>321</name>
</trkpt>
<trkpt lat="48.936990" lon="8.673243">
<ele>295.5</ele>
<speed>3.0</speed>
<course>207.9</course>
<desc>Speed 3.0 km/h Distance 0.46 km</desc>
<time>2010-03-14T10:30:12.69</time>
<name>322</name>
</trkpt>
<trkpt lat="48.936982" lon="8.673237">
<ele>295.5</ele>
<speed>3.3</speed>
<course>198.2</course>
<desc>Speed 3.3 km/h Distance 0.47 km</desc>
<time>2010-03-14T10:30:13.69</time>
<name>323</name>
</trkpt>
<trkpt lat="48.936972" lon="8.673232">
<ele>295.5</ele>
<speed>3.6</speed>
<course>195.5</course>
<desc>Speed 3.6 km/h Distance 0.47 km</desc>
<time>2010-03-14T10:30:14.69</time>
<name>324</name>
</trkpt>
<trkpt lat="48.936960" lon="8.673227">
<ele>295.5</ele>
<speed>3.2</speed>
<course>180.0</course>
<desc>Speed 3.2 km/h Distance 0.47 km</desc>
<time>2010-03-14T10:30:15.69</time>
<name>325</name>
</trkpt>
<trkpt lat="48.936950" lon="8.673227">
<ele>295.5</ele>
<speed>2.3</speed>
<course>188.8</course>
<desc>Speed 2.3 km/h Distance 0.47 km</desc>
<time>2010-03-14T10:30:16.69</time>
<name>326</name>
</trkpt>
<trkpt lat="48.936935" lon="8.673223">
<ele>295.5</ele>
<speed>3.6</speed>
<course>173.7</course>
<desc>Speed 3.6 km/h Distance 0.47 km</desc>
<time>2010-03-14T10:30:17.69</time>
<name>327</name>
</trkpt>
<trkpt lat="48.936923" lon="8.673225">
<ele>295.5</ele>
<speed>3.4</speed>
<course>205.4</course>
<desc>Speed 3.4 km/h Distance 0.47 km</desc>
<time>2010-03-14T10:30:18.69</time>
<name>328</name>
</trkpt>
<trkpt lat="48.936918" lon="8.673222">
<ele>295.5</ele>
<speed>2.4</speed>
<course>227.8</course>
<desc>Speed 2.4 km/h Distance 0.47 km</desc>
<time>2010-03-14T10:30:19.69</time>
<name>329</name>
</trkpt>
<trkpt lat="48.936913" lon="8.673213">
<ele>295.5</ele>
<speed>2.4</speed>
<course>227.8</course>
<desc>Speed 2.4 km/h Distance 0.47 km</desc>
<time>2010-03-14T10:30:20.69</time>
<name>330</name>
</trkpt>
<trkpt lat="48.936908" lon="8.673205">
<ele>295.5</ele>
<speed>2.2</speed>
<course>221.4</course>
<desc>Speed 2.2 km/h Distance 0.47 km</desc>
<time>2010-03-14T10:30:21.69</time>
<name>331</name>
</trkpt>
<trkpt lat="48.936903" lon="8.673198">
<ele>295.5</ele>
<speed>3.1</speed>
<course>203.8</course>
<desc>Speed 3.1 km/h Distance 0.48 km</desc>
<time>2010-03-14T10:30:22.69</time>
<name>332</name>
</trkpt>
<trkpt lat="48.936898" lon="8.673195">
<ele>295.5</ele>
<speed>2.0</speed>
<course>203.8</course>
<desc>Speed 2.0 km/h Distance 0.48 km</desc>
<time>2010-03-14T10:30:23.69</time>
<name>333</name>
</trkpt>
<trkpt lat="48.936893" lon="8.673192">
<ele>295.5</ele>
<speed>2.1</speed>
<course>207.9</course>
<desc>Speed 2.1 km/h Distance 0.48 km</desc>
<time>2010-03-14T10:30:24.69</time>
<name>334</name>
</trkpt>
<trkpt lat="48.936885" lon="8.673185">
<ele>295.5</ele>
<speed>3.2</speed>
<course>213.2</course>
<desc>Speed 3.2 km/h Distance 0.48 km</desc>
<time>2010-03-14T10:30:25.69</time>
<name>335</name>
</trkpt>
<trkpt lat="48.936877" lon="8.673177">
<ele>295.5</ele>
<speed>3.6</speed>
<course>192.6</course>
<desc>Speed 3.6 km/h Distance 0.48 km</desc>
<time>2010-03-14T10:30:26.69</time>
<name>336</name>
</trkpt>
<trkpt lat="48.936872" lon="8.673175">
<ele>295.5</ele>
<speed>2.1</speed>
<course>196.0</course>
<desc>Speed 2.1 km/h Distance 0.48 km</desc>
<time>2010-03-14T10:30:27.69</time>
<name>337</name>
</trkpt>
<trkpt lat="48.936865" lon="8.673172">
<ele>295.5</ele>
<speed>2.8</speed>
<course>223.5</course>
<desc>Speed 2.8 km/h Distance 0.48 km</desc>
<time>2010-03-14T10:30:28.69</time>
<name>338</name>
</trkpt>
<trkpt lat="48.936862" lon="8.673167">
<ele>295.5</ele>
<speed>2.2</speed>
<course>202.2</course>
<desc>Speed 2.2 km/h Distance 0.48 km</desc>
<time>2010-03-14T10:30:29.69</time>
<name>339</name>
</trkpt>
<trkpt lat="48.936857" lon="8.673163">
<ele>295.5</ele>
<speed>2.2</speed>
<course>202.2</course>
<desc>Speed 2.2 km/h Distance 0.48 km</desc>
<time>2010-03-14T10:30:30.69</time>
<name>340</name>
</trkpt>
<trkpt lat="48.936852" lon="8.673160">
<ele>295.5</ele>
<speed>2.1</speed>
<course>221.4</course>
<desc>Speed 2.1 km/h Distance 0.48 km</desc>
<time>2010-03-14T10:30:31.69</time>
<name>341</name>
</trkpt>
<trkpt lat="48.936847" lon="8.673153">
<ele>295.5</ele>
<speed>2.2</speed>
<course>221.4</course>
<desc>Speed 2.2 km/h Distance 0.48 km</desc>
<time>2010-03-14T10:30:32.69</time>
<name>342</name>
</trkpt>
<trkpt lat="48.936842" lon="8.673147">
<ele>295.5</ele>
<speed>2.5</speed>
<course>221.4</course>
<desc>Speed 2.5 km/h Distance 0.48 km</desc>
<time>2010-03-14T10:30:33.69</time>
<name>343</name>
</trkpt>
<trkpt lat="48.936837" lon="8.673140">
<ele>295.5</ele>
<speed>2.5</speed>
<course>180.0</course>
<desc>Speed 2.5 km/h Distance 0.48 km</desc>
<time>2010-03-14T10:30:34.69</time>
<name>344</name>
</trkpt>
<trkpt lat="48.936832" lon="8.673140">
<ele>295.5</ele>
<speed>1.4</speed>
<course>180.0</course>
<desc>Speed 1.4 km/h Distance 0.48 km</desc>
<time>2010-03-14T10:30:35.69</time>
<name>345</name>
</trkpt>
<trkpt lat="48.936827" lon="8.673140">
<ele>295.5</ele>
<speed>2.0</speed>
<course>214.1</course>
<desc>Speed 2.0 km/h Distance 0.49 km</desc>
<time>2010-03-14T10:30:36.69</time>
<name>346</name>
</trkpt>
<trkpt lat="48.936822" lon="8.673135">
<ele>295.5</ele>
<speed>2.2</speed>
<course>213.2</course>
<desc>Speed 2.2 km/h Distance 0.49 km</desc>
<time>2010-03-14T10:30:37.69</time>
<name>347</name>
</trkpt>
<trkpt lat="48.936817" lon="8.673130">
<ele>295.5</ele>
<speed>2.3</speed>
<course>219.4</course>
<desc>Speed 2.3 km/h Distance 0.49 km</desc>
<time>2010-03-14T10:30:38.69</time>
<name>348</name>
</trkpt>
<trkpt lat="48.936810" lon="8.673122">
<ele>295.5</ele>
<speed>2.4</speed>
<course>192.6</course>
<desc>Speed 2.4 km/h Distance 0.49 km</desc>
<time>2010-03-14T10:30:39.69</time>
<name>349</name>
</trkpt>
<trkpt lat="48.936807" lon="8.673120">
<ele>295.5</ele>
<speed>1.0</speed>
<course>242.6</course>
<desc>Speed 1.0 km/h Distance 0.49 km</desc>
<time>2010-03-14T10:30:40.69</time>
<name>350</name>
</trkpt>
<trkpt lat="48.936805" lon="8.673115">
<ele>295.5</ele>
<speed>1.7</speed>
<course>238.6</course>
<desc>Speed 1.7 km/h Distance 0.49 km</desc>
<time>2010-03-14T10:30:41.69</time>
<name>351</name>
</trkpt>
<trkpt lat="48.936802" lon="8.673107">
<ele>295.5</ele>
<speed>2.3</speed>
<course>238.6</course>
<desc>Speed 2.3 km/h Distance 0.49 km</desc>
<time>2010-03-14T10:30:42.69</time>
<name>352</name>
</trkpt>
<trkpt lat="48.936798" lon="8.673098">
<ele>295.5</ele>
<speed>2.2</speed>
<course>246.5</course>
<desc>Speed 2.2 km/h Distance 0.49 km</desc>
<time>2010-03-14T10:30:43.69</time>
<name>353</name>
</trkpt>
<trkpt lat="48.936795" lon="8.673087">
<ele>295.5</ele>
<speed>2.6</speed>
<course>222.6</course>
<desc>Speed 2.6 km/h Distance 0.49 km</desc>
<time>2010-03-14T10:30:44.69</time>
<name>354</name>
</trkpt>
<trkpt lat="48.936787" lon="8.673075">
<ele>295.5</ele>
<speed>2.9</speed>
<course>207.9</course>
<desc>Speed 2.9 km/h Distance 0.49 km</desc>
<time>2010-03-14T10:30:45.69</time>
<name>355</name>
</trkpt>
<trkpt lat="48.936778" lon="8.673068">
<ele>295.5</ele>
<speed>1.0</speed>
<course>126.1</course>
<desc>Speed 1.0 km/h Distance 0.49 km</desc>
<time>2010-03-14T10:30:46.69</time>
<name>356</name>
</trkpt>
<trkpt lat="48.936777" lon="8.673072">
<ele>295.5</ele>
<speed>0.6</speed>
<course>192.6</course>
<desc>Speed 0.6 km/h Distance 0.49 km</desc>
<time>2010-03-14T10:30:47.69</time>
<name>357</name>
</trkpt>
<trkpt lat="48.936772" lon="8.673070">
<ele>295.5</ele>
<speed>1.5</speed>
<course>202.2</course>
<desc>Speed 1.5 km/h Distance 0.49 km</desc>
<time>2010-03-14T10:30:48.69</time>
<name>358</name>
</trkpt>
<trkpt lat="48.936767" lon="8.673067">
<ele>295.5</ele>
<speed>1.8</speed>
<course>167.4</course>
<desc>Speed 1.8 km/h Distance 0.49 km</desc>
<time>2010-03-14T10:30:49.69</time>
<name>359</name>
</trkpt>
<trkpt lat="48.936763" lon="8.673068">
<ele>295.5</ele>
<speed>1.2</speed>
<course>192.6</course>
<desc>Speed 1.2 km/h Distance 0.50 km</desc>
<time>2010-03-14T10:30:50.69</time>
<name>360</name>
</trkpt>
<trkpt lat="48.936758" lon="8.673067">
<ele>295.5</ele>
<speed>0.2</speed>
<course>218.4</course>
<desc>Speed 0.2 km/h Distance 0.50 km</desc>
<time>2010-03-14T10:30:52.19</time>
<name>361</name>
</trkpt>
<trkpt lat="48.936750" lon="8.673057">
<ele>295.5</ele>
<speed>2.2</speed>
<course>216.9</course>
<desc>Speed 2.2 km/h Distance 0.50 km</desc>
<time>2010-03-14T10:30:53.19</time>
<name>362</name>
</trkpt>
<trkpt lat="48.936738" lon="8.673043">
<ele>295.5</ele>
<speed>2.3</speed>
<course>230.6</course>
<desc>Speed 2.3 km/h Distance 0.50 km</desc>
<time>2010-03-14T10:30:54.19</time>
<name>363</name>
</trkpt>
<trkpt lat="48.936727" lon="8.673022">
<ele>295.5</ele>
<speed>2.6</speed>
<course>187.4</course>
<desc>Speed 2.6 km/h Distance 0.50 km</desc>
<time>2010-03-14T10:30:55.19</time>
<name>364</name>
</trkpt>
<trkpt lat="48.936720" lon="8.673020">
<ele>295.5</ele>
<speed>1.5</speed>
<course>240.3</course>
<desc>Speed 1.5 km/h Distance 0.50 km</desc>
<time>2010-03-14T10:30:56.19</time>
<name>365</name>
</trkpt>
<trkpt lat="48.936715" lon="8.673007">
<ele>295.5</ele>
<speed>2.7</speed>
<course>218.1</course>
<desc>Speed 2.7 km/h Distance 0.50 km</desc>
<time>2010-03-14T10:30:57.19</time>
<name>366</name>
</trkpt>
<trkpt lat="48.936707" lon="8.672997">
<ele>295.5</ele>
<speed>2.3</speed>
<course>235.3</course>
<desc>Speed 2.3 km/h Distance 0.50 km</desc>
<time>2010-03-14T10:30:58.19</time>
<name>367</name>
</trkpt>
<trkpt lat="48.936698" lon="8.672978">
<ele>295.5</ele>
<speed>2.2</speed>
<course>226.9</course>
<desc>Speed 2.2 km/h Distance 0.51 km</desc>
<time>2010-03-14T10:30:59.19</time>
<name>368</name>
</trkpt>
<trkpt lat="48.936685" lon="8.672957">
<ele>295.5</ele>
<speed>2.4</speed>
<course>194.9</course>
<desc>Speed 2.4 km/h Distance 0.51 km</desc>
<time>2010-03-14T10:31:00.19</time>
<name>369</name>
</trkpt>
<trkpt lat="48.936677" lon="8.672953">
<ele>295.5</ele>
<speed>2.4</speed>
<course>194.9</course>
<desc>Speed 2.4 km/h Distance 0.51 km</desc>
<time>2010-03-14T10:31:01.19</time>
<name>370</name>
</trkpt>
<trkpt lat="48.936677" lon="8.672953">
<ele>295.5</ele>
<speed>2.4</speed>
<course>221.3</course>
<desc>Speed 2.4 km/h Distance 0.51 km</desc>
<time>2010-03-14T10:31:01.69</time>
<name>371</name>
</trkpt>
<trkpt lat="48.936657" lon="8.672927">
<ele>295.5</ele>
<speed>3.7</speed>
<course>207.9</course>
<desc>Speed 3.7 km/h Distance 0.51 km</desc>
<time>2010-03-14T10:31:03.18</time>
<name>372</name>
</trkpt>
<trkpt lat="48.936648" lon="8.672920">
<ele>295.5</ele>
<speed>3.7</speed>
<course>232.4</course>
<desc>Speed 3.7 km/h Distance 0.51 km</desc>
<time>2010-03-14T10:31:04.18</time>
<name>373</name>
</trkpt>
<trkpt lat="48.936643" lon="8.672910">
<ele>295.5</ele>
<speed>2.6</speed>
<course>211.6</course>
<desc>Speed 2.6 km/h Distance 0.51 km</desc>
<time>2010-03-14T10:31:05.18</time>
<name>374</name>
</trkpt>
<trkpt lat="48.936640" lon="8.672907">
<ele>295.5</ele>
<speed>0.9</speed>
<course>232.7</course>
<desc>Speed 0.9 km/h Distance 0.51 km</desc>
<time>2010-03-14T10:31:06.18</time>
<name>375</name>
</trkpt>
<trkpt lat="48.936633" lon="8.672893">
<ele>295.5</ele>
<speed>2.4</speed>
<course>237.6</course>
<desc>Speed 2.4 km/h Distance 0.51 km</desc>
<time>2010-03-14T10:31:07.18</time>
<name>376</name>
</trkpt>
<trkpt lat="48.936625" lon="8.672873">
<ele>295.5</ele>
<speed>2.9</speed>
<course>230.7</course>
<desc>Speed 2.9 km/h Distance 0.52 km</desc>
<time>2010-03-14T10:31:08.18</time>
<name>377</name>
</trkpt>
<trkpt lat="48.936613" lon="8.672852">
<ele>296.0</ele>
<speed>2.4</speed>
<course>206.4</course>
<desc>Speed 2.4 km/h Distance 0.52 km</desc>
<time>2010-03-14T10:31:09.18</time>
<name>378</name>
</trkpt>
<trkpt lat="48.936607" lon="8.672847">
<ele>296.0</ele>
<speed>2.3</speed>
<course>232.4</course>
<desc>Speed 2.3 km/h Distance 0.52 km</desc>
<time>2010-03-14T10:31:10.18</time>
<name>379</name>
</trkpt>
<trkpt lat="48.936602" lon="8.672837">
<ele>296.0</ele>
<speed>1.7</speed>
<course>270.0</course>
<desc>Speed 1.7 km/h Distance 0.52 km</desc>
<time>2010-03-14T10:31:11.18</time>
<name>380</name>
</trkpt>
<trkpt lat="48.936602" lon="8.672830">
<ele>296.0</ele>
<speed>1.9</speed>
<course>270.0</course>
<desc>Speed 1.9 km/h Distance 0.52 km</desc>
<time>2010-03-14T10:31:12.18</time>
<name>381</name>
</trkpt>
<trkpt lat="48.936602" lon="8.672827">
<ele>296.0</ele>
<speed>1.1</speed>
<course>167.4</course>
<desc>Speed 1.1 km/h Distance 0.52 km</desc>
<time>2010-03-14T10:31:13.18</time>
<name>382</name>
</trkpt>
<trkpt lat="48.936600" lon="8.672827">
<ele>296.0</ele>
<speed>0.2</speed>
<course>242.6</course>
<desc>Speed 0.2 km/h Distance 0.52 km</desc>
<time>2010-03-14T10:31:14.18</time>
<name>383</name>
</trkpt>
<trkpt lat="48.936598" lon="8.672822">
<ele>296.0</ele>
<speed>0.3</speed>
<course>224.5</course>
<desc>Speed 0.3 km/h Distance 0.52 km</desc>
<time>2010-03-14T10:31:15.18</time>
<name>384</name>
</trkpt>
<trkpt lat="48.936595" lon="8.672817">
<ele>296.0</ele>
<speed>0.6</speed>
<course>227.4</course>
<desc>Speed 0.6 km/h Distance 0.52 km</desc>
<time>2010-03-14T10:31:16.18</time>
<name>385</name>
</trkpt>
<trkpt lat="48.936590" lon="8.672808">
<ele>296.0</ele>
<speed>0.6</speed>
<course>270.0</course>
<desc>Speed 0.6 km/h Distance 0.52 km</desc>
<time>2010-03-14T10:31:17.18</time>
<name>386</name>
</trkpt>
<trkpt lat="48.936590" lon="8.672802">
<ele>296.0</ele>
<speed>1.4</speed>
<course>255.6</course>
<desc>Speed 1.4 km/h Distance 0.52 km</desc>
<time>2010-03-14T10:31:18.18</time>
<name>387</name>
</trkpt>
<trkpt lat="48.936588" lon="8.672792">
<ele>296.0</ele>
<speed>2.4</speed>
<course>243.0</course>
<desc>Speed 2.4 km/h Distance 0.52 km</desc>
<time>2010-03-14T10:31:19.17</time>
<name>388</name>
</trkpt>
<trkpt lat="48.936585" lon="8.672782">
<ele>296.0</ele>
<speed>1.8</speed>
<course>226.5</course>
<desc>Speed 1.8 km/h Distance 0.53 km</desc>
<time>2010-03-14T10:31:20.18</time>
<name>389</name>
</trkpt>
<trkpt lat="48.936577" lon="8.672768">
<ele>296.0</ele>
<speed>2.4</speed>
<course>244.9</course>
<desc>Speed 2.4 km/h Distance 0.53 km</desc>
<time>2010-03-14T10:31:21.17</time>
<name>390</name>
</trkpt>
<trkpt lat="48.936570" lon="8.672747">
<ele>296.0</ele>
<speed>2.2</speed>
<course>237.8</course>
<desc>Speed 2.2 km/h Distance 0.53 km</desc>
<time>2010-03-14T10:31:22.18</time>
<name>391</name>
</trkpt>
<trkpt lat="48.936550" lon="8.672698">
<ele>296.0</ele>
<speed>3.7</speed>
<course>232.7</course>
<desc>Speed 3.7 km/h Distance 0.53 km</desc>
<time>2010-03-14T10:31:24.17</time>
<name>392</name>
</trkpt>
<trkpt lat="48.936543" lon="8.672685">
<ele>296.0</ele>
<speed>2.6</speed>
<course>239.6</course>
<desc>Speed 2.6 km/h Distance 0.53 km</desc>
<time>2010-03-14T10:31:25.17</time>
<name>393</name>
</trkpt>
<trkpt lat="48.936535" lon="8.672663">
<ele>296.0</ele>
<speed>3.3</speed>
<course>241.5</course>
<desc>Speed 3.3 km/h Distance 0.54 km</desc>
<time>2010-03-14T10:31:26.17</time>
<name>394</name>
</trkpt>
<trkpt lat="48.936527" lon="8.672640">
<ele>296.0</ele>
<speed>2.3</speed>
<course>229.4</course>
<desc>Speed 2.3 km/h Distance 0.54 km</desc>
<time>2010-03-14T10:31:27.17</time>
<name>395</name>
</trkpt>
<trkpt lat="48.936512" lon="8.672613">
<ele>296.0</ele>
<speed>1.9</speed>
<course>270.0</course>
<desc>Speed 1.9 km/h Distance 0.54 km</desc>
<time>2010-03-14T10:31:28.17</time>
<name>396</name>
</trkpt>
<trkpt lat="48.936512" lon="8.672605">
<ele>296.0</ele>
<speed>1.9</speed>
<course>240.3</course>
<desc>Speed 1.9 km/h Distance 0.54 km</desc>
<time>2010-03-14T10:31:29.17</time>
<name>397</name>
</trkpt>
<trkpt lat="48.936507" lon="8.672592">
<ele>296.0</ele>
<speed>2.5</speed>
<course>229.8</course>
<desc>Speed 2.5 km/h Distance 0.54 km</desc>
<time>2010-03-14T10:31:30.17</time>
<name>398</name>
</trkpt>
<trkpt lat="48.936498" lon="8.672577">
<ele>296.0</ele>
<speed>2.7</speed>
<course>222.1</course>
<desc>Speed 2.7 km/h Distance 0.54 km</desc>
<time>2010-03-14T10:31:31.17</time>
<name>399</name>
</trkpt>
<trkpt lat="48.936485" lon="8.672558">
<ele>296.0</ele>
<speed>2.9</speed>
<course>229.0</course>
<desc>Speed 2.9 km/h Distance 0.55 km</desc>
<time>2010-03-14T10:31:32.17</time>
<name>400</name>
</trkpt>
<trkpt lat="48.936472" lon="8.672535">
<ele>296.0</ele>
<speed>2.1</speed>
<course>236.7</course>
<desc>Speed 2.1 km/h Distance 0.55 km</desc>
<time>2010-03-14T10:31:33.17</time>
<name>401</name>
</trkpt>
<trkpt lat="48.936440" lon="8.672462">
<ele>296.0</ele>
<speed>3.7</speed>
<course>229.1</course>
<desc>Speed 3.7 km/h Distance 0.55 km</desc>
<time>2010-03-14T10:31:35.17</time>
<name>402</name>
</trkpt>
<trkpt lat="48.936433" lon="8.672450">
<ele>296.0</ele>
<speed>2.6</speed>
<course>226.5</course>
<desc>Speed 2.6 km/h Distance 0.55 km</desc>
<time>2010-03-14T10:31:36.17</time>
<name>403</name>
</trkpt>
<trkpt lat="48.936425" lon="8.672437">
<ele>296.0</ele>
<speed>2.0</speed>
<course>228.4</course>
<desc>Speed 2.0 km/h Distance 0.56 km</desc>
<time>2010-03-14T10:31:37.17</time>
<name>404</name>
</trkpt>
<trkpt lat="48.936413" lon="8.672417">
<ele>296.0</ele>
<speed>2.5</speed>
<course>243.0</course>
<desc>Speed 2.5 km/h Distance 0.56 km</desc>
<time>2010-03-14T10:31:38.17</time>
<name>405</name>
</trkpt>
<trkpt lat="48.936410" lon="8.672407">
<ele>296.0</ele>
<speed>2.4</speed>
<course>257.8</course>
<desc>Speed 2.4 km/h Distance 0.56 km</desc>
<time>2010-03-14T10:31:39.16</time>
<name>406</name>
</trkpt>
<trkpt lat="48.936408" lon="8.672395">
<ele>296.0</ele>
<speed>1.7</speed>
<course>245.5</course>
<desc>Speed 1.7 km/h Distance 0.56 km</desc>
<time>2010-03-14T10:31:40.17</time>
<name>407</name>
</trkpt>
<trkpt lat="48.936403" lon="8.672378">
<ele>296.0</ele>
<speed>2.1</speed>
<course>241.1</course>
<desc>Speed 2.1 km/h Distance 0.56 km</desc>
<time>2010-03-14T10:31:41.16</time>
<name>408</name>
</trkpt>
<trkpt lat="48.936397" lon="8.672360">
<ele>296.0</ele>
<speed>1.5</speed>
<course>286.7</course>
<desc>Speed 1.5 km/h Distance 0.56 km</desc>
<time>2010-03-14T10:31:42.16</time>
<name>409</name>
</trkpt>
<trkpt lat="48.936398" lon="8.672352">
<ele>296.0</ele>
<speed>2.6</speed>
<course>270.0</course>
<desc>Speed 2.6 km/h Distance 0.56 km</desc>
<time>2010-03-14T10:31:43.16</time>
<name>410</name>
</trkpt>
<trkpt lat="48.936398" lon="8.672340">
<ele>296.0</ele>
<speed>2.4</speed>
<course>249.1</course>
<desc>Speed 2.4 km/h Distance 0.56 km</desc>
<time>2010-03-14T10:31:44.16</time>
<name>411</name>
</trkpt>
<trkpt lat="48.936395" lon="8.672327">
<ele>296.0</ele>
<speed>2.6</speed>
<course>233.0</course>
<desc>Speed 2.6 km/h Distance 0.57 km</desc>
<time>2010-03-14T10:31:45.17</time>
<name>412</name>
</trkpt>
<trkpt lat="48.936392" lon="8.672320">
<ele>296.0</ele>
<speed>0.7</speed>
<course>230.3</course>
<desc>Speed 0.7 km/h Distance 0.57 km</desc>
<time>2010-03-14T10:31:46.16</time>
<name>413</name>
</trkpt>
<trkpt lat="48.936382" lon="8.672302">
<ele>296.0</ele>
<speed>1.8</speed>
<course>232.7</course>
<desc>Speed 1.8 km/h Distance 0.57 km</desc>
<time>2010-03-14T10:31:47.16</time>
<name>414</name>
</trkpt>
<trkpt lat="48.936370" lon="8.672278">
<ele>296.0</ele>
<speed>1.8</speed>
<course>255.6</course>
<desc>Speed 1.8 km/h Distance 0.57 km</desc>
<time>2010-03-14T10:31:48.16</time>
<name>415</name>
</trkpt>
<trkpt lat="48.936368" lon="8.672268">
<ele>296.0</ele>
<speed>1.8</speed>
<course>229.1</course>
<desc>Speed 1.8 km/h Distance 0.57 km</desc>
<time>2010-03-14T10:31:49.16</time>
<name>416</name>
</trkpt>
<trkpt lat="48.936362" lon="8.672257">
<ele>296.0</ele>
<speed>2.0</speed>
<course>236.7</course>
<desc>Speed 2.0 km/h Distance 0.57 km</desc>
<time>2010-03-14T10:31:50.16</time>
<name>417</name>
</trkpt>
<trkpt lat="48.936357" lon="8.672245">
<ele>296.0</ele>
<speed>1.3</speed>
<course>220.4</course>
<desc>Speed 1.3 km/h Distance 0.57 km</desc>
<time>2010-03-14T10:31:51.16</time>
<name>418</name>
</trkpt>
<trkpt lat="48.936345" lon="8.672230">
<ele>296.0</ele>
<speed>0.8</speed>
<course>243.6</course>
<desc>Speed 0.8 km/h Distance 0.57 km</desc>
<time>2010-03-14T10:31:52.16</time>
<name>419</name>
</trkpt>
<trkpt lat="48.936322" lon="8.672158">
<ele>296.0</ele>
<speed>2.7</speed>
<course>257.6</course>
<desc>Speed 2.7 km/h Distance 0.58 km</desc>
<time>2010-03-14T10:31:54.16</time>
<name>420</name>
</trkpt>
<trkpt lat="48.936320" lon="8.672147">
<ele>296.0</ele>
<speed>2.0</speed>
<course>235.9</course>
<desc>Speed 2.0 km/h Distance 0.58 km</desc>
<time>2010-03-14T10:31:55.16</time>
<name>421</name>
</trkpt>
<trkpt lat="48.936313" lon="8.672132">
<ele>296.0</ele>
<speed>2.3</speed>
<course>243.1</course>
<desc>Speed 2.3 km/h Distance 0.58 km</desc>
<time>2010-03-14T10:31:56.16</time>
<name>422</name>
</trkpt>
<trkpt lat="48.936308" lon="8.672117">
<ele>296.0</ele>
<speed>1.3</speed>
<course>236.9</course>
<desc>Speed 1.3 km/h Distance 0.58 km</desc>
<time>2010-03-14T10:31:57.15</time>
<name>423</name>
</trkpt>
<trkpt lat="48.936298" lon="8.672093">
<ele>296.0</ele>
<speed>1.7</speed>
<course>230.7</course>
<desc>Speed 1.7 km/h Distance 0.59 km</desc>
<time>2010-03-14T10:31:58.15</time>
<name>424</name>
</trkpt>
<trkpt lat="48.936287" lon="8.672072">
<ele>296.0</ele>
<speed>0.5</speed>
<course>232.7</course>
<desc>Speed 0.5 km/h Distance 0.59 km</desc>
<time>2010-03-14T10:31:59.16</time>
<name>425</name>
</trkpt>
<trkpt lat="48.936250" lon="8.671998">
<ele>296.0</ele>
<speed>2.1</speed>
<course>221.9</course>
<desc>Speed 2.1 km/h Distance 0.59 km</desc>
<time>2010-03-14T10:32:01.16</time>
<name>426</name>
</trkpt>
<trkpt lat="48.936218" lon="8.671955">
<ele>296.0</ele>
<speed>3.0</speed>
<course>205.2</course>
<desc>Speed 3.0 km/h Distance 0.60 km</desc>
<time>2010-03-14T10:32:03.15</time>
<name>427</name>
</trkpt>
<trkpt lat="48.936207" lon="8.671947">
<ele>296.0</ele>
<speed>4.5</speed>
<course>217.3</course>
<desc>Speed 4.5 km/h Distance 0.60 km</desc>
<time>2010-03-14T10:32:04.15</time>
<name>428</name>
</trkpt>
<trkpt lat="48.936197" lon="8.671935">
<ele>296.0</ele>
<speed>4.1</speed>
<course>227.6</course>
<desc>Speed 4.1 km/h Distance 0.60 km</desc>
<time>2010-03-14T10:32:05.15</time>
<name>429</name>
</trkpt>
<trkpt lat="48.936187" lon="8.671918">
<ele>296.0</ele>
<speed>4.3</speed>
<course>224.7</course>
<desc>Speed 4.3 km/h Distance 0.60 km</desc>
<time>2010-03-14T10:32:06.15</time>
<name>430</name>
</trkpt>
<trkpt lat="48.936173" lon="8.671898">
<ele>296.0</ele>
<speed>4.2</speed>
<course>205.6</course>
<desc>Speed 4.2 km/h Distance 0.61 km</desc>
<time>2010-03-14T10:32:07.15</time>
<name>431</name>
</trkpt>
<trkpt lat="48.936167" lon="8.671893">
<ele>296.0</ele>
<speed>2.3</speed>
<course>175.6</course>
<desc>Speed 2.3 km/h Distance 0.61 km</desc>
<time>2010-03-14T10:32:08.15</time>
<name>432</name>
</trkpt>
<trkpt lat="48.936157" lon="8.671893">
<ele>296.0</ele>
<speed>2.6</speed>
<course>185.0</course>
<desc>Speed 2.6 km/h Distance 0.61 km</desc>
<time>2010-03-14T10:32:09.15</time>
<name>433</name>
</trkpt>
<trkpt lat="48.936148" lon="8.671892">
<ele>296.0</ele>
<speed>2.2</speed>
<course>185.0</course>
<desc>Speed 2.2 km/h Distance 0.61 km</desc>
<time>2010-03-14T10:32:10.15</time>
<name>434</name>
</trkpt>
<trkpt lat="48.936140" lon="8.671890">
<ele>296.0</ele>
<speed>1.9</speed>
<course>198.1</course>
<desc>Speed 1.9 km/h Distance 0.61 km</desc>
<time>2010-03-14T10:32:11.15</time>
<name>435</name>
</trkpt>
<trkpt lat="48.936127" lon="8.671883">
<ele>296.0</ele>
<speed>2.2</speed>
<course>201.5</course>
<desc>Speed 2.2 km/h Distance 0.61 km</desc>
<time>2010-03-14T10:32:12.15</time>
<name>436</name>
</trkpt>
<trkpt lat="48.936110" lon="8.671873">
<ele>296.0</ele>
<speed>2.4</speed>
<course>146.3</course>
<desc>Speed 2.4 km/h Distance 0.61 km</desc>
<time>2010-03-14T10:32:13.15</time>
<name>437</name>
</trkpt>
<trkpt lat="48.936107" lon="8.671877">
<ele>296.0</ele>
<speed>1.7</speed>
<course>203.8</course>
<desc>Speed 1.7 km/h Distance 0.61 km</desc>
<time>2010-03-14T10:32:14.14</time>
<name>438</name>
</trkpt>
<trkpt lat="48.936102" lon="8.671873">
<ele>296.0</ele>
<speed>1.2</speed>
<course>198.8</course>
<desc>Speed 1.2 km/h Distance 0.61 km</desc>
<time>2010-03-14T10:32:15.14</time>
<name>439</name>
</trkpt>
<trkpt lat="48.936095" lon="8.671870">
<ele>296.0</ele>
<speed>1.9</speed>
<course>198.2</course>
<desc>Speed 1.9 km/h Distance 0.62 km</desc>
<time>2010-03-14T10:32:16.14</time>
<name>440</name>
</trkpt>
<trkpt lat="48.936085" lon="8.671865">
<ele>296.0</ele>
<speed>1.9</speed>
<course>213.2</course>
<desc>Speed 1.9 km/h Distance 0.62 km</desc>
<time>2010-03-14T10:32:17.14</time>
<name>441</name>
</trkpt>
<trkpt lat="48.936077" lon="8.671857">
<ele>296.0</ele>
<speed>1.1</speed>
<course>154.6</course>
<desc>Speed 1.1 km/h Distance 0.62 km</desc>
<time>2010-03-14T10:32:18.14</time>
<name>442</name>
</trkpt>
<trkpt lat="48.936072" lon="8.671860">
<ele>296.0</ele>
<speed>2.6</speed>
<course>172.6</course>
<desc>Speed 2.6 km/h Distance 0.62 km</desc>
<time>2010-03-14T10:32:19.14</time>
<name>443</name>
</trkpt>
<trkpt lat="48.936065" lon="8.671862">
<ele>296.0</ele>
<speed>2.5</speed>
<course>184.4</course>
<desc>Speed 2.5 km/h Distance 0.62 km</desc>
<time>2010-03-14T10:32:20.14</time>
<name>444</name>
</trkpt>
<trkpt lat="48.936055" lon="8.671860">
<ele>296.0</ele>
<speed>3.7</speed>
<course>180.0</course>
<desc>Speed 3.7 km/h Distance 0.62 km</desc>
<time>2010-03-14T10:32:21.14</time>
<name>445</name>
</trkpt>
<trkpt lat="48.936047" lon="8.671860">
<ele>296.0</ele>
<speed>2.5</speed>
<course>213.2</course>
<desc>Speed 2.5 km/h Distance 0.62 km</desc>
<time>2010-03-14T10:32:22.14</time>
<name>446</name>
</trkpt>
<trkpt lat="48.936037" lon="8.671850">
<ele>296.0</ele>
<speed>2.2</speed>
<course>238.6</course>
<desc>Speed 2.2 km/h Distance 0.62 km</desc>
<time>2010-03-14T10:32:23.13</time>
<name>447</name>
</trkpt>
<trkpt lat="48.936030" lon="8.671833">
<ele>296.0</ele>
<speed>0.9</speed>
<course>213.7</course>
<desc>Speed 0.9 km/h Distance 0.62 km</desc>
<time>2010-03-14T10:32:24.13</time>
<name>448</name>
</trkpt>
<trkpt lat="48.936023" lon="8.671827">
<ele>296.0</ele>
<speed>1.7</speed>
<course>213.2</course>
<desc>Speed 1.7 km/h Distance 0.62 km</desc>
<time>2010-03-14T10:32:25.12</time>
<name>449</name>
</trkpt>
<trkpt lat="48.936013" lon="8.671817">
<ele>296.0</ele>
<speed>2.4</speed>
<course>202.1</course>
<desc>Speed 2.4 km/h Distance 0.63 km</desc>
<time>2010-03-14T10:32:26.12</time>
<name>450</name>
</trkpt>
<trkpt lat="48.936005" lon="8.671812">
<ele>296.0</ele>
<speed>2.6</speed>
<course>217.5</course>
<desc>Speed 2.6 km/h Distance 0.63 km</desc>
<time>2010-03-14T10:32:27.12</time>
<name>451</name>
</trkpt>
<trkpt lat="48.935995" lon="8.671800">
<ele>296.0</ele>
<speed>2.3</speed>
<course>159.9</course>
<desc>Speed 2.3 km/h Distance 0.63 km</desc>
<time>2010-03-14T10:32:28.12</time>
<name>452</name>
</trkpt>
<trkpt lat="48.935980" lon="8.671808">
<ele>296.0</ele>
<speed>6.8</speed>
<course>208.6</course>
<desc>Speed 6.8 km/h Distance 0.63 km</desc>
<time>2010-03-14T10:32:29.12</time>
<name>453</name>
</trkpt>
<trkpt lat="48.935970" lon="8.671800">
<ele>296.0</ele>
<speed>3.3</speed>
<course>197.6</course>
<desc>Speed 3.3 km/h Distance 0.63 km</desc>
<time>2010-03-14T10:32:30.12</time>
<name>454</name>
</trkpt>
<trkpt lat="48.935960" lon="8.671795">
<ele>296.0</ele>
<speed>2.6</speed>
<course>213.4</course>
<desc>Speed 2.6 km/h Distance 0.63 km</desc>
<time>2010-03-14T10:32:31.12</time>
<name>455</name>
</trkpt>
<trkpt lat="48.935948" lon="8.671783">
<ele>296.0</ele>
<speed>2.6</speed>
<course>226.5</course>
<desc>Speed 2.6 km/h Distance 0.63 km</desc>
<time>2010-03-14T10:32:32.12</time>
<name>456</name>
</trkpt>
<trkpt lat="48.935940" lon="8.671770">
<ele>296.0</ele>
<speed>1.2</speed>
<course>146.8</course>
<desc>Speed 1.2 km/h Distance 0.64 km</desc>
<time>2010-03-14T10:32:33.12</time>
<name>457</name>
</trkpt>
<trkpt lat="48.935932" lon="8.671778">
<ele>296.0</ele>
<speed>2.8</speed>
<course>146.5</course>
<desc>Speed 2.8 km/h Distance 0.64 km</desc>
<time>2010-03-14T10:32:34.12</time>
<name>458</name>
</trkpt>
<trkpt lat="48.935923" lon="8.671787">
<ele>296.0</ele>
<speed>3.3</speed>
<course>202.2</course>
<desc>Speed 3.3 km/h Distance 0.64 km</desc>
<time>2010-03-14T10:32:35.12</time>
<name>459</name>
</trkpt>
<trkpt lat="48.935918" lon="8.671783">
<ele>296.0</ele>
<speed>1.4</speed>
<course>185.0</course>
<desc>Speed 1.4 km/h Distance 0.64 km</desc>
<time>2010-03-14T10:32:36.12</time>
<name>460</name>
</trkpt>
<trkpt lat="48.935910" lon="8.671782">
<ele>296.0</ele>
<speed>2.4</speed>
<course>158.5</course>
<desc>Speed 2.4 km/h Distance 0.64 km</desc>
<time>2010-03-14T10:32:37.12</time>
<name>461</name>
</trkpt>
<trkpt lat="48.935902" lon="8.671787">
<ele>296.0</ele>
<speed>3.2</speed>
<course>146.8</course>
<desc>Speed 3.2 km/h Distance 0.64 km</desc>
<time>2010-03-14T10:32:38.12</time>
<name>462</name>
</trkpt>
<trkpt lat="48.935893" lon="8.671795">
<ele>296.0</ele>
<speed>3.0</speed>
<course>146.8</course>
<desc>Speed 3.0 km/h Distance 0.64 km</desc>
<time>2010-03-14T10:32:39.12</time>
<name>463</name>
</trkpt>
<trkpt lat="48.935885" lon="8.671803">
<ele>296.0</ele>
<speed>2.6</speed>
<course>146.8</course>
<desc>Speed 2.6 km/h Distance 0.64 km</desc>
<time>2010-03-14T10:32:40.12</time>
<name>464</name>
</trkpt>
<trkpt lat="48.935877" lon="8.671812">
<ele>296.0</ele>
<speed>2.2</speed>
<course>161.8</course>
<desc>Speed 2.2 km/h Distance 0.64 km</desc>
<time>2010-03-14T10:32:41.12</time>
<name>465</name>
</trkpt>
<trkpt lat="48.935867" lon="8.671817">
<ele>296.0</ele>
<speed>2.8</speed>
<course>156.2</course>
<desc>Speed 2.8 km/h Distance 0.64 km</desc>
<time>2010-03-14T10:32:42.12</time>
<name>466</name>
</trkpt>
<trkpt lat="48.935857" lon="8.671823">
<ele>296.0</ele>
<speed>2.7</speed>
<course>156.2</course>
<desc>Speed 2.7 km/h Distance 0.65 km</desc>
<time>2010-03-14T10:32:43.12</time>
<name>467</name>
</trkpt>
<trkpt lat="48.935847" lon="8.671830">
<ele>296.0</ele>
<speed>1.9</speed>
<course>149.7</course>
<desc>Speed 1.9 km/h Distance 0.65 km</desc>
<time>2010-03-14T10:32:44.12</time>
<name>468</name>
</trkpt>
<trkpt lat="48.935832" lon="8.671843">
<ele>296.0</ele>
<speed>3.2</speed>
<course>146.3</course>
<desc>Speed 3.2 km/h Distance 0.65 km</desc>
<time>2010-03-14T10:32:45.12</time>
<name>469</name>
</trkpt>
<trkpt lat="48.935825" lon="8.671850">
<ele>296.0</ele>
<speed>1.2</speed>
<course>207.9</course>
<desc>Speed 1.2 km/h Distance 0.65 km</desc>
<time>2010-03-14T10:32:46.12</time>
<name>470</name>
</trkpt>
<trkpt lat="48.935817" lon="8.671843">
<ele>296.0</ele>
<speed>2.1</speed>
<course>194.9</course>
<desc>Speed 2.1 km/h Distance 0.65 km</desc>
<time>2010-03-14T10:32:47.12</time>
<name>471</name>
</trkpt>
<trkpt lat="48.935808" lon="8.671840">
<ele>296.0</ele>
<speed>2.3</speed>
<course>132.6</course>
<desc>Speed 2.3 km/h Distance 0.65 km</desc>
<time>2010-03-14T10:32:48.11</time>
<name>472</name>
</trkpt>
<trkpt lat="48.935803" lon="8.671848">
<ele>296.0</ele>
<speed>1.5</speed>
<course>110.9</course>
<desc>Speed 1.5 km/h Distance 0.65 km</desc>
<time>2010-03-14T10:32:49.11</time>
<name>473</name>
</trkpt>
<trkpt lat="48.935802" lon="8.671855">
<ele>296.0</ele>
<speed>0.2</speed>
<course>143.1</course>
<desc>Speed 0.2 km/h Distance 0.65 km</desc>
<time>2010-03-14T10:32:50.11</time>
<name>474</name>
</trkpt>
<trkpt lat="48.935790" lon="8.671868">
<ele>296.0</ele>
<speed>1.6</speed>
<course>133.1</course>
<desc>Speed 1.6 km/h Distance 0.65 km</desc>
<time>2010-03-14T10:32:51.11</time>
<name>475</name>
</trkpt>
<trkpt lat="48.935777" lon="8.671890">
<ele>296.0</ele>
<speed>3.0</speed>
<course>159.1</course>
<desc>Speed 3.0 km/h Distance 0.66 km</desc>
<time>2010-03-14T10:32:52.11</time>
<name>476</name>
</trkpt>
<trkpt lat="48.935765" lon="8.671897">
<ele>296.0</ele>
<speed>3.0</speed>
<course>159.4</course>
<desc>Speed 3.0 km/h Distance 0.66 km</desc>
<time>2010-03-14T10:32:53.11</time>
<name>477</name>
</trkpt>
<trkpt lat="48.935753" lon="8.671903">
<ele>296.0</ele>
<speed>2.8</speed>
<course>165.1</course>
<desc>Speed 2.8 km/h Distance 0.66 km</desc>
<time>2010-03-14T10:32:54.11</time>
<name>478</name>
</trkpt>
<trkpt lat="48.935745" lon="8.671907">
<ele>296.0</ele>
<speed>1.3</speed>
<course>162.5</course>
<desc>Speed 1.3 km/h Distance 0.66 km</desc>
<time>2010-03-14T10:32:55.11</time>
<name>479</name>
</trkpt>
<trkpt lat="48.935738" lon="8.671910">
<ele>296.0</ele>
<speed>2.6</speed>
<course>162.5</course>
<desc>Speed 2.6 km/h Distance 0.66 km</desc>
<time>2010-03-14T10:32:56.11</time>
<name>480</name>
</trkpt>
<trkpt lat="48.935732" lon="8.671913">
<ele>296.0</ele>
<speed>1.3</speed>
<course>177.8</course>
<desc>Speed 1.3 km/h Distance 0.66 km</desc>
<time>2010-03-14T10:32:57.11</time>
<name>481</name>
</trkpt>
<trkpt lat="48.935720" lon="8.671913">
<ele>296.0</ele>
<speed>2.1</speed>
<course>164.5</course>
<desc>Speed 2.1 km/h Distance 0.66 km</desc>
<time>2010-03-14T10:32:58.11</time>
<name>482</name>
</trkpt>
<trkpt lat="48.935708" lon="8.671918">
<ele>296.0</ele>
<speed>2.0</speed>
<course>146.8</course>
<desc>Speed 2.0 km/h Distance 0.66 km</desc>
<time>2010-03-14T10:32:59.11</time>
<name>483</name>
</trkpt>
<trkpt lat="48.935703" lon="8.671923">
<ele>296.0</ele>
<speed>1.3</speed>
<course>146.3</course>
<desc>Speed 1.3 km/h Distance 0.67 km</desc>
<time>2010-03-14T10:33:00.11</time>
<name>484</name>
</trkpt>
<trkpt lat="48.935700" lon="8.671927">
<ele>296.0</ele>
<speed>1.0</speed>
<course>153.6</course>
<desc>Speed 1.0 km/h Distance 0.67 km</desc>
<time>2010-03-14T10:33:01.12</time>
<name>485</name>
</trkpt>
<trkpt lat="48.935693" lon="8.671932">
<ele>296.0</ele>
<speed>2.0</speed>
<course>138.6</course>
<desc>Speed 2.0 km/h Distance 0.67 km</desc>
<time>2010-03-14T10:33:02.11</time>
<name>486</name>
</trkpt>
<trkpt lat="48.935688" lon="8.671938">
<ele>296.0</ele>
<speed>1.7</speed>
<course>133.6</course>
<desc>Speed 1.7 km/h Distance 0.67 km</desc>
<time>2010-03-14T10:33:03.11</time>
<name>487</name>
</trkpt>
<trkpt lat="48.935680" lon="8.671952">
<ele>296.0</ele>
<speed>3.0</speed>
<course>141.9</course>
<desc>Speed 3.0 km/h Distance 0.67 km</desc>
<time>2010-03-14T10:33:04.11</time>
<name>488</name>
</trkpt>
<trkpt lat="48.935672" lon="8.671962">
<ele>296.0</ele>
<speed>3.0</speed>
<course>146.3</course>
<desc>Speed 3.0 km/h Distance 0.67 km</desc>
<time>2010-03-14T10:33:05.11</time>
<name>489</name>
</trkpt>
<trkpt lat="48.935665" lon="8.671968">
<ele>296.0</ele>
<speed>2.8</speed>
<course>152.5</course>
<desc>Speed 2.8 km/h Distance 0.67 km</desc>
<time>2010-03-14T10:33:06.11</time>
<name>490</name>
</trkpt>
<trkpt lat="48.935657" lon="8.671975">
<ele>296.0</ele>
<speed>2.7</speed>
<course>196.0</course>
<desc>Speed 2.7 km/h Distance 0.67 km</desc>
<time>2010-03-14T10:33:07.10</time>
<name>491</name>
</trkpt>
<trkpt lat="48.935650" lon="8.671972">
<ele>296.0</ele>
<speed>1.4</speed>
<course>158.5</course>
<desc>Speed 1.4 km/h Distance 0.67 km</desc>
<time>2010-03-14T10:33:08.10</time>
<name>492</name>
</trkpt>
<trkpt lat="48.935642" lon="8.671977">
<ele>296.0</ele>
<speed>2.2</speed>
<course>156.2</course>
<desc>Speed 2.2 km/h Distance 0.67 km</desc>
<time>2010-03-14T10:33:09.10</time>
<name>493</name>
</trkpt>
<trkpt lat="48.935632" lon="8.671983">
<ele>296.0</ele>
<speed>2.4</speed>
<course>159.9</course>
<desc>Speed 2.4 km/h Distance 0.67 km</desc>
<time>2010-03-14T10:33:10.10</time>
<name>494</name>
</trkpt>
<trkpt lat="48.935617" lon="8.671992">
<ele>296.0</ele>
<speed>2.6</speed>
<course>159.9</course>
<desc>Speed 2.6 km/h Distance 0.68 km</desc>
<time>2010-03-14T10:33:11.10</time>
<name>495</name>
</trkpt>
<trkpt lat="48.935602" lon="8.672000">
<ele>296.0</ele>
<speed>2.2</speed>
<course>163.4</course>
<desc>Speed 2.2 km/h Distance 0.68 km</desc>
<time>2010-03-14T10:33:12.10</time>
<name>496</name>
</trkpt>
<trkpt lat="48.935583" lon="8.672008">
<ele>296.0</ele>
<speed>2.1</speed>
<course>151.4</course>
<desc>Speed 2.1 km/h Distance 0.68 km</desc>
<time>2010-03-14T10:33:13.10</time>
<name>497</name>
</trkpt>
<trkpt lat="48.935573" lon="8.672017">
<ele>296.0</ele>
<speed>2.8</speed>
<course>141.9</course>
<desc>Speed 2.8 km/h Distance 0.68 km</desc>
<time>2010-03-14T10:33:14.10</time>
<name>498</name>
</trkpt>
<trkpt lat="48.935565" lon="8.672027">
<ele>296.0</ele>
<speed>3.6</speed>
<course>152.1</course>
<desc>Speed 3.6 km/h Distance 0.68 km</desc>
<time>2010-03-14T10:33:15.10</time>
<name>499</name>
</trkpt>
<trkpt lat="48.935557" lon="8.672033">
<ele>296.0</ele>
<speed>2.7</speed>
<course>146.8</course>
<desc>Speed 2.7 km/h Distance 0.68 km</desc>
<time>2010-03-14T10:33:16.10</time>
<name>500</name>
</trkpt>
<trkpt lat="48.935548" lon="8.672042">
<ele>296.0</ele>
<speed>2.9</speed>
<course>146.7</course>
<desc>Speed 2.9 km/h Distance 0.69 km</desc>
<time>2010-03-14T10:33:17.10</time>
<name>501</name>
</trkpt>
<trkpt lat="48.935537" lon="8.672053">
<ele>296.0</ele>
<speed>3.1</speed>
<course>146.3</course>
<desc>Speed 3.1 km/h Distance 0.69 km</desc>
<time>2010-03-14T10:33:18.10</time>
<name>502</name>
</trkpt>
<trkpt lat="48.935533" lon="8.672057">
<ele>296.0</ele>
<speed>1.5</speed>
<course>161.2</course>
<desc>Speed 1.5 km/h Distance 0.69 km</desc>
<time>2010-03-14T10:33:19.10</time>
<name>503</name>
</trkpt>
<trkpt lat="48.935527" lon="8.672060">
<ele>296.0</ele>
<speed>2.2</speed>
<course>175.0</course>
<desc>Speed 2.2 km/h Distance 0.69 km</desc>
<time>2010-03-14T10:33:20.10</time>
<name>504</name>
</trkpt>
<trkpt lat="48.935518" lon="8.672060">
<ele>296.0</ele>
<speed>2.5</speed>
<course>178.8</course>
<desc>Speed 2.5 km/h Distance 0.69 km</desc>
<time>2010-03-14T10:33:21.10</time>
<name>505</name>
</trkpt>
<trkpt lat="48.935512" lon="8.672060">
<ele>296.0</ele>
<speed>1.9</speed>
<course>149.6</course>
<desc>Speed 1.9 km/h Distance 0.69 km</desc>
<time>2010-03-14T10:33:22.09</time>
<name>506</name>
</trkpt>
<trkpt lat="48.935480" lon="8.672088">
<ele>296.0</ele>
<speed>3.1</speed>
<course>157.7</course>
<desc>Speed 3.1 km/h Distance 0.69 km</desc>
<time>2010-03-14T10:33:24.09</time>
<name>507</name>
</trkpt>
<trkpt lat="48.935467" lon="8.672097">
<ele>296.0</ele>
<speed>2.6</speed>
<course>142.5</course>
<desc>Speed 2.6 km/h Distance 0.70 km</desc>
<time>2010-03-14T10:33:25.09</time>
<name>508</name>
</trkpt>
<trkpt lat="48.935457" lon="8.672108">
<ele>296.0</ele>
<speed>2.8</speed>
<course>152.1</course>
<desc>Speed 2.8 km/h Distance 0.70 km</desc>
<time>2010-03-14T10:33:26.09</time>
<name>509</name>
</trkpt>
<trkpt lat="48.935448" lon="8.672115">
<ele>296.0</ele>
<speed>2.3</speed>
<course>138.7</course>
<desc>Speed 2.3 km/h Distance 0.70 km</desc>
<time>2010-03-14T10:33:27.09</time>
<name>510</name>
</trkpt>
<trkpt lat="48.935438" lon="8.672128">
<ele>296.0</ele>
<speed>3.3</speed>
<course>135.5</course>
<desc>Speed 3.3 km/h Distance 0.70 km</desc>
<time>2010-03-14T10:33:28.09</time>
<name>511</name>
</trkpt>
<trkpt lat="48.935435" lon="8.672133">
<ele>296.0</ele>
<speed>1.3</speed>
<course>167.4</course>
<desc>Speed 1.3 km/h Distance 0.70 km</desc>
<time>2010-03-14T10:33:29.09</time>
<name>512</name>
</trkpt>
<trkpt lat="48.935430" lon="8.672135">
<ele>296.0</ele>
<speed>1.1</speed>
<course>153.6</course>
<desc>Speed 1.1 km/h Distance 0.70 km</desc>
<time>2010-03-14T10:33:30.09</time>
<name>513</name>
</trkpt>
<trkpt lat="48.935423" lon="8.672140">
<ele>296.0</ele>
<speed>2.8</speed>
<course>180.0</course>
<desc>Speed 2.8 km/h Distance 0.70 km</desc>
<time>2010-03-14T10:33:31.09</time>
<name>514</name>
</trkpt>
<trkpt lat="48.935418" lon="8.672140">
<ele>296.0</ele>
<speed>1.7</speed>
<course>178.8</course>
<desc>Speed 1.7 km/h Distance 0.70 km</desc>
<time>2010-03-14T10:33:32.09</time>
<name>515</name>
</trkpt>
<trkpt lat="48.935412" lon="8.672140">
<ele>296.0</ele>
<speed>1.8</speed>
<course>140.6</course>
<desc>Speed 1.8 km/h Distance 0.70 km</desc>
<time>2010-03-14T10:33:33.09</time>
<name>516</name>
</trkpt>
<trkpt lat="48.935405" lon="8.672148">
<ele>296.0</ele>
<speed>3.1</speed>
<course>131.3</course>
<desc>Speed 3.1 km/h Distance 0.70 km</desc>
<time>2010-03-14T10:33:34.09</time>
<name>517</name>
</trkpt>
<trkpt lat="48.935398" lon="8.672160">
<ele>296.0</ele>
<speed>2.6</speed>
<course>147.7</course>
<desc>Speed 2.6 km/h Distance 0.70 km</desc>
<time>2010-03-14T10:33:35.09</time>
<name>518</name>
</trkpt>
<trkpt lat="48.935393" lon="8.672165">
<ele>296.0</ele>
<speed>2.1</speed>
<course>162.5</course>
<desc>Speed 2.1 km/h Distance 0.71 km</desc>
<time>2010-03-14T10:33:36.09</time>
<name>519</name>
</trkpt>
<trkpt lat="48.935387" lon="8.672168">
<ele>296.0</ele>
<speed>2.0</speed>
<course>180.0</course>
<desc>Speed 2.0 km/h Distance 0.71 km</desc>
<time>2010-03-14T10:33:37.09</time>
<name>520</name>
</trkpt>
<trkpt lat="48.935378" lon="8.672168">
<ele>296.0</ele>
<speed>1.7</speed>
<course>142.5</course>
<desc>Speed 1.7 km/h Distance 0.71 km</desc>
<time>2010-03-14T10:33:38.08</time>
<name>521</name>
</trkpt>
<trkpt lat="48.935368" lon="8.672180">
<ele>296.0</ele>
<speed>1.6</speed>
<course>127.4</course>
<desc>Speed 1.6 km/h Distance 0.71 km</desc>
<time>2010-03-14T10:33:39.08</time>
<name>522</name>
</trkpt>
<trkpt lat="48.935363" lon="8.672190">
<ele>296.0</ele>
<speed>2.0</speed>
<course>138.6</course>
<desc>Speed 2.0 km/h Distance 0.71 km</desc>
<time>2010-03-14T10:33:40.08</time>
<name>523</name>
</trkpt>
<trkpt lat="48.935358" lon="8.672197">
<ele>296.0</ele>
<speed>2.0</speed>
<course>153.6</course>
<desc>Speed 2.0 km/h Distance 0.71 km</desc>
<time>2010-03-14T10:33:41.08</time>
<name>524</name>
</trkpt>
<trkpt lat="48.935352" lon="8.672202">
<ele>296.0</ele>
<speed>2.4</speed>
<course>137.4</course>
<desc>Speed 2.4 km/h Distance 0.71 km</desc>
<time>2010-03-14T10:33:42.08</time>
<name>525</name>
</trkpt>
<trkpt lat="48.935343" lon="8.672213">
<ele>296.0</ele>
<speed>2.4</speed>
<course>127.3</course>
<desc>Speed 2.4 km/h Distance 0.71 km</desc>
<time>2010-03-14T10:33:43.08</time>
<name>526</name>
</trkpt>
<trkpt lat="48.935333" lon="8.672233">
<ele>296.0</ele>
<speed>2.6</speed>
<course>238.6</course>
<desc>Speed 2.6 km/h Distance 0.71 km</desc>
<time>2010-03-14T10:33:44.08</time>
<name>527</name>
</trkpt>
<trkpt lat="48.935327" lon="8.672217">
<ele>296.0</ele>
<speed>4.1</speed>
<course>175.0</course>
<desc>Speed 4.1 km/h Distance 0.72 km</desc>
<time>2010-03-14T10:33:45.08</time>
<name>528</name>
</trkpt>
<trkpt lat="48.935318" lon="8.672218">
<ele>296.0</ele>
<speed>1.5</speed>
<course>161.8</course>
<desc>Speed 1.5 km/h Distance 0.72 km</desc>
<time>2010-03-14T10:33:46.08</time>
<name>529</name>
</trkpt>
<trkpt lat="48.935308" lon="8.672223">
<ele>296.0</ele>
<speed>1.4</speed>
<course>161.8</course>
<desc>Speed 1.4 km/h Distance 0.72 km</desc>
<time>2010-03-14T10:33:47.08</time>
<name>530</name>
</trkpt>
<trkpt lat="48.935298" lon="8.672228">
<ele>296.0</ele>
<speed>0.9</speed>
<course>117.0</course>
<desc>Speed 0.9 km/h Distance 0.72 km</desc>
<time>2010-03-14T10:33:48.08</time>
<name>531</name>
</trkpt>
<trkpt lat="48.935295" lon="8.672238">
<ele>296.0</ele>
<speed>1.0</speed>
<course>116.9</course>
<desc>Speed 1.0 km/h Distance 0.72 km</desc>
<time>2010-03-14T10:33:49.08</time>
<name>532</name>
</trkpt>
<trkpt lat="48.935290" lon="8.672253">
<ele>296.0</ele>
<speed>1.8</speed>
<course>139.1</course>
<desc>Speed 1.8 km/h Distance 0.72 km</desc>
<time>2010-03-14T10:33:50.08</time>
<name>533</name>
</trkpt>
<trkpt lat="48.935285" lon="8.672260">
<ele>296.0</ele>
<speed>2.2</speed>
<course>138.1</course>
<desc>Speed 2.2 km/h Distance 0.72 km</desc>
<time>2010-03-14T10:33:51.08</time>
<name>534</name>
</trkpt>
<trkpt lat="48.935280" lon="8.672267">
<ele>296.0</ele>
<speed>1.3</speed>
<course>299.0</course>
<desc>Speed 1.3 km/h Distance 0.72 km</desc>
<time>2010-03-14T10:33:52.08</time>
<name>535</name>
</trkpt>
<trkpt lat="48.935287" lon="8.672248">
<ele>296.0</ele>
<speed>5.9</speed>
<course>299.0</course>
<desc>Speed 5.9 km/h Distance 0.72 km</desc>
<time>2010-03-14T10:33:53.08</time>
<name>536</name>
</trkpt>
<trkpt lat="48.935287" lon="8.672248">
<ele>296.0</ele>
<speed>0.1</speed>
<course>107.1</course>
<desc>Speed 0.1 km/h Distance 0.72 km</desc>
<time>2010-03-14T10:33:54.08</time>
<name>537</name>
</trkpt>
<trkpt lat="48.935285" lon="8.672257">
<ele>296.0</ele>
<speed>2.4</speed>
<course>127.2</course>
<desc>Speed 2.4 km/h Distance 0.72 km</desc>
<time>2010-03-14T10:33:55.08</time>
<name>538</name>
</trkpt>
<trkpt lat="48.935280" lon="8.672267">
<ele>296.0</ele>
<speed>3.1</speed>
<course>132.2</course>
<desc>Speed 3.1 km/h Distance 0.73 km</desc>
<time>2010-03-14T10:33:56.08</time>
<name>539</name>
</trkpt>
<trkpt lat="48.935275" lon="8.672275">
<ele>296.0</ele>
<speed>2.8</speed>
<course>146.8</course>
<desc>Speed 2.8 km/h Distance 0.73 km</desc>
<time>2010-03-14T10:33:57.07</time>
<name>540</name>
</trkpt>
<trkpt lat="48.935270" lon="8.672280">
<ele>296.0</ele>
<speed>1.4</speed>
<course>213.2</course>
<desc>Speed 1.4 km/h Distance 0.73 km</desc>
<time>2010-03-14T10:33:58.08</time>
<name>541</name>
</trkpt>
<trkpt lat="48.935265" lon="8.672275">
<ele>296.0</ele>
<speed>1.2</speed>
<course>139.1</course>
<desc>Speed 1.2 km/h Distance 0.73 km</desc>
<time>2010-03-14T10:33:59.07</time>
<name>542</name>
</trkpt>
<trkpt lat="48.935260" lon="8.672282">
<ele>296.0</ele>
<speed>2.2</speed>
<course>135.7</course>
<desc>Speed 2.2 km/h Distance 0.73 km</desc>
<time>2010-03-14T10:34:00.07</time>
<name>543</name>
</trkpt>
<trkpt lat="48.935253" lon="8.672292">
<ele>296.0</ele>
<speed>3.1</speed>
<course>127.0</course>
<desc>Speed 3.1 km/h Distance 0.73 km</desc>
<time>2010-03-14T10:34:01.08</time>
<name>544</name>
</trkpt>
<trkpt lat="48.935250" lon="8.672298">
<ele>296.0</ele>
<speed>1.4</speed>
<course>127.2</course>
<desc>Speed 1.4 km/h Distance 0.73 km</desc>
<time>2010-03-14T10:34:02.07</time>
<name>545</name>
</trkpt>
<trkpt lat="48.935245" lon="8.672308">
<ele>296.0</ele>
<speed>2.2</speed>
<course>124.1</course>
<desc>Speed 2.2 km/h Distance 0.73 km</desc>
<time>2010-03-14T10:34:03.07</time>
<name>546</name>
</trkpt>
<trkpt lat="48.935238" lon="8.672323">
<ele>296.0</ele>
<speed>3.0</speed>
<course>105.9</course>
<desc>Speed 3.0 km/h Distance 0.73 km</desc>
<time>2010-03-14T10:34:04.07</time>
<name>547</name>
</trkpt>
<trkpt lat="48.935233" lon="8.672350">
<ele>296.0</ele>
<speed>2.9</speed>
<course>120.8</course>
<desc>Speed 2.9 km/h Distance 0.73 km</desc>
<time>2010-03-14T10:34:05.07</time>
<name>548</name>
</trkpt>
<trkpt lat="48.935230" lon="8.672358">
<ele>296.0</ele>
<speed>2.3</speed>
<course>122.9</course>
<desc>Speed 2.3 km/h Distance 0.73 km</desc>
<time>2010-03-14T10:34:06.07</time>
<name>549</name>
</trkpt>
<trkpt lat="48.935225" lon="8.672370">
<ele>296.0</ele>
<speed>1.9</speed>
<course>116.9</course>
<desc>Speed 1.9 km/h Distance 0.74 km</desc>
<time>2010-03-14T10:34:07.07</time>
<name>550</name>
</trkpt>
<trkpt lat="48.935220" lon="8.672385">
<ele>296.0</ele>
<speed>1.9</speed>
<course>121.4</course>
<desc>Speed 1.9 km/h Distance 0.74 km</desc>
<time>2010-03-14T10:34:08.07</time>
<name>551</name>
</trkpt>
<trkpt lat="48.935217" lon="8.672393">
<ele>296.0</ele>
<speed>2.2</speed>
<course>127.0</course>
<desc>Speed 2.2 km/h Distance 0.74 km</desc>
<time>2010-03-14T10:34:09.07</time>
<name>552</name>
</trkpt>
<trkpt lat="48.935213" lon="8.672400">
<ele>296.0</ele>
<speed>1.8</speed>
<course>141.9</course>
<desc>Speed 1.8 km/h Distance 0.74 km</desc>
<time>2010-03-14T10:34:10.07</time>
<name>553</name>
</trkpt>
<trkpt lat="48.935205" lon="8.672410">
<ele>296.0</ele>
<speed>2.5</speed>
<course>132.9</course>
<desc>Speed 2.5 km/h Distance 0.74 km</desc>
<time>2010-03-14T10:34:11.07</time>
<name>554</name>
</trkpt>
<trkpt lat="48.935200" lon="8.672418">
<ele>296.0</ele>
<speed>2.3</speed>
<course>127.2</course>
<desc>Speed 2.3 km/h Distance 0.74 km</desc>
<time>2010-03-14T10:34:12.07</time>
<name>555</name>
</trkpt>
<trkpt lat="48.935195" lon="8.672428">
<ele>296.0</ele>
<speed>2.1</speed>
<course>108.7</course>
<desc>Speed 2.1 km/h Distance 0.74 km</desc>
<time>2010-03-14T10:34:13.07</time>
<name>556</name>
</trkpt>
<trkpt lat="48.935188" lon="8.672458">
<ele>296.0</ele>
<speed>6.9</speed>
<course>112.6</course>
<desc>Speed 6.9 km/h Distance 0.74 km</desc>
<time>2010-03-14T10:34:14.06</time>
<name>557</name>
</trkpt>
<trkpt lat="48.935183" lon="8.672477">
<ele>296.0</ele>
<speed>3.1</speed>
<course>127.6</course>
<desc>Speed 3.1 km/h Distance 0.75 km</desc>
<time>2010-03-14T10:34:15.06</time>
<name>558</name>
</trkpt>
<trkpt lat="48.935180" lon="8.672483">
<ele>296.0</ele>
<speed>1.9</speed>
<course>123.1</course>
<desc>Speed 1.9 km/h Distance 0.75 km</desc>
<time>2010-03-14T10:34:16.06</time>
<name>559</name>
</trkpt>
<trkpt lat="48.935175" lon="8.672495">
<ele>296.0</ele>
<speed>2.9</speed>
<course>121.4</course>
<desc>Speed 2.9 km/h Distance 0.75 km</desc>
<time>2010-03-14T10:34:17.06</time>
<name>560</name>
</trkpt>
<trkpt lat="48.935172" lon="8.672503">
<ele>296.0</ele>
<speed>1.3</speed>
<course>127.6</course>
<desc>Speed 1.3 km/h Distance 0.75 km</desc>
<time>2010-03-14T10:34:18.06</time>
<name>561</name>
</trkpt>
<trkpt lat="48.935167" lon="8.672513">
<ele>296.0</ele>
<speed>1.6</speed>
<course>112.6</course>
<desc>Speed 1.6 km/h Distance 0.75 km</desc>
<time>2010-03-14T10:34:19.06</time>
<name>562</name>
</trkpt>
<trkpt lat="48.935162" lon="8.672532">
<ele>296.0</ele>
<speed>2.8</speed>
<course>109.4</course>
<desc>Speed 2.8 km/h Distance 0.75 km</desc>
<time>2010-03-14T10:34:20.06</time>
<name>563</name>
</trkpt>
<trkpt lat="48.935157" lon="8.672553">
<ele>296.0</ele>
<speed>2.1</speed>
<course>108.7</course>
<desc>Speed 2.1 km/h Distance 0.75 km</desc>
<time>2010-03-14T10:34:21.06</time>
<name>564</name>
</trkpt>
<trkpt lat="48.935150" lon="8.672583">
<ele>296.0</ele>
<speed>1.4</speed>
<course>90.0</course>
<desc>Speed 1.4 km/h Distance 0.75 km</desc>
<time>2010-03-14T10:34:22.06</time>
<name>565</name>
</trkpt>
<trkpt lat="48.935150" lon="8.672588">
<ele>296.0</ele>
<speed>1.0</speed>
<course>119.7</course>
<desc>Speed 1.0 km/h Distance 0.75 km</desc>
<time>2010-03-14T10:34:23.06</time>
<name>566</name>
</trkpt>
<trkpt lat="48.935145" lon="8.672602">
<ele>296.0</ele>
<speed>3.1</speed>
<course>114.5</course>
<desc>Speed 3.1 km/h Distance 0.76 km</desc>
<time>2010-03-14T10:34:24.06</time>
<name>567</name>
</trkpt>
<trkpt lat="48.935140" lon="8.672618">
<ele>296.0</ele>
<speed>3.6</speed>
<course>99.6</course>
<desc>Speed 3.6 km/h Distance 0.76 km</desc>
<time>2010-03-14T10:34:25.06</time>
<name>568</name>
</trkpt>
<trkpt lat="48.935138" lon="8.672633">
<ele>296.0</ele>
<speed>1.4</speed>
<course>115.1</course>
<desc>Speed 1.4 km/h Distance 0.76 km</desc>
<time>2010-03-14T10:34:26.06</time>
<name>569</name>
</trkpt>
<trkpt lat="48.935132" lon="8.672655">
<ele>296.0</ele>
<speed>1.2</speed>
<course>104.4</course>
<desc>Speed 1.2 km/h Distance 0.76 km</desc>
<time>2010-03-14T10:34:27.06</time>
<name>570</name>
</trkpt>
<trkpt lat="48.935130" lon="8.672665">
<ele>296.0</ele>
<speed>2.7</speed>
<course>102.3</course>
<desc>Speed 2.7 km/h Distance 0.76 km</desc>
<time>2010-03-14T10:34:28.06</time>
<name>571</name>
</trkpt>
<trkpt lat="48.935128" lon="8.672677">
<ele>296.0</ele>
<speed>1.6</speed>
<course>113.5</course>
<desc>Speed 1.6 km/h Distance 0.76 km</desc>
<time>2010-03-14T10:34:29.06</time>
<name>572</name>
</trkpt>
<trkpt lat="48.935125" lon="8.672688">
<ele>296.0</ele>
<speed>1.2</speed>
<course>113.5</course>
<desc>Speed 1.2 km/h Distance 0.76 km</desc>
<time>2010-03-14T10:34:30.06</time>
<name>573</name>
</trkpt>
<trkpt lat="48.935122" lon="8.672700">
<ele>296.0</ele>
<speed>0.3</speed>
<course>97.9</course>
<desc>Speed 0.3 km/h Distance 0.76 km</desc>
<time>2010-03-14T10:34:31.06</time>
<name>574</name>
</trkpt>
<trkpt lat="48.935120" lon="8.672718">
<ele>296.0</ele>
<speed>1.0</speed>
<course>167.4</course>
<desc>Speed 1.0 km/h Distance 0.76 km</desc>
<time>2010-03-14T10:34:32.06</time>
<name>575</name>
</trkpt>
<trkpt lat="48.935118" lon="8.672720">
<ele>296.0</ele>
<speed>0.9</speed>
<course>121.4</course>
<desc>Speed 0.9 km/h Distance 0.76 km</desc>
<time>2010-03-14T10:34:33.06</time>
<name>576</name>
</trkpt>
<trkpt lat="48.935115" lon="8.672728">
<ele>296.0</ele>
<speed>1.4</speed>
<course>119.7</course>
<desc>Speed 1.4 km/h Distance 0.77 km</desc>
<time>2010-03-14T10:34:34.05</time>
<name>577</name>
</trkpt>
<trkpt lat="48.935110" lon="8.672742">
<ele>296.0</ele>
<speed>3.0</speed>
<course>100.7</course>
<desc>Speed 3.0 km/h Distance 0.77 km</desc>
<time>2010-03-14T10:34:35.05</time>
<name>578</name>
</trkpt>
<trkpt lat="48.935108" lon="8.672755">
<ele>296.0</ele>
<speed>2.0</speed>
<course>99.6</course>
<desc>Speed 2.0 km/h Distance 0.77 km</desc>
<time>2010-03-14T10:34:36.05</time>
<name>579</name>
</trkpt>
<trkpt lat="48.935107" lon="8.672770">
<ele>296.0</ele>
<speed>1.9</speed>
<course>104.2</course>
<desc>Speed 1.9 km/h Distance 0.77 km</desc>
<time>2010-03-14T10:34:37.05</time>
<name>580</name>
</trkpt>
<trkpt lat="48.935103" lon="8.672790">
<ele>296.0</ele>
<speed>1.7</speed>
<course>108.1</course>
<desc>Speed 1.7 km/h Distance 0.77 km</desc>
<time>2010-03-14T10:34:38.05</time>
<name>581</name>
</trkpt>
<trkpt lat="48.935098" lon="8.672813">
<ele>296.0</ele>
<speed>3.0</speed>
<course>124.7</course>
<desc>Speed 3.0 km/h Distance 0.77 km</desc>
<time>2010-03-14T10:34:39.05</time>
<name>582</name>
</trkpt>
<trkpt lat="48.935090" lon="8.672832">
<ele>296.0</ele>
<speed>3.1</speed>
<course>132.9</course>
<desc>Speed 3.1 km/h Distance 0.77 km</desc>
<time>2010-03-14T10:34:41.05</time>
<name>583</name>
</trkpt>
<trkpt lat="48.935085" lon="8.672840">
<ele>296.0</ele>
<speed>3.2</speed>
<course>132.9</course>
<desc>Speed 3.2 km/h Distance 0.77 km</desc>
<time>2010-03-14T10:34:42.05</time>
<name>584</name>
</trkpt>
<trkpt lat="48.935085" lon="8.672840">
<ele>296.0</ele>
<speed>0.5</speed>
<course>121.4</course>
<desc>Speed 0.5 km/h Distance 0.77 km</desc>
<time>2010-03-14T10:34:43.05</time>
<name>585</name>
</trkpt>
<trkpt lat="48.935082" lon="8.672848">
<ele>296.0</ele>
<speed>2.7</speed>
<course>148.4</course>
<desc>Speed 2.7 km/h Distance 0.78 km</desc>
<time>2010-03-14T10:34:44.05</time>
<name>586</name>
</trkpt>
<trkpt lat="48.935078" lon="8.672852">
<ele>296.0</ele>
<speed>1.2</speed>
<course>141.0</course>
<desc>Speed 1.2 km/h Distance 0.78 km</desc>
<time>2010-03-14T10:34:45.05</time>
<name>587</name>
</trkpt>
<trkpt lat="48.935072" lon="8.672860">
<ele>296.0</ele>
<speed>2.4</speed>
<course>127.6</course>
<desc>Speed 2.4 km/h Distance 0.78 km</desc>
<time>2010-03-14T10:34:46.05</time>
<name>588</name>
</trkpt>
<trkpt lat="48.935067" lon="8.672870">
<ele>296.0</ele>
<speed>2.6</speed>
<course>127.0</course>
<desc>Speed 2.6 km/h Distance 0.78 km</desc>
<time>2010-03-14T10:34:47.05</time>
<name>589</name>
</trkpt>
<trkpt lat="48.935063" lon="8.672877">
<ele>296.0</ele>
<speed>1.5</speed>
<course>102.2</course>
<desc>Speed 1.5 km/h Distance 0.78 km</desc>
<time>2010-03-14T10:34:48.05</time>
<name>590</name>
</trkpt>
<trkpt lat="48.935062" lon="8.672888">
<ele>296.0</ele>
<speed>1.6</speed>
<course>104.2</course>
<desc>Speed 1.6 km/h Distance 0.78 km</desc>
<time>2010-03-14T10:34:49.05</time>
<name>591</name>
</trkpt>
<trkpt lat="48.935060" lon="8.672898">
<ele>296.0</ele>
<speed>2.3</speed>
<course>127.0</course>
<desc>Speed 2.3 km/h Distance 0.78 km</desc>
<time>2010-03-14T10:34:50.05</time>
<name>592</name>
</trkpt>
<trkpt lat="48.935057" lon="8.672905">
<ele>296.0</ele>
<speed>1.7</speed>
<course>146.3</course>
<desc>Speed 1.7 km/h Distance 0.78 km</desc>
<time>2010-03-14T10:34:51.05</time>
<name>593</name>
</trkpt>
<trkpt lat="48.935053" lon="8.672908">
<ele>296.0</ele>
<speed>1.0</speed>
<course>146.3</course>
<desc>Speed 1.0 km/h Distance 0.78 km</desc>
<time>2010-03-14T10:34:52.05</time>
<name>594</name>
</trkpt>
<trkpt lat="48.935047" lon="8.672915">
<ele>296.0</ele>
<speed>2.4</speed>
<course>137.4</course>
<desc>Speed 2.4 km/h Distance 0.78 km</desc>
<time>2010-03-14T10:34:53.05</time>
<name>595</name>
</trkpt>
<trkpt lat="48.935038" lon="8.672927">
<ele>296.0</ele>
<speed>2.7</speed>
<course>119.0</course>
<desc>Speed 2.7 km/h Distance 0.78 km</desc>
<time>2010-03-14T10:34:54.04</time>
<name>596</name>
</trkpt>
<trkpt lat="48.935032" lon="8.672945">
<ele>296.0</ele>
<speed>1.6</speed>
<course>127.2</course>
<desc>Speed 1.6 km/h Distance 0.78 km</desc>
<time>2010-03-14T10:34:55.04</time>
<name>597</name>
</trkpt>
<trkpt lat="48.935020" lon="8.672968">
<ele>296.0</ele>
<speed>6.7</speed>
<course>140.6</course>
<desc>Speed 6.7 km/h Distance 0.79 km</desc>
<time>2010-03-14T10:34:56.04</time>
<name>598</name>
</trkpt>
<trkpt lat="48.935013" lon="8.672977">
<ele>296.0</ele>
<speed>2.7</speed>
<course>141.9</course>
<desc>Speed 2.7 km/h Distance 0.79 km</desc>
<time>2010-03-14T10:34:57.04</time>
<name>599</name>
</trkpt>
<trkpt lat="48.935005" lon="8.672987">
<ele>296.0</ele>
<speed>1.8</speed>
<course>137.4</course>
<desc>Speed 1.8 km/h Distance 0.79 km</desc>
<time>2010-03-14T10:34:58.04</time>
<name>600</name>
</trkpt>
<trkpt lat="48.934997" lon="8.672998">
<ele>296.0</ele>
<speed>1.5</speed>
<course>37.2</course>
<desc>Speed 1.5 km/h Distance 0.79 km</desc>
<time>2010-03-14T10:34:59.04</time>
<name>601</name>
</trkpt>
<trkpt lat="48.934998" lon="8.673000">
<ele>296.0</ele>
<speed>1.2</speed>
<course>135.5</course>
<desc>Speed 1.2 km/h Distance 0.79 km</desc>
<time>2010-03-14T10:35:00.04</time>
<name>602</name>
</trkpt>
<trkpt lat="48.934992" lon="8.673010">
<ele>296.0</ele>
<speed>3.5</speed>
<course>152.1</course>
<desc>Speed 3.5 km/h Distance 0.79 km</desc>
<time>2010-03-14T10:35:01.05</time>
<name>603</name>
</trkpt>
<trkpt lat="48.934983" lon="8.673017">
<ele>296.0</ele>
<speed>2.0</speed>
<course>117.0</course>
<desc>Speed 2.0 km/h Distance 0.79 km</desc>
<time>2010-03-14T10:35:02.04</time>
<name>604</name>
</trkpt>
<trkpt lat="48.934980" lon="8.673027">
<ele>296.0</ele>
<speed>1.3</speed>
<course>142.8</course>
<desc>Speed 1.3 km/h Distance 0.79 km</desc>
<time>2010-03-14T10:35:03.04</time>
<name>605</name>
</trkpt>
<trkpt lat="48.934978" lon="8.673028">
<ele>296.0</ele>
<speed>0.9</speed>
<course>157.8</course>
<desc>Speed 0.9 km/h Distance 0.79 km</desc>
<time>2010-03-14T10:35:04.04</time>
<name>606</name>
</trkpt>
<trkpt lat="48.934973" lon="8.673032">
<ele>296.0</ele>
<speed>1.9</speed>
<course>138.6</course>
<desc>Speed 1.9 km/h Distance 0.79 km</desc>
<time>2010-03-14T10:35:05.04</time>
<name>607</name>
</trkpt>
<trkpt lat="48.934968" lon="8.673038">
<ele>296.0</ele>
<speed>1.8</speed>
<course>124.1</course>
<desc>Speed 1.8 km/h Distance 0.79 km</desc>
<time>2010-03-14T10:35:06.04</time>
<name>608</name>
</trkpt>
<trkpt lat="48.934962" lon="8.673053">
<ele>296.0</ele>
<speed>3.0</speed>
<course>114.6</course>
<desc>Speed 3.0 km/h Distance 0.80 km</desc>
<time>2010-03-14T10:35:07.04</time>
<name>609</name>
</trkpt>
<trkpt lat="48.934957" lon="8.673070">
<ele>296.0</ele>
<speed>2.8</speed>
<course>110.8</course>
<desc>Speed 2.8 km/h Distance 0.80 km</desc>
<time>2010-03-14T10:35:08.04</time>
<name>610</name>
</trkpt>
<trkpt lat="48.934952" lon="8.673090">
<ele>296.0</ele>
<speed>3.1</speed>
<course>106.9</course>
<desc>Speed 3.1 km/h Distance 0.80 km</desc>
<time>2010-03-14T10:35:09.04</time>
<name>611</name>
</trkpt>
<trkpt lat="48.934947" lon="8.673115">
<ele>296.0</ele>
<speed>2.3</speed>
<course>105.0</course>
<desc>Speed 2.3 km/h Distance 0.80 km</desc>
<time>2010-03-14T10:35:10.04</time>
<name>612</name>
</trkpt>
<trkpt lat="48.934942" lon="8.673143">
<ele>296.0</ele>
<speed>1.3</speed>
<course>127.2</course>
<desc>Speed 1.3 km/h Distance 0.80 km</desc>
<time>2010-03-14T10:35:11.04</time>
<name>613</name>
</trkpt>
<trkpt lat="48.934937" lon="8.673153">
<ele>296.0</ele>
<speed>2.6</speed>
<course>113.6</course>
<desc>Speed 2.6 km/h Distance 0.80 km</desc>
<time>2010-03-14T10:35:12.04</time>
<name>614</name>
</trkpt>
<trkpt lat="48.934933" lon="8.673165">
<ele>296.0</ele>
<speed>2.1</speed>
<course>161.2</course>
<desc>Speed 2.1 km/h Distance 0.80 km</desc>
<time>2010-03-14T10:35:13.03</time>
<name>615</name>
</trkpt>
<trkpt lat="48.934927" lon="8.673168">
<ele>296.0</ele>
<speed>2.3</speed>
<course>127.0</course>
<desc>Speed 2.3 km/h Distance 0.81 km</desc>
<time>2010-03-14T10:35:14.03</time>
<name>616</name>
</trkpt>
<trkpt lat="48.934923" lon="8.673175">
<ele>296.0</ele>
<speed>2.1</speed>
<course>113.5</course>
<desc>Speed 2.1 km/h Distance 0.81 km</desc>
<time>2010-03-14T10:35:15.03</time>
<name>617</name>
</trkpt>
<trkpt lat="48.934920" lon="8.673187">
<ele>296.0</ele>
<speed>2.0</speed>
<course>117.4</course>
<desc>Speed 2.0 km/h Distance 0.81 km</desc>
<time>2010-03-14T10:35:16.03</time>
<name>618</name>
</trkpt>
<trkpt lat="48.934918" lon="8.673192">
<ele>296.0</ele>
<speed>1.5</speed>
<course>233.9</course>
<desc>Speed 1.5 km/h Distance 0.81 km</desc>
<time>2010-03-14T10:35:17.03</time>
<name>619</name>
</trkpt>
<trkpt lat="48.934917" lon="8.673188">
<ele>296.0</ele>
<speed>0.8</speed>
<course>169.7</course>
<desc>Speed 0.8 km/h Distance 0.81 km</desc>
<time>2010-03-14T10:35:18.03</time>
<name>620</name>
</trkpt>
<trkpt lat="48.934910" lon="8.673190">
<ele>296.0</ele>
<speed>2.3</speed>
<course>117.4</course>
<desc>Speed 2.3 km/h Distance 0.81 km</desc>
<time>2010-03-14T10:35:19.03</time>
<name>621</name>
</trkpt>
<trkpt lat="48.934908" lon="8.673195">
<ele>296.0</ele>
<speed>0.5</speed>
<course>127.3</course>
<desc>Speed 0.5 km/h Distance 0.81 km</desc>
<time>2010-03-14T10:35:20.03</time>
<name>622</name>
</trkpt>
<trkpt lat="48.934902" lon="8.673208">
<ele>296.0</ele>
<speed>1.5</speed>
<course>116.9</course>
<desc>Speed 1.5 km/h Distance 0.81 km</desc>
<time>2010-03-14T10:35:21.03</time>
<name>623</name>
</trkpt>
<trkpt lat="48.934893" lon="8.673233">
<ele>296.0</ele>
<speed>2.5</speed>
<course>116.9</course>
<desc>Speed 2.5 km/h Distance 0.81 km</desc>
<time>2010-03-14T10:35:22.03</time>
<name>624</name>
</trkpt>
<trkpt lat="48.934885" lon="8.673258">
<ele>296.0</ele>
<speed>3.6</speed>
<course>132.2</course>
<desc>Speed 3.6 km/h Distance 0.81 km</desc>
<time>2010-03-14T10:35:23.03</time>
<name>625</name>
</trkpt>
<trkpt lat="48.934880" lon="8.673267">
<ele>296.0</ele>
<speed>2.3</speed>
<course>119.0</course>
<desc>Speed 2.3 km/h Distance 0.82 km</desc>
<time>2010-03-14T10:35:24.03</time>
<name>626</name>
</trkpt>
<trkpt lat="48.934873" lon="8.673285">
<ele>296.0</ele>
<speed>2.7</speed>
<course>118.5</course>
<desc>Speed 2.7 km/h Distance 0.82 km</desc>
<time>2010-03-14T10:35:25.03</time>
<name>627</name>
</trkpt>
<trkpt lat="48.934865" lon="8.673308">
<ele>296.0</ele>
<speed>3.0</speed>
<course>118.3</course>
<desc>Speed 3.0 km/h Distance 0.82 km</desc>
<time>2010-03-14T10:35:26.03</time>
<name>628</name>
</trkpt>
<trkpt lat="48.934855" lon="8.673337">
<ele>296.0</ele>
<speed>2.8</speed>
<course>137.4</course>
<desc>Speed 2.8 km/h Distance 0.82 km</desc>
<time>2010-03-14T10:35:27.03</time>
<name>629</name>
</trkpt>
<trkpt lat="48.934847" lon="8.673348">
<ele>296.0</ele>
<speed>3.1</speed>
<course>133.5</course>
<desc>Speed 3.1 km/h Distance 0.82 km</desc>
<time>2010-03-14T10:35:28.03</time>
<name>630</name>
</trkpt>
<trkpt lat="48.934838" lon="8.673362">
<ele>296.0</ele>
<speed>3.0</speed>
<course>119.0</course>
<desc>Speed 3.0 km/h Distance 0.82 km</desc>
<time>2010-03-14T10:35:29.03</time>
<name>631</name>
</trkpt>
<trkpt lat="48.934832" lon="8.673380">
<ele>296.0</ele>
<speed>3.5</speed>
<course>118.2</course>
<desc>Speed 3.5 km/h Distance 0.83 km</desc>
<time>2010-03-14T10:35:30.03</time>
<name>632</name>
</trkpt>
<trkpt lat="48.934822" lon="8.673408">
<ele>296.0</ele>
<speed>3.1</speed>
<course>122.9</course>
<desc>Speed 3.1 km/h Distance 0.83 km</desc>
<time>2010-03-14T10:35:31.03</time>
<name>633</name>
</trkpt>
<trkpt lat="48.934817" lon="8.673420">
<ele>296.0</ele>
<speed>3.5</speed>
<course>349.8</course>
<desc>Speed 3.5 km/h Distance 0.83 km</desc>
<time>2010-03-14T10:35:32.03</time>
<name>634</name>
</trkpt>
<trkpt lat="48.934835" lon="8.673415">
<ele>296.0</ele>
<speed>7.5</speed>
<course>114.5</course>
<desc>Speed 7.5 km/h Distance 0.83 km</desc>
<time>2010-03-14T10:35:33.02</time>
<name>635</name>
</trkpt>
<trkpt lat="48.934830" lon="8.673432">
<ele>296.0</ele>
<speed>3.2</speed>
<course>112.5</course>
<desc>Speed 3.2 km/h Distance 0.83 km</desc>
<time>2010-03-14T10:35:34.02</time>
<name>636</name>
</trkpt>
<trkpt lat="48.934825" lon="8.673450">
<ele>296.0</ele>
<speed>2.8</speed>
<course>121.1</course>
<desc>Speed 2.8 km/h Distance 0.83 km</desc>
<time>2010-03-14T10:35:35.02</time>
<name>637</name>
</trkpt>
<trkpt lat="48.934822" lon="8.673458">
<ele>296.0</ele>
<speed>2.3</speed>
<course>130.2</course>
<desc>Speed 2.3 km/h Distance 0.83 km</desc>
<time>2010-03-14T10:35:36.02</time>
<name>638</name>
</trkpt>
<trkpt lat="48.934813" lon="8.673473">
<ele>296.0</ele>
<speed>3.0</speed>
<course>119.0</course>
<desc>Speed 3.0 km/h Distance 0.84 km</desc>
<time>2010-03-14T10:35:37.02</time>
<name>639</name>
</trkpt>
<trkpt lat="48.934807" lon="8.673492">
<ele>296.0</ele>
<speed>2.4</speed>
<course>116.9</course>
<desc>Speed 2.4 km/h Distance 0.84 km</desc>
<time>2010-03-14T10:35:38.02</time>
<name>640</name>
</trkpt>
<trkpt lat="48.934798" lon="8.673517">
<ele>296.0</ele>
<speed>3.1</speed>
<course>127.4</course>
<desc>Speed 3.1 km/h Distance 0.84 km</desc>
<time>2010-03-14T10:35:39.02</time>
<name>641</name>
</trkpt>
<trkpt lat="48.934793" lon="8.673527">
<ele>296.0</ele>
<speed>3.1</speed>
<course>116.9</course>
<desc>Speed 3.1 km/h Distance 0.84 km</desc>
<time>2010-03-14T10:35:40.02</time>
<name>642</name>
</trkpt>
<trkpt lat="48.934788" lon="8.673542">
<ele>296.0</ele>
<speed>3.5</speed>
<course>98.7</course>
<desc>Speed 3.5 km/h Distance 0.84 km</desc>
<time>2010-03-14T10:35:41.02</time>
<name>643</name>
</trkpt>
<trkpt lat="48.934787" lon="8.673558">
<ele>296.0</ele>
<speed>2.7</speed>
<course>148.4</course>
<desc>Speed 2.7 km/h Distance 0.84 km</desc>
<time>2010-03-14T10:35:42.02</time>
<name>644</name>
</trkpt>
<trkpt lat="48.934783" lon="8.673562">
<ele>296.0</ele>
<speed>2.1</speed>
<course>104.4</course>
<desc>Speed 2.1 km/h Distance 0.84 km</desc>
<time>2010-03-14T10:35:43.02</time>
<name>645</name>
</trkpt>
<trkpt lat="48.934782" lon="8.673572">
<ele>296.0</ele>
<speed>2.6</speed>
<course>106.9</course>
<desc>Speed 2.6 km/h Distance 0.84 km</desc>
<time>2010-03-14T10:35:44.02</time>
<name>646</name>
</trkpt>
<trkpt lat="48.934778" lon="8.673588">
<ele>296.0</ele>
<speed>3.6</speed>
<course>326.8</course>
<desc>Speed 3.6 km/h Distance 0.84 km</desc>
<time>2010-03-14T10:35:45.02</time>
<name>647</name>
</trkpt>
<trkpt lat="48.934785" lon="8.673582">
<ele>296.0</ele>
<speed>3.6</speed>
<course>110.8</course>
<desc>Speed 3.6 km/h Distance 0.85 km</desc>
<time>2010-03-14T10:35:46.02</time>
<name>648</name>
</trkpt>
<trkpt lat="48.934778" lon="8.673608">
<ele>296.0</ele>
<speed>4.9</speed>
<course>102.3</course>
<desc>Speed 4.9 km/h Distance 0.85 km</desc>
<time>2010-03-14T10:35:47.02</time>
<name>649</name>
</trkpt>
<trkpt lat="48.934775" lon="8.673632">
<ele>296.0</ele>
<speed>2.5</speed>
<course>100.2</course>
<desc>Speed 2.5 km/h Distance 0.85 km</desc>
<time>2010-03-14T10:35:48.02</time>
<name>650</name>
</trkpt>
<trkpt lat="48.934772" lon="8.673660">
<ele>296.0</ele>
<speed>1.5</speed>
<course>108.7</course>
<desc>Speed 1.5 km/h Distance 0.85 km</desc>
<time>2010-03-14T10:35:49.02</time>
<name>651</name>
</trkpt>
<trkpt lat="48.934768" lon="8.673675">
<ele>296.0</ele>
<speed>3.3</speed>
<course>99.6</course>
<desc>Speed 3.3 km/h Distance 0.85 km</desc>
<time>2010-03-14T10:35:50.02</time>
<name>652</name>
</trkpt>
<trkpt lat="48.934767" lon="8.673690">
<ele>296.0</ele>
<speed>2.2</speed>
<course>117.0</course>
<desc>Speed 2.2 km/h Distance 0.85 km</desc>
<time>2010-03-14T10:35:51.02</time>
<name>653</name>
</trkpt>
<trkpt lat="48.934763" lon="8.673700">
<ele>296.0</ele>
<speed>2.9</speed>
<course>113.6</course>
<desc>Speed 2.9 km/h Distance 0.85 km</desc>
<time>2010-03-14T10:35:52.02</time>
<name>654</name>
</trkpt>
<trkpt lat="48.934760" lon="8.673712">
<ele>296.0</ele>
<speed>3.4</speed>
<course>97.2</course>
<desc>Speed 3.4 km/h Distance 0.86 km</desc>
<time>2010-03-14T10:35:53.02</time>
<name>655</name>
</trkpt>
<trkpt lat="48.934758" lon="8.673732">
<ele>296.0</ele>
<speed>3.4</speed>
<course>113.5</course>
<desc>Speed 3.4 km/h Distance 0.86 km</desc>
<time>2010-03-14T10:35:54.01</time>
<name>656</name>
</trkpt>
<trkpt lat="48.934755" lon="8.673743">
<ele>296.0</ele>
<speed>3.3</speed>
<course>104.4</course>
<desc>Speed 3.3 km/h Distance 0.86 km</desc>
<time>2010-03-14T10:35:55.01</time>
<name>657</name>
</trkpt>
<trkpt lat="48.934753" lon="8.673753">
<ele>296.0</ele>
<speed>2.5</speed>
<course>90.0</course>
<desc>Speed 2.5 km/h Distance 0.86 km</desc>
<time>2010-03-14T10:35:56.01</time>
<name>658</name>
</trkpt>
<trkpt lat="48.934753" lon="8.673763">
<ele>296.0</ele>
<speed>2.3</speed>
<course>116.9</course>
<desc>Speed 2.3 km/h Distance 0.86 km</desc>
<time>2010-03-14T10:35:57.01</time>
<name>659</name>
</trkpt>
<trkpt lat="48.934747" lon="8.673783">
<ele>296.0</ele>
<speed>4.8</speed>
<course>90.0</course>
<desc>Speed 4.8 km/h Distance 0.86 km</desc>
<time>2010-03-14T10:35:58.01</time>
<name>660</name>
</trkpt>
<trkpt lat="48.934747" lon="8.673803">
<ele>296.0</ele>
<speed>2.2</speed>
<course>112.1</course>
<desc>Speed 2.2 km/h Distance 0.86 km</desc>
<time>2010-03-14T10:35:59.01</time>
<name>661</name>
</trkpt>
<trkpt lat="48.934740" lon="8.673828">
<ele>296.0</ele>
<speed>4.0</speed>
<course>61.7</course>
<desc>Speed 4.0 km/h Distance 0.86 km</desc>
<time>2010-03-14T10:36:00.01</time>
<name>662</name>
</trkpt>
<trkpt lat="48.934742" lon="8.673833">
<ele>296.0</ele>
<speed>1.2</speed>
<course>106.9</course>
<desc>Speed 1.2 km/h Distance 0.87 km</desc>
<time>2010-03-14T10:36:01.02</time>
<name>663</name>
</trkpt>
<trkpt lat="48.934738" lon="8.673850">
<ele>296.0</ele>
<speed>3.7</speed>
<course>102.3</course>
<desc>Speed 3.7 km/h Distance 0.87 km</desc>
<time>2010-03-14T10:36:02.01</time>
<name>664</name>
</trkpt>
<trkpt lat="48.934735" lon="8.673873">
<ele>296.0</ele>
<speed>4.6</speed>
<course>101.5</course>
<desc>Speed 4.6 km/h Distance 0.87 km</desc>
<time>2010-03-14T10:36:03.01</time>
<name>665</name>
</trkpt>
<trkpt lat="48.934732" lon="8.673898">
<ele>296.0</ele>
<speed>4.0</speed>
<course>99.6</course>
<desc>Speed 4.0 km/h Distance 0.87 km</desc>
<time>2010-03-14T10:36:04.01</time>
<name>666</name>
</trkpt>
<trkpt lat="48.934728" lon="8.673928">
<ele>296.0</ele>
<speed>3.5</speed>
<course>104.4</course>
<desc>Speed 3.5 km/h Distance 0.87 km</desc>
<time>2010-03-14T10:36:05.01</time>
<name>667</name>
</trkpt>
<trkpt lat="48.934727" lon="8.673938">
<ele>296.0</ele>
<speed>2.7</speed>
<course>90.0</course>
<desc>Speed 2.7 km/h Distance 0.87 km</desc>
<time>2010-03-14T10:36:06.01</time>
<name>668</name>
</trkpt>
<trkpt lat="48.934727" lon="8.673948">
<ele>296.0</ele>
<speed>2.6</speed>
<course>103.2</course>
<desc>Speed 2.6 km/h Distance 0.87 km</desc>
<time>2010-03-14T10:36:07.01</time>
<name>669</name>
</trkpt>
<trkpt lat="48.934723" lon="8.673970">
<ele>296.0</ele>
<speed>2.7</speed>
<course>95.4</course>
<desc>Speed 2.7 km/h Distance 0.88 km</desc>
<time>2010-03-14T10:36:08.01</time>
<name>670</name>
</trkpt>
<trkpt lat="48.934722" lon="8.673997">
<ele>296.0</ele>
<speed>2.3</speed>
<course>99.1</course>
<desc>Speed 2.3 km/h Distance 0.88 km</desc>
<time>2010-03-14T10:36:09.01</time>
<name>671</name>
</trkpt>
<trkpt lat="48.934718" lon="8.674028">
<ele>296.0</ele>
<speed>3.2</speed>
<course>103.2</course>
<desc>Speed 3.2 km/h Distance 0.88 km</desc>
<time>2010-03-14T10:36:10.01</time>
<name>672</name>
</trkpt>
<trkpt lat="48.934708" lon="8.674093">
<ele>296.0</ele>
<speed>3.5</speed>
<course>103.5</course>
<desc>Speed 3.5 km/h Distance 0.88 km</desc>
<time>2010-03-14T10:36:12.01</time>
<name>673</name>
</trkpt>
<trkpt lat="48.934703" lon="8.674125">
<ele>296.0</ele>
<speed>4.6</speed>
<course>106.2</course>
<desc>Speed 4.6 km/h Distance 0.89 km</desc>
<time>2010-03-14T10:36:13.01</time>
<name>674</name>
</trkpt>
<trkpt lat="48.934697" lon="8.674160">
<ele>296.0</ele>
<speed>3.7</speed>
<course>90.0</course>
<desc>Speed 3.7 km/h Distance 0.89 km</desc>
<time>2010-03-14T10:36:14.00</time>
<name>675</name>
</trkpt>
<trkpt lat="48.934697" lon="8.674172">
<ele>296.0</ele>
<speed>2.9</speed>
<course>106.9</course>
<desc>Speed 2.9 km/h Distance 0.89 km</desc>
<time>2010-03-14T10:36:15.00</time>
<name>676</name>
</trkpt>
<trkpt lat="48.934693" lon="8.674188">
<ele>296.0</ele>
<speed>3.5</speed>
<course>104.4</course>
<desc>Speed 3.5 km/h Distance 0.89 km</desc>
<time>2010-03-14T10:36:16.00</time>
<name>677</name>
</trkpt>
<trkpt lat="48.934692" lon="8.674198">
<ele>296.0</ele>
<speed>2.9</speed>
<course>90.0</course>
<desc>Speed 2.9 km/h Distance 0.89 km</desc>
<time>2010-03-14T10:36:17.00</time>
<name>678</name>
</trkpt>
<trkpt lat="48.934692" lon="8.674208">
<ele>296.0</ele>
<speed>2.2</speed>
<course>90.0</course>
<desc>Speed 2.2 km/h Distance 0.89 km</desc>
<time>2010-03-14T10:36:18.00</time>
<name>679</name>
</trkpt>
<trkpt lat="48.934692" lon="8.674223">
<ele>296.0</ele>
<speed>3.3</speed>
<course>108.7</course>
<desc>Speed 3.3 km/h Distance 0.89 km</desc>
<time>2010-03-14T10:36:19.00</time>
<name>680</name>
</trkpt>
<trkpt lat="48.934688" lon="8.674238">
<ele>296.0</ele>
<speed>3.2</speed>
<course>97.9</course>
<desc>Speed 3.2 km/h Distance 0.90 km</desc>
<time>2010-03-14T10:36:20.00</time>
<name>681</name>
</trkpt>
<trkpt lat="48.934687" lon="8.674257">
<ele>296.0</ele>
<speed>3.9</speed>
<course>90.0</course>
<desc>Speed 3.9 km/h Distance 0.90 km</desc>
<time>2010-03-14T10:36:21.00</time>
<name>682</name>
</trkpt>
<trkpt lat="48.934687" lon="8.674278">
<ele>296.0</ele>
<speed>3.2</speed>
<course>95.8</course>
<desc>Speed 3.2 km/h Distance 0.90 km</desc>
<time>2010-03-14T10:36:22.00</time>
<name>683</name>
</trkpt>
<trkpt lat="48.934685" lon="8.674303">
<ele>296.0</ele>
<speed>3.0</speed>
<course>106.9</course>
<desc>Speed 3.0 km/h Distance 0.90 km</desc>
<time>2010-03-14T10:36:23.00</time>
<name>684</name>
</trkpt>
<trkpt lat="48.934682" lon="8.674320">
<ele>296.0</ele>
<speed>4.2</speed>
<course>106.9</course>
<desc>Speed 4.2 km/h Distance 0.90 km</desc>
<time>2010-03-14T10:36:24.00</time>
<name>685</name>
</trkpt>
<trkpt lat="48.934678" lon="8.674337">
<ele>296.0</ele>
<speed>4.2</speed>
<course>90.0</course>
<desc>Speed 4.2 km/h Distance 0.90 km</desc>
<time>2010-03-14T10:36:25.00</time>
<name>686</name>
</trkpt>
<trkpt lat="48.934678" lon="8.674355">
<ele>296.0</ele>
<speed>2.5</speed>
<course>101.5</course>
<desc>Speed 2.5 km/h Distance 0.90 km</desc>
<time>2010-03-14T10:36:26.00</time>
<name>687</name>
</trkpt>
<trkpt lat="48.934675" lon="8.674380">
<ele>296.0</ele>
<speed>2.8</speed>
<course>100.2</course>
<desc>Speed 2.8 km/h Distance 0.91 km</desc>
<time>2010-03-14T10:36:27.00</time>
<name>688</name>
</trkpt>
<trkpt lat="48.934672" lon="8.674408">
<ele>296.0</ele>
<speed>2.8</speed>
<course>97.9</course>
<desc>Speed 2.8 km/h Distance 0.91 km</desc>
<time>2010-03-14T10:36:28.00</time>
<name>689</name>
</trkpt>
<trkpt lat="48.934668" lon="8.674445">
<ele>296.0</ele>
<speed>3.3</speed>
<course>75.8</course>
<desc>Speed 3.3 km/h Distance 0.91 km</desc>
<time>2010-03-14T10:36:29.00</time>
<name>690</name>
</trkpt>
<trkpt lat="48.934670" lon="8.674455">
<ele>296.0</ele>
<speed>1.4</speed>
<course>90.0</course>
<desc>Speed 1.4 km/h Distance 0.91 km</desc>
<time>2010-03-14T10:36:30.00</time>
<name>691</name>
</trkpt>
<trkpt lat="48.934670" lon="8.674465">
<ele>296.0</ele>
<speed>2.5</speed>
<course>98.7</course>
<desc>Speed 2.5 km/h Distance 0.91 km</desc>
<time>2010-03-14T10:36:31.00</time>
<name>692</name>
</trkpt>
<trkpt lat="48.934668" lon="8.674482">
<ele>296.0</ele>
<speed>3.7</speed>
<course>106.9</course>
<desc>Speed 3.7 km/h Distance 0.91 km</desc>
<time>2010-03-14T10:36:32.00</time>
<name>693</name>
</trkpt>
<trkpt lat="48.934665" lon="8.674498">
<ele>296.0</ele>
<speed>3.2</speed>
<course>99.6</course>
<desc>Speed 3.2 km/h Distance 0.91 km</desc>
<time>2010-03-14T10:36:33.00</time>
<name>694</name>
</trkpt>
<trkpt lat="48.934663" lon="8.674513">
<ele>296.0</ele>
<speed>1.7</speed>
<course>104.2</course>
<desc>Speed 1.7 km/h Distance 0.92 km</desc>
<time>2010-03-14T10:36:34.00</time>
<name>695</name>
</trkpt>
<trkpt lat="48.934660" lon="8.674533">
<ele>296.0</ele>
<speed>2.4</speed>
<course>117.4</course>
<desc>Speed 2.4 km/h Distance 0.92 km</desc>
<time>2010-03-14T10:36:34.99</time>
<name>696</name>
</trkpt>
<trkpt lat="48.934658" lon="8.674538">
<ele>296.0</ele>
<speed>1.2</speed>
<course>110.9</course>
<desc>Speed 1.2 km/h Distance 0.92 km</desc>
<time>2010-03-14T10:36:35.99</time>
<name>697</name>
</trkpt>
<trkpt lat="48.934655" lon="8.674552">
<ele>296.0</ele>
<speed>2.7</speed>
<course>113.5</course>
<desc>Speed 2.7 km/h Distance 0.92 km</desc>
<time>2010-03-14T10:36:36.99</time>
<name>698</name>
</trkpt>
<trkpt lat="48.934652" lon="8.674563">
<ele>296.0</ele>
<speed>2.1</speed>
<course>105.4</course>
<desc>Speed 2.1 km/h Distance 0.92 km</desc>
<time>2010-03-14T10:36:37.99</time>
<name>699</name>
</trkpt>
<trkpt lat="48.934648" lon="8.674582">
<ele>296.0</ele>
<speed>3.0</speed>
<course>106.9</course>
<desc>Speed 3.0 km/h Distance 0.92 km</desc>
<time>2010-03-14T10:36:38.99</time>
<name>700</name>
</trkpt>
<trkpt lat="48.934645" lon="8.674598">
<ele>296.0</ele>
<speed>1.3</speed>
<course>113.5</course>
<desc>Speed 1.3 km/h Distance 0.92 km</desc>
<time>2010-03-14T10:36:39.99</time>
<name>701</name>
</trkpt>
<trkpt lat="48.934638" lon="8.674622">
<ele>296.0</ele>
<speed>3.1</speed>
<course>116.9</course>
<desc>Speed 3.1 km/h Distance 0.92 km</desc>
<time>2010-03-14T10:36:40.99</time>
<name>702</name>
</trkpt>
<trkpt lat="48.934632" lon="8.674642">
<ele>296.0</ele>
<speed>1.9</speed>
<course>124.0</course>
<desc>Speed 1.9 km/h Distance 0.93 km</desc>
<time>2010-03-14T10:36:41.99</time>
<name>703</name>
</trkpt>
<trkpt lat="48.934625" lon="8.674657">
<ele>296.0</ele>
<speed>2.5</speed>
<course>127.3</course>
<desc>Speed 2.5 km/h Distance 0.93 km</desc>
<time>2010-03-14T10:36:42.99</time>
<name>704</name>
</trkpt>
<trkpt lat="48.934615" lon="8.674677">
<ele>296.0</ele>
<speed>3.2</speed>
<course>130.3</course>
<desc>Speed 3.2 km/h Distance 0.93 km</desc>
<time>2010-03-14T10:36:43.99</time>
<name>705</name>
</trkpt>
<trkpt lat="48.934607" lon="8.674692">
<ele>296.0</ele>
<speed>4.3</speed>
<course>132.4</course>
<desc>Speed 4.3 km/h Distance 0.93 km</desc>
<time>2010-03-14T10:36:44.99</time>
<name>706</name>
</trkpt>
<trkpt lat="48.934597" lon="8.674708">
<ele>296.0</ele>
<speed>3.5</speed>
<course>122.4</course>
<desc>Speed 3.5 km/h Distance 0.93 km</desc>
<time>2010-03-14T10:36:45.99</time>
<name>707</name>
</trkpt>
<trkpt lat="48.934588" lon="8.674728">
<ele>296.0</ele>
<speed>4.1</speed>
<course>120.4</course>
<desc>Speed 4.1 km/h Distance 0.93 km</desc>
<time>2010-03-14T10:36:46.99</time>
<name>708</name>
</trkpt>
<trkpt lat="48.934580" lon="8.674750">
<ele>296.0</ele>
<speed>3.3</speed>
<course>121.3</course>
<desc>Speed 3.3 km/h Distance 0.94 km</desc>
<time>2010-03-14T10:36:47.99</time>
<name>709</name>
</trkpt>
<trkpt lat="48.934570" lon="8.674775">
<ele>296.0</ele>
<speed>3.6</speed>
<course>151.1</course>
<desc>Speed 3.6 km/h Distance 0.94 km</desc>
<time>2010-03-14T10:36:48.99</time>
<name>710</name>
</trkpt>
<trkpt lat="48.934560" lon="8.674783">
<ele>296.0</ele>
<speed>3.5</speed>
<course>156.2</course>
<desc>Speed 3.5 km/h Distance 0.94 km</desc>
<time>2010-03-14T10:36:49.99</time>
<name>711</name>
</trkpt>
<trkpt lat="48.934550" lon="8.674790">
<ele>296.0</ele>
<speed>3.3</speed>
<course>156.2</course>
<desc>Speed 3.3 km/h Distance 0.94 km</desc>
<time>2010-03-14T10:36:50.99</time>
<name>712</name>
</trkpt>
<trkpt lat="48.934540" lon="8.674797">
<ele>296.0</ele>
<speed>3.7</speed>
<course>142.5</course>
<desc>Speed 3.7 km/h Distance 0.94 km</desc>
<time>2010-03-14T10:36:51.99</time>
<name>713</name>
</trkpt>
<trkpt lat="48.934530" lon="8.674808">
<ele>296.0</ele>
<speed>4.1</speed>
<course>146.6</course>
<desc>Speed 4.1 km/h Distance 0.94 km</desc>
<time>2010-03-14T10:36:52.99</time>
<name>714</name>
</trkpt>
<trkpt lat="48.934518" lon="8.674820">
<ele>296.0</ele>
<speed>5.2</speed>
<course>139.8</course>
<desc>Speed 5.2 km/h Distance 0.94 km</desc>
<time>2010-03-14T10:36:53.99</time>
<name>715</name>
</trkpt>
<trkpt lat="48.934507" lon="8.674835">
<ele>296.0</ele>
<speed>4.9</speed>
<course>134.1</course>
<desc>Speed 4.9 km/h Distance 0.95 km</desc>
<time>2010-03-14T10:36:54.98</time>
<name>716</name>
</trkpt>
<trkpt lat="48.934495" lon="8.674853">
<ele>296.0</ele>
<speed>4.2</speed>
<course>136.9</course>
<desc>Speed 4.2 km/h Distance 0.95 km</desc>
<time>2010-03-14T10:36:55.98</time>
<name>717</name>
</trkpt>
<trkpt lat="48.934483" lon="8.674870">
<ele>296.0</ele>
<speed>2.7</speed>
<course>151.4</course>
<desc>Speed 2.7 km/h Distance 0.95 km</desc>
<time>2010-03-14T10:36:56.98</time>
<name>718</name>
</trkpt>
<trkpt lat="48.934473" lon="8.674878">
<ele>296.0</ele>
<speed>3.2</speed>
<course>141.9</course>
<desc>Speed 3.2 km/h Distance 0.95 km</desc>
<time>2010-03-14T10:36:57.98</time>
<name>719</name>
</trkpt>
<trkpt lat="48.934465" lon="8.674888">
<ele>296.0</ele>
<speed>3.6</speed>
<course>138.6</course>
<desc>Speed 3.6 km/h Distance 0.95 km</desc>
<time>2010-03-14T10:36:58.98</time>
<name>720</name>
</trkpt>
<trkpt lat="48.934455" lon="8.674902">
<ele>296.0</ele>
<speed>4.2</speed>
<course>137.4</course>
<desc>Speed 4.2 km/h Distance 0.95 km</desc>
<time>2010-03-14T10:36:59.99</time>
<name>721</name>
</trkpt>
<trkpt lat="48.934447" lon="8.674913">
<ele>296.0</ele>
<speed>3.7</speed>
<course>135.3</course>
<desc>Speed 3.7 km/h Distance 0.96 km</desc>
<time>2010-03-14T10:37:00.99</time>
<name>722</name>
</trkpt>
<trkpt lat="48.934437" lon="8.674928">
<ele>296.0</ele>
<speed>3.6</speed>
<course>131.6</course>
<desc>Speed 3.6 km/h Distance 0.96 km</desc>
<time>2010-03-14T10:37:01.98</time>
<name>723</name>
</trkpt>
<trkpt lat="48.934425" lon="8.674948">
<ele>296.0</ele>
<speed>4.0</speed>
<course>127.2</course>
<desc>Speed 4.0 km/h Distance 0.96 km</desc>
<time>2010-03-14T10:37:02.98</time>
<name>724</name>
</trkpt>
<trkpt lat="48.934413" lon="8.674972">
<ele>296.0</ele>
<speed>3.6</speed>
<course>124.1</course>
<desc>Speed 3.6 km/h Distance 0.96 km</desc>
<time>2010-03-14T10:37:03.98</time>
<name>725</name>
</trkpt>
<trkpt lat="48.934400" lon="8.675002">
<ele>296.0</ele>
<speed>5.1</speed>
<course>116.0</course>
<desc>Speed 5.1 km/h Distance 0.96 km</desc>
<time>2010-03-14T10:37:04.98</time>
<name>726</name>
</trkpt>
<trkpt lat="48.934373" lon="8.675085">
<ele>296.0</ele>
<speed>4.9</speed>
<course>115.6</course>
<desc>Speed 4.9 km/h Distance 0.97 km</desc>
<time>2010-03-14T10:37:06.98</time>
<name>727</name>
</trkpt>
<trkpt lat="48.934345" lon="8.675175">
<ele>296.0</ele>
<speed>4.7</speed>
<course>120.3</course>
<desc>Speed 4.7 km/h Distance 0.98 km</desc>
<time>2010-03-14T10:37:08.98</time>
<name>728</name>
</trkpt>
<trkpt lat="48.934307" lon="8.675275">
<ele>296.0</ele>
<speed>5.4</speed>
<course>127.3</course>
<desc>Speed 5.4 km/h Distance 0.99 km</desc>
<time>2010-03-14T10:37:10.98</time>
<name>729</name>
</trkpt>
<trkpt lat="48.934295" lon="8.675298">
<ele>296.0</ele>
<speed>5.3</speed>
<course>132.4</course>
<desc>Speed 5.3 km/h Distance 0.99 km</desc>
<time>2010-03-14T10:37:11.97</time>
<name>730</name>
</trkpt>
<trkpt lat="48.934285" lon="8.675315">
<ele>296.0</ele>
<speed>3.7</speed>
<course>136.5</course>
<desc>Speed 3.7 km/h Distance 0.99 km</desc>
<time>2010-03-14T10:37:12.97</time>
<name>731</name>
</trkpt>
<trkpt lat="48.934282" lon="8.675320">
<ele>296.0</ele>
<speed>0.3</speed>
<course>110.9</course>
<desc>Speed 0.3 km/h Distance 0.99 km</desc>
<time>2010-03-14T10:37:14.97</time>
<name>732</name>
</trkpt>
<trkpt lat="48.934280" lon="8.675327">
<ele>296.0</ele>
<speed>0.4</speed>
<course>110.9</course>
<desc>Speed 0.4 km/h Distance 0.99 km</desc>
<time>2010-03-14T10:37:15.97</time>
<name>733</name>
</trkpt>
<trkpt lat="48.934278" lon="8.675333">
<ele>296.0</ele>
<speed>0.1</speed>
<course>113.5</course>
<desc>Speed 0.1 km/h Distance 0.99 km</desc>
<time>2010-03-14T10:37:16.97</time>
<name>734</name>
</trkpt>
<trkpt lat="48.934275" lon="8.675345">
<ele>296.0</ele>
<speed>0.6</speed>
<course>113.5</course>
<desc>Speed 0.6 km/h Distance 0.99 km</desc>
<time>2010-03-14T10:37:17.97</time>
<name>735</name>
</trkpt>
<trkpt lat="48.934272" lon="8.675357">
<ele>296.0</ele>
<speed>0.3</speed>
<course>113.5</course>
<desc>Speed 0.3 km/h Distance 0.99 km</desc>
<time>2010-03-14T10:37:18.97</time>
<name>736</name>
</trkpt>
<trkpt lat="48.934268" lon="8.675368">
<ele>296.0</ele>
<speed>0.0</speed>
<course>90.0</course>
<desc>Speed 0.0 km/h Distance 0.99 km</desc>
<time>2010-03-14T10:37:19.97</time>
<name>737</name>
</trkpt>
<trkpt lat="48.934268" lon="8.675370">
<ele>296.0</ele>
<speed>0.1</speed>
<course>117.4</course>
<desc>Speed 0.1 km/h Distance 0.99 km</desc>
<time>2010-03-14T10:37:20.97</time>
<name>738</name>
</trkpt>
<trkpt lat="48.934267" lon="8.675375">
<ele>296.0</ele>
<speed>0.5</speed>
<course>90.0</course>
<desc>Speed 0.5 km/h Distance 0.99 km</desc>
<time>2010-03-14T10:37:21.97</time>
<name>739</name>
</trkpt>
<trkpt lat="48.934267" lon="8.675385">
<ele>296.0</ele>
<speed>2.3</speed>
<course>116.9</course>
<desc>Speed 2.3 km/h Distance 1.00 km</desc>
<time>2010-03-14T10:37:22.97</time>
<name>740</name>
</trkpt>
<trkpt lat="48.934262" lon="8.675400">
<ele>296.0</ele>
<speed>3.5</speed>
<course>129.6</course>
<desc>Speed 3.5 km/h Distance 1.00 km</desc>
<time>2010-03-14T10:37:23.97</time>
<name>741</name>
</trkpt>
<trkpt lat="48.934252" lon="8.675418">
<ele>296.0</ele>
<speed>3.9</speed>
<course>113.5</course>
<desc>Speed 3.9 km/h Distance 1.00 km</desc>
<time>2010-03-14T10:37:24.97</time>
<name>742</name>
</trkpt>
<trkpt lat="48.934245" lon="8.675442">
<ele>296.0</ele>
<speed>4.6</speed>
<course>121.3</course>
<desc>Speed 4.6 km/h Distance 1.00 km</desc>
<time>2010-03-14T10:37:25.97</time>
<name>743</name>
</trkpt>
<trkpt lat="48.934235" lon="8.675467">
<ele>296.0</ele>
<speed>5.1</speed>
<course>146.8</course>
<desc>Speed 5.1 km/h Distance 1.00 km</desc>
<time>2010-03-14T10:37:26.97</time>
<name>744</name>
</trkpt>
<trkpt lat="48.934225" lon="8.675477">
<ele>296.0</ele>
<speed>5.0</speed>
<course>143.5</course>
<desc>Speed 5.0 km/h Distance 1.00 km</desc>
<time>2010-03-14T10:37:27.97</time>
<name>745</name>
</trkpt>
<trkpt lat="48.934212" lon="8.675492">
<ele>296.0</ele>
<speed>5.2</speed>
<course>135.5</course>
<desc>Speed 5.2 km/h Distance 1.01 km</desc>
<time>2010-03-14T10:37:28.97</time>
<name>746</name>
</trkpt>
<trkpt lat="48.934198" lon="8.675512">
<ele>296.0</ele>
<speed>5.3</speed>
<course>141.2</course>
<desc>Speed 5.3 km/h Distance 1.01 km</desc>
<time>2010-03-14T10:37:29.97</time>
<name>747</name>
</trkpt>
<trkpt lat="48.934183" lon="8.675530">
<ele>296.0</ele>
<speed>5.2</speed>
<course>127.2</course>
<desc>Speed 5.2 km/h Distance 1.01 km</desc>
<time>2010-03-14T10:37:30.97</time>
<name>748</name>
</trkpt>
<trkpt lat="48.934172" lon="8.675553">
<ele>296.0</ele>
<speed>5.1</speed>
<course>123.7</course>
<desc>Speed 5.1 km/h Distance 1.01 km</desc>
<time>2010-03-14T10:37:31.97</time>
<name>749</name>
</trkpt>
<trkpt lat="48.934160" lon="8.675580">
<ele>296.0</ele>
<speed>5.1</speed>
<course>124.1</course>
<desc>Speed 5.1 km/h Distance 1.01 km</desc>
<time>2010-03-14T10:37:32.96</time>
<name>750</name>
</trkpt>
<trkpt lat="48.934147" lon="8.675610">
<ele>296.0</ele>
<speed>5.2</speed>
<course>143.4</course>
<desc>Speed 5.2 km/h Distance 1.02 km</desc>
<time>2010-03-14T10:37:33.96</time>
<name>751</name>
</trkpt>
<trkpt lat="48.934133" lon="8.675625">
<ele>296.0</ele>
<speed>5.5</speed>
<course>154.8</course>
<desc>Speed 5.5 km/h Distance 1.02 km</desc>
<time>2010-03-14T10:37:34.96</time>
<name>752</name>
</trkpt>
<trkpt lat="48.934122" lon="8.675633">
<ele>296.0</ele>
<speed>5.3</speed>
<course>154.0</course>
<desc>Speed 5.3 km/h Distance 1.02 km</desc>
<time>2010-03-14T10:37:35.96</time>
<name>753</name>
</trkpt>
<trkpt lat="48.934108" lon="8.675643">
<ele>296.0</ele>
<speed>4.5</speed>
<course>150.2</course>
<desc>Speed 4.5 km/h Distance 1.02 km</desc>
<time>2010-03-14T10:37:36.96</time>
<name>754</name>
</trkpt>
<trkpt lat="48.934095" lon="8.675655">
<ele>296.0</ele>
<speed>4.9</speed>
<course>146.6</course>
<desc>Speed 4.9 km/h Distance 1.02 km</desc>
<time>2010-03-14T10:37:37.96</time>
<name>755</name>
</trkpt>
<trkpt lat="48.934082" lon="8.675668">
<ele>296.0</ele>
<speed>5.0</speed>
<course>140.6</course>
<desc>Speed 5.0 km/h Distance 1.03 km</desc>
<time>2010-03-14T10:37:38.96</time>
<name>756</name>
</trkpt>
<trkpt lat="48.934068" lon="8.675685">
<ele>296.0</ele>
<speed>5.3</speed>
<course>135.5</course>
<desc>Speed 5.3 km/h Distance 1.03 km</desc>
<time>2010-03-14T10:37:39.96</time>
<name>757</name>
</trkpt>
<trkpt lat="48.934055" lon="8.675705">
<ele>296.0</ele>
<speed>4.9</speed>
<course>116.9</course>
<desc>Speed 4.9 km/h Distance 1.03 km</desc>
<time>2010-03-14T10:37:40.96</time>
<name>758</name>
</trkpt>
<trkpt lat="48.934047" lon="8.675730">
<ele>296.0</ele>
<speed>4.9</speed>
<course>119.7</course>
<desc>Speed 4.9 km/h Distance 1.03 km</desc>
<time>2010-03-14T10:37:41.96</time>
<name>759</name>
</trkpt>
<trkpt lat="48.934037" lon="8.675757">
<ele>296.0</ele>
<speed>4.7</speed>
<course>123.7</course>
<desc>Speed 4.7 km/h Distance 1.03 km</desc>
<time>2010-03-14T10:37:42.96</time>
<name>760</name>
</trkpt>
<trkpt lat="48.934025" lon="8.675783">
<ele>296.0</ele>
<speed>4.4</speed>
<course>130.2</course>
<desc>Speed 4.4 km/h Distance 1.04 km</desc>
<time>2010-03-14T10:37:43.96</time>
<name>761</name>
</trkpt>
<trkpt lat="48.934017" lon="8.675798">
<ele>296.0</ele>
<speed>4.2</speed>
<course>156.2</course>
<desc>Speed 4.2 km/h Distance 1.04 km</desc>
<time>2010-03-14T10:37:44.96</time>
<name>762</name>
</trkpt>
<trkpt lat="48.934007" lon="8.675805">
<ele>296.0</ele>
<speed>3.9</speed>
<course>150.6</course>
<desc>Speed 3.9 km/h Distance 1.04 km</desc>
<time>2010-03-14T10:37:45.96</time>
<name>763</name>
</trkpt>
<trkpt lat="48.933995" lon="8.675815">
<ele>296.0</ele>
<speed>5.0</speed>
<course>138.8</course>
<desc>Speed 5.0 km/h Distance 1.04 km</desc>
<time>2010-03-14T10:37:46.96</time>
<name>764</name>
</trkpt>
<trkpt lat="48.933985" lon="8.675828">
<ele>296.0</ele>
<speed>5.1</speed>
<course>134.1</course>
<desc>Speed 5.1 km/h Distance 1.04 km</desc>
<time>2010-03-14T10:37:47.96</time>
<name>765</name>
</trkpt>
<trkpt lat="48.933973" lon="8.675847">
<ele>296.0</ele>
<speed>4.8</speed>
<course>131.6</course>
<desc>Speed 4.8 km/h Distance 1.04 km</desc>
<time>2010-03-14T10:37:48.96</time>
<name>766</name>
</trkpt>
<trkpt lat="48.933962" lon="8.675867">
<ele>296.0</ele>
<speed>5.0</speed>
<course>127.3</course>
<desc>Speed 5.0 km/h Distance 1.05 km</desc>
<time>2010-03-14T10:37:49.96</time>
<name>767</name>
</trkpt>
<trkpt lat="48.933952" lon="8.675887">
<ele>296.0</ele>
<speed>4.8</speed>
<course>150.6</course>
<desc>Speed 4.8 km/h Distance 1.05 km</desc>
<time>2010-03-14T10:37:50.96</time>
<name>768</name>
</trkpt>
<trkpt lat="48.933940" lon="8.675897">
<ele>296.0</ele>
<speed>5.2</speed>
<course>146.6</course>
<desc>Speed 5.2 km/h Distance 1.05 km</desc>
<time>2010-03-14T10:37:51.96</time>
<name>769</name>
</trkpt>
<trkpt lat="48.933930" lon="8.675907">
<ele>296.0</ele>
<speed>4.7</speed>
<course>151.4</course>
<desc>Speed 4.7 km/h Distance 1.05 km</desc>
<time>2010-03-14T10:37:52.95</time>
<name>770</name>
</trkpt>
<trkpt lat="48.933920" lon="8.675915">
<ele>296.0</ele>
<speed>4.1</speed>
<course>142.7</course>
<desc>Speed 4.1 km/h Distance 1.05 km</desc>
<time>2010-03-14T10:37:53.95</time>
<name>771</name>
</trkpt>
<trkpt lat="48.933910" lon="8.675927">
<ele>296.0</ele>
<speed>4.7</speed>
<course>135.4</course>
<desc>Speed 4.7 km/h Distance 1.05 km</desc>
<time>2010-03-14T10:37:54.95</time>
<name>772</name>
</trkpt>
<trkpt lat="48.933897" lon="8.675947">
<ele>296.0</ele>
<speed>5.1</speed>
<course>142.5</course>
<desc>Speed 5.1 km/h Distance 1.05 km</desc>
<time>2010-03-14T10:37:55.95</time>
<name>773</name>
</trkpt>
<trkpt lat="48.933887" lon="8.675958">
<ele>296.0</ele>
<speed>4.7</speed>
<course>138.6</course>
<desc>Speed 4.7 km/h Distance 1.06 km</desc>
<time>2010-03-14T10:37:56.95</time>
<name>774</name>
</trkpt>
<trkpt lat="48.933877" lon="8.675972">
<ele>296.0</ele>
<speed>5.0</speed>
<course>142.5</course>
<desc>Speed 5.0 km/h Distance 1.06 km</desc>
<time>2010-03-14T10:37:57.95</time>
<name>775</name>
</trkpt>
<trkpt lat="48.933867" lon="8.675983">
<ele>296.0</ele>
<speed>4.2</speed>
<course>139.7</course>
<desc>Speed 4.2 km/h Distance 1.06 km</desc>
<time>2010-03-14T10:37:58.95</time>
<name>776</name>
</trkpt>
<trkpt lat="48.933855" lon="8.675998">
<ele>296.0</ele>
<speed>4.9</speed>
<course>132.4</course>
<desc>Speed 4.9 km/h Distance 1.06 km</desc>
<time>2010-03-14T10:37:59.95</time>
<name>777</name>
</trkpt>
<trkpt lat="48.933845" lon="8.676015">
<ele>296.0</ele>
<speed>5.0</speed>
<course>137.4</course>
<desc>Speed 5.0 km/h Distance 1.06 km</desc>
<time>2010-03-14T10:38:00.96</time>
<name>778</name>
</trkpt>
<trkpt lat="48.933837" lon="8.676027">
<ele>296.0</ele>
<speed>4.2</speed>
<course>143.1</course>
<desc>Speed 4.2 km/h Distance 1.06 km</desc>
<time>2010-03-14T10:38:01.95</time>
<name>779</name>
</trkpt>
<trkpt lat="48.933825" lon="8.676040">
<ele>296.0</ele>
<speed>5.2</speed>
<course>135.5</course>
<desc>Speed 5.2 km/h Distance 1.07 km</desc>
<time>2010-03-14T10:38:02.95</time>
<name>780</name>
</trkpt>
<trkpt lat="48.933815" lon="8.676055">
<ele>296.0</ele>
<speed>4.7</speed>
<course>135.4</course>
<desc>Speed 4.7 km/h Distance 1.07 km</desc>
<time>2010-03-14T10:38:03.95</time>
<name>781</name>
</trkpt>
<trkpt lat="48.933805" lon="8.676070">
<ele>296.0</ele>
<speed>4.5</speed>
<course>127.2</course>
<desc>Speed 4.5 km/h Distance 1.07 km</desc>
<time>2010-03-14T10:38:04.95</time>
<name>782</name>
</trkpt>
<trkpt lat="48.933795" lon="8.676090">
<ele>296.0</ele>
<speed>5.0</speed>
<course>146.6</course>
<desc>Speed 5.0 km/h Distance 1.07 km</desc>
<time>2010-03-14T10:38:05.95</time>
<name>783</name>
</trkpt>
<trkpt lat="48.933783" lon="8.676102">
<ele>296.0</ele>
<speed>5.0</speed>
<course>139.8</course>
<desc>Speed 5.0 km/h Distance 1.07 km</desc>
<time>2010-03-14T10:38:06.95</time>
<name>784</name>
</trkpt>
<trkpt lat="48.933772" lon="8.676117">
<ele>296.0</ele>
<speed>5.3</speed>
<course>135.5</course>
<desc>Speed 5.3 km/h Distance 1.07 km</desc>
<time>2010-03-14T10:38:07.95</time>
<name>785</name>
</trkpt>
<trkpt lat="48.933762" lon="8.676132">
<ele>296.0</ele>
<speed>4.9</speed>
<course>156.2</course>
<desc>Speed 4.9 km/h Distance 1.08 km</desc>
<time>2010-03-14T10:38:08.95</time>
<name>786</name>
</trkpt>
<trkpt lat="48.933752" lon="8.676138">
<ele>296.0</ele>
<speed>4.8</speed>
<course>154.8</course>
<desc>Speed 4.8 km/h Distance 1.08 km</desc>
<time>2010-03-14T10:38:09.95</time>
<name>787</name>
</trkpt>
<trkpt lat="48.933740" lon="8.676147">
<ele>296.0</ele>
<speed>5.3</speed>
<course>142.5</course>
<desc>Speed 5.3 km/h Distance 1.08 km</desc>
<time>2010-03-14T10:38:10.95</time>
<name>788</name>
</trkpt>
<trkpt lat="48.933730" lon="8.676158">
<ele>296.0</ele>
<speed>5.0</speed>
<course>134.1</course>
<desc>Speed 5.0 km/h Distance 1.08 km</desc>
<time>2010-03-14T10:38:11.94</time>
<name>789</name>
</trkpt>
<trkpt lat="48.933718" lon="8.676177">
<ele>296.0</ele>
<speed>5.5</speed>
<course>137.9</course>
<desc>Speed 5.5 km/h Distance 1.08 km</desc>
<time>2010-03-14T10:38:12.94</time>
<name>790</name>
</trkpt>
<trkpt lat="48.933705" lon="8.676195">
<ele>296.0</ele>
<speed>5.7</speed>
<course>146.7</course>
<desc>Speed 5.7 km/h Distance 1.08 km</desc>
<time>2010-03-14T10:38:13.94</time>
<name>791</name>
</trkpt>
<trkpt lat="48.933693" lon="8.676207">
<ele>296.0</ele>
<speed>4.8</speed>
<course>142.5</course>
<desc>Speed 4.8 km/h Distance 1.08 km</desc>
<time>2010-03-14T10:38:14.94</time>
<name>792</name>
</trkpt>
<trkpt lat="48.933683" lon="8.676218">
<ele>296.0</ele>
<speed>4.8</speed>
<course>143.1</course>
<desc>Speed 4.8 km/h Distance 1.09 km</desc>
<time>2010-03-14T10:38:15.94</time>
<name>793</name>
</trkpt>
<trkpt lat="48.933672" lon="8.676232">
<ele>296.0</ele>
<speed>4.8</speed>
<course>139.8</course>
<desc>Speed 4.8 km/h Distance 1.09 km</desc>
<time>2010-03-14T10:38:16.94</time>
<name>794</name>
</trkpt>
<trkpt lat="48.933660" lon="8.676247">
<ele>296.0</ele>
<speed>5.3</speed>
<course>159.1</course>
<desc>Speed 5.3 km/h Distance 1.09 km</desc>
<time>2010-03-14T10:38:17.94</time>
<name>795</name>
</trkpt>
<trkpt lat="48.933648" lon="8.676253">
<ele>296.0</ele>
<speed>5.1</speed>
<course>154.8</course>
<desc>Speed 5.1 km/h Distance 1.09 km</desc>
<time>2010-03-14T10:38:18.94</time>
<name>796</name>
</trkpt>
<trkpt lat="48.933637" lon="8.676262">
<ele>296.5</ele>
<speed>5.2</speed>
<course>143.5</course>
<desc>Speed 5.2 km/h Distance 1.09 km</desc>
<time>2010-03-14T10:38:19.94</time>
<name>797</name>
</trkpt>
<trkpt lat="48.933623" lon="8.676277">
<ele>296.5</ele>
<speed>5.1</speed>
<course>143.6</course>
<desc>Speed 5.1 km/h Distance 1.09 km</desc>
<time>2010-03-14T10:38:20.94</time>
<name>798</name>
</trkpt>
<trkpt lat="48.933610" lon="8.676292">
<ele>296.5</ele>
<speed>5.0</speed>
<course>133.2</course>
<desc>Speed 5.0 km/h Distance 1.10 km</desc>
<time>2010-03-14T10:38:21.94</time>
<name>799</name>
</trkpt>
<trkpt lat="48.933597" lon="8.676313">
<ele>296.5</ele>
<speed>5.5</speed>
<course>127.3</course>
<desc>Speed 5.5 km/h Distance 1.10 km</desc>
<time>2010-03-14T10:38:22.94</time>
<name>800</name>
</trkpt>
<trkpt lat="48.933585" lon="8.676337">
<ele>296.5</ele>
<speed>5.0</speed>
<course>131.6</course>
<desc>Speed 5.0 km/h Distance 1.10 km</desc>
<time>2010-03-14T10:38:23.94</time>
<name>801</name>
</trkpt>
<trkpt lat="48.933573" lon="8.676357">
<ele>296.5</ele>
<speed>5.2</speed>
<course>150.2</course>
<desc>Speed 5.2 km/h Distance 1.10 km</desc>
<time>2010-03-14T10:38:24.94</time>
<name>802</name>
</trkpt>
<trkpt lat="48.933560" lon="8.676368">
<ele>296.5</ele>
<speed>5.1</speed>
<course>143.1</course>
<desc>Speed 5.1 km/h Distance 1.10 km</desc>
<time>2010-03-14T10:38:25.94</time>
<name>803</name>
</trkpt>
<trkpt lat="48.933548" lon="8.676382">
<ele>296.5</ele>
<speed>5.0</speed>
<course>134.1</course>
<desc>Speed 5.0 km/h Distance 1.11 km</desc>
<time>2010-03-14T10:38:26.94</time>
<name>804</name>
</trkpt>
<trkpt lat="48.933537" lon="8.676400">
<ele>296.5</ele>
<speed>5.3</speed>
<course>140.6</course>
<desc>Speed 5.3 km/h Distance 1.11 km</desc>
<time>2010-03-14T10:38:27.94</time>
<name>805</name>
</trkpt>
<trkpt lat="48.933523" lon="8.676417">
<ele>296.5</ele>
<speed>5.1</speed>
<course>143.4</course>
<desc>Speed 5.1 km/h Distance 1.11 km</desc>
<time>2010-03-14T10:38:28.94</time>
<name>806</name>
</trkpt>
<trkpt lat="48.933510" lon="8.676432">
<ele>296.5</ele>
<speed>5.3</speed>
<course>146.7</course>
<desc>Speed 5.3 km/h Distance 1.11 km</desc>
<time>2010-03-14T10:38:29.94</time>
<name>807</name>
</trkpt>
<trkpt lat="48.933498" lon="8.676443">
<ele>296.5</ele>
<speed>5.1</speed>
<course>136.8</course>
<desc>Speed 5.1 km/h Distance 1.11 km</desc>
<time>2010-03-14T10:38:30.94</time>
<name>808</name>
</trkpt>
<trkpt lat="48.933487" lon="8.676460">
<ele>296.5</ele>
<speed>5.1</speed>
<course>130.3</course>
<desc>Speed 5.1 km/h Distance 1.11 km</desc>
<time>2010-03-14T10:38:31.93</time>
<name>809</name>
</trkpt>
<trkpt lat="48.933478" lon="8.676475">
<ele>296.5</ele>
<speed>3.7</speed>
<course>127.3</course>
<desc>Speed 3.7 km/h Distance 1.12 km</desc>
<time>2010-03-14T10:38:32.93</time>
<name>810</name>
</trkpt>
<trkpt lat="48.933470" lon="8.676492">
<ele>296.5</ele>
<speed>3.3</speed>
<course>134.1</course>
<desc>Speed 3.3 km/h Distance 1.12 km</desc>
<time>2010-03-14T10:38:33.93</time>
<name>811</name>
</trkpt>
<trkpt lat="48.933458" lon="8.676510">
<ele>296.5</ele>
<speed>4.6</speed>
<course>153.8</course>
<desc>Speed 4.6 km/h Distance 1.12 km</desc>
<time>2010-03-14T10:38:34.93</time>
<name>812</name>
</trkpt>
<trkpt lat="48.933445" lon="8.676520">
<ele>296.5</ele>
<speed>5.5</speed>
<course>146.6</course>
<desc>Speed 5.5 km/h Distance 1.12 km</desc>
<time>2010-03-14T10:38:35.93</time>
<name>813</name>
</trkpt>
<trkpt lat="48.933432" lon="8.676533">
<ele>296.5</ele>
<speed>5.3</speed>
<course>139.7</course>
<desc>Speed 5.3 km/h Distance 1.12 km</desc>
<time>2010-03-14T10:38:36.93</time>
<name>814</name>
</trkpt>
<trkpt lat="48.933420" lon="8.676548">
<ele>296.5</ele>
<speed>5.1</speed>
<course>136.7</course>
<desc>Speed 5.1 km/h Distance 1.12 km</desc>
<time>2010-03-14T10:38:37.93</time>
<name>815</name>
</trkpt>
<trkpt lat="48.933408" lon="8.676565">
<ele>296.5</ele>
<speed>5.3</speed>
<course>146.8</course>
<desc>Speed 5.3 km/h Distance 1.13 km</desc>
<time>2010-03-14T10:38:38.93</time>
<name>816</name>
</trkpt>
<trkpt lat="48.933398" lon="8.676575">
<ele>296.5</ele>
<speed>4.9</speed>
<course>146.6</course>
<desc>Speed 4.9 km/h Distance 1.13 km</desc>
<time>2010-03-14T10:38:39.93</time>
<name>817</name>
</trkpt>
<trkpt lat="48.933387" lon="8.676587">
<ele>296.5</ele>
<speed>5.5</speed>
<course>157.4</course>
<desc>Speed 5.5 km/h Distance 1.13 km</desc>
<time>2010-03-14T10:38:40.93</time>
<name>818</name>
</trkpt>
<trkpt lat="48.933373" lon="8.676595">
<ele>296.5</ele>
<speed>5.8</speed>
<course>150.6</course>
<desc>Speed 5.8 km/h Distance 1.13 km</desc>
<time>2010-03-14T10:38:41.93</time>
<name>819</name>
</trkpt>
<trkpt lat="48.933362" lon="8.676605">
<ele>296.5</ele>
<speed>5.5</speed>
<course>146.6</course>
<desc>Speed 5.5 km/h Distance 1.13 km</desc>
<time>2010-03-14T10:38:42.93</time>
<name>820</name>
</trkpt>
<trkpt lat="48.933348" lon="8.676618">
<ele>296.5</ele>
<speed>5.1</speed>
<course>139.8</course>
<desc>Speed 5.1 km/h Distance 1.13 km</desc>
<time>2010-03-14T10:38:43.93</time>
<name>821</name>
</trkpt>
<trkpt lat="48.933337" lon="8.676633">
<ele>296.5</ele>
<speed>5.0</speed>
<course>143.5</course>
<desc>Speed 5.0 km/h Distance 1.14 km</desc>
<time>2010-03-14T10:38:44.93</time>
<name>822</name>
</trkpt>
<trkpt lat="48.933323" lon="8.676648">
<ele>296.5</ele>
<speed>5.5</speed>
<course>156.3</course>
<desc>Speed 5.5 km/h Distance 1.14 km</desc>
<time>2010-03-14T10:38:45.93</time>
<name>823</name>
</trkpt>
<trkpt lat="48.933308" lon="8.676658">
<ele>296.5</ele>
<speed>5.9</speed>
<course>150.0</course>
<desc>Speed 5.9 km/h Distance 1.14 km</desc>
<time>2010-03-14T10:38:46.93</time>
<name>824</name>
</trkpt>
<trkpt lat="48.933295" lon="8.676670">
<ele>296.5</ele>
<speed>5.4</speed>
<course>139.8</course>
<desc>Speed 5.4 km/h Distance 1.14 km</desc>
<time>2010-03-14T10:38:47.93</time>
<name>825</name>
</trkpt>
<trkpt lat="48.933283" lon="8.676685">
<ele>296.5</ele>
<speed>5.4</speed>
<course>143.4</course>
<desc>Speed 5.4 km/h Distance 1.14 km</desc>
<time>2010-03-14T10:38:48.93</time>
<name>826</name>
</trkpt>
<trkpt lat="48.933270" lon="8.676700">
<ele>296.5</ele>
<speed>5.5</speed>
<course>140.6</course>
<desc>Speed 5.5 km/h Distance 1.14 km</desc>
<time>2010-03-14T10:38:49.93</time>
<name>827</name>
</trkpt>
<trkpt lat="48.933257" lon="8.676717">
<ele>296.5</ele>
<speed>5.5</speed>
<course>137.9</course>
<desc>Speed 5.5 km/h Distance 1.15 km</desc>
<time>2010-03-14T10:38:50.93</time>
<name>828</name>
</trkpt>
<trkpt lat="48.933243" lon="8.676735">
<ele>297.0</ele>
<speed>5.1</speed>
<course>154.8</course>
<desc>Speed 5.1 km/h Distance 1.15 km</desc>
<time>2010-03-14T10:38:51.92</time>
<name>829</name>
</trkpt>
<trkpt lat="48.933232" lon="8.676743">
<ele>297.0</ele>
<speed>5.2</speed>
<course>153.6</course>
<desc>Speed 5.2 km/h Distance 1.15 km</desc>
<time>2010-03-14T10:38:52.92</time>
<name>830</name>
</trkpt>
<trkpt lat="48.933218" lon="8.676753">
<ele>297.0</ele>
<speed>5.6</speed>
<course>146.6</course>
<desc>Speed 5.6 km/h Distance 1.15 km</desc>
<time>2010-03-14T10:38:53.92</time>
<name>831</name>
</trkpt>
<trkpt lat="48.933207" lon="8.676765">
<ele>297.0</ele>
<speed>5.5</speed>
<course>146.6</course>
<desc>Speed 5.5 km/h Distance 1.15 km</desc>
<time>2010-03-14T10:38:54.92</time>
<name>832</name>
</trkpt>
<trkpt lat="48.933193" lon="8.676778">
<ele>297.0</ele>
<speed>5.6</speed>
<course>157.7</course>
<desc>Speed 5.6 km/h Distance 1.15 km</desc>
<time>2010-03-14T10:38:55.92</time>
<name>833</name>
</trkpt>
<trkpt lat="48.933180" lon="8.676787">
<ele>297.0</ele>
<speed>5.7</speed>
<course>153.6</course>
<desc>Speed 5.7 km/h Distance 1.16 km</desc>
<time>2010-03-14T10:38:56.92</time>
<name>834</name>
</trkpt>
<trkpt lat="48.933167" lon="8.676797">
<ele>297.0</ele>
<speed>5.4</speed>
<course>143.1</course>
<desc>Speed 5.4 km/h Distance 1.16 km</desc>
<time>2010-03-14T10:38:57.92</time>
<name>835</name>
</trkpt>
<trkpt lat="48.933155" lon="8.676810">
<ele>297.0</ele>
<speed>5.7</speed>
<course>143.5</course>
<desc>Speed 5.7 km/h Distance 1.16 km</desc>
<time>2010-03-14T10:38:58.92</time>
<name>836</name>
</trkpt>
<trkpt lat="48.933142" lon="8.676825">
<ele>297.0</ele>
<speed>5.6</speed>
<course>136.8</course>
<desc>Speed 5.6 km/h Distance 1.16 km</desc>
<time>2010-03-14T10:38:59.92</time>
<name>837</name>
</trkpt>
<trkpt lat="48.933130" lon="8.676842">
<ele>297.0</ele>
<speed>5.8</speed>
<course>140.6</course>
<desc>Speed 5.8 km/h Distance 1.16 km</desc>
<time>2010-03-14T10:39:00.93</time>
<name>838</name>
</trkpt>
<trkpt lat="48.933117" lon="8.676858">
<ele>297.0</ele>
<speed>5.7</speed>
<course>140.6</course>
<desc>Speed 5.7 km/h Distance 1.17 km</desc>
<time>2010-03-14T10:39:01.92</time>
<name>839</name>
</trkpt>
<trkpt lat="48.933103" lon="8.676875">
<ele>297.0</ele>
<speed>6.0</speed>
<course>159.1</course>
<desc>Speed 6.0 km/h Distance 1.17 km</desc>
<time>2010-03-14T10:39:02.92</time>
<name>840</name>
</trkpt>
<trkpt lat="48.933092" lon="8.676882">
<ele>297.0</ele>
<speed>5.8</speed>
<course>143.1</course>
<desc>Speed 5.8 km/h Distance 1.17 km</desc>
<time>2010-03-14T10:39:03.92</time>
<name>841</name>
</trkpt>
<trkpt lat="48.933080" lon="8.676895">
<ele>297.0</ele>
<speed>5.3</speed>
<course>146.6</course>
<desc>Speed 5.3 km/h Distance 1.17 km</desc>
<time>2010-03-14T10:39:04.92</time>
<name>842</name>
</trkpt>
<trkpt lat="48.933067" lon="8.676908">
<ele>297.0</ele>
<speed>5.5</speed>
<course>135.5</course>
<desc>Speed 5.5 km/h Distance 1.17 km</desc>
<time>2010-03-14T10:39:05.92</time>
<name>843</name>
</trkpt>
<trkpt lat="48.933057" lon="8.676923">
<ele>297.0</ele>
<speed>5.3</speed>
<course>156.2</course>
<desc>Speed 5.3 km/h Distance 1.17 km</desc>
<time>2010-03-14T10:39:06.92</time>
<name>844</name>
</trkpt>
<trkpt lat="48.933047" lon="8.676930">
<ele>297.0</ele>
<speed>4.6</speed>
<course>130.2</course>
<desc>Speed 4.6 km/h Distance 1.17 km</desc>
<time>2010-03-14T10:39:07.92</time>
<name>845</name>
</trkpt>
<trkpt lat="48.933038" lon="8.676945">
<ele>297.0</ele>
<speed>4.9</speed>
<course>124.1</course>
<desc>Speed 4.9 km/h Distance 1.18 km</desc>
<time>2010-03-14T10:39:08.92</time>
<name>846</name>
</trkpt>
<trkpt lat="48.933032" lon="8.676960">
<ele>297.0</ele>
<speed>5.1</speed>
<course>108.6</course>
<desc>Speed 5.1 km/h Distance 1.18 km</desc>
<time>2010-03-14T10:39:09.92</time>
<name>847</name>
</trkpt>
<trkpt lat="48.933028" lon="8.676975">
<ele>297.0</ele>
<speed>3.8</speed>
<course>90.0</course>
<desc>Speed 3.8 km/h Distance 1.18 km</desc>
<time>2010-03-14T10:39:10.92</time>
<name>848</name>
</trkpt>
<trkpt lat="48.933028" lon="8.676988">
<ele>297.5</ele>
<speed>3.6</speed>
<course>80.4</course>
<desc>Speed 3.6 km/h Distance 1.18 km</desc>
<time>2010-03-14T10:39:11.91</time>
<name>849</name>
</trkpt>
<trkpt lat="48.933030" lon="8.677003">
<ele>297.5</ele>
<speed>3.6</speed>
<course>52.4</course>
<desc>Speed 3.6 km/h Distance 1.18 km</desc>
<time>2010-03-14T10:39:12.91</time>
<name>850</name>
</trkpt>
<trkpt lat="48.933033" lon="8.677010">
<ele>297.5</ele>
<speed>2.8</speed>
<course>90.0</course>
<desc>Speed 2.8 km/h Distance 1.18 km</desc>
<time>2010-03-14T10:39:13.91</time>
<name>851</name>
</trkpt>
<trkpt lat="48.933033" lon="8.677025">
<ele>297.5</ele>
<speed>3.6</speed>
<course>75.6</course>
<desc>Speed 3.6 km/h Distance 1.18 km</desc>
<time>2010-03-14T10:39:14.91</time>
<name>852</name>
</trkpt>
<trkpt lat="48.933035" lon="8.677035">
<ele>297.5</ele>
<speed>2.6</speed>
<course>73.1</course>
<desc>Speed 2.6 km/h Distance 1.18 km</desc>
<time>2010-03-14T10:39:15.91</time>
<name>853</name>
</trkpt>
<trkpt lat="48.933038" lon="8.677052">
<ele>297.5</ele>
<speed>4.0</speed>
<course>82.1</course>
<desc>Speed 4.0 km/h Distance 1.18 km</desc>
<time>2010-03-14T10:39:16.91</time>
<name>854</name>
</trkpt>
<trkpt lat="48.933040" lon="8.677070">
<ele>297.5</ele>
<speed>4.1</speed>
<course>67.4</course>
<desc>Speed 4.1 km/h Distance 1.19 km</desc>
<time>2010-03-14T10:39:17.91</time>
<name>855</name>
</trkpt>
<trkpt lat="48.933045" lon="8.677088">
<ele>297.5</ele>
<speed>4.5</speed>
<course>67.5</course>
<desc>Speed 4.5 km/h Distance 1.19 km</desc>
<time>2010-03-14T10:39:18.91</time>
<name>856</name>
</trkpt>
<trkpt lat="48.933050" lon="8.677107">
<ele>297.5</ele>
<speed>4.0</speed>
<course>99.6</course>
<desc>Speed 4.0 km/h Distance 1.19 km</desc>
<time>2010-03-14T10:39:19.91</time>
<name>857</name>
</trkpt>
<trkpt lat="48.933047" lon="8.677137">
<ele>297.5</ele>
<speed>6.8</speed>
<course>105.5</course>
<desc>Speed 6.8 km/h Distance 1.19 km</desc>
<time>2010-03-14T10:39:20.91</time>
<name>858</name>
</trkpt>
<trkpt lat="48.933040" lon="8.677173">
<ele>297.5</ele>
<speed>8.9</speed>
<course>90.0</course>
<desc>Speed 8.9 km/h Distance 1.19 km</desc>
<time>2010-03-14T10:39:21.91</time>
<name>859</name>
</trkpt>
<trkpt lat="48.933040" lon="8.677195">
<ele>297.5</ele>
<speed>5.4</speed>
<course>82.1</course>
<desc>Speed 5.4 km/h Distance 1.20 km</desc>
<time>2010-03-14T10:39:22.91</time>
<name>860</name>
</trkpt>
<trkpt lat="48.933042" lon="8.677213">
<ele>297.5</ele>
<speed>3.9</speed>
<course>90.0</course>
<desc>Speed 3.9 km/h Distance 1.20 km</desc>
<time>2010-03-14T10:39:23.91</time>
<name>861</name>
</trkpt>
<trkpt lat="48.933042" lon="8.677232">
<ele>297.5</ele>
<speed>4.1</speed>
<course>56.0</course>
<desc>Speed 4.1 km/h Distance 1.20 km</desc>
<time>2010-03-14T10:39:24.91</time>
<name>862</name>
</trkpt>
<trkpt lat="48.933048" lon="8.677247">
<ele>297.5</ele>
<speed>3.3</speed>
<course>57.1</course>
<desc>Speed 3.3 km/h Distance 1.20 km</desc>
<time>2010-03-14T10:39:25.91</time>
<name>863</name>
</trkpt>
<trkpt lat="48.933053" lon="8.677258">
<ele>297.5</ele>
<speed>3.3</speed>
<course>37.5</course>
<desc>Speed 3.3 km/h Distance 1.20 km</desc>
<time>2010-03-14T10:39:26.91</time>
<name>864</name>
</trkpt>
<trkpt lat="48.933063" lon="8.677270">
<ele>298.0</ele>
<speed>3.4</speed>
<course>12.6</course>
<desc>Speed 3.4 km/h Distance 1.20 km</desc>
<time>2010-03-14T10:39:27.91</time>
<name>865</name>
</trkpt>
<trkpt lat="48.933073" lon="8.677273">
<ele>298.0</ele>
<speed>4.1</speed>
<course>0.0</course>
<desc>Speed 4.1 km/h Distance 1.20 km</desc>
<time>2010-03-14T10:39:28.91</time>
<name>866</name>
</trkpt>
<trkpt lat="48.933085" lon="8.677273">
<ele>298.0</ele>
<speed>4.0</speed>
<course>0.0</course>
<desc>Speed 4.0 km/h Distance 1.20 km</desc>
<time>2010-03-14T10:39:29.91</time>
<name>867</name>
</trkpt>
<trkpt lat="48.933093" lon="8.677273">
<ele>298.0</ele>
<speed>3.1</speed>
<course>344.0</course>
<desc>Speed 3.1 km/h Distance 1.21 km</desc>
<time>2010-03-14T10:39:30.90</time>
<name>868</name>
</trkpt>
<trkpt lat="48.933105" lon="8.677268">
<ele>298.0</ele>
<speed>4.0</speed>
<course>14.9</course>
<desc>Speed 4.0 km/h Distance 1.21 km</desc>
<time>2010-03-14T10:39:31.90</time>
<name>869</name>
</trkpt>
<trkpt lat="48.933113" lon="8.677272">
<ele>298.0</ele>
<speed>1.4</speed>
<course>12.6</course>
<desc>Speed 1.4 km/h Distance 1.21 km</desc>
<time>2010-03-14T10:39:32.90</time>
<name>870</name>
</trkpt>
<trkpt lat="48.933115" lon="8.677272">
<ele>298.0</ele>
<speed>1.2</speed>
<course>326.3</course>
<desc>Speed 1.2 km/h Distance 1.21 km</desc>
<time>2010-03-14T10:39:33.90</time>
<name>871</name>
</trkpt>
<trkpt lat="48.933118" lon="8.677268">
<ele>298.0</ele>
<speed>1.8</speed>
<course>326.8</course>
<desc>Speed 1.8 km/h Distance 1.21 km</desc>
<time>2010-03-14T10:39:34.90</time>
<name>872</name>
</trkpt>
<trkpt lat="48.933127" lon="8.677260">
<ele>298.5</ele>
<speed>3.0</speed>
<course>320.6</course>
<desc>Speed 3.0 km/h Distance 1.21 km</desc>
<time>2010-03-14T10:39:35.90</time>
<name>873</name>
</trkpt>
<trkpt lat="48.933133" lon="8.677252">
<ele>298.5</ele>
<speed>2.5</speed>
<course>330.6</course>
<desc>Speed 2.5 km/h Distance 1.21 km</desc>
<time>2010-03-14T10:39:36.90</time>
<name>874</name>
</trkpt>
<trkpt lat="48.933145" lon="8.677242">
<ele>298.5</ele>
<speed>3.3</speed>
<course>317.5</course>
<desc>Speed 3.3 km/h Distance 1.21 km</desc>
<time>2010-03-14T10:39:37.90</time>
<name>875</name>
</trkpt>
<trkpt lat="48.933153" lon="8.677230">
<ele>298.5</ele>
<speed>2.7</speed>
<course>339.1</course>
<desc>Speed 2.7 km/h Distance 1.21 km</desc>
<time>2010-03-14T10:39:38.90</time>
<name>876</name>
</trkpt>
<trkpt lat="48.933165" lon="8.677223">
<ele>298.5</ele>
<speed>2.7</speed>
<course>347.4</course>
<desc>Speed 2.7 km/h Distance 1.21 km</desc>
<time>2010-03-14T10:39:39.90</time>
<name>877</name>
</trkpt>
<trkpt lat="48.933175" lon="8.677220">
<ele>298.5</ele>
<speed>3.6</speed>
<course>345.1</course>
<desc>Speed 3.6 km/h Distance 1.22 km</desc>
<time>2010-03-14T10:39:40.90</time>
<name>878</name>
</trkpt>
<trkpt lat="48.933183" lon="8.677217">
<ele>298.5</ele>
<speed>3.1</speed>
<course>308.1</course>
<desc>Speed 3.1 km/h Distance 1.22 km</desc>
<time>2010-03-14T10:39:41.90</time>
<name>879</name>
</trkpt>
<trkpt lat="48.933185" lon="8.677213">
<ele>298.5</ele>
<speed>1.2</speed>
<course>315.5</course>
<desc>Speed 1.2 km/h Distance 1.22 km</desc>
<time>2010-03-14T10:39:42.90</time>
<name>880</name>
</trkpt>
<trkpt lat="48.933192" lon="8.677203">
<ele>298.5</ele>
<speed>4.0</speed>
<course>315.5</course>
<desc>Speed 4.0 km/h Distance 1.22 km</desc>
<time>2010-03-14T10:39:43.90</time>
<name>881</name>
</trkpt>
<trkpt lat="48.933198" lon="8.677193">
<ele>298.5</ele>
<speed>3.0</speed>
<course>315.5</course>
<desc>Speed 3.0 km/h Distance 1.22 km</desc>
<time>2010-03-14T10:39:44.92</time>
<name>882</name>
</trkpt>
<trkpt lat="48.933205" lon="8.677183">
<ele>299.0</ele>
<speed>3.4</speed>
<course>346.5</course>
<desc>Speed 3.4 km/h Distance 1.22 km</desc>
<time>2010-03-14T10:39:45.92</time>
<name>883</name>
</trkpt>
<trkpt lat="48.933218" lon="8.677178">
<ele>299.0</ele>
<speed>4.0</speed>
<course>346.0</course>
<desc>Speed 4.0 km/h Distance 1.22 km</desc>
<time>2010-03-14T10:39:46.92</time>
<name>884</name>
</trkpt>
<trkpt lat="48.933232" lon="8.677173">
<ele>299.0</ele>
<speed>3.4</speed>
<course>0.0</course>
<desc>Speed 3.4 km/h Distance 1.22 km</desc>
<time>2010-03-14T10:39:47.92</time>
<name>885</name>
</trkpt>
<trkpt lat="48.933237" lon="8.677173">
<ele>299.0</ele>
<speed>1.6</speed>
<course>333.6</course>
<desc>Speed 1.6 km/h Distance 1.22 km</desc>
<time>2010-03-14T10:39:48.91</time>
<name>886</name>
</trkpt>
<trkpt lat="48.933243" lon="8.677168">
<ele>299.0</ele>
<speed>2.0</speed>
<course>352.6</course>
<desc>Speed 2.0 km/h Distance 1.22 km</desc>
<time>2010-03-14T10:39:49.91</time>
<name>887</name>
</trkpt>
<trkpt lat="48.933250" lon="8.677167">
<ele>299.0</ele>
<speed>2.7</speed>
<course>0.0</course>
<desc>Speed 2.7 km/h Distance 1.23 km</desc>
<time>2010-03-14T10:39:50.91</time>
<name>888</name>
</trkpt>
<trkpt lat="48.933257" lon="8.677167">
<ele>299.0</ele>
<speed>2.6</speed>
<course>349.6</course>
<desc>Speed 2.6 km/h Distance 1.23 km</desc>
<time>2010-03-14T10:39:51.91</time>
<name>889</name>
</trkpt>
<trkpt lat="48.933268" lon="8.677163">
<ele>299.0</ele>
<speed>3.9</speed>
<course>326.6</course>
<desc>Speed 3.9 km/h Distance 1.23 km</desc>
<time>2010-03-14T10:39:52.91</time>
<name>890</name>
</trkpt>
<trkpt lat="48.933278" lon="8.677153">
<ele>299.0</ele>
<speed>3.5</speed>
<course>326.6</course>
<desc>Speed 3.5 km/h Distance 1.23 km</desc>
<time>2010-03-14T10:39:53.91</time>
<name>891</name>
</trkpt>
<trkpt lat="48.933290" lon="8.677142">
<ele>299.0</ele>
<speed>4.5</speed>
<course>326.6</course>
<desc>Speed 4.5 km/h Distance 1.23 km</desc>
<time>2010-03-14T10:39:54.91</time>
<name>892</name>
</trkpt>
<trkpt lat="48.933302" lon="8.677130">
<ele>299.5</ele>
<speed>3.7</speed>
<course>326.6</course>
<desc>Speed 3.7 km/h Distance 1.23 km</desc>
<time>2010-03-14T10:39:55.91</time>
<name>893</name>
</trkpt>
<trkpt lat="48.933313" lon="8.677118">
<ele>299.5</ele>
<speed>3.2</speed>
<course>338.5</course>
<desc>Speed 3.2 km/h Distance 1.23 km</desc>
<time>2010-03-14T10:39:56.91</time>
<name>894</name>
</trkpt>
<trkpt lat="48.933330" lon="8.677108">
<ele>299.5</ele>
<speed>4.0</speed>
<course>0.0</course>
<desc>Speed 4.0 km/h Distance 1.24 km</desc>
<time>2010-03-14T10:39:57.91</time>
<name>895</name>
</trkpt>
<trkpt lat="48.933342" lon="8.677108">
<ele>299.5</ele>
<speed>3.7</speed>
<course>339.1</course>
<desc>Speed 3.7 km/h Distance 1.24 km</desc>
<time>2010-03-14T10:39:58.91</time>
<name>896</name>
</trkpt>
<trkpt lat="48.933353" lon="8.677102">
<ele>299.5</ele>
<speed>3.7</speed>
<course>339.9</course>
<desc>Speed 3.7 km/h Distance 1.24 km</desc>
<time>2010-03-14T10:39:59.91</time>
<name>897</name>
</trkpt>
<trkpt lat="48.933368" lon="8.677093">
<ele>299.5</ele>
<speed>4.2</speed>
<course>356.1</course>
<desc>Speed 4.2 km/h Distance 1.24 km</desc>
<time>2010-03-14T10:40:00.92</time>
<name>898</name>
</trkpt>
<trkpt lat="48.933382" lon="8.677092">
<ele>299.5</ele>
<speed>4.4</speed>
<course>332.1</course>
<desc>Speed 4.4 km/h Distance 1.24 km</desc>
<time>2010-03-14T10:40:01.91</time>
<name>899</name>
</trkpt>
<trkpt lat="48.933390" lon="8.677085">
<ele>299.5</ele>
<speed>3.2</speed>
<course>320.6</course>
<desc>Speed 3.2 km/h Distance 1.24 km</desc>
<time>2010-03-14T10:40:02.90</time>
<name>900</name>
</trkpt>
<trkpt lat="48.933397" lon="8.677077">
<ele>299.5</ele>
<speed>2.4</speed>
<course>0.0</course>
<desc>Speed 2.4 km/h Distance 1.24 km</desc>
<time>2010-03-14T10:40:03.90</time>
<name>901</name>
</trkpt>
<trkpt lat="48.933403" lon="8.677077">
<ele>299.5</ele>
<speed>2.0</speed>
<course>357.8</course>
<desc>Speed 2.0 km/h Distance 1.24 km</desc>
<time>2010-03-14T10:40:04.91</time>
<name>902</name>
</trkpt>
<trkpt lat="48.933415" lon="8.677075">
<ele>300.0</ele>
<speed>3.6</speed>
<course>330.6</course>
<desc>Speed 3.6 km/h Distance 1.25 km</desc>
<time>2010-03-14T10:40:05.91</time>
<name>903</name>
</trkpt>
<trkpt lat="48.933427" lon="8.677065">
<ele>300.0</ele>
<speed>4.6</speed>
<course>341.8</course>
<desc>Speed 4.6 km/h Distance 1.25 km</desc>
<time>2010-03-14T10:40:06.91</time>
<name>904</name>
</trkpt>
<trkpt lat="48.933437" lon="8.677060">
<ele>300.0</ele>
<speed>4.0</speed>
<course>78.5</course>
<desc>Speed 4.0 km/h Distance 1.25 km</desc>
<time>2010-03-14T10:40:07.90</time>
<name>905</name>
</trkpt>
<trkpt lat="48.933440" lon="8.677085">
<ele>300.0</ele>
<speed>3.7</speed>
<course>68.2</course>
<desc>Speed 3.7 km/h Distance 1.25 km</desc>
<time>2010-03-14T10:40:08.91</time>
<name>906</name>
</trkpt>
<trkpt lat="48.933448" lon="8.677117">
<ele>300.5</ele>
<speed>4.5</speed>
<course>77.7</course>
<desc>Speed 4.5 km/h Distance 1.25 km</desc>
<time>2010-03-14T10:40:09.91</time>
<name>907</name>
</trkpt>
<trkpt lat="48.933453" lon="8.677152">
<ele>301.0</ele>
<speed>3.6</speed>
<course>49.4</course>
<desc>Speed 3.6 km/h Distance 1.25 km</desc>
<time>2010-03-14T10:40:10.90</time>
<name>908</name>
</trkpt>
<trkpt lat="48.933468" lon="8.677178">
<ele>301.5</ele>
<speed>4.8</speed>
<course>54.4</course>
<desc>Speed 4.8 km/h Distance 1.26 km</desc>
<time>2010-03-14T10:40:11.90</time>
<name>909</name>
</trkpt>
<trkpt lat="48.933482" lon="8.677207">
<ele>302.0</ele>
<speed>4.1</speed>
<course>22.7</course>
<desc>Speed 4.1 km/h Distance 1.26 km</desc>
<time>2010-03-14T10:40:12.90</time>
<name>910</name>
</trkpt>
<trkpt lat="48.933500" lon="8.677218">
<ele>302.0</ele>
<speed>4.2</speed>
<course>31.0</course>
<desc>Speed 4.2 km/h Distance 1.26 km</desc>
<time>2010-03-14T10:40:13.91</time>
<name>911</name>
</trkpt>
<trkpt lat="48.933518" lon="8.677235">
<ele>302.5</ele>
<speed>3.9</speed>
<course>23.7</course>
<desc>Speed 3.9 km/h Distance 1.26 km</desc>
<time>2010-03-14T10:40:14.91</time>
<name>912</name>
</trkpt>
<trkpt lat="48.933538" lon="8.677248">
<ele>303.0</ele>
<speed>4.1</speed>
<course>36.9</course>
<desc>Speed 4.1 km/h Distance 1.27 km</desc>
<time>2010-03-14T10:40:15.90</time>
<name>913</name>
</trkpt>
<trkpt lat="48.933550" lon="8.677262">
<ele>303.0</ele>
<speed>4.6</speed>
<course>44.5</course>
<desc>Speed 4.6 km/h Distance 1.27 km</desc>
<time>2010-03-14T10:40:16.90</time>
<name>914</name>
</trkpt>
<trkpt lat="48.933560" lon="8.677277">
<ele>303.5</ele>
<speed>3.5</speed>
<course>36.0</course>
<desc>Speed 3.5 km/h Distance 1.27 km</desc>
<time>2010-03-14T10:40:17.90</time>
<name>915</name>
</trkpt>
<trkpt lat="48.933575" lon="8.677293">
<ele>303.5</ele>
<speed>4.2</speed>
<course>26.9</course>
<desc>Speed 4.2 km/h Distance 1.27 km</desc>
<time>2010-03-14T10:40:18.90</time>
<name>916</name>
</trkpt>
<trkpt lat="48.933590" lon="8.677305">
<ele>304.0</ele>
<speed>3.6</speed>
<course>30.3</course>
<desc>Speed 3.6 km/h Distance 1.27 km</desc>
<time>2010-03-14T10:40:19.90</time>
<name>917</name>
</trkpt>
<trkpt lat="48.933605" lon="8.677318">
<ele>304.0</ele>
<speed>3.6</speed>
<course>238.6</course>
<desc>Speed 3.6 km/h Distance 1.28 km</desc>
<time>2010-03-14T10:40:20.91</time>
<name>918</name>
</trkpt>
<trkpt lat="48.933602" lon="8.677310">
<ele>303.5</ele>
<speed>1.5</speed>
<course>192.6</course>
<desc>Speed 1.5 km/h Distance 1.28 km</desc>
<time>2010-03-14T10:40:21.90</time>
<name>919</name>
</trkpt>
<trkpt lat="48.933598" lon="8.677308">
<ele>303.5</ele>
<speed>1.7</speed>
<course>232.7</course>
<desc>Speed 1.7 km/h Distance 1.28 km</desc>
<time>2010-03-14T10:40:22.90</time>
<name>920</name>
</trkpt>
<trkpt lat="48.933592" lon="8.677295">
<ele>304.0</ele>
<speed>3.9</speed>
<course>167.4</course>
<desc>Speed 3.9 km/h Distance 1.28 km</desc>
<time>2010-03-14T10:40:23.90</time>
<name>921</name>
</trkpt>
<trkpt lat="48.933590" lon="8.677295">
<ele>304.0</ele>
<speed>3.5</speed>
<course>308.1</course>
<desc>Speed 3.5 km/h Distance 1.28 km</desc>
<time>2010-03-14T10:40:24.90</time>
<name>922</name>
</trkpt>
<trkpt lat="48.933592" lon="8.677292">
<ele>304.5</ele>
<speed>4.0</speed>
<course>341.2</course>
<desc>Speed 4.0 km/h Distance 1.28 km</desc>
<time>2010-03-14T10:40:25.90</time>
<name>923</name>
</trkpt>
<trkpt lat="48.933598" lon="8.677288">
<ele>305.0</ele>
<speed>4.4</speed>
<course>22.2</course>
<desc>Speed 4.4 km/h Distance 1.28 km</desc>
<time>2010-03-14T10:40:26.90</time>
<name>924</name>
</trkpt>
<trkpt lat="48.933603" lon="8.677292">
<ele>305.5</ele>
<speed>3.5</speed>
<course>7.7</course>
<desc>Speed 3.5 km/h Distance 1.28 km</desc>
<time>2010-03-14T10:40:27.90</time>
<name>925</name>
</trkpt>
<trkpt lat="48.933612" lon="8.677293">
<ele>306.0</ele>
<speed>3.9</speed>
<course>301.2</course>
<desc>Speed 3.9 km/h Distance 1.28 km</desc>
<time>2010-03-14T10:40:28.90</time>
<name>926</name>
</trkpt>
<trkpt lat="48.933618" lon="8.677277">
<ele>306.5</ele>
<speed>4.6</speed>
<course>310.9</course>
<desc>Speed 4.6 km/h Distance 1.28 km</desc>
<time>2010-03-14T10:40:29.90</time>
<name>927</name>
</trkpt>
<trkpt lat="48.933625" lon="8.677265">
<ele>307.0</ele>
<speed>4.2</speed>
<course>12.6</course>
<desc>Speed 4.2 km/h Distance 1.28 km</desc>
<time>2010-03-14T10:40:30.90</time>
<name>928</name>
</trkpt>
<trkpt lat="48.933627" lon="8.677265">
<ele>307.0</ele>
<speed>3.0</speed>
<course>8.1</course>
<desc>Speed 3.0 km/h Distance 1.28 km</desc>
<time>2010-03-14T10:40:31.90</time>
<name>929</name>
</trkpt>
<trkpt lat="48.933632" lon="8.677265">
<ele>307.0</ele>
<speed>3.6</speed>
<course>270.0</course>
<desc>Speed 3.6 km/h Distance 1.28 km</desc>
<time>2010-03-14T10:40:32.90</time>
<name>930</name>
</trkpt>
<trkpt lat="48.933632" lon="8.677262">
<ele>307.0</ele>
<speed>1.2</speed>
<course>209.2</course>
<desc>Speed 1.2 km/h Distance 1.28 km</desc>
<time>2010-03-14T10:40:33.90</time>
<name>931</name>
</trkpt>
<trkpt lat="48.933630" lon="8.677260">
<ele>307.0</ele>
<speed>1.7</speed>
<course>315.5</course>
<desc>Speed 1.7 km/h Distance 1.28 km</desc>
<time>2010-03-14T10:40:34.90</time>
<name>932</name>
</trkpt>
<trkpt lat="48.933633" lon="8.677255">
<ele>307.5</ele>
<speed>2.9</speed>
<course>307.0</course>
<desc>Speed 2.9 km/h Distance 1.29 km</desc>
<time>2010-03-14T10:40:35.90</time>
<name>933</name>
</trkpt>
<trkpt lat="48.933637" lon="8.677248">
<ele>308.0</ele>
<speed>3.5</speed>
<course>0.0</course>
<desc>Speed 3.5 km/h Distance 1.29 km</desc>
<time>2010-03-14T10:40:36.90</time>
<name>934</name>
</trkpt>
<trkpt lat="48.933648" lon="8.677248">
<ele>308.5</ele>
<speed>3.8</speed>
<course>280.8</course>
<desc>Speed 3.8 km/h Distance 1.29 km</desc>
<time>2010-03-14T10:40:37.90</time>
<name>935</name>
</trkpt>
<trkpt lat="48.933650" lon="8.677235">
<ele>309.0</ele>
<speed>2.9</speed>
<course>310.3</course>
<desc>Speed 2.9 km/h Distance 1.29 km</desc>
<time>2010-03-14T10:40:38.90</time>
<name>936</name>
</trkpt>
<trkpt lat="48.933658" lon="8.677220">
<ele>309.5</ele>
<speed>2.9</speed>
<course>289.4</course>
<desc>Speed 2.9 km/h Distance 1.29 km</desc>
<time>2010-03-14T10:40:39.90</time>
<name>937</name>
</trkpt>
<trkpt lat="48.933663" lon="8.677198">
<ele>310.0</ele>
<speed>2.6</speed>
<course>299.7</course>
<desc>Speed 2.6 km/h Distance 1.29 km</desc>
<time>2010-03-14T10:40:40.90</time>
<name>938</name>
</trkpt>
<trkpt lat="48.933673" lon="8.677172">
<ele>311.0</ele>
<speed>3.9</speed>
<course>270.0</course>
<desc>Speed 3.9 km/h Distance 1.29 km</desc>
<time>2010-03-14T10:40:41.90</time>
<name>939</name>
</trkpt>
<trkpt lat="48.933673" lon="8.677168">
<ele>311.5</ele>
<speed>2.3</speed>
<course>297.0</course>
<desc>Speed 2.3 km/h Distance 1.29 km</desc>
<time>2010-03-14T10:40:42.89</time>
<name>940</name>
</trkpt>
<trkpt lat="48.933677" lon="8.677158">
<ele>312.0</ele>
<speed>2.9</speed>
<course>310.2</course>
<desc>Speed 2.9 km/h Distance 1.29 km</desc>
<time>2010-03-14T10:40:43.89</time>
<name>941</name>
</trkpt>
<trkpt lat="48.933685" lon="8.677143">
<ele>312.5</ele>
<speed>4.4</speed>
<course>330.6</course>
<desc>Speed 4.4 km/h Distance 1.30 km</desc>
<time>2010-03-14T10:40:44.89</time>
<name>942</name>
</trkpt>
<trkpt lat="48.933697" lon="8.677133">
<ele>313.0</ele>
<speed>4.0</speed>
<course>326.8</course>
<desc>Speed 4.0 km/h Distance 1.30 km</desc>
<time>2010-03-14T10:40:45.89</time>
<name>943</name>
</trkpt>
<trkpt lat="48.933707" lon="8.677123">
<ele>314.0</ele>
<speed>3.1</speed>
<course>312.4</course>
<desc>Speed 3.1 km/h Distance 1.30 km</desc>
<time>2010-03-14T10:40:46.89</time>
<name>944</name>
</trkpt>
<trkpt lat="48.933717" lon="8.677107">
<ele>315.0</ele>
<speed>3.7</speed>
<course>326.6</course>
<desc>Speed 3.7 km/h Distance 1.30 km</desc>
<time>2010-03-14T10:40:47.89</time>
<name>945</name>
</trkpt>
<trkpt lat="48.933730" lon="8.677093">
<ele>316.0</ele>
<speed>3.8</speed>
<course>323.4</course>
<desc>Speed 3.8 km/h Distance 1.30 km</desc>
<time>2010-03-14T10:40:48.89</time>
<name>946</name>
</trkpt>
<trkpt lat="48.933743" lon="8.677078">
<ele>317.0</ele>
<speed>3.7</speed>
<course>326.7</course>
<desc>Speed 3.7 km/h Distance 1.30 km</desc>
<time>2010-03-14T10:40:49.89</time>
<name>947</name>
</trkpt>
<trkpt lat="48.933757" lon="8.677065">
<ele>318.5</ele>
<speed>3.7</speed>
<course>299.7</course>
<desc>Speed 3.7 km/h Distance 1.31 km</desc>
<time>2010-03-14T10:40:50.89</time>
<name>948</name>
</trkpt>
<trkpt lat="48.933762" lon="8.677052">
<ele>319.5</ele>
<speed>3.8</speed>
<course>304.8</course>
<desc>Speed 3.8 km/h Distance 1.31 km</desc>
<time>2010-03-14T10:40:51.89</time>
<name>949</name>
</trkpt>
<trkpt lat="48.933770" lon="8.677033">
<ele>319.5</ele>
<speed>4.0</speed>
<course>304.7</course>
<desc>Speed 4.0 km/h Distance 1.31 km</desc>
<time>2010-03-14T10:40:52.89</time>
<name>950</name>
</trkpt>
<trkpt lat="48.933778" lon="8.677015">
<ele>320.5</ele>
<speed>4.2</speed>
<course>315.5</course>
<desc>Speed 4.2 km/h Distance 1.31 km</desc>
<time>2010-03-14T10:40:53.89</time>
<name>951</name>
</trkpt>
<trkpt lat="48.933785" lon="8.677005">
<ele>320.5</ele>
<speed>3.6</speed>
<course>284.2</course>
<desc>Speed 3.6 km/h Distance 1.31 km</desc>
<time>2010-03-14T10:40:54.89</time>
<name>952</name>
</trkpt>
<trkpt lat="48.933788" lon="8.676985">
<ele>321.5</ele>
<speed>3.7</speed>
<course>307.2</course>
<desc>Speed 3.7 km/h Distance 1.31 km</desc>
<time>2010-03-14T10:40:55.89</time>
<name>953</name>
</trkpt>
<trkpt lat="48.933793" lon="8.676975">
<ele>322.0</ele>
<speed>3.4</speed>
<course>307.0</course>
<desc>Speed 3.4 km/h Distance 1.31 km</desc>
<time>2010-03-14T10:40:56.89</time>
<name>954</name>
</trkpt>
<trkpt lat="48.933797" lon="8.676968">
<ele>321.5</ele>
<speed>2.1</speed>
<course>293.5</course>
<desc>Speed 2.1 km/h Distance 1.31 km</desc>
<time>2010-03-14T10:40:57.89</time>
<name>955</name>
</trkpt>
<trkpt lat="48.933800" lon="8.676957">
<ele>321.5</ele>
<speed>2.6</speed>
<course>294.5</course>
<desc>Speed 2.6 km/h Distance 1.32 km</desc>
<time>2010-03-14T10:40:58.89</time>
<name>956</name>
</trkpt>
<trkpt lat="48.933805" lon="8.676940">
<ele>321.5</ele>
<speed>3.2</speed>
<course>301.4</course>
<desc>Speed 3.2 km/h Distance 1.32 km</desc>
<time>2010-03-14T10:40:59.89</time>
<name>957</name>
</trkpt>
<trkpt lat="48.933808" lon="8.676932">
<ele>321.5</ele>
<speed>2.3</speed>
<course>312.6</course>
<desc>Speed 2.3 km/h Distance 1.32 km</desc>
<time>2010-03-14T10:41:00.89</time>
<name>958</name>
</trkpt>
<trkpt lat="48.933813" lon="8.676923">
<ele>321.5</ele>
<speed>3.9</speed>
<course>307.3</course>
<desc>Speed 3.9 km/h Distance 1.32 km</desc>
<time>2010-03-14T10:41:01.88</time>
<name>959</name>
</trkpt>
<trkpt lat="48.933822" lon="8.676907">
<ele>322.0</ele>
<speed>4.2</speed>
<course>315.3</course>
<desc>Speed 4.2 km/h Distance 1.32 km</desc>
<time>2010-03-14T10:41:02.88</time>
<name>960</name>
</trkpt>
<trkpt lat="48.933832" lon="8.676892">
<ele>322.5</ele>
<speed>4.7</speed>
<course>332.8</course>
<desc>Speed 4.7 km/h Distance 1.32 km</desc>
<time>2010-03-14T10:41:03.88</time>
<name>961</name>
</trkpt>
<trkpt lat="48.933847" lon="8.676880">
<ele>323.0</ele>
<speed>4.8</speed>
<course>326.6</course>
<desc>Speed 4.8 km/h Distance 1.32 km</desc>
<time>2010-03-14T10:41:04.88</time>
<name>962</name>
</trkpt>
<trkpt lat="48.933860" lon="8.676867">
<ele>323.5</ele>
<speed>4.5</speed>
<course>320.3</course>
<desc>Speed 4.5 km/h Distance 1.32 km</desc>
<time>2010-03-14T10:41:05.88</time>
<name>963</name>
</trkpt>
<trkpt lat="48.933867" lon="8.676858">
<ele>324.5</ele>
<speed>3.7</speed>
<course>331.4</course>
<desc>Speed 3.7 km/h Distance 1.33 km</desc>
<time>2010-03-14T10:41:06.88</time>
<name>964</name>
</trkpt>
<trkpt lat="48.933877" lon="8.676850">
<ele>325.5</ele>
<speed>4.2</speed>
<course>315.3</course>
<desc>Speed 4.2 km/h Distance 1.33 km</desc>
<time>2010-03-14T10:41:07.88</time>
<name>965</name>
</trkpt>
<trkpt lat="48.933887" lon="8.676835">
<ele>326.5</ele>
<speed>4.0</speed>
<course>314.1</course>
<desc>Speed 4.0 km/h Distance 1.33 km</desc>
<time>2010-03-14T10:41:08.90</time>
<name>966</name>
</trkpt>
<trkpt lat="48.933898" lon="8.676817">
<ele>327.0</ele>
<speed>4.5</speed>
<course>312.4</course>
<desc>Speed 4.5 km/h Distance 1.33 km</desc>
<time>2010-03-14T10:41:09.88</time>
<name>967</name>
</trkpt>
<trkpt lat="48.933908" lon="8.676800">
<ele>328.5</ele>
<speed>3.6</speed>
<course>319.8</course>
<desc>Speed 3.6 km/h Distance 1.33 km</desc>
<time>2010-03-14T10:41:10.88</time>
<name>968</name>
</trkpt>
<trkpt lat="48.933920" lon="8.676785">
<ele>329.0</ele>
<speed>3.9</speed>
<course>336.2</course>
<desc>Speed 3.9 km/h Distance 1.33 km</desc>
<time>2010-03-14T10:41:11.88</time>
<name>969</name>
</trkpt>
<trkpt lat="48.933930" lon="8.676778">
<ele>330.0</ele>
<speed>3.9</speed>
<course>341.6</course>
<desc>Speed 3.9 km/h Distance 1.34 km</desc>
<time>2010-03-14T10:41:12.88</time>
<name>970</name>
</trkpt>
<trkpt lat="48.933943" lon="8.676772">
<ele>331.0</ele>
<speed>4.8</speed>
<course>330.2</course>
<desc>Speed 4.8 km/h Distance 1.34 km</desc>
<time>2010-03-14T10:41:13.88</time>
<name>971</name>
</trkpt>
<trkpt lat="48.933957" lon="8.676760">
<ele>332.5</ele>
<speed>4.4</speed>
<course>332.1</course>
<desc>Speed 4.4 km/h Distance 1.34 km</desc>
<time>2010-03-14T10:41:14.88</time>
<name>972</name>
</trkpt>
<trkpt lat="48.933965" lon="8.676753">
<ele>333.0</ele>
<speed>4.0</speed>
<course>331.4</course>
<desc>Speed 4.0 km/h Distance 1.34 km</desc>
<time>2010-03-14T10:41:15.88</time>
<name>973</name>
</trkpt>
<trkpt lat="48.933975" lon="8.676745">
<ele>333.5</ele>
<speed>4.1</speed>
<course>332.1</course>
<desc>Speed 4.1 km/h Distance 1.34 km</desc>
<time>2010-03-14T10:41:16.88</time>
<name>974</name>
</trkpt>
<trkpt lat="48.933983" lon="8.676738">
<ele>334.0</ele>
<speed>3.5</speed>
<course>326.8</course>
<desc>Speed 3.5 km/h Distance 1.34 km</desc>
<time>2010-03-14T10:41:17.88</time>
<name>975</name>
</trkpt>
<trkpt lat="48.933990" lon="8.676732">
<ele>334.5</ele>
<speed>3.0</speed>
<course>233.0</course>
<desc>Speed 3.0 km/h Distance 1.34 km</desc>
<time>2010-03-14T10:41:18.88</time>
<name>976</name>
</trkpt>
<trkpt lat="48.933987" lon="8.676725">
<ele>334.5</ele>
<speed>0.6</speed>
<course>238.6</course>
<desc>Speed 0.6 km/h Distance 1.34 km</desc>
<time>2010-03-14T10:41:19.88</time>
<name>977</name>
</trkpt>
<trkpt lat="48.933983" lon="8.676717">
<ele>334.5</ele>
<speed>0.4</speed>
<course>259.3</course>
<desc>Speed 0.4 km/h Distance 1.34 km</desc>
<time>2010-03-14T10:41:20.87</time>
<name>978</name>
</trkpt>
<trkpt lat="48.933982" lon="8.676703">
<ele>334.5</ele>
<speed>1.5</speed>
<course>270.0</course>
<desc>Speed 1.5 km/h Distance 1.35 km</desc>
<time>2010-03-14T10:41:21.87</time>
<name>979</name>
</trkpt>
<trkpt lat="48.933982" lon="8.676685">
<ele>335.0</ele>
<speed>1.9</speed>
<course>290.9</course>
<desc>Speed 1.9 km/h Distance 1.35 km</desc>
<time>2010-03-14T10:41:22.87</time>
<name>980</name>
</trkpt>
<trkpt lat="48.933983" lon="8.676678">
<ele>335.0</ele>
<speed>1.9</speed>
<course>318.1</course>
<desc>Speed 1.9 km/h Distance 1.35 km</desc>
<time>2010-03-14T10:41:23.87</time>
<name>981</name>
</trkpt>
<trkpt lat="48.933988" lon="8.676672">
<ele>334.5</ele>
<speed>2.4</speed>
<course>321.4</course>
<desc>Speed 2.4 km/h Distance 1.35 km</desc>
<time>2010-03-14T10:41:24.90</time>
<name>982</name>
</trkpt>
<trkpt lat="48.933997" lon="8.676662">
<ele>334.5</ele>
<speed>3.5</speed>
<course>322.5</course>
<desc>Speed 3.5 km/h Distance 1.35 km</desc>
<time>2010-03-14T10:41:25.87</time>
<name>983</name>
</trkpt>
<trkpt lat="48.934007" lon="8.676650">
<ele>335.5</ele>
<speed>4.1</speed>
<course>344.5</course>
<desc>Speed 4.1 km/h Distance 1.35 km</desc>
<time>2010-03-14T10:41:26.87</time>
<name>984</name>
</trkpt>
<trkpt lat="48.934018" lon="8.676645">
<ele>336.0</ele>
<speed>4.9</speed>
<course>330.6</course>
<desc>Speed 4.9 km/h Distance 1.35 km</desc>
<time>2010-03-14T10:41:27.89</time>
<name>985</name>
</trkpt>
<trkpt lat="48.934030" lon="8.676635">
<ele>336.5</ele>
<speed>4.7</speed>
<course>313.6</course>
<desc>Speed 4.7 km/h Distance 1.35 km</desc>
<time>2010-03-14T10:41:28.87</time>
<name>986</name>
</trkpt>
<trkpt lat="48.934038" lon="8.676622">
<ele>336.5</ele>
<speed>4.7</speed>
<course>330.2</course>
<desc>Speed 4.7 km/h Distance 1.35 km</desc>
<time>2010-03-14T10:41:29.87</time>
<name>987</name>
</trkpt>
<trkpt lat="48.934052" lon="8.676610">
<ele>337.5</ele>
<speed>4.6</speed>
<course>283.2</course>
<desc>Speed 4.6 km/h Distance 1.36 km</desc>
<time>2010-03-14T10:41:30.89</time>
<name>988</name>
</trkpt>
<trkpt lat="48.934055" lon="8.676588">
<ele>337.5</ele>
<speed>4.0</speed>
<course>270.0</course>
<desc>Speed 4.0 km/h Distance 1.36 km</desc>
<time>2010-03-14T10:41:31.87</time>
<name>989</name>
</trkpt>
<trkpt lat="48.934055" lon="8.676567">
<ele>337.5</ele>
<speed>3.6</speed>
<course>290.8</course>
<desc>Speed 3.6 km/h Distance 1.36 km</desc>
<time>2010-03-14T10:41:32.87</time>
<name>990</name>
</trkpt>
<trkpt lat="48.934060" lon="8.676547">
<ele>337.0</ele>
<speed>3.9</speed>
<course>332.1</course>
<desc>Speed 3.9 km/h Distance 1.36 km</desc>
<time>2010-03-14T10:41:33.87</time>
<name>991</name>
</trkpt>
<trkpt lat="48.934068" lon="8.676540">
<ele>337.0</ele>
<speed>4.0</speed>
<course>321.9</course>
<desc>Speed 4.0 km/h Distance 1.36 km</desc>
<time>2010-03-14T10:41:34.87</time>
<name>992</name>
</trkpt>
<trkpt lat="48.934077" lon="8.676530">
<ele>337.0</ele>
<speed>4.6</speed>
<course>270.0</course>
<desc>Speed 4.6 km/h Distance 1.36 km</desc>
<time>2010-03-14T10:41:35.87</time>
<name>993</name>
</trkpt>
<trkpt lat="48.934077" lon="8.676528">
<ele>337.5</ele>
<speed>0.6</speed>
<course>318.6</course>
<desc>Speed 0.6 km/h Distance 1.36 km</desc>
<time>2010-03-14T10:41:36.87</time>
<name>994</name>
</trkpt>
<trkpt lat="48.934082" lon="8.676522">
<ele>337.5</ele>
<speed>3.2</speed>
<course>337.0</course>
<desc>Speed 3.2 km/h Distance 1.36 km</desc>
<time>2010-03-14T10:41:37.86</time>
<name>995</name>
</trkpt>
<trkpt lat="48.934085" lon="8.676520">
<ele>337.5</ele>
<speed>1.1</speed>
<course>209.2</course>
<desc>Speed 1.1 km/h Distance 1.36 km</desc>
<time>2010-03-14T10:41:38.86</time>
<name>996</name>
</trkpt>
<trkpt lat="48.934083" lon="8.676518">
<ele>337.5</ele>
<speed>0.2</speed>
<course>284.4</course>
<desc>Speed 0.2 km/h Distance 1.36 km</desc>
<time>2010-03-14T10:41:39.87</time>
<name>997</name>
</trkpt>
<trkpt lat="48.934085" lon="8.676508">
<ele>338.0</ele>
<speed>2.6</speed>
<course>299.7</course>
<desc>Speed 2.6 km/h Distance 1.37 km</desc>
<time>2010-03-14T10:41:40.86</time>
<name>998</name>
</trkpt>
<trkpt lat="48.934090" lon="8.676495">
<ele>338.0</ele>
<speed>3.0</speed>
<course>297.0</course>
<desc>Speed 3.0 km/h Distance 1.37 km</desc>
<time>2010-03-14T10:41:41.86</time>
<name>999</name>
</trkpt>
<trkpt lat="48.934093" lon="8.676485">
<ele>338.0</ele>
<speed>3.2</speed>
<course>299.7</course>
<desc>Speed 3.2 km/h Distance 1.37 km</desc>
<time>2010-03-14T10:41:42.86</time>
<name>1000</name>
</trkpt>
<trkpt lat="48.934098" lon="8.676472">
<ele>338.0</ele>
<speed>3.5</speed>
<course>301.3</course>
<desc>Speed 3.5 km/h Distance 1.37 km</desc>
<time>2010-03-14T10:41:43.86</time>
<name>1001</name>
</trkpt>
<trkpt lat="48.934105" lon="8.676455">
<ele>338.5</ele>
<speed>4.6</speed>
<course>310.9</course>
<desc>Speed 4.6 km/h Distance 1.37 km</desc>
<time>2010-03-14T10:41:44.86</time>
<name>1002</name>
</trkpt>
<trkpt lat="48.934112" lon="8.676443">
<ele>338.5</ele>
<speed>4.0</speed>
<course>312.2</course>
<desc>Speed 4.0 km/h Distance 1.37 km</desc>
<time>2010-03-14T10:41:45.86</time>
<name>1003</name>
</trkpt>
<trkpt lat="48.934117" lon="8.676435">
<ele>338.0</ele>
<speed>3.2</speed>
<course>312.2</course>
<desc>Speed 3.2 km/h Distance 1.37 km</desc>
<time>2010-03-14T10:41:46.86</time>
<name>1004</name>
</trkpt>
<trkpt lat="48.934122" lon="8.676427">
<ele>338.0</ele>
<speed>2.7</speed>
<course>326.5</course>
<desc>Speed 2.7 km/h Distance 1.37 km</desc>
<time>2010-03-14T10:41:47.86</time>
<name>1005</name>
</trkpt>
<trkpt lat="48.934130" lon="8.676418">
<ele>338.0</ele>
<speed>3.6</speed>
<course>320.3</course>
<desc>Speed 3.6 km/h Distance 1.37 km</desc>
<time>2010-03-14T10:41:48.86</time>
<name>1006</name>
</trkpt>
<trkpt lat="48.934137" lon="8.676410">
<ele>337.5</ele>
<speed>3.6</speed>
<course>338.5</course>
<desc>Speed 3.6 km/h Distance 1.37 km</desc>
<time>2010-03-14T10:41:49.86</time>
<name>1007</name>
</trkpt>
<trkpt lat="48.934145" lon="8.676405">
<ele>338.0</ele>
<speed>3.4</speed>
<course>327.7</course>
<desc>Speed 3.4 km/h Distance 1.38 km</desc>
<time>2010-03-14T10:41:50.86</time>
<name>1008</name>
</trkpt>
<trkpt lat="48.934150" lon="8.676400">
<ele>338.0</ele>
<speed>2.8</speed>
<course>335.2</course>
<desc>Speed 2.8 km/h Distance 1.38 km</desc>
<time>2010-03-14T10:41:51.86</time>
<name>1009</name>
</trkpt>
<trkpt lat="48.934157" lon="8.676395">
<ele>338.5</ele>
<speed>2.8</speed>
<course>316.5</course>
<desc>Speed 2.8 km/h Distance 1.38 km</desc>
<time>2010-03-14T10:41:52.86</time>
<name>1010</name>
</trkpt>
<trkpt lat="48.934160" lon="8.676390">
<ele>338.5</ele>
<speed>1.5</speed>
<course>297.4</course>
<desc>Speed 1.5 km/h Distance 1.38 km</desc>
<time>2010-03-14T10:41:53.86</time>
<name>1011</name>
</trkpt>
<trkpt lat="48.934162" lon="8.676385">
<ele>337.5</ele>
<speed>1.9</speed>
<course>326.8</course>
<desc>Speed 1.9 km/h Distance 1.38 km</desc>
<time>2010-03-14T10:41:54.86</time>
<name>1012</name>
</trkpt>
<trkpt lat="48.934167" lon="8.676380">
<ele>336.5</ele>
<speed>2.1</speed>
<course>326.3</course>
<desc>Speed 2.1 km/h Distance 1.38 km</desc>
<time>2010-03-14T10:41:55.86</time>
<name>1013</name>
</trkpt>
<trkpt lat="48.934170" lon="8.676377">
<ele>335.0</ele>
<speed>1.4</speed>
<course>337.8</course>
<desc>Speed 1.4 km/h Distance 1.38 km</desc>
<time>2010-03-14T10:41:56.86</time>
<name>1014</name>
</trkpt>
<trkpt lat="48.934175" lon="8.676373">
<ele>334.0</ele>
<speed>2.1</speed>
<course>345.1</course>
<desc>Speed 2.1 km/h Distance 1.38 km</desc>
<time>2010-03-14T10:41:57.86</time>
<name>1015</name>
</trkpt>
<trkpt lat="48.934183" lon="8.676370">
<ele>333.5</ele>
<speed>2.8</speed>
<course>347.4</course>
<desc>Speed 2.8 km/h Distance 1.38 km</desc>
<time>2010-03-14T10:41:58.85</time>
<name>1016</name>
</trkpt>
<trkpt lat="48.934193" lon="8.676367">
<ele>333.5</ele>
<speed>3.3</speed>
<course>4.4</course>
<desc>Speed 3.3 km/h Distance 1.38 km</desc>
<time>2010-03-14T10:41:59.86</time>
<name>1017</name>
</trkpt>
<trkpt lat="48.934203" lon="8.676368">
<ele>332.5</ele>
<speed>3.5</speed>
<course>39.4</course>
<desc>Speed 3.5 km/h Distance 1.38 km</desc>
<time>2010-03-14T10:42:00.86</time>
<name>1018</name>
</trkpt>
<trkpt lat="48.934210" lon="8.676377">
<ele>333.0</ele>
<speed>3.4</speed>
<course>38.1</course>
<desc>Speed 3.4 km/h Distance 1.38 km</desc>
<time>2010-03-14T10:42:01.85</time>
<name>1019</name>
</trkpt>
<trkpt lat="48.934218" lon="8.676387">
<ele>333.0</ele>
<speed>4.2</speed>
<course>82.1</course>
<desc>Speed 4.2 km/h Distance 1.39 km</desc>
<time>2010-03-14T10:42:02.85</time>
<name>1020</name>
</trkpt>
<trkpt lat="48.934220" lon="8.676405">
<ele>333.0</ele>
<speed>5.0</speed>
<course>56.7</course>
<desc>Speed 5.0 km/h Distance 1.39 km</desc>
<time>2010-03-14T10:42:03.85</time>
<name>1021</name>
</trkpt>
<trkpt lat="48.934225" lon="8.676417">
<ele>332.5</ele>
<speed>5.0</speed>
<course>48.7</course>
<desc>Speed 5.0 km/h Distance 1.39 km</desc>
<time>2010-03-14T10:42:04.85</time>
<name>1022</name>
</trkpt>
<trkpt lat="48.934232" lon="8.676428">
<ele>332.0</ele>
<speed>4.7</speed>
<course>63.0</course>
<desc>Speed 4.7 km/h Distance 1.39 km</desc>
<time>2010-03-14T10:42:05.85</time>
<name>1023</name>
</trkpt>
<trkpt lat="48.934237" lon="8.676443">
<ele>331.5</ele>
<speed>4.3</speed>
<course>65.4</course>
<desc>Speed 4.3 km/h Distance 1.39 km</desc>
<time>2010-03-14T10:42:06.85</time>
<name>1024</name>
</trkpt>
<trkpt lat="48.934242" lon="8.676460">
<ele>331.5</ele>
<speed>4.6</speed>
<course>74.5</course>
<desc>Speed 4.6 km/h Distance 1.39 km</desc>
<time>2010-03-14T10:42:07.85</time>
<name>1025</name>
</trkpt>
<trkpt lat="48.934245" lon="8.676478">
<ele>331.5</ele>
<speed>4.8</speed>
<course>71.3</course>
<desc>Speed 4.8 km/h Distance 1.39 km</desc>
<time>2010-03-14T10:42:08.85</time>
<name>1026</name>
</trkpt>
<trkpt lat="48.934248" lon="8.676493">
<ele>331.0</ele>
<speed>4.4</speed>
<course>79.2</course>
<desc>Speed 4.4 km/h Distance 1.39 km</desc>
<time>2010-03-14T10:42:09.84</time>
<name>1027</name>
</trkpt>
<trkpt lat="48.934250" lon="8.676507">
<ele>331.0</ele>
<speed>4.2</speed>
<course>77.7</course>
<desc>Speed 4.2 km/h Distance 1.39 km</desc>
<time>2010-03-14T10:42:10.84</time>
<name>1028</name>
</trkpt>
<trkpt lat="48.934252" lon="8.676518">
<ele>331.0</ele>
<speed>4.2</speed>
<course>90.0</course>
<desc>Speed 4.2 km/h Distance 1.40 km</desc>
<time>2010-03-14T10:42:11.84</time>
<name>1029</name>
</trkpt>
<trkpt lat="48.934252" lon="8.676532">
<ele>331.0</ele>
<speed>4.5</speed>
<course>90.0</course>
<desc>Speed 4.5 km/h Distance 1.40 km</desc>
<time>2010-03-14T10:42:12.84</time>
<name>1030</name>
</trkpt>
<trkpt lat="48.934252" lon="8.676543">
<ele>331.0</ele>
<speed>3.5</speed>
<course>63.0</course>
<desc>Speed 3.5 km/h Distance 1.40 km</desc>
<time>2010-03-14T10:42:13.84</time>
<name>1031</name>
</trkpt>
<trkpt lat="48.934255" lon="8.676553">
<ele>331.0</ele>
<speed>2.9</speed>
<course>63.0</course>
<desc>Speed 2.9 km/h Distance 1.40 km</desc>
<time>2010-03-14T10:42:14.84</time>
<name>1032</name>
</trkpt>
<trkpt lat="48.934258" lon="8.676563">
<ele>331.0</ele>
<speed>3.0</speed>
<course>77.7</course>
<desc>Speed 3.0 km/h Distance 1.40 km</desc>
<time>2010-03-14T10:42:15.85</time>
<name>1033</name>
</trkpt>
<trkpt lat="48.934260" lon="8.676575">
<ele>331.0</ele>
<speed>4.1</speed>
<course>69.1</course>
<desc>Speed 4.1 km/h Distance 1.40 km</desc>
<time>2010-03-14T10:42:16.85</time>
<name>1034</name>
</trkpt>
<trkpt lat="48.934263" lon="8.676588">
<ele>331.0</ele>
<speed>4.3</speed>
<course>52.4</course>
<desc>Speed 4.3 km/h Distance 1.40 km</desc>
<time>2010-03-14T10:42:17.85</time>
<name>1035</name>
</trkpt>
<trkpt lat="48.934267" lon="8.676595">
<ele>331.0</ele>
<speed>2.0</speed>
<course>90.0</course>
<desc>Speed 2.0 km/h Distance 1.40 km</desc>
<time>2010-03-14T10:42:18.85</time>
<name>1036</name>
</trkpt>
<trkpt lat="48.934267" lon="8.676597">
<ele>331.0</ele>
<speed>0.4</speed>
<course>322.8</course>
<desc>Speed 0.4 km/h Distance 1.40 km</desc>
<time>2010-03-14T10:42:19.84</time>
<name>1037</name>
</trkpt>
<trkpt lat="48.934268" lon="8.676595">
<ele>331.0</ele>
<speed>0.2</speed>
<course>53.0</course>
<desc>Speed 0.2 km/h Distance 1.40 km</desc>
<time>2010-03-14T10:42:20.84</time>
<name>1038</name>
</trkpt>
<trkpt lat="48.934272" lon="8.676602">
<ele>331.0</ele>
<speed>1.7</speed>
<course>73.1</course>
<desc>Speed 1.7 km/h Distance 1.40 km</desc>
<time>2010-03-14T10:42:21.84</time>
<name>1039</name>
</trkpt>
<trkpt lat="48.934275" lon="8.676618">
<ele>331.0</ele>
<speed>4.3</speed>
<course>69.2</course>
<desc>Speed 4.3 km/h Distance 1.40 km</desc>
<time>2010-03-14T10:42:22.84</time>
<name>1040</name>
</trkpt>
<trkpt lat="48.934278" lon="8.676632">
<ele>330.5</ele>
<speed>4.1</speed>
<course>74.5</course>
<desc>Speed 4.1 km/h Distance 1.40 km</desc>
<time>2010-03-14T10:42:23.84</time>
<name>1041</name>
</trkpt>
<trkpt lat="48.934282" lon="8.676650">
<ele>330.5</ele>
<speed>4.7</speed>
<course>73.0</course>
<desc>Speed 4.7 km/h Distance 1.41 km</desc>
<time>2010-03-14T10:42:24.84</time>
<name>1042</name>
</trkpt>
<trkpt lat="48.934285" lon="8.676667">
<ele>330.5</ele>
<speed>4.5</speed>
<course>82.8</course>
<desc>Speed 4.5 km/h Distance 1.41 km</desc>
<time>2010-03-14T10:42:25.84</time>
<name>1043</name>
</trkpt>
<trkpt lat="48.934287" lon="8.676687">
<ele>330.5</ele>
<speed>5.5</speed>
<course>71.3</course>
<desc>Speed 5.5 km/h Distance 1.41 km</desc>
<time>2010-03-14T10:42:26.85</time>
<name>1044</name>
</trkpt>
<trkpt lat="48.934290" lon="8.676702">
<ele>331.0</ele>
<speed>4.3</speed>
<course>81.3</course>
<desc>Speed 4.3 km/h Distance 1.41 km</desc>
<time>2010-03-14T10:42:27.84</time>
<name>1045</name>
</trkpt>
<trkpt lat="48.934292" lon="8.676718">
<ele>330.5</ele>
<speed>4.4</speed>
<course>80.4</course>
<desc>Speed 4.4 km/h Distance 1.41 km</desc>
<time>2010-03-14T10:42:28.83</time>
<name>1046</name>
</trkpt>
<trkpt lat="48.934293" lon="8.676733">
<ele>330.5</ele>
<speed>4.3</speed>
<course>90.0</course>
<desc>Speed 4.3 km/h Distance 1.41 km</desc>
<time>2010-03-14T10:42:29.83</time>
<name>1047</name>
</trkpt>
<trkpt lat="48.934293" lon="8.676752">
<ele>330.5</ele>
<speed>4.8</speed>
<course>60.3</course>
<desc>Speed 4.8 km/h Distance 1.41 km</desc>
<time>2010-03-14T10:42:30.83</time>
<name>1048</name>
</trkpt>
<trkpt lat="48.934298" lon="8.676765">
<ele>330.5</ele>
<speed>4.3</speed>
<course>65.5</course>
<desc>Speed 4.3 km/h Distance 1.42 km</desc>
<time>2010-03-14T10:42:31.83</time>
<name>1049</name>
</trkpt>
<trkpt lat="48.934303" lon="8.676782">
<ele>330.5</ele>
<speed>4.8</speed>
<course>90.0</course>
<desc>Speed 4.8 km/h Distance 1.42 km</desc>
<time>2010-03-14T10:42:32.83</time>
<name>1050</name>
</trkpt>
<trkpt lat="48.934303" lon="8.676797">
<ele>330.5</ele>
<speed>4.4</speed>
<course>80.4</course>
<desc>Speed 4.4 km/h Distance 1.42 km</desc>
<time>2010-03-14T10:42:33.83</time>
<name>1051</name>
</trkpt>
<trkpt lat="48.934305" lon="8.676812">
<ele>330.5</ele>
<speed>4.2</speed>
<course>104.2</course>
<desc>Speed 4.2 km/h Distance 1.42 km</desc>
<time>2010-03-14T10:42:34.83</time>
<name>1052</name>
</trkpt>
<trkpt lat="48.934302" lon="8.676832">
<ele>331.0</ele>
<speed>5.7</speed>
<course>100.7</course>
<desc>Speed 5.7 km/h Distance 1.42 km</desc>
<time>2010-03-14T10:42:35.84</time>
<name>1053</name>
</trkpt>
<trkpt lat="48.934300" lon="8.676845">
<ele>331.0</ele>
<speed>4.3</speed>
<course>90.0</course>
<desc>Speed 4.3 km/h Distance 1.42 km</desc>
<time>2010-03-14T10:42:36.83</time>
<name>1054</name>
</trkpt>
<trkpt lat="48.934300" lon="8.676862">
<ele>331.0</ele>
<speed>4.8</speed>
<course>63.1</course>
<desc>Speed 4.8 km/h Distance 1.42 km</desc>
<time>2010-03-14T10:42:37.83</time>
<name>1055</name>
</trkpt>
<trkpt lat="48.934305" lon="8.676877">
<ele>331.0</ele>
<speed>4.8</speed>
<course>71.4</course>
<desc>Speed 4.8 km/h Distance 1.42 km</desc>
<time>2010-03-14T10:42:38.83</time>
<name>1056</name>
</trkpt>
<trkpt lat="48.934308" lon="8.676892">
<ele>331.0</ele>
<speed>3.9</speed>
<course>90.0</course>
<desc>Speed 3.9 km/h Distance 1.42 km</desc>
<time>2010-03-14T10:42:39.83</time>
<name>1057</name>
</trkpt>
<trkpt lat="48.934308" lon="8.676905">
<ele>331.0</ele>
<speed>4.1</speed>
<course>80.4</course>
<desc>Speed 4.1 km/h Distance 1.43 km</desc>
<time>2010-03-14T10:42:40.83</time>
<name>1058</name>
</trkpt>
<trkpt lat="48.934310" lon="8.676920">
<ele>330.5</ele>
<speed>4.1</speed>
<course>82.1</course>
<desc>Speed 4.1 km/h Distance 1.43 km</desc>
<time>2010-03-14T10:42:41.84</time>
<name>1059</name>
</trkpt>
<trkpt lat="48.934312" lon="8.676938">
<ele>330.0</ele>
<speed>5.0</speed>
<course>98.7</course>
<desc>Speed 5.0 km/h Distance 1.43 km</desc>
<time>2010-03-14T10:42:42.83</time>
<name>1060</name>
</trkpt>
<trkpt lat="48.934310" lon="8.676955">
<ele>329.5</ele>
<speed>4.6</speed>
<course>90.0</course>
<desc>Speed 4.6 km/h Distance 1.43 km</desc>
<time>2010-03-14T10:42:43.83</time>
<name>1061</name>
</trkpt>
<trkpt lat="48.934310" lon="8.676970">
<ele>329.0</ele>
<speed>3.9</speed>
<course>90.0</course>
<desc>Speed 3.9 km/h Distance 1.43 km</desc>
<time>2010-03-14T10:42:44.82</time>
<name>1062</name>
</trkpt>
<trkpt lat="48.934310" lon="8.676987">
<ele>328.5</ele>
<speed>4.1</speed>
<course>97.2</course>
<desc>Speed 4.1 km/h Distance 1.43 km</desc>
<time>2010-03-14T10:42:45.83</time>
<name>1063</name>
</trkpt>
<trkpt lat="48.934308" lon="8.677007">
<ele>327.5</ele>
<speed>4.8</speed>
<course>80.4</course>
<desc>Speed 4.8 km/h Distance 1.43 km</desc>
<time>2010-03-14T10:42:46.82</time>
<name>1064</name>
</trkpt>
<trkpt lat="48.934310" lon="8.677022">
<ele>327.0</ele>
<speed>3.9</speed>
<course>81.3</course>
<desc>Speed 3.9 km/h Distance 1.43 km</desc>
<time>2010-03-14T10:42:47.83</time>
<name>1065</name>
</trkpt>
<trkpt lat="48.934312" lon="8.677038">
<ele>327.0</ele>
<speed>4.1</speed>
<course>83.3</course>
<desc>Speed 4.1 km/h Distance 1.44 km</desc>
<time>2010-03-14T10:42:48.82</time>
<name>1066</name>
</trkpt>
<trkpt lat="48.934313" lon="8.677060">
<ele>327.5</ele>
<speed>4.5</speed>
<course>81.3</course>
<desc>Speed 4.5 km/h Distance 1.44 km</desc>
<time>2010-03-14T10:42:49.82</time>
<name>1067</name>
</trkpt>
<trkpt lat="48.934315" lon="8.677077">
<ele>327.0</ele>
<speed>4.0</speed>
<course>46.5</course>
<desc>Speed 4.0 km/h Distance 1.44 km</desc>
<time>2010-03-14T10:42:50.83</time>
<name>1068</name>
</trkpt>
<trkpt lat="48.934323" lon="8.677090">
<ele>327.0</ele>
<speed>4.4</speed>
<course>65.4</course>
<desc>Speed 4.4 km/h Distance 1.44 km</desc>
<time>2010-03-14T10:42:51.82</time>
<name>1069</name>
</trkpt>
<trkpt lat="48.934328" lon="8.677107">
<ele>327.0</ele>
<speed>4.1</speed>
<course>82.1</course>
<desc>Speed 4.1 km/h Distance 1.44 km</desc>
<time>2010-03-14T10:42:52.82</time>
<name>1070</name>
</trkpt>
<trkpt lat="48.934330" lon="8.677125">
<ele>326.5</ele>
<speed>4.3</speed>
<course>82.1</course>
<desc>Speed 4.3 km/h Distance 1.44 km</desc>
<time>2010-03-14T10:42:53.82</time>
<name>1071</name>
</trkpt>
<trkpt lat="48.934332" lon="8.677143">
<ele>326.5</ele>
<speed>4.1</speed>
<course>73.1</course>
<desc>Speed 4.1 km/h Distance 1.44 km</desc>
<time>2010-03-14T10:42:54.82</time>
<name>1072</name>
</trkpt>
<trkpt lat="48.934335" lon="8.677160">
<ele>326.5</ele>
<speed>3.8</speed>
<course>81.3</course>
<desc>Speed 3.8 km/h Distance 1.45 km</desc>
<time>2010-03-14T10:42:55.82</time>
<name>1073</name>
</trkpt>
<trkpt lat="48.934337" lon="8.677177">
<ele>326.0</ele>
<speed>3.9</speed>
<course>90.0</course>
<desc>Speed 3.9 km/h Distance 1.45 km</desc>
<time>2010-03-14T10:42:56.82</time>
<name>1074</name>
</trkpt>
<trkpt lat="48.934337" lon="8.677190">
<ele>326.5</ele>
<speed>3.6</speed>
<course>55.4</course>
<desc>Speed 3.6 km/h Distance 1.45 km</desc>
<time>2010-03-14T10:42:57.82</time>
<name>1075</name>
</trkpt>
<trkpt lat="48.934345" lon="8.677208">
<ele>327.0</ele>
<speed>4.0</speed>
<course>48.4</course>
<desc>Speed 4.0 km/h Distance 1.45 km</desc>
<time>2010-03-14T10:42:58.82</time>
<name>1076</name>
</trkpt>
<trkpt lat="48.934357" lon="8.677228">
<ele>328.5</ele>
<speed>3.7</speed>
<course>90.0</course>
<desc>Speed 3.7 km/h Distance 1.45 km</desc>
<time>2010-03-14T10:42:59.82</time>
<name>1077</name>
</trkpt>
<trkpt lat="48.934357" lon="8.677242">
<ele>328.0</ele>
<speed>3.4</speed>
<course>79.3</course>
<desc>Speed 3.4 km/h Distance 1.45 km</desc>
<time>2010-03-14T10:43:00.83</time>
<name>1078</name>
</trkpt>
<trkpt lat="48.934358" lon="8.677255">
<ele>328.0</ele>
<speed>3.6</speed>
<course>90.0</course>
<desc>Speed 3.6 km/h Distance 1.45 km</desc>
<time>2010-03-14T10:43:01.82</time>
<name>1079</name>
</trkpt>
<trkpt lat="48.934358" lon="8.677272">
<ele>328.0</ele>
<speed>4.1</speed>
<course>90.0</course>
<desc>Speed 4.1 km/h Distance 1.45 km</desc>
<time>2010-03-14T10:43:02.82</time>
<name>1080</name>
</trkpt>
<trkpt lat="48.934358" lon="8.677287">
<ele>328.0</ele>
<speed>3.6</speed>
<course>73.1</course>
<desc>Speed 3.6 km/h Distance 1.46 km</desc>
<time>2010-03-14T10:43:03.82</time>
<name>1081</name>
</trkpt>
<trkpt lat="48.934362" lon="8.677303">
<ele>328.0</ele>
<speed>3.7</speed>
<course>100.8</course>
<desc>Speed 3.7 km/h Distance 1.46 km</desc>
<time>2010-03-14T10:43:04.82</time>
<name>1082</name>
</trkpt>
<trkpt lat="48.934360" lon="8.677317">
<ele>327.5</ele>
<speed>3.4</speed>
<course>55.9</course>
<desc>Speed 3.4 km/h Distance 1.46 km</desc>
<time>2010-03-14T10:43:05.82</time>
<name>1083</name>
</trkpt>
<trkpt lat="48.934380" lon="8.677362">
<ele>330.5</ele>
<speed>3.7</speed>
<course>48.1</course>
<desc>Speed 3.7 km/h Distance 1.46 km</desc>
<time>2010-03-14T10:43:07.82</time>
<name>1084</name>
</trkpt>
<trkpt lat="48.934397" lon="8.677390">
<ele>333.0</ele>
<speed>3.2</speed>
<course>65.4</course>
<desc>Speed 3.2 km/h Distance 1.46 km</desc>
<time>2010-03-14T10:43:08.82</time>
<name>1085</name>
</trkpt>
<trkpt lat="48.934402" lon="8.677407">
<ele>334.0</ele>
<speed>3.3</speed>
<course>56.7</course>
<desc>Speed 3.3 km/h Distance 1.47 km</desc>
<time>2010-03-14T10:43:09.81</time>
<name>1086</name>
</trkpt>
<trkpt lat="48.934407" lon="8.677418">
<ele>334.0</ele>
<speed>3.7</speed>
<course>77.7</course>
<desc>Speed 3.7 km/h Distance 1.47 km</desc>
<time>2010-03-14T10:43:10.81</time>
<name>1087</name>
</trkpt>
<trkpt lat="48.934408" lon="8.677430">
<ele>333.5</ele>
<speed>2.8</speed>
<course>77.8</course>
<desc>Speed 2.8 km/h Distance 1.47 km</desc>
<time>2010-03-14T10:43:11.81</time>
<name>1088</name>
</trkpt>
<trkpt lat="48.934410" lon="8.677442">
<ele>333.5</ele>
<speed>3.3</speed>
<course>90.0</course>
<desc>Speed 3.3 km/h Distance 1.47 km</desc>
<time>2010-03-14T10:43:12.81</time>
<name>1089</name>
</trkpt>
<trkpt lat="48.934410" lon="8.677457">
<ele>333.5</ele>
<speed>4.1</speed>
<course>104.1</course>
<desc>Speed 4.1 km/h Distance 1.47 km</desc>
<time>2010-03-14T10:43:13.81</time>
<name>1090</name>
</trkpt>
<trkpt lat="48.934408" lon="8.677467">
<ele>333.5</ele>
<speed>3.0</speed>
<course>77.8</course>
<desc>Speed 3.0 km/h Distance 1.47 km</desc>
<time>2010-03-14T10:43:14.81</time>
<name>1091</name>
</trkpt>
<trkpt lat="48.934410" lon="8.677478">
<ele>333.0</ele>
<speed>3.3</speed>
<course>49.1</course>
<desc>Speed 3.3 km/h Distance 1.47 km</desc>
<time>2010-03-14T10:43:15.81</time>
<name>1092</name>
</trkpt>
<trkpt lat="48.934417" lon="8.677490">
<ele>333.0</ele>
<speed>3.8</speed>
<course>66.4</course>
<desc>Speed 3.8 km/h Distance 1.47 km</desc>
<time>2010-03-14T10:43:16.81</time>
<name>1093</name>
</trkpt>
<trkpt lat="48.934420" lon="8.677502">
<ele>333.0</ele>
<speed>3.5</speed>
<course>60.3</course>
<desc>Speed 3.5 km/h Distance 1.47 km</desc>
<time>2010-03-14T10:43:17.81</time>
<name>1094</name>
</trkpt>
<trkpt lat="48.934425" lon="8.677515">
<ele>333.0</ele>
<speed>4.0</speed>
<course>90.0</course>
<desc>Speed 4.0 km/h Distance 1.47 km</desc>
<time>2010-03-14T10:43:18.81</time>
<name>1095</name>
</trkpt>
<trkpt lat="48.934425" lon="8.677540">
<ele>333.0</ele>
<speed>5.8</speed>
<course>71.3</course>
<desc>Speed 5.8 km/h Distance 1.48 km</desc>
<time>2010-03-14T10:43:19.81</time>
<name>1096</name>
</trkpt>
<trkpt lat="48.934428" lon="8.677555">
<ele>332.5</ele>
<speed>3.6</speed>
<course>106.9</course>
<desc>Speed 3.6 km/h Distance 1.48 km</desc>
<time>2010-03-14T10:43:20.81</time>
<name>1097</name>
</trkpt>
<trkpt lat="48.934425" lon="8.677572">
<ele>332.0</ele>
<speed>4.2</speed>
<course>82.1</course>
<desc>Speed 4.2 km/h Distance 1.48 km</desc>
<time>2010-03-14T10:43:21.81</time>
<name>1098</name>
</trkpt>
<trkpt lat="48.934427" lon="8.677590">
<ele>331.5</ele>
<speed>4.2</speed>
<course>81.4</course>
<desc>Speed 4.2 km/h Distance 1.48 km</desc>
<time>2010-03-14T10:43:22.81</time>
<name>1099</name>
</trkpt>
<trkpt lat="48.934428" lon="8.677607">
<ele>331.0</ele>
<speed>3.9</speed>
<course>90.0</course>
<desc>Speed 3.9 km/h Distance 1.48 km</desc>
<time>2010-03-14T10:43:23.81</time>
<name>1100</name>
</trkpt>
<trkpt lat="48.934428" lon="8.677625">
<ele>330.5</ele>
<speed>4.1</speed>
<course>60.2</course>
<desc>Speed 4.1 km/h Distance 1.48 km</desc>
<time>2010-03-14T10:43:24.81</time>
<name>1101</name>
</trkpt>
<trkpt lat="48.934433" lon="8.677638">
<ele>330.5</ele>
<speed>3.1</speed>
<course>90.0</course>
<desc>Speed 3.1 km/h Distance 1.48 km</desc>
<time>2010-03-14T10:43:25.81</time>
<name>1102</name>
</trkpt>
<trkpt lat="48.934433" lon="8.677655">
<ele>330.0</ele>
<speed>4.2</speed>
<course>82.1</course>
<desc>Speed 4.2 km/h Distance 1.48 km</desc>
<time>2010-03-14T10:43:26.81</time>
<name>1103</name>
</trkpt>
<trkpt lat="48.934435" lon="8.677673">
<ele>329.5</ele>
<speed>4.3</speed>
<course>90.0</course>
<desc>Speed 4.3 km/h Distance 1.49 km</desc>
<time>2010-03-14T10:43:27.81</time>
<name>1104</name>
</trkpt>
<trkpt lat="48.934435" lon="8.677688">
<ele>329.5</ele>
<speed>4.0</speed>
<course>90.0</course>
<desc>Speed 4.0 km/h Distance 1.49 km</desc>
<time>2010-03-14T10:43:28.81</time>
<name>1105</name>
</trkpt>
<trkpt lat="48.934435" lon="8.677707">
<ele>329.5</ele>
<speed>4.6</speed>
<course>90.0</course>
<desc>Speed 4.6 km/h Distance 1.49 km</desc>
<time>2010-03-14T10:43:29.80</time>
<name>1106</name>
</trkpt>
<trkpt lat="48.934435" lon="8.677723">
<ele>329.5</ele>
<speed>4.1</speed>
<course>61.7</course>
<desc>Speed 4.1 km/h Distance 1.49 km</desc>
<time>2010-03-14T10:43:30.80</time>
<name>1107</name>
</trkpt>
<trkpt lat="48.934445" lon="8.677752">
<ele>330.0</ele>
<speed>5.4</speed>
<course>98.7</course>
<desc>Speed 5.4 km/h Distance 1.49 km</desc>
<time>2010-03-14T10:43:31.81</time>
<name>1108</name>
</trkpt>
<trkpt lat="48.934443" lon="8.677768">
<ele>329.5</ele>
<speed>3.7</speed>
<course>20.9</course>
<desc>Speed 3.7 km/h Distance 1.49 km</desc>
<time>2010-03-14T10:43:32.80</time>
<name>1109</name>
</trkpt>
<trkpt lat="48.934455" lon="8.677775">
<ele>330.5</ele>
<speed>4.2</speed>
<course>82.8</course>
<desc>Speed 4.2 km/h Distance 1.49 km</desc>
<time>2010-03-14T10:43:33.80</time>
<name>1110</name>
</trkpt>
<trkpt lat="48.934457" lon="8.677795">
<ele>330.5</ele>
<speed>4.6</speed>
<course>69.2</course>
<desc>Speed 4.6 km/h Distance 1.50 km</desc>
<time>2010-03-14T10:43:34.81</time>
<name>1111</name>
</trkpt>
<trkpt lat="48.934460" lon="8.677808">
<ele>330.5</ele>
<speed>3.4</speed>
<course>60.3</course>
<desc>Speed 3.4 km/h Distance 1.50 km</desc>
<time>2010-03-14T10:43:35.80</time>
<name>1112</name>
</trkpt>
<trkpt lat="48.934465" lon="8.677822">
<ele>330.5</ele>
<speed>3.9</speed>
<course>65.5</course>
<desc>Speed 3.9 km/h Distance 1.50 km</desc>
<time>2010-03-14T10:43:36.80</time>
<name>1113</name>
</trkpt>
<trkpt lat="48.934470" lon="8.677838">
<ele>330.5</ele>
<speed>3.9</speed>
<course>73.1</course>
<desc>Speed 3.9 km/h Distance 1.50 km</desc>
<time>2010-03-14T10:43:37.80</time>
<name>1114</name>
</trkpt>
<trkpt lat="48.934473" lon="8.677855">
<ele>330.5</ele>
<speed>4.1</speed>
<course>106.9</course>
<desc>Speed 4.1 km/h Distance 1.50 km</desc>
<time>2010-03-14T10:43:38.80</time>
<name>1115</name>
</trkpt>
<trkpt lat="48.934468" lon="8.677880">
<ele>329.5</ele>
<speed>6.4</speed>
<course>84.2</course>
<desc>Speed 6.4 km/h Distance 1.50 km</desc>
<time>2010-03-14T10:43:39.80</time>
<name>1116</name>
</trkpt>
<trkpt lat="48.934470" lon="8.677905">
<ele>328.5</ele>
<speed>5.0</speed>
<course>52.7</course>
<desc>Speed 5.0 km/h Distance 1.50 km</desc>
<time>2010-03-14T10:43:40.80</time>
<name>1117</name>
</trkpt>
<trkpt lat="48.934480" lon="8.677925">
<ele>329.0</ele>
<speed>4.3</speed>
<course>90.0</course>
<desc>Speed 4.3 km/h Distance 1.51 km</desc>
<time>2010-03-14T10:43:41.80</time>
<name>1118</name>
</trkpt>
<trkpt lat="48.934480" lon="8.677945">
<ele>329.0</ele>
<speed>4.7</speed>
<course>90.0</course>
<desc>Speed 4.7 km/h Distance 1.51 km</desc>
<time>2010-03-14T10:43:42.80</time>
<name>1119</name>
</trkpt>
<trkpt lat="48.934480" lon="8.677967">
<ele>329.0</ele>
<speed>4.4</speed>
<course>90.0</course>
<desc>Speed 4.4 km/h Distance 1.51 km</desc>
<time>2010-03-14T10:43:43.80</time>
<name>1120</name>
</trkpt>
<trkpt lat="48.934480" lon="8.677988">
<ele>328.5</ele>
<speed>4.8</speed>
<course>90.0</course>
<desc>Speed 4.8 km/h Distance 1.51 km</desc>
<time>2010-03-14T10:43:44.80</time>
<name>1121</name>
</trkpt>
<trkpt lat="48.934480" lon="8.678013">
<ele>327.5</ele>
<speed>4.9</speed>
<course>83.8</course>
<desc>Speed 4.9 km/h Distance 1.51 km</desc>
<time>2010-03-14T10:43:45.80</time>
<name>1122</name>
</trkpt>
<trkpt lat="48.934482" lon="8.678037">
<ele>326.5</ele>
<speed>4.8</speed>
<course>82.1</course>
<desc>Speed 4.8 km/h Distance 1.51 km</desc>
<time>2010-03-14T10:43:46.80</time>
<name>1123</name>
</trkpt>
<trkpt lat="48.934483" lon="8.678055">
<ele>326.0</ele>
<speed>3.7</speed>
<course>74.5</course>
<desc>Speed 3.7 km/h Distance 1.52 km</desc>
<time>2010-03-14T10:43:47.80</time>
<name>1124</name>
</trkpt>
<trkpt lat="48.934487" lon="8.678073">
<ele>326.0</ele>
<speed>4.1</speed>
<course>12.3</course>
<desc>Speed 4.1 km/h Distance 1.52 km</desc>
<time>2010-03-14T10:43:48.79</time>
<name>1125</name>
</trkpt>
<trkpt lat="48.934507" lon="8.678080">
<ele>328.0</ele>
<speed>3.5</speed>
<course>73.0</course>
<desc>Speed 3.5 km/h Distance 1.52 km</desc>
<time>2010-03-14T10:43:49.80</time>
<name>1126</name>
</trkpt>
<trkpt lat="48.934510" lon="8.678097">
<ele>328.5</ele>
<speed>4.0</speed>
<course>74.5</course>
<desc>Speed 4.0 km/h Distance 1.52 km</desc>
<time>2010-03-14T10:43:50.79</time>
<name>1127</name>
</trkpt>
<trkpt lat="48.934513" lon="8.678115">
<ele>328.0</ele>
<speed>4.5</speed>
<course>18.1</course>
<desc>Speed 4.5 km/h Distance 1.52 km</desc>
<time>2010-03-14T10:43:51.79</time>
<name>1128</name>
</trkpt>
<trkpt lat="48.934530" lon="8.678123">
<ele>329.5</ele>
<speed>6.6</speed>
<course>90.0</course>
<desc>Speed 6.6 km/h Distance 1.52 km</desc>
<time>2010-03-14T10:43:52.79</time>
<name>1129</name>
</trkpt>
<trkpt lat="48.934530" lon="8.678145">
<ele>328.5</ele>
<speed>4.9</speed>
<course>69.2</course>
<desc>Speed 4.9 km/h Distance 1.53 km</desc>
<time>2010-03-14T10:43:53.79</time>
<name>1130</name>
</trkpt>
<trkpt lat="48.934535" lon="8.678165">
<ele>327.5</ele>
<speed>4.2</speed>
<course>70.6</course>
<desc>Speed 4.2 km/h Distance 1.53 km</desc>
<time>2010-03-14T10:43:54.79</time>
<name>1131</name>
</trkpt>
<trkpt lat="48.934540" lon="8.678187">
<ele>326.5</ele>
<speed>4.0</speed>
<course>37.5</course>
<desc>Speed 4.0 km/h Distance 1.53 km</desc>
<time>2010-03-14T10:43:55.79</time>
<name>1132</name>
</trkpt>
<trkpt lat="48.934550" lon="8.678198">
<ele>326.5</ele>
<speed>5.1</speed>
<course>61.0</course>
<desc>Speed 5.1 km/h Distance 1.53 km</desc>
<time>2010-03-14T10:43:56.79</time>
<name>1133</name>
</trkpt>
<trkpt lat="48.934557" lon="8.678217">
<ele>326.0</ele>
<speed>4.3</speed>
<course>52.7</course>
<desc>Speed 4.3 km/h Distance 1.53 km</desc>
<time>2010-03-14T10:43:57.79</time>
<name>1134</name>
</trkpt>
<trkpt lat="48.934565" lon="8.678233">
<ele>325.5</ele>
<speed>4.3</speed>
<course>55.3</course>
<desc>Speed 4.3 km/h Distance 1.53 km</desc>
<time>2010-03-14T10:43:58.79</time>
<name>1135</name>
</trkpt>
<trkpt lat="48.934573" lon="8.678252">
<ele>325.5</ele>
<speed>4.2</speed>
<course>33.3</course>
<desc>Speed 4.2 km/h Distance 1.54 km</desc>
<time>2010-03-14T10:43:59.79</time>
<name>1136</name>
</trkpt>
<trkpt lat="48.934587" lon="8.678265">
<ele>326.0</ele>
<speed>4.4</speed>
<course>30.3</course>
<desc>Speed 4.4 km/h Distance 1.54 km</desc>
<time>2010-03-14T10:44:00.80</time>
<name>1137</name>
</trkpt>
<trkpt lat="48.934602" lon="8.678278">
<ele>326.0</ele>
<speed>5.0</speed>
<course>44.5</course>
<desc>Speed 5.0 km/h Distance 1.54 km</desc>
<time>2010-03-14T10:44:01.79</time>
<name>1138</name>
</trkpt>
<trkpt lat="48.934612" lon="8.678293">
<ele>325.5</ele>
<speed>3.7</speed>
<course>18.1</course>
<desc>Speed 3.7 km/h Distance 1.54 km</desc>
<time>2010-03-14T10:44:02.79</time>
<name>1139</name>
</trkpt>
<trkpt lat="48.934628" lon="8.678302">
<ele>326.0</ele>
<speed>4.9</speed>
<course>14.9</course>
<desc>Speed 4.9 km/h Distance 1.54 km</desc>
<time>2010-03-14T10:44:03.79</time>
<name>1140</name>
</trkpt>
<trkpt lat="48.934645" lon="8.678308">
<ele>327.0</ele>
<speed>4.9</speed>
<course>16.6</course>
<desc>Speed 4.9 km/h Distance 1.54 km</desc>
<time>2010-03-14T10:44:04.79</time>
<name>1141</name>
</trkpt>
<trkpt lat="48.934663" lon="8.678317">
<ele>327.5</ele>
<speed>3.6</speed>
<course>7.0</course>
<desc>Speed 3.6 km/h Distance 1.55 km</desc>
<time>2010-03-14T10:44:05.78</time>
<name>1142</name>
</trkpt>
<trkpt lat="48.934682" lon="8.678320">
<ele>328.5</ele>
<speed>4.7</speed>
<course>22.6</course>
<desc>Speed 4.7 km/h Distance 1.55 km</desc>
<time>2010-03-14T10:44:06.78</time>
<name>1143</name>
</trkpt>
<trkpt lat="48.934695" lon="8.678328">
<ele>329.0</ele>
<speed>3.3</speed>
<course>5.5</course>
<desc>Speed 3.3 km/h Distance 1.55 km</desc>
<time>2010-03-14T10:44:07.79</time>
<name>1144</name>
</trkpt>
<trkpt lat="48.934717" lon="8.678332">
<ele>330.0</ele>
<speed>5.1</speed>
<course>44.8</course>
<desc>Speed 5.1 km/h Distance 1.55 km</desc>
<time>2010-03-14T10:44:08.78</time>
<name>1145</name>
</trkpt>
<trkpt lat="48.934723" lon="8.678342">
<ele>329.0</ele>
<speed>2.7</speed>
<course>29.4</course>
<desc>Speed 2.7 km/h Distance 1.55 km</desc>
<time>2010-03-14T10:44:09.78</time>
<name>1146</name>
</trkpt>
<trkpt lat="48.934735" lon="8.678352">
<ele>328.5</ele>
<speed>3.1</speed>
<course>42.5</course>
<desc>Speed 3.1 km/h Distance 1.56 km</desc>
<time>2010-03-14T10:44:10.78</time>
<name>1147</name>
</trkpt>
<trkpt lat="48.934743" lon="8.678363">
<ele>327.5</ele>
<speed>2.9</speed>
<course>49.1</course>
<desc>Speed 2.9 km/h Distance 1.56 km</desc>
<time>2010-03-14T10:44:11.78</time>
<name>1148</name>
</trkpt>
<trkpt lat="48.934750" lon="8.678375">
<ele>326.5</ele>
<speed>2.8</speed>
<course>44.5</course>
<desc>Speed 2.8 km/h Distance 1.56 km</desc>
<time>2010-03-14T10:44:12.78</time>
<name>1149</name>
</trkpt>
<trkpt lat="48.934757" lon="8.678385">
<ele>325.5</ele>
<speed>2.9</speed>
<course>26.4</course>
<desc>Speed 2.9 km/h Distance 1.56 km</desc>
<time>2010-03-14T10:44:13.78</time>
<name>1150</name>
</trkpt>
<trkpt lat="48.934763" lon="8.678390">
<ele>325.0</ele>
<speed>2.4</speed>
<course>8.8</course>
<desc>Speed 2.4 km/h Distance 1.56 km</desc>
<time>2010-03-14T10:44:14.78</time>
<name>1151</name>
</trkpt>
<trkpt lat="48.934778" lon="8.678393">
<ele>325.5</ele>
<speed>5.2</speed>
<course>47.4</course>
<desc>Speed 5.2 km/h Distance 1.56 km</desc>
<time>2010-03-14T10:44:15.78</time>
<name>1152</name>
</trkpt>
<trkpt lat="48.934783" lon="8.678402">
<ele>325.0</ele>
<speed>2.8</speed>
<course>16.7</course>
<desc>Speed 2.8 km/h Distance 1.56 km</desc>
<time>2010-03-14T10:44:16.80</time>
<name>1153</name>
</trkpt>
<trkpt lat="48.934805" lon="8.678412">
<ele>327.0</ele>
<speed>4.9</speed>
<course>20.9</course>
<desc>Speed 4.9 km/h Distance 1.56 km</desc>
<time>2010-03-14T10:44:17.78</time>
<name>1154</name>
</trkpt>
<trkpt lat="48.934817" lon="8.678418">
<ele>327.5</ele>
<speed>4.8</speed>
<course>16.0</course>
<desc>Speed 4.8 km/h Distance 1.57 km</desc>
<time>2010-03-14T10:44:18.78</time>
<name>1155</name>
</trkpt>
<trkpt lat="48.934828" lon="8.678423">
<ele>327.5</ele>
<speed>4.8</speed>
<course>8.8</course>
<desc>Speed 4.8 km/h Distance 1.57 km</desc>
<time>2010-03-14T10:44:19.80</time>
<name>1156</name>
</trkpt>
<trkpt lat="48.934843" lon="8.678427">
<ele>328.0</ele>
<speed>5.1</speed>
<course>8.1</course>
<desc>Speed 5.1 km/h Distance 1.57 km</desc>
<time>2010-03-14T10:44:20.78</time>
<name>1157</name>
</trkpt>
<trkpt lat="48.934858" lon="8.678430">
<ele>328.0</ele>
<speed>5.3</speed>
<course>12.6</course>
<desc>Speed 5.3 km/h Distance 1.57 km</desc>
<time>2010-03-14T10:44:21.77</time>
<name>1158</name>
</trkpt>
<trkpt lat="48.934873" lon="8.678435">
<ele>328.5</ele>
<speed>4.9</speed>
<course>11.2</course>
<desc>Speed 4.9 km/h Distance 1.57 km</desc>
<time>2010-03-14T10:44:22.78</time>
<name>1159</name>
</trkpt>
<trkpt lat="48.934890" lon="8.678440">
<ele>328.5</ele>
<speed>4.9</speed>
<course>1.4</course>
<desc>Speed 4.9 km/h Distance 1.57 km</desc>
<time>2010-03-14T10:44:23.78</time>
<name>1160</name>
</trkpt>
<trkpt lat="48.934918" lon="8.678442">
<ele>331.5</ele>
<speed>4.3</speed>
<course>4.0</course>
<desc>Speed 4.3 km/h Distance 1.58 km</desc>
<time>2010-03-14T10:44:24.78</time>
<name>1161</name>
</trkpt>
<trkpt lat="48.934965" lon="8.678447">
<ele>334.5</ele>
<speed>4.8</speed>
<course>14.6</course>
<desc>Speed 4.8 km/h Distance 1.58 km</desc>
<time>2010-03-14T10:44:26.77</time>
<name>1162</name>
</trkpt>
<trkpt lat="48.934990" lon="8.678457">
<ele>337.0</ele>
<speed>6.0</speed>
<course>1.2</course>
<desc>Speed 6.0 km/h Distance 1.59 km</desc>
<time>2010-03-14T10:44:27.77</time>
<name>1163</name>
</trkpt>
<trkpt lat="48.935010" lon="8.678457">
<ele>339.5</ele>
<speed>3.0</speed>
<course>351.3</course>
<desc>Speed 3.0 km/h Distance 1.59 km</desc>
<time>2010-03-14T10:44:28.79</time>
<name>1164</name>
</trkpt>
<trkpt lat="48.935032" lon="8.678452">
<ele>342.0</ele>
<speed>4.2</speed>
<course>352.3</course>
<desc>Speed 4.2 km/h Distance 1.59 km</desc>
<time>2010-03-14T10:44:29.77</time>
<name>1165</name>
</trkpt>
<trkpt lat="48.935048" lon="8.678448">
<ele>342.0</ele>
<speed>5.2</speed>
<course>1.2</course>
<desc>Speed 5.2 km/h Distance 1.59 km</desc>
<time>2010-03-14T10:44:30.76</time>
<name>1166</name>
</trkpt>
<trkpt lat="48.935062" lon="8.678448">
<ele>342.5</ele>
<speed>4.6</speed>
<course>0.0</course>
<desc>Speed 4.6 km/h Distance 1.59 km</desc>
<time>2010-03-14T10:44:31.79</time>
<name>1167</name>
</trkpt>
<trkpt lat="48.935078" lon="8.678448">
<ele>342.5</ele>
<speed>5.1</speed>
<course>3.8</course>
<desc>Speed 5.1 km/h Distance 1.60 km</desc>
<time>2010-03-14T10:44:32.77</time>
<name>1168</name>
</trkpt>
<trkpt lat="48.935093" lon="8.678450">
<ele>343.0</ele>
<speed>5.2</speed>
<course>7.7</course>
<desc>Speed 5.2 km/h Distance 1.60 km</desc>
<time>2010-03-14T10:44:33.77</time>
<name>1169</name>
</trkpt>
<trkpt lat="48.935110" lon="8.678453">
<ele>343.0</ele>
<speed>5.4</speed>
<course>4.1</course>
<desc>Speed 5.4 km/h Distance 1.60 km</desc>
<time>2010-03-14T10:44:34.77</time>
<name>1170</name>
</trkpt>
<trkpt lat="48.935140" lon="8.678457">
<ele>346.0</ele>
<speed>5.3</speed>
<course>8.1</course>
<desc>Speed 5.3 km/h Distance 1.60 km</desc>
<time>2010-03-14T10:44:35.77</time>
<name>1171</name>
</trkpt>
<trkpt lat="48.935155" lon="8.678460">
<ele>346.5</ele>
<speed>5.1</speed>
<course>8.1</course>
<desc>Speed 5.1 km/h Distance 1.60 km</desc>
<time>2010-03-14T10:44:36.76</time>
<name>1172</name>
</trkpt>
<trkpt lat="48.935170" lon="8.678463">
<ele>346.5</ele>
<speed>5.3</speed>
<course>1.9</course>
<desc>Speed 5.3 km/h Distance 1.61 km</desc>
<time>2010-03-14T10:44:37.76</time>
<name>1173</name>
</trkpt>
<trkpt lat="48.935185" lon="8.678465">
<ele>346.5</ele>
<speed>5.1</speed>
<course>13.5</course>
<desc>Speed 5.1 km/h Distance 1.61 km</desc>
<time>2010-03-14T10:44:38.77</time>
<name>1174</name>
</trkpt>
<trkpt lat="48.935198" lon="8.678470">
<ele>347.0</ele>
<speed>5.0</speed>
<course>2.5</course>
<desc>Speed 5.0 km/h Distance 1.61 km</desc>
<time>2010-03-14T10:44:39.76</time>
<name>1175</name>
</trkpt>
<trkpt lat="48.935217" lon="8.678472">
<ele>347.5</ele>
<speed>4.7</speed>
<course>8.8</course>
<desc>Speed 4.7 km/h Distance 1.61 km</desc>
<time>2010-03-14T10:44:40.76</time>
<name>1176</name>
</trkpt>
<trkpt lat="48.935232" lon="8.678475">
<ele>348.0</ele>
<speed>5.0</speed>
<course>20.6</course>
<desc>Speed 5.0 km/h Distance 1.61 km</desc>
<time>2010-03-14T10:44:41.76</time>
<name>1177</name>
</trkpt>
<trkpt lat="48.935243" lon="8.678482">
<ele>348.0</ele>
<speed>4.6</speed>
<course>356.2</course>
<desc>Speed 4.6 km/h Distance 1.61 km</desc>
<time>2010-03-14T10:44:42.77</time>
<name>1178</name>
</trkpt>
<trkpt lat="48.935258" lon="8.678480">
<ele>348.0</ele>
<speed>5.1</speed>
<course>0.0</course>
<desc>Speed 5.1 km/h Distance 1.62 km</desc>
<time>2010-03-14T10:44:43.77</time>
<name>1179</name>
</trkpt>
<trkpt lat="48.935280" lon="8.678480">
<ele>349.0</ele>
<speed>5.4</speed>
<course>7.7</course>
<desc>Speed 5.4 km/h Distance 1.62 km</desc>
<time>2010-03-14T10:44:44.76</time>
<name>1180</name>
</trkpt>
<trkpt lat="48.935297" lon="8.678483">
<ele>349.0</ele>
<speed>5.9</speed>
<course>11.2</course>
<desc>Speed 5.9 km/h Distance 1.62 km</desc>
<time>2010-03-14T10:44:45.76</time>
<name>1181</name>
</trkpt>
<trkpt lat="48.935313" lon="8.678488">
<ele>349.0</ele>
<speed>5.9</speed>
<course>23.7</course>
<desc>Speed 5.9 km/h Distance 1.62 km</desc>
<time>2010-03-14T10:44:46.77</time>
<name>1182</name>
</trkpt>
<trkpt lat="48.935328" lon="8.678498">
<ele>349.5</ele>
<speed>5.4</speed>
<course>30.0</course>
<desc>Speed 5.4 km/h Distance 1.62 km</desc>
<time>2010-03-14T10:44:47.76</time>
<name>1183</name>
</trkpt>
<trkpt lat="48.935342" lon="8.678510">
<ele>349.5</ele>
<speed>5.3</speed>
<course>26.0</course>
<desc>Speed 5.3 km/h Distance 1.63 km</desc>
<time>2010-03-14T10:44:48.76</time>
<name>1184</name>
</trkpt>
<trkpt lat="48.935355" lon="8.678520">
<ele>349.5</ele>
<speed>5.6</speed>
<course>27.9</course>
<desc>Speed 5.6 km/h Distance 1.63 km</desc>
<time>2010-03-14T10:44:49.76</time>
<name>1185</name>
</trkpt>
<trkpt lat="48.935363" lon="8.678527">
<ele>349.5</ele>
<speed>3.1</speed>
<course>18.2</course>
<desc>Speed 3.1 km/h Distance 1.63 km</desc>
<time>2010-03-14T10:44:50.76</time>
<name>1186</name>
</trkpt>
<trkpt lat="48.935373" lon="8.678532">
<ele>349.5</ele>
<speed>3.6</speed>
<course>7.7</course>
<desc>Speed 3.6 km/h Distance 1.63 km</desc>
<time>2010-03-14T10:44:51.76</time>
<name>1187</name>
</trkpt>
<trkpt lat="48.935382" lon="8.678533">
<ele>349.5</ele>
<speed>2.9</speed>
<course>49.7</course>
<desc>Speed 2.9 km/h Distance 1.63 km</desc>
<time>2010-03-14T10:44:52.76</time>
<name>1188</name>
</trkpt>
<trkpt lat="48.935390" lon="8.678548">
<ele>349.5</ele>
<speed>4.4</speed>
<course>29.8</course>
<desc>Speed 4.4 km/h Distance 1.63 km</desc>
<time>2010-03-14T10:44:53.76</time>
<name>1189</name>
</trkpt>
<trkpt lat="48.935403" lon="8.678560">
<ele>350.0</ele>
<speed>4.6</speed>
<course>18.4</course>
<desc>Speed 4.6 km/h Distance 1.63 km</desc>
<time>2010-03-14T10:44:54.78</time>
<name>1190</name>
</trkpt>
<trkpt lat="48.935417" lon="8.678567">
<ele>350.0</ele>
<speed>5.1</speed>
<course>5.3</course>
<desc>Speed 5.1 km/h Distance 1.63 km</desc>
<time>2010-03-14T10:44:55.76</time>
<name>1191</name>
</trkpt>
<trkpt lat="48.935430" lon="8.678568">
<ele>350.0</ele>
<speed>5.3</speed>
<course>5.3</course>
<desc>Speed 5.3 km/h Distance 1.64 km</desc>
<time>2010-03-14T10:44:56.76</time>
<name>1192</name>
</trkpt>
<trkpt lat="48.935443" lon="8.678570">
<ele>350.0</ele>
<speed>4.7</speed>
<course>12.6</course>
<desc>Speed 4.7 km/h Distance 1.64 km</desc>
<time>2010-03-14T10:44:57.76</time>
<name>1193</name>
</trkpt>
<trkpt lat="48.935458" lon="8.678575">
<ele>350.0</ele>
<speed>4.9</speed>
<course>18.4</course>
<desc>Speed 4.9 km/h Distance 1.64 km</desc>
<time>2010-03-14T10:44:58.76</time>
<name>1194</name>
</trkpt>
<trkpt lat="48.935472" lon="8.678582">
<ele>350.5</ele>
<speed>4.9</speed>
<course>26.2</course>
<desc>Speed 4.9 km/h Distance 1.64 km</desc>
<time>2010-03-14T10:44:59.76</time>
<name>1195</name>
</trkpt>
<trkpt lat="48.935485" lon="8.678592">
<ele>350.5</ele>
<speed>4.9</speed>
<course>18.1</course>
<desc>Speed 4.9 km/h Distance 1.64 km</desc>
<time>2010-03-14T10:45:00.76</time>
<name>1196</name>
</trkpt>
<trkpt lat="48.935498" lon="8.678598">
<ele>350.5</ele>
<speed>5.0</speed>
<course>14.9</course>
<desc>Speed 5.0 km/h Distance 1.64 km</desc>
<time>2010-03-14T10:45:01.75</time>
<name>1197</name>
</trkpt>
<trkpt lat="48.935515" lon="8.678605">
<ele>351.5</ele>
<speed>4.5</speed>
<course>36.9</course>
<desc>Speed 4.5 km/h Distance 1.65 km</desc>
<time>2010-03-14T10:45:02.77</time>
<name>1198</name>
</trkpt>
<trkpt lat="48.935527" lon="8.678618">
<ele>351.5</ele>
<speed>4.8</speed>
<course>37.5</course>
<desc>Speed 4.8 km/h Distance 1.65 km</desc>
<time>2010-03-14T10:45:03.75</time>
<name>1199</name>
</trkpt>
<trkpt lat="48.935537" lon="8.678630">
<ele>351.5</ele>
<speed>4.4</speed>
<course>41.4</course>
<desc>Speed 4.4 km/h Distance 1.65 km</desc>
<time>2010-03-14T10:45:04.75</time>
<name>1200</name>
</trkpt>
<trkpt lat="48.935547" lon="8.678643">
<ele>351.5</ele>
<speed>4.5</speed>
<course>44.7</course>
<desc>Speed 4.5 km/h Distance 1.65 km</desc>
<time>2010-03-14T10:45:05.78</time>
<name>1201</name>
</trkpt>
<trkpt lat="48.935557" lon="8.678658">
<ele>351.5</ele>
<speed>4.7</speed>
<course>55.9</course>
<desc>Speed 4.7 km/h Distance 1.65 km</desc>
<time>2010-03-14T10:45:06.75</time>
<name>1202</name>
</trkpt>
<trkpt lat="48.935563" lon="8.678673">
<ele>351.5</ele>
<speed>4.3</speed>
<course>58.7</course>
<desc>Speed 4.3 km/h Distance 1.65 km</desc>
<time>2010-03-14T10:45:07.74</time>
<name>1203</name>
</trkpt>
<trkpt lat="48.935570" lon="8.678690">
<ele>351.5</ele>
<speed>4.5</speed>
<course>60.3</course>
<desc>Speed 4.5 km/h Distance 1.65 km</desc>
<time>2010-03-14T10:45:08.77</time>
<name>1204</name>
</trkpt>
<trkpt lat="48.935580" lon="8.678717">
<ele>353.0</ele>
<speed>4.7</speed>
<course>81.3</course>
<desc>Speed 4.7 km/h Distance 1.66 km</desc>
<time>2010-03-14T10:45:09.75</time>
<name>1205</name>
</trkpt>
<trkpt lat="48.935582" lon="8.678733">
<ele>353.0</ele>
<speed>4.4</speed>
<course>81.3</course>
<desc>Speed 4.4 km/h Distance 1.66 km</desc>
<time>2010-03-14T10:45:10.75</time>
<name>1206</name>
</trkpt>
<trkpt lat="48.935583" lon="8.678750">
<ele>353.0</ele>
<speed>4.4</speed>
<course>90.0</course>
<desc>Speed 4.4 km/h Distance 1.66 km</desc>
<time>2010-03-14T10:45:11.74</time>
<name>1207</name>
</trkpt>
<trkpt lat="48.935583" lon="8.678768">
<ele>353.0</ele>
<speed>4.4</speed>
<course>90.0</course>
<desc>Speed 4.4 km/h Distance 1.66 km</desc>
<time>2010-03-14T10:45:12.75</time>
<name>1208</name>
</trkpt>
<trkpt lat="48.935583" lon="8.678785">
<ele>353.0</ele>
<speed>4.2</speed>
<course>98.7</course>
<desc>Speed 4.2 km/h Distance 1.66 km</desc>
<time>2010-03-14T10:45:13.75</time>
<name>1209</name>
</trkpt>
<trkpt lat="48.935582" lon="8.678802">
<ele>353.0</ele>
<speed>4.4</speed>
<course>97.2</course>
<desc>Speed 4.4 km/h Distance 1.66 km</desc>
<time>2010-03-14T10:45:14.75</time>
<name>1210</name>
</trkpt>
<trkpt lat="48.935580" lon="8.678822">
<ele>353.0</ele>
<speed>4.7</speed>
<course>98.7</course>
<desc>Speed 4.7 km/h Distance 1.66 km</desc>
<time>2010-03-14T10:45:15.74</time>
<name>1211</name>
</trkpt>
<trkpt lat="48.935578" lon="8.678838">
<ele>353.0</ele>
<speed>4.1</speed>
<course>98.7</course>
<desc>Speed 4.1 km/h Distance 1.67 km</desc>
<time>2010-03-14T10:45:16.74</time>
<name>1212</name>
</trkpt>
<trkpt lat="48.935577" lon="8.678855">
<ele>353.0</ele>
<speed>4.3</speed>
<course>90.0</course>
<desc>Speed 4.3 km/h Distance 1.67 km</desc>
<time>2010-03-14T10:45:17.74</time>
<name>1213</name>
</trkpt>
<trkpt lat="48.935577" lon="8.678872">
<ele>353.0</ele>
<speed>4.2</speed>
<course>104.2</course>
<desc>Speed 4.2 km/h Distance 1.67 km</desc>
<time>2010-03-14T10:45:18.75</time>
<name>1214</name>
</trkpt>
<trkpt lat="48.935573" lon="8.678892">
<ele>353.0</ele>
<speed>4.8</speed>
<course>98.7</course>
<desc>Speed 4.8 km/h Distance 1.67 km</desc>
<time>2010-03-14T10:45:19.74</time>
<name>1215</name>
</trkpt>
<trkpt lat="48.935572" lon="8.678908">
<ele>352.5</ele>
<speed>4.5</speed>
<course>81.3</course>
<desc>Speed 4.5 km/h Distance 1.67 km</desc>
<time>2010-03-14T10:45:20.74</time>
<name>1216</name>
</trkpt>
<trkpt lat="48.935573" lon="8.678925">
<ele>352.5</ele>
<speed>3.9</speed>
<course>97.2</course>
<desc>Speed 3.9 km/h Distance 1.67 km</desc>
<time>2010-03-14T10:45:21.74</time>
<name>1217</name>
</trkpt>
<trkpt lat="48.935572" lon="8.678945">
<ele>352.5</ele>
<speed>4.8</speed>
<course>90.0</course>
<desc>Speed 4.8 km/h Distance 1.67 km</desc>
<time>2010-03-14T10:45:22.74</time>
<name>1218</name>
</trkpt>
<trkpt lat="48.935572" lon="8.678967">
<ele>352.5</ele>
<speed>5.0</speed>
<course>82.1</course>
<desc>Speed 5.0 km/h Distance 1.68 km</desc>
<time>2010-03-14T10:45:23.74</time>
<name>1219</name>
</trkpt>
<trkpt lat="48.935573" lon="8.678985">
<ele>352.5</ele>
<speed>4.2</speed>
<course>90.0</course>
<desc>Speed 4.2 km/h Distance 1.68 km</desc>
<time>2010-03-14T10:45:24.74</time>
<name>1220</name>
</trkpt>
<trkpt lat="48.935573" lon="8.679002">
<ele>352.5</ele>
<speed>4.4</speed>
<course>90.0</course>
<desc>Speed 4.4 km/h Distance 1.68 km</desc>
<time>2010-03-14T10:45:25.74</time>
<name>1221</name>
</trkpt>
<trkpt lat="48.935573" lon="8.679022">
<ele>352.0</ele>
<speed>5.0</speed>
<course>90.0</course>
<desc>Speed 5.0 km/h Distance 1.68 km</desc>
<time>2010-03-14T10:45:26.75</time>
<name>1222</name>
</trkpt>
<trkpt lat="48.935573" lon="8.679042">
<ele>352.0</ele>
<speed>4.7</speed>
<course>90.0</course>
<desc>Speed 4.7 km/h Distance 1.68 km</desc>
<time>2010-03-14T10:45:27.74</time>
<name>1223</name>
</trkpt>
<trkpt lat="48.935573" lon="8.679065">
<ele>352.0</ele>
<speed>4.5</speed>
<course>52.7</course>
<desc>Speed 4.5 km/h Distance 1.68 km</desc>
<time>2010-03-14T10:45:28.74</time>
<name>1224</name>
</trkpt>
<trkpt lat="48.935582" lon="8.679082">
<ele>352.5</ele>
<speed>4.1</speed>
<course>69.2</course>
<desc>Speed 4.1 km/h Distance 1.68 km</desc>
<time>2010-03-14T10:45:29.74</time>
<name>1225</name>
</trkpt>
<trkpt lat="48.935587" lon="8.679102">
<ele>352.5</ele>
<speed>4.1</speed>
<course>63.1</course>
<desc>Speed 4.1 km/h Distance 1.69 km</desc>
<time>2010-03-14T10:45:30.74</time>
<name>1226</name>
</trkpt>
<trkpt lat="48.935592" lon="8.679117">
<ele>352.5</ele>
<speed>4.0</speed>
<course>73.1</course>
<desc>Speed 4.0 km/h Distance 1.69 km</desc>
<time>2010-03-14T10:45:31.74</time>
<name>1227</name>
</trkpt>
<trkpt lat="48.935595" lon="8.679133">
<ele>352.0</ele>
<speed>4.4</speed>
<course>56.0</course>
<desc>Speed 4.4 km/h Distance 1.69 km</desc>
<time>2010-03-14T10:45:32.76</time>
<name>1228</name>
</trkpt>
<trkpt lat="48.935602" lon="8.679148">
<ele>352.0</ele>
<speed>4.7</speed>
<course>33.4</course>
<desc>Speed 4.7 km/h Distance 1.69 km</desc>
<time>2010-03-14T10:45:33.74</time>
<name>1229</name>
</trkpt>
<trkpt lat="48.935612" lon="8.679158">
<ele>352.0</ele>
<speed>4.8</speed>
<course>33.4</course>
<desc>Speed 4.8 km/h Distance 1.69 km</desc>
<time>2010-03-14T10:45:34.74</time>
<name>1230</name>
</trkpt>
<trkpt lat="48.935622" lon="8.679168">
<ele>352.0</ele>
<speed>4.6</speed>
<course>29.4</course>
<desc>Speed 4.6 km/h Distance 1.69 km</desc>
<time>2010-03-14T10:45:35.74</time>
<name>1231</name>
</trkpt>
<trkpt lat="48.935633" lon="8.679178">
<ele>352.0</ele>
<speed>4.8</speed>
<course>14.0</course>
<desc>Speed 4.8 km/h Distance 1.69 km</desc>
<time>2010-03-14T10:45:36.74</time>
<name>1232</name>
</trkpt>
<trkpt lat="48.935647" lon="8.679183">
<ele>352.5</ele>
<speed>4.8</speed>
<course>22.1</course>
<desc>Speed 4.8 km/h Distance 1.70 km</desc>
<time>2010-03-14T10:45:37.74</time>
<name>1233</name>
</trkpt>
<trkpt lat="48.935660" lon="8.679192">
<ele>353.0</ele>
<speed>4.9</speed>
<course>16.6</course>
<desc>Speed 4.9 km/h Distance 1.70 km</desc>
<time>2010-03-14T10:45:38.76</time>
<name>1234</name>
</trkpt>
<trkpt lat="48.935675" lon="8.679198">
<ele>353.5</ele>
<speed>5.1</speed>
<course>18.4</course>
<desc>Speed 5.1 km/h Distance 1.70 km</desc>
<time>2010-03-14T10:45:39.73</time>
<name>1235</name>
</trkpt>
<trkpt lat="48.935688" lon="8.679205">
<ele>354.5</ele>
<speed>4.2</speed>
<course>22.6</course>
<desc>Speed 4.2 km/h Distance 1.70 km</desc>
<time>2010-03-14T10:45:40.73</time>
<name>1236</name>
</trkpt>
<trkpt lat="48.935702" lon="8.679213">
<ele>355.0</ele>
<speed>5.1</speed>
<course>13.5</course>
<desc>Speed 5.1 km/h Distance 1.70 km</desc>
<time>2010-03-14T10:45:41.74</time>
<name>1237</name>
</trkpt>
<trkpt lat="48.935715" lon="8.679218">
<ele>355.5</ele>
<speed>4.8</speed>
<course>11.6</course>
<desc>Speed 4.8 km/h Distance 1.70 km</desc>
<time>2010-03-14T10:45:42.75</time>
<name>1238</name>
</trkpt>
<trkpt lat="48.935725" lon="8.679222">
<ele>355.5</ele>
<speed>4.1</speed>
<course>9.0</course>
<desc>Speed 4.1 km/h Distance 1.70 km</desc>
<time>2010-03-14T10:45:43.73</time>
<name>1239</name>
</trkpt>
<trkpt lat="48.935738" lon="8.679225">
<ele>356.0</ele>
<speed>5.0</speed>
<course>52.7</course>
<desc>Speed 5.0 km/h Distance 1.71 km</desc>
<time>2010-03-14T10:45:44.73</time>
<name>1240</name>
</trkpt>
<trkpt lat="48.935745" lon="8.679238">
<ele>355.5</ele>
<speed>4.1</speed>
<course>26.4</course>
<desc>Speed 4.1 km/h Distance 1.71 km</desc>
<time>2010-03-14T10:45:45.73</time>
<name>1241</name>
</trkpt>
<trkpt lat="48.935752" lon="8.679243">
<ele>354.0</ele>
<speed>2.6</speed>
<course>16.0</course>
<desc>Speed 2.6 km/h Distance 1.71 km</desc>
<time>2010-03-14T10:45:46.73</time>
<name>1242</name>
</trkpt>
<trkpt lat="48.935758" lon="8.679247">
<ele>354.0</ele>
<speed>2.6</speed>
<course>355.3</course>
<desc>Speed 2.6 km/h Distance 1.71 km</desc>
<time>2010-03-14T10:45:47.73</time>
<name>1243</name>
</trkpt>
<trkpt lat="48.935770" lon="8.679245">
<ele>354.5</ele>
<speed>3.2</speed>
<course>355.6</course>
<desc>Speed 3.2 km/h Distance 1.71 km</desc>
<time>2010-03-14T10:45:48.72</time>
<name>1244</name>
</trkpt>
<trkpt lat="48.935780" lon="8.679243">
<ele>355.0</ele>
<speed>3.6</speed>
<course>332.1</course>
<desc>Speed 3.6 km/h Distance 1.71 km</desc>
<time>2010-03-14T10:45:49.72</time>
<name>1245</name>
</trkpt>
<trkpt lat="48.935788" lon="8.679237">
<ele>354.5</ele>
<speed>3.5</speed>
<course>341.9</course>
<desc>Speed 3.5 km/h Distance 1.71 km</desc>
<time>2010-03-14T10:45:50.72</time>
<name>1246</name>
</trkpt>
<trkpt lat="48.935802" lon="8.679230">
<ele>355.0</ele>
<speed>3.2</speed>
<course>342.5</course>
<desc>Speed 3.2 km/h Distance 1.71 km</desc>
<time>2010-03-14T10:45:51.72</time>
<name>1247</name>
</trkpt>
<trkpt lat="48.935808" lon="8.679227">
<ele>354.5</ele>
<speed>3.5</speed>
<course>340.6</course>
<desc>Speed 3.5 km/h Distance 1.71 km</desc>
<time>2010-03-14T10:45:52.72</time>
<name>1248</name>
</trkpt>
<trkpt lat="48.935830" lon="8.679215">
<ele>355.5</ele>
<speed>2.7</speed>
<course>18.8</course>
<desc>Speed 2.7 km/h Distance 1.72 km</desc>
<time>2010-03-14T10:45:53.72</time>
<name>1249</name>
</trkpt>
<trkpt lat="48.935843" lon="8.679222">
<ele>354.5</ele>
<speed>5.9</speed>
<course>23.8</course>
<desc>Speed 5.9 km/h Distance 1.72 km</desc>
<time>2010-03-14T10:45:54.73</time>
<name>1250</name>
</trkpt>
<trkpt lat="48.935848" lon="8.679225">
<ele>353.5</ele>
<speed>2.7</speed>
<course>341.2</course>
<desc>Speed 2.7 km/h Distance 1.72 km</desc>
<time>2010-03-14T10:45:55.72</time>
<name>1251</name>
</trkpt>
<trkpt lat="48.935855" lon="8.679222">
<ele>353.0</ele>
<speed>2.8</speed>
<course>337.7</course>
<desc>Speed 2.8 km/h Distance 1.72 km</desc>
<time>2010-03-14T10:45:56.72</time>
<name>1252</name>
</trkpt>
<trkpt lat="48.935868" lon="8.679213">
<ele>354.0</ele>
<speed>2.4</speed>
<course>321.9</course>
<desc>Speed 2.4 km/h Distance 1.72 km</desc>
<time>2010-03-14T10:45:57.72</time>
<name>1253</name>
</trkpt>
<trkpt lat="48.935877" lon="8.679203">
<ele>354.0</ele>
<speed>4.1</speed>
<course>339.1</course>
<desc>Speed 4.1 km/h Distance 1.72 km</desc>
<time>2010-03-14T10:45:58.73</time>
<name>1254</name>
</trkpt>
<trkpt lat="48.935888" lon="8.679197">
<ele>354.0</ele>
<speed>4.8</speed>
<course>334.7</course>
<desc>Speed 4.8 km/h Distance 1.72 km</desc>
<time>2010-03-14T10:45:59.73</time>
<name>1255</name>
</trkpt>
<trkpt lat="48.935930" lon="8.679167">
<ele>356.0</ele>
<speed>3.7</speed>
<course>341.2</course>
<desc>Speed 3.7 km/h Distance 1.73 km</desc>
<time>2010-03-14T10:46:01.72</time>
<name>1256</name>
</trkpt>
<trkpt lat="48.935937" lon="8.679163">
<ele>355.5</ele>
<speed>3.1</speed>
<course>333.6</course>
<desc>Speed 3.1 km/h Distance 1.73 km</desc>
<time>2010-03-14T10:46:02.72</time>
<name>1257</name>
</trkpt>
<trkpt lat="48.935943" lon="8.679158">
<ele>355.0</ele>
<speed>2.7</speed>
<course>325.9</course>
<desc>Speed 2.7 km/h Distance 1.73 km</desc>
<time>2010-03-14T10:46:03.72</time>
<name>1258</name>
</trkpt>
<trkpt lat="48.935948" lon="8.679153">
<ele>354.0</ele>
<speed>1.8</speed>
<course>325.9</course>
<desc>Speed 1.8 km/h Distance 1.73 km</desc>
<time>2010-03-14T10:46:04.72</time>
<name>1259</name>
</trkpt>
<trkpt lat="48.935953" lon="8.679148">
<ele>353.0</ele>
<speed>1.9</speed>
<course>325.9</course>
<desc>Speed 1.9 km/h Distance 1.73 km</desc>
<time>2010-03-14T10:46:05.72</time>
<name>1260</name>
</trkpt>
<trkpt lat="48.935958" lon="8.679143">
<ele>352.5</ele>
<speed>2.5</speed>
<course>326.3</course>
<desc>Speed 2.5 km/h Distance 1.73 km</desc>
<time>2010-03-14T10:46:06.72</time>
<name>1261</name>
</trkpt>
<trkpt lat="48.935962" lon="8.679140">
<ele>351.5</ele>
<speed>1.5</speed>
<course>326.8</course>
<desc>Speed 1.5 km/h Distance 1.73 km</desc>
<time>2010-03-14T10:46:07.71</time>
<name>1262</name>
</trkpt>
<trkpt lat="48.935967" lon="8.679135">
<ele>351.0</ele>
<speed>1.8</speed>
<course>326.8</course>
<desc>Speed 1.8 km/h Distance 1.73 km</desc>
<time>2010-03-14T10:46:08.71</time>
<name>1263</name>
</trkpt>
<trkpt lat="48.935975" lon="8.679127">
<ele>350.5</ele>
<speed>3.3</speed>
<course>319.1</course>
<desc>Speed 3.3 km/h Distance 1.74 km</desc>
<time>2010-03-14T10:46:09.71</time>
<name>1264</name>
</trkpt>
<trkpt lat="48.935980" lon="8.679120">
<ele>349.5</ele>
<speed>2.8</speed>
<course>342.5</course>
<desc>Speed 2.8 km/h Distance 1.74 km</desc>
<time>2010-03-14T10:46:10.71</time>
<name>1265</name>
</trkpt>
<trkpt lat="48.935987" lon="8.679117">
<ele>349.0</ele>
<speed>2.4</speed>
<course>336.6</course>
<desc>Speed 2.4 km/h Distance 1.74 km</desc>
<time>2010-03-14T10:46:11.72</time>
<name>1266</name>
</trkpt>
<trkpt lat="48.935997" lon="8.679110">
<ele>348.5</ele>
<speed>0.9</speed>
<course>326.8</course>
<desc>Speed 0.9 km/h Distance 1.74 km</desc>
<time>2010-03-14T10:46:12.72</time>
<name>1267</name>
</trkpt>
<trkpt lat="48.936012" lon="8.679095">
<ele>349.0</ele>
<speed>6.7</speed>
<course>331.0</course>
<desc>Speed 6.7 km/h Distance 1.74 km</desc>
<time>2010-03-14T10:46:13.71</time>
<name>1268</name>
</trkpt>
<trkpt lat="48.936033" lon="8.679077">
<ele>351.0</ele>
<speed>2.9</speed>
<course>334.6</course>
<desc>Speed 2.9 km/h Distance 1.74 km</desc>
<time>2010-03-14T10:46:14.71</time>
<name>1269</name>
</trkpt>
<trkpt lat="48.936038" lon="8.679073">
<ele>350.0</ele>
<speed>1.6</speed>
<course>326.3</course>
<desc>Speed 1.6 km/h Distance 1.74 km</desc>
<time>2010-03-14T10:46:15.71</time>
<name>1270</name>
</trkpt>
<trkpt lat="48.936042" lon="8.679070">
<ele>350.0</ele>
<speed>1.2</speed>
<course>326.3</course>
<desc>Speed 1.2 km/h Distance 1.74 km</desc>
<time>2010-03-14T10:46:16.72</time>
<name>1271</name>
</trkpt>
<trkpt lat="48.936042" lon="8.679070">
<ele>350.0</ele>
<speed>0.2</speed>
<course>270.0</course>
<desc>Speed 0.2 km/h Distance 1.74 km</desc>
<time>2010-03-14T10:46:17.72</time>
<name>1272</name>
</trkpt>
<trkpt lat="48.936042" lon="8.679068">
<ele>350.5</ele>
<speed>0.1</speed>
<course>270.0</course>
<desc>Speed 0.1 km/h Distance 1.74 km</desc>
<time>2010-03-14T10:46:18.71</time>
<name>1273</name>
</trkpt>
<trkpt lat="48.936042" lon="8.679067">
<ele>350.5</ele>
<speed>0.4</speed>
<course>286.7</course>
<desc>Speed 0.4 km/h Distance 1.74 km</desc>
<time>2010-03-14T10:46:19.71</time>
<name>1274</name>
</trkpt>
<trkpt lat="48.936043" lon="8.679058">
<ele>350.5</ele>
<speed>1.5</speed>
<course>345.1</course>
<desc>Speed 1.5 km/h Distance 1.74 km</desc>
<time>2010-03-14T10:46:20.72</time>
<name>1275</name>
</trkpt>
<trkpt lat="48.936052" lon="8.679055">
<ele>350.0</ele>
<speed>2.4</speed>
<course>320.6</course>
<desc>Speed 2.4 km/h Distance 1.75 km</desc>
<time>2010-03-14T10:46:21.72</time>
<name>1276</name>
</trkpt>
<trkpt lat="48.936058" lon="8.679047">
<ele>350.0</ele>
<speed>2.2</speed>
<course>345.1</course>
<desc>Speed 2.2 km/h Distance 1.75 km</desc>
<time>2010-03-14T10:46:22.71</time>
<name>1277</name>
</trkpt>
<trkpt lat="48.936067" lon="8.679043">
<ele>349.5</ele>
<speed>2.2</speed>
<course>326.3</course>
<desc>Speed 2.2 km/h Distance 1.75 km</desc>
<time>2010-03-14T10:46:23.71</time>
<name>1278</name>
</trkpt>
<trkpt lat="48.936073" lon="8.679037">
<ele>349.0</ele>
<speed>3.3</speed>
<course>341.2</course>
<desc>Speed 3.3 km/h Distance 1.75 km</desc>
<time>2010-03-14T10:46:24.71</time>
<name>1279</name>
</trkpt>
<trkpt lat="48.936080" lon="8.679033">
<ele>348.5</ele>
<speed>2.4</speed>
<course>326.8</course>
<desc>Speed 2.4 km/h Distance 1.75 km</desc>
<time>2010-03-14T10:46:25.71</time>
<name>1280</name>
</trkpt>
<trkpt lat="48.936085" lon="8.679028">
<ele>348.0</ele>
<speed>2.5</speed>
<course>341.2</course>
<desc>Speed 2.5 km/h Distance 1.75 km</desc>
<time>2010-03-14T10:46:26.71</time>
<name>1281</name>
</trkpt>
<trkpt lat="48.936092" lon="8.679025">
<ele>347.5</ele>
<speed>2.4</speed>
<course>326.8</course>
<desc>Speed 2.4 km/h Distance 1.75 km</desc>
<time>2010-03-14T10:46:27.71</time>
<name>1282</name>
</trkpt>
<trkpt lat="48.936097" lon="8.679020">
<ele>347.0</ele>
<speed>2.4</speed>
<course>342.5</course>
<desc>Speed 2.4 km/h Distance 1.75 km</desc>
<time>2010-03-14T10:46:28.71</time>
<name>1283</name>
</trkpt>
<trkpt lat="48.936103" lon="8.679017">
<ele>347.0</ele>
<speed>2.7</speed>
<course>341.2</course>
<desc>Speed 2.7 km/h Distance 1.75 km</desc>
<time>2010-03-14T10:46:29.71</time>
<name>1284</name>
</trkpt>
<trkpt lat="48.936110" lon="8.679013">
<ele>346.0</ele>
<speed>2.2</speed>
<course>334.6</course>
<desc>Speed 2.2 km/h Distance 1.75 km</desc>
<time>2010-03-14T10:46:30.71</time>
<name>1285</name>
</trkpt>
<trkpt lat="48.936115" lon="8.679010">
<ele>345.5</ele>
<speed>2.3</speed>
<course>336.2</course>
<desc>Speed 2.3 km/h Distance 1.75 km</desc>
<time>2010-03-14T10:46:31.71</time>
<name>1286</name>
</trkpt>
<trkpt lat="48.936125" lon="8.679003">
<ele>345.0</ele>
<speed>3.5</speed>
<course>332.1</course>
<desc>Speed 3.5 km/h Distance 1.75 km</desc>
<time>2010-03-14T10:46:32.71</time>
<name>1287</name>
</trkpt>
<trkpt lat="48.936133" lon="8.678997">
<ele>345.0</ele>
<speed>3.9</speed>
<course>332.1</course>
<desc>Speed 3.9 km/h Distance 1.76 km</desc>
<time>2010-03-14T10:46:33.71</time>
<name>1288</name>
</trkpt>
<trkpt lat="48.936142" lon="8.678990">
<ele>344.5</ele>
<speed>3.2</speed>
<course>347.4</course>
<desc>Speed 3.2 km/h Distance 1.76 km</desc>
<time>2010-03-14T10:46:34.71</time>
<name>1289</name>
</trkpt>
<trkpt lat="48.936152" lon="8.678987">
<ele>344.0</ele>
<speed>3.3</speed>
<course>339.1</course>
<desc>Speed 3.3 km/h Distance 1.76 km</desc>
<time>2010-03-14T10:46:35.71</time>
<name>1290</name>
</trkpt>
<trkpt lat="48.936163" lon="8.678980">
<ele>343.5</ele>
<speed>4.1</speed>
<course>341.8</course>
<desc>Speed 4.1 km/h Distance 1.76 km</desc>
<time>2010-03-14T10:46:36.71</time>
<name>1291</name>
</trkpt>
<trkpt lat="48.936173" lon="8.678975">
<ele>342.5</ele>
<speed>2.1</speed>
<course>347.4</course>
<desc>Speed 2.1 km/h Distance 1.76 km</desc>
<time>2010-03-14T10:46:37.71</time>
<name>1292</name>
</trkpt>
<trkpt lat="48.936178" lon="8.678973">
<ele>342.0</ele>
<speed>1.6</speed>
<course>355.0</course>
<desc>Speed 1.6 km/h Distance 1.76 km</desc>
<time>2010-03-14T10:46:38.71</time>
<name>1293</name>
</trkpt>
<trkpt lat="48.936187" lon="8.678972">
<ele>341.0</ele>
<speed>2.6</speed>
<course>350.4</course>
<desc>Speed 2.6 km/h Distance 1.76 km</desc>
<time>2010-03-14T10:46:39.71</time>
<name>1294</name>
</trkpt>
<trkpt lat="48.936195" lon="8.678970">
<ele>340.5</ele>
<speed>2.9</speed>
<course>5.0</course>
<desc>Speed 2.9 km/h Distance 1.76 km</desc>
<time>2010-03-14T10:46:40.71</time>
<name>1295</name>
</trkpt>
<trkpt lat="48.936203" lon="8.678970">
<ele>340.5</ele>
<speed>2.4</speed>
<course>345.1</course>
<desc>Speed 2.4 km/h Distance 1.76 km</desc>
<time>2010-03-14T10:46:41.71</time>
<name>1296</name>
</trkpt>
<trkpt lat="48.936212" lon="8.678967">
<ele>340.0</ele>
<speed>2.9</speed>
<course>346.5</course>
<desc>Speed 2.9 km/h Distance 1.77 km</desc>
<time>2010-03-14T10:46:42.71</time>
<name>1297</name>
</trkpt>
<trkpt lat="48.936225" lon="8.678962">
<ele>340.0</ele>
<speed>2.6</speed>
<course>338.5</course>
<desc>Speed 2.6 km/h Distance 1.77 km</desc>
<time>2010-03-14T10:46:43.71</time>
<name>1298</name>
</trkpt>
<trkpt lat="48.936233" lon="8.678957">
<ele>340.0</ele>
<speed>2.8</speed>
<course>333.6</course>
<desc>Speed 2.8 km/h Distance 1.77 km</desc>
<time>2010-03-14T10:46:44.71</time>
<name>1299</name>
</trkpt>
<trkpt lat="48.936240" lon="8.678952">
<ele>339.0</ele>
<speed>2.3</speed>
<course>338.5</course>
<desc>Speed 2.3 km/h Distance 1.77 km</desc>
<time>2010-03-14T10:46:45.71</time>
<name>1300</name>
</trkpt>
<trkpt lat="48.936248" lon="8.678947">
<ele>338.5</ele>
<speed>2.4</speed>
<course>342.5</course>
<desc>Speed 2.4 km/h Distance 1.77 km</desc>
<time>2010-03-14T10:46:46.71</time>
<name>1301</name>
</trkpt>
<trkpt lat="48.936255" lon="8.678943">
<ele>338.5</ele>
<speed>1.7</speed>
<course>333.6</course>
<desc>Speed 1.7 km/h Distance 1.77 km</desc>
<time>2010-03-14T10:46:47.71</time>
<name>1302</name>
</trkpt>
<trkpt lat="48.936262" lon="8.678938">
<ele>338.5</ele>
<speed>2.6</speed>
<course>341.2</course>
<desc>Speed 2.6 km/h Distance 1.77 km</desc>
<time>2010-03-14T10:46:48.71</time>
<name>1303</name>
</trkpt>
<trkpt lat="48.936268" lon="8.678935">
<ele>338.0</ele>
<speed>2.3</speed>
<course>333.6</course>
<desc>Speed 2.3 km/h Distance 1.77 km</desc>
<time>2010-03-14T10:46:49.71</time>
<name>1304</name>
</trkpt>
<trkpt lat="48.936275" lon="8.678930">
<ele>338.0</ele>
<speed>2.2</speed>
<course>1.2</course>
<desc>Speed 2.2 km/h Distance 1.77 km</desc>
<time>2010-03-14T10:46:50.71</time>
<name>1305</name>
</trkpt>
<trkpt lat="48.936288" lon="8.678930">
<ele>338.0</ele>
<speed>2.7</speed>
<course>351.9</course>
<desc>Speed 2.7 km/h Distance 1.77 km</desc>
<time>2010-03-14T10:46:51.71</time>
<name>1306</name>
</trkpt>
<trkpt lat="48.936298" lon="8.678928">
<ele>337.5</ele>
<speed>2.3</speed>
<course>333.6</course>
<desc>Speed 2.3 km/h Distance 1.78 km</desc>
<time>2010-03-14T10:46:52.71</time>
<name>1307</name>
</trkpt>
<trkpt lat="48.936305" lon="8.678923">
<ele>337.0</ele>
<speed>2.3</speed>
<course>332.1</course>
<desc>Speed 2.3 km/h Distance 1.78 km</desc>
<time>2010-03-14T10:46:53.71</time>
<name>1308</name>
</trkpt>
<trkpt lat="48.936313" lon="8.678917">
<ele>337.5</ele>
<speed>2.8</speed>
<course>317.4</course>
<desc>Speed 2.8 km/h Distance 1.78 km</desc>
<time>2010-03-14T10:46:54.71</time>
<name>1309</name>
</trkpt>
<trkpt lat="48.936322" lon="8.678905">
<ele>337.5</ele>
<speed>3.0</speed>
<course>332.1</course>
<desc>Speed 3.0 km/h Distance 1.78 km</desc>
<time>2010-03-14T10:46:55.71</time>
<name>1310</name>
</trkpt>
<trkpt lat="48.936330" lon="8.678898">
<ele>337.5</ele>
<speed>3.3</speed>
<course>338.3</course>
<desc>Speed 3.3 km/h Distance 1.78 km</desc>
<time>2010-03-14T10:46:56.71</time>
<name>1311</name>
</trkpt>
<trkpt lat="48.936377" lon="8.678870">
<ele>341.5</ele>
<speed>2.9</speed>
<course>336.2</course>
<desc>Speed 2.9 km/h Distance 1.78 km</desc>
<time>2010-03-14T10:46:58.71</time>
<name>1312</name>
</trkpt>
<trkpt lat="48.936387" lon="8.678863">
<ele>341.5</ele>
<speed>3.3</speed>
<course>290.2</course>
<desc>Speed 3.3 km/h Distance 1.79 km</desc>
<time>2010-03-14T10:46:59.71</time>
<name>1313</name>
</trkpt>
<trkpt lat="48.936388" lon="8.678857">
<ele>341.0</ele>
<speed>0.8</speed>
<course>337.8</course>
<desc>Speed 0.8 km/h Distance 1.79 km</desc>
<time>2010-03-14T10:47:00.71</time>
<name>1314</name>
</trkpt>
<trkpt lat="48.936393" lon="8.678853">
<ele>340.5</ele>
<speed>1.4</speed>
<course>319.1</course>
<desc>Speed 1.4 km/h Distance 1.79 km</desc>
<time>2010-03-14T10:47:01.71</time>
<name>1315</name>
</trkpt>
<trkpt lat="48.936398" lon="8.678847">
<ele>340.5</ele>
<speed>1.6</speed>
<course>341.2</course>
<desc>Speed 1.6 km/h Distance 1.79 km</desc>
<time>2010-03-14T10:47:02.71</time>
<name>1316</name>
</trkpt>
<trkpt lat="48.936405" lon="8.678843">
<ele>340.0</ele>
<speed>2.1</speed>
<course>346.5</course>
<desc>Speed 2.1 km/h Distance 1.79 km</desc>
<time>2010-03-14T10:47:03.71</time>
<name>1317</name>
</trkpt>
<trkpt lat="48.936418" lon="8.678838">
<ele>340.5</ele>
<speed>2.7</speed>
<course>351.0</course>
<desc>Speed 2.7 km/h Distance 1.79 km</desc>
<time>2010-03-14T10:47:04.71</time>
<name>1318</name>
</trkpt>
<trkpt lat="48.936432" lon="8.678835">
<ele>340.5</ele>
<speed>2.6</speed>
<course>330.6</course>
<desc>Speed 2.6 km/h Distance 1.79 km</desc>
<time>2010-03-14T10:47:05.71</time>
<name>1319</name>
</trkpt>
<trkpt lat="48.936443" lon="8.678825">
<ele>340.0</ele>
<speed>2.7</speed>
<course>330.6</course>
<desc>Speed 2.7 km/h Distance 1.79 km</desc>
<time>2010-03-14T10:47:06.71</time>
<name>1320</name>
</trkpt>
<trkpt lat="48.936455" lon="8.678815">
<ele>339.5</ele>
<speed>2.7</speed>
<course>340.3</course>
<desc>Speed 2.7 km/h Distance 1.79 km</desc>
<time>2010-03-14T10:47:07.71</time>
<name>1321</name>
</trkpt>
<trkpt lat="48.936492" lon="8.678795">
<ele>339.0</ele>
<speed>1.8</speed>
<course>352.6</course>
<desc>Speed 1.8 km/h Distance 1.80 km</desc>
<time>2010-03-14T10:47:09.71</time>
<name>1322</name>
</trkpt>
<trkpt lat="48.936498" lon="8.678793">
<ele>339.0</ele>
<speed>1.4</speed>
<course>341.2</course>
<desc>Speed 1.4 km/h Distance 1.80 km</desc>
<time>2010-03-14T10:47:10.71</time>
<name>1323</name>
</trkpt>
<trkpt lat="48.936505" lon="8.678790">
<ele>338.0</ele>
<speed>1.6</speed>
<course>323.1</course>
<desc>Speed 1.6 km/h Distance 1.80 km</desc>
<time>2010-03-14T10:47:11.71</time>
<name>1324</name>
</trkpt>
<trkpt lat="48.936517" lon="8.678777">
<ele>339.0</ele>
<speed>3.6</speed>
<course>345.1</course>
<desc>Speed 3.6 km/h Distance 1.80 km</desc>
<time>2010-03-14T10:47:12.71</time>
<name>1325</name>
</trkpt>
<trkpt lat="48.936525" lon="8.678773">
<ele>339.0</ele>
<speed>2.1</speed>
<course>355.3</course>
<desc>Speed 2.1 km/h Distance 1.80 km</desc>
<time>2010-03-14T10:47:13.71</time>
<name>1326</name>
</trkpt>
<trkpt lat="48.936537" lon="8.678772">
<ele>339.0</ele>
<speed>2.1</speed>
<course>344.0</course>
<desc>Speed 2.1 km/h Distance 1.80 km</desc>
<time>2010-03-14T10:47:15.69</time>
<name>1327</name>
</trkpt>
<trkpt lat="48.936548" lon="8.678767">
<ele>339.5</ele>
<speed>2.0</speed>
<course>326.8</course>
<desc>Speed 2.0 km/h Distance 1.81 km</desc>
<time>2010-03-14T10:47:16.69</time>
<name>1328</name>
</trkpt>
<trkpt lat="48.936555" lon="8.678760">
<ele>338.5</ele>
<speed>0.9</speed>
<course>326.8</course>
<desc>Speed 0.9 km/h Distance 1.81 km</desc>
<time>2010-03-14T10:47:17.69</time>
<name>1329</name>
</trkpt>
<trkpt lat="48.936563" lon="8.678752">
<ele>338.5</ele>
<speed>1.3</speed>
<course>319.1</course>
<desc>Speed 1.3 km/h Distance 1.81 km</desc>
<time>2010-03-14T10:47:18.69</time>
<name>1330</name>
</trkpt>
<trkpt lat="48.936568" lon="8.678745">
<ele>338.5</ele>
<speed>1.6</speed>
<course>322.5</course>
<desc>Speed 1.6 km/h Distance 1.81 km</desc>
<time>2010-03-14T10:47:19.69</time>
<name>1331</name>
</trkpt>
<trkpt lat="48.936578" lon="8.678733">
<ele>339.0</ele>
<speed>3.6</speed>
<course>326.3</course>
<desc>Speed 3.6 km/h Distance 1.81 km</desc>
<time>2010-03-14T10:47:20.69</time>
<name>1332</name>
</trkpt>
<trkpt lat="48.936582" lon="8.678730">
<ele>338.5</ele>
<speed>1.7</speed>
<course>337.8</course>
<desc>Speed 1.7 km/h Distance 1.81 km</desc>
<time>2010-03-14T10:47:21.69</time>
<name>1333</name>
</trkpt>
<trkpt lat="48.936587" lon="8.678727">
<ele>338.0</ele>
<speed>1.3</speed>
<course>326.8</course>
<desc>Speed 1.3 km/h Distance 1.81 km</desc>
<time>2010-03-14T10:47:22.69</time>
<name>1334</name>
</trkpt>
<trkpt lat="48.936593" lon="8.678720">
<ele>338.0</ele>
<speed>2.4</speed>
<course>312.9</course>
<desc>Speed 2.4 km/h Distance 1.81 km</desc>
<time>2010-03-14T10:47:23.69</time>
<name>1335</name>
</trkpt>
<trkpt lat="48.936598" lon="8.678712">
<ele>337.5</ele>
<speed>1.5</speed>
<course>347.4</course>
<desc>Speed 1.5 km/h Distance 1.81 km</desc>
<time>2010-03-14T10:47:24.69</time>
<name>1336</name>
</trkpt>
<trkpt lat="48.936608" lon="8.678708">
<ele>337.5</ele>
<speed>1.4</speed>
<course>345.1</course>
<desc>Speed 1.4 km/h Distance 1.81 km</desc>
<time>2010-03-14T10:47:25.69</time>
<name>1337</name>
</trkpt>
<trkpt lat="48.936620" lon="8.678703">
<ele>338.5</ele>
<speed>1.8</speed>
<course>307.0</course>
<desc>Speed 1.8 km/h Distance 1.82 km</desc>
<time>2010-03-14T10:47:26.69</time>
<name>1338</name>
</trkpt>
<trkpt lat="48.936623" lon="8.678697">
<ele>338.0</ele>
<speed>1.7</speed>
<course>322.8</course>
<desc>Speed 1.7 km/h Distance 1.82 km</desc>
<time>2010-03-14T10:47:27.69</time>
<name>1339</name>
</trkpt>
<trkpt lat="48.936625" lon="8.678695">
<ele>338.5</ele>
<speed>0.0</speed>
<course>12.6</course>
<desc>Speed 0.0 km/h Distance 1.82 km</desc>
<time>2010-03-14T10:47:28.69</time>
<name>1340</name>
</trkpt>
<trkpt lat="48.936628" lon="8.678695">
<ele>338.5</ele>
<speed>0.0</speed>
<course>323.1</course>
<desc>Speed 0.0 km/h Distance 1.82 km</desc>
<time>2010-03-14T10:47:29.69</time>
<name>1341</name>
</trkpt>
<trkpt lat="48.936640" lon="8.678682">
<ele>339.0</ele>
<speed>0.3</speed>
<course>315.5</course>
<desc>Speed 0.3 km/h Distance 1.82 km</desc>
<time>2010-03-14T10:47:30.69</time>
<name>1342</name>
</trkpt>
<trkpt lat="48.936647" lon="8.678672">
<ele>339.0</ele>
<speed>0.1</speed>
<course>320.6</course>
<desc>Speed 0.1 km/h Distance 1.82 km</desc>
<time>2010-03-14T10:47:31.69</time>
<name>1343</name>
</trkpt>
<trkpt lat="48.936667" lon="8.678647">
<ele>339.5</ele>
<speed>0.1</speed>
<course>337.0</course>
<desc>Speed 0.1 km/h Distance 1.82 km</desc>
<time>2010-03-14T10:47:33.69</time>
<name>1344</name>
</trkpt>
<trkpt lat="48.936670" lon="8.678645">
<ele>340.0</ele>
<speed>0.3</speed>
<course>308.1</course>
<desc>Speed 0.3 km/h Distance 1.82 km</desc>
<time>2010-03-14T10:47:34.69</time>
<name>1345</name>
</trkpt>
<trkpt lat="48.936672" lon="8.678642">
<ele>340.0</ele>
<speed>0.3</speed>
<course>308.1</course>
<desc>Speed 0.3 km/h Distance 1.82 km</desc>
<time>2010-03-14T10:47:35.69</time>
<name>1346</name>
</trkpt>
<trkpt lat="48.936673" lon="8.678638">
<ele>340.0</ele>
<speed>0.3</speed>
<course>308.1</course>
<desc>Speed 0.3 km/h Distance 1.82 km</desc>
<time>2010-03-14T10:47:36.69</time>
<name>1347</name>
</trkpt>
<trkpt lat="48.936673" lon="8.678638">
<ele>340.5</ele>
<speed>0.3</speed>
<course>51.9</course>
<desc>Speed 0.3 km/h Distance 1.82 km</desc>
<time>2010-03-14T10:47:37.69</time>
<name>1348</name>
</trkpt>
<trkpt lat="48.936675" lon="8.678642">
<ele>341.0</ele>
<speed>0.9</speed>
<course>322.5</course>
<desc>Speed 0.9 km/h Distance 1.82 km</desc>
<time>2010-03-14T10:47:38.69</time>
<name>1349</name>
</trkpt>
<trkpt lat="48.936715" lon="8.678595">
<ele>342.0</ele>
<speed>1.5</speed>
<course>332.1</course>
<desc>Speed 1.5 km/h Distance 1.83 km</desc>
<time>2010-03-14T10:47:40.69</time>
<name>1350</name>
</trkpt>
<trkpt lat="48.936723" lon="8.678588">
<ele>342.5</ele>
<speed>1.7</speed>
<course>340.1</course>
<desc>Speed 1.7 km/h Distance 1.83 km</desc>
<time>2010-03-14T10:47:41.69</time>
<name>1351</name>
</trkpt>
<trkpt lat="48.936738" lon="8.678580">
<ele>342.5</ele>
<speed>3.3</speed>
<course>336.5</course>
<desc>Speed 3.3 km/h Distance 1.83 km</desc>
<time>2010-03-14T10:47:42.69</time>
<name>1352</name>
</trkpt>
<trkpt lat="48.936753" lon="8.678570">
<ele>342.5</ele>
<speed>1.9</speed>
<course>294.1</course>
<desc>Speed 1.9 km/h Distance 1.83 km</desc>
<time>2010-03-14T10:47:43.69</time>
<name>1353</name>
</trkpt>
<trkpt lat="48.936770" lon="8.678513">
<ele>346.0</ele>
<speed>1.3</speed>
<course>294.1</course>
<desc>Speed 1.3 km/h Distance 1.84 km</desc>
<time>2010-03-14T10:47:45.69</time>
<name>1354</name>
</trkpt>
<trkpt lat="48.936770" lon="8.678513">
<ele>346.5</ele>
<speed>0.5</speed>
<course>322.8</course>
<desc>Speed 0.5 km/h Distance 1.84 km</desc>
<time>2010-03-14T10:47:46.69</time>
<name>1355</name>
</trkpt>
<trkpt lat="48.936772" lon="8.678512">
<ele>346.5</ele>
<speed>0.3</speed>
<course>326.5</course>
<desc>Speed 0.3 km/h Distance 1.84 km</desc>
<time>2010-03-14T10:47:47.69</time>
<name>1356</name>
</trkpt>
<trkpt lat="48.936780" lon="8.678503">
<ele>347.0</ele>
<speed>0.4</speed>
<course>90.0</course>
<desc>Speed 0.4 km/h Distance 1.84 km</desc>
<time>2010-03-14T10:47:48.69</time>
<name>1357</name>
</trkpt>
<trkpt lat="48.936780" lon="8.678505">
<ele>347.0</ele>
<speed>0.1</speed>
<course>37.2</course>
<desc>Speed 0.1 km/h Distance 1.84 km</desc>
<time>2010-03-14T10:47:49.69</time>
<name>1358</name>
</trkpt>
<trkpt lat="48.936782" lon="8.678507">
<ele>347.0</ele>
<speed>0.2</speed>
<course>37.2</course>
<desc>Speed 0.2 km/h Distance 1.84 km</desc>
<time>2010-03-14T10:47:50.69</time>
<name>1359</name>
</trkpt>
<trkpt lat="48.936782" lon="8.678507">
<ele>347.0</ele>
<speed>0.2</speed>
<course>37.2</course>
<desc>Speed 0.2 km/h Distance 1.84 km</desc>
<time>2010-03-14T10:47:51.69</time>
<name>1360</name>
</trkpt>
<trkpt lat="48.936782" lon="8.678507">
<ele>347.0</ele>
<speed>0.1</speed>
<course>12.6</course>
<desc>Speed 0.1 km/h Distance 1.84 km</desc>
<time>2010-03-14T10:47:52.69</time>
<name>1361</name>
</trkpt>
<trkpt lat="48.936783" lon="8.678507">
<ele>347.0</ele>
<speed>0.6</speed>
<course>347.4</course>
<desc>Speed 0.6 km/h Distance 1.84 km</desc>
<time>2010-03-14T10:47:53.78</time>
<name>1362</name>
</trkpt>
<trkpt lat="48.936788" lon="8.678505">
<ele>346.5</ele>
<speed>1.0</speed>
<course>51.9</course>
<desc>Speed 1.0 km/h Distance 1.84 km</desc>
<time>2010-03-14T10:47:54.71</time>
<name>1363</name>
</trkpt>
<trkpt lat="48.936790" lon="8.678508">
<ele>347.0</ele>
<speed>0.4</speed>
<course>90.0</course>
<desc>Speed 0.4 km/h Distance 1.84 km</desc>
<time>2010-03-14T10:47:55.71</time>
<name>1364</name>
</trkpt>
<trkpt lat="48.936790" lon="8.678513">
<ele>347.0</ele>
<speed>0.0</speed>
<course>90.0</course>
<desc>Speed 0.0 km/h Distance 1.84 km</desc>
<time>2010-03-14T10:47:56.71</time>
<name>1365</name>
</trkpt>
<trkpt lat="48.936790" lon="8.678515">
<ele>347.0</ele>
<speed>0.5</speed>
<course>90.0</course>
<desc>Speed 0.5 km/h Distance 1.84 km</desc>
<time>2010-03-14T10:47:57.71</time>
<name>1366</name>
</trkpt>
<trkpt lat="48.936790" lon="8.678518">
<ele>347.0</ele>
<speed>0.0</speed>
<course>29.2</course>
<desc>Speed 0.0 km/h Distance 1.84 km</desc>
<time>2010-03-14T10:47:58.71</time>
<name>1367</name>
</trkpt>
<trkpt lat="48.936792" lon="8.678520">
<ele>347.0</ele>
<speed>0.1</speed>
<course>90.0</course>
<desc>Speed 0.1 km/h Distance 1.84 km</desc>
<time>2010-03-14T10:47:59.71</time>
<name>1368</name>
</trkpt>
<trkpt lat="48.936792" lon="8.678522">
<ele>347.0</ele>
<speed>0.5</speed>
<course>90.0</course>
<desc>Speed 0.5 km/h Distance 1.84 km</desc>
<time>2010-03-14T10:48:00.71</time>
<name>1369</name>
</trkpt>
<trkpt lat="48.936792" lon="8.678523">
<ele>347.0</ele>
<speed>0.3</speed>
<course>37.2</course>
<desc>Speed 0.3 km/h Distance 1.84 km</desc>
<time>2010-03-14T10:48:01.71</time>
<name>1370</name>
</trkpt>
<trkpt lat="48.936793" lon="8.678525">
<ele>346.5</ele>
<speed>0.1</speed>
<course>308.1</course>
<desc>Speed 0.1 km/h Distance 1.84 km</desc>
<time>2010-03-14T10:48:02.71</time>
<name>1371</name>
</trkpt>
<trkpt lat="48.936795" lon="8.678522">
<ele>346.5</ele>
<speed>1.4</speed>
<course>342.5</course>
<desc>Speed 1.4 km/h Distance 1.84 km</desc>
<time>2010-03-14T10:48:03.71</time>
<name>1372</name>
</trkpt>
<trkpt lat="48.936802" lon="8.678518">
<ele>346.5</ele>
<speed>2.6</speed>
<course>335.1</course>
<desc>Speed 2.6 km/h Distance 1.84 km</desc>
<time>2010-03-14T10:48:04.71</time>
<name>1373</name>
</trkpt>
<trkpt lat="48.936813" lon="8.678510">
<ele>346.5</ele>
<speed>4.4</speed>
<course>326.8</course>
<desc>Speed 4.4 km/h Distance 1.84 km</desc>
<time>2010-03-14T10:48:05.71</time>
<name>1374</name>
</trkpt>
<trkpt lat="48.936823" lon="8.678500">
<ele>346.0</ele>
<speed>3.9</speed>
<course>323.4</course>
<desc>Speed 3.9 km/h Distance 1.85 km</desc>
<time>2010-03-14T10:48:06.71</time>
<name>1375</name>
</trkpt>
<trkpt lat="48.936837" lon="8.678485">
<ele>346.0</ele>
<speed>4.4</speed>
<course>328.9</course>
<desc>Speed 4.4 km/h Distance 1.85 km</desc>
<time>2010-03-14T10:48:07.71</time>
<name>1376</name>
</trkpt>
<trkpt lat="48.936857" lon="8.678467">
<ele>346.5</ele>
<speed>6.6</speed>
<course>329.7</course>
<desc>Speed 6.6 km/h Distance 1.85 km</desc>
<time>2010-03-14T10:48:08.71</time>
<name>1377</name>
</trkpt>
<trkpt lat="48.936872" lon="8.678453">
<ele>346.5</ele>
<speed>3.1</speed>
<course>345.1</course>
<desc>Speed 3.1 km/h Distance 1.85 km</desc>
<time>2010-03-14T10:48:09.71</time>
<name>1378</name>
</trkpt>
<trkpt lat="48.936880" lon="8.678450">
<ele>345.5</ele>
<speed>1.6</speed>
<course>336.6</course>
<desc>Speed 1.6 km/h Distance 1.85 km</desc>
<time>2010-03-14T10:48:10.71</time>
<name>1379</name>
</trkpt>
<trkpt lat="48.936890" lon="8.678443">
<ele>345.0</ele>
<speed>2.0</speed>
<course>346.5</course>
<desc>Speed 2.0 km/h Distance 1.85 km</desc>
<time>2010-03-14T10:48:11.71</time>
<name>1380</name>
</trkpt>
<trkpt lat="48.936903" lon="8.678438">
<ele>344.0</ele>
<speed>1.9</speed>
<course>332.1</course>
<desc>Speed 1.9 km/h Distance 1.86 km</desc>
<time>2010-03-14T10:48:12.71</time>
<name>1381</name>
</trkpt>
<trkpt lat="48.936912" lon="8.678432">
<ele>344.0</ele>
<speed>0.5</speed>
<course>341.9</course>
<desc>Speed 0.5 km/h Distance 1.86 km</desc>
<time>2010-03-14T10:48:13.71</time>
<name>1382</name>
</trkpt>
<trkpt lat="48.936928" lon="8.678423">
<ele>343.5</ele>
<speed>2.1</speed>
<course>336.3</course>
<desc>Speed 2.1 km/h Distance 1.86 km</desc>
<time>2010-03-14T10:48:14.71</time>
<name>1383</name>
</trkpt>
<trkpt lat="48.936948" lon="8.678410">
<ele>343.0</ele>
<speed>1.1</speed>
<course>348.8</course>
<desc>Speed 1.1 km/h Distance 1.86 km</desc>
<time>2010-03-14T10:48:15.71</time>
<name>1384</name>
</trkpt>
<trkpt lat="48.936960" lon="8.678407">
<ele>342.0</ele>
<speed>2.1</speed>
<course>345.1</course>
<desc>Speed 2.1 km/h Distance 1.86 km</desc>
<time>2010-03-14T10:48:16.71</time>
<name>1385</name>
</trkpt>
<trkpt lat="48.936977" lon="8.678400">
<ele>341.0</ele>
<speed>2.1</speed>
<course>343.4</course>
<desc>Speed 2.1 km/h Distance 1.86 km</desc>
<time>2010-03-14T10:48:17.71</time>
<name>1386</name>
</trkpt>
<trkpt lat="48.936995" lon="8.678392">
<ele>340.0</ele>
<speed>2.2</speed>
<course>354.7</course>
<desc>Speed 2.2 km/h Distance 1.87 km</desc>
<time>2010-03-14T10:48:18.71</time>
<name>1387</name>
</trkpt>
<trkpt lat="48.937008" lon="8.678390">
<ele>339.5</ele>
<speed>3.0</speed>
<course>336.3</course>
<desc>Speed 3.0 km/h Distance 1.87 km</desc>
<time>2010-03-14T10:48:19.71</time>
<name>1388</name>
</trkpt>
<trkpt lat="48.937028" lon="8.678377">
<ele>340.0</ele>
<speed>5.6</speed>
<course>350.5</course>
<desc>Speed 5.6 km/h Distance 1.87 km</desc>
<time>2010-03-14T10:48:20.71</time>
<name>1389</name>
</trkpt>
<trkpt lat="48.937048" lon="8.678372">
<ele>340.0</ele>
<speed>3.9</speed>
<course>328.9</course>
<desc>Speed 3.9 km/h Distance 1.87 km</desc>
<time>2010-03-14T10:48:21.71</time>
<name>1390</name>
</trkpt>
<trkpt lat="48.937068" lon="8.678353">
<ele>340.5</ele>
<speed>3.7</speed>
<course>351.0</course>
<desc>Speed 3.7 km/h Distance 1.88 km</desc>
<time>2010-03-14T10:48:22.71</time>
<name>1391</name>
</trkpt>
<trkpt lat="48.937082" lon="8.678350">
<ele>339.5</ele>
<speed>1.7</speed>
<course>351.9</course>
<desc>Speed 1.7 km/h Distance 1.88 km</desc>
<time>2010-03-14T10:48:23.71</time>
<name>1392</name>
</trkpt>
<trkpt lat="48.937097" lon="8.678347">
<ele>338.5</ele>
<speed>1.2</speed>
<course>347.4</course>
<desc>Speed 1.2 km/h Distance 1.88 km</desc>
<time>2010-03-14T10:48:24.71</time>
<name>1393</name>
</trkpt>
<trkpt lat="48.937102" lon="8.678345">
<ele>338.0</ele>
<speed>1.4</speed>
<course>335.1</course>
<desc>Speed 1.4 km/h Distance 1.88 km</desc>
<time>2010-03-14T10:48:25.71</time>
<name>1394</name>
</trkpt>
<trkpt lat="48.937113" lon="8.678337">
<ele>337.5</ele>
<speed>2.7</speed>
<course>349.4</course>
<desc>Speed 2.7 km/h Distance 1.88 km</desc>
<time>2010-03-14T10:48:26.71</time>
<name>1395</name>
</trkpt>
<trkpt lat="48.937123" lon="8.678333">
<ele>336.5</ele>
<speed>1.7</speed>
<course>307.2</course>
<desc>Speed 1.7 km/h Distance 1.88 km</desc>
<time>2010-03-14T10:48:27.71</time>
<name>1396</name>
</trkpt>
<trkpt lat="48.937128" lon="8.678323">
<ele>336.0</ele>
<speed>1.4</speed>
<course>313.5</course>
<desc>Speed 1.4 km/h Distance 1.88 km</desc>
<time>2010-03-14T10:48:28.71</time>
<name>1397</name>
</trkpt>
<trkpt lat="48.937137" lon="8.678310">
<ele>336.0</ele>
<speed>2.8</speed>
<course>315.5</course>
<desc>Speed 2.8 km/h Distance 1.88 km</desc>
<time>2010-03-14T10:48:29.71</time>
<name>1398</name>
</trkpt>
<trkpt lat="48.937147" lon="8.678295">
<ele>336.0</ele>
<speed>2.3</speed>
<course>350.5</course>
<desc>Speed 2.3 km/h Distance 1.89 km</desc>
<time>2010-03-14T10:48:30.71</time>
<name>1399</name>
</trkpt>
<trkpt lat="48.937158" lon="8.678292">
<ele>335.0</ele>
<speed>1.5</speed>
<course>344.0</course>
<desc>Speed 1.5 km/h Distance 1.89 km</desc>
<time>2010-03-14T10:48:31.71</time>
<name>1400</name>
</trkpt>
<trkpt lat="48.937173" lon="8.678285">
<ele>335.0</ele>
<speed>1.7</speed>
<course>321.2</course>
<desc>Speed 1.7 km/h Distance 1.89 km</desc>
<time>2010-03-14T10:48:32.71</time>
<name>1401</name>
</trkpt>
<trkpt lat="48.937188" lon="8.678267">
<ele>335.0</ele>
<speed>1.9</speed>
<course>343.7</course>
<desc>Speed 1.9 km/h Distance 1.89 km</desc>
<time>2010-03-14T10:48:33.71</time>
<name>1402</name>
</trkpt>
<trkpt lat="48.937203" lon="8.678260">
<ele>333.5</ele>
<speed>1.7</speed>
<course>332.8</course>
<desc>Speed 1.7 km/h Distance 1.89 km</desc>
<time>2010-03-14T10:48:34.71</time>
<name>1403</name>
</trkpt>
<trkpt lat="48.937218" lon="8.678248">
<ele>333.0</ele>
<speed>2.1</speed>
<course>338.5</course>
<desc>Speed 2.1 km/h Distance 1.89 km</desc>
<time>2010-03-14T10:48:35.71</time>
<name>1404</name>
</trkpt>
<trkpt lat="48.937227" lon="8.678243">
<ele>332.0</ele>
<speed>2.2</speed>
<course>351.0</course>
<desc>Speed 2.2 km/h Distance 1.90 km</desc>
<time>2010-03-14T10:48:36.71</time>
<name>1405</name>
</trkpt>
<trkpt lat="48.937240" lon="8.678240">
<ele>332.0</ele>
<speed>2.4</speed>
<course>326.8</course>
<desc>Speed 2.4 km/h Distance 1.90 km</desc>
<time>2010-03-14T10:48:37.71</time>
<name>1406</name>
</trkpt>
<trkpt lat="48.937250" lon="8.678230">
<ele>331.5</ele>
<speed>2.6</speed>
<course>333.6</course>
<desc>Speed 2.6 km/h Distance 1.90 km</desc>
<time>2010-03-14T10:48:38.71</time>
<name>1407</name>
</trkpt>
<trkpt lat="48.937257" lon="8.678225">
<ele>331.5</ele>
<speed>0.4</speed>
<course>341.6</course>
<desc>Speed 0.4 km/h Distance 1.90 km</desc>
<time>2010-03-14T10:48:39.71</time>
<name>1408</name>
</trkpt>
<trkpt lat="48.937270" lon="8.678218">
<ele>331.0</ele>
<speed>1.2</speed>
<course>323.4</course>
<desc>Speed 1.2 km/h Distance 1.90 km</desc>
<time>2010-03-14T10:48:40.71</time>
<name>1409</name>
</trkpt>
<trkpt lat="48.937283" lon="8.678203">
<ele>330.5</ele>
<speed>1.9</speed>
<course>348.8</course>
<desc>Speed 1.9 km/h Distance 1.90 km</desc>
<time>2010-03-14T10:48:41.71</time>
<name>1410</name>
</trkpt>
<trkpt lat="48.937300" lon="8.678198">
<ele>330.5</ele>
<speed>1.2</speed>
<course>346.5</course>
<desc>Speed 1.2 km/h Distance 1.90 km</desc>
<time>2010-03-14T10:48:42.71</time>
<name>1411</name>
</trkpt>
<trkpt lat="48.937313" lon="8.678193">
<ele>330.5</ele>
<speed>1.4</speed>
<course>318.6</course>
<desc>Speed 1.4 km/h Distance 1.91 km</desc>
<time>2010-03-14T10:48:43.71</time>
<name>1412</name>
</trkpt>
<trkpt lat="48.937318" lon="8.678187">
<ele>330.0</ele>
<speed>1.3</speed>
<course>352.6</course>
<desc>Speed 1.3 km/h Distance 1.91 km</desc>
<time>2010-03-14T10:48:44.71</time>
<name>1413</name>
</trkpt>
<trkpt lat="48.937325" lon="8.678185">
<ele>329.0</ele>
<speed>1.7</speed>
<course>315.5</course>
<desc>Speed 1.7 km/h Distance 1.91 km</desc>
<time>2010-03-14T10:48:45.71</time>
<name>1414</name>
</trkpt>
<trkpt lat="48.937332" lon="8.678175">
<ele>328.0</ele>
<speed>1.8</speed>
<course>317.4</course>
<desc>Speed 1.8 km/h Distance 1.91 km</desc>
<time>2010-03-14T10:48:46.71</time>
<name>1415</name>
</trkpt>
<trkpt lat="48.937340" lon="8.678163">
<ele>328.0</ele>
<speed>2.1</speed>
<course>323.1</course>
<desc>Speed 2.1 km/h Distance 1.91 km</desc>
<time>2010-03-14T10:48:47.71</time>
<name>1416</name>
</trkpt>
<trkpt lat="48.937352" lon="8.678150">
<ele>328.0</ele>
<speed>2.4</speed>
<course>326.3</course>
<desc>Speed 2.4 km/h Distance 1.91 km</desc>
<time>2010-03-14T10:48:48.71</time>
<name>1417</name>
</trkpt>
<trkpt lat="48.937358" lon="8.678143">
<ele>327.5</ele>
<speed>1.1</speed>
<course>12.6</course>
<desc>Speed 1.1 km/h Distance 1.91 km</desc>
<time>2010-03-14T10:48:49.71</time>
<name>1418</name>
</trkpt>
<trkpt lat="48.937362" lon="8.678143">
<ele>328.0</ele>
<speed>0.0</speed>
<course>341.2</course>
<desc>Speed 0.0 km/h Distance 1.91 km</desc>
<time>2010-03-14T10:48:50.71</time>
<name>1419</name>
</trkpt>
<trkpt lat="48.937365" lon="8.678142">
<ele>328.5</ele>
<speed>0.5</speed>
<course>347.4</course>
<desc>Speed 0.5 km/h Distance 1.91 km</desc>
<time>2010-03-14T10:48:51.71</time>
<name>1420</name>
</trkpt>
<trkpt lat="48.937368" lon="8.678140">
<ele>329.0</ele>
<speed>1.0</speed>
<course>322.8</course>
<desc>Speed 1.0 km/h Distance 1.91 km</desc>
<time>2010-03-14T10:48:52.71</time>
<name>1421</name>
</trkpt>
<trkpt lat="48.937370" lon="8.678138">
<ele>329.5</ele>
<speed>0.4</speed>
<course>322.8</course>
<desc>Speed 0.4 km/h Distance 1.91 km</desc>
<time>2010-03-14T10:48:53.71</time>
<name>1422</name>
</trkpt>
<trkpt lat="48.937372" lon="8.678137">
<ele>329.5</ele>
<speed>0.1</speed>
<course>270.0</course>
<desc>Speed 0.1 km/h Distance 1.91 km</desc>
<time>2010-03-14T10:48:54.71</time>
<name>1423</name>
</trkpt>
<trkpt lat="48.937372" lon="8.678135">
<ele>330.0</ele>
<speed>0.1</speed>
<course>270.0</course>
<desc>Speed 0.1 km/h Distance 1.91 km</desc>
<time>2010-03-14T10:48:55.71</time>
<name>1424</name>
</trkpt>
<trkpt lat="48.937372" lon="8.678133">
<ele>330.5</ele>
<speed>0.1</speed>
<course>270.0</course>
<desc>Speed 0.1 km/h Distance 1.91 km</desc>
<time>2010-03-14T10:48:56.71</time>
<name>1425</name>
</trkpt>
<trkpt lat="48.937372" lon="8.678133">
<ele>330.5</ele>
<speed>0.3</speed>
<course>322.8</course>
<desc>Speed 0.3 km/h Distance 1.91 km</desc>
<time>2010-03-14T10:48:57.71</time>
<name>1426</name>
</trkpt>
<trkpt lat="48.937373" lon="8.678132">
<ele>331.0</ele>
<speed>0.0</speed>
<course>326.3</course>
<desc>Speed 0.0 km/h Distance 1.91 km</desc>
<time>2010-03-14T10:48:58.71</time>
<name>1427</name>
</trkpt>
<trkpt lat="48.937377" lon="8.678128">
<ele>331.5</ele>
<speed>0.1</speed>
<course>322.8</course>
<desc>Speed 0.1 km/h Distance 1.92 km</desc>
<time>2010-03-14T10:48:59.71</time>
<name>1428</name>
</trkpt>
<trkpt lat="48.937378" lon="8.678127">
<ele>332.0</ele>
<speed>0.1</speed>
<course>337.8</course>
<desc>Speed 0.1 km/h Distance 1.92 km</desc>
<time>2010-03-14T10:49:00.71</time>
<name>1429</name>
</trkpt>
<trkpt lat="48.937383" lon="8.678123">
<ele>333.0</ele>
<speed>0.2</speed>
<course>341.2</course>
<desc>Speed 0.2 km/h Distance 1.92 km</desc>
<time>2010-03-14T10:49:01.71</time>
<name>1430</name>
</trkpt>
<trkpt lat="48.937390" lon="8.678120">
<ele>334.0</ele>
<speed>0.1</speed>
<course>341.2</course>
<desc>Speed 0.1 km/h Distance 1.92 km</desc>
<time>2010-03-14T10:49:02.71</time>
<name>1431</name>
</trkpt>
<trkpt lat="48.937390" lon="8.678120">
<ele>334.0</ele>
<speed>0.1</speed>
<course>12.6</course>
<desc>Speed 0.1 km/h Distance 1.92 km</desc>
<time>2010-03-14T10:49:03.71</time>
<name>1432</name>
</trkpt>
<trkpt lat="48.937392" lon="8.678120">
<ele>334.5</ele>
<speed>0.2</speed>
<course>12.6</course>
<desc>Speed 0.2 km/h Distance 1.92 km</desc>
<time>2010-03-14T10:49:04.71</time>
<name>1433</name>
</trkpt>
<trkpt lat="48.937393" lon="8.678120">
<ele>334.5</ele>
<speed>0.1</speed>
<course>345.1</course>
<desc>Speed 0.1 km/h Distance 1.92 km</desc>
<time>2010-03-14T10:49:05.71</time>
<name>1434</name>
</trkpt>
<trkpt lat="48.937410" lon="8.678113">
<ele>336.5</ele>
<speed>1.5</speed>
<course>334.0</course>
<desc>Speed 1.5 km/h Distance 1.92 km</desc>
<time>2010-03-14T10:49:06.71</time>
<name>1435</name>
</trkpt>
<trkpt lat="48.937423" lon="8.678103">
<ele>338.5</ele>
<speed>0.1</speed>
<course>90.0</course>
<desc>Speed 0.1 km/h Distance 1.92 km</desc>
<time>2010-03-14T10:49:07.71</time>
<name>1436</name>
</trkpt>
<trkpt lat="48.937423" lon="8.678105">
<ele>338.5</ele>
<speed>0.1</speed>
<course>308.1</course>
<desc>Speed 0.1 km/h Distance 1.92 km</desc>
<time>2010-03-14T10:49:08.71</time>
<name>1437</name>
</trkpt>
<trkpt lat="48.937425" lon="8.678102">
<ele>339.0</ele>
<speed>0.2</speed>
<course>307.0</course>
<desc>Speed 0.2 km/h Distance 1.92 km</desc>
<time>2010-03-14T10:49:09.71</time>
<name>1438</name>
</trkpt>
<trkpt lat="48.937428" lon="8.678095">
<ele>339.0</ele>
<speed>2.0</speed>
<course>158.5</course>
<desc>Speed 2.0 km/h Distance 1.92 km</desc>
<time>2010-03-14T10:49:10.71</time>
<name>1439</name>
</trkpt>
<trkpt lat="48.937420" lon="8.678100">
<ele>337.5</ele>
<speed>3.6</speed>
<course>317.4</course>
<desc>Speed 3.6 km/h Distance 1.92 km</desc>
<time>2010-03-14T10:49:11.71</time>
<name>1440</name>
</trkpt>
<trkpt lat="48.937428" lon="8.678088">
<ele>338.0</ele>
<speed>4.4</speed>
<course>171.9</course>
<desc>Speed 4.4 km/h Distance 1.92 km</desc>
<time>2010-03-14T10:49:12.71</time>
<name>1441</name>
</trkpt>
<trkpt lat="48.937423" lon="8.678088">
<ele>337.0</ele>
<speed>1.5</speed>
<course>326.3</course>
<desc>Speed 1.5 km/h Distance 1.92 km</desc>
<time>2010-03-14T10:49:13.71</time>
<name>1442</name>
</trkpt>
<trkpt lat="48.937427" lon="8.678085">
<ele>337.0</ele>
<speed>1.8</speed>
<course>327.7</course>
<desc>Speed 1.8 km/h Distance 1.93 km</desc>
<time>2010-03-14T10:49:14.71</time>
<name>1443</name>
</trkpt>
<trkpt lat="48.937432" lon="8.678080">
<ele>336.0</ele>
<speed>2.2</speed>
<course>307.0</course>
<desc>Speed 2.2 km/h Distance 1.93 km</desc>
<time>2010-03-14T10:49:15.71</time>
<name>1444</name>
</trkpt>
<trkpt lat="48.937435" lon="8.678073">
<ele>335.5</ele>
<speed>2.4</speed>
<course>315.5</course>
<desc>Speed 2.4 km/h Distance 1.93 km</desc>
<time>2010-03-14T10:49:16.71</time>
<name>1445</name>
</trkpt>
<trkpt lat="48.937442" lon="8.678063">
<ele>335.0</ele>
<speed>2.8</speed>
<course>326.8</course>
<desc>Speed 2.8 km/h Distance 1.93 km</desc>
<time>2010-03-14T10:49:17.71</time>
<name>1446</name>
</trkpt>
<trkpt lat="48.937448" lon="8.678057">
<ele>334.0</ele>
<speed>2.5</speed>
<course>337.8</course>
<desc>Speed 2.5 km/h Distance 1.93 km</desc>
<time>2010-03-14T10:49:18.71</time>
<name>1447</name>
</trkpt>
<trkpt lat="48.937453" lon="8.678053">
<ele>333.5</ele>
<speed>2.5</speed>
<course>342.5</course>
<desc>Speed 2.5 km/h Distance 1.93 km</desc>
<time>2010-03-14T10:49:19.71</time>
<name>1448</name>
</trkpt>
<trkpt lat="48.937460" lon="8.678050">
<ele>333.5</ele>
<speed>1.7</speed>
<course>336.2</course>
<desc>Speed 1.7 km/h Distance 1.93 km</desc>
<time>2010-03-14T10:49:20.71</time>
<name>1449</name>
</trkpt>
<trkpt lat="48.937465" lon="8.678047">
<ele>333.0</ele>
<speed>1.5</speed>
<course>320.6</course>
<desc>Speed 1.5 km/h Distance 1.93 km</desc>
<time>2010-03-14T10:49:21.71</time>
<name>1450</name>
</trkpt>
<trkpt lat="48.937472" lon="8.678038">
<ele>333.0</ele>
<speed>2.2</speed>
<course>334.8</course>
<desc>Speed 2.2 km/h Distance 1.93 km</desc>
<time>2010-03-14T10:49:22.71</time>
<name>1451</name>
</trkpt>
<trkpt lat="48.937483" lon="8.678030">
<ele>332.5</ele>
<speed>2.6</speed>
<course>330.2</course>
<desc>Speed 2.6 km/h Distance 1.93 km</desc>
<time>2010-03-14T10:49:23.71</time>
<name>1452</name>
</trkpt>
<trkpt lat="48.937497" lon="8.678018">
<ele>332.0</ele>
<speed>2.8</speed>
<course>335.2</course>
<desc>Speed 2.8 km/h Distance 1.93 km</desc>
<time>2010-03-14T10:49:24.71</time>
<name>1453</name>
</trkpt>
<trkpt lat="48.937503" lon="8.678013">
<ele>331.5</ele>
<speed>2.0</speed>
<course>338.5</course>
<desc>Speed 2.0 km/h Distance 1.94 km</desc>
<time>2010-03-14T10:49:25.71</time>
<name>1454</name>
</trkpt>
<trkpt lat="48.937512" lon="8.678008">
<ele>330.5</ele>
<speed>1.4</speed>
<course>324.5</course>
<desc>Speed 1.4 km/h Distance 1.94 km</desc>
<time>2010-03-14T10:49:26.71</time>
<name>1455</name>
</trkpt>
<trkpt lat="48.937515" lon="8.678005">
<ele>329.5</ele>
<speed>1.3</speed>
<course>284.4</course>
<desc>Speed 1.3 km/h Distance 1.94 km</desc>
<time>2010-03-14T10:49:27.71</time>
<name>1456</name>
</trkpt>
<trkpt lat="48.937517" lon="8.677995">
<ele>329.0</ele>
<speed>1.7</speed>
<course>242.6</course>
<desc>Speed 1.7 km/h Distance 1.94 km</desc>
<time>2010-03-14T10:49:28.71</time>
<name>1457</name>
</trkpt>
<trkpt lat="48.937515" lon="8.677990">
<ele>329.0</ele>
<speed>2.2</speed>
<course>323.1</course>
<desc>Speed 2.2 km/h Distance 1.94 km</desc>
<time>2010-03-14T10:49:29.71</time>
<name>1458</name>
</trkpt>
<trkpt lat="48.937527" lon="8.677977">
<ele>328.5</ele>
<speed>4.0</speed>
<course>345.1</course>
<desc>Speed 4.0 km/h Distance 1.94 km</desc>
<time>2010-03-14T10:49:30.71</time>
<name>1459</name>
</trkpt>
<trkpt lat="48.937535" lon="8.677973">
<ele>328.0</ele>
<speed>2.7</speed>
<course>332.1</course>
<desc>Speed 2.7 km/h Distance 1.94 km</desc>
<time>2010-03-14T10:49:31.71</time>
<name>1460</name>
</trkpt>
<trkpt lat="48.937543" lon="8.677967">
<ele>327.5</ele>
<speed>3.2</speed>
<course>341.8</course>
<desc>Speed 3.2 km/h Distance 1.94 km</desc>
<time>2010-03-14T10:49:32.71</time>
<name>1461</name>
</trkpt>
<trkpt lat="48.937553" lon="8.677962">
<ele>327.5</ele>
<speed>3.1</speed>
<course>332.1</course>
<desc>Speed 3.1 km/h Distance 1.94 km</desc>
<time>2010-03-14T10:49:33.71</time>
<name>1462</name>
</trkpt>
<trkpt lat="48.937562" lon="8.677955">
<ele>327.0</ele>
<speed>1.8</speed>
<course>300.3</course>
<desc>Speed 1.8 km/h Distance 1.94 km</desc>
<time>2010-03-14T10:49:34.71</time>
<name>1463</name>
</trkpt>
<trkpt lat="48.937570" lon="8.677933">
<ele>327.0</ele>
<speed>2.1</speed>
<course>322.5</course>
<desc>Speed 2.1 km/h Distance 1.95 km</desc>
<time>2010-03-14T10:49:35.71</time>
<name>1464</name>
</trkpt>
<trkpt lat="48.937580" lon="8.677922">
<ele>327.0</ele>
<speed>1.8</speed>
<course>346.5</course>
<desc>Speed 1.8 km/h Distance 1.95 km</desc>
<time>2010-03-14T10:49:36.71</time>
<name>1465</name>
</trkpt>
<trkpt lat="48.937593" lon="8.677917">
<ele>326.5</ele>
<speed>1.4</speed>
<course>355.6</course>
<desc>Speed 1.4 km/h Distance 1.95 km</desc>
<time>2010-03-14T10:49:37.71</time>
<name>1466</name>
</trkpt>
<trkpt lat="48.937603" lon="8.677915">
<ele>325.5</ele>
<speed>1.4</speed>
<course>346.5</course>
<desc>Speed 1.4 km/h Distance 1.95 km</desc>
<time>2010-03-14T10:49:38.71</time>
<name>1467</name>
</trkpt>
<trkpt lat="48.937617" lon="8.677910">
<ele>325.0</ele>
<speed>2.4</speed>
<course>351.2</course>
<desc>Speed 2.4 km/h Distance 1.95 km</desc>
<time>2010-03-14T10:49:39.71</time>
<name>1468</name>
</trkpt>
<trkpt lat="48.937632" lon="8.677907">
<ele>324.5</ele>
<speed>2.0</speed>
<course>350.5</course>
<desc>Speed 2.0 km/h Distance 1.95 km</desc>
<time>2010-03-14T10:49:40.71</time>
<name>1469</name>
</trkpt>
<trkpt lat="48.937652" lon="8.677902">
<ele>324.5</ele>
<speed>2.6</speed>
<course>353.0</course>
<desc>Speed 2.6 km/h Distance 1.95 km</desc>
<time>2010-03-14T10:49:41.71</time>
<name>1470</name>
</trkpt>
<trkpt lat="48.937670" lon="8.677898">
<ele>324.0</ele>
<speed>1.5</speed>
<course>357.3</course>
<desc>Speed 1.5 km/h Distance 1.96 km</desc>
<time>2010-03-14T10:49:42.71</time>
<name>1471</name>
</trkpt>
<trkpt lat="48.937690" lon="8.677897">
<ele>324.5</ele>
<speed>2.2</speed>
<course>347.8</course>
<desc>Speed 2.2 km/h Distance 1.96 km</desc>
<time>2010-03-14T10:49:43.71</time>
<name>1472</name>
</trkpt>
<trkpt lat="48.937705" lon="8.677892">
<ele>323.5</ele>
<speed>1.6</speed>
<course>14.9</course>
<desc>Speed 1.6 km/h Distance 1.96 km</desc>
<time>2010-03-14T10:49:44.71</time>
<name>1473</name>
</trkpt>
<trkpt lat="48.937713" lon="8.677895">
<ele>322.5</ele>
<speed>1.3</speed>
<course>355.3</course>
<desc>Speed 1.3 km/h Distance 1.96 km</desc>
<time>2010-03-14T10:49:45.71</time>
<name>1474</name>
</trkpt>
<trkpt lat="48.937725" lon="8.677893">
<ele>321.5</ele>
<speed>1.5</speed>
<course>5.3</course>
<desc>Speed 1.5 km/h Distance 1.96 km</desc>
<time>2010-03-14T10:49:46.71</time>
<name>1475</name>
</trkpt>
<trkpt lat="48.937738" lon="8.677895">
<ele>320.0</ele>
<speed>1.6</speed>
<course>2.8</course>
<desc>Speed 1.6 km/h Distance 1.96 km</desc>
<time>2010-03-14T10:49:47.71</time>
<name>1476</name>
</trkpt>
<trkpt lat="48.937755" lon="8.677895">
<ele>319.0</ele>
<speed>2.2</speed>
<course>3.9</course>
<desc>Speed 2.2 km/h Distance 1.97 km</desc>
<time>2010-03-14T10:49:48.71</time>
<name>1477</name>
</trkpt>
<trkpt lat="48.937768" lon="8.677897">
<ele>318.5</ele>
<speed>2.3</speed>
<course>353.7</course>
<desc>Speed 2.3 km/h Distance 1.97 km</desc>
<time>2010-03-14T10:49:49.71</time>
<name>1478</name>
</trkpt>
<trkpt lat="48.937780" lon="8.677895">
<ele>317.5</ele>
<speed>2.3</speed>
<course>334.8</course>
<desc>Speed 2.3 km/h Distance 1.97 km</desc>
<time>2010-03-14T10:49:50.71</time>
<name>1479</name>
</trkpt>
<trkpt lat="48.937792" lon="8.677887">
<ele>317.0</ele>
<speed>2.5</speed>
<course>337.9</course>
<desc>Speed 2.5 km/h Distance 1.97 km</desc>
<time>2010-03-14T10:49:51.71</time>
<name>1480</name>
</trkpt>
<trkpt lat="48.937805" lon="8.677878">
<ele>317.0</ele>
<speed>4.9</speed>
<course>23.0</course>
<desc>Speed 4.9 km/h Distance 1.97 km</desc>
<time>2010-03-14T10:49:52.71</time>
<name>1481</name>
</trkpt>
<trkpt lat="48.937808" lon="8.677880">
<ele>315.5</ele>
<speed>0.9</speed>
<course>352.3</course>
<desc>Speed 0.9 km/h Distance 1.97 km</desc>
<time>2010-03-14T10:49:53.71</time>
<name>1482</name>
</trkpt>
<trkpt lat="48.937825" lon="8.677877">
<ele>315.5</ele>
<speed>4.5</speed>
<course>355.6</course>
<desc>Speed 4.5 km/h Distance 1.97 km</desc>
<time>2010-03-14T10:49:54.71</time>
<name>1483</name>
</trkpt>
<trkpt lat="48.937835" lon="8.677875">
<ele>315.5</ele>
<speed>3.0</speed>
<course>352.6</course>
<desc>Speed 3.0 km/h Distance 1.98 km</desc>
<time>2010-03-14T10:49:55.71</time>
<name>1484</name>
</trkpt>
<trkpt lat="48.937842" lon="8.677873">
<ele>315.5</ele>
<speed>1.4</speed>
<course>353.7</course>
<desc>Speed 1.4 km/h Distance 1.98 km</desc>
<time>2010-03-14T10:49:56.71</time>
<name>1485</name>
</trkpt>
<trkpt lat="48.937853" lon="8.677872">
<ele>315.0</ele>
<speed>2.2</speed>
<course>2.2</course>
<desc>Speed 2.2 km/h Distance 1.98 km</desc>
<time>2010-03-14T10:49:57.71</time>
<name>1486</name>
</trkpt>
<trkpt lat="48.937865" lon="8.677872">
<ele>314.5</ele>
<speed>2.3</speed>
<course>346.5</course>
<desc>Speed 2.3 km/h Distance 1.98 km</desc>
<time>2010-03-14T10:49:58.71</time>
<name>1487</name>
</trkpt>
<trkpt lat="48.937878" lon="8.677867">
<ele>314.0</ele>
<speed>2.2</speed>
<course>324.9</course>
<desc>Speed 2.2 km/h Distance 1.98 km</desc>
<time>2010-03-14T10:49:59.71</time>
<name>1488</name>
</trkpt>
<trkpt lat="48.937925" lon="8.677817">
<ele>317.5</ele>
<speed>5.4</speed>
<course>338.5</course>
<desc>Speed 5.4 km/h Distance 1.99 km</desc>
<time>2010-03-14T10:50:01.71</time>
<name>1489</name>
</trkpt>
<trkpt lat="48.937942" lon="8.677807">
<ele>316.5</ele>
<speed>2.5</speed>
<course>341.9</course>
<desc>Speed 2.5 km/h Distance 1.99 km</desc>
<time>2010-03-14T10:50:02.71</time>
<name>1490</name>
</trkpt>
<trkpt lat="48.937955" lon="8.677800">
<ele>316.5</ele>
<speed>3.1</speed>
<course>341.8</course>
<desc>Speed 3.1 km/h Distance 1.99 km</desc>
<time>2010-03-14T10:50:03.71</time>
<name>1491</name>
</trkpt>
<trkpt lat="48.937975" lon="8.677790">
<ele>317.0</ele>
<speed>5.9</speed>
<course>1.2</course>
<desc>Speed 5.9 km/h Distance 1.99 km</desc>
<time>2010-03-14T10:50:04.71</time>
<name>1492</name>
</trkpt>
<trkpt lat="48.937988" lon="8.677790">
<ele>316.5</ele>
<speed>1.5</speed>
<course>2.2</course>
<desc>Speed 1.5 km/h Distance 1.99 km</desc>
<time>2010-03-14T10:50:05.71</time>
<name>1493</name>
</trkpt>
<trkpt lat="48.938000" lon="8.677790">
<ele>314.5</ele>
<speed>0.9</speed>
<course>326.7</course>
<desc>Speed 0.9 km/h Distance 2.00 km</desc>
<time>2010-03-14T10:50:06.71</time>
<name>1494</name>
</trkpt>
<trkpt lat="48.938035" lon="8.677755">
<ele>315.0</ele>
<speed>3.6</speed>
<course>347.7</course>
<desc>Speed 3.6 km/h Distance 2.00 km</desc>
<time>2010-03-14T10:50:08.71</time>
<name>1495</name>
</trkpt>
<trkpt lat="48.938055" lon="8.677748">
<ele>315.0</ele>
<speed>2.9</speed>
<course>314.1</course>
<desc>Speed 2.9 km/h Distance 2.00 km</desc>
<time>2010-03-14T10:50:09.71</time>
<name>1496</name>
</trkpt>
<trkpt lat="48.938067" lon="8.677730">
<ele>315.5</ele>
<speed>3.0</speed>
<course>352.5</course>
<desc>Speed 3.0 km/h Distance 2.00 km</desc>
<time>2010-03-14T10:50:10.71</time>
<name>1497</name>
</trkpt>
<trkpt lat="48.938082" lon="8.677727">
<ele>315.0</ele>
<speed>3.2</speed>
<course>357.2</course>
<desc>Speed 3.2 km/h Distance 2.01 km</desc>
<time>2010-03-14T10:50:11.71</time>
<name>1498</name>
</trkpt>
<trkpt lat="48.938098" lon="8.677725">
<ele>315.0</ele>
<speed>3.7</speed>
<course>0.0</course>
<desc>Speed 3.7 km/h Distance 2.01 km</desc>
<time>2010-03-14T10:50:12.71</time>
<name>1499</name>
</trkpt>
<trkpt lat="48.938108" lon="8.677725">
<ele>314.5</ele>
<speed>1.8</speed>
<course>355.3</course>
<desc>Speed 1.8 km/h Distance 2.01 km</desc>
<time>2010-03-14T10:50:13.71</time>
<name>1500</name>
</trkpt>
<trkpt lat="48.938120" lon="8.677723">
<ele>314.0</ele>
<speed>2.0</speed>
<course>310.3</course>
<desc>Speed 2.0 km/h Distance 2.01 km</desc>
<time>2010-03-14T10:50:14.71</time>
<name>1501</name>
</trkpt>
<trkpt lat="48.938128" lon="8.677708">
<ele>314.0</ele>
<speed>1.6</speed>
<course>313.6</course>
<desc>Speed 1.6 km/h Distance 2.01 km</desc>
<time>2010-03-14T10:50:15.70</time>
<name>1502</name>
</trkpt>
<trkpt lat="48.938162" lon="8.677655">
<ele>315.5</ele>
<speed>1.8</speed>
<course>290.8</course>
<desc>Speed 1.8 km/h Distance 2.02 km</desc>
<time>2010-03-14T10:50:17.71</time>
<name>1503</name>
</trkpt>
<trkpt lat="48.938167" lon="8.677635">
<ele>315.5</ele>
<speed>1.8</speed>
<course>290.8</course>
<desc>Speed 1.8 km/h Distance 2.02 km</desc>
<time>2010-03-14T10:50:18.71</time>
<name>1504</name>
</trkpt>
<trkpt lat="48.938172" lon="8.677615">
<ele>315.5</ele>
<speed>1.0</speed>
<course>303.1</course>
<desc>Speed 1.0 km/h Distance 2.02 km</desc>
<time>2010-03-14T10:50:19.71</time>
<name>1505</name>
</trkpt>
<trkpt lat="48.938182" lon="8.677592">
<ele>315.5</ele>
<speed>2.2</speed>
<course>347.4</course>
<desc>Speed 2.2 km/h Distance 2.02 km</desc>
<time>2010-03-14T10:50:20.71</time>
<name>1506</name>
</trkpt>
<trkpt lat="48.938192" lon="8.677588">
<ele>314.5</ele>
<speed>1.8</speed>
<course>326.6</course>
<desc>Speed 1.8 km/h Distance 2.02 km</desc>
<time>2010-03-14T10:50:21.71</time>
<name>1507</name>
</trkpt>
<trkpt lat="48.938205" lon="8.677575">
<ele>314.0</ele>
<speed>2.3</speed>
<course>333.6</course>
<desc>Speed 2.3 km/h Distance 2.03 km</desc>
<time>2010-03-14T10:50:22.71</time>
<name>1508</name>
</trkpt>
<trkpt lat="48.938218" lon="8.677565">
<ele>312.5</ele>
<speed>1.7</speed>
<course>351.9</course>
<desc>Speed 1.7 km/h Distance 2.03 km</desc>
<time>2010-03-14T10:50:23.71</time>
<name>1509</name>
</trkpt>
<trkpt lat="48.938228" lon="8.677563">
<ele>311.5</ele>
<speed>1.4</speed>
<course>329.3</course>
<desc>Speed 1.4 km/h Distance 2.03 km</desc>
<time>2010-03-14T10:50:24.71</time>
<name>1510</name>
</trkpt>
<trkpt lat="48.938245" lon="8.677548">
<ele>312.0</ele>
<speed>4.4</speed>
<course>348.3</course>
<desc>Speed 4.4 km/h Distance 2.03 km</desc>
<time>2010-03-14T10:50:25.71</time>
<name>1511</name>
</trkpt>
<trkpt lat="48.938260" lon="8.677543">
<ele>312.5</ele>
<speed>5.0</speed>
<course>337.7</course>
<desc>Speed 5.0 km/h Distance 2.03 km</desc>
<time>2010-03-14T10:50:26.71</time>
<name>1512</name>
</trkpt>
<trkpt lat="48.938273" lon="8.677535">
<ele>312.5</ele>
<speed>4.8</speed>
<course>330.6</course>
<desc>Speed 4.8 km/h Distance 2.03 km</desc>
<time>2010-03-14T10:50:27.71</time>
<name>1513</name>
</trkpt>
<trkpt lat="48.938285" lon="8.677525">
<ele>312.5</ele>
<speed>3.7</speed>
<course>326.8</course>
<desc>Speed 3.7 km/h Distance 2.04 km</desc>
<time>2010-03-14T10:50:28.71</time>
<name>1514</name>
</trkpt>
<trkpt lat="48.938295" lon="8.677515">
<ele>312.0</ele>
<speed>2.1</speed>
<course>318.8</course>
<desc>Speed 2.1 km/h Distance 2.04 km</desc>
<time>2010-03-14T10:50:29.71</time>
<name>1515</name>
</trkpt>
<trkpt lat="48.938305" lon="8.677502">
<ele>311.0</ele>
<speed>2.2</speed>
<course>326.7</course>
<desc>Speed 2.2 km/h Distance 2.04 km</desc>
<time>2010-03-14T10:50:30.71</time>
<name>1516</name>
</trkpt>
<trkpt lat="48.938322" lon="8.677485">
<ele>312.0</ele>
<speed>3.6</speed>
<course>329.7</course>
<desc>Speed 3.6 km/h Distance 2.04 km</desc>
<time>2010-03-14T10:50:31.71</time>
<name>1517</name>
</trkpt>
<trkpt lat="48.938337" lon="8.677472">
<ele>312.0</ele>
<speed>5.0</speed>
<course>331.4</course>
<desc>Speed 5.0 km/h Distance 2.04 km</desc>
<time>2010-03-14T10:50:32.71</time>
<name>1518</name>
</trkpt>
<trkpt lat="48.938347" lon="8.677463">
<ele>312.5</ele>
<speed>3.3</speed>
<course>326.8</course>
<desc>Speed 3.3 km/h Distance 2.04 km</desc>
<time>2010-03-14T10:50:33.71</time>
<name>1519</name>
</trkpt>
<trkpt lat="48.938355" lon="8.677455">
<ele>311.0</ele>
<speed>2.1</speed>
<course>323.1</course>
<desc>Speed 2.1 km/h Distance 2.04 km</desc>
<time>2010-03-14T10:50:34.71</time>
<name>1520</name>
</trkpt>
<trkpt lat="48.938367" lon="8.677442">
<ele>311.0</ele>
<speed>3.5</speed>
<course>321.2</course>
<desc>Speed 3.5 km/h Distance 2.05 km</desc>
<time>2010-03-14T10:50:35.71</time>
<name>1521</name>
</trkpt>
<trkpt lat="48.938382" lon="8.677423">
<ele>311.0</ele>
<speed>3.6</speed>
<course>335.5</course>
<desc>Speed 3.6 km/h Distance 2.05 km</desc>
<time>2010-03-14T10:50:36.71</time>
<name>1522</name>
</trkpt>
<trkpt lat="48.938403" lon="8.677408">
<ele>312.0</ele>
<speed>4.5</speed>
<course>304.1</course>
<desc>Speed 4.5 km/h Distance 2.05 km</desc>
<time>2010-03-14T10:50:37.71</time>
<name>1523</name>
</trkpt>
<trkpt lat="48.938410" lon="8.677393">
<ele>312.0</ele>
<speed>2.4</speed>
<course>331.4</course>
<desc>Speed 2.4 km/h Distance 2.05 km</desc>
<time>2010-03-14T10:50:38.71</time>
<name>1524</name>
</trkpt>
<trkpt lat="48.938420" lon="8.677385">
<ele>312.5</ele>
<speed>2.9</speed>
<course>330.6</course>
<desc>Speed 2.9 km/h Distance 2.05 km</desc>
<time>2010-03-14T10:50:39.71</time>
<name>1525</name>
</trkpt>
<trkpt lat="48.938432" lon="8.677375">
<ele>312.0</ele>
<speed>2.9</speed>
<course>322.7</course>
<desc>Speed 2.9 km/h Distance 2.05 km</desc>
<time>2010-03-14T10:50:40.71</time>
<name>1526</name>
</trkpt>
<trkpt lat="48.938442" lon="8.677363">
<ele>311.5</ele>
<speed>1.9</speed>
<course>318.8</course>
<desc>Speed 1.9 km/h Distance 2.06 km</desc>
<time>2010-03-14T10:50:41.71</time>
<name>1527</name>
</trkpt>
<trkpt lat="48.938457" lon="8.677343">
<ele>312.0</ele>
<speed>4.0</speed>
<course>316.5</course>
<desc>Speed 4.0 km/h Distance 2.06 km</desc>
<time>2010-03-14T10:50:42.71</time>
<name>1528</name>
</trkpt>
<trkpt lat="48.938472" lon="8.677322">
<ele>312.5</ele>
<speed>3.8</speed>
<course>312.4</course>
<desc>Speed 3.8 km/h Distance 2.06 km</desc>
<time>2010-03-14T10:50:43.71</time>
<name>1529</name>
</trkpt>
<trkpt lat="48.938482" lon="8.677305">
<ele>312.5</ele>
<speed>3.7</speed>
<course>313.1</course>
<desc>Speed 3.7 km/h Distance 2.06 km</desc>
<time>2010-03-14T10:50:44.71</time>
<name>1530</name>
</trkpt>
<trkpt lat="48.938495" lon="8.677283">
<ele>313.5</ele>
<speed>4.2</speed>
<course>307.3</course>
<desc>Speed 4.2 km/h Distance 2.06 km</desc>
<time>2010-03-14T10:50:45.71</time>
<name>1531</name>
</trkpt>
<trkpt lat="48.938502" lon="8.677270">
<ele>313.0</ele>
<speed>3.3</speed>
<course>309.7</course>
<desc>Speed 3.3 km/h Distance 2.07 km</desc>
<time>2010-03-14T10:50:46.71</time>
<name>1532</name>
</trkpt>
<trkpt lat="48.938512" lon="8.677252">
<ele>313.0</ele>
<speed>4.8</speed>
<course>323.4</course>
<desc>Speed 4.8 km/h Distance 2.07 km</desc>
<time>2010-03-14T10:50:47.71</time>
<name>1533</name>
</trkpt>
<trkpt lat="48.938525" lon="8.677237">
<ele>313.5</ele>
<speed>5.4</speed>
<course>316.7</course>
<desc>Speed 5.4 km/h Distance 2.07 km</desc>
<time>2010-03-14T10:50:48.71</time>
<name>1534</name>
</trkpt>
<trkpt lat="48.938537" lon="8.677220">
<ele>314.0</ele>
<speed>4.6</speed>
<course>323.4</course>
<desc>Speed 4.6 km/h Distance 2.07 km</desc>
<time>2010-03-14T10:50:49.71</time>
<name>1535</name>
</trkpt>
<trkpt lat="48.938550" lon="8.677205">
<ele>314.0</ele>
<speed>3.8</speed>
<course>326.7</course>
<desc>Speed 3.8 km/h Distance 2.07 km</desc>
<time>2010-03-14T10:50:50.71</time>
<name>1536</name>
</trkpt>
<trkpt lat="48.938567" lon="8.677188">
<ele>314.0</ele>
<speed>5.5</speed>
<course>320.6</course>
<desc>Speed 5.5 km/h Distance 2.08 km</desc>
<time>2010-03-14T10:50:51.71</time>
<name>1537</name>
</trkpt>
<trkpt lat="48.938573" lon="8.677180">
<ele>313.0</ele>
<speed>0.9</speed>
<course>321.9</course>
<desc>Speed 0.9 km/h Distance 2.08 km</desc>
<time>2010-03-14T10:50:52.71</time>
<name>1538</name>
</trkpt>
<trkpt lat="48.938582" lon="8.677170">
<ele>313.0</ele>
<speed>3.6</speed>
<course>323.1</course>
<desc>Speed 3.6 km/h Distance 2.08 km</desc>
<time>2010-03-14T10:50:53.83</time>
<name>1539</name>
</trkpt>
<trkpt lat="48.938593" lon="8.677157">
<ele>313.5</ele>
<speed>4.5</speed>
<course>318.8</course>
<desc>Speed 4.5 km/h Distance 2.08 km</desc>
<time>2010-03-14T10:50:54.72</time>
<name>1540</name>
</trkpt>
<trkpt lat="48.938603" lon="8.677143">
<ele>314.5</ele>
<speed>4.1</speed>
<course>318.8</course>
<desc>Speed 4.1 km/h Distance 2.08 km</desc>
<time>2010-03-14T10:50:55.72</time>
<name>1541</name>
</trkpt>
<trkpt lat="48.938613" lon="8.677130">
<ele>315.0</ele>
<speed>3.4</speed>
<course>292.5</course>
<desc>Speed 3.4 km/h Distance 2.08 km</desc>
<time>2010-03-14T10:50:56.72</time>
<name>1542</name>
</trkpt>
<trkpt lat="48.938618" lon="8.677112">
<ele>314.5</ele>
<speed>3.1</speed>
<course>326.8</course>
<desc>Speed 3.1 km/h Distance 2.08 km</desc>
<time>2010-03-14T10:50:57.72</time>
<name>1543</name>
</trkpt>
<trkpt lat="48.938627" lon="8.677103">
<ele>314.5</ele>
<speed>3.6</speed>
<course>326.3</course>
<desc>Speed 3.6 km/h Distance 2.08 km</desc>
<time>2010-03-14T10:50:58.72</time>
<name>1544</name>
</trkpt>
<trkpt lat="48.938630" lon="8.677100">
<ele>313.5</ele>
<speed>0.9</speed>
<course>321.9</course>
<desc>Speed 0.9 km/h Distance 2.09 km</desc>
<time>2010-03-14T10:50:59.72</time>
<name>1545</name>
</trkpt>
<trkpt lat="48.938638" lon="8.677090">
<ele>313.5</ele>
<speed>3.9</speed>
<course>326.3</course>
<desc>Speed 3.9 km/h Distance 2.09 km</desc>
<time>2010-03-14T10:51:00.72</time>
<name>1546</name>
</trkpt>
<trkpt lat="48.938642" lon="8.677087">
<ele>313.5</ele>
<speed>0.9</speed>
<course>321.9</course>
<desc>Speed 0.9 km/h Distance 2.09 km</desc>
<time>2010-03-14T10:51:01.72</time>
<name>1547</name>
</trkpt>
<trkpt lat="48.938650" lon="8.677077">
<ele>313.5</ele>
<speed>3.4</speed>
<course>297.0</course>
<desc>Speed 3.4 km/h Distance 2.09 km</desc>
<time>2010-03-14T10:51:02.72</time>
<name>1548</name>
</trkpt>
<trkpt lat="48.938653" lon="8.677067">
<ele>312.5</ele>
<speed>1.9</speed>
<course>290.8</course>
<desc>Speed 1.9 km/h Distance 2.09 km</desc>
<time>2010-03-14T10:51:03.72</time>
<name>1549</name>
</trkpt>
<trkpt lat="48.938657" lon="8.677053">
<ele>311.5</ele>
<speed>1.9</speed>
<course>255.6</course>
<desc>Speed 1.9 km/h Distance 2.09 km</desc>
<time>2010-03-14T10:51:04.72</time>
<name>1550</name>
</trkpt>
<trkpt lat="48.938655" lon="8.677043">
<ele>310.5</ele>
<speed>2.2</speed>
<course>270.0</course>
<desc>Speed 2.2 km/h Distance 2.09 km</desc>
<time>2010-03-14T10:51:05.72</time>
<name>1551</name>
</trkpt>
<trkpt lat="48.938655" lon="8.677033">
<ele>310.5</ele>
<speed>2.2</speed>
<course>326.8</course>
<desc>Speed 2.2 km/h Distance 2.09 km</desc>
<time>2010-03-14T10:51:06.72</time>
<name>1552</name>
</trkpt>
<trkpt lat="48.938660" lon="8.677028">
<ele>309.0</ele>
<speed>1.2</speed>
<course>161.2</course>
<desc>Speed 1.2 km/h Distance 2.09 km</desc>
<time>2010-03-14T10:51:07.72</time>
<name>1553</name>
</trkpt>
<trkpt lat="48.938657" lon="8.677030">
<ele>309.0</ele>
<speed>1.7</speed>
<course>249.1</course>
<desc>Speed 1.7 km/h Distance 2.09 km</desc>
<time>2010-03-14T10:51:08.72</time>
<name>1554</name>
</trkpt>
<trkpt lat="48.938655" lon="8.677023">
<ele>307.5</ele>
<speed>1.5</speed>
<course>290.9</course>
<desc>Speed 1.5 km/h Distance 2.09 km</desc>
<time>2010-03-14T10:51:09.72</time>
<name>1555</name>
</trkpt>
<trkpt lat="48.938657" lon="8.677017">
<ele>307.5</ele>
<speed>1.7</speed>
<course>270.0</course>
<desc>Speed 1.7 km/h Distance 2.09 km</desc>
<time>2010-03-14T10:51:10.72</time>
<name>1556</name>
</trkpt>
<trkpt lat="48.938657" lon="8.677015">
<ele>307.5</ele>
<speed>0.5</speed>
<course>270.0</course>
<desc>Speed 0.5 km/h Distance 2.09 km</desc>
<time>2010-03-14T10:51:11.72</time>
<name>1557</name>
</trkpt>
<trkpt lat="48.938657" lon="8.677005">
<ele>307.0</ele>
<speed>1.8</speed>
<course>270.0</course>
<desc>Speed 1.8 km/h Distance 2.09 km</desc>
<time>2010-03-14T10:51:12.72</time>
<name>1558</name>
</trkpt>
<trkpt lat="48.938657" lon="8.676995">
<ele>307.0</ele>
<speed>1.9</speed>
<course>310.9</course>
<desc>Speed 1.9 km/h Distance 2.09 km</desc>
<time>2010-03-14T10:51:13.72</time>
<name>1559</name>
</trkpt>
<trkpt lat="48.938663" lon="8.676983">
<ele>307.0</ele>
<speed>3.1</speed>
<course>290.9</course>
<desc>Speed 3.1 km/h Distance 2.10 km</desc>
<time>2010-03-14T10:51:14.72</time>
<name>1560</name>
</trkpt>
<trkpt lat="48.938667" lon="8.676970">
<ele>307.0</ele>
<speed>1.8</speed>
<course>299.7</course>
<desc>Speed 1.8 km/h Distance 2.10 km</desc>
<time>2010-03-14T10:51:15.72</time>
<name>1561</name>
</trkpt>
<trkpt lat="48.938672" lon="8.676957">
<ele>307.0</ele>
<speed>1.9</speed>
<course>312.4</course>
<desc>Speed 1.9 km/h Distance 2.10 km</desc>
<time>2010-03-14T10:51:16.72</time>
<name>1562</name>
</trkpt>
<trkpt lat="48.938682" lon="8.676940">
<ele>307.5</ele>
<speed>2.6</speed>
<course>305.0</course>
<desc>Speed 2.6 km/h Distance 2.10 km</desc>
<time>2010-03-14T10:51:17.72</time>
<name>1563</name>
</trkpt>
<trkpt lat="48.938692" lon="8.676918">
<ele>308.0</ele>
<speed>3.0</speed>
<course>299.7</course>
<desc>Speed 3.0 km/h Distance 2.10 km</desc>
<time>2010-03-14T10:51:18.72</time>
<name>1564</name>
</trkpt>
<trkpt lat="48.938697" lon="8.676905">
<ele>308.0</ele>
<speed>2.3</speed>
<course>270.0</course>
<desc>Speed 2.3 km/h Distance 2.10 km</desc>
<time>2010-03-14T10:51:19.72</time>
<name>1565</name>
</trkpt>
<trkpt lat="48.938697" lon="8.676890">
<ele>306.5</ele>
<speed>2.3</speed>
<course>296.9</course>
<desc>Speed 2.3 km/h Distance 2.10 km</desc>
<time>2010-03-14T10:51:20.72</time>
<name>1566</name>
</trkpt>
<trkpt lat="48.938702" lon="8.676875">
<ele>306.5</ele>
<speed>1.9</speed>
<course>307.6</course>
<desc>Speed 1.9 km/h Distance 2.11 km</desc>
<time>2010-03-14T10:51:21.72</time>
<name>1567</name>
</trkpt>
<trkpt lat="48.938707" lon="8.676865">
<ele>306.5</ele>
<speed>1.3</speed>
<course>312.2</course>
<desc>Speed 1.3 km/h Distance 2.11 km</desc>
<time>2010-03-14T10:51:22.72</time>
<name>1568</name>
</trkpt>
<trkpt lat="48.938712" lon="8.676857">
<ele>306.5</ele>
<speed>1.8</speed>
<course>318.6</course>
<desc>Speed 1.8 km/h Distance 2.11 km</desc>
<time>2010-03-14T10:51:23.72</time>
<name>1569</name>
</trkpt>
<trkpt lat="48.938717" lon="8.676850">
<ele>306.5</ele>
<speed>1.7</speed>
<course>317.8</course>
<desc>Speed 1.7 km/h Distance 2.11 km</desc>
<time>2010-03-14T10:51:24.72</time>
<name>1570</name>
</trkpt>
<trkpt lat="48.938730" lon="8.676832">
<ele>306.5</ele>
<speed>5.1</speed>
<course>322.5</course>
<desc>Speed 5.1 km/h Distance 2.11 km</desc>
<time>2010-03-14T10:51:25.72</time>
<name>1571</name>
</trkpt>
<trkpt lat="48.938740" lon="8.676820">
<ele>306.5</ele>
<speed>3.7</speed>
<course>315.5</course>
<desc>Speed 3.7 km/h Distance 2.11 km</desc>
<time>2010-03-14T10:51:26.72</time>
<name>1572</name>
</trkpt>
<trkpt lat="48.938747" lon="8.676810">
<ele>306.5</ele>
<speed>1.5</speed>
<course>326.8</course>
<desc>Speed 1.5 km/h Distance 2.11 km</desc>
<time>2010-03-14T10:51:27.72</time>
<name>1573</name>
</trkpt>
<trkpt lat="48.938757" lon="8.676800">
<ele>306.5</ele>
<speed>1.5</speed>
<course>317.4</course>
<desc>Speed 1.5 km/h Distance 2.11 km</desc>
<time>2010-03-14T10:51:28.72</time>
<name>1574</name>
</trkpt>
<trkpt lat="48.938765" lon="8.676788">
<ele>307.5</ele>
<speed>1.3</speed>
<course>320.6</course>
<desc>Speed 1.3 km/h Distance 2.11 km</desc>
<time>2010-03-14T10:51:29.72</time>
<name>1575</name>
</trkpt>
<trkpt lat="48.938772" lon="8.676780">
<ele>307.0</ele>
<speed>2.4</speed>
<course>338.5</course>
<desc>Speed 2.4 km/h Distance 2.12 km</desc>
<time>2010-03-14T10:51:30.72</time>
<name>1576</name>
</trkpt>
<trkpt lat="48.938780" lon="8.676775">
<ele>309.0</ele>
<speed>1.7</speed>
<course>242.6</course>
<desc>Speed 1.7 km/h Distance 2.12 km</desc>
<time>2010-03-14T10:51:31.72</time>
<name>1577</name>
</trkpt>
<trkpt lat="48.938778" lon="8.676770">
<ele>309.5</ele>
<speed>1.9</speed>
<course>318.6</course>
<desc>Speed 1.9 km/h Distance 2.12 km</desc>
<time>2010-03-14T10:51:32.72</time>
<name>1578</name>
</trkpt>
<trkpt lat="48.938783" lon="8.676763">
<ele>310.0</ele>
<speed>0.9</speed>
<course>307.0</course>
<desc>Speed 0.9 km/h Distance 2.12 km</desc>
<time>2010-03-14T10:51:33.72</time>
<name>1579</name>
</trkpt>
<trkpt lat="48.938787" lon="8.676757">
<ele>310.0</ele>
<speed>0.6</speed>
<course>270.0</course>
<desc>Speed 0.6 km/h Distance 2.12 km</desc>
<time>2010-03-14T10:51:34.72</time>
<name>1580</name>
</trkpt>
<trkpt lat="48.938787" lon="8.676747">
<ele>310.0</ele>
<speed>1.6</speed>
<course>297.0</course>
<desc>Speed 1.6 km/h Distance 2.12 km</desc>
<time>2010-03-14T10:51:35.72</time>
<name>1581</name>
</trkpt>
<trkpt lat="48.938790" lon="8.676737">
<ele>310.0</ele>
<speed>1.3</speed>
<course>293.6</course>
<desc>Speed 1.3 km/h Distance 2.12 km</desc>
<time>2010-03-14T10:51:36.72</time>
<name>1582</name>
</trkpt>
<trkpt lat="48.938793" lon="8.676725">
<ele>310.0</ele>
<speed>1.2</speed>
<course>336.2</course>
<desc>Speed 1.2 km/h Distance 2.12 km</desc>
<time>2010-03-14T10:51:37.72</time>
<name>1583</name>
</trkpt>
<trkpt lat="48.938803" lon="8.676718">
<ele>310.0</ele>
<speed>2.7</speed>
<course>326.7</course>
<desc>Speed 2.7 km/h Distance 2.12 km</desc>
<time>2010-03-14T10:51:38.72</time>
<name>1584</name>
</trkpt>
<trkpt lat="48.938822" lon="8.676700">
<ele>311.5</ele>
<speed>1.9</speed>
<course>317.4</course>
<desc>Speed 1.9 km/h Distance 2.12 km</desc>
<time>2010-03-14T10:51:39.72</time>
<name>1585</name>
</trkpt>
<trkpt lat="48.938830" lon="8.676688">
<ele>311.0</ele>
<speed>3.2</speed>
<course>315.5</course>
<desc>Speed 3.2 km/h Distance 2.13 km</desc>
<time>2010-03-14T10:51:40.72</time>
<name>1586</name>
</trkpt>
<trkpt lat="48.938837" lon="8.676678">
<ele>311.0</ele>
<speed>1.7</speed>
<course>294.6</course>
<desc>Speed 1.7 km/h Distance 2.13 km</desc>
<time>2010-03-14T10:51:41.72</time>
<name>1587</name>
</trkpt>
<trkpt lat="48.938842" lon="8.676662">
<ele>311.0</ele>
<speed>1.8</speed>
<course>270.0</course>
<desc>Speed 1.8 km/h Distance 2.13 km</desc>
<time>2010-03-14T10:51:42.72</time>
<name>1588</name>
</trkpt>
<trkpt lat="48.938842" lon="8.676647">
<ele>311.0</ele>
<speed>1.3</speed>
<course>315.5</course>
<desc>Speed 1.3 km/h Distance 2.13 km</desc>
<time>2010-03-14T10:51:43.72</time>
<name>1589</name>
</trkpt>
<trkpt lat="48.938848" lon="8.676637">
<ele>311.0</ele>
<speed>1.8</speed>
<course>309.4</course>
<desc>Speed 1.8 km/h Distance 2.13 km</desc>
<time>2010-03-14T10:51:44.72</time>
<name>1590</name>
</trkpt>
<trkpt lat="48.938860" lon="8.676615">
<ele>310.5</ele>
<speed>4.4</speed>
<course>310.3</course>
<desc>Speed 4.4 km/h Distance 2.13 km</desc>
<time>2010-03-14T10:51:45.72</time>
<name>1591</name>
</trkpt>
<trkpt lat="48.938868" lon="8.676600">
<ele>310.5</ele>
<speed>2.1</speed>
<course>289.4</course>
<desc>Speed 2.1 km/h Distance 2.13 km</desc>
<time>2010-03-14T10:51:46.72</time>
<name>1592</name>
</trkpt>
<trkpt lat="48.938873" lon="8.676578">
<ele>310.5</ele>
<speed>2.6</speed>
<course>317.5</course>
<desc>Speed 2.6 km/h Distance 2.14 km</desc>
<time>2010-03-14T10:51:47.72</time>
<name>1593</name>
</trkpt>
<trkpt lat="48.938920" lon="8.676513">
<ele>315.5</ele>
<speed>2.3</speed>
<course>296.9</course>
<desc>Speed 2.3 km/h Distance 2.14 km</desc>
<time>2010-03-14T10:51:49.72</time>
<name>1594</name>
</trkpt>
<trkpt lat="48.938928" lon="8.676488">
<ele>315.5</ele>
<speed>2.9</speed>
<course>318.8</course>
<desc>Speed 2.9 km/h Distance 2.14 km</desc>
<time>2010-03-14T10:51:50.72</time>
<name>1595</name>
</trkpt>
<trkpt lat="48.938938" lon="8.676475">
<ele>315.5</ele>
<speed>2.4</speed>
<course>307.3</course>
<desc>Speed 2.4 km/h Distance 2.15 km</desc>
<time>2010-03-14T10:51:51.72</time>
<name>1596</name>
</trkpt>
<trkpt lat="48.938952" lon="8.676448">
<ele>315.0</ele>
<speed>3.7</speed>
<course>304.4</course>
<desc>Speed 3.7 km/h Distance 2.15 km</desc>
<time>2010-03-14T10:51:52.72</time>
<name>1597</name>
</trkpt>
<trkpt lat="48.938967" lon="8.676415">
<ele>315.0</ele>
<speed>4.2</speed>
<course>293.9</course>
<desc>Speed 4.2 km/h Distance 2.15 km</desc>
<time>2010-03-14T10:51:53.72</time>
<name>1598</name>
</trkpt>
<trkpt lat="48.938990" lon="8.676335">
<ele>315.0</ele>
<speed>3.8</speed>
<course>309.7</course>
<desc>Speed 3.8 km/h Distance 2.16 km</desc>
<time>2010-03-14T10:51:55.72</time>
<name>1599</name>
</trkpt>
<trkpt lat="48.939040" lon="8.676243">
<ele>319.5</ele>
<speed>3.7</speed>
<course>317.9</course>
<desc>Speed 3.7 km/h Distance 2.17 km</desc>
<time>2010-03-14T10:51:57.72</time>
<name>1600</name>
</trkpt>
<trkpt lat="48.939053" lon="8.676225">
<ele>319.5</ele>
<speed>4.7</speed>
<course>323.4</course>
<desc>Speed 4.7 km/h Distance 2.17 km</desc>
<time>2010-03-14T10:51:58.72</time>
<name>1601</name>
</trkpt>
<trkpt lat="48.939067" lon="8.676210">
<ele>319.5</ele>
<speed>3.9</speed>
<course>317.4</course>
<desc>Speed 3.9 km/h Distance 2.17 km</desc>
<time>2010-03-14T10:51:59.72</time>
<name>1602</name>
</trkpt>
<trkpt lat="48.939083" lon="8.676187">
<ele>319.5</ele>
<speed>5.0</speed>
<course>309.7</course>
<desc>Speed 5.0 km/h Distance 2.17 km</desc>
<time>2010-03-14T10:52:00.72</time>
<name>1603</name>
</trkpt>
<trkpt lat="48.939093" lon="8.676168">
<ele>319.5</ele>
<speed>4.0</speed>
<course>311.6</course>
<desc>Speed 4.0 km/h Distance 2.17 km</desc>
<time>2010-03-14T10:52:01.72</time>
<name>1604</name>
</trkpt>
<trkpt lat="48.939105" lon="8.676148">
<ele>319.5</ele>
<speed>3.5</speed>
<course>313.6</course>
<desc>Speed 3.5 km/h Distance 2.18 km</desc>
<time>2010-03-14T10:52:02.72</time>
<name>1605</name>
</trkpt>
<trkpt lat="48.939122" lon="8.676122">
<ele>319.5</ele>
<speed>5.2</speed>
<course>310.2</course>
<desc>Speed 5.2 km/h Distance 2.18 km</desc>
<time>2010-03-14T10:52:03.72</time>
<name>1606</name>
</trkpt>
<trkpt lat="48.939138" lon="8.676092">
<ele>319.5</ele>
<speed>5.1</speed>
<course>319.5</course>
<desc>Speed 5.1 km/h Distance 2.18 km</desc>
<time>2010-03-14T10:52:04.72</time>
<name>1607</name>
</trkpt>
<trkpt lat="48.939155" lon="8.676070">
<ele>320.0</ele>
<speed>5.3</speed>
<course>347.4</course>
<desc>Speed 5.3 km/h Distance 2.18 km</desc>
<time>2010-03-14T10:52:05.72</time>
<name>1608</name>
</trkpt>
<trkpt lat="48.939170" lon="8.676065">
<ele>320.0</ele>
<speed>4.0</speed>
<course>1.2</course>
<desc>Speed 4.0 km/h Distance 2.19 km</desc>
<time>2010-03-14T10:52:06.72</time>
<name>1609</name>
</trkpt>
<trkpt lat="48.939183" lon="8.676065">
<ele>319.5</ele>
<speed>3.7</speed>
<course>357.2</course>
<desc>Speed 3.7 km/h Distance 2.19 km</desc>
<time>2010-03-14T10:52:07.72</time>
<name>1610</name>
</trkpt>
<trkpt lat="48.939200" lon="8.676063">
<ele>319.5</ele>
<speed>4.3</speed>
<course>2.2</course>
<desc>Speed 4.3 km/h Distance 2.19 km</desc>
<time>2010-03-14T10:52:08.72</time>
<name>1611</name>
</trkpt>
<trkpt lat="48.939212" lon="8.676063">
<ele>319.0</ele>
<speed>3.9</speed>
<course>90.0</course>
<desc>Speed 3.9 km/h Distance 2.19 km</desc>
<time>2010-03-14T10:52:09.72</time>
<name>1612</name>
</trkpt>
<trkpt lat="48.939212" lon="8.676068">
<ele>319.0</ele>
<speed>4.1</speed>
<course>72.9</course>
<desc>Speed 4.1 km/h Distance 2.19 km</desc>
<time>2010-03-14T10:52:10.72</time>
<name>1613</name>
</trkpt>
<trkpt lat="48.939213" lon="8.676077">
<ele>319.0</ele>
<speed>3.1</speed>
<course>128.1</course>
<desc>Speed 3.1 km/h Distance 2.19 km</desc>
<time>2010-03-14T10:52:11.72</time>
<name>1614</name>
</trkpt>
<trkpt lat="48.939212" lon="8.676080">
<ele>319.0</ele>
<speed>2.2</speed>
<course>127.6</course>
<desc>Speed 2.2 km/h Distance 2.19 km</desc>
<time>2010-03-14T10:52:12.72</time>
<name>1615</name>
</trkpt>
<trkpt lat="48.939208" lon="8.676087">
<ele>319.0</ele>
<speed>3.7</speed>
<course>104.2</course>
<desc>Speed 3.7 km/h Distance 2.19 km</desc>
<time>2010-03-14T10:52:13.72</time>
<name>1616</name>
</trkpt>
<trkpt lat="48.939207" lon="8.676097">
<ele>319.0</ele>
<speed>4.5</speed>
<course>132.6</course>
<desc>Speed 4.5 km/h Distance 2.19 km</desc>
<time>2010-03-14T10:52:14.72</time>
<name>1617</name>
</trkpt>
<trkpt lat="48.939202" lon="8.676105">
<ele>319.0</ele>
<speed>3.8</speed>
<course>136.5</course>
<desc>Speed 3.8 km/h Distance 2.19 km</desc>
<time>2010-03-14T10:52:15.72</time>
<name>1618</name>
</trkpt>
<trkpt lat="48.939198" lon="8.676110">
<ele>319.0</ele>
<speed>3.3</speed>
<course>154.4</course>
<desc>Speed 3.3 km/h Distance 2.20 km</desc>
<time>2010-03-14T10:52:16.72</time>
<name>1619</name>
</trkpt>
<trkpt lat="48.939192" lon="8.676115">
<ele>319.0</ele>
<speed>4.3</speed>
<course>146.3</course>
<desc>Speed 4.3 km/h Distance 2.20 km</desc>
<time>2010-03-14T10:52:17.72</time>
<name>1620</name>
</trkpt>
<trkpt lat="48.939188" lon="8.676118">
<ele>319.0</ele>
<speed>3.8</speed>
<course>90.0</course>
<desc>Speed 3.8 km/h Distance 2.20 km</desc>
<time>2010-03-14T10:52:18.72</time>
<name>1621</name>
</trkpt>
<trkpt lat="48.939188" lon="8.676120">
<ele>319.0</ele>
<speed>3.5</speed>
<course>113.5</course>
<desc>Speed 3.5 km/h Distance 2.20 km</desc>
<time>2010-03-14T10:52:19.72</time>
<name>1622</name>
</trkpt>
<trkpt lat="48.939185" lon="8.676132">
<ele>319.0</ele>
<speed>4.5</speed>
<course>132.9</course>
<desc>Speed 4.5 km/h Distance 2.20 km</desc>
<time>2010-03-14T10:52:20.72</time>
<name>1623</name>
</trkpt>
<trkpt lat="48.939180" lon="8.676140">
<ele>319.5</ele>
<speed>4.5</speed>
<course>110.9</course>
<desc>Speed 4.5 km/h Distance 2.20 km</desc>
<time>2010-03-14T10:52:21.72</time>
<name>1624</name>
</trkpt>
<trkpt lat="48.939178" lon="8.676147">
<ele>319.5</ele>
<speed>4.3</speed>
<course>139.1</course>
<desc>Speed 4.3 km/h Distance 2.20 km</desc>
<time>2010-03-14T10:52:22.72</time>
<name>1625</name>
</trkpt>
<trkpt lat="48.939173" lon="8.676153">
<ele>319.5</ele>
<speed>4.8</speed>
<course>90.0</course>
<desc>Speed 4.8 km/h Distance 2.20 km</desc>
<time>2010-03-14T10:52:23.72</time>
<name>1626</name>
</trkpt>
<trkpt lat="48.939173" lon="8.676155">
<ele>319.5</ele>
<speed>3.9</speed>
<course>135.5</course>
<desc>Speed 3.9 km/h Distance 2.20 km</desc>
<time>2010-03-14T10:52:24.72</time>
<name>1627</name>
</trkpt>
<trkpt lat="48.939170" lon="8.676160">
<ele>319.0</ele>
<speed>4.7</speed>
<course>116.6</course>
<desc>Speed 4.7 km/h Distance 2.20 km</desc>
<time>2010-03-14T10:52:25.72</time>
<name>1628</name>
</trkpt>
<trkpt lat="48.939168" lon="8.676165">
<ele>319.0</ele>
<speed>4.6</speed>
<course>116.6</course>
<desc>Speed 4.6 km/h Distance 2.20 km</desc>
<time>2010-03-14T10:52:26.72</time>
<name>1629</name>
</trkpt>
<trkpt lat="48.939167" lon="8.676170">
<ele>319.0</ele>
<speed>4.2</speed>
<course>127.0</course>
<desc>Speed 4.2 km/h Distance 2.20 km</desc>
<time>2010-03-14T10:52:27.72</time>
<name>1630</name>
</trkpt>
<trkpt lat="48.939163" lon="8.676177">
<ele>319.0</ele>
<speed>4.2</speed>
<course>107.1</course>
<desc>Speed 4.2 km/h Distance 2.20 km</desc>
<time>2010-03-14T10:52:28.72</time>
<name>1631</name>
</trkpt>
<trkpt lat="48.939162" lon="8.676185">
<ele>319.0</ele>
<speed>4.6</speed>
<course>119.7</course>
<desc>Speed 4.6 km/h Distance 2.20 km</desc>
<time>2010-03-14T10:52:29.72</time>
<name>1632</name>
</trkpt>
<trkpt lat="48.939157" lon="8.676198">
<ele>319.0</ele>
<speed>4.9</speed>
<course>18.1</course>
<desc>Speed 4.9 km/h Distance 2.20 km</desc>
<time>2010-03-14T10:52:30.72</time>
<name>1633</name>
</trkpt>
<trkpt lat="48.939173" lon="8.676207">
<ele>321.5</ele>
<speed>4.5</speed>
<course>12.1</course>
<desc>Speed 4.5 km/h Distance 2.21 km</desc>
<time>2010-03-14T10:52:31.72</time>
<name>1634</name>
</trkpt>
<trkpt lat="48.939193" lon="8.676213">
<ele>324.5</ele>
<speed>5.4</speed>
<course>40.9</course>
<desc>Speed 5.4 km/h Distance 2.21 km</desc>
<time>2010-03-14T10:52:32.72</time>
<name>1635</name>
</trkpt>
<trkpt lat="48.939198" lon="8.676220">
<ele>326.0</ele>
<speed>4.7</speed>
<course>5.0</course>
<desc>Speed 4.7 km/h Distance 2.21 km</desc>
<time>2010-03-14T10:52:33.72</time>
<name>1636</name>
</trkpt>
<trkpt lat="48.939223" lon="8.676223">
<ele>329.0</ele>
<speed>4.4</speed>
<course>3.2</course>
<desc>Speed 4.4 km/h Distance 2.21 km</desc>
<time>2010-03-14T10:52:34.72</time>
<name>1637</name>
</trkpt>
<trkpt lat="48.939245" lon="8.676225">
<ele>331.5</ele>
<speed>4.2</speed>
<course>106.7</course>
<desc>Speed 4.2 km/h Distance 2.21 km</desc>
<time>2010-03-14T10:52:35.72</time>
<name>1638</name>
</trkpt>
<trkpt lat="48.939243" lon="8.676233">
<ele>331.5</ele>
<speed>3.2</speed>
<course>121.1</course>
<desc>Speed 3.2 km/h Distance 2.21 km</desc>
<time>2010-03-14T10:52:36.72</time>
<name>1639</name>
</trkpt>
<trkpt lat="48.939240" lon="8.676242">
<ele>331.0</ele>
<speed>3.8</speed>
<course>121.4</course>
<desc>Speed 3.8 km/h Distance 2.21 km</desc>
<time>2010-03-14T10:52:37.72</time>
<name>1640</name>
</trkpt>
<trkpt lat="48.939237" lon="8.676250">
<ele>331.0</ele>
<speed>3.7</speed>
<course>117.0</course>
<desc>Speed 3.7 km/h Distance 2.22 km</desc>
<time>2010-03-14T10:52:38.72</time>
<name>1641</name>
</trkpt>
<trkpt lat="48.939233" lon="8.676260">
<ele>331.0</ele>
<speed>3.5</speed>
<course>44.5</course>
<desc>Speed 3.5 km/h Distance 2.22 km</desc>
<time>2010-03-14T10:52:39.72</time>
<name>1642</name>
</trkpt>
<trkpt lat="48.939240" lon="8.676270">
<ele>332.5</ele>
<speed>4.6</speed>
<course>108.7</course>
<desc>Speed 4.6 km/h Distance 2.22 km</desc>
<time>2010-03-14T10:52:40.72</time>
<name>1643</name>
</trkpt>
<trkpt lat="48.939237" lon="8.676285">
<ele>332.5</ele>
<speed>4.6</speed>
<course>113.6</course>
<desc>Speed 4.6 km/h Distance 2.22 km</desc>
<time>2010-03-14T10:52:41.72</time>
<name>1644</name>
</trkpt>
<trkpt lat="48.939233" lon="8.676297">
<ele>332.5</ele>
<speed>4.4</speed>
<course>77.7</course>
<desc>Speed 4.4 km/h Distance 2.22 km</desc>
<time>2010-03-14T10:52:42.72</time>
<name>1645</name>
</trkpt>
<trkpt lat="48.939235" lon="8.676308">
<ele>333.0</ele>
<speed>4.2</speed>
<course>80.4</course>
<desc>Speed 4.2 km/h Distance 2.22 km</desc>
<time>2010-03-14T10:52:43.72</time>
<name>1646</name>
</trkpt>
<trkpt lat="48.939237" lon="8.676323">
<ele>333.5</ele>
<speed>4.4</speed>
<course>104.4</course>
<desc>Speed 4.4 km/h Distance 2.22 km</desc>
<time>2010-03-14T10:52:44.72</time>
<name>1647</name>
</trkpt>
<trkpt lat="48.939235" lon="8.676333">
<ele>334.0</ele>
<speed>4.4</speed>
<course>100.8</course>
<desc>Speed 4.4 km/h Distance 2.22 km</desc>
<time>2010-03-14T10:52:45.72</time>
<name>1648</name>
</trkpt>
<trkpt lat="48.939233" lon="8.676347">
<ele>334.5</ele>
<speed>4.2</speed>
<course>113.5</course>
<desc>Speed 4.2 km/h Distance 2.22 km</desc>
<time>2010-03-14T10:52:46.72</time>
<name>1649</name>
</trkpt>
<trkpt lat="48.939230" lon="8.676358">
<ele>334.5</ele>
<speed>4.2</speed>
<course>108.7</course>
<desc>Speed 4.2 km/h Distance 2.22 km</desc>
<time>2010-03-14T10:52:47.72</time>
<name>1650</name>
</trkpt>
<trkpt lat="48.939227" lon="8.676373">
<ele>334.5</ele>
<speed>4.9</speed>
<course>130.9</course>
<desc>Speed 4.9 km/h Distance 2.23 km</desc>
<time>2010-03-14T10:52:48.72</time>
<name>1651</name>
</trkpt>
<trkpt lat="48.939220" lon="8.676385">
<ele>335.0</ele>
<speed>4.8</speed>
<course>131.1</course>
<desc>Speed 4.8 km/h Distance 2.23 km</desc>
<time>2010-03-14T10:52:49.72</time>
<name>1652</name>
</trkpt>
<trkpt lat="48.939213" lon="8.676397">
<ele>335.0</ele>
<speed>4.8</speed>
<course>127.3</course>
<desc>Speed 4.8 km/h Distance 2.23 km</desc>
<time>2010-03-14T10:52:50.72</time>
<name>1653</name>
</trkpt>
<trkpt lat="48.939207" lon="8.676410">
<ele>335.0</ele>
<speed>5.1</speed>
<course>124.1</course>
<desc>Speed 5.1 km/h Distance 2.23 km</desc>
<time>2010-03-14T10:52:51.72</time>
<name>1654</name>
</trkpt>
<trkpt lat="48.939200" lon="8.676425">
<ele>335.0</ele>
<speed>5.0</speed>
<course>133.5</course>
<desc>Speed 5.0 km/h Distance 2.23 km</desc>
<time>2010-03-14T10:52:52.72</time>
<name>1655</name>
</trkpt>
<trkpt lat="48.939192" lon="8.676438">
<ele>335.0</ele>
<speed>5.1</speed>
<course>124.1</course>
<desc>Speed 5.1 km/h Distance 2.23 km</desc>
<time>2010-03-14T10:52:53.72</time>
<name>1656</name>
</trkpt>
<trkpt lat="48.939185" lon="8.676453">
<ele>335.5</ele>
<speed>4.8</speed>
<course>108.7</course>
<desc>Speed 4.8 km/h Distance 2.23 km</desc>
<time>2010-03-14T10:52:54.72</time>
<name>1657</name>
</trkpt>
<trkpt lat="48.939182" lon="8.676468">
<ele>335.5</ele>
<speed>4.1</speed>
<course>110.9</course>
<desc>Speed 4.1 km/h Distance 2.23 km</desc>
<time>2010-03-14T10:52:55.72</time>
<name>1658</name>
</trkpt>
<trkpt lat="48.939178" lon="8.676482">
<ele>335.0</ele>
<speed>4.1</speed>
<course>121.3</course>
<desc>Speed 4.1 km/h Distance 2.24 km</desc>
<time>2010-03-14T10:52:56.72</time>
<name>1659</name>
</trkpt>
<trkpt lat="48.939172" lon="8.676498">
<ele>335.0</ele>
<speed>5.1</speed>
<course>124.1</course>
<desc>Speed 5.1 km/h Distance 2.24 km</desc>
<time>2010-03-14T10:52:57.72</time>
<name>1660</name>
</trkpt>
<trkpt lat="48.939165" lon="8.676513">
<ele>335.0</ele>
<speed>4.9</speed>
<course>116.9</course>
<desc>Speed 4.9 km/h Distance 2.24 km</desc>
<time>2010-03-14T10:52:58.72</time>
<name>1661</name>
</trkpt>
<trkpt lat="48.939160" lon="8.676528">
<ele>334.5</ele>
<speed>4.9</speed>
<course>124.1</course>
<desc>Speed 4.9 km/h Distance 2.24 km</desc>
<time>2010-03-14T10:52:59.72</time>
<name>1662</name>
</trkpt>
<trkpt lat="48.939153" lon="8.676543">
<ele>334.5</ele>
<speed>4.8</speed>
<course>124.7</course>
<desc>Speed 4.8 km/h Distance 2.24 km</desc>
<time>2010-03-14T10:53:00.72</time>
<name>1663</name>
</trkpt>
<trkpt lat="48.939145" lon="8.676562">
<ele>334.5</ele>
<speed>5.4</speed>
<course>127.2</course>
<desc>Speed 5.4 km/h Distance 2.24 km</desc>
<time>2010-03-14T10:53:01.72</time>
<name>1664</name>
</trkpt>
<trkpt lat="48.939138" lon="8.676575">
<ele>334.5</ele>
<speed>4.6</speed>
<course>137.4</course>
<desc>Speed 4.6 km/h Distance 2.24 km</desc>
<time>2010-03-14T10:53:02.72</time>
<name>1665</name>
</trkpt>
<trkpt lat="48.939130" lon="8.676587">
<ele>334.5</ele>
<speed>4.8</speed>
<course>131.1</course>
<desc>Speed 4.8 km/h Distance 2.24 km</desc>
<time>2010-03-14T10:53:03.72</time>
<name>1666</name>
</trkpt>
<trkpt lat="48.939123" lon="8.676598">
<ele>334.5</ele>
<speed>4.1</speed>
<course>130.9</course>
<desc>Speed 4.1 km/h Distance 2.25 km</desc>
<time>2010-03-14T10:53:04.72</time>
<name>1667</name>
</trkpt>
<trkpt lat="48.939117" lon="8.676610">
<ele>334.5</ele>
<speed>4.0</speed>
<course>121.4</course>
<desc>Speed 4.0 km/h Distance 2.25 km</desc>
<time>2010-03-14T10:53:05.72</time>
<name>1668</name>
</trkpt>
<trkpt lat="48.939110" lon="8.676627">
<ele>334.5</ele>
<speed>5.0</speed>
<course>108.7</course>
<desc>Speed 5.0 km/h Distance 2.25 km</desc>
<time>2010-03-14T10:53:06.72</time>
<name>1669</name>
</trkpt>
<trkpt lat="48.939107" lon="8.676642">
<ele>334.5</ele>
<speed>4.5</speed>
<course>110.8</course>
<desc>Speed 4.5 km/h Distance 2.25 km</desc>
<time>2010-03-14T10:53:07.72</time>
<name>1670</name>
</trkpt>
<trkpt lat="48.939103" lon="8.676655">
<ele>334.0</ele>
<speed>3.4</speed>
<course>99.6</course>
<desc>Speed 3.4 km/h Distance 2.25 km</desc>
<time>2010-03-14T10:53:08.72</time>
<name>1671</name>
</trkpt>
<trkpt lat="48.939102" lon="8.676670">
<ele>334.0</ele>
<speed>3.8</speed>
<course>104.2</course>
<desc>Speed 3.8 km/h Distance 2.25 km</desc>
<time>2010-03-14T10:53:09.72</time>
<name>1672</name>
</trkpt>
<trkpt lat="48.939098" lon="8.676690">
<ele>334.0</ele>
<speed>5.5</speed>
<course>130.3</course>
<desc>Speed 5.5 km/h Distance 2.25 km</desc>
<time>2010-03-14T10:53:10.72</time>
<name>1673</name>
</trkpt>
<trkpt lat="48.939090" lon="8.676705">
<ele>334.0</ele>
<speed>5.4</speed>
<course>127.3</course>
<desc>Speed 5.4 km/h Distance 2.25 km</desc>
<time>2010-03-14T10:53:11.72</time>
<name>1674</name>
</trkpt>
<trkpt lat="48.939082" lon="8.676722">
<ele>334.0</ele>
<speed>5.3</speed>
<course>104.2</course>
<desc>Speed 5.3 km/h Distance 2.26 km</desc>
<time>2010-03-14T10:53:12.72</time>
<name>1675</name>
</trkpt>
<trkpt lat="48.939078" lon="8.676742">
<ele>333.5</ele>
<speed>4.8</speed>
<course>98.7</course>
<desc>Speed 4.8 km/h Distance 2.26 km</desc>
<time>2010-03-14T10:53:13.72</time>
<name>1676</name>
</trkpt>
<trkpt lat="48.939077" lon="8.676758">
<ele>333.5</ele>
<speed>4.2</speed>
<course>114.6</course>
<desc>Speed 4.2 km/h Distance 2.26 km</desc>
<time>2010-03-14T10:53:14.72</time>
<name>1677</name>
</trkpt>
<trkpt lat="48.939072" lon="8.676775">
<ele>333.0</ele>
<speed>5.0</speed>
<course>57.4</course>
<desc>Speed 5.0 km/h Distance 2.26 km</desc>
<time>2010-03-14T10:53:15.72</time>
<name>1678</name>
</trkpt>
<trkpt lat="48.939085" lon="8.676807">
<ele>332.5</ele>
<speed>6.9</speed>
<course>90.0</course>
<desc>Speed 6.9 km/h Distance 2.26 km</desc>
<time>2010-03-14T10:53:16.72</time>
<name>1679</name>
</trkpt>
<trkpt lat="48.939085" lon="8.676828">
<ele>332.0</ele>
<speed>4.4</speed>
<course>114.5</course>
<desc>Speed 4.4 km/h Distance 2.26 km</desc>
<time>2010-03-14T10:53:17.72</time>
<name>1680</name>
</trkpt>
<trkpt lat="48.939080" lon="8.676845">
<ele>332.0</ele>
<speed>4.5</speed>
<course>114.6</course>
<desc>Speed 4.5 km/h Distance 2.27 km</desc>
<time>2010-03-14T10:53:18.72</time>
<name>1681</name>
</trkpt>
<trkpt lat="48.939075" lon="8.676862">
<ele>332.0</ele>
<speed>4.2</speed>
<course>108.7</course>
<desc>Speed 4.2 km/h Distance 2.27 km</desc>
<time>2010-03-14T10:53:19.72</time>
<name>1682</name>
</trkpt>
<trkpt lat="48.939072" lon="8.676877">
<ele>332.0</ele>
<speed>4.3</speed>
<course>112.5</course>
<desc>Speed 4.3 km/h Distance 2.27 km</desc>
<time>2010-03-14T10:53:20.72</time>
<name>1683</name>
</trkpt>
<trkpt lat="48.939067" lon="8.676895">
<ele>332.0</ele>
<speed>4.9</speed>
<course>121.3</course>
<desc>Speed 4.9 km/h Distance 2.27 km</desc>
<time>2010-03-14T10:53:21.72</time>
<name>1684</name>
</trkpt>
<trkpt lat="48.939060" lon="8.676912">
<ele>331.5</ele>
<speed>4.8</speed>
<course>124.0</course>
<desc>Speed 4.8 km/h Distance 2.27 km</desc>
<time>2010-03-14T10:53:22.72</time>
<name>1685</name>
</trkpt>
<trkpt lat="48.939053" lon="8.676927">
<ele>331.5</ele>
<speed>4.7</speed>
<course>142.5</course>
<desc>Speed 4.7 km/h Distance 2.27 km</desc>
<time>2010-03-14T10:53:23.72</time>
<name>1686</name>
</trkpt>
<trkpt lat="48.939043" lon="8.676938">
<ele>331.5</ele>
<speed>4.7</speed>
<course>137.4</course>
<desc>Speed 4.7 km/h Distance 2.27 km</desc>
<time>2010-03-14T10:53:24.72</time>
<name>1687</name>
</trkpt>
<trkpt lat="48.939035" lon="8.676950">
<ele>331.5</ele>
<speed>5.0</speed>
<course>137.5</course>
<desc>Speed 5.0 km/h Distance 2.28 km</desc>
<time>2010-03-14T10:53:25.72</time>
<name>1688</name>
</trkpt>
<trkpt lat="48.939027" lon="8.676962">
<ele>331.5</ele>
<speed>4.3</speed>
<course>116.9</course>
<desc>Speed 4.3 km/h Distance 2.28 km</desc>
<time>2010-03-14T10:53:26.72</time>
<name>1689</name>
</trkpt>
<trkpt lat="48.939022" lon="8.676977">
<ele>331.5</ele>
<speed>4.2</speed>
<course>106.9</course>
<desc>Speed 4.2 km/h Distance 2.28 km</desc>
<time>2010-03-14T10:53:27.72</time>
<name>1690</name>
</trkpt>
<trkpt lat="48.939018" lon="8.676993">
<ele>331.5</ele>
<speed>4.5</speed>
<course>106.9</course>
<desc>Speed 4.5 km/h Distance 2.28 km</desc>
<time>2010-03-14T10:53:28.72</time>
<name>1691</name>
</trkpt>
<trkpt lat="48.939015" lon="8.677010">
<ele>331.5</ele>
<speed>4.1</speed>
<course>108.7</course>
<desc>Speed 4.1 km/h Distance 2.28 km</desc>
<time>2010-03-14T10:53:29.72</time>
<name>1692</name>
</trkpt>
<trkpt lat="48.939012" lon="8.677025">
<ele>331.5</ele>
<speed>4.0</speed>
<course>97.9</course>
<desc>Speed 4.0 km/h Distance 2.28 km</desc>
<time>2010-03-14T10:53:30.72</time>
<name>1693</name>
</trkpt>
<trkpt lat="48.939010" lon="8.677043">
<ele>331.0</ele>
<speed>4.8</speed>
<course>108.7</course>
<desc>Speed 4.8 km/h Distance 2.28 km</desc>
<time>2010-03-14T10:53:31.72</time>
<name>1694</name>
</trkpt>
<trkpt lat="48.939007" lon="8.677058">
<ele>331.0</ele>
<speed>3.9</speed>
<course>110.9</course>
<desc>Speed 3.9 km/h Distance 2.28 km</desc>
<time>2010-03-14T10:53:32.72</time>
<name>1695</name>
</trkpt>
<trkpt lat="48.939003" lon="8.677072">
<ele>331.0</ele>
<speed>3.8</speed>
<course>116.9</course>
<desc>Speed 3.8 km/h Distance 2.28 km</desc>
<time>2010-03-14T10:53:33.72</time>
<name>1696</name>
</trkpt>
<trkpt lat="48.938998" lon="8.677087">
<ele>331.0</ele>
<speed>4.0</speed>
<course>108.7</course>
<desc>Speed 4.0 km/h Distance 2.29 km</desc>
<time>2010-03-14T10:53:34.72</time>
<name>1697</name>
</trkpt>
<trkpt lat="48.938995" lon="8.677102">
<ele>331.0</ele>
<speed>4.2</speed>
<course>114.6</course>
<desc>Speed 4.2 km/h Distance 2.29 km</desc>
<time>2010-03-14T10:53:35.72</time>
<name>1698</name>
</trkpt>
<trkpt lat="48.938990" lon="8.677118">
<ele>330.5</ele>
<speed>4.5</speed>
<course>114.6</course>
<desc>Speed 4.5 km/h Distance 2.29 km</desc>
<time>2010-03-14T10:53:36.72</time>
<name>1699</name>
</trkpt>
<trkpt lat="48.938985" lon="8.677135">
<ele>330.5</ele>
<speed>4.7</speed>
<course>124.7</course>
<desc>Speed 4.7 km/h Distance 2.29 km</desc>
<time>2010-03-14T10:53:37.72</time>
<name>1700</name>
</trkpt>
<trkpt lat="48.938977" lon="8.677153">
<ele>330.5</ele>
<speed>5.0</speed>
<course>114.6</course>
<desc>Speed 5.0 km/h Distance 2.29 km</desc>
<time>2010-03-14T10:53:38.72</time>
<name>1701</name>
</trkpt>
<trkpt lat="48.938972" lon="8.677170">
<ele>330.5</ele>
<speed>4.5</speed>
<course>112.6</course>
<desc>Speed 4.5 km/h Distance 2.29 km</desc>
<time>2010-03-14T10:53:39.72</time>
<name>1702</name>
</trkpt>
<trkpt lat="48.938967" lon="8.677188">
<ele>330.5</ele>
<speed>4.7</speed>
<course>110.8</course>
<desc>Speed 4.7 km/h Distance 2.29 km</desc>
<time>2010-03-14T10:53:40.72</time>
<name>1703</name>
</trkpt>
<trkpt lat="48.938962" lon="8.677208">
<ele>330.5</ele>
<speed>5.0</speed>
<course>97.2</course>
<desc>Speed 5.0 km/h Distance 2.30 km</desc>
<time>2010-03-14T10:53:41.72</time>
<name>1704</name>
</trkpt>
<trkpt lat="48.938960" lon="8.677228">
<ele>330.5</ele>
<speed>4.9</speed>
<course>103.2</course>
<desc>Speed 4.9 km/h Distance 2.30 km</desc>
<time>2010-03-14T10:53:42.72</time>
<name>1705</name>
</trkpt>
<trkpt lat="48.938957" lon="8.677250">
<ele>330.0</ele>
<speed>4.8</speed>
<course>96.7</course>
<desc>Speed 4.8 km/h Distance 2.30 km</desc>
<time>2010-03-14T10:53:43.72</time>
<name>1706</name>
</trkpt>
<trkpt lat="48.938955" lon="8.677272">
<ele>330.0</ele>
<speed>4.5</speed>
<course>121.3</course>
<desc>Speed 4.5 km/h Distance 2.30 km</desc>
<time>2010-03-14T10:53:44.72</time>
<name>1707</name>
</trkpt>
<trkpt lat="48.938948" lon="8.677288">
<ele>329.5</ele>
<speed>5.0</speed>
<course>97.9</course>
<desc>Speed 5.0 km/h Distance 2.30 km</desc>
<time>2010-03-14T10:53:45.72</time>
<name>1708</name>
</trkpt>
<trkpt lat="48.938947" lon="8.677307">
<ele>329.5</ele>
<speed>4.1</speed>
<course>90.0</course>
<desc>Speed 4.1 km/h Distance 2.30 km</desc>
<time>2010-03-14T10:53:46.72</time>
<name>1709</name>
</trkpt>
<trkpt lat="48.938947" lon="8.677327">
<ele>329.5</ele>
<speed>4.2</speed>
<course>97.2</course>
<desc>Speed 4.2 km/h Distance 2.30 km</desc>
<time>2010-03-14T10:53:47.72</time>
<name>1710</name>
</trkpt>
<trkpt lat="48.938945" lon="8.677347">
<ele>329.0</ele>
<speed>4.4</speed>
<course>90.0</course>
<desc>Speed 4.4 km/h Distance 2.31 km</desc>
<time>2010-03-14T10:53:48.72</time>
<name>1711</name>
</trkpt>
<trkpt lat="48.938945" lon="8.677367">
<ele>329.0</ele>
<speed>4.4</speed>
<course>82.1</course>
<desc>Speed 4.4 km/h Distance 2.31 km</desc>
<time>2010-03-14T10:53:49.72</time>
<name>1712</name>
</trkpt>
<trkpt lat="48.938947" lon="8.677385">
<ele>328.5</ele>
<speed>3.3</speed>
<course>100.7</course>
<desc>Speed 3.3 km/h Distance 2.31 km</desc>
<time>2010-03-14T10:53:50.72</time>
<name>1713</name>
</trkpt>
<trkpt lat="48.938945" lon="8.677398">
<ele>328.5</ele>
<speed>3.1</speed>
<course>119.7</course>
<desc>Speed 3.1 km/h Distance 2.31 km</desc>
<time>2010-03-14T10:53:51.72</time>
<name>1714</name>
</trkpt>
<trkpt lat="48.938940" lon="8.677412">
<ele>328.0</ele>
<speed>4.0</speed>
<course>121.3</course>
<desc>Speed 4.0 km/h Distance 2.31 km</desc>
<time>2010-03-14T10:53:52.72</time>
<name>1715</name>
</trkpt>
<trkpt lat="48.938933" lon="8.677428">
<ele>327.5</ele>
<speed>5.3</speed>
<course>106.9</course>
<desc>Speed 5.3 km/h Distance 2.31 km</desc>
<time>2010-03-14T10:53:53.72</time>
<name>1716</name>
</trkpt>
<trkpt lat="48.938930" lon="8.677445">
<ele>327.5</ele>
<speed>4.4</speed>
<course>106.9</course>
<desc>Speed 4.4 km/h Distance 2.31 km</desc>
<time>2010-03-14T10:53:54.72</time>
<name>1717</name>
</trkpt>
<trkpt lat="48.938927" lon="8.677462">
<ele>327.0</ele>
<speed>4.5</speed>
<course>105.4</course>
<desc>Speed 4.5 km/h Distance 2.32 km</desc>
<time>2010-03-14T10:53:55.72</time>
<name>1718</name>
</trkpt>
<trkpt lat="48.938923" lon="8.677480">
<ele>327.0</ele>
<speed>4.0</speed>
<course>118.9</course>
<desc>Speed 4.0 km/h Distance 2.32 km</desc>
<time>2010-03-14T10:53:56.72</time>
<name>1719</name>
</trkpt>
<trkpt lat="48.938917" lon="8.677498">
<ele>327.0</ele>
<speed>4.4</speed>
<course>161.8</course>
<desc>Speed 4.4 km/h Distance 2.32 km</desc>
<time>2010-03-14T10:53:57.72</time>
<name>1720</name>
</trkpt>
<trkpt lat="48.938897" lon="8.677508">
<ele>327.0</ele>
<speed>8.5</speed>
<course>112.5</course>
<desc>Speed 8.5 km/h Distance 2.32 km</desc>
<time>2010-03-14T10:53:58.72</time>
<name>1721</name>
</trkpt>
<trkpt lat="48.938892" lon="8.677527">
<ele>327.0</ele>
<speed>4.4</speed>
<course>130.9</course>
<desc>Speed 4.4 km/h Distance 2.32 km</desc>
<time>2010-03-14T10:53:59.72</time>
<name>1722</name>
</trkpt>
<trkpt lat="48.938885" lon="8.677538">
<ele>327.0</ele>
<speed>3.7</speed>
<course>108.6</course>
<desc>Speed 3.7 km/h Distance 2.32 km</desc>
<time>2010-03-14T10:54:00.72</time>
<name>1723</name>
</trkpt>
<trkpt lat="48.938882" lon="8.677553">
<ele>327.0</ele>
<speed>4.1</speed>
<course>110.7</course>
<desc>Speed 4.1 km/h Distance 2.32 km</desc>
<time>2010-03-14T10:54:01.72</time>
<name>1724</name>
</trkpt>
<trkpt lat="48.938878" lon="8.677567">
<ele>327.0</ele>
<speed>3.5</speed>
<course>146.2</course>
<desc>Speed 3.5 km/h Distance 2.33 km</desc>
<time>2010-03-14T10:54:02.72</time>
<name>1725</name>
</trkpt>
<trkpt lat="48.938870" lon="8.677575">
<ele>327.0</ele>
<speed>3.9</speed>
<course>116.9</course>
<desc>Speed 3.9 km/h Distance 2.33 km</desc>
<time>2010-03-14T10:54:03.72</time>
<name>1726</name>
</trkpt>
<trkpt lat="48.938865" lon="8.677590">
<ele>327.0</ele>
<speed>4.1</speed>
<course>121.4</course>
<desc>Speed 4.1 km/h Distance 2.33 km</desc>
<time>2010-03-14T10:54:04.72</time>
<name>1727</name>
</trkpt>
<trkpt lat="48.938858" lon="8.677607">
<ele>327.0</ele>
<speed>5.0</speed>
<course>114.6</course>
<desc>Speed 5.0 km/h Distance 2.33 km</desc>
<time>2010-03-14T10:54:05.72</time>
<name>1728</name>
</trkpt>
<trkpt lat="48.938853" lon="8.677623">
<ele>326.5</ele>
<speed>4.5</speed>
<course>110.8</course>
<desc>Speed 4.5 km/h Distance 2.33 km</desc>
<time>2010-03-14T10:54:06.72</time>
<name>1729</name>
</trkpt>
<trkpt lat="48.938848" lon="8.677643">
<ele>326.5</ele>
<speed>4.3</speed>
<course>119.0</course>
<desc>Speed 4.3 km/h Distance 2.33 km</desc>
<time>2010-03-14T10:54:07.72</time>
<name>1730</name>
</trkpt>
<trkpt lat="48.938842" lon="8.677662">
<ele>326.5</ele>
<speed>4.7</speed>
<course>123.3</course>
<desc>Speed 4.7 km/h Distance 2.33 km</desc>
<time>2010-03-14T10:54:08.72</time>
<name>1731</name>
</trkpt>
<trkpt lat="48.938837" lon="8.677673">
<ele>326.5</ele>
<speed>3.7</speed>
<course>116.9</course>
<desc>Speed 3.7 km/h Distance 2.33 km</desc>
<time>2010-03-14T10:54:09.72</time>
<name>1732</name>
</trkpt>
<trkpt lat="48.938832" lon="8.677688">
<ele>326.5</ele>
<speed>3.7</speed>
<course>105.5</course>
<desc>Speed 3.7 km/h Distance 2.34 km</desc>
<time>2010-03-14T10:54:10.72</time>
<name>1733</name>
</trkpt>
<trkpt lat="48.938828" lon="8.677707">
<ele>326.5</ele>
<speed>4.3</speed>
<course>103.2</course>
<desc>Speed 4.3 km/h Distance 2.34 km</desc>
<time>2010-03-14T10:54:11.72</time>
<name>1734</name>
</trkpt>
<trkpt lat="48.938825" lon="8.677728">
<ele>326.5</ele>
<speed>4.7</speed>
<course>96.2</course>
<desc>Speed 4.7 km/h Distance 2.34 km</desc>
<time>2010-03-14T10:54:12.72</time>
<name>1735</name>
</trkpt>
<trkpt lat="48.938823" lon="8.677752">
<ele>326.0</ele>
<speed>4.7</speed>
<course>132.4</course>
<desc>Speed 4.7 km/h Distance 2.34 km</desc>
<time>2010-03-14T10:54:13.72</time>
<name>1736</name>
</trkpt>
<trkpt lat="48.938813" lon="8.677768">
<ele>326.0</ele>
<speed>5.0</speed>
<course>116.9</course>
<desc>Speed 5.0 km/h Distance 2.34 km</desc>
<time>2010-03-14T10:54:14.72</time>
<name>1737</name>
</trkpt>
<trkpt lat="48.938807" lon="8.677788">
<ele>326.0</ele>
<speed>4.8</speed>
<course>121.3</course>
<desc>Speed 4.8 km/h Distance 2.34 km</desc>
<time>2010-03-14T10:54:15.72</time>
<name>1738</name>
</trkpt>
<trkpt lat="48.938800" lon="8.677805">
<ele>326.0</ele>
<speed>5.0</speed>
<course>97.9</course>
<desc>Speed 5.0 km/h Distance 2.35 km</desc>
<time>2010-03-14T10:54:16.72</time>
<name>1739</name>
</trkpt>
<trkpt lat="48.938798" lon="8.677823">
<ele>326.0</ele>
<speed>4.0</speed>
<course>109.4</course>
<desc>Speed 4.0 km/h Distance 2.35 km</desc>
<time>2010-03-14T10:54:17.72</time>
<name>1740</name>
</trkpt>
<trkpt lat="48.938793" lon="8.677845">
<ele>326.0</ele>
<speed>4.7</speed>
<course>130.1</course>
<desc>Speed 4.7 km/h Distance 2.35 km</desc>
<time>2010-03-14T10:54:18.72</time>
<name>1741</name>
</trkpt>
<trkpt lat="48.938785" lon="8.677860">
<ele>326.0</ele>
<speed>4.9</speed>
<course>127.3</course>
<desc>Speed 4.9 km/h Distance 2.35 km</desc>
<time>2010-03-14T10:54:19.72</time>
<name>1742</name>
</trkpt>
<trkpt lat="48.938777" lon="8.677877">
<ele>326.0</ele>
<speed>4.8</speed>
<course>110.8</course>
<desc>Speed 4.8 km/h Distance 2.35 km</desc>
<time>2010-03-14T10:54:20.72</time>
<name>1743</name>
</trkpt>
<trkpt lat="48.938772" lon="8.677897">
<ele>326.0</ele>
<speed>4.1</speed>
<course>104.2</course>
<desc>Speed 4.1 km/h Distance 2.35 km</desc>
<time>2010-03-14T10:54:21.72</time>
<name>1744</name>
</trkpt>
<trkpt lat="48.938768" lon="8.677917">
<ele>326.0</ele>
<speed>4.1</speed>
<course>90.0</course>
<desc>Speed 4.1 km/h Distance 2.35 km</desc>
<time>2010-03-14T10:54:22.72</time>
<name>1745</name>
</trkpt>
<trkpt lat="48.938768" lon="8.677940">
<ele>326.0</ele>
<speed>4.6</speed>
<course>83.8</course>
<desc>Speed 4.6 km/h Distance 2.36 km</desc>
<time>2010-03-14T10:54:23.72</time>
<name>1746</name>
</trkpt>
<trkpt lat="48.938770" lon="8.677963">
<ele>325.5</ele>
<speed>4.3</speed>
<course>83.8</course>
<desc>Speed 4.3 km/h Distance 2.36 km</desc>
<time>2010-03-14T10:54:24.72</time>
<name>1747</name>
</trkpt>
<trkpt lat="48.938772" lon="8.677987">
<ele>325.5</ele>
<speed>4.2</speed>
<course>112.6</course>
<desc>Speed 4.2 km/h Distance 2.36 km</desc>
<time>2010-03-14T10:54:25.72</time>
<name>1748</name>
</trkpt>
<trkpt lat="48.938767" lon="8.678005">
<ele>325.5</ele>
<speed>4.9</speed>
<course>119.0</course>
<desc>Speed 4.9 km/h Distance 2.36 km</desc>
<time>2010-03-14T10:54:26.72</time>
<name>1749</name>
</trkpt>
<trkpt lat="48.938760" lon="8.678023">
<ele>325.0</ele>
<speed>4.7</speed>
<course>130.2</course>
<desc>Speed 4.7 km/h Distance 2.36 km</desc>
<time>2010-03-14T10:54:27.72</time>
<name>1750</name>
</trkpt>
<trkpt lat="48.938752" lon="8.678038">
<ele>325.5</ele>
<speed>4.5</speed>
<course>132.5</course>
<desc>Speed 4.5 km/h Distance 2.36 km</desc>
<time>2010-03-14T10:54:28.72</time>
<name>1751</name>
</trkpt>
<trkpt lat="48.938742" lon="8.678055">
<ele>325.5</ele>
<speed>5.1</speed>
<course>127.3</course>
<desc>Speed 5.1 km/h Distance 2.37 km</desc>
<time>2010-03-14T10:54:29.72</time>
<name>1752</name>
</trkpt>
<trkpt lat="48.938732" lon="8.678075">
<ele>325.5</ele>
<speed>5.4</speed>
<course>127.4</course>
<desc>Speed 5.4 km/h Distance 2.37 km</desc>
<time>2010-03-14T10:54:30.72</time>
<name>1753</name>
</trkpt>
<trkpt lat="48.938723" lon="8.678092">
<ele>325.5</ele>
<speed>4.9</speed>
<course>127.3</course>
<desc>Speed 4.9 km/h Distance 2.37 km</desc>
<time>2010-03-14T10:54:31.72</time>
<name>1754</name>
</trkpt>
<trkpt lat="48.938713" lon="8.678112">
<ele>325.5</ele>
<speed>5.5</speed>
<course>129.7</course>
<desc>Speed 5.5 km/h Distance 2.37 km</desc>
<time>2010-03-14T10:54:32.72</time>
<name>1755</name>
</trkpt>
<trkpt lat="48.938703" lon="8.678130">
<ele>325.5</ele>
<speed>5.6</speed>
<course>116.9</course>
<desc>Speed 5.6 km/h Distance 2.37 km</desc>
<time>2010-03-14T10:54:33.72</time>
<name>1756</name>
</trkpt>
<trkpt lat="48.938697" lon="8.678150">
<ele>325.5</ele>
<speed>4.9</speed>
<course>106.9</course>
<desc>Speed 4.9 km/h Distance 2.37 km</desc>
<time>2010-03-14T10:54:34.72</time>
<name>1757</name>
</trkpt>
<trkpt lat="48.938693" lon="8.678167">
<ele>325.5</ele>
<speed>5.0</speed>
<course>104.2</course>
<desc>Speed 5.0 km/h Distance 2.38 km</desc>
<time>2010-03-14T10:54:35.72</time>
<name>1758</name>
</trkpt>
<trkpt lat="48.938690" lon="8.678187">
<ele>325.0</ele>
<speed>4.8</speed>
<course>104.2</course>
<desc>Speed 4.8 km/h Distance 2.38 km</desc>
<time>2010-03-14T10:54:36.72</time>
<name>1759</name>
</trkpt>
<trkpt lat="48.938687" lon="8.678207">
<ele>325.5</ele>
<speed>4.6</speed>
<course>110.8</course>
<desc>Speed 4.6 km/h Distance 2.38 km</desc>
<time>2010-03-14T10:54:37.72</time>
<name>1760</name>
</trkpt>
<trkpt lat="48.938682" lon="8.678227">
<ele>325.5</ele>
<speed>5.0</speed>
<course>109.4</course>
<desc>Speed 5.0 km/h Distance 2.38 km</desc>
<time>2010-03-14T10:54:38.72</time>
<name>1761</name>
</trkpt>
<trkpt lat="48.938677" lon="8.678248">
<ele>325.5</ele>
<speed>4.9</speed>
<course>106.9</course>
<desc>Speed 4.9 km/h Distance 2.38 km</desc>
<time>2010-03-14T10:54:39.72</time>
<name>1762</name>
</trkpt>
<trkpt lat="48.938673" lon="8.678265">
<ele>325.5</ele>
<speed>4.6</speed>
<course>112.5</course>
<desc>Speed 4.6 km/h Distance 2.38 km</desc>
<time>2010-03-14T10:54:40.72</time>
<name>1763</name>
</trkpt>
<trkpt lat="48.938668" lon="8.678283">
<ele>325.5</ele>
<speed>5.1</speed>
<course>124.7</course>
<desc>Speed 5.1 km/h Distance 2.38 km</desc>
<time>2010-03-14T10:54:41.72</time>
<name>1764</name>
</trkpt>
<trkpt lat="48.938660" lon="8.678302">
<ele>325.5</ele>
<speed>5.2</speed>
<course>114.5</course>
<desc>Speed 5.2 km/h Distance 2.39 km</desc>
<time>2010-03-14T10:54:42.72</time>
<name>1765</name>
</trkpt>
<trkpt lat="48.938655" lon="8.678318">
<ele>325.5</ele>
<speed>4.9</speed>
<course>112.6</course>
<desc>Speed 4.9 km/h Distance 2.39 km</desc>
<time>2010-03-14T10:54:43.72</time>
<name>1766</name>
</trkpt>
<trkpt lat="48.938650" lon="8.678337">
<ele>325.5</ele>
<speed>5.1</speed>
<course>110.8</course>
<desc>Speed 5.1 km/h Distance 2.39 km</desc>
<time>2010-03-14T10:54:44.72</time>
<name>1767</name>
</trkpt>
<trkpt lat="48.938645" lon="8.678357">
<ele>325.0</ele>
<speed>5.2</speed>
<course>96.7</course>
<desc>Speed 5.2 km/h Distance 2.39 km</desc>
<time>2010-03-14T10:54:45.72</time>
<name>1768</name>
</trkpt>
<trkpt lat="48.938643" lon="8.678378">
<ele>325.0</ele>
<speed>4.9</speed>
<course>96.7</course>
<desc>Speed 4.9 km/h Distance 2.39 km</desc>
<time>2010-03-14T10:54:46.72</time>
<name>1769</name>
</trkpt>
<trkpt lat="48.938642" lon="8.678400">
<ele>325.0</ele>
<speed>4.8</speed>
<course>90.0</course>
<desc>Speed 4.8 km/h Distance 2.39 km</desc>
<time>2010-03-14T10:54:47.72</time>
<name>1770</name>
</trkpt>
<trkpt lat="48.938642" lon="8.678427">
<ele>324.5</ele>
<speed>5.1</speed>
<course>105.5</course>
<desc>Speed 5.1 km/h Distance 2.40 km</desc>
<time>2010-03-14T10:54:48.72</time>
<name>1771</name>
</trkpt>
<trkpt lat="48.938638" lon="8.678445">
<ele>324.5</ele>
<speed>4.9</speed>
<course>112.5</course>
<desc>Speed 4.9 km/h Distance 2.40 km</desc>
<time>2010-03-14T10:54:49.72</time>
<name>1772</name>
</trkpt>
<trkpt lat="48.938633" lon="8.678463">
<ele>324.5</ele>
<speed>4.9</speed>
<course>121.4</course>
<desc>Speed 4.9 km/h Distance 2.40 km</desc>
<time>2010-03-14T10:54:50.72</time>
<name>1773</name>
</trkpt>
<trkpt lat="48.938627" lon="8.678480">
<ele>324.5</ele>
<speed>4.9</speed>
<course>119.0</course>
<desc>Speed 4.9 km/h Distance 2.40 km</desc>
<time>2010-03-14T10:54:51.72</time>
<name>1774</name>
</trkpt>
<trkpt lat="48.938620" lon="8.678498">
<ele>324.5</ele>
<speed>5.1</speed>
<course>130.1</course>
<desc>Speed 5.1 km/h Distance 2.40 km</desc>
<time>2010-03-14T10:54:52.72</time>
<name>1775</name>
</trkpt>
<trkpt lat="48.938612" lon="8.678513">
<ele>325.0</ele>
<speed>4.9</speed>
<course>124.7</course>
<desc>Speed 4.9 km/h Distance 2.40 km</desc>
<time>2010-03-14T10:54:53.72</time>
<name>1776</name>
</trkpt>
<trkpt lat="48.938603" lon="8.678532">
<ele>325.0</ele>
<speed>4.8</speed>
<course>119.0</course>
<desc>Speed 4.8 km/h Distance 2.40 km</desc>
<time>2010-03-14T10:54:54.72</time>
<name>1777</name>
</trkpt>
<trkpt lat="48.938597" lon="8.678550">
<ele>325.0</ele>
<speed>5.2</speed>
<course>110.9</course>
<desc>Speed 5.2 km/h Distance 2.41 km</desc>
<time>2010-03-14T10:54:55.72</time>
<name>1778</name>
</trkpt>
<trkpt lat="48.938592" lon="8.678570">
<ele>325.0</ele>
<speed>4.9</speed>
<course>110.8</course>
<desc>Speed 4.9 km/h Distance 2.41 km</desc>
<time>2010-03-14T10:54:56.72</time>
<name>1779</name>
</trkpt>
<trkpt lat="48.938587" lon="8.678590">
<ele>325.0</ele>
<speed>5.0</speed>
<course>103.2</course>
<desc>Speed 5.0 km/h Distance 2.41 km</desc>
<time>2010-03-14T10:54:57.72</time>
<name>1780</name>
</trkpt>
<trkpt lat="48.938583" lon="8.678612">
<ele>325.0</ele>
<speed>5.1</speed>
<course>103.2</course>
<desc>Speed 5.1 km/h Distance 2.41 km</desc>
<time>2010-03-14T10:54:58.72</time>
<name>1781</name>
</trkpt>
<trkpt lat="48.938580" lon="8.678633">
<ele>325.0</ele>
<speed>5.0</speed>
<course>103.2</course>
<desc>Speed 5.0 km/h Distance 2.41 km</desc>
<time>2010-03-14T10:54:59.72</time>
<name>1782</name>
</trkpt>
<trkpt lat="48.938577" lon="8.678655">
<ele>324.5</ele>
<speed>5.0</speed>
<course>90.0</course>
<desc>Speed 5.0 km/h Distance 2.41 km</desc>
<time>2010-03-14T10:55:00.72</time>
<name>1783</name>
</trkpt>
<trkpt lat="48.938577" lon="8.678678">
<ele>324.5</ele>
<speed>5.1</speed>
<course>84.2</course>
<desc>Speed 5.1 km/h Distance 2.42 km</desc>
<time>2010-03-14T10:55:01.72</time>
<name>1784</name>
</trkpt>
<trkpt lat="48.938578" lon="8.678703">
<ele>324.0</ele>
<speed>4.9</speed>
<course>110.8</course>
<desc>Speed 4.9 km/h Distance 2.42 km</desc>
<time>2010-03-14T10:55:02.72</time>
<name>1785</name>
</trkpt>
<trkpt lat="48.938573" lon="8.678723">
<ele>324.5</ele>
<speed>4.9</speed>
<course>116.9</course>
<desc>Speed 4.9 km/h Distance 2.42 km</desc>
<time>2010-03-14T10:55:03.72</time>
<name>1786</name>
</trkpt>
<trkpt lat="48.938568" lon="8.678738">
<ele>324.5</ele>
<speed>4.1</speed>
<course>110.8</course>
<desc>Speed 4.1 km/h Distance 2.42 km</desc>
<time>2010-03-14T10:55:04.72</time>
<name>1787</name>
</trkpt>
<trkpt lat="48.938563" lon="8.678758">
<ele>324.5</ele>
<speed>5.1</speed>
<course>139.7</course>
<desc>Speed 5.1 km/h Distance 2.42 km</desc>
<time>2010-03-14T10:55:05.72</time>
<name>1788</name>
</trkpt>
<trkpt lat="48.938552" lon="8.678773">
<ele>324.5</ele>
<speed>5.5</speed>
<course>119.0</course>
<desc>Speed 5.5 km/h Distance 2.42 km</desc>
<time>2010-03-14T10:55:06.72</time>
<name>1789</name>
</trkpt>
<trkpt lat="48.938545" lon="8.678792">
<ele>324.5</ele>
<speed>5.3</speed>
<course>132.4</course>
<desc>Speed 5.3 km/h Distance 2.42 km</desc>
<time>2010-03-14T10:55:07.72</time>
<name>1790</name>
</trkpt>
<trkpt lat="48.938535" lon="8.678808">
<ele>324.5</ele>
<speed>5.3</speed>
<course>124.7</course>
<desc>Speed 5.3 km/h Distance 2.43 km</desc>
<time>2010-03-14T10:55:08.72</time>
<name>1791</name>
</trkpt>
<trkpt lat="48.938527" lon="8.678827">
<ele>324.5</ele>
<speed>5.5</speed>
<course>119.0</course>
<desc>Speed 5.5 km/h Distance 2.43 km</desc>
<time>2010-03-14T10:55:09.72</time>
<name>1792</name>
</trkpt>
<trkpt lat="48.938520" lon="8.678845">
<ele>324.5</ele>
<speed>5.4</speed>
<course>119.0</course>
<desc>Speed 5.4 km/h Distance 2.43 km</desc>
<time>2010-03-14T10:55:10.72</time>
<name>1793</name>
</trkpt>
<trkpt lat="48.938513" lon="8.678863">
<ele>324.5</ele>
<speed>5.2</speed>
<course>104.2</course>
<desc>Speed 5.2 km/h Distance 2.43 km</desc>
<time>2010-03-14T10:55:11.72</time>
<name>1794</name>
</trkpt>
<trkpt lat="48.938510" lon="8.678883">
<ele>324.5</ele>
<speed>4.9</speed>
<course>103.2</course>
<desc>Speed 4.9 km/h Distance 2.43 km</desc>
<time>2010-03-14T10:55:12.72</time>
<name>1795</name>
</trkpt>
<trkpt lat="48.938507" lon="8.678905">
<ele>324.5</ele>
<speed>4.9</speed>
<course>97.9</course>
<desc>Speed 4.9 km/h Distance 2.43 km</desc>
<time>2010-03-14T10:55:13.72</time>
<name>1796</name>
</trkpt>
<trkpt lat="48.938505" lon="8.678923">
<ele>324.5</ele>
<speed>4.6</speed>
<course>105.5</course>
<desc>Speed 4.6 km/h Distance 2.44 km</desc>
<time>2010-03-14T10:55:14.72</time>
<name>1797</name>
</trkpt>
<trkpt lat="48.938502" lon="8.678942">
<ele>324.5</ele>
<speed>4.5</speed>
<course>105.4</course>
<desc>Speed 4.5 km/h Distance 2.44 km</desc>
<time>2010-03-14T10:55:15.72</time>
<name>1798</name>
</trkpt>
<trkpt lat="48.938498" lon="8.678960">
<ele>324.5</ele>
<speed>4.9</speed>
<course>124.1</course>
<desc>Speed 4.9 km/h Distance 2.44 km</desc>
<time>2010-03-14T10:55:16.72</time>
<name>1799</name>
</trkpt>
<trkpt lat="48.938492" lon="8.678975">
<ele>324.5</ele>
<speed>4.8</speed>
<course>119.0</course>
<desc>Speed 4.8 km/h Distance 2.44 km</desc>
<time>2010-03-14T10:55:17.72</time>
<name>1800</name>
</trkpt>
<trkpt lat="48.938485" lon="8.678993">
<ele>324.5</ele>
<speed>5.0</speed>
<course>127.3</course>
<desc>Speed 5.0 km/h Distance 2.44 km</desc>
<time>2010-03-14T10:55:18.72</time>
<name>1801</name>
</trkpt>
<trkpt lat="48.938477" lon="8.679010">
<ele>324.5</ele>
<speed>5.3</speed>
<course>138.7</course>
<desc>Speed 5.3 km/h Distance 2.44 km</desc>
<time>2010-03-14T10:55:19.72</time>
<name>1802</name>
</trkpt>
<trkpt lat="48.938467" lon="8.679023">
<ele>324.5</ele>
<speed>5.7</speed>
<course>130.3</course>
<desc>Speed 5.7 km/h Distance 2.44 km</desc>
<time>2010-03-14T10:55:20.72</time>
<name>1803</name>
</trkpt>
<trkpt lat="48.938458" lon="8.679038">
<ele>324.5</ele>
<speed>5.3</speed>
<course>127.2</course>
<desc>Speed 5.3 km/h Distance 2.45 km</desc>
<time>2010-03-14T10:55:21.72</time>
<name>1804</name>
</trkpt>
<trkpt lat="48.938450" lon="8.679055">
<ele>325.0</ele>
<speed>5.3</speed>
<course>121.4</course>
<desc>Speed 5.3 km/h Distance 2.45 km</desc>
<time>2010-03-14T10:55:22.72</time>
<name>1805</name>
</trkpt>
<trkpt lat="48.938443" lon="8.679072">
<ele>325.0</ele>
<speed>4.9</speed>
<course>127.3</course>
<desc>Speed 4.9 km/h Distance 2.45 km</desc>
<time>2010-03-14T10:55:23.72</time>
<name>1806</name>
</trkpt>
<trkpt lat="48.938435" lon="8.679088">
<ele>325.0</ele>
<speed>5.4</speed>
<course>114.5</course>
<desc>Speed 5.4 km/h Distance 2.45 km</desc>
<time>2010-03-14T10:55:24.72</time>
<name>1807</name>
</trkpt>
<trkpt lat="48.938430" lon="8.679105">
<ele>325.0</ele>
<speed>4.5</speed>
<course>114.5</course>
<desc>Speed 4.5 km/h Distance 2.45 km</desc>
<time>2010-03-14T10:55:25.72</time>
<name>1808</name>
</trkpt>
<trkpt lat="48.938425" lon="8.679122">
<ele>325.0</ele>
<speed>4.9</speed>
<course>97.9</course>
<desc>Speed 4.9 km/h Distance 2.45 km</desc>
<time>2010-03-14T10:55:26.72</time>
<name>1809</name>
</trkpt>
<trkpt lat="48.938423" lon="8.679140">
<ele>325.0</ele>
<speed>4.3</speed>
<course>96.7</course>
<desc>Speed 4.3 km/h Distance 2.45 km</desc>
<time>2010-03-14T10:55:27.72</time>
<name>1810</name>
</trkpt>
<trkpt lat="48.938422" lon="8.679162">
<ele>324.5</ele>
<speed>5.0</speed>
<course>103.2</course>
<desc>Speed 5.0 km/h Distance 2.46 km</desc>
<time>2010-03-14T10:55:28.72</time>
<name>1811</name>
</trkpt>
<trkpt lat="48.938418" lon="8.679183">
<ele>324.5</ele>
<speed>5.1</speed>
<course>97.2</course>
<desc>Speed 5.1 km/h Distance 2.46 km</desc>
<time>2010-03-14T10:55:29.72</time>
<name>1812</name>
</trkpt>
<trkpt lat="48.938417" lon="8.679203">
<ele>324.5</ele>
<speed>4.3</speed>
<course>124.7</course>
<desc>Speed 4.3 km/h Distance 2.46 km</desc>
<time>2010-03-14T10:55:30.72</time>
<name>1813</name>
</trkpt>
<trkpt lat="48.938408" lon="8.679222">
<ele>324.0</ele>
<speed>5.2</speed>
<course>130.3</course>
<desc>Speed 5.2 km/h Distance 2.46 km</desc>
<time>2010-03-14T10:55:31.72</time>
<name>1814</name>
</trkpt>
<trkpt lat="48.938400" lon="8.679237">
<ele>324.0</ele>
<speed>4.7</speed>
<course>124.0</course>
<desc>Speed 4.7 km/h Distance 2.46 km</desc>
<time>2010-03-14T10:55:32.72</time>
<name>1815</name>
</trkpt>
<trkpt lat="48.938393" lon="8.679252">
<ele>324.0</ele>
<speed>4.7</speed>
<course>110.9</course>
<desc>Speed 4.7 km/h Distance 2.46 km</desc>
<time>2010-03-14T10:55:33.72</time>
<name>1816</name>
</trkpt>
<trkpt lat="48.938390" lon="8.679265">
<ele>324.0</ele>
<speed>3.7</speed>
<course>106.9</course>
<desc>Speed 3.7 km/h Distance 2.46 km</desc>
<time>2010-03-14T10:55:34.72</time>
<name>1817</name>
</trkpt>
<trkpt lat="48.938387" lon="8.679282">
<ele>324.0</ele>
<speed>4.9</speed>
<course>112.6</course>
<desc>Speed 4.9 km/h Distance 2.47 km</desc>
<time>2010-03-14T10:55:35.72</time>
<name>1818</name>
</trkpt>
<trkpt lat="48.938382" lon="8.679300">
<ele>324.0</ele>
<speed>4.7</speed>
<course>97.2</course>
<desc>Speed 4.7 km/h Distance 2.47 km</desc>
<time>2010-03-14T10:55:36.72</time>
<name>1819</name>
</trkpt>
<trkpt lat="48.938380" lon="8.679320">
<ele>324.0</ele>
<speed>4.5</speed>
<course>104.2</course>
<desc>Speed 4.5 km/h Distance 2.47 km</desc>
<time>2010-03-14T10:55:37.72</time>
<name>1820</name>
</trkpt>
<trkpt lat="48.938377" lon="8.679340">
<ele>324.0</ele>
<speed>4.9</speed>
<course>110.8</course>
<desc>Speed 4.9 km/h Distance 2.47 km</desc>
<time>2010-03-14T10:55:38.72</time>
<name>1821</name>
</trkpt>
<trkpt lat="48.938372" lon="8.679360">
<ele>324.0</ele>
<speed>4.6</speed>
<course>114.5</course>
<desc>Speed 4.6 km/h Distance 2.47 km</desc>
<time>2010-03-14T10:55:39.72</time>
<name>1822</name>
</trkpt>
<trkpt lat="48.938367" lon="8.679377">
<ele>324.0</ele>
<speed>4.8</speed>
<course>105.5</course>
<desc>Speed 4.8 km/h Distance 2.47 km</desc>
<time>2010-03-14T10:55:40.72</time>
<name>1823</name>
</trkpt>
<trkpt lat="48.938363" lon="8.679395">
<ele>324.0</ele>
<speed>5.0</speed>
<course>110.8</course>
<desc>Speed 5.0 km/h Distance 2.47 km</desc>
<time>2010-03-14T10:55:41.72</time>
<name>1824</name>
</trkpt>
<trkpt lat="48.938358" lon="8.679415">
<ele>324.0</ele>
<speed>5.4</speed>
<course>96.7</course>
<desc>Speed 5.4 km/h Distance 2.48 km</desc>
<time>2010-03-14T10:55:42.72</time>
<name>1825</name>
</trkpt>
<trkpt lat="48.938357" lon="8.679437">
<ele>323.5</ele>
<speed>4.6</speed>
<course>105.5</course>
<desc>Speed 4.6 km/h Distance 2.48 km</desc>
<time>2010-03-14T10:55:43.72</time>
<name>1826</name>
</trkpt>
<trkpt lat="48.938353" lon="8.679455">
<ele>323.5</ele>
<speed>4.7</speed>
<course>96.7</course>
<desc>Speed 4.7 km/h Distance 2.48 km</desc>
<time>2010-03-14T10:55:44.72</time>
<name>1827</name>
</trkpt>
<trkpt lat="48.938352" lon="8.679477">
<ele>324.0</ele>
<speed>4.5</speed>
<course>118.9</course>
<desc>Speed 4.5 km/h Distance 2.48 km</desc>
<time>2010-03-14T10:55:45.72</time>
<name>1828</name>
</trkpt>
<trkpt lat="48.938345" lon="8.679495">
<ele>323.5</ele>
<speed>4.7</speed>
<course>106.9</course>
<desc>Speed 4.7 km/h Distance 2.48 km</desc>
<time>2010-03-14T10:55:46.72</time>
<name>1829</name>
</trkpt>
<trkpt lat="48.938342" lon="8.679512">
<ele>323.5</ele>
<speed>4.4</speed>
<course>112.5</course>
<desc>Speed 4.4 km/h Distance 2.48 km</desc>
<time>2010-03-14T10:55:47.72</time>
<name>1830</name>
</trkpt>
<trkpt lat="48.938337" lon="8.679530">
<ele>323.5</ele>
<speed>4.8</speed>
<course>96.7</course>
<desc>Speed 4.8 km/h Distance 2.48 km</desc>
<time>2010-03-14T10:55:48.72</time>
<name>1831</name>
</trkpt>
<trkpt lat="48.938335" lon="8.679552">
<ele>323.5</ele>
<speed>5.0</speed>
<course>121.4</course>
<desc>Speed 5.0 km/h Distance 2.49 km</desc>
<time>2010-03-14T10:55:49.72</time>
<name>1832</name>
</trkpt>
<trkpt lat="48.938328" lon="8.679568">
<ele>323.5</ele>
<speed>4.8</speed>
<course>105.5</course>
<desc>Speed 4.8 km/h Distance 2.49 km</desc>
<time>2010-03-14T10:55:50.72</time>
<name>1833</name>
</trkpt>
<trkpt lat="48.938325" lon="8.679587">
<ele>323.5</ele>
<speed>4.0</speed>
<course>97.2</course>
<desc>Speed 4.0 km/h Distance 2.49 km</desc>
<time>2010-03-14T10:55:51.72</time>
<name>1834</name>
</trkpt>
<trkpt lat="48.938323" lon="8.679607">
<ele>324.0</ele>
<speed>4.6</speed>
<course>119.0</course>
<desc>Speed 4.6 km/h Distance 2.49 km</desc>
<time>2010-03-14T10:55:52.72</time>
<name>1835</name>
</trkpt>
<trkpt lat="48.938317" lon="8.679625">
<ele>324.0</ele>
<speed>4.8</speed>
<course>114.6</course>
<desc>Speed 4.8 km/h Distance 2.49 km</desc>
<time>2010-03-14T10:55:53.72</time>
<name>1836</name>
</trkpt>
<trkpt lat="48.938312" lon="8.679642">
<ele>324.0</ele>
<speed>4.6</speed>
<course>119.0</course>
<desc>Speed 4.6 km/h Distance 2.49 km</desc>
<time>2010-03-14T10:55:54.72</time>
<name>1837</name>
</trkpt>
<trkpt lat="48.938305" lon="8.679660">
<ele>324.0</ele>
<speed>4.9</speed>
<course>113.5</course>
<desc>Speed 4.9 km/h Distance 2.50 km</desc>
<time>2010-03-14T10:55:55.72</time>
<name>1838</name>
</trkpt>
<trkpt lat="48.938302" lon="8.679672">
<ele>324.0</ele>
<speed>2.9</speed>
<course>90.0</course>
<desc>Speed 2.9 km/h Distance 2.50 km</desc>
<time>2010-03-14T10:55:56.72</time>
<name>1839</name>
</trkpt>
<trkpt lat="48.938302" lon="8.679673">
<ele>324.0</ele>
<speed>0.4</speed>
<course>51.9</course>
<desc>Speed 0.4 km/h Distance 2.50 km</desc>
<time>2010-03-14T10:55:57.72</time>
<name>1840</name>
</trkpt>
<trkpt lat="48.938303" lon="8.679677">
<ele>324.0</ele>
<speed>0.1</speed>
<course>90.0</course>
<desc>Speed 0.1 km/h Distance 2.50 km</desc>
<time>2010-03-14T10:55:58.72</time>
<name>1841</name>
</trkpt>
<trkpt lat="48.938303" lon="8.679678">
<ele>324.0</ele>
<speed>0.2</speed>
<course>29.2</course>
<desc>Speed 0.2 km/h Distance 2.50 km</desc>
<time>2010-03-14T10:55:59.72</time>
<name>1842</name>
</trkpt>
<trkpt lat="48.938305" lon="8.679680">
<ele>324.0</ele>
<speed>0.2</speed>
<course>37.2</course>
<desc>Speed 0.2 km/h Distance 2.50 km</desc>
<time>2010-03-14T10:56:00.72</time>
<name>1843</name>
</trkpt>
<trkpt lat="48.938307" lon="8.679682">
<ele>324.0</ele>
<speed>0.1</speed>
<course>29.2</course>
<desc>Speed 0.1 km/h Distance 2.50 km</desc>
<time>2010-03-14T10:56:01.72</time>
<name>1844</name>
</trkpt>
<trkpt lat="48.938308" lon="8.679683">
<ele>324.0</ele>
<speed>0.1</speed>
<course>90.0</course>
<desc>Speed 0.1 km/h Distance 2.50 km</desc>
<time>2010-03-14T10:56:02.72</time>
<name>1845</name>
</trkpt>
<trkpt lat="48.938308" lon="8.679690">
<ele>324.0</ele>
<speed>1.5</speed>
<course>53.0</course>
<desc>Speed 1.5 km/h Distance 2.50 km</desc>
<time>2010-03-14T10:56:03.72</time>
<name>1846</name>
</trkpt>
<trkpt lat="48.938312" lon="8.679697">
<ele>324.0</ele>
<speed>2.3</speed>
<course>75.6</course>
<desc>Speed 2.3 km/h Distance 2.50 km</desc>
<time>2010-03-14T10:56:04.72</time>
<name>1847</name>
</trkpt>
<trkpt lat="48.938313" lon="8.679707">
<ele>324.0</ele>
<speed>2.4</speed>
<course>90.0</course>
<desc>Speed 2.4 km/h Distance 2.50 km</desc>
<time>2010-03-14T10:56:05.72</time>
<name>1848</name>
</trkpt>
<trkpt lat="48.938313" lon="8.679712">
<ele>324.0</ele>
<speed>0.9</speed>
<course>33.7</course>
<desc>Speed 0.9 km/h Distance 2.50 km</desc>
<time>2010-03-14T10:56:06.72</time>
<name>1849</name>
</trkpt>
<trkpt lat="48.938317" lon="8.679715">
<ele>324.0</ele>
<speed>0.3</speed>
<course>51.9</course>
<desc>Speed 0.3 km/h Distance 2.50 km</desc>
<time>2010-03-14T10:56:07.72</time>
<name>1850</name>
</trkpt>
<trkpt lat="48.938318" lon="8.679718">
<ele>324.0</ele>
<speed>0.3</speed>
<course>37.2</course>
<desc>Speed 0.3 km/h Distance 2.50 km</desc>
<time>2010-03-14T10:56:08.72</time>
<name>1851</name>
</trkpt>
<trkpt lat="48.938320" lon="8.679720">
<ele>324.0</ele>
<speed>0.1</speed>
<course>90.0</course>
<desc>Speed 0.1 km/h Distance 2.50 km</desc>
<time>2010-03-14T10:56:09.72</time>
<name>1852</name>
</trkpt>
<trkpt lat="48.938320" lon="8.679723">
<ele>324.0</ele>
<speed>0.1</speed>
<course>12.6</course>
<desc>Speed 0.1 km/h Distance 2.50 km</desc>
<time>2010-03-14T10:56:10.72</time>
<name>1853</name>
</trkpt>
<trkpt lat="48.938322" lon="8.679723">
<ele>324.0</ele>
<speed>0.4</speed>
<course>37.2</course>
<desc>Speed 0.4 km/h Distance 2.50 km</desc>
<time>2010-03-14T10:56:11.72</time>
<name>1854</name>
</trkpt>
<trkpt lat="48.938323" lon="8.679725">
<ele>324.0</ele>
<speed>0.5</speed>
<course>37.2</course>
<desc>Speed 0.5 km/h Distance 2.50 km</desc>
<time>2010-03-14T10:56:12.72</time>
<name>1855</name>
</trkpt>
<trkpt lat="48.938325" lon="8.679727">
<ele>324.0</ele>
<speed>0.3</speed>
<course>90.0</course>
<desc>Speed 0.3 km/h Distance 2.50 km</desc>
<time>2010-03-14T10:56:13.72</time>
<name>1856</name>
</trkpt>
<trkpt lat="48.938325" lon="8.679728">
<ele>324.0</ele>
<speed>0.2</speed>
<course>37.2</course>
<desc>Speed 0.2 km/h Distance 2.50 km</desc>
<time>2010-03-14T10:56:14.72</time>
<name>1857</name>
</trkpt>
<trkpt lat="48.938327" lon="8.679730">
<ele>324.0</ele>
<speed>0.1</speed>
<course>37.2</course>
<desc>Speed 0.1 km/h Distance 2.50 km</desc>
<time>2010-03-14T10:56:15.72</time>
<name>1858</name>
</trkpt>
<trkpt lat="48.938327" lon="8.679730">
<ele>324.0</ele>
<speed>0.3</speed>
<course>90.0</course>
<desc>Speed 0.3 km/h Distance 2.50 km</desc>
<time>2010-03-14T10:56:16.72</time>
<name>1859</name>
</trkpt>
<trkpt lat="48.938327" lon="8.679732">
<ele>324.0</ele>
<speed>0.3</speed>
<course>0.0</course>
<desc>Speed 0.3 km/h Distance 2.50 km</desc>
<time>2010-03-14T10:56:17.72</time>
<name>1860</name>
</trkpt>
<trkpt lat="48.938328" lon="8.679732">
<ele>324.0</ele>
<speed>0.3</speed>
<course>0.0</course>
<desc>Speed 0.3 km/h Distance 2.50 km</desc>
<time>2010-03-14T10:56:18.72</time>
<name>1861</name>
</trkpt>
<trkpt lat="48.938328" lon="8.679732">
<ele>324.0</ele>
<speed>0.3</speed>
<course>0.0</course>
<desc>Speed 0.3 km/h Distance 2.50 km</desc>
<time>2010-03-14T10:56:19.72</time>
<name>1862</name>
</trkpt>
<trkpt lat="48.938328" lon="8.679732">
<ele>324.0</ele>
<speed>0.1</speed>
<course>0.0</course>
<desc>Speed 0.1 km/h Distance 2.50 km</desc>
<time>2010-03-14T10:56:20.72</time>
<name>1863</name>
</trkpt>
<trkpt lat="48.938328" lon="8.679732">
<ele>324.0</ele>
<speed>0.4</speed>
<course>58.6</course>
<desc>Speed 0.4 km/h Distance 2.50 km</desc>
<time>2010-03-14T10:56:21.72</time>
<name>1864</name>
</trkpt>
<trkpt lat="48.938332" lon="8.679740">
<ele>324.0</ele>
<speed>1.1</speed>
<course>106.9</course>
<desc>Speed 1.1 km/h Distance 2.50 km</desc>
<time>2010-03-14T10:56:22.72</time>
<name>1865</name>
</trkpt>
<trkpt lat="48.938330" lon="8.679748">
<ele>324.0</ele>
<speed>2.2</speed>
<course>127.4</course>
<desc>Speed 2.2 km/h Distance 2.50 km</desc>
<time>2010-03-14T10:56:23.72</time>
<name>1866</name>
</trkpt>
<trkpt lat="48.938325" lon="8.679758">
<ele>324.0</ele>
<speed>2.6</speed>
<course>132.2</course>
<desc>Speed 2.6 km/h Distance 2.50 km</desc>
<time>2010-03-14T10:56:24.72</time>
<name>1867</name>
</trkpt>
<trkpt lat="48.938320" lon="8.679767">
<ele>324.0</ele>
<speed>2.6</speed>
<course>110.2</course>
<desc>Speed 2.6 km/h Distance 2.51 km</desc>
<time>2010-03-14T10:56:25.72</time>
<name>1868</name>
</trkpt>
<trkpt lat="48.938318" lon="8.679773">
<ele>324.0</ele>
<speed>1.2</speed>
<course>110.2</course>
<desc>Speed 1.2 km/h Distance 2.51 km</desc>
<time>2010-03-14T10:56:26.72</time>
<name>1869</name>
</trkpt>
<trkpt lat="48.938318" lon="8.679773">
<ele>324.0</ele>
<speed>0.5</speed>
<course>90.0</course>
<desc>Speed 0.5 km/h Distance 2.51 km</desc>
<time>2010-03-14T10:56:27.72</time>
<name>1870</name>
</trkpt>
<trkpt lat="48.938318" lon="8.679775">
<ele>324.0</ele>
<speed>0.6</speed>
<course>29.2</course>
<desc>Speed 0.6 km/h Distance 2.51 km</desc>
<time>2010-03-14T10:56:28.72</time>
<name>1871</name>
</trkpt>
<trkpt lat="48.938320" lon="8.679775">
<ele>324.0</ele>
<speed>1.2</speed>
<course>29.2</course>
<desc>Speed 1.2 km/h Distance 2.51 km</desc>
<time>2010-03-14T10:56:29.72</time>
<name>1872</name>
</trkpt>
<trkpt lat="48.938320" lon="8.679775">
<ele>324.0</ele>
<speed>0.5</speed>
<course>90.0</course>
<desc>Speed 0.5 km/h Distance 2.51 km</desc>
<time>2010-03-14T10:56:30.72</time>
<name>1873</name>
</trkpt>
<trkpt lat="48.938320" lon="8.679777">
<ele>324.0</ele>
<speed>0.3</speed>
<course>12.6</course>
<desc>Speed 0.3 km/h Distance 2.51 km</desc>
<time>2010-03-14T10:56:31.72</time>
<name>1874</name>
</trkpt>
<trkpt lat="48.938322" lon="8.679777">
<ele>324.0</ele>
<speed>0.3</speed>
<course>90.0</course>
<desc>Speed 0.3 km/h Distance 2.51 km</desc>
<time>2010-03-14T10:56:32.72</time>
<name>1875</name>
</trkpt>
<trkpt lat="48.938322" lon="8.679778">
<ele>324.0</ele>
<speed>0.1</speed>
<course>90.0</course>
<desc>Speed 0.1 km/h Distance 2.51 km</desc>
<time>2010-03-14T10:56:33.72</time>
<name>1876</name>
</trkpt>
<trkpt lat="48.938322" lon="8.679778">
<ele>324.0</ele>
<speed>0.2</speed>
<course>90.0</course>
<desc>Speed 0.2 km/h Distance 2.51 km</desc>
<time>2010-03-14T10:56:34.72</time>
<name>1877</name>
</trkpt>
<trkpt lat="48.938322" lon="8.679778">
<ele>324.0</ele>
<speed>0.2</speed>
<course>12.6</course>
<desc>Speed 0.2 km/h Distance 2.51 km</desc>
<time>2010-03-14T10:56:35.72</time>
<name>1878</name>
</trkpt>
<trkpt lat="48.938323" lon="8.679778">
<ele>324.0</ele>
<speed>0.1</speed>
<course>12.6</course>
<desc>Speed 0.1 km/h Distance 2.51 km</desc>
<time>2010-03-14T10:56:36.72</time>
<name>1879</name>
</trkpt>
<trkpt lat="48.938323" lon="8.679778">
<ele>324.0</ele>
<speed>0.1</speed>
<course>12.6</course>
<desc>Speed 0.1 km/h Distance 2.51 km</desc>
<time>2010-03-14T10:56:37.72</time>
<name>1880</name>
</trkpt>
<trkpt lat="48.938323" lon="8.679778">
<ele>324.5</ele>
<speed>0.2</speed>
<course>270.0</course>
<desc>Speed 0.2 km/h Distance 2.51 km</desc>
<time>2010-03-14T10:56:38.72</time>
<name>1881</name>
</trkpt>
<trkpt lat="48.938323" lon="8.679777">
<ele>324.5</ele>
<speed>0.3</speed>
<course>270.0</course>
<desc>Speed 0.3 km/h Distance 2.51 km</desc>
<time>2010-03-14T10:56:39.72</time>
<name>1882</name>
</trkpt>
<trkpt lat="48.938323" lon="8.679777">
<ele>324.5</ele>
<speed>0.1</speed>
<course>217.2</course>
<desc>Speed 0.1 km/h Distance 2.51 km</desc>
<time>2010-03-14T10:56:40.72</time>
<name>1883</name>
</trkpt>
<trkpt lat="48.938322" lon="8.679775">
<ele>324.5</ele>
<speed>0.1</speed>
<course>217.2</course>
<desc>Speed 0.1 km/h Distance 2.51 km</desc>
<time>2010-03-14T10:56:41.72</time>
<name>1884</name>
</trkpt>
<trkpt lat="48.938322" lon="8.679775">
<ele>324.5</ele>
<speed>0.1</speed>
<course>217.2</course>
<desc>Speed 0.1 km/h Distance 2.51 km</desc>
<time>2010-03-14T10:56:42.72</time>
<name>1885</name>
</trkpt>
<trkpt lat="48.938322" lon="8.679775">
<ele>324.5</ele>
<speed>0.3</speed>
<course>217.2</course>
<desc>Speed 0.3 km/h Distance 2.51 km</desc>
<time>2010-03-14T10:56:43.72</time>
<name>1886</name>
</trkpt>
<trkpt lat="48.938322" lon="8.679775">
<ele>324.5</ele>
<speed>0.1</speed>
<course>217.2</course>
<desc>Speed 0.1 km/h Distance 2.51 km</desc>
<time>2010-03-14T10:56:44.72</time>
<name>1887</name>
</trkpt>
<trkpt lat="48.938322" lon="8.679775">
<ele>324.5</ele>
<speed>0.3</speed>
<course>270.0</course>
<desc>Speed 0.3 km/h Distance 2.51 km</desc>
<time>2010-03-14T10:56:45.72</time>
<name>1888</name>
</trkpt>
<trkpt lat="48.938322" lon="8.679765">
<ele>324.5</ele>
<speed>0.3</speed>
<course>357.5</course>
<desc>Speed 0.3 km/h Distance 2.51 km</desc>
<time>2010-03-14T10:56:46.72</time>
<name>1889</name>
</trkpt>
<trkpt lat="48.938340" lon="8.679763">
<ele>324.5</ele>
<speed>7.5</speed>
<course>347.4</course>
<desc>Speed 7.5 km/h Distance 2.51 km</desc>
<time>2010-03-14T10:56:47.72</time>
<name>1890</name>
</trkpt>
<trkpt lat="48.938350" lon="8.679760">
<ele>325.0</ele>
<speed>4.6</speed>
<course>330.8</course>
<desc>Speed 4.6 km/h Distance 2.51 km</desc>
<time>2010-03-14T10:56:48.72</time>
<name>1891</name>
</trkpt>
<trkpt lat="48.938360" lon="8.679752">
<ele>325.0</ele>
<speed>4.6</speed>
<course>255.9</course>
<desc>Speed 4.6 km/h Distance 2.51 km</desc>
<time>2010-03-14T10:56:49.72</time>
<name>1892</name>
</trkpt>
<trkpt lat="48.938358" lon="8.679742">
<ele>325.0</ele>
<speed>0.1</speed>
<course>270.0</course>
<desc>Speed 0.1 km/h Distance 2.51 km</desc>
<time>2010-03-14T10:56:50.72</time>
<name>1893</name>
</trkpt>
<trkpt lat="48.938358" lon="8.679728">
<ele>325.0</ele>
<speed>0.2</speed>
<course>242.6</course>
<desc>Speed 0.2 km/h Distance 2.51 km</desc>
<time>2010-03-14T10:56:51.72</time>
<name>1894</name>
</trkpt>
<trkpt lat="48.938357" lon="8.679723">
<ele>325.5</ele>
<speed>0.3</speed>
<course>270.0</course>
<desc>Speed 0.3 km/h Distance 2.51 km</desc>
<time>2010-03-14T10:56:52.72</time>
<name>1895</name>
</trkpt>
<trkpt lat="48.938357" lon="8.679720">
<ele>325.5</ele>
<speed>0.1</speed>
<course>231.9</course>
<desc>Speed 0.1 km/h Distance 2.51 km</desc>
<time>2010-03-14T10:56:53.72</time>
<name>1896</name>
</trkpt>
<trkpt lat="48.938355" lon="8.679717">
<ele>325.5</ele>
<speed>0.1</speed>
<course>270.0</course>
<desc>Speed 0.1 km/h Distance 2.51 km</desc>
<time>2010-03-14T10:56:54.72</time>
<name>1897</name>
</trkpt>
<trkpt lat="48.938355" lon="8.679712">
<ele>325.5</ele>
<speed>0.4</speed>
<course>308.1</course>
<desc>Speed 0.4 km/h Distance 2.52 km</desc>
<time>2010-03-14T10:56:55.72</time>
<name>1898</name>
</trkpt>
<trkpt lat="48.938357" lon="8.679708">
<ele>325.5</ele>
<speed>0.0</speed>
<course>270.0</course>
<desc>Speed 0.0 km/h Distance 2.52 km</desc>
<time>2010-03-14T10:56:56.72</time>
<name>1899</name>
</trkpt>
<trkpt lat="48.938357" lon="8.679703">
<ele>325.5</ele>
<speed>0.2</speed>
<course>270.0</course>
<desc>Speed 0.2 km/h Distance 2.52 km</desc>
<time>2010-03-14T10:56:57.72</time>
<name>1900</name>
</trkpt>
<trkpt lat="48.938357" lon="8.679703">
<ele>325.5</ele>
<speed>0.6</speed>
<course>347.4</course>
<desc>Speed 0.6 km/h Distance 2.52 km</desc>
<time>2010-03-14T10:56:58.72</time>
<name>1901</name>
</trkpt>
<trkpt lat="48.938360" lon="8.679702">
<ele>326.0</ele>
<speed>1.6</speed>
<course>270.0</course>
<desc>Speed 1.6 km/h Distance 2.52 km</desc>
<time>2010-03-14T10:56:59.72</time>
<name>1902</name>
</trkpt>
<trkpt lat="48.938360" lon="8.679700">
<ele>326.0</ele>
<speed>0.1</speed>
<course>142.8</course>
<desc>Speed 0.1 km/h Distance 2.52 km</desc>
<time>2010-03-14T10:57:00.72</time>
<name>1903</name>
</trkpt>
<trkpt lat="48.938358" lon="8.679702">
<ele>326.0</ele>
<speed>0.6</speed>
<course>140.6</course>
<desc>Speed 0.6 km/h Distance 2.52 km</desc>
<time>2010-03-14T10:57:01.72</time>
<name>1904</name>
</trkpt>
<trkpt lat="48.938352" lon="8.679710">
<ele>326.0</ele>
<speed>1.5</speed>
<course>129.6</course>
<desc>Speed 1.5 km/h Distance 2.52 km</desc>
<time>2010-03-14T10:57:02.72</time>
<name>1905</name>
</trkpt>
<trkpt lat="48.938342" lon="8.679728">
<ele>326.0</ele>
<speed>3.4</speed>
<course>131.0</course>
<desc>Speed 3.4 km/h Distance 2.52 km</desc>
<time>2010-03-14T10:57:03.72</time>
<name>1906</name>
</trkpt>
<trkpt lat="48.938328" lon="8.679752">
<ele>326.0</ele>
<speed>4.1</speed>
<course>127.3</course>
<desc>Speed 4.1 km/h Distance 2.52 km</desc>
<time>2010-03-14T10:57:04.72</time>
<name>1907</name>
</trkpt>
<trkpt lat="48.938313" lon="8.679782">
<ele>326.5</ele>
<speed>4.1</speed>
<course>121.4</course>
<desc>Speed 4.1 km/h Distance 2.52 km</desc>
<time>2010-03-14T10:57:05.72</time>
<name>1908</name>
</trkpt>
<trkpt lat="48.938307" lon="8.679798">
<ele>326.5</ele>
<speed>4.3</speed>
<course>124.7</course>
<desc>Speed 4.3 km/h Distance 2.53 km</desc>
<time>2010-03-14T10:57:06.72</time>
<name>1909</name>
</trkpt>
<trkpt lat="48.938298" lon="8.679817">
<ele>326.5</ele>
<speed>4.5</speed>
<course>118.5</course>
<desc>Speed 4.5 km/h Distance 2.53 km</desc>
<time>2010-03-14T10:57:07.72</time>
<name>1910</name>
</trkpt>
<trkpt lat="48.938290" lon="8.679840">
<ele>327.0</ele>
<speed>4.6</speed>
<course>109.7</course>
<desc>Speed 4.6 km/h Distance 2.53 km</desc>
<time>2010-03-14T10:57:08.72</time>
<name>1911</name>
</trkpt>
<trkpt lat="48.938283" lon="8.679868">
<ele>327.0</ele>
<speed>4.7</speed>
<course>107.8</course>
<desc>Speed 4.7 km/h Distance 2.53 km</desc>
<time>2010-03-14T10:57:09.72</time>
<name>1912</name>
</trkpt>
<trkpt lat="48.938277" lon="8.679900">
<ele>327.0</ele>
<speed>4.3</speed>
<course>110.8</course>
<desc>Speed 4.3 km/h Distance 2.53 km</desc>
<time>2010-03-14T10:57:10.72</time>
<name>1913</name>
</trkpt>
<trkpt lat="48.938268" lon="8.679933">
<ele>327.5</ele>
<speed>4.9</speed>
<course>90.0</course>
<desc>Speed 4.9 km/h Distance 2.54 km</desc>
<time>2010-03-14T10:57:11.72</time>
<name>1914</name>
</trkpt>
<trkpt lat="48.938268" lon="8.679937">
<ele>327.5</ele>
<speed>1.4</speed>
<course>167.4</course>
<desc>Speed 1.4 km/h Distance 2.54 km</desc>
<time>2010-03-14T10:57:12.72</time>
<name>1915</name>
</trkpt>
<trkpt lat="48.938267" lon="8.679937">
<ele>327.5</ele>
<speed>0.4</speed>
<course>0.0</course>
<desc>Speed 0.4 km/h Distance 2.54 km</desc>
<time>2010-03-14T10:57:13.72</time>
<name>1916</name>
</trkpt>
<trkpt lat="48.938272" lon="8.679937">
<ele>327.5</ele>
<speed>2.2</speed>
<course>167.4</course>
<desc>Speed 2.2 km/h Distance 2.54 km</desc>
<time>2010-03-14T10:57:14.72</time>
<name>1917</name>
</trkpt>
<trkpt lat="48.938270" lon="8.679937">
<ele>327.5</ele>
<speed>0.1</speed>
<course>167.4</course>
<desc>Speed 0.1 km/h Distance 2.54 km</desc>
<time>2010-03-14T10:57:15.72</time>
<name>1918</name>
</trkpt>
<trkpt lat="48.938270" lon="8.679937">
<ele>327.5</ele>
<speed>0.3</speed>
<course>270.0</course>
<desc>Speed 0.3 km/h Distance 2.54 km</desc>
<time>2010-03-14T10:57:16.72</time>
<name>1919</name>
</trkpt>
<trkpt lat="48.938270" lon="8.679935">
<ele>327.5</ele>
<speed>0.2</speed>
<course>167.4</course>
<desc>Speed 0.2 km/h Distance 2.54 km</desc>
<time>2010-03-14T10:57:17.72</time>
<name>1920</name>
</trkpt>
<trkpt lat="48.938268" lon="8.679935">
<ele>327.5</ele>
<speed>0.2</speed>
<course>167.4</course>
<desc>Speed 0.2 km/h Distance 2.54 km</desc>
<time>2010-03-14T10:57:18.72</time>
<name>1921</name>
</trkpt>
<trkpt lat="48.938268" lon="8.679935">
<ele>327.5</ele>
<speed>0.2</speed>
<course>90.0</course>
<desc>Speed 0.2 km/h Distance 2.54 km</desc>
<time>2010-03-14T10:57:19.72</time>
<name>1922</name>
</trkpt>
<trkpt lat="48.938268" lon="8.679937">
<ele>327.5</ele>
<speed>0.3</speed>
<course>90.0</course>
<desc>Speed 0.3 km/h Distance 2.54 km</desc>
<time>2010-03-14T10:57:20.72</time>
<name>1923</name>
</trkpt>
<trkpt lat="48.938268" lon="8.679937">
<ele>327.5</ele>
<speed>0.3</speed>
<course>90.0</course>
<desc>Speed 0.3 km/h Distance 2.54 km</desc>
<time>2010-03-14T10:57:21.72</time>
<name>1924</name>
</trkpt>
<trkpt lat="48.938268" lon="8.679938">
<ele>327.5</ele>
<speed>0.3</speed>
<course>77.7</course>
<desc>Speed 0.3 km/h Distance 2.54 km</desc>
<time>2010-03-14T10:57:22.72</time>
<name>1925</name>
</trkpt>
<trkpt lat="48.938270" lon="8.679950">
<ele>328.0</ele>
<speed>2.3</speed>
<course>286.7</course>
<desc>Speed 2.3 km/h Distance 2.54 km</desc>
<time>2010-03-14T10:57:23.72</time>
<name>1926</name>
</trkpt>
<trkpt lat="48.938272" lon="8.679942">
<ele>328.0</ele>
<speed>0.4</speed>
<course>270.0</course>
<desc>Speed 0.4 km/h Distance 2.54 km</desc>
<time>2010-03-14T10:57:24.72</time>
<name>1927</name>
</trkpt>
<trkpt lat="48.938272" lon="8.679928">
<ele>328.0</ele>
<speed>0.5</speed>
<course>322.8</course>
<desc>Speed 0.5 km/h Distance 2.54 km</desc>
<time>2010-03-14T10:57:25.72</time>
<name>1928</name>
</trkpt>
<trkpt lat="48.938273" lon="8.679927">
<ele>328.0</ele>
<speed>0.3</speed>
<course>198.8</course>
<desc>Speed 0.3 km/h Distance 2.54 km</desc>
<time>2010-03-14T10:57:26.72</time>
<name>1929</name>
</trkpt>
<trkpt lat="48.938270" lon="8.679925">
<ele>328.0</ele>
<speed>4.0</speed>
<course>53.9</course>
<desc>Speed 4.0 km/h Distance 2.54 km</desc>
<time>2010-03-14T10:57:27.72</time>
<name>1930</name>
</trkpt>
<trkpt lat="48.938272" lon="8.679928">
<ele>328.0</ele>
<speed>0.6</speed>
<course>102.2</course>
<desc>Speed 0.6 km/h Distance 2.54 km</desc>
<time>2010-03-14T10:57:28.72</time>
<name>1931</name>
</trkpt>
<trkpt lat="48.938270" lon="8.679940">
<ele>328.0</ele>
<speed>1.6</speed>
<course>90.0</course>
<desc>Speed 1.6 km/h Distance 2.54 km</desc>
<time>2010-03-14T10:57:29.72</time>
<name>1932</name>
</trkpt>
<trkpt lat="48.938270" lon="8.679958">
<ele>328.0</ele>
<speed>2.5</speed>
<course>123.3</course>
<desc>Speed 2.5 km/h Distance 2.54 km</desc>
<time>2010-03-14T10:57:30.72</time>
<name>1933</name>
</trkpt>
<trkpt lat="48.938265" lon="8.679970">
<ele>328.0</ele>
<speed>3.5</speed>
<course>116.9</course>
<desc>Speed 3.5 km/h Distance 2.54 km</desc>
<time>2010-03-14T10:57:31.72</time>
<name>1934</name>
</trkpt>
<trkpt lat="48.938260" lon="8.679985">
<ele>328.0</ele>
<speed>3.5</speed>
<course>129.7</course>
<desc>Speed 3.5 km/h Distance 2.55 km</desc>
<time>2010-03-14T10:57:32.72</time>
<name>1935</name>
</trkpt>
<trkpt lat="48.938250" lon="8.680003">
<ele>328.0</ele>
<speed>4.5</speed>
<course>116.9</course>
<desc>Speed 4.5 km/h Distance 2.55 km</desc>
<time>2010-03-14T10:57:33.72</time>
<name>1936</name>
</trkpt>
<trkpt lat="48.938243" lon="8.680023">
<ele>328.0</ele>
<speed>3.3</speed>
<course>105.9</course>
<desc>Speed 3.3 km/h Distance 2.55 km</desc>
<time>2010-03-14T10:57:34.72</time>
<name>1937</name>
</trkpt>
<trkpt lat="48.938238" lon="8.680050">
<ele>328.0</ele>
<speed>3.7</speed>
<course>116.9</course>
<desc>Speed 3.7 km/h Distance 2.55 km</desc>
<time>2010-03-14T10:57:35.72</time>
<name>1938</name>
</trkpt>
<trkpt lat="48.938233" lon="8.680065">
<ele>328.5</ele>
<speed>3.5</speed>
<course>119.0</course>
<desc>Speed 3.5 km/h Distance 2.55 km</desc>
<time>2010-03-14T10:57:36.72</time>
<name>1939</name>
</trkpt>
<trkpt lat="48.938227" lon="8.680083">
<ele>328.5</ele>
<speed>4.4</speed>
<course>116.9</course>
<desc>Speed 4.4 km/h Distance 2.55 km</desc>
<time>2010-03-14T10:57:37.72</time>
<name>1940</name>
</trkpt>
<trkpt lat="48.938220" lon="8.680103">
<ele>328.5</ele>
<speed>4.4</speed>
<course>101.5</course>
<desc>Speed 4.4 km/h Distance 2.56 km</desc>
<time>2010-03-14T10:57:38.72</time>
<name>1941</name>
</trkpt>
<trkpt lat="48.938217" lon="8.680128">
<ele>328.5</ele>
<speed>4.1</speed>
<course>105.0</course>
<desc>Speed 4.1 km/h Distance 2.56 km</desc>
<time>2010-03-14T10:57:39.72</time>
<name>1942</name>
</trkpt>
<trkpt lat="48.938212" lon="8.680157">
<ele>328.5</ele>
<speed>4.6</speed>
<course>110.8</course>
<desc>Speed 4.6 km/h Distance 2.56 km</desc>
<time>2010-03-14T10:57:40.72</time>
<name>1943</name>
</trkpt>
<trkpt lat="48.938205" lon="8.680183">
<ele>328.5</ele>
<speed>5.1</speed>
<course>100.2</course>
<desc>Speed 5.1 km/h Distance 2.56 km</desc>
<time>2010-03-14T10:57:41.72</time>
<name>1944</name>
</trkpt>
<trkpt lat="48.938202" lon="8.680212">
<ele>329.0</ele>
<speed>4.4</speed>
<course>121.4</course>
<desc>Speed 4.4 km/h Distance 2.56 km</desc>
<time>2010-03-14T10:57:42.72</time>
<name>1945</name>
</trkpt>
<trkpt lat="48.938195" lon="8.680228">
<ele>329.0</ele>
<speed>4.2</speed>
<course>103.2</course>
<desc>Speed 4.2 km/h Distance 2.57 km</desc>
<time>2010-03-14T10:57:43.72</time>
<name>1946</name>
</trkpt>
<trkpt lat="48.938192" lon="8.680250">
<ele>329.0</ele>
<speed>4.8</speed>
<course>97.9</course>
<desc>Speed 4.8 km/h Distance 2.57 km</desc>
<time>2010-03-14T10:57:44.72</time>
<name>1947</name>
</trkpt>
<trkpt lat="48.938190" lon="8.680268">
<ele>329.0</ele>
<speed>4.2</speed>
<course>105.9</course>
<desc>Speed 4.2 km/h Distance 2.57 km</desc>
<time>2010-03-14T10:57:45.72</time>
<name>1948</name>
</trkpt>
<trkpt lat="48.938185" lon="8.680295">
<ele>329.5</ele>
<speed>5.4</speed>
<course>103.2</course>
<desc>Speed 5.4 km/h Distance 2.57 km</desc>
<time>2010-03-14T10:57:46.72</time>
<name>1949</name>
</trkpt>
<trkpt lat="48.938182" lon="8.680317">
<ele>329.5</ele>
<speed>4.5</speed>
<course>106.9</course>
<desc>Speed 4.5 km/h Distance 2.57 km</desc>
<time>2010-03-14T10:57:47.72</time>
<name>1950</name>
</trkpt>
<trkpt lat="48.938177" lon="8.680342">
<ele>329.5</ele>
<speed>5.3</speed>
<course>84.2</course>
<desc>Speed 5.3 km/h Distance 2.57 km</desc>
<time>2010-03-14T10:57:48.72</time>
<name>1951</name>
</trkpt>
<trkpt lat="48.938178" lon="8.680367">
<ele>329.5</ele>
<speed>4.2</speed>
<course>84.2</course>
<desc>Speed 4.2 km/h Distance 2.58 km</desc>
<time>2010-03-14T10:57:49.72</time>
<name>1952</name>
</trkpt>
<trkpt lat="48.938180" lon="8.680392">
<ele>329.5</ele>
<speed>4.1</speed>
<course>83.8</course>
<desc>Speed 4.1 km/h Distance 2.58 km</desc>
<time>2010-03-14T10:57:50.72</time>
<name>1953</name>
</trkpt>
<trkpt lat="48.938182" lon="8.680415">
<ele>329.5</ele>
<speed>4.5</speed>
<course>82.8</course>
<desc>Speed 4.5 km/h Distance 2.58 km</desc>
<time>2010-03-14T10:57:51.72</time>
<name>1954</name>
</trkpt>
<trkpt lat="48.938183" lon="8.680435">
<ele>330.0</ele>
<speed>4.3</speed>
<course>90.0</course>
<desc>Speed 4.3 km/h Distance 2.58 km</desc>
<time>2010-03-14T10:57:52.72</time>
<name>1955</name>
</trkpt>
<trkpt lat="48.938183" lon="8.680453">
<ele>330.0</ele>
<speed>4.3</speed>
<course>90.0</course>
<desc>Speed 4.3 km/h Distance 2.58 km</desc>
<time>2010-03-14T10:57:53.72</time>
<name>1956</name>
</trkpt>
<trkpt lat="48.938183" lon="8.680470">
<ele>330.0</ele>
<speed>4.4</speed>
<course>90.0</course>
<desc>Speed 4.4 km/h Distance 2.58 km</desc>
<time>2010-03-14T10:57:54.72</time>
<name>1957</name>
</trkpt>
<trkpt lat="48.938183" lon="8.680487">
<ele>330.5</ele>
<speed>4.7</speed>
<course>90.0</course>
<desc>Speed 4.7 km/h Distance 2.58 km</desc>
<time>2010-03-14T10:57:55.72</time>
<name>1958</name>
</trkpt>
<trkpt lat="48.938183" lon="8.680508">
<ele>330.5</ele>
<speed>4.9</speed>
<course>96.7</course>
<desc>Speed 4.9 km/h Distance 2.59 km</desc>
<time>2010-03-14T10:57:56.72</time>
<name>1959</name>
</trkpt>
<trkpt lat="48.938182" lon="8.680530">
<ele>330.5</ele>
<speed>4.3</speed>
<course>97.9</course>
<desc>Speed 4.3 km/h Distance 2.59 km</desc>
<time>2010-03-14T10:57:57.72</time>
<name>1960</name>
</trkpt>
<trkpt lat="48.938180" lon="8.680548">
<ele>331.0</ele>
<speed>4.3</speed>
<course>90.0</course>
<desc>Speed 4.3 km/h Distance 2.59 km</desc>
<time>2010-03-14T10:57:58.72</time>
<name>1961</name>
</trkpt>
<trkpt lat="48.938180" lon="8.680567">
<ele>331.0</ele>
<speed>4.6</speed>
<course>96.7</course>
<desc>Speed 4.6 km/h Distance 2.59 km</desc>
<time>2010-03-14T10:57:59.72</time>
<name>1962</name>
</trkpt>
<trkpt lat="48.938178" lon="8.680588">
<ele>331.0</ele>
<speed>4.9</speed>
<course>82.1</course>
<desc>Speed 4.9 km/h Distance 2.59 km</desc>
<time>2010-03-14T10:58:00.72</time>
<name>1963</name>
</trkpt>
<trkpt lat="48.938180" lon="8.680607">
<ele>331.0</ele>
<speed>4.5</speed>
<course>90.0</course>
<desc>Speed 4.5 km/h Distance 2.59 km</desc>
<time>2010-03-14T10:58:01.72</time>
<name>1964</name>
</trkpt>
<trkpt lat="48.938180" lon="8.680622">
<ele>331.0</ele>
<speed>3.8</speed>
<course>97.9</course>
<desc>Speed 3.8 km/h Distance 2.59 km</desc>
<time>2010-03-14T10:58:02.72</time>
<name>1965</name>
</trkpt>
<trkpt lat="48.938178" lon="8.680640">
<ele>331.5</ele>
<speed>4.3</speed>
<course>82.1</course>
<desc>Speed 4.3 km/h Distance 2.60 km</desc>
<time>2010-03-14T10:58:03.72</time>
<name>1966</name>
</trkpt>
<trkpt lat="48.938180" lon="8.680658">
<ele>331.5</ele>
<speed>4.5</speed>
<course>82.1</course>
<desc>Speed 4.5 km/h Distance 2.60 km</desc>
<time>2010-03-14T10:58:04.72</time>
<name>1967</name>
</trkpt>
<trkpt lat="48.938182" lon="8.680677">
<ele>331.5</ele>
<speed>4.1</speed>
<course>75.8</course>
<desc>Speed 4.1 km/h Distance 2.60 km</desc>
<time>2010-03-14T10:58:05.72</time>
<name>1968</name>
</trkpt>
<trkpt lat="48.938185" lon="8.680697">
<ele>331.5</ele>
<speed>4.4</speed>
<course>82.1</course>
<desc>Speed 4.4 km/h Distance 2.60 km</desc>
<time>2010-03-14T10:58:06.72</time>
<name>1969</name>
</trkpt>
<trkpt lat="48.938187" lon="8.680715">
<ele>331.5</ele>
<speed>4.4</speed>
<course>83.8</course>
<desc>Speed 4.4 km/h Distance 2.60 km</desc>
<time>2010-03-14T10:58:07.72</time>
<name>1970</name>
</trkpt>
<trkpt lat="48.938188" lon="8.680738">
<ele>332.0</ele>
<speed>4.9</speed>
<course>82.8</course>
<desc>Speed 4.9 km/h Distance 2.60 km</desc>
<time>2010-03-14T10:58:08.72</time>
<name>1971</name>
</trkpt>
<trkpt lat="48.938190" lon="8.680758">
<ele>332.0</ele>
<speed>4.5</speed>
<course>74.5</course>
<desc>Speed 4.5 km/h Distance 2.60 km</desc>
<time>2010-03-14T10:58:09.72</time>
<name>1972</name>
</trkpt>
<trkpt lat="48.938193" lon="8.680777">
<ele>332.0</ele>
<speed>4.2</speed>
<course>74.5</course>
<desc>Speed 4.2 km/h Distance 2.61 km</desc>
<time>2010-03-14T10:58:10.72</time>
<name>1973</name>
</trkpt>
<trkpt lat="48.938197" lon="8.680795">
<ele>332.0</ele>
<speed>4.2</speed>
<course>71.3</course>
<desc>Speed 4.2 km/h Distance 2.61 km</desc>
<time>2010-03-14T10:58:11.72</time>
<name>1974</name>
</trkpt>
<trkpt lat="48.938200" lon="8.680810">
<ele>332.0</ele>
<speed>3.9</speed>
<course>82.1</course>
<desc>Speed 3.9 km/h Distance 2.61 km</desc>
<time>2010-03-14T10:58:12.72</time>
<name>1975</name>
</trkpt>
<trkpt lat="48.938202" lon="8.680828">
<ele>332.5</ele>
<speed>4.3</speed>
<course>81.3</course>
<desc>Speed 4.3 km/h Distance 2.61 km</desc>
<time>2010-03-14T10:58:13.72</time>
<name>1976</name>
</trkpt>
<trkpt lat="48.938203" lon="8.680845">
<ele>332.5</ele>
<speed>4.3</speed>
<course>82.1</course>
<desc>Speed 4.3 km/h Distance 2.61 km</desc>
<time>2010-03-14T10:58:14.72</time>
<name>1977</name>
</trkpt>
<trkpt lat="48.938205" lon="8.680863">
<ele>332.5</ele>
<speed>4.1</speed>
<course>90.0</course>
<desc>Speed 4.1 km/h Distance 2.61 km</desc>
<time>2010-03-14T10:58:15.72</time>
<name>1978</name>
</trkpt>
<trkpt lat="48.938205" lon="8.680880">
<ele>332.5</ele>
<speed>4.0</speed>
<course>97.9</course>
<desc>Speed 4.0 km/h Distance 2.61 km</desc>
<time>2010-03-14T10:58:16.72</time>
<name>1979</name>
</trkpt>
<trkpt lat="48.938203" lon="8.680898">
<ele>332.5</ele>
<speed>4.1</speed>
<course>90.0</course>
<desc>Speed 4.1 km/h Distance 2.62 km</desc>
<time>2010-03-14T10:58:17.72</time>
<name>1980</name>
</trkpt>
<trkpt lat="48.938203" lon="8.680915">
<ele>332.5</ele>
<speed>3.9</speed>
<course>81.3</course>
<desc>Speed 3.9 km/h Distance 2.62 km</desc>
<time>2010-03-14T10:58:18.72</time>
<name>1981</name>
</trkpt>
<trkpt lat="48.938205" lon="8.680932">
<ele>333.0</ele>
<speed>4.3</speed>
<course>90.0</course>
<desc>Speed 4.3 km/h Distance 2.62 km</desc>
<time>2010-03-14T10:58:19.72</time>
<name>1982</name>
</trkpt>
<trkpt lat="48.938205" lon="8.680945">
<ele>333.0</ele>
<speed>3.6</speed>
<course>66.5</course>
<desc>Speed 3.6 km/h Distance 2.62 km</desc>
<time>2010-03-14T10:58:20.72</time>
<name>1983</name>
</trkpt>
<trkpt lat="48.938208" lon="8.680957">
<ele>333.0</ele>
<speed>3.7</speed>
<course>90.0</course>
<desc>Speed 3.7 km/h Distance 2.62 km</desc>
<time>2010-03-14T10:58:21.72</time>
<name>1984</name>
</trkpt>
<trkpt lat="48.938208" lon="8.680973">
<ele>333.0</ele>
<speed>4.0</speed>
<course>69.2</course>
<desc>Speed 4.0 km/h Distance 2.62 km</desc>
<time>2010-03-14T10:58:22.72</time>
<name>1985</name>
</trkpt>
<trkpt lat="48.938212" lon="8.680987">
<ele>333.0</ele>
<speed>3.9</speed>
<course>77.7</course>
<desc>Speed 3.9 km/h Distance 2.62 km</desc>
<time>2010-03-14T10:58:23.72</time>
<name>1986</name>
</trkpt>
<trkpt lat="48.938213" lon="8.680998">
<ele>333.5</ele>
<speed>3.5</speed>
<course>79.2</course>
<desc>Speed 3.5 km/h Distance 2.62 km</desc>
<time>2010-03-14T10:58:24.72</time>
<name>1987</name>
</trkpt>
<trkpt lat="48.938215" lon="8.681012">
<ele>333.5</ele>
<speed>3.6</speed>
<course>66.5</course>
<desc>Speed 3.6 km/h Distance 2.62 km</desc>
<time>2010-03-14T10:58:25.72</time>
<name>1988</name>
</trkpt>
<trkpt lat="48.938218" lon="8.681023">
<ele>333.5</ele>
<speed>3.4</speed>
<course>75.6</course>
<desc>Speed 3.4 km/h Distance 2.62 km</desc>
<time>2010-03-14T10:58:26.72</time>
<name>1989</name>
</trkpt>
<trkpt lat="48.938220" lon="8.681033">
<ele>334.0</ele>
<speed>3.1</speed>
<course>69.3</course>
<desc>Speed 3.1 km/h Distance 2.63 km</desc>
<time>2010-03-14T10:58:27.72</time>
<name>1990</name>
</trkpt>
<trkpt lat="48.938223" lon="8.681047">
<ele>334.0</ele>
<speed>3.5</speed>
<course>71.3</course>
<desc>Speed 3.5 km/h Distance 2.63 km</desc>
<time>2010-03-14T10:58:28.72</time>
<name>1991</name>
</trkpt>
<trkpt lat="48.938227" lon="8.681062">
<ele>334.0</ele>
<speed>3.5</speed>
<course>66.5</course>
<desc>Speed 3.5 km/h Distance 2.63 km</desc>
<time>2010-03-14T10:58:29.72</time>
<name>1992</name>
</trkpt>
<trkpt lat="48.938230" lon="8.681073">
<ele>334.0</ele>
<speed>3.5</speed>
<course>77.7</course>
<desc>Speed 3.5 km/h Distance 2.63 km</desc>
<time>2010-03-14T10:58:30.72</time>
<name>1993</name>
</trkpt>
<trkpt lat="48.938232" lon="8.681085">
<ele>334.0</ele>
<speed>3.1</speed>
<course>79.3</course>
<desc>Speed 3.1 km/h Distance 2.63 km</desc>
<time>2010-03-14T10:58:31.72</time>
<name>1994</name>
</trkpt>
<trkpt lat="48.938233" lon="8.681098">
<ele>334.0</ele>
<speed>3.5</speed>
<course>69.1</course>
<desc>Speed 3.5 km/h Distance 2.63 km</desc>
<time>2010-03-14T10:58:32.72</time>
<name>1995</name>
</trkpt>
<trkpt lat="48.938237" lon="8.681112">
<ele>334.0</ele>
<speed>3.3</speed>
<course>77.7</course>
<desc>Speed 3.3 km/h Distance 2.63 km</desc>
<time>2010-03-14T10:58:33.72</time>
<name>1996</name>
</trkpt>
<trkpt lat="48.938238" lon="8.681123">
<ele>334.0</ele>
<speed>3.1</speed>
<course>80.4</course>
<desc>Speed 3.1 km/h Distance 2.63 km</desc>
<time>2010-03-14T10:58:34.72</time>
<name>1997</name>
</trkpt>
<trkpt lat="48.938240" lon="8.681138">
<ele>334.0</ele>
<speed>4.0</speed>
<course>90.0</course>
<desc>Speed 4.0 km/h Distance 2.63 km</desc>
<time>2010-03-14T10:58:35.72</time>
<name>1998</name>
</trkpt>
<trkpt lat="48.938240" lon="8.681153">
<ele>334.5</ele>
<speed>4.2</speed>
<course>80.4</course>
<desc>Speed 4.2 km/h Distance 2.63 km</desc>
<time>2010-03-14T10:58:36.72</time>
<name>1999</name>
</trkpt>
<trkpt lat="48.938242" lon="8.681168">
<ele>334.5</ele>
<speed>3.7</speed>
<course>100.8</course>
<desc>Speed 3.7 km/h Distance 2.64 km</desc>
<time>2010-03-14T10:58:37.72</time>
<name>2000</name>
</trkpt>
<trkpt lat="48.938240" lon="8.681182">
<ele>334.5</ele>
<speed>3.8</speed>
<course>100.7</course>
<desc>Speed 3.8 km/h Distance 2.64 km</desc>
<time>2010-03-14T10:58:38.72</time>
<name>2001</name>
</trkpt>
<trkpt lat="48.938238" lon="8.681195">
<ele>334.5</ele>
<speed>3.7</speed>
<course>100.8</course>
<desc>Speed 3.7 km/h Distance 2.64 km</desc>
<time>2010-03-14T10:58:39.72</time>
<name>2002</name>
</trkpt>
<trkpt lat="48.938237" lon="8.681208">
<ele>334.5</ele>
<speed>4.0</speed>
<course>123.3</course>
<desc>Speed 4.0 km/h Distance 2.64 km</desc>
<time>2010-03-14T10:58:40.72</time>
<name>2003</name>
</trkpt>
<trkpt lat="48.938232" lon="8.681220">
<ele>334.5</ele>
<speed>3.7</speed>
<course>127.4</course>
<desc>Speed 3.7 km/h Distance 2.64 km</desc>
<time>2010-03-14T10:58:41.72</time>
<name>2004</name>
</trkpt>
<trkpt lat="48.938227" lon="8.681230">
<ele>334.0</ele>
<speed>3.5</speed>
<course>146.3</course>
<desc>Speed 3.5 km/h Distance 2.64 km</desc>
<time>2010-03-14T10:58:42.72</time>
<name>2005</name>
</trkpt>
<trkpt lat="48.938220" lon="8.681237">
<ele>333.5</ele>
<speed>3.6</speed>
<course>130.9</course>
<desc>Speed 3.6 km/h Distance 2.64 km</desc>
<time>2010-03-14T10:58:43.72</time>
<name>2006</name>
</trkpt>
<trkpt lat="48.938213" lon="8.681248">
<ele>333.0</ele>
<speed>3.4</speed>
<course>138.6</course>
<desc>Speed 3.4 km/h Distance 2.64 km</desc>
<time>2010-03-14T10:58:44.72</time>
<name>2007</name>
</trkpt>
<trkpt lat="48.938208" lon="8.681255">
<ele>333.0</ele>
<speed>3.2</speed>
<course>140.6</course>
<desc>Speed 3.2 km/h Distance 2.64 km</desc>
<time>2010-03-14T10:58:45.72</time>
<name>2008</name>
</trkpt>
<trkpt lat="48.938202" lon="8.681263">
<ele>333.0</ele>
<speed>3.7</speed>
<course>140.6</course>
<desc>Speed 3.7 km/h Distance 2.64 km</desc>
<time>2010-03-14T10:58:46.72</time>
<name>2009</name>
</trkpt>
<trkpt lat="48.938195" lon="8.681272">
<ele>332.5</ele>
<speed>3.1</speed>
<course>146.3</course>
<desc>Speed 3.1 km/h Distance 2.65 km</desc>
<time>2010-03-14T10:58:47.72</time>
<name>2010</name>
</trkpt>
<trkpt lat="48.938188" lon="8.681278">
<ele>332.5</ele>
<speed>3.4</speed>
<course>130.9</course>
<desc>Speed 3.4 km/h Distance 2.65 km</desc>
<time>2010-03-14T10:58:48.72</time>
<name>2011</name>
</trkpt>
<trkpt lat="48.938182" lon="8.681290">
<ele>332.5</ele>
<speed>4.1</speed>
<course>137.4</course>
<desc>Speed 4.1 km/h Distance 2.65 km</desc>
<time>2010-03-14T10:58:49.72</time>
<name>2012</name>
</trkpt>
<trkpt lat="48.938173" lon="8.681302">
<ele>333.0</ele>
<speed>3.9</speed>
<course>147.7</course>
<desc>Speed 3.9 km/h Distance 2.65 km</desc>
<time>2010-03-14T10:58:50.72</time>
<name>2013</name>
</trkpt>
<trkpt lat="48.938168" lon="8.681307">
<ele>333.0</ele>
<speed>2.7</speed>
<course>132.2</course>
<desc>Speed 2.7 km/h Distance 2.65 km</desc>
<time>2010-03-14T10:58:51.72</time>
<name>2014</name>
</trkpt>
<trkpt lat="48.938163" lon="8.681315">
<ele>333.0</ele>
<speed>3.2</speed>
<course>117.0</course>
<desc>Speed 3.2 km/h Distance 2.65 km</desc>
<time>2010-03-14T10:58:52.72</time>
<name>2015</name>
</trkpt>
<trkpt lat="48.938160" lon="8.681325">
<ele>333.0</ele>
<speed>3.1</speed>
<course>121.4</course>
<desc>Speed 3.1 km/h Distance 2.65 km</desc>
<time>2010-03-14T10:58:53.72</time>
<name>2016</name>
</trkpt>
<trkpt lat="48.938157" lon="8.681333">
<ele>333.0</ele>
<speed>3.0</speed>
<course>147.7</course>
<desc>Speed 3.0 km/h Distance 2.65 km</desc>
<time>2010-03-14T10:58:54.72</time>
<name>2017</name>
</trkpt>
<trkpt lat="48.938152" lon="8.681338">
<ele>333.0</ele>
<speed>2.8</speed>
<course>138.6</course>
<desc>Speed 2.8 km/h Distance 2.65 km</desc>
<time>2010-03-14T10:58:55.72</time>
<name>2018</name>
</trkpt>
<trkpt lat="48.938147" lon="8.681345">
<ele>332.5</ele>
<speed>2.4</speed>
<course>117.0</course>
<desc>Speed 2.4 km/h Distance 2.65 km</desc>
<time>2010-03-14T10:58:56.72</time>
<name>2019</name>
</trkpt>
<trkpt lat="48.938143" lon="8.681355">
<ele>333.0</ele>
<speed>3.7</speed>
<course>123.3</course>
<desc>Speed 3.7 km/h Distance 2.65 km</desc>
<time>2010-03-14T10:58:57.72</time>
<name>2020</name>
</trkpt>
<trkpt lat="48.938138" lon="8.681367">
<ele>333.0</ele>
<speed>3.5</speed>
<course>138.6</course>
<desc>Speed 3.5 km/h Distance 2.65 km</desc>
<time>2010-03-14T10:58:58.72</time>
<name>2021</name>
</trkpt>
<trkpt lat="48.938133" lon="8.681373">
<ele>333.0</ele>
<speed>3.0</speed>
<course>123.3</course>
<desc>Speed 3.0 km/h Distance 2.66 km</desc>
<time>2010-03-14T10:58:59.72</time>
<name>2022</name>
</trkpt>
<trkpt lat="48.938128" lon="8.681385">
<ele>333.5</ele>
<speed>2.9</speed>
<course>156.2</course>
<desc>Speed 2.9 km/h Distance 2.66 km</desc>
<time>2010-03-14T10:59:00.72</time>
<name>2023</name>
</trkpt>
<trkpt lat="48.938123" lon="8.681388">
<ele>333.0</ele>
<speed>2.2</speed>
<course>132.2</course>
<desc>Speed 2.2 km/h Distance 2.66 km</desc>
<time>2010-03-14T10:59:01.72</time>
<name>2024</name>
</trkpt>
<trkpt lat="48.938118" lon="8.681397">
<ele>333.0</ele>
<speed>3.0</speed>
<course>69.3</course>
<desc>Speed 3.0 km/h Distance 2.66 km</desc>
<time>2010-03-14T10:59:02.72</time>
<name>2025</name>
</trkpt>
<trkpt lat="48.938122" lon="8.681410">
<ele>334.0</ele>
<speed>3.3</speed>
<course>108.6</course>
<desc>Speed 3.3 km/h Distance 2.66 km</desc>
<time>2010-03-14T10:59:03.72</time>
<name>2026</name>
</trkpt>
<trkpt lat="48.938118" lon="8.681425">
<ele>334.5</ele>
<speed>4.0</speed>
<course>138.1</course>
<desc>Speed 4.0 km/h Distance 2.66 km</desc>
<time>2010-03-14T10:59:04.72</time>
<name>2027</name>
</trkpt>
<trkpt lat="48.938113" lon="8.681432">
<ele>334.5</ele>
<speed>2.9</speed>
<course>127.4</course>
<desc>Speed 2.9 km/h Distance 2.66 km</desc>
<time>2010-03-14T10:59:05.72</time>
<name>2028</name>
</trkpt>
<trkpt lat="48.938108" lon="8.681442">
<ele>334.5</ele>
<speed>3.1</speed>
<course>139.1</course>
<desc>Speed 3.1 km/h Distance 2.66 km</desc>
<time>2010-03-14T10:59:06.72</time>
<name>2029</name>
</trkpt>
<trkpt lat="48.938103" lon="8.681448">
<ele>334.0</ele>
<speed>2.8</speed>
<course>132.6</course>
<desc>Speed 2.8 km/h Distance 2.66 km</desc>
<time>2010-03-14T10:59:07.72</time>
<name>2030</name>
</trkpt>
<trkpt lat="48.938098" lon="8.681457">
<ele>334.5</ele>
<speed>3.0</speed>
<course>113.5</course>
<desc>Speed 3.0 km/h Distance 2.66 km</desc>
<time>2010-03-14T10:59:08.72</time>
<name>2031</name>
</trkpt>
<trkpt lat="48.938095" lon="8.681468">
<ele>335.0</ele>
<speed>3.3</speed>
<course>113.5</course>
<desc>Speed 3.3 km/h Distance 2.66 km</desc>
<time>2010-03-14T10:59:09.72</time>
<name>2032</name>
</trkpt>
<trkpt lat="48.938092" lon="8.681480">
<ele>335.5</ele>
<speed>3.6</speed>
<course>122.9</course>
<desc>Speed 3.6 km/h Distance 2.67 km</desc>
<time>2010-03-14T10:59:10.72</time>
<name>2033</name>
</trkpt>
<trkpt lat="48.938087" lon="8.681492">
<ele>336.0</ele>
<speed>3.7</speed>
<course>127.2</course>
<desc>Speed 3.7 km/h Distance 2.67 km</desc>
<time>2010-03-14T10:59:11.72</time>
<name>2034</name>
</trkpt>
<trkpt lat="48.938082" lon="8.681502">
<ele>336.0</ele>
<speed>3.3</speed>
<course>127.3</course>
<desc>Speed 3.3 km/h Distance 2.67 km</desc>
<time>2010-03-14T10:59:12.72</time>
<name>2035</name>
</trkpt>
<trkpt lat="48.938075" lon="8.681515">
<ele>336.5</ele>
<speed>3.7</speed>
<course>127.6</course>
<desc>Speed 3.7 km/h Distance 2.67 km</desc>
<time>2010-03-14T10:59:13.72</time>
<name>2036</name>
</trkpt>
<trkpt lat="48.938070" lon="8.681525">
<ele>337.0</ele>
<speed>3.4</speed>
<course>135.5</course>
<desc>Speed 3.4 km/h Distance 2.67 km</desc>
<time>2010-03-14T10:59:14.72</time>
<name>2037</name>
</trkpt>
<trkpt lat="48.938067" lon="8.681530">
<ele>336.5</ele>
<speed>2.1</speed>
<course>130.9</course>
<desc>Speed 2.1 km/h Distance 2.67 km</desc>
<time>2010-03-14T10:59:15.72</time>
<name>2038</name>
</trkpt>
<trkpt lat="48.938060" lon="8.681542">
<ele>337.0</ele>
<speed>3.6</speed>
<course>108.7</course>
<desc>Speed 3.6 km/h Distance 2.67 km</desc>
<time>2010-03-14T10:59:16.72</time>
<name>2039</name>
</trkpt>
<trkpt lat="48.938057" lon="8.681557">
<ele>337.0</ele>
<speed>3.9</speed>
<course>119.7</course>
<desc>Speed 3.9 km/h Distance 2.67 km</desc>
<time>2010-03-14T10:59:17.72</time>
<name>2040</name>
</trkpt>
<trkpt lat="48.938052" lon="8.681570">
<ele>337.5</ele>
<speed>4.2</speed>
<course>132.6</course>
<desc>Speed 4.2 km/h Distance 2.67 km</desc>
<time>2010-03-14T10:59:18.72</time>
<name>2041</name>
</trkpt>
<trkpt lat="48.938047" lon="8.681578">
<ele>337.5</ele>
<speed>3.1</speed>
<course>127.2</course>
<desc>Speed 3.1 km/h Distance 2.67 km</desc>
<time>2010-03-14T10:59:19.72</time>
<name>2042</name>
</trkpt>
<trkpt lat="48.938042" lon="8.681588">
<ele>337.5</ele>
<speed>3.2</speed>
<course>110.8</course>
<desc>Speed 3.2 km/h Distance 2.68 km</desc>
<time>2010-03-14T10:59:20.72</time>
<name>2043</name>
</trkpt>
<trkpt lat="48.938038" lon="8.681602">
<ele>337.5</ele>
<speed>3.5</speed>
<course>108.7</course>
<desc>Speed 3.5 km/h Distance 2.68 km</desc>
<time>2010-03-14T10:59:21.72</time>
<name>2044</name>
</trkpt>
<trkpt lat="48.938035" lon="8.681617">
<ele>338.0</ele>
<speed>3.9</speed>
<course>119.7</course>
<desc>Speed 3.9 km/h Distance 2.68 km</desc>
<time>2010-03-14T10:59:22.72</time>
<name>2045</name>
</trkpt>
<trkpt lat="48.938030" lon="8.681630">
<ele>338.5</ele>
<speed>3.9</speed>
<course>119.7</course>
<desc>Speed 3.9 km/h Distance 2.68 km</desc>
<time>2010-03-14T10:59:23.72</time>
<name>2046</name>
</trkpt>
<trkpt lat="48.938025" lon="8.681643">
<ele>339.0</ele>
<speed>3.3</speed>
<course>135.5</course>
<desc>Speed 3.3 km/h Distance 2.68 km</desc>
<time>2010-03-14T10:59:24.72</time>
<name>2047</name>
</trkpt>
<trkpt lat="48.938018" lon="8.681653">
<ele>338.0</ele>
<speed>3.7</speed>
<course>140.6</course>
<desc>Speed 3.7 km/h Distance 2.68 km</desc>
<time>2010-03-14T10:59:25.72</time>
<name>2048</name>
</trkpt>
<trkpt lat="48.938012" lon="8.681662">
<ele>338.5</ele>
<speed>3.7</speed>
<course>165.1</course>
<desc>Speed 3.7 km/h Distance 2.68 km</desc>
<time>2010-03-14T10:59:26.72</time>
<name>2049</name>
</trkpt>
<trkpt lat="48.938003" lon="8.681665">
<ele>338.0</ele>
<speed>2.9</speed>
<course>127.0</course>
<desc>Speed 2.9 km/h Distance 2.68 km</desc>
<time>2010-03-14T10:59:27.72</time>
<name>2050</name>
</trkpt>
<trkpt lat="48.938000" lon="8.681672">
<ele>337.5</ele>
<speed>2.3</speed>
<course>130.9</course>
<desc>Speed 2.3 km/h Distance 2.68 km</desc>
<time>2010-03-14T10:59:28.72</time>
<name>2051</name>
</trkpt>
<trkpt lat="48.937993" lon="8.681683">
<ele>337.0</ele>
<speed>3.9</speed>
<course>150.6</course>
<desc>Speed 3.9 km/h Distance 2.68 km</desc>
<time>2010-03-14T10:59:29.72</time>
<name>2052</name>
</trkpt>
<trkpt lat="48.937982" lon="8.681693">
<ele>336.5</ele>
<speed>5.0</speed>
<course>133.5</course>
<desc>Speed 5.0 km/h Distance 2.69 km</desc>
<time>2010-03-14T10:59:30.72</time>
<name>2053</name>
</trkpt>
<trkpt lat="48.937973" lon="8.681707">
<ele>336.5</ele>
<speed>4.5</speed>
<course>127.3</course>
<desc>Speed 4.5 km/h Distance 2.69 km</desc>
<time>2010-03-14T10:59:31.72</time>
<name>2054</name>
</trkpt>
<trkpt lat="48.937967" lon="8.681720">
<ele>336.5</ele>
<speed>4.2</speed>
<course>124.1</course>
<desc>Speed 4.2 km/h Distance 2.69 km</desc>
<time>2010-03-14T10:59:32.72</time>
<name>2055</name>
</trkpt>
<trkpt lat="48.937960" lon="8.681735">
<ele>336.5</ele>
<speed>4.5</speed>
<course>132.9</course>
<desc>Speed 4.5 km/h Distance 2.69 km</desc>
<time>2010-03-14T10:59:33.72</time>
<name>2056</name>
</trkpt>
<trkpt lat="48.937955" lon="8.681743">
<ele>336.0</ele>
<speed>3.2</speed>
<course>131.6</course>
<desc>Speed 3.2 km/h Distance 2.69 km</desc>
<time>2010-03-14T10:59:34.72</time>
<name>2057</name>
</trkpt>
<trkpt lat="48.937943" lon="8.681763">
<ele>336.0</ele>
<speed>4.1</speed>
<course>127.3</course>
<desc>Speed 4.1 km/h Distance 2.69 km</desc>
<time>2010-03-14T10:59:35.72</time>
<name>2058</name>
</trkpt>
<trkpt lat="48.937932" lon="8.681787">
<ele>336.5</ele>
<speed>4.6</speed>
<course>130.9</course>
<desc>Speed 4.6 km/h Distance 2.69 km</desc>
<time>2010-03-14T10:59:36.72</time>
<name>2059</name>
</trkpt>
<trkpt lat="48.937918" lon="8.681810">
<ele>336.5</ele>
<speed>4.4</speed>
<course>140.6</course>
<desc>Speed 4.4 km/h Distance 2.70 km</desc>
<time>2010-03-14T10:59:37.72</time>
<name>2060</name>
</trkpt>
<trkpt lat="48.937912" lon="8.681818">
<ele>336.0</ele>
<speed>4.0</speed>
<course>130.9</course>
<desc>Speed 4.0 km/h Distance 2.70 km</desc>
<time>2010-03-14T10:59:38.72</time>
<name>2061</name>
</trkpt>
<trkpt lat="48.937905" lon="8.681830">
<ele>335.5</ele>
<speed>3.5</speed>
<course>165.1</course>
<desc>Speed 3.5 km/h Distance 2.70 km</desc>
<time>2010-03-14T10:59:39.72</time>
<name>2062</name>
</trkpt>
<trkpt lat="48.937897" lon="8.681833">
<ele>334.5</ele>
<speed>3.3</speed>
<course>142.5</course>
<desc>Speed 3.3 km/h Distance 2.70 km</desc>
<time>2010-03-14T10:59:40.72</time>
<name>2063</name>
</trkpt>
<trkpt lat="48.937887" lon="8.681845">
<ele>334.0</ele>
<speed>3.6</speed>
<course>135.5</course>
<desc>Speed 3.6 km/h Distance 2.70 km</desc>
<time>2010-03-14T10:59:41.72</time>
<name>2064</name>
</trkpt>
<trkpt lat="48.937877" lon="8.681860">
<ele>333.5</ele>
<speed>3.8</speed>
<course>130.9</course>
<desc>Speed 3.8 km/h Distance 2.70 km</desc>
<time>2010-03-14T10:59:42.72</time>
<name>2065</name>
</trkpt>
<trkpt lat="48.937870" lon="8.681872">
<ele>333.0</ele>
<speed>4.0</speed>
<course>132.2</course>
<desc>Speed 4.0 km/h Distance 2.70 km</desc>
<time>2010-03-14T10:59:43.72</time>
<name>2066</name>
</trkpt>
<trkpt lat="48.937865" lon="8.681880">
<ele>333.0</ele>
<speed>3.4</speed>
<course>121.4</course>
<desc>Speed 3.4 km/h Distance 2.70 km</desc>
<time>2010-03-14T10:59:44.72</time>
<name>2067</name>
</trkpt>
<trkpt lat="48.937862" lon="8.681888">
<ele>334.0</ele>
<speed>2.3</speed>
<course>107.1</course>
<desc>Speed 2.3 km/h Distance 2.71 km</desc>
<time>2010-03-14T10:59:45.72</time>
<name>2068</name>
</trkpt>
<trkpt lat="48.937860" lon="8.681897">
<ele>334.0</ele>
<speed>3.4</speed>
<course>152.1</course>
<desc>Speed 3.4 km/h Distance 2.71 km</desc>
<time>2010-03-14T10:59:46.72</time>
<name>2069</name>
</trkpt>
<trkpt lat="48.937852" lon="8.681903">
<ele>334.0</ele>
<speed>3.4</speed>
<course>152.1</course>
<desc>Speed 3.4 km/h Distance 2.71 km</desc>
<time>2010-03-14T10:59:47.72</time>
<name>2070</name>
</trkpt>
<trkpt lat="48.937843" lon="8.681910">
<ele>333.5</ele>
<speed>3.9</speed>
<course>132.6</course>
<desc>Speed 3.9 km/h Distance 2.71 km</desc>
<time>2010-03-14T10:59:48.72</time>
<name>2071</name>
</trkpt>
<trkpt lat="48.937838" lon="8.681918">
<ele>334.0</ele>
<speed>4.1</speed>
<course>117.0</course>
<desc>Speed 4.1 km/h Distance 2.71 km</desc>
<time>2010-03-14T10:59:49.72</time>
<name>2072</name>
</trkpt>
<trkpt lat="48.937835" lon="8.681928">
<ele>334.5</ele>
<speed>3.9</speed>
<course>127.4</course>
<desc>Speed 3.9 km/h Distance 2.71 km</desc>
<time>2010-03-14T10:59:50.72</time>
<name>2073</name>
</trkpt>
<trkpt lat="48.937830" lon="8.681938">
<ele>334.5</ele>
<speed>3.4</speed>
<course>130.9</course>
<desc>Speed 3.4 km/h Distance 2.71 km</desc>
<time>2010-03-14T10:59:51.72</time>
<name>2074</name>
</trkpt>
<trkpt lat="48.937823" lon="8.681950">
<ele>334.5</ele>
<speed>4.0</speed>
<course>139.1</course>
<desc>Speed 4.0 km/h Distance 2.71 km</desc>
<time>2010-03-14T10:59:52.72</time>
<name>2075</name>
</trkpt>
<trkpt lat="48.937818" lon="8.681957">
<ele>334.5</ele>
<speed>2.8</speed>
<course>113.5</course>
<desc>Speed 2.8 km/h Distance 2.71 km</desc>
<time>2010-03-14T10:59:53.72</time>
<name>2076</name>
</trkpt>
<trkpt lat="48.937815" lon="8.681968">
<ele>334.5</ele>
<speed>3.5</speed>
<course>113.5</course>
<desc>Speed 3.5 km/h Distance 2.71 km</desc>
<time>2010-03-14T10:59:54.72</time>
<name>2077</name>
</trkpt>
<trkpt lat="48.937812" lon="8.681980">
<ele>334.5</ele>
<speed>3.6</speed>
<course>122.4</course>
<desc>Speed 3.6 km/h Distance 2.71 km</desc>
<time>2010-03-14T10:59:55.72</time>
<name>2078</name>
</trkpt>
<trkpt lat="48.937803" lon="8.682000">
<ele>335.0</ele>
<speed>4.6</speed>
<course>127.3</course>
<desc>Speed 4.6 km/h Distance 2.72 km</desc>
<time>2010-03-14T10:59:56.72</time>
<name>2079</name>
</trkpt>
<trkpt lat="48.937795" lon="8.682017">
<ele>336.0</ele>
<speed>4.0</speed>
<course>114.5</course>
<desc>Speed 4.0 km/h Distance 2.72 km</desc>
<time>2010-03-14T10:59:57.72</time>
<name>2080</name>
</trkpt>
<trkpt lat="48.937790" lon="8.682033">
<ele>336.0</ele>
<speed>4.5</speed>
<course>124.6</course>
<desc>Speed 4.5 km/h Distance 2.72 km</desc>
<time>2010-03-14T10:59:58.72</time>
<name>2081</name>
</trkpt>
<trkpt lat="48.937782" lon="8.682052">
<ele>336.5</ele>
<speed>5.0</speed>
<course>119.0</course>
<desc>Speed 5.0 km/h Distance 2.72 km</desc>
<time>2010-03-14T10:59:59.72</time>
<name>2082</name>
</trkpt>
<trkpt lat="48.937775" lon="8.682070">
<ele>337.5</ele>
<speed>4.8</speed>
<course>110.8</course>
<desc>Speed 4.8 km/h Distance 2.72 km</desc>
<time>2010-03-14T11:00:00.72</time>
<name>2083</name>
</trkpt>
<trkpt lat="48.937770" lon="8.682090">
<ele>337.5</ele>
<speed>5.1</speed>
<course>124.1</course>
<desc>Speed 5.1 km/h Distance 2.72 km</desc>
<time>2010-03-14T11:00:01.72</time>
<name>2084</name>
</trkpt>
<trkpt lat="48.937763" lon="8.682105">
<ele>337.5</ele>
<speed>4.4</speed>
<course>110.8</course>
<desc>Speed 4.4 km/h Distance 2.73 km</desc>
<time>2010-03-14T11:00:02.72</time>
<name>2085</name>
</trkpt>
<trkpt lat="48.937760" lon="8.682118">
<ele>338.0</ele>
<speed>3.7</speed>
<course>116.9</course>
<desc>Speed 3.7 km/h Distance 2.73 km</desc>
<time>2010-03-14T11:00:03.72</time>
<name>2086</name>
</trkpt>
<trkpt lat="48.937755" lon="8.682133">
<ele>338.0</ele>
<speed>3.9</speed>
<course>119.7</course>
<desc>Speed 3.9 km/h Distance 2.73 km</desc>
<time>2010-03-14T11:00:04.72</time>
<name>2087</name>
</trkpt>
<trkpt lat="48.937750" lon="8.682147">
<ele>338.0</ele>
<speed>3.9</speed>
<course>132.2</course>
<desc>Speed 3.9 km/h Distance 2.73 km</desc>
<time>2010-03-14T11:00:05.72</time>
<name>2088</name>
</trkpt>
<trkpt lat="48.937745" lon="8.682155">
<ele>337.0</ele>
<speed>2.8</speed>
<course>104.4</course>
<desc>Speed 2.8 km/h Distance 2.73 km</desc>
<time>2010-03-14T11:00:06.72</time>
<name>2089</name>
</trkpt>
<trkpt lat="48.937743" lon="8.682165">
<ele>336.5</ele>
<speed>2.4</speed>
<course>132.6</course>
<desc>Speed 2.4 km/h Distance 2.73 km</desc>
<time>2010-03-14T11:00:07.72</time>
<name>2090</name>
</trkpt>
<trkpt lat="48.937738" lon="8.682173">
<ele>335.5</ele>
<speed>2.5</speed>
<course>132.2</course>
<desc>Speed 2.5 km/h Distance 2.73 km</desc>
<time>2010-03-14T11:00:08.72</time>
<name>2091</name>
</trkpt>
<trkpt lat="48.937733" lon="8.682182">
<ele>335.5</ele>
<speed>2.9</speed>
<course>124.1</course>
<desc>Speed 2.9 km/h Distance 2.73 km</desc>
<time>2010-03-14T11:00:09.72</time>
<name>2092</name>
</trkpt>
<trkpt lat="48.937727" lon="8.682197">
<ele>335.0</ele>
<speed>3.2</speed>
<course>116.9</course>
<desc>Speed 3.2 km/h Distance 2.73 km</desc>
<time>2010-03-14T11:00:10.72</time>
<name>2093</name>
</trkpt>
<trkpt lat="48.937720" lon="8.682217">
<ele>335.0</ele>
<speed>4.6</speed>
<course>112.5</course>
<desc>Speed 4.6 km/h Distance 2.73 km</desc>
<time>2010-03-14T11:00:11.72</time>
<name>2094</name>
</trkpt>
<trkpt lat="48.937715" lon="8.682235">
<ele>335.5</ele>
<speed>4.3</speed>
<course>116.9</course>
<desc>Speed 4.3 km/h Distance 2.74 km</desc>
<time>2010-03-14T11:00:12.72</time>
<name>2095</name>
</trkpt>
<trkpt lat="48.937708" lon="8.682255">
<ele>336.0</ele>
<speed>4.6</speed>
<course>110.8</course>
<desc>Speed 4.6 km/h Distance 2.74 km</desc>
<time>2010-03-14T11:00:13.72</time>
<name>2096</name>
</trkpt>
<trkpt lat="48.937703" lon="8.682275">
<ele>336.5</ele>
<speed>4.6</speed>
<course>124.7</course>
<desc>Speed 4.6 km/h Distance 2.74 km</desc>
<time>2010-03-14T11:00:14.72</time>
<name>2097</name>
</trkpt>
<trkpt lat="48.937695" lon="8.682293">
<ele>337.0</ele>
<speed>5.0</speed>
<course>110.8</course>
<desc>Speed 5.0 km/h Distance 2.74 km</desc>
<time>2010-03-14T11:00:15.72</time>
<name>2098</name>
</trkpt>
<trkpt lat="48.937690" lon="8.682313">
<ele>337.0</ele>
<speed>4.9</speed>
<course>122.3</course>
<desc>Speed 4.9 km/h Distance 2.74 km</desc>
<time>2010-03-14T11:00:16.72</time>
<name>2099</name>
</trkpt>
<trkpt lat="48.937682" lon="8.682333">
<ele>337.0</ele>
<speed>5.5</speed>
<course>109.3</course>
<desc>Speed 5.5 km/h Distance 2.74 km</desc>
<time>2010-03-14T11:00:17.72</time>
<name>2100</name>
</trkpt>
<trkpt lat="48.937677" lon="8.682355">
<ele>337.5</ele>
<speed>5.0</speed>
<course>120.3</course>
<desc>Speed 5.0 km/h Distance 2.75 km</desc>
<time>2010-03-14T11:00:18.72</time>
<name>2101</name>
</trkpt>
<trkpt lat="48.937668" lon="8.682377">
<ele>337.5</ele>
<speed>5.0</speed>
<course>122.3</course>
<desc>Speed 5.0 km/h Distance 2.75 km</desc>
<time>2010-03-14T11:00:19.72</time>
<name>2102</name>
</trkpt>
<trkpt lat="48.937660" lon="8.682397">
<ele>337.5</ele>
<speed>4.9</speed>
<course>124.7</course>
<desc>Speed 4.9 km/h Distance 2.75 km</desc>
<time>2010-03-14T11:00:20.72</time>
<name>2103</name>
</trkpt>
<trkpt lat="48.937652" lon="8.682415">
<ele>338.0</ele>
<speed>4.9</speed>
<course>121.3</course>
<desc>Speed 4.9 km/h Distance 2.75 km</desc>
<time>2010-03-14T11:00:21.72</time>
<name>2104</name>
</trkpt>
<trkpt lat="48.937645" lon="8.682432">
<ele>338.5</ele>
<speed>4.4</speed>
<course>124.7</course>
<desc>Speed 4.4 km/h Distance 2.75 km</desc>
<time>2010-03-14T11:00:22.72</time>
<name>2105</name>
</trkpt>
<trkpt lat="48.937637" lon="8.682450">
<ele>338.5</ele>
<speed>4.2</speed>
<course>110.8</course>
<desc>Speed 4.2 km/h Distance 2.75 km</desc>
<time>2010-03-14T11:00:23.72</time>
<name>2106</name>
</trkpt>
<trkpt lat="48.937632" lon="8.682470">
<ele>339.0</ele>
<speed>4.8</speed>
<course>121.3</course>
<desc>Speed 4.8 km/h Distance 2.76 km</desc>
<time>2010-03-14T11:00:24.72</time>
<name>2107</name>
</trkpt>
<trkpt lat="48.937625" lon="8.682487">
<ele>339.5</ele>
<speed>4.6</speed>
<course>124.7</course>
<desc>Speed 4.6 km/h Distance 2.76 km</desc>
<time>2010-03-14T11:00:25.72</time>
<name>2108</name>
</trkpt>
<trkpt lat="48.937617" lon="8.682505">
<ele>339.5</ele>
<speed>4.7</speed>
<course>124.7</course>
<desc>Speed 4.7 km/h Distance 2.76 km</desc>
<time>2010-03-14T11:00:26.72</time>
<name>2109</name>
</trkpt>
<trkpt lat="48.937608" lon="8.682523">
<ele>339.0</ele>
<speed>4.6</speed>
<course>116.9</course>
<desc>Speed 4.6 km/h Distance 2.76 km</desc>
<time>2010-03-14T11:00:27.72</time>
<name>2110</name>
</trkpt>
<trkpt lat="48.937602" lon="8.682543">
<ele>339.0</ele>
<speed>4.9</speed>
<course>124.8</course>
<desc>Speed 4.9 km/h Distance 2.76 km</desc>
<time>2010-03-14T11:00:28.72</time>
<name>2111</name>
</trkpt>
<trkpt lat="48.937593" lon="8.682562">
<ele>339.0</ele>
<speed>3.9</speed>
<course>116.9</course>
<desc>Speed 3.9 km/h Distance 2.76 km</desc>
<time>2010-03-14T11:00:29.72</time>
<name>2112</name>
</trkpt>
<trkpt lat="48.937588" lon="8.682577">
<ele>341.5</ele>
<speed>1.3</speed>
<course>121.4</course>
<desc>Speed 1.3 km/h Distance 2.77 km</desc>
<time>2010-03-14T11:00:30.72</time>
<name>2113</name>
</trkpt>
<trkpt lat="48.937585" lon="8.682585">
<ele>342.0</ele>
<speed>0.5</speed>
<course>90.0</course>
<desc>Speed 0.5 km/h Distance 2.77 km</desc>
<time>2010-03-14T11:00:31.72</time>
<name>2114</name>
</trkpt>
<trkpt lat="48.937585" lon="8.682590">
<ele>342.5</ele>
<speed>0.3</speed>
<course>90.0</course>
<desc>Speed 0.3 km/h Distance 2.77 km</desc>
<time>2010-03-14T11:00:32.72</time>
<name>2115</name>
</trkpt>
<trkpt lat="48.937585" lon="8.682590">
<ele>342.5</ele>
<speed>0.3</speed>
<course>127.2</course>
<desc>Speed 0.3 km/h Distance 2.77 km</desc>
<time>2010-03-14T11:00:33.72</time>
<name>2116</name>
</trkpt>
<trkpt lat="48.937580" lon="8.682600">
<ele>342.5</ele>
<speed>2.7</speed>
<course>135.5</course>
<desc>Speed 2.7 km/h Distance 2.77 km</desc>
<time>2010-03-14T11:00:34.72</time>
<name>2117</name>
</trkpt>
<trkpt lat="48.937577" lon="8.682605">
<ele>342.5</ele>
<speed>2.2</speed>
<course>90.0</course>
<desc>Speed 2.2 km/h Distance 2.77 km</desc>
<time>2010-03-14T11:00:35.72</time>
<name>2118</name>
</trkpt>
<trkpt lat="48.937577" lon="8.682607">
<ele>342.5</ele>
<speed>0.4</speed>
<course>90.0</course>
<desc>Speed 0.4 km/h Distance 2.77 km</desc>
<time>2010-03-14T11:00:36.72</time>
<name>2119</name>
</trkpt>
<trkpt lat="48.937577" lon="8.682607">
<ele>342.5</ele>
<speed>0.3</speed>
<course>90.0</course>
<desc>Speed 0.3 km/h Distance 2.77 km</desc>
<time>2010-03-14T11:00:37.72</time>
<name>2120</name>
</trkpt>
<trkpt lat="48.937577" lon="8.682608">
<ele>343.0</ele>
<speed>0.2</speed>
<course>90.0</course>
<desc>Speed 0.2 km/h Distance 2.77 km</desc>
<time>2010-03-14T11:00:38.72</time>
<name>2121</name>
</trkpt>
<trkpt lat="48.937577" lon="8.682608">
<ele>343.0</ele>
<speed>0.3</speed>
<course>90.0</course>
<desc>Speed 0.3 km/h Distance 2.77 km</desc>
<time>2010-03-14T11:00:39.72</time>
<name>2122</name>
</trkpt>
<trkpt lat="48.937577" lon="8.682610">
<ele>343.0</ele>
<speed>0.3</speed>
<course>90.0</course>
<desc>Speed 0.3 km/h Distance 2.77 km</desc>
<time>2010-03-14T11:00:40.72</time>
<name>2123</name>
</trkpt>
<trkpt lat="48.937577" lon="8.682610">
<ele>343.0</ele>
<speed>0.6</speed>
<course>140.6</course>
<desc>Speed 0.6 km/h Distance 2.77 km</desc>
<time>2010-03-14T11:00:41.72</time>
<name>2124</name>
</trkpt>
<trkpt lat="48.937570" lon="8.682618">
<ele>343.0</ele>
<speed>2.8</speed>
<course>133.5</course>
<desc>Speed 2.8 km/h Distance 2.77 km</desc>
<time>2010-03-14T11:00:42.72</time>
<name>2125</name>
</trkpt>
<trkpt lat="48.937562" lon="8.682632">
<ele>343.5</ele>
<speed>4.2</speed>
<course>127.3</course>
<desc>Speed 4.2 km/h Distance 2.77 km</desc>
<time>2010-03-14T11:00:43.72</time>
<name>2126</name>
</trkpt>
<trkpt lat="48.937555" lon="8.682645">
<ele>343.5</ele>
<speed>3.6</speed>
<course>134.1</course>
<desc>Speed 3.6 km/h Distance 2.77 km</desc>
<time>2010-03-14T11:00:44.72</time>
<name>2127</name>
</trkpt>
<trkpt lat="48.937543" lon="8.682663">
<ele>343.5</ele>
<speed>4.8</speed>
<course>121.3</course>
<desc>Speed 4.8 km/h Distance 2.77 km</desc>
<time>2010-03-14T11:00:45.72</time>
<name>2128</name>
</trkpt>
<trkpt lat="48.937533" lon="8.682688">
<ele>343.5</ele>
<speed>4.4</speed>
<course>125.0</course>
<desc>Speed 4.4 km/h Distance 2.78 km</desc>
<time>2010-03-14T11:00:46.72</time>
<name>2129</name>
</trkpt>
<trkpt lat="48.937523" lon="8.682710">
<ele>343.5</ele>
<speed>4.5</speed>
<course>116.9</course>
<desc>Speed 4.5 km/h Distance 2.78 km</desc>
<time>2010-03-14T11:00:47.72</time>
<name>2130</name>
</trkpt>
<trkpt lat="48.937513" lon="8.682740">
<ele>344.0</ele>
<speed>5.3</speed>
<course>115.4</course>
<desc>Speed 5.3 km/h Distance 2.78 km</desc>
<time>2010-03-14T11:00:48.72</time>
<name>2131</name>
</trkpt>
<trkpt lat="48.937505" lon="8.682767">
<ele>344.0</ele>
<speed>5.8</speed>
<course>116.9</course>
<desc>Speed 5.8 km/h Distance 2.78 km</desc>
<time>2010-03-14T11:00:49.72</time>
<name>2132</name>
</trkpt>
<trkpt lat="48.937497" lon="8.682792">
<ele>344.0</ele>
<speed>5.4</speed>
<course>122.4</course>
<desc>Speed 5.4 km/h Distance 2.78 km</desc>
<time>2010-03-14T11:00:50.72</time>
<name>2133</name>
</trkpt>
<trkpt lat="48.937488" lon="8.682812">
<ele>344.0</ele>
<speed>5.1</speed>
<course>121.4</course>
<desc>Speed 5.1 km/h Distance 2.79 km</desc>
<time>2010-03-14T11:00:51.72</time>
<name>2134</name>
</trkpt>
<trkpt lat="48.937482" lon="8.682828">
<ele>344.0</ele>
<speed>4.5</speed>
<course>129.7</course>
<desc>Speed 4.5 km/h Distance 2.79 km</desc>
<time>2010-03-14T11:00:52.72</time>
<name>2135</name>
</trkpt>
<trkpt lat="48.937472" lon="8.682847">
<ele>344.0</ele>
<speed>4.5</speed>
<course>130.9</course>
<desc>Speed 4.5 km/h Distance 2.79 km</desc>
<time>2010-03-14T11:00:53.72</time>
<name>2136</name>
</trkpt>
<trkpt lat="48.937465" lon="8.682858">
<ele>344.0</ele>
<speed>4.1</speed>
<course>124.4</course>
<desc>Speed 4.1 km/h Distance 2.79 km</desc>
<time>2010-03-14T11:00:54.72</time>
<name>2137</name>
</trkpt>
<trkpt lat="48.937450" lon="8.682892">
<ele>345.0</ele>
<speed>4.4</speed>
<course>122.4</course>
<desc>Speed 4.4 km/h Distance 2.79 km</desc>
<time>2010-03-14T11:00:55.72</time>
<name>2138</name>
</trkpt>
<trkpt lat="48.937442" lon="8.682912">
<ele>345.0</ele>
<speed>4.5</speed>
<course>123.7</course>
<desc>Speed 4.5 km/h Distance 2.79 km</desc>
<time>2010-03-14T11:00:56.72</time>
<name>2139</name>
</trkpt>
<trkpt lat="48.937418" lon="8.682965">
<ele>346.5</ele>
<speed>3.6</speed>
<course>121.3</course>
<desc>Speed 3.6 km/h Distance 2.80 km</desc>
<time>2010-03-14T11:00:58.72</time>
<name>2140</name>
</trkpt>
<trkpt lat="48.937412" lon="8.682982">
<ele>346.0</ele>
<speed>4.1</speed>
<course>130.2</course>
<desc>Speed 4.1 km/h Distance 2.80 km</desc>
<time>2010-03-14T11:00:59.72</time>
<name>2141</name>
</trkpt>
<trkpt lat="48.937403" lon="8.682997">
<ele>345.5</ele>
<speed>4.2</speed>
<course>124.1</course>
<desc>Speed 4.2 km/h Distance 2.80 km</desc>
<time>2010-03-14T11:01:00.72</time>
<name>2142</name>
</trkpt>
<trkpt lat="48.937397" lon="8.683012">
<ele>345.5</ele>
<speed>4.5</speed>
<course>119.0</course>
<desc>Speed 4.5 km/h Distance 2.80 km</desc>
<time>2010-03-14T11:01:01.72</time>
<name>2143</name>
</trkpt>
<trkpt lat="48.937390" lon="8.683030">
<ele>346.0</ele>
<speed>4.6</speed>
<course>122.4</course>
<desc>Speed 4.6 km/h Distance 2.81 km</desc>
<time>2010-03-14T11:01:02.72</time>
<name>2144</name>
</trkpt>
<trkpt lat="48.937382" lon="8.683050">
<ele>346.5</ele>
<speed>3.9</speed>
<course>127.3</course>
<desc>Speed 3.9 km/h Distance 2.81 km</desc>
<time>2010-03-14T11:01:03.72</time>
<name>2145</name>
</trkpt>
<trkpt lat="48.937373" lon="8.683067">
<ele>347.5</ele>
<speed>4.7</speed>
<course>114.5</course>
<desc>Speed 4.7 km/h Distance 2.81 km</desc>
<time>2010-03-14T11:01:04.72</time>
<name>2146</name>
</trkpt>
<trkpt lat="48.937368" lon="8.683083">
<ele>347.5</ele>
<speed>4.8</speed>
<course>110.8</course>
<desc>Speed 4.8 km/h Distance 2.81 km</desc>
<time>2010-03-14T11:01:05.72</time>
<name>2147</name>
</trkpt>
<trkpt lat="48.937362" lon="8.683110">
<ele>348.5</ele>
<speed>4.9</speed>
<course>255.8</course>
<desc>Speed 4.9 km/h Distance 2.81 km</desc>
<time>2010-03-14T11:01:06.72</time>
<name>2148</name>
</trkpt>
<trkpt lat="48.937360" lon="8.683100">
<ele>347.0</ele>
<speed>2.6</speed>
<course>119.0</course>
<desc>Speed 2.6 km/h Distance 2.81 km</desc>
<time>2010-03-14T11:01:07.72</time>
<name>2149</name>
</trkpt>
<trkpt lat="48.937353" lon="8.683118">
<ele>347.0</ele>
<speed>4.0</speed>
<course>116.9</course>
<desc>Speed 4.0 km/h Distance 2.81 km</desc>
<time>2010-03-14T11:01:08.72</time>
<name>2150</name>
</trkpt>
<trkpt lat="48.937348" lon="8.683133">
<ele>347.5</ele>
<speed>4.0</speed>
<course>110.9</course>
<desc>Speed 4.0 km/h Distance 2.82 km</desc>
<time>2010-03-14T11:01:09.72</time>
<name>2151</name>
</trkpt>
<trkpt lat="48.937345" lon="8.683147">
<ele>348.5</ele>
<speed>1.7</speed>
<course>107.1</course>
<desc>Speed 1.7 km/h Distance 2.82 km</desc>
<time>2010-03-14T11:01:10.72</time>
<name>2152</name>
</trkpt>
<trkpt lat="48.937343" lon="8.683155">
<ele>349.0</ele>
<speed>1.2</speed>
<course>110.9</course>
<desc>Speed 1.2 km/h Distance 2.82 km</desc>
<time>2010-03-14T11:01:11.72</time>
<name>2153</name>
</trkpt>
<trkpt lat="48.937342" lon="8.683162">
<ele>349.5</ele>
<speed>1.8</speed>
<course>117.0</course>
<desc>Speed 1.8 km/h Distance 2.82 km</desc>
<time>2010-03-14T11:01:12.72</time>
<name>2154</name>
</trkpt>
<trkpt lat="48.937338" lon="8.683172">
<ele>350.0</ele>
<speed>2.3</speed>
<course>135.4</course>
<desc>Speed 2.3 km/h Distance 2.82 km</desc>
<time>2010-03-14T11:01:13.72</time>
<name>2155</name>
</trkpt>
<trkpt lat="48.937328" lon="8.683187">
<ele>349.5</ele>
<speed>3.7</speed>
<course>135.4</course>
<desc>Speed 3.7 km/h Distance 2.82 km</desc>
<time>2010-03-14T11:01:14.72</time>
<name>2156</name>
</trkpt>
<trkpt lat="48.937318" lon="8.683202">
<ele>349.0</ele>
<speed>3.9</speed>
<course>121.3</course>
<desc>Speed 3.9 km/h Distance 2.82 km</desc>
<time>2010-03-14T11:01:15.72</time>
<name>2157</name>
</trkpt>
<trkpt lat="48.937312" lon="8.683218">
<ele>349.0</ele>
<speed>3.3</speed>
<course>106.9</course>
<desc>Speed 3.3 km/h Distance 2.82 km</desc>
<time>2010-03-14T11:01:16.72</time>
<name>2158</name>
</trkpt>
<trkpt lat="48.937308" lon="8.683235">
<ele>349.0</ele>
<speed>3.6</speed>
<course>119.7</course>
<desc>Speed 3.6 km/h Distance 2.82 km</desc>
<time>2010-03-14T11:01:17.72</time>
<name>2159</name>
</trkpt>
<trkpt lat="48.937303" lon="8.683248">
<ele>349.0</ele>
<speed>3.9</speed>
<course>110.9</course>
<desc>Speed 3.9 km/h Distance 2.83 km</desc>
<time>2010-03-14T11:01:18.72</time>
<name>2160</name>
</trkpt>
<trkpt lat="48.937300" lon="8.683262">
<ele>349.0</ele>
<speed>3.3</speed>
<course>123.3</course>
<desc>Speed 3.3 km/h Distance 2.83 km</desc>
<time>2010-03-14T11:01:19.72</time>
<name>2161</name>
</trkpt>
<trkpt lat="48.937295" lon="8.683273">
<ele>348.5</ele>
<speed>3.6</speed>
<course>112.5</course>
<desc>Speed 3.6 km/h Distance 2.83 km</desc>
<time>2010-03-14T11:01:20.72</time>
<name>2162</name>
</trkpt>
<trkpt lat="48.937290" lon="8.683292">
<ele>349.0</ele>
<speed>4.6</speed>
<course>114.5</course>
<desc>Speed 4.6 km/h Distance 2.83 km</desc>
<time>2010-03-14T11:01:21.72</time>
<name>2163</name>
</trkpt>
<trkpt lat="48.937285" lon="8.683308">
<ele>349.5</ele>
<speed>4.2</speed>
<course>124.1</course>
<desc>Speed 4.2 km/h Distance 2.83 km</desc>
<time>2010-03-14T11:01:22.72</time>
<name>2164</name>
</trkpt>
<trkpt lat="48.937278" lon="8.683323">
<ele>349.5</ele>
<speed>3.9</speed>
<course>114.6</course>
<desc>Speed 3.9 km/h Distance 2.83 km</desc>
<time>2010-03-14T11:01:23.72</time>
<name>2165</name>
</trkpt>
<trkpt lat="48.937273" lon="8.683340">
<ele>349.5</ele>
<speed>4.1</speed>
<course>121.3</course>
<desc>Speed 4.1 km/h Distance 2.83 km</desc>
<time>2010-03-14T11:01:24.72</time>
<name>2166</name>
</trkpt>
<trkpt lat="48.937267" lon="8.683357">
<ele>350.0</ele>
<speed>4.5</speed>
<course>121.3</course>
<desc>Speed 4.5 km/h Distance 2.83 km</desc>
<time>2010-03-14T11:01:25.72</time>
<name>2167</name>
</trkpt>
<trkpt lat="48.937260" lon="8.683373">
<ele>350.0</ele>
<speed>4.6</speed>
<course>111.8</course>
<desc>Speed 4.6 km/h Distance 2.84 km</desc>
<time>2010-03-14T11:01:26.72</time>
<name>2168</name>
</trkpt>
<trkpt lat="48.937252" lon="8.683405">
<ele>350.5</ele>
<speed>8.2</speed>
<course>123.3</course>
<desc>Speed 8.2 km/h Distance 2.84 km</desc>
<time>2010-03-14T11:01:27.72</time>
<name>2169</name>
</trkpt>
<trkpt lat="48.937247" lon="8.683417">
<ele>350.0</ele>
<speed>3.6</speed>
<course>127.0</course>
<desc>Speed 3.6 km/h Distance 2.84 km</desc>
<time>2010-03-14T11:01:28.72</time>
<name>2170</name>
</trkpt>
<trkpt lat="48.937243" lon="8.683423">
<ele>349.5</ele>
<speed>1.7</speed>
<course>138.1</course>
<desc>Speed 1.7 km/h Distance 2.84 km</desc>
<time>2010-03-14T11:01:29.72</time>
<name>2171</name>
</trkpt>
<trkpt lat="48.937238" lon="8.683430">
<ele>348.5</ele>
<speed>1.7</speed>
<course>106.9</course>
<desc>Speed 1.7 km/h Distance 2.84 km</desc>
<time>2010-03-14T11:01:30.72</time>
<name>2172</name>
</trkpt>
<trkpt lat="48.937237" lon="8.683438">
<ele>348.0</ele>
<speed>1.9</speed>
<course>114.1</course>
<desc>Speed 1.9 km/h Distance 2.84 km</desc>
<time>2010-03-14T11:01:31.72</time>
<name>2173</name>
</trkpt>
<trkpt lat="48.937228" lon="8.683467">
<ele>349.0</ele>
<speed>7.1</speed>
<course>119.0</course>
<desc>Speed 7.1 km/h Distance 2.84 km</desc>
<time>2010-03-14T11:01:32.72</time>
<name>2174</name>
</trkpt>
<trkpt lat="48.937222" lon="8.683485">
<ele>349.0</ele>
<speed>4.5</speed>
<course>124.1</course>
<desc>Speed 4.5 km/h Distance 2.85 km</desc>
<time>2010-03-14T11:01:33.72</time>
<name>2175</name>
</trkpt>
<trkpt lat="48.937215" lon="8.683500">
<ele>349.0</ele>
<speed>4.3</speed>
<course>124.1</course>
<desc>Speed 4.3 km/h Distance 2.85 km</desc>
<time>2010-03-14T11:01:34.72</time>
<name>2176</name>
</trkpt>
<trkpt lat="48.937208" lon="8.683515">
<ele>349.5</ele>
<speed>4.5</speed>
<course>131.6</course>
<desc>Speed 4.5 km/h Distance 2.85 km</desc>
<time>2010-03-14T11:01:35.72</time>
<name>2177</name>
</trkpt>
<trkpt lat="48.937197" lon="8.683535">
<ele>349.0</ele>
<speed>4.6</speed>
<course>124.1</course>
<desc>Speed 4.6 km/h Distance 2.85 km</desc>
<time>2010-03-14T11:01:36.72</time>
<name>2178</name>
</trkpt>
<trkpt lat="48.937190" lon="8.683550">
<ele>349.5</ele>
<speed>4.2</speed>
<course>127.3</course>
<desc>Speed 4.2 km/h Distance 2.85 km</desc>
<time>2010-03-14T11:01:37.72</time>
<name>2179</name>
</trkpt>
<trkpt lat="48.937182" lon="8.683567">
<ele>349.5</ele>
<speed>4.4</speed>
<course>137.4</course>
<desc>Speed 4.4 km/h Distance 2.85 km</desc>
<time>2010-03-14T11:01:38.72</time>
<name>2180</name>
</trkpt>
<trkpt lat="48.937173" lon="8.683578">
<ele>349.0</ele>
<speed>3.7</speed>
<course>150.2</course>
<desc>Speed 3.7 km/h Distance 2.85 km</desc>
<time>2010-03-14T11:01:39.72</time>
<name>2181</name>
</trkpt>
<trkpt lat="48.937160" lon="8.683590">
<ele>349.0</ele>
<speed>4.6</speed>
<course>171.0</course>
<desc>Speed 4.6 km/h Distance 2.86 km</desc>
<time>2010-03-14T11:01:40.72</time>
<name>2182</name>
</trkpt>
<trkpt lat="48.937147" lon="8.683593">
<ele>349.0</ele>
<speed>5.0</speed>
<course>183.8</course>
<desc>Speed 5.0 km/h Distance 2.86 km</desc>
<time>2010-03-14T11:01:41.72</time>
<name>2183</name>
</trkpt>
<trkpt lat="48.937132" lon="8.683592">
<ele>348.5</ele>
<speed>5.5</speed>
<course>194.0</course>
<desc>Speed 5.5 km/h Distance 2.86 km</desc>
<time>2010-03-14T11:01:42.72</time>
<name>2184</name>
</trkpt>
<trkpt lat="48.937118" lon="8.683587">
<ele>349.0</ele>
<speed>5.4</speed>
<course>183.9</course>
<desc>Speed 5.4 km/h Distance 2.86 km</desc>
<time>2010-03-14T11:01:43.72</time>
<name>2185</name>
</trkpt>
<trkpt lat="48.937105" lon="8.683585">
<ele>349.0</ele>
<speed>5.6</speed>
<course>184.1</course>
<desc>Speed 5.6 km/h Distance 2.86 km</desc>
<time>2010-03-14T11:01:44.72</time>
<name>2186</name>
</trkpt>
<trkpt lat="48.937088" lon="8.683583">
<ele>349.5</ele>
<speed>5.9</speed>
<course>188.8</course>
<desc>Speed 5.9 km/h Distance 2.86 km</desc>
<time>2010-03-14T11:01:45.72</time>
<name>2187</name>
</trkpt>
<trkpt lat="48.937073" lon="8.683580">
<ele>349.5</ele>
<speed>5.7</speed>
<course>185.0</course>
<desc>Speed 5.7 km/h Distance 2.87 km</desc>
<time>2010-03-14T11:01:46.72</time>
<name>2188</name>
</trkpt>
<trkpt lat="48.937058" lon="8.683578">
<ele>350.0</ele>
<speed>5.7</speed>
<course>180.0</course>
<desc>Speed 5.7 km/h Distance 2.87 km</desc>
<time>2010-03-14T11:01:47.72</time>
<name>2189</name>
</trkpt>
<trkpt lat="48.937043" lon="8.683578">
<ele>350.0</ele>
<speed>5.6</speed>
<course>169.6</course>
<desc>Speed 5.6 km/h Distance 2.87 km</desc>
<time>2010-03-14T11:01:48.72</time>
<name>2190</name>
</trkpt>
<trkpt lat="48.937032" lon="8.683582">
<ele>350.0</ele>
<speed>4.9</speed>
<course>157.7</course>
<desc>Speed 4.9 km/h Distance 2.87 km</desc>
<time>2010-03-14T11:01:49.72</time>
<name>2191</name>
</trkpt>
<trkpt lat="48.937018" lon="8.683590">
<ele>350.5</ele>
<speed>4.6</speed>
<course>141.4</course>
<desc>Speed 4.6 km/h Distance 2.87 km</desc>
<time>2010-03-14T11:01:50.72</time>
<name>2192</name>
</trkpt>
<trkpt lat="48.937010" lon="8.683600">
<ele>351.0</ele>
<speed>3.3</speed>
<course>146.3</course>
<desc>Speed 3.3 km/h Distance 2.87 km</desc>
<time>2010-03-14T11:01:51.72</time>
<name>2193</name>
</trkpt>
<trkpt lat="48.937003" lon="8.683607">
<ele>351.0</ele>
<speed>3.1</speed>
<course>156.2</course>
<desc>Speed 3.1 km/h Distance 2.87 km</desc>
<time>2010-03-14T11:01:52.72</time>
<name>2194</name>
</trkpt>
<trkpt lat="48.936993" lon="8.683613">
<ele>351.0</ele>
<speed>3.4</speed>
<course>146.8</course>
<desc>Speed 3.4 km/h Distance 2.87 km</desc>
<time>2010-03-14T11:01:53.72</time>
<name>2195</name>
</trkpt>
<trkpt lat="48.936985" lon="8.683622">
<ele>351.5</ele>
<speed>3.7</speed>
<course>143.1</course>
<desc>Speed 3.7 km/h Distance 2.88 km</desc>
<time>2010-03-14T11:01:54.72</time>
<name>2196</name>
</trkpt>
<trkpt lat="48.936973" lon="8.683635">
<ele>351.5</ele>
<speed>5.1</speed>
<course>127.3</course>
<desc>Speed 5.1 km/h Distance 2.88 km</desc>
<time>2010-03-14T11:01:55.72</time>
<name>2197</name>
</trkpt>
<trkpt lat="48.936963" lon="8.683655">
<ele>351.5</ele>
<speed>4.6</speed>
<course>119.7</course>
<desc>Speed 4.6 km/h Distance 2.88 km</desc>
<time>2010-03-14T11:01:56.72</time>
<name>2198</name>
</trkpt>
<trkpt lat="48.936958" lon="8.683668">
<ele>351.5</ele>
<speed>3.9</speed>
<course>113.5</course>
<desc>Speed 3.9 km/h Distance 2.88 km</desc>
<time>2010-03-14T11:01:57.72</time>
<name>2199</name>
</trkpt>
<trkpt lat="48.936952" lon="8.683692">
<ele>352.0</ele>
<speed>4.8</speed>
<course>113.5</course>
<desc>Speed 4.8 km/h Distance 2.88 km</desc>
<time>2010-03-14T11:01:58.72</time>
<name>2200</name>
</trkpt>
<trkpt lat="48.936945" lon="8.683715">
<ele>352.0</ele>
<speed>4.5</speed>
<course>114.6</course>
<desc>Speed 4.5 km/h Distance 2.88 km</desc>
<time>2010-03-14T11:01:59.72</time>
<name>2201</name>
</trkpt>
<trkpt lat="48.936940" lon="8.683732">
<ele>352.0</ele>
<speed>4.1</speed>
<course>124.0</course>
<desc>Speed 4.1 km/h Distance 2.89 km</desc>
<time>2010-03-14T11:02:00.72</time>
<name>2202</name>
</trkpt>
<trkpt lat="48.936933" lon="8.683747">
<ele>352.0</ele>
<speed>4.1</speed>
<course>115.7</course>
<desc>Speed 4.1 km/h Distance 2.89 km</desc>
<time>2010-03-14T11:02:01.72</time>
<name>2203</name>
</trkpt>
<trkpt lat="48.936923" lon="8.683778">
<ele>353.5</ele>
<speed>4.6</speed>
<course>112.5</course>
<desc>Speed 4.6 km/h Distance 2.89 km</desc>
<time>2010-03-14T11:02:02.72</time>
<name>2204</name>
</trkpt>
<trkpt lat="48.936913" lon="8.683815">
<ele>355.0</ele>
<speed>5.0</speed>
<course>112.1</course>
<desc>Speed 5.0 km/h Distance 2.89 km</desc>
<time>2010-03-14T11:02:03.72</time>
<name>2205</name>
</trkpt>
<trkpt lat="48.936907" lon="8.683840">
<ele>355.5</ele>
<speed>4.8</speed>
<course>112.6</course>
<desc>Speed 4.8 km/h Distance 2.89 km</desc>
<time>2010-03-14T11:02:04.72</time>
<name>2206</name>
</trkpt>
<trkpt lat="48.936902" lon="8.683858">
<ele>355.5</ele>
<speed>4.6</speed>
<course>115.1</course>
<desc>Speed 4.6 km/h Distance 2.90 km</desc>
<time>2010-03-14T11:02:05.72</time>
<name>2207</name>
</trkpt>
<trkpt lat="48.936895" lon="8.683880">
<ele>355.5</ele>
<speed>4.9</speed>
<course>116.9</course>
<desc>Speed 4.9 km/h Distance 2.90 km</desc>
<time>2010-03-14T11:02:06.72</time>
<name>2208</name>
</trkpt>
<trkpt lat="48.936888" lon="8.683900">
<ele>356.0</ele>
<speed>4.9</speed>
<course>110.8</course>
<desc>Speed 4.9 km/h Distance 2.90 km</desc>
<time>2010-03-14T11:02:07.72</time>
<name>2209</name>
</trkpt>
<trkpt lat="48.936883" lon="8.683920">
<ele>356.0</ele>
<speed>5.0</speed>
<course>109.3</course>
<desc>Speed 5.0 km/h Distance 2.90 km</desc>
<time>2010-03-14T11:02:08.72</time>
<name>2210</name>
</trkpt>
<trkpt lat="48.936878" lon="8.683942">
<ele>356.5</ele>
<speed>4.8</speed>
<course>110.1</course>
<desc>Speed 4.8 km/h Distance 2.90 km</desc>
<time>2010-03-14T11:02:09.72</time>
<name>2211</name>
</trkpt>
<trkpt lat="48.936868" lon="8.683983">
<ele>357.5</ele>
<speed>5.3</speed>
<course>109.4</course>
<desc>Speed 5.3 km/h Distance 2.91 km</desc>
<time>2010-03-14T11:02:10.72</time>
<name>2212</name>
</trkpt>
<trkpt lat="48.936863" lon="8.684005">
<ele>358.0</ele>
<speed>5.4</speed>
<course>110.8</course>
<desc>Speed 5.4 km/h Distance 2.91 km</desc>
<time>2010-03-14T11:02:11.72</time>
<name>2213</name>
</trkpt>
<trkpt lat="48.936853" lon="8.684045">
<ele>359.0</ele>
<speed>5.3</speed>
<course>110.9</course>
<desc>Speed 5.3 km/h Distance 2.91 km</desc>
<time>2010-03-14T11:02:12.72</time>
<name>2214</name>
</trkpt>
<trkpt lat="48.936845" lon="8.684078">
<ele>360.0</ele>
<speed>4.8</speed>
<course>104.2</course>
<desc>Speed 4.8 km/h Distance 2.91 km</desc>
<time>2010-03-14T11:02:13.72</time>
<name>2215</name>
</trkpt>
<trkpt lat="48.936842" lon="8.684098">
<ele>360.0</ele>
<speed>4.7</speed>
<course>105.9</course>
<desc>Speed 4.7 km/h Distance 2.91 km</desc>
<time>2010-03-14T11:02:14.72</time>
<name>2216</name>
</trkpt>
<trkpt lat="48.936837" lon="8.684125">
<ele>360.5</ele>
<speed>4.7</speed>
<course>104.2</course>
<desc>Speed 4.7 km/h Distance 2.92 km</desc>
<time>2010-03-14T11:02:15.72</time>
<name>2217</name>
</trkpt>
<trkpt lat="48.936833" lon="8.684145">
<ele>361.0</ele>
<speed>4.7</speed>
<course>105.9</course>
<desc>Speed 4.7 km/h Distance 2.92 km</desc>
<time>2010-03-14T11:02:16.72</time>
<name>2218</name>
</trkpt>
<trkpt lat="48.936828" lon="8.684172">
<ele>361.5</ele>
<speed>4.7</speed>
<course>97.9</course>
<desc>Speed 4.7 km/h Distance 2.92 km</desc>
<time>2010-03-14T11:02:17.72</time>
<name>2219</name>
</trkpt>
<trkpt lat="48.936827" lon="8.684190">
<ele>361.5</ele>
<speed>4.7</speed>
<course>106.9</course>
<desc>Speed 4.7 km/h Distance 2.92 km</desc>
<time>2010-03-14T11:02:18.72</time>
<name>2220</name>
</trkpt>
<trkpt lat="48.936822" lon="8.684215">
<ele>362.0</ele>
<speed>4.6</speed>
<course>105.5</course>
<desc>Speed 4.6 km/h Distance 2.92 km</desc>
<time>2010-03-14T11:02:19.72</time>
<name>2221</name>
</trkpt>
<trkpt lat="48.936818" lon="8.684233">
<ele>362.0</ele>
<speed>4.5</speed>
<course>118.5</course>
<desc>Speed 4.5 km/h Distance 2.92 km</desc>
<time>2010-03-14T11:02:20.72</time>
<name>2222</name>
</trkpt>
<trkpt lat="48.936810" lon="8.684257">
<ele>363.0</ele>
<speed>4.5</speed>
<course>108.1</course>
<desc>Speed 4.5 km/h Distance 2.93 km</desc>
<time>2010-03-14T11:02:21.72</time>
<name>2223</name>
</trkpt>
<trkpt lat="48.936805" lon="8.684280">
<ele>363.0</ele>
<speed>4.8</speed>
<course>97.9</course>
<desc>Speed 4.8 km/h Distance 2.93 km</desc>
<time>2010-03-14T11:02:22.72</time>
<name>2224</name>
</trkpt>
<trkpt lat="48.936803" lon="8.684298">
<ele>363.0</ele>
<speed>4.4</speed>
<course>110.8</course>
<desc>Speed 4.4 km/h Distance 2.93 km</desc>
<time>2010-03-14T11:02:23.72</time>
<name>2225</name>
</trkpt>
<trkpt lat="48.936798" lon="8.684318">
<ele>363.5</ele>
<speed>4.8</speed>
<course>103.2</course>
<desc>Speed 4.8 km/h Distance 2.93 km</desc>
<time>2010-03-14T11:02:24.72</time>
<name>2226</name>
</trkpt>
<trkpt lat="48.936795" lon="8.684340">
<ele>363.5</ele>
<speed>4.5</speed>
<course>99.6</course>
<desc>Speed 4.5 km/h Distance 2.93 km</desc>
<time>2010-03-14T11:02:25.72</time>
<name>2227</name>
</trkpt>
<trkpt lat="48.936793" lon="8.684355">
<ele>363.5</ele>
<speed>3.7</speed>
<course>99.6</course>
<desc>Speed 3.7 km/h Distance 2.93 km</desc>
<time>2010-03-14T11:02:26.72</time>
<name>2228</name>
</trkpt>
<trkpt lat="48.936792" lon="8.684370">
<ele>363.5</ele>
<speed>3.7</speed>
<course>127.0</course>
<desc>Speed 3.7 km/h Distance 2.94 km</desc>
<time>2010-03-14T11:02:27.72</time>
<name>2229</name>
</trkpt>
<trkpt lat="48.936788" lon="8.684377">
<ele>363.5</ele>
<speed>2.0</speed>
<course>127.0</course>
<desc>Speed 2.0 km/h Distance 2.94 km</desc>
<time>2010-03-14T11:02:28.72</time>
<name>2230</name>
</trkpt>
<trkpt lat="48.936788" lon="8.684377">
<ele>363.5</ele>
<speed>0.2</speed>
<course>127.0</course>
<desc>Speed 0.2 km/h Distance 2.94 km</desc>
<time>2010-03-14T11:02:29.72</time>
<name>2231</name>
</trkpt>
<trkpt lat="48.936788" lon="8.684378">
<ele>363.5</ele>
<speed>0.5</speed>
<course>127.0</course>
<desc>Speed 0.5 km/h Distance 2.94 km</desc>
<time>2010-03-14T11:02:30.72</time>
<name>2232</name>
</trkpt>
<trkpt lat="48.936788" lon="8.684378">
<ele>363.5</ele>
<speed>0.2</speed>
<course>127.0</course>
<desc>Speed 0.2 km/h Distance 2.94 km</desc>
<time>2010-03-14T11:02:31.72</time>
<name>2233</name>
</trkpt>
<trkpt lat="48.936788" lon="8.684378">
<ele>363.5</ele>
<speed>0.1</speed>
<course>127.0</course>
<desc>Speed 0.1 km/h Distance 2.94 km</desc>
<time>2010-03-14T11:02:32.72</time>
<name>2234</name>
</trkpt>
<trkpt lat="48.936788" lon="8.684378">
<ele>363.5</ele>
<speed>0.1</speed>
<course>127.0</course>
<desc>Speed 0.1 km/h Distance 2.94 km</desc>
<time>2010-03-14T11:02:33.72</time>
<name>2235</name>
</trkpt>
<trkpt lat="48.936788" lon="8.684378">
<ele>363.5</ele>
<speed>0.2</speed>
<course>90.0</course>
<desc>Speed 0.2 km/h Distance 2.94 km</desc>
<time>2010-03-14T11:02:34.72</time>
<name>2236</name>
</trkpt>
<trkpt lat="48.936788" lon="8.684383">
<ele>364.0</ele>
<speed>0.9</speed>
<course>90.0</course>
<desc>Speed 0.9 km/h Distance 2.94 km</desc>
<time>2010-03-14T11:02:35.72</time>
<name>2237</name>
</trkpt>
<trkpt lat="48.936788" lon="8.684398">
<ele>364.0</ele>
<speed>3.6</speed>
<course>98.7</course>
<desc>Speed 3.6 km/h Distance 2.94 km</desc>
<time>2010-03-14T11:02:36.72</time>
<name>2238</name>
</trkpt>
<trkpt lat="48.936787" lon="8.684415">
<ele>364.0</ele>
<speed>4.4</speed>
<course>97.9</course>
<desc>Speed 4.4 km/h Distance 2.94 km</desc>
<time>2010-03-14T11:02:37.72</time>
<name>2239</name>
</trkpt>
<trkpt lat="48.936785" lon="8.684433">
<ele>364.0</ele>
<speed>4.6</speed>
<course>96.2</course>
<desc>Speed 4.6 km/h Distance 2.94 km</desc>
<time>2010-03-14T11:02:38.72</time>
<name>2240</name>
</trkpt>
<trkpt lat="48.936783" lon="8.684457">
<ele>364.5</ele>
<speed>5.2</speed>
<course>96.7</course>
<desc>Speed 5.2 km/h Distance 2.94 km</desc>
<time>2010-03-14T11:02:39.72</time>
<name>2241</name>
</trkpt>
<trkpt lat="48.936782" lon="8.684478">
<ele>364.5</ele>
<speed>5.1</speed>
<course>103.2</course>
<desc>Speed 5.1 km/h Distance 2.94 km</desc>
<time>2010-03-14T11:02:40.72</time>
<name>2242</name>
</trkpt>
<trkpt lat="48.936778" lon="8.684500">
<ele>364.5</ele>
<speed>5.3</speed>
<course>103.2</course>
<desc>Speed 5.3 km/h Distance 2.95 km</desc>
<time>2010-03-14T11:02:41.72</time>
<name>2243</name>
</trkpt>
<trkpt lat="48.936775" lon="8.684522">
<ele>364.5</ele>
<speed>4.9</speed>
<course>110.8</course>
<desc>Speed 4.9 km/h Distance 2.95 km</desc>
<time>2010-03-14T11:02:42.72</time>
<name>2244</name>
</trkpt>
<trkpt lat="48.936770" lon="8.684542">
<ele>364.5</ele>
<speed>5.3</speed>
<course>104.2</course>
<desc>Speed 5.3 km/h Distance 2.95 km</desc>
<time>2010-03-14T11:02:43.72</time>
<name>2245</name>
</trkpt>
<trkpt lat="48.936767" lon="8.684562">
<ele>365.0</ele>
<speed>5.1</speed>
<course>109.4</course>
<desc>Speed 5.1 km/h Distance 2.95 km</desc>
<time>2010-03-14T11:02:44.72</time>
<name>2246</name>
</trkpt>
<trkpt lat="48.936762" lon="8.684583">
<ele>365.0</ele>
<speed>5.2</speed>
<course>115.1</course>
<desc>Speed 5.2 km/h Distance 2.95 km</desc>
<time>2010-03-14T11:02:45.72</time>
<name>2247</name>
</trkpt>
<trkpt lat="48.936755" lon="8.684605">
<ele>365.0</ele>
<speed>5.5</speed>
<course>110.9</course>
<desc>Speed 5.5 km/h Distance 2.95 km</desc>
<time>2010-03-14T11:02:46.72</time>
<name>2248</name>
</trkpt>
<trkpt lat="48.936750" lon="8.684625">
<ele>365.0</ele>
<speed>5.7</speed>
<course>115.1</course>
<desc>Speed 5.7 km/h Distance 2.95 km</desc>
<time>2010-03-14T11:02:47.72</time>
<name>2249</name>
</trkpt>
<trkpt lat="48.936743" lon="8.684647">
<ele>365.5</ele>
<speed>5.2</speed>
<course>109.4</course>
<desc>Speed 5.2 km/h Distance 2.96 km</desc>
<time>2010-03-14T11:02:48.72</time>
<name>2250</name>
</trkpt>
<trkpt lat="48.936738" lon="8.684668">
<ele>365.5</ele>
<speed>5.1</speed>
<course>108.1</course>
<desc>Speed 5.1 km/h Distance 2.96 km</desc>
<time>2010-03-14T11:02:49.72</time>
<name>2251</name>
</trkpt>
<trkpt lat="48.936733" lon="8.684692">
<ele>366.0</ele>
<speed>5.7</speed>
<course>115.1</course>
<desc>Speed 5.7 km/h Distance 2.96 km</desc>
<time>2010-03-14T11:02:50.72</time>
<name>2252</name>
</trkpt>
<trkpt lat="48.936727" lon="8.684713">
<ele>366.0</ele>
<speed>5.5</speed>
<course>115.1</course>
<desc>Speed 5.5 km/h Distance 2.96 km</desc>
<time>2010-03-14T11:02:51.72</time>
<name>2253</name>
</trkpt>
<trkpt lat="48.936720" lon="8.684735">
<ele>366.0</ele>
<speed>5.5</speed>
<course>116.9</course>
<desc>Speed 5.5 km/h Distance 2.96 km</desc>
<time>2010-03-14T11:02:52.72</time>
<name>2254</name>
</trkpt>
<trkpt lat="48.936713" lon="8.684755">
<ele>366.0</ele>
<speed>5.5</speed>
<course>110.8</course>
<desc>Speed 5.5 km/h Distance 2.97 km</desc>
<time>2010-03-14T11:02:53.72</time>
<name>2255</name>
</trkpt>
<trkpt lat="48.936708" lon="8.684775">
<ele>366.0</ele>
<speed>5.2</speed>
<course>124.6</course>
<desc>Speed 5.2 km/h Distance 2.97 km</desc>
<time>2010-03-14T11:02:54.72</time>
<name>2256</name>
</trkpt>
<trkpt lat="48.936700" lon="8.684793">
<ele>366.5</ele>
<speed>5.4</speed>
<course>98.6</course>
<desc>Speed 5.4 km/h Distance 2.97 km</desc>
<time>2010-03-14T11:02:55.72</time>
<name>2257</name>
</trkpt>
<trkpt lat="48.936698" lon="8.684810">
<ele>366.5</ele>
<speed>4.1</speed>
<course>114.5</course>
<desc>Speed 4.1 km/h Distance 2.97 km</desc>
<time>2010-03-14T11:02:56.72</time>
<name>2258</name>
</trkpt>
<trkpt lat="48.936693" lon="8.684827">
<ele>366.5</ele>
<speed>4.3</speed>
<course>116.9</course>
<desc>Speed 4.3 km/h Distance 2.97 km</desc>
<time>2010-03-14T11:02:57.72</time>
<name>2259</name>
</trkpt>
<trkpt lat="48.936688" lon="8.684842">
<ele>366.5</ele>
<speed>4.1</speed>
<course>119.7</course>
<desc>Speed 4.1 km/h Distance 2.97 km</desc>
<time>2010-03-14T11:02:58.72</time>
<name>2260</name>
</trkpt>
<trkpt lat="48.936683" lon="8.684855">
<ele>366.5</ele>
<speed>3.9</speed>
<course>121.3</course>
<desc>Speed 3.9 km/h Distance 2.97 km</desc>
<time>2010-03-14T11:02:59.72</time>
<name>2261</name>
</trkpt>
<trkpt lat="48.936677" lon="8.684872">
<ele>367.0</ele>
<speed>4.5</speed>
<course>124.0</course>
<desc>Speed 4.5 km/h Distance 2.97 km</desc>
<time>2010-03-14T11:03:00.72</time>
<name>2262</name>
</trkpt>
<trkpt lat="48.936670" lon="8.684887">
<ele>367.0</ele>
<speed>4.2</speed>
<course>137.4</course>
<desc>Speed 4.2 km/h Distance 2.98 km</desc>
<time>2010-03-14T11:03:01.72</time>
<name>2263</name>
</trkpt>
<trkpt lat="48.936662" lon="8.684898">
<ele>367.0</ele>
<speed>4.2</speed>
<course>137.4</course>
<desc>Speed 4.2 km/h Distance 2.98 km</desc>
<time>2010-03-14T11:03:02.72</time>
<name>2264</name>
</trkpt>
<trkpt lat="48.936653" lon="8.684910">
<ele>367.0</ele>
<speed>4.6</speed>
<course>133.5</course>
<desc>Speed 4.6 km/h Distance 2.98 km</desc>
<time>2010-03-14T11:03:03.72</time>
<name>2265</name>
</trkpt>
<trkpt lat="48.936645" lon="8.684923">
<ele>367.0</ele>
<speed>5.0</speed>
<course>130.3</course>
<desc>Speed 5.0 km/h Distance 2.98 km</desc>
<time>2010-03-14T11:03:04.72</time>
<name>2266</name>
</trkpt>
<trkpt lat="48.936637" lon="8.684938">
<ele>367.0</ele>
<speed>4.9</speed>
<course>124.1</course>
<desc>Speed 4.9 km/h Distance 2.98 km</desc>
<time>2010-03-14T11:03:05.72</time>
<name>2267</name>
</trkpt>
<trkpt lat="48.936630" lon="8.684953">
<ele>367.5</ele>
<speed>4.6</speed>
<course>124.1</course>
<desc>Speed 4.6 km/h Distance 2.98 km</desc>
<time>2010-03-14T11:03:06.72</time>
<name>2268</name>
</trkpt>
<trkpt lat="48.936623" lon="8.684968">
<ele>367.5</ele>
<speed>4.2</speed>
<course>127.3</course>
<desc>Speed 4.2 km/h Distance 2.98 km</desc>
<time>2010-03-14T11:03:07.72</time>
<name>2269</name>
</trkpt>
<trkpt lat="48.936617" lon="8.684982">
<ele>367.5</ele>
<speed>4.5</speed>
<course>135.5</course>
<desc>Speed 4.5 km/h Distance 2.99 km</desc>
<time>2010-03-14T11:03:08.72</time>
<name>2270</name>
</trkpt>
<trkpt lat="48.936607" lon="8.684997">
<ele>367.5</ele>
<speed>4.9</speed>
<course>127.3</course>
<desc>Speed 4.9 km/h Distance 2.99 km</desc>
<time>2010-03-14T11:03:09.72</time>
<name>2271</name>
</trkpt>
<trkpt lat="48.936598" lon="8.685013">
<ele>368.0</ele>
<speed>5.0</speed>
<course>130.3</course>
<desc>Speed 5.0 km/h Distance 2.99 km</desc>
<time>2010-03-14T11:03:10.72</time>
<name>2272</name>
</trkpt>
<trkpt lat="48.936590" lon="8.685028">
<ele>368.0</ele>
<speed>5.0</speed>
<course>130.3</course>
<desc>Speed 5.0 km/h Distance 2.99 km</desc>
<time>2010-03-14T11:03:11.72</time>
<name>2273</name>
</trkpt>
<trkpt lat="48.936582" lon="8.685043">
<ele>368.0</ele>
<speed>5.0</speed>
<course>138.8</course>
<desc>Speed 5.0 km/h Distance 2.99 km</desc>
<time>2010-03-14T11:03:12.72</time>
<name>2274</name>
</trkpt>
<trkpt lat="48.936572" lon="8.685057">
<ele>368.5</ele>
<speed>4.7</speed>
<course>127.3</course>
<desc>Speed 4.7 km/h Distance 2.99 km</desc>
<time>2010-03-14T11:03:13.72</time>
<name>2275</name>
</trkpt>
<trkpt lat="48.936565" lon="8.685070">
<ele>368.5</ele>
<speed>4.4</speed>
<course>142.5</course>
<desc>Speed 4.4 km/h Distance 2.99 km</desc>
<time>2010-03-14T11:03:14.72</time>
<name>2276</name>
</trkpt>
<trkpt lat="48.936555" lon="8.685082">
<ele>368.5</ele>
<speed>4.6</speed>
<course>137.4</course>
<desc>Speed 4.6 km/h Distance 3.00 km</desc>
<time>2010-03-14T11:03:15.72</time>
<name>2277</name>
</trkpt>
<trkpt lat="48.936547" lon="8.685093">
<ele>368.5</ele>
<speed>4.6</speed>
<course>130.2</course>
<desc>Speed 4.6 km/h Distance 3.00 km</desc>
<time>2010-03-14T11:03:16.72</time>
<name>2278</name>
</trkpt>
<trkpt lat="48.936538" lon="8.685108">
<ele>369.0</ele>
<speed>4.9</speed>
<course>130.2</course>
<desc>Speed 4.9 km/h Distance 3.00 km</desc>
<time>2010-03-14T11:03:17.72</time>
<name>2279</name>
</trkpt>
<trkpt lat="48.936530" lon="8.685123">
<ele>369.0</ele>
<speed>5.0</speed>
<course>138.8</course>
<desc>Speed 5.0 km/h Distance 3.00 km</desc>
<time>2010-03-14T11:03:18.72</time>
<name>2280</name>
</trkpt>
<trkpt lat="48.936520" lon="8.685137">
<ele>369.0</ele>
<speed>4.9</speed>
<course>130.2</course>
<desc>Speed 4.9 km/h Distance 3.00 km</desc>
<time>2010-03-14T11:03:19.72</time>
<name>2281</name>
</trkpt>
<trkpt lat="48.936512" lon="8.685152">
<ele>369.0</ele>
<speed>4.8</speed>
<course>133.6</course>
<desc>Speed 4.8 km/h Distance 3.00 km</desc>
<time>2010-03-14T11:03:20.72</time>
<name>2282</name>
</trkpt>
<trkpt lat="48.936503" lon="8.685165">
<ele>369.0</ele>
<speed>4.6</speed>
<course>141.9</course>
<desc>Speed 4.6 km/h Distance 3.00 km</desc>
<time>2010-03-14T11:03:21.72</time>
<name>2283</name>
</trkpt>
<trkpt lat="48.936495" lon="8.685175">
<ele>369.0</ele>
<speed>4.1</speed>
<course>137.4</course>
<desc>Speed 4.1 km/h Distance 3.00 km</desc>
<time>2010-03-14T11:03:22.72</time>
<name>2284</name>
</trkpt>
<trkpt lat="48.936487" lon="8.685187">
<ele>369.5</ele>
<speed>4.4</speed>
<course>146.7</course>
<desc>Speed 4.4 km/h Distance 3.01 km</desc>
<time>2010-03-14T11:03:23.72</time>
<name>2285</name>
</trkpt>
<trkpt lat="48.936475" lon="8.685198">
<ele>369.5</ele>
<speed>5.0</speed>
<course>138.8</course>
<desc>Speed 5.0 km/h Distance 3.01 km</desc>
<time>2010-03-14T11:03:24.72</time>
<name>2286</name>
</trkpt>
<trkpt lat="48.936465" lon="8.685212">
<ele>369.5</ele>
<speed>5.0</speed>
<course>130.3</course>
<desc>Speed 5.0 km/h Distance 3.01 km</desc>
<time>2010-03-14T11:03:25.72</time>
<name>2287</name>
</trkpt>
<trkpt lat="48.936457" lon="8.685227">
<ele>370.0</ele>
<speed>4.7</speed>
<course>127.3</course>
<desc>Speed 4.7 km/h Distance 3.01 km</desc>
<time>2010-03-14T11:03:26.72</time>
<name>2288</name>
</trkpt>
<trkpt lat="48.936448" lon="8.685243">
<ele>370.0</ele>
<speed>4.8</speed>
<course>121.3</course>
<desc>Speed 4.8 km/h Distance 3.01 km</desc>
<time>2010-03-14T11:03:27.72</time>
<name>2289</name>
</trkpt>
<trkpt lat="48.936442" lon="8.685260">
<ele>370.0</ele>
<speed>4.8</speed>
<course>130.3</course>
<desc>Speed 4.8 km/h Distance 3.01 km</desc>
<time>2010-03-14T11:03:28.72</time>
<name>2290</name>
</trkpt>
<trkpt lat="48.936433" lon="8.685275">
<ele>370.0</ele>
<speed>5.1</speed>
<course>133.5</course>
<desc>Speed 5.1 km/h Distance 3.01 km</desc>
<time>2010-03-14T11:03:29.72</time>
<name>2291</name>
</trkpt>
<trkpt lat="48.936425" lon="8.685288">
<ele>370.0</ele>
<speed>4.5</speed>
<course>135.5</course>
<desc>Speed 4.5 km/h Distance 3.02 km</desc>
<time>2010-03-14T11:03:30.72</time>
<name>2292</name>
</trkpt>
<trkpt lat="48.936418" lon="8.685298">
<ele>370.5</ele>
<speed>3.3</speed>
<course>150.8</course>
<desc>Speed 3.3 km/h Distance 3.02 km</desc>
<time>2010-03-14T11:03:31.72</time>
<name>2293</name>
</trkpt>
<trkpt lat="48.936417" lon="8.685300">
<ele>370.5</ele>
<speed>0.8</speed>
<course>135.5</course>
<desc>Speed 0.8 km/h Distance 3.02 km</desc>
<time>2010-03-14T11:03:32.72</time>
<name>2294</name>
</trkpt>
<trkpt lat="48.936413" lon="8.685305">
<ele>370.5</ele>
<speed>1.4</speed>
<course>135.5</course>
<desc>Speed 1.4 km/h Distance 3.02 km</desc>
<time>2010-03-14T11:03:33.72</time>
<name>2295</name>
</trkpt>
<trkpt lat="48.936413" lon="8.685305">
<ele>370.5</ele>
<speed>0.7</speed>
<course>135.5</course>
<desc>Speed 0.7 km/h Distance 3.02 km</desc>
<time>2010-03-14T11:03:34.72</time>
<name>2296</name>
</trkpt>
<trkpt lat="48.936413" lon="8.685305">
<ele>370.5</ele>
<speed>0.5</speed>
<course>90.0</course>
<desc>Speed 0.5 km/h Distance 3.02 km</desc>
<time>2010-03-14T11:03:35.72</time>
<name>2297</name>
</trkpt>
<trkpt lat="48.936413" lon="8.685313">
<ele>370.5</ele>
<speed>1.8</speed>
<course>90.0</course>
<desc>Speed 1.8 km/h Distance 3.02 km</desc>
<time>2010-03-14T11:03:36.72</time>
<name>2298</name>
</trkpt>
<trkpt lat="48.936413" lon="8.685317">
<ele>370.5</ele>
<speed>1.0</speed>
<course>63.0</course>
<desc>Speed 1.0 km/h Distance 3.02 km</desc>
<time>2010-03-14T11:03:37.72</time>
<name>2299</name>
</trkpt>
<trkpt lat="48.936417" lon="8.685327">
<ele>370.5</ele>
<speed>3.1</speed>
<course>73.1</course>
<desc>Speed 3.1 km/h Distance 3.02 km</desc>
<time>2010-03-14T11:03:38.72</time>
<name>2300</name>
</trkpt>
<trkpt lat="48.936420" lon="8.685343">
<ele>371.0</ele>
<speed>4.5</speed>
<course>69.2</course>
<desc>Speed 4.5 km/h Distance 3.02 km</desc>
<time>2010-03-14T11:03:39.72</time>
<name>2301</name>
</trkpt>
<trkpt lat="48.936425" lon="8.685363">
<ele>371.0</ele>
<speed>4.9</speed>
<course>73.1</course>
<desc>Speed 4.9 km/h Distance 3.02 km</desc>
<time>2010-03-14T11:03:40.72</time>
<name>2302</name>
</trkpt>
<trkpt lat="48.936428" lon="8.685380">
<ele>371.0</ele>
<speed>4.9</speed>
<course>67.4</course>
<desc>Speed 4.9 km/h Distance 3.02 km</desc>
<time>2010-03-14T11:03:41.72</time>
<name>2303</name>
</trkpt>
<trkpt lat="48.936433" lon="8.685398">
<ele>371.0</ele>
<speed>4.9</speed>
<course>65.4</course>
<desc>Speed 4.9 km/h Distance 3.03 km</desc>
<time>2010-03-14T11:03:42.72</time>
<name>2304</name>
</trkpt>
<trkpt lat="48.936438" lon="8.685415">
<ele>371.0</ele>
<speed>4.7</speed>
<course>55.9</course>
<desc>Speed 4.7 km/h Distance 3.03 km</desc>
<time>2010-03-14T11:03:43.72</time>
<name>2305</name>
</trkpt>
<trkpt lat="48.936445" lon="8.685430">
<ele>371.0</ele>
<speed>4.6</speed>
<course>49.7</course>
<desc>Speed 4.6 km/h Distance 3.03 km</desc>
<time>2010-03-14T11:03:44.72</time>
<name>2306</name>
</trkpt>
<trkpt lat="48.936453" lon="8.685445">
<ele>371.0</ele>
<speed>4.8</speed>
<course>55.9</course>
<desc>Speed 4.8 km/h Distance 3.03 km</desc>
<time>2010-03-14T11:03:45.72</time>
<name>2307</name>
</trkpt>
<trkpt lat="48.936460" lon="8.685460">
<ele>371.0</ele>
<speed>4.8</speed>
<course>55.9</course>
<desc>Speed 4.8 km/h Distance 3.03 km</desc>
<time>2010-03-14T11:03:46.77</time>
<name>2308</name>
</trkpt>
<trkpt lat="48.936467" lon="8.685475">
<ele>371.0</ele>
<speed>4.8</speed>
<course>49.8</course>
<desc>Speed 4.8 km/h Distance 3.03 km</desc>
<time>2010-03-14T11:03:47.72</time>
<name>2309</name>
</trkpt>
<trkpt lat="48.936475" lon="8.685490">
<ele>371.0</ele>
<speed>4.9</speed>
<course>52.7</course>
<desc>Speed 4.9 km/h Distance 3.03 km</desc>
<time>2010-03-14T11:03:48.72</time>
<name>2310</name>
</trkpt>
<trkpt lat="48.936482" lon="8.685503">
<ele>371.0</ele>
<speed>4.7</speed>
<course>46.5</course>
<desc>Speed 4.7 km/h Distance 3.03 km</desc>
<time>2010-03-14T11:03:49.72</time>
<name>2311</name>
</trkpt>
<trkpt lat="48.936490" lon="8.685517">
<ele>371.0</ele>
<speed>4.8</speed>
<course>44.5</course>
<desc>Speed 4.8 km/h Distance 3.04 km</desc>
<time>2010-03-14T11:03:50.72</time>
<name>2312</name>
</trkpt>
<trkpt lat="48.936500" lon="8.685532">
<ele>371.0</ele>
<speed>5.1</speed>
<course>46.4</course>
<desc>Speed 5.1 km/h Distance 3.04 km</desc>
<time>2010-03-14T11:03:51.74</time>
<name>2313</name>
</trkpt>
<trkpt lat="48.936508" lon="8.685545">
<ele>371.0</ele>
<speed>5.0</speed>
<course>54.2</course>
<desc>Speed 5.0 km/h Distance 3.04 km</desc>
<time>2010-03-14T11:03:52.75</time>
<name>2314</name>
</trkpt>
<trkpt lat="48.936523" lon="8.685577">
<ele>371.0</ele>
<speed>5.1</speed>
<course>52.7</course>
<desc>Speed 5.1 km/h Distance 3.04 km</desc>
<time>2010-03-14T11:03:54.25</time>
<name>2315</name>
</trkpt>
<trkpt lat="48.936532" lon="8.685593">
<ele>371.0</ele>
<speed>5.2</speed>
<course>49.9</course>
<desc>Speed 5.2 km/h Distance 3.04 km</desc>
<time>2010-03-14T11:03:55.25</time>
<name>2316</name>
</trkpt>
<trkpt lat="48.936540" lon="8.685608">
<ele>371.0</ele>
<speed>5.0</speed>
<course>49.8</course>
<desc>Speed 5.0 km/h Distance 3.04 km</desc>
<time>2010-03-14T11:03:56.25</time>
<name>2317</name>
</trkpt>
<trkpt lat="48.936548" lon="8.685623">
<ele>371.0</ele>
<speed>5.4</speed>
<course>58.6</course>
<desc>Speed 5.4 km/h Distance 3.05 km</desc>
<time>2010-03-14T11:03:57.25</time>
<name>2318</name>
</trkpt>
<trkpt lat="48.936555" lon="8.685640">
<ele>371.0</ele>
<speed>5.3</speed>
<course>46.4</course>
<desc>Speed 5.3 km/h Distance 3.05 km</desc>
<time>2010-03-14T11:03:58.25</time>
<name>2319</name>
</trkpt>
<trkpt lat="48.936563" lon="8.685653">
<ele>371.5</ele>
<speed>4.9</speed>
<course>52.7</course>
<desc>Speed 4.9 km/h Distance 3.05 km</desc>
<time>2010-03-14T11:03:59.25</time>
<name>2320</name>
</trkpt>
<trkpt lat="48.936572" lon="8.685670">
<ele>371.5</ele>
<speed>5.3</speed>
<course>52.7</course>
<desc>Speed 5.3 km/h Distance 3.05 km</desc>
<time>2010-03-14T11:04:00.25</time>
<name>2321</name>
</trkpt>
<trkpt lat="48.936580" lon="8.685687">
<ele>371.5</ele>
<speed>5.3</speed>
<course>51.3</course>
<desc>Speed 5.3 km/h Distance 3.05 km</desc>
<time>2010-03-14T11:04:01.25</time>
<name>2322</name>
</trkpt>
<trkpt lat="48.936597" lon="8.685718">
<ele>371.5</ele>
<speed>5.1</speed>
<course>49.7</course>
<desc>Speed 5.1 km/h Distance 3.05 km</desc>
<time>2010-03-14T11:04:03.25</time>
<name>2323</name>
</trkpt>
<trkpt lat="48.936605" lon="8.685733">
<ele>371.5</ele>
<speed>5.2</speed>
<course>52.7</course>
<desc>Speed 5.2 km/h Distance 3.06 km</desc>
<time>2010-03-14T11:04:04.25</time>
<name>2324</name>
</trkpt>
<trkpt lat="48.936613" lon="8.685750">
<ele>371.5</ele>
<speed>5.5</speed>
<course>71.3</course>
<desc>Speed 5.5 km/h Distance 3.06 km</desc>
<time>2010-03-14T11:04:05.24</time>
<name>2325</name>
</trkpt>
<trkpt lat="48.936617" lon="8.685765">
<ele>371.5</ele>
<speed>4.2</speed>
<course>38.1</course>
<desc>Speed 4.2 km/h Distance 3.06 km</desc>
<time>2010-03-14T11:04:06.24</time>
<name>2326</name>
</trkpt>
<trkpt lat="48.936625" lon="8.685775">
<ele>371.5</ele>
<speed>4.0</speed>
<course>42.6</course>
<desc>Speed 4.0 km/h Distance 3.06 km</desc>
<time>2010-03-14T11:04:07.24</time>
<name>2327</name>
</trkpt>
<trkpt lat="48.936633" lon="8.685787">
<ele>372.0</ele>
<speed>4.5</speed>
<course>52.7</course>
<desc>Speed 4.5 km/h Distance 3.06 km</desc>
<time>2010-03-14T11:04:08.24</time>
<name>2328</name>
</trkpt>
<trkpt lat="48.936642" lon="8.685803">
<ele>372.0</ele>
<speed>5.3</speed>
<course>49.7</course>
<desc>Speed 5.3 km/h Distance 3.06 km</desc>
<time>2010-03-14T11:04:09.24</time>
<name>2329</name>
</trkpt>
<trkpt lat="48.936650" lon="8.685818">
<ele>372.0</ele>
<speed>5.3</speed>
<course>49.7</course>
<desc>Speed 5.3 km/h Distance 3.06 km</desc>
<time>2010-03-14T11:04:10.24</time>
<name>2330</name>
</trkpt>
<trkpt lat="48.936658" lon="8.685833">
<ele>372.0</ele>
<speed>5.3</speed>
<course>58.7</course>
<desc>Speed 5.3 km/h Distance 3.07 km</desc>
<time>2010-03-14T11:04:11.24</time>
<name>2331</name>
</trkpt>
<trkpt lat="48.936665" lon="8.685850">
<ele>372.0</ele>
<speed>5.4</speed>
<course>52.7</course>
<desc>Speed 5.4 km/h Distance 3.07 km</desc>
<time>2010-03-14T11:04:12.24</time>
<name>2332</name>
</trkpt>
<trkpt lat="48.936673" lon="8.685867">
<ele>372.0</ele>
<speed>5.2</speed>
<course>47.6</course>
<desc>Speed 5.2 km/h Distance 3.07 km</desc>
<time>2010-03-14T11:04:13.24</time>
<name>2333</name>
</trkpt>
<trkpt lat="48.936683" lon="8.685883">
<ele>372.0</ele>
<speed>5.4</speed>
<course>49.8</course>
<desc>Speed 5.4 km/h Distance 3.07 km</desc>
<time>2010-03-14T11:04:14.24</time>
<name>2334</name>
</trkpt>
<trkpt lat="48.936692" lon="8.685898">
<ele>372.0</ele>
<speed>5.4</speed>
<course>47.6</course>
<desc>Speed 5.4 km/h Distance 3.07 km</desc>
<time>2010-03-14T11:04:15.24</time>
<name>2335</name>
</trkpt>
<trkpt lat="48.936702" lon="8.685915">
<ele>372.5</ele>
<speed>5.3</speed>
<course>49.7</course>
<desc>Speed 5.3 km/h Distance 3.07 km</desc>
<time>2010-03-14T11:04:16.24</time>
<name>2336</name>
</trkpt>
<trkpt lat="48.936710" lon="8.685930">
<ele>372.5</ele>
<speed>5.3</speed>
<course>44.7</course>
<desc>Speed 5.3 km/h Distance 3.08 km</desc>
<time>2010-03-14T11:04:17.24</time>
<name>2337</name>
</trkpt>
<trkpt lat="48.936720" lon="8.685945">
<ele>372.5</ele>
<speed>5.2</speed>
<course>58.6</course>
<desc>Speed 5.2 km/h Distance 3.08 km</desc>
<time>2010-03-14T11:04:18.24</time>
<name>2338</name>
</trkpt>
<trkpt lat="48.936727" lon="8.685962">
<ele>372.5</ele>
<speed>5.2</speed>
<course>49.7</course>
<desc>Speed 5.2 km/h Distance 3.08 km</desc>
<time>2010-03-14T11:04:19.24</time>
<name>2339</name>
</trkpt>
<trkpt lat="48.936735" lon="8.685977">
<ele>372.5</ele>
<speed>5.1</speed>
<course>49.7</course>
<desc>Speed 5.1 km/h Distance 3.08 km</desc>
<time>2010-03-14T11:04:20.24</time>
<name>2340</name>
</trkpt>
<trkpt lat="48.936743" lon="8.685992">
<ele>372.5</ele>
<speed>5.1</speed>
<course>44.6</course>
<desc>Speed 5.1 km/h Distance 3.08 km</desc>
<time>2010-03-14T11:04:21.24</time>
<name>2341</name>
</trkpt>
<trkpt lat="48.936753" lon="8.686007">
<ele>373.0</ele>
<speed>5.3</speed>
<course>49.8</course>
<desc>Speed 5.3 km/h Distance 3.08 km</desc>
<time>2010-03-14T11:04:22.24</time>
<name>2342</name>
</trkpt>
<trkpt lat="48.936762" lon="8.686022">
<ele>373.0</ele>
<speed>5.1</speed>
<course>49.9</course>
<desc>Speed 5.1 km/h Distance 3.08 km</desc>
<time>2010-03-14T11:04:23.24</time>
<name>2343</name>
</trkpt>
<trkpt lat="48.936770" lon="8.686037">
<ele>373.0</ele>
<speed>5.4</speed>
<course>44.7</course>
<desc>Speed 5.4 km/h Distance 3.09 km</desc>
<time>2010-03-14T11:04:24.24</time>
<name>2344</name>
</trkpt>
<trkpt lat="48.936780" lon="8.686052">
<ele>373.0</ele>
<speed>5.3</speed>
<course>52.7</course>
<desc>Speed 5.3 km/h Distance 3.09 km</desc>
<time>2010-03-14T11:04:25.23</time>
<name>2345</name>
</trkpt>
<trkpt lat="48.936788" lon="8.686068">
<ele>373.0</ele>
<speed>5.4</speed>
<course>49.7</course>
<desc>Speed 5.4 km/h Distance 3.09 km</desc>
<time>2010-03-14T11:04:26.23</time>
<name>2346</name>
</trkpt>
<trkpt lat="48.936797" lon="8.686083">
<ele>373.0</ele>
<speed>5.1</speed>
<course>49.7</course>
<desc>Speed 5.1 km/h Distance 3.09 km</desc>
<time>2010-03-14T11:04:27.23</time>
<name>2347</name>
</trkpt>
<trkpt lat="48.936805" lon="8.686098">
<ele>373.0</ele>
<speed>5.2</speed>
<course>41.2</course>
<desc>Speed 5.2 km/h Distance 3.09 km</desc>
<time>2010-03-14T11:04:28.23</time>
<name>2348</name>
</trkpt>
<trkpt lat="48.936815" lon="8.686112">
<ele>373.0</ele>
<speed>5.3</speed>
<course>49.8</course>
<desc>Speed 5.3 km/h Distance 3.09 km</desc>
<time>2010-03-14T11:04:29.23</time>
<name>2349</name>
</trkpt>
<trkpt lat="48.936823" lon="8.686127">
<ele>373.0</ele>
<speed>5.1</speed>
<course>44.5</course>
<desc>Speed 5.1 km/h Distance 3.09 km</desc>
<time>2010-03-14T11:04:30.23</time>
<name>2350</name>
</trkpt>
<trkpt lat="48.936833" lon="8.686142">
<ele>373.0</ele>
<speed>5.3</speed>
<course>52.7</course>
<desc>Speed 5.3 km/h Distance 3.10 km</desc>
<time>2010-03-14T11:04:31.23</time>
<name>2351</name>
</trkpt>
<trkpt lat="48.936842" lon="8.686158">
<ele>373.0</ele>
<speed>5.4</speed>
<course>58.7</course>
<desc>Speed 5.4 km/h Distance 3.10 km</desc>
<time>2010-03-14T11:04:32.23</time>
<name>2352</name>
</trkpt>
<trkpt lat="48.936848" lon="8.686175">
<ele>373.0</ele>
<speed>5.1</speed>
<course>56.0</course>
<desc>Speed 5.1 km/h Distance 3.10 km</desc>
<time>2010-03-14T11:04:33.23</time>
<name>2353</name>
</trkpt>
<trkpt lat="48.936855" lon="8.686190">
<ele>372.5</ele>
<speed>5.2</speed>
<course>52.7</course>
<desc>Speed 5.2 km/h Distance 3.10 km</desc>
<time>2010-03-14T11:04:34.23</time>
<name>2354</name>
</trkpt>
<trkpt lat="48.936863" lon="8.686207">
<ele>372.5</ele>
<speed>5.3</speed>
<course>47.6</course>
<desc>Speed 5.3 km/h Distance 3.10 km</desc>
<time>2010-03-14T11:04:35.24</time>
<name>2355</name>
</trkpt>
<trkpt lat="48.936873" lon="8.686223">
<ele>372.5</ele>
<speed>5.4</speed>
<course>55.9</course>
<desc>Speed 5.4 km/h Distance 3.10 km</desc>
<time>2010-03-14T11:04:36.23</time>
<name>2356</name>
</trkpt>
<trkpt lat="48.936880" lon="8.686238">
<ele>372.5</ele>
<speed>5.0</speed>
<course>44.5</course>
<desc>Speed 5.0 km/h Distance 3.10 km</desc>
<time>2010-03-14T11:04:37.23</time>
<name>2357</name>
</trkpt>
<trkpt lat="48.936890" lon="8.686253">
<ele>372.5</ele>
<speed>5.3</speed>
<course>58.7</course>
<desc>Speed 5.3 km/h Distance 3.11 km</desc>
<time>2010-03-14T11:04:38.23</time>
<name>2358</name>
</trkpt>
<trkpt lat="48.936897" lon="8.686270">
<ele>372.5</ele>
<speed>5.2</speed>
<course>47.6</course>
<desc>Speed 5.2 km/h Distance 3.11 km</desc>
<time>2010-03-14T11:04:39.23</time>
<name>2359</name>
</trkpt>
<trkpt lat="48.936907" lon="8.686287">
<ele>372.5</ele>
<speed>5.2</speed>
<course>58.7</course>
<desc>Speed 5.2 km/h Distance 3.11 km</desc>
<time>2010-03-14T11:04:40.23</time>
<name>2360</name>
</trkpt>
<trkpt lat="48.936913" lon="8.686303">
<ele>372.5</ele>
<speed>4.9</speed>
<course>61.0</course>
<desc>Speed 4.9 km/h Distance 3.11 km</desc>
<time>2010-03-14T11:04:41.24</time>
<name>2361</name>
</trkpt>
<trkpt lat="48.936920" lon="8.686322">
<ele>372.5</ele>
<speed>5.3</speed>
<course>52.7</course>
<desc>Speed 5.3 km/h Distance 3.11 km</desc>
<time>2010-03-14T11:04:42.23</time>
<name>2362</name>
</trkpt>
<trkpt lat="48.936928" lon="8.686338">
<ele>372.5</ele>
<speed>5.3</speed>
<course>49.8</course>
<desc>Speed 5.3 km/h Distance 3.11 km</desc>
<time>2010-03-14T11:04:43.23</time>
<name>2363</name>
</trkpt>
<trkpt lat="48.936937" lon="8.686353">
<ele>372.5</ele>
<speed>5.3</speed>
<course>52.7</course>
<desc>Speed 5.3 km/h Distance 3.12 km</desc>
<time>2010-03-14T11:04:44.24</time>
<name>2364</name>
</trkpt>
<trkpt lat="48.936945" lon="8.686370">
<ele>372.5</ele>
<speed>5.5</speed>
<course>52.7</course>
<desc>Speed 5.5 km/h Distance 3.12 km</desc>
<time>2010-03-14T11:04:45.23</time>
<name>2365</name>
</trkpt>
<trkpt lat="48.936953" lon="8.686387">
<ele>372.5</ele>
<speed>5.3</speed>
<course>47.6</course>
<desc>Speed 5.3 km/h Distance 3.12 km</desc>
<time>2010-03-14T11:04:46.23</time>
<name>2366</name>
</trkpt>
<trkpt lat="48.936963" lon="8.686403">
<ele>372.5</ele>
<speed>5.4</speed>
<course>52.7</course>
<desc>Speed 5.4 km/h Distance 3.12 km</desc>
<time>2010-03-14T11:04:47.23</time>
<name>2367</name>
</trkpt>
<trkpt lat="48.936972" lon="8.686420">
<ele>372.5</ele>
<speed>5.4</speed>
<course>49.8</course>
<desc>Speed 5.4 km/h Distance 3.12 km</desc>
<time>2010-03-14T11:04:48.23</time>
<name>2368</name>
</trkpt>
<trkpt lat="48.936980" lon="8.686435">
<ele>372.5</ele>
<speed>5.5</speed>
<course>47.6</course>
<desc>Speed 5.5 km/h Distance 3.12 km</desc>
<time>2010-03-14T11:04:49.22</time>
<name>2369</name>
</trkpt>
<trkpt lat="48.936990" lon="8.686452">
<ele>372.5</ele>
<speed>5.5</speed>
<course>56.0</course>
<desc>Speed 5.5 km/h Distance 3.12 km</desc>
<time>2010-03-14T11:04:50.23</time>
<name>2370</name>
</trkpt>
<trkpt lat="48.936997" lon="8.686467">
<ele>372.5</ele>
<speed>5.1</speed>
<course>52.7</course>
<desc>Speed 5.1 km/h Distance 3.13 km</desc>
<time>2010-03-14T11:04:51.23</time>
<name>2371</name>
</trkpt>
<trkpt lat="48.937005" lon="8.686483">
<ele>372.5</ele>
<speed>5.3</speed>
<course>49.8</course>
<desc>Speed 5.3 km/h Distance 3.13 km</desc>
<time>2010-03-14T11:04:52.23</time>
<name>2372</name>
</trkpt>
<trkpt lat="48.937013" lon="8.686498">
<ele>372.5</ele>
<speed>5.0</speed>
<course>49.7</course>
<desc>Speed 5.0 km/h Distance 3.13 km</desc>
<time>2010-03-14T11:04:53.23</time>
<name>2373</name>
</trkpt>
<trkpt lat="48.937022" lon="8.686513">
<ele>372.5</ele>
<speed>5.3</speed>
<course>49.7</course>
<desc>Speed 5.3 km/h Distance 3.13 km</desc>
<time>2010-03-14T11:04:54.23</time>
<name>2374</name>
</trkpt>
<trkpt lat="48.937030" lon="8.686528">
<ele>372.5</ele>
<speed>5.1</speed>
<course>49.9</course>
<desc>Speed 5.1 km/h Distance 3.13 km</desc>
<time>2010-03-14T11:04:55.22</time>
<name>2375</name>
</trkpt>
<trkpt lat="48.937038" lon="8.686543">
<ele>372.0</ele>
<speed>5.0</speed>
<course>58.7</course>
<desc>Speed 5.0 km/h Distance 3.13 km</desc>
<time>2010-03-14T11:04:56.23</time>
<name>2376</name>
</trkpt>
<trkpt lat="48.937045" lon="8.686560">
<ele>372.0</ele>
<speed>5.0</speed>
<course>49.7</course>
<desc>Speed 5.0 km/h Distance 3.13 km</desc>
<time>2010-03-14T11:04:57.22</time>
<name>2377</name>
</trkpt>
<trkpt lat="48.937053" lon="8.686575">
<ele>372.0</ele>
<speed>5.0</speed>
<course>52.7</course>
<desc>Speed 5.0 km/h Distance 3.14 km</desc>
<time>2010-03-14T11:04:58.24</time>
<name>2378</name>
</trkpt>
<trkpt lat="48.937060" lon="8.686588">
<ele>372.0</ele>
<speed>5.0</speed>
<course>49.8</course>
<desc>Speed 5.0 km/h Distance 3.14 km</desc>
<time>2010-03-14T11:04:59.22</time>
<name>2379</name>
</trkpt>
<trkpt lat="48.937068" lon="8.686603">
<ele>372.0</ele>
<speed>4.9</speed>
<course>49.9</course>
<desc>Speed 4.9 km/h Distance 3.14 km</desc>
<time>2010-03-14T11:05:00.22</time>
<name>2380</name>
</trkpt>
<trkpt lat="48.937077" lon="8.686618">
<ele>371.5</ele>
<speed>4.9</speed>
<course>46.4</course>
<desc>Speed 4.9 km/h Distance 3.14 km</desc>
<time>2010-03-14T11:05:01.23</time>
<name>2381</name>
</trkpt>
<trkpt lat="48.937085" lon="8.686632">
<ele>371.5</ele>
<speed>4.9</speed>
<course>55.9</course>
<desc>Speed 4.9 km/h Distance 3.14 km</desc>
<time>2010-03-14T11:05:02.22</time>
<name>2382</name>
</trkpt>
<trkpt lat="48.937092" lon="8.686647">
<ele>371.5</ele>
<speed>4.7</speed>
<course>40.2</course>
<desc>Speed 4.7 km/h Distance 3.14 km</desc>
<time>2010-03-14T11:05:03.22</time>
<name>2383</name>
</trkpt>
<trkpt lat="48.937103" lon="8.686662">
<ele>372.0</ele>
<speed>6.5</speed>
<course>43.3</course>
<desc>Speed 6.5 km/h Distance 3.14 km</desc>
<time>2010-03-14T11:05:04.24</time>
<name>2384</name>
</trkpt>
<trkpt lat="48.937115" lon="8.686678">
<ele>372.5</ele>
<speed>6.2</speed>
<course>49.8</course>
<desc>Speed 6.2 km/h Distance 3.15 km</desc>
<time>2010-03-14T11:05:05.23</time>
<name>2385</name>
</trkpt>
<trkpt lat="48.937123" lon="8.686693">
<ele>372.5</ele>
<speed>4.9</speed>
<course>46.4</course>
<desc>Speed 4.9 km/h Distance 3.15 km</desc>
<time>2010-03-14T11:05:06.22</time>
<name>2386</name>
</trkpt>
<trkpt lat="48.937132" lon="8.686707">
<ele>372.5</ele>
<speed>4.7</speed>
<course>58.7</course>
<desc>Speed 4.7 km/h Distance 3.15 km</desc>
<time>2010-03-14T11:05:07.23</time>
<name>2387</name>
</trkpt>
<trkpt lat="48.937138" lon="8.686723">
<ele>372.5</ele>
<speed>5.0</speed>
<course>49.7</course>
<desc>Speed 5.0 km/h Distance 3.15 km</desc>
<time>2010-03-14T11:05:08.22</time>
<name>2388</name>
</trkpt>
<trkpt lat="48.937147" lon="8.686738">
<ele>372.5</ele>
<speed>5.2</speed>
<course>58.7</course>
<desc>Speed 5.2 km/h Distance 3.15 km</desc>
<time>2010-03-14T11:05:09.23</time>
<name>2389</name>
</trkpt>
<trkpt lat="48.937153" lon="8.686755">
<ele>372.5</ele>
<speed>4.9</speed>
<course>55.9</course>
<desc>Speed 4.9 km/h Distance 3.15 km</desc>
<time>2010-03-14T11:05:10.23</time>
<name>2390</name>
</trkpt>
<trkpt lat="48.937160" lon="8.686770">
<ele>372.5</ele>
<speed>4.8</speed>
<course>52.7</course>
<desc>Speed 4.8 km/h Distance 3.15 km</desc>
<time>2010-03-14T11:05:11.22</time>
<name>2391</name>
</trkpt>
<trkpt lat="48.937168" lon="8.686787">
<ele>372.5</ele>
<speed>5.0</speed>
<course>44.6</course>
<desc>Speed 5.0 km/h Distance 3.16 km</desc>
<time>2010-03-14T11:05:12.22</time>
<name>2392</name>
</trkpt>
<trkpt lat="48.937178" lon="8.686802">
<ele>372.5</ele>
<speed>5.1</speed>
<course>49.7</course>
<desc>Speed 5.1 km/h Distance 3.16 km</desc>
<time>2010-03-14T11:05:13.22</time>
<name>2393</name>
</trkpt>
<trkpt lat="48.937187" lon="8.686817">
<ele>372.5</ele>
<speed>5.1</speed>
<course>47.6</course>
<desc>Speed 5.1 km/h Distance 3.16 km</desc>
<time>2010-03-14T11:05:14.22</time>
<name>2394</name>
</trkpt>
<trkpt lat="48.937197" lon="8.686833">
<ele>373.0</ele>
<speed>5.0</speed>
<course>56.0</course>
<desc>Speed 5.0 km/h Distance 3.16 km</desc>
<time>2010-03-14T11:05:15.22</time>
<name>2395</name>
</trkpt>
<trkpt lat="48.937203" lon="8.686848">
<ele>373.0</ele>
<speed>5.1</speed>
<course>44.7</course>
<desc>Speed 5.1 km/h Distance 3.16 km</desc>
<time>2010-03-14T11:05:16.22</time>
<name>2396</name>
</trkpt>
<trkpt lat="48.937213" lon="8.686863">
<ele>373.0</ele>
<speed>5.1</speed>
<course>49.9</course>
<desc>Speed 5.1 km/h Distance 3.16 km</desc>
<time>2010-03-14T11:05:17.22</time>
<name>2397</name>
</trkpt>
<trkpt lat="48.937222" lon="8.686878">
<ele>373.0</ele>
<speed>4.9</speed>
<course>49.7</course>
<desc>Speed 4.9 km/h Distance 3.17 km</desc>
<time>2010-03-14T11:05:18.21</time>
<name>2398</name>
</trkpt>
<trkpt lat="48.937230" lon="8.686893">
<ele>373.0</ele>
<speed>5.0</speed>
<course>90.0</course>
<desc>Speed 5.0 km/h Distance 3.17 km</desc>
<time>2010-03-14T11:05:19.21</time>
<name>2399</name>
</trkpt>
<trkpt lat="48.937230" lon="8.686905">
<ele>371.5</ele>
<speed>3.3</speed>
<course>71.3</course>
<desc>Speed 3.3 km/h Distance 3.17 km</desc>
<time>2010-03-14T11:05:20.22</time>
<name>2400</name>
</trkpt>
<trkpt lat="48.937233" lon="8.686920">
<ele>370.5</ele>
<speed>4.0</speed>
<course>43.2</course>
<desc>Speed 4.0 km/h Distance 3.17 km</desc>
<time>2010-03-14T11:05:21.21</time>
<name>2401</name>
</trkpt>
<trkpt lat="48.937245" lon="8.686937">
<ele>371.0</ele>
<speed>6.5</speed>
<course>58.7</course>
<desc>Speed 6.5 km/h Distance 3.17 km</desc>
<time>2010-03-14T11:05:22.22</time>
<name>2402</name>
</trkpt>
<trkpt lat="48.937252" lon="8.686953">
<ele>370.5</ele>
<speed>5.0</speed>
<course>55.9</course>
<desc>Speed 5.0 km/h Distance 3.17 km</desc>
<time>2010-03-14T11:05:23.22</time>
<name>2403</name>
</trkpt>
<trkpt lat="48.937258" lon="8.686968">
<ele>370.5</ele>
<speed>5.0</speed>
<course>61.0</course>
<desc>Speed 5.0 km/h Distance 3.17 km</desc>
<time>2010-03-14T11:05:24.22</time>
<name>2404</name>
</trkpt>
<trkpt lat="48.937265" lon="8.686987">
<ele>370.5</ele>
<speed>5.1</speed>
<course>55.9</course>
<desc>Speed 5.1 km/h Distance 3.17 km</desc>
<time>2010-03-14T11:05:25.21</time>
<name>2405</name>
</trkpt>
<trkpt lat="48.937272" lon="8.687002">
<ele>370.0</ele>
<speed>5.1</speed>
<course>52.7</course>
<desc>Speed 5.1 km/h Distance 3.18 km</desc>
<time>2010-03-14T11:05:26.21</time>
<name>2406</name>
</trkpt>
<trkpt lat="48.937280" lon="8.687018">
<ele>370.0</ele>
<speed>5.3</speed>
<course>58.7</course>
<desc>Speed 5.3 km/h Distance 3.18 km</desc>
<time>2010-03-14T11:05:27.21</time>
<name>2407</name>
</trkpt>
<trkpt lat="48.937287" lon="8.687035">
<ele>370.0</ele>
<speed>5.1</speed>
<course>55.9</course>
<desc>Speed 5.1 km/h Distance 3.18 km</desc>
<time>2010-03-14T11:05:28.21</time>
<name>2408</name>
</trkpt>
<trkpt lat="48.937293" lon="8.687050">
<ele>369.5</ele>
<speed>4.6</speed>
<course>49.8</course>
<desc>Speed 4.6 km/h Distance 3.18 km</desc>
<time>2010-03-14T11:05:29.22</time>
<name>2409</name>
</trkpt>
<trkpt lat="48.937302" lon="8.687065">
<ele>369.5</ele>
<speed>5.0</speed>
<course>44.5</course>
<desc>Speed 5.0 km/h Distance 3.18 km</desc>
<time>2010-03-14T11:05:30.21</time>
<name>2410</name>
</trkpt>
<trkpt lat="48.937312" lon="8.687080">
<ele>369.5</ele>
<speed>5.1</speed>
<course>52.7</course>
<desc>Speed 5.1 km/h Distance 3.18 km</desc>
<time>2010-03-14T11:05:31.21</time>
<name>2411</name>
</trkpt>
<trkpt lat="48.937320" lon="8.687097">
<ele>369.5</ele>
<speed>5.4</speed>
<course>58.7</course>
<desc>Speed 5.4 km/h Distance 3.18 km</desc>
<time>2010-03-14T11:05:32.21</time>
<name>2412</name>
</trkpt>
<trkpt lat="48.937327" lon="8.687113">
<ele>369.5</ele>
<speed>5.2</speed>
<course>52.7</course>
<desc>Speed 5.2 km/h Distance 3.19 km</desc>
<time>2010-03-14T11:05:33.21</time>
<name>2413</name>
</trkpt>
<trkpt lat="48.937335" lon="8.687130">
<ele>369.5</ele>
<speed>5.1</speed>
<course>55.9</course>
<desc>Speed 5.1 km/h Distance 3.19 km</desc>
<time>2010-03-14T11:05:34.21</time>
<name>2414</name>
</trkpt>
<trkpt lat="48.937342" lon="8.687145">
<ele>369.0</ele>
<speed>4.9</speed>
<course>52.7</course>
<desc>Speed 4.9 km/h Distance 3.19 km</desc>
<time>2010-03-14T11:05:35.21</time>
<name>2415</name>
</trkpt>
<trkpt lat="48.937350" lon="8.687162">
<ele>369.0</ele>
<speed>4.9</speed>
<course>44.6</course>
<desc>Speed 4.9 km/h Distance 3.19 km</desc>
<time>2010-03-14T11:05:36.21</time>
<name>2416</name>
</trkpt>
<trkpt lat="48.937360" lon="8.687177">
<ele>369.5</ele>
<speed>4.8</speed>
<course>56.0</course>
<desc>Speed 4.8 km/h Distance 3.19 km</desc>
<time>2010-03-14T11:05:37.21</time>
<name>2417</name>
</trkpt>
<trkpt lat="48.937367" lon="8.687192">
<ele>369.0</ele>
<speed>4.8</speed>
<course>56.0</course>
<desc>Speed 4.8 km/h Distance 3.19 km</desc>
<time>2010-03-14T11:05:38.21</time>
<name>2418</name>
</trkpt>
<trkpt lat="48.937373" lon="8.687207">
<ele>368.5</ele>
<speed>4.1</speed>
<course>52.7</course>
<desc>Speed 4.1 km/h Distance 3.19 km</desc>
<time>2010-03-14T11:05:39.21</time>
<name>2419</name>
</trkpt>
<trkpt lat="48.937380" lon="8.687220">
<ele>368.0</ele>
<speed>4.2</speed>
<course>42.6</course>
<desc>Speed 4.2 km/h Distance 3.20 km</desc>
<time>2010-03-14T11:05:40.21</time>
<name>2420</name>
</trkpt>
<trkpt lat="48.937388" lon="8.687232">
<ele>367.5</ele>
<speed>4.4</speed>
<course>49.1</course>
<desc>Speed 4.4 km/h Distance 3.20 km</desc>
<time>2010-03-14T11:05:41.21</time>
<name>2421</name>
</trkpt>
<trkpt lat="48.937395" lon="8.687243">
<ele>367.0</ele>
<speed>4.1</speed>
<course>37.5</course>
<desc>Speed 4.1 km/h Distance 3.20 km</desc>
<time>2010-03-14T11:05:42.21</time>
<name>2422</name>
</trkpt>
<trkpt lat="48.937405" lon="8.687255">
<ele>367.0</ele>
<speed>4.6</speed>
<course>37.5</course>
<desc>Speed 4.6 km/h Distance 3.20 km</desc>
<time>2010-03-14T11:05:43.21</time>
<name>2423</name>
</trkpt>
<trkpt lat="48.937415" lon="8.687267">
<ele>367.0</ele>
<speed>4.9</speed>
<course>38.1</course>
<desc>Speed 4.9 km/h Distance 3.20 km</desc>
<time>2010-03-14T11:05:44.21</time>
<name>2424</name>
</trkpt>
<trkpt lat="48.937423" lon="8.687277">
<ele>366.5</ele>
<speed>4.4</speed>
<course>37.3</course>
<desc>Speed 4.4 km/h Distance 3.20 km</desc>
<time>2010-03-14T11:05:45.21</time>
<name>2425</name>
</trkpt>
<trkpt lat="48.937433" lon="8.687288">
<ele>366.5</ele>
<speed>4.7</speed>
<course>28.6</course>
<desc>Speed 4.7 km/h Distance 3.20 km</desc>
<time>2010-03-14T11:05:46.20</time>
<name>2426</name>
</trkpt>
<trkpt lat="48.937443" lon="8.687297">
<ele>366.5</ele>
<speed>4.5</speed>
<course>39.7</course>
<desc>Speed 4.5 km/h Distance 3.21 km</desc>
<time>2010-03-14T11:05:47.20</time>
<name>2427</name>
</trkpt>
<trkpt lat="48.937450" lon="8.687305">
<ele>365.5</ele>
<speed>3.4</speed>
<course>25.2</course>
<desc>Speed 3.4 km/h Distance 3.21 km</desc>
<time>2010-03-14T11:05:48.21</time>
<name>2428</name>
</trkpt>
<trkpt lat="48.937462" lon="8.687313">
<ele>365.5</ele>
<speed>4.9</speed>
<course>27.9</course>
<desc>Speed 4.9 km/h Distance 3.21 km</desc>
<time>2010-03-14T11:05:49.21</time>
<name>2429</name>
</trkpt>
<trkpt lat="48.937470" lon="8.687320">
<ele>365.0</ele>
<speed>3.3</speed>
<course>39.7</course>
<desc>Speed 3.3 km/h Distance 3.21 km</desc>
<time>2010-03-14T11:05:50.21</time>
<name>2430</name>
</trkpt>
<trkpt lat="48.937477" lon="8.687328">
<ele>364.0</ele>
<speed>3.3</speed>
<course>23.8</course>
<desc>Speed 3.3 km/h Distance 3.21 km</desc>
<time>2010-03-14T11:05:51.21</time>
<name>2431</name>
</trkpt>
<trkpt lat="48.937487" lon="8.687335">
<ele>364.0</ele>
<speed>4.2</speed>
<course>21.5</course>
<desc>Speed 4.2 km/h Distance 3.21 km</desc>
<time>2010-03-14T11:05:52.20</time>
<name>2432</name>
</trkpt>
<trkpt lat="48.937495" lon="8.687340">
<ele>364.0</ele>
<speed>3.3</speed>
<course>27.9</course>
<desc>Speed 3.3 km/h Distance 3.21 km</desc>
<time>2010-03-14T11:05:53.20</time>
<name>2433</name>
</trkpt>
<trkpt lat="48.937503" lon="8.687347">
<ele>363.0</ele>
<speed>3.3</speed>
<course>25.2</course>
<desc>Speed 3.3 km/h Distance 3.21 km</desc>
<time>2010-03-14T11:05:54.20</time>
<name>2434</name>
</trkpt>
<trkpt lat="48.937515" lon="8.687355">
<ele>363.5</ele>
<speed>4.8</speed>
<course>23.7</course>
<desc>Speed 4.8 km/h Distance 3.21 km</desc>
<time>2010-03-14T11:05:55.20</time>
<name>2435</name>
</trkpt>
<trkpt lat="48.937530" lon="8.687365">
<ele>364.0</ele>
<speed>6.2</speed>
<course>20.6</course>
<desc>Speed 6.2 km/h Distance 3.22 km</desc>
<time>2010-03-14T11:05:56.20</time>
<name>2436</name>
</trkpt>
<trkpt lat="48.937542" lon="8.687372">
<ele>364.0</ele>
<speed>4.9</speed>
<course>25.2</course>
<desc>Speed 4.9 km/h Distance 3.22 km</desc>
<time>2010-03-14T11:05:57.20</time>
<name>2437</name>
</trkpt>
<trkpt lat="48.937553" lon="8.687380">
<ele>364.0</ele>
<speed>4.9</speed>
<course>25.2</course>
<desc>Speed 4.9 km/h Distance 3.22 km</desc>
<time>2010-03-14T11:05:58.20</time>
<name>2438</name>
</trkpt>
<trkpt lat="48.937565" lon="8.687388">
<ele>364.0</ele>
<speed>5.0</speed>
<course>20.6</course>
<desc>Speed 5.0 km/h Distance 3.22 km</desc>
<time>2010-03-14T11:05:59.20</time>
<name>2439</name>
</trkpt>
<trkpt lat="48.937577" lon="8.687395">
<ele>364.5</ele>
<speed>4.5</speed>
<course>22.6</course>
<desc>Speed 4.5 km/h Distance 3.22 km</desc>
<time>2010-03-14T11:06:00.20</time>
<name>2440</name>
</trkpt>
<trkpt lat="48.937590" lon="8.687403">
<ele>364.5</ele>
<speed>5.2</speed>
<course>21.5</course>
<desc>Speed 5.2 km/h Distance 3.22 km</desc>
<time>2010-03-14T11:06:01.20</time>
<name>2441</name>
</trkpt>
<trkpt lat="48.937598" lon="8.687408">
<ele>364.0</ele>
<speed>3.4</speed>
<course>25.6</course>
<desc>Speed 3.4 km/h Distance 3.22 km</desc>
<time>2010-03-14T11:06:02.20</time>
<name>2442</name>
</trkpt>
<trkpt lat="48.937605" lon="8.687413">
<ele>363.0</ele>
<speed>2.8</speed>
<course>26.4</course>
<desc>Speed 2.8 km/h Distance 3.23 km</desc>
<time>2010-03-14T11:06:03.20</time>
<name>2443</name>
</trkpt>
<trkpt lat="48.937618" lon="8.687423">
<ele>363.5</ele>
<speed>5.8</speed>
<course>33.2</course>
<desc>Speed 5.8 km/h Distance 3.23 km</desc>
<time>2010-03-14T11:06:04.20</time>
<name>2444</name>
</trkpt>
<trkpt lat="48.937627" lon="8.687432">
<ele>363.5</ele>
<speed>3.8</speed>
<course>33.2</course>
<desc>Speed 3.8 km/h Distance 3.23 km</desc>
<time>2010-03-14T11:06:05.20</time>
<name>2445</name>
</trkpt>
<trkpt lat="48.937635" lon="8.687440">
<ele>363.0</ele>
<speed>4.0</speed>
<course>28.9</course>
<desc>Speed 4.0 km/h Distance 3.23 km</desc>
<time>2010-03-14T11:06:06.19</time>
<name>2446</name>
</trkpt>
<trkpt lat="48.937645" lon="8.687448">
<ele>362.5</ele>
<speed>4.1</speed>
<course>28.6</course>
<desc>Speed 4.1 km/h Distance 3.23 km</desc>
<time>2010-03-14T11:06:07.19</time>
<name>2447</name>
</trkpt>
<trkpt lat="48.937655" lon="8.687457">
<ele>362.5</ele>
<speed>4.6</speed>
<course>23.8</course>
<desc>Speed 4.6 km/h Distance 3.23 km</desc>
<time>2010-03-14T11:06:08.20</time>
<name>2448</name>
</trkpt>
<trkpt lat="48.937665" lon="8.687463">
<ele>362.0</ele>
<speed>3.9</speed>
<course>33.5</course>
<desc>Speed 3.9 km/h Distance 3.23 km</desc>
<time>2010-03-14T11:06:09.19</time>
<name>2449</name>
</trkpt>
<trkpt lat="48.937673" lon="8.687472">
<ele>361.5</ele>
<speed>3.9</speed>
<course>28.6</course>
<desc>Speed 3.9 km/h Distance 3.23 km</desc>
<time>2010-03-14T11:06:10.20</time>
<name>2450</name>
</trkpt>
<trkpt lat="48.937683" lon="8.687480">
<ele>361.5</ele>
<speed>4.4</speed>
<course>20.6</course>
<desc>Speed 4.4 km/h Distance 3.24 km</desc>
<time>2010-03-14T11:06:11.19</time>
<name>2451</name>
</trkpt>
<trkpt lat="48.937695" lon="8.687487">
<ele>361.5</ele>
<speed>4.4</speed>
<course>23.8</course>
<desc>Speed 4.4 km/h Distance 3.24 km</desc>
<time>2010-03-14T11:06:12.19</time>
<name>2452</name>
</trkpt>
<trkpt lat="48.937705" lon="8.687493">
<ele>361.0</ele>
<speed>4.4</speed>
<course>27.9</course>
<desc>Speed 4.4 km/h Distance 3.24 km</desc>
<time>2010-03-14T11:06:13.19</time>
<name>2453</name>
</trkpt>
<trkpt lat="48.937713" lon="8.687500">
<ele>360.5</ele>
<speed>3.5</speed>
<course>23.8</course>
<desc>Speed 3.5 km/h Distance 3.24 km</desc>
<time>2010-03-14T11:06:14.20</time>
<name>2454</name>
</trkpt>
<trkpt lat="48.937723" lon="8.687507">
<ele>360.5</ele>
<speed>3.9</speed>
<course>33.2</course>
<desc>Speed 3.9 km/h Distance 3.24 km</desc>
<time>2010-03-14T11:06:15.19</time>
<name>2455</name>
</trkpt>
<trkpt lat="48.937733" lon="8.687517">
<ele>360.0</ele>
<speed>4.2</speed>
<course>33.2</course>
<desc>Speed 4.2 km/h Distance 3.24 km</desc>
<time>2010-03-14T11:06:16.19</time>
<name>2456</name>
</trkpt>
<trkpt lat="48.937742" lon="8.687525">
<ele>359.5</ele>
<speed>3.7</speed>
<course>23.0</course>
<desc>Speed 3.7 km/h Distance 3.24 km</desc>
<time>2010-03-14T11:06:17.20</time>
<name>2457</name>
</trkpt>
<trkpt lat="48.937752" lon="8.687532">
<ele>359.5</ele>
<speed>4.0</speed>
<course>23.0</course>
<desc>Speed 4.0 km/h Distance 3.24 km</desc>
<time>2010-03-14T11:06:18.19</time>
<name>2458</name>
</trkpt>
<trkpt lat="48.937762" lon="8.687538">
<ele>359.0</ele>
<speed>4.2</speed>
<course>24.9</course>
<desc>Speed 4.2 km/h Distance 3.24 km</desc>
<time>2010-03-14T11:06:19.20</time>
<name>2459</name>
</trkpt>
<trkpt lat="48.937773" lon="8.687547">
<ele>359.0</ele>
<speed>4.5</speed>
<course>28.6</course>
<desc>Speed 4.5 km/h Distance 3.25 km</desc>
<time>2010-03-14T11:06:20.19</time>
<name>2460</name>
</trkpt>
<trkpt lat="48.937783" lon="8.687555">
<ele>359.0</ele>
<speed>4.4</speed>
<course>28.6</course>
<desc>Speed 4.4 km/h Distance 3.25 km</desc>
<time>2010-03-14T11:06:21.19</time>
<name>2461</name>
</trkpt>
<trkpt lat="48.937793" lon="8.687563">
<ele>358.5</ele>
<speed>3.9</speed>
<course>27.9</course>
<desc>Speed 3.9 km/h Distance 3.25 km</desc>
<time>2010-03-14T11:06:22.19</time>
<name>2462</name>
</trkpt>
<trkpt lat="48.937802" lon="8.687570">
<ele>358.0</ele>
<speed>3.6</speed>
<course>33.2</course>
<desc>Speed 3.6 km/h Distance 3.25 km</desc>
<time>2010-03-14T11:06:23.19</time>
<name>2463</name>
</trkpt>
<trkpt lat="48.937810" lon="8.687578">
<ele>358.0</ele>
<speed>4.1</speed>
<course>23.8</course>
<desc>Speed 4.1 km/h Distance 3.25 km</desc>
<time>2010-03-14T11:06:24.19</time>
<name>2464</name>
</trkpt>
<trkpt lat="48.937820" lon="8.687585">
<ele>357.5</ele>
<speed>4.0</speed>
<course>29.2</course>
<desc>Speed 4.0 km/h Distance 3.25 km</desc>
<time>2010-03-14T11:06:25.19</time>
<name>2465</name>
</trkpt>
<trkpt lat="48.937832" lon="8.687595">
<ele>357.5</ele>
<speed>4.8</speed>
<course>33.2</course>
<desc>Speed 4.8 km/h Distance 3.25 km</desc>
<time>2010-03-14T11:06:26.19</time>
<name>2466</name>
</trkpt>
<trkpt lat="48.937842" lon="8.687605">
<ele>357.5</ele>
<speed>4.8</speed>
<course>25.2</course>
<desc>Speed 4.8 km/h Distance 3.26 km</desc>
<time>2010-03-14T11:06:27.19</time>
<name>2467</name>
</trkpt>
<trkpt lat="48.937853" lon="8.687613">
<ele>357.5</ele>
<speed>4.6</speed>
<course>16.0</course>
<desc>Speed 4.6 km/h Distance 3.26 km</desc>
<time>2010-03-14T11:06:28.19</time>
<name>2468</name>
</trkpt>
<trkpt lat="48.937865" lon="8.687618">
<ele>357.5</ele>
<speed>4.6</speed>
<course>13.5</course>
<desc>Speed 4.6 km/h Distance 3.26 km</desc>
<time>2010-03-14T11:06:29.19</time>
<name>2469</name>
</trkpt>
<trkpt lat="48.937878" lon="8.687623">
<ele>357.5</ele>
<speed>4.9</speed>
<course>20.9</course>
<desc>Speed 4.9 km/h Distance 3.26 km</desc>
<time>2010-03-14T11:06:30.19</time>
<name>2470</name>
</trkpt>
<trkpt lat="48.937890" lon="8.687630">
<ele>357.5</ele>
<speed>4.7</speed>
<course>16.0</course>
<desc>Speed 4.7 km/h Distance 3.26 km</desc>
<time>2010-03-14T11:06:31.19</time>
<name>2471</name>
</trkpt>
<trkpt lat="48.937902" lon="8.687635">
<ele>357.0</ele>
<speed>4.4</speed>
<course>18.2</course>
<desc>Speed 4.4 km/h Distance 3.26 km</desc>
<time>2010-03-14T11:06:32.19</time>
<name>2472</name>
</trkpt>
<trkpt lat="48.937912" lon="8.687640">
<ele>356.5</ele>
<speed>3.7</speed>
<course>18.2</course>
<desc>Speed 3.7 km/h Distance 3.26 km</desc>
<time>2010-03-14T11:06:33.19</time>
<name>2473</name>
</trkpt>
<trkpt lat="48.937922" lon="8.687645">
<ele>356.0</ele>
<speed>3.6</speed>
<course>33.2</course>
<desc>Speed 3.6 km/h Distance 3.26 km</desc>
<time>2010-03-14T11:06:34.19</time>
<name>2474</name>
</trkpt>
<trkpt lat="48.937930" lon="8.687653">
<ele>356.0</ele>
<speed>3.5</speed>
<course>40.9</course>
<desc>Speed 3.5 km/h Distance 3.27 km</desc>
<time>2010-03-14T11:06:35.19</time>
<name>2475</name>
</trkpt>
<trkpt lat="48.937935" lon="8.687660">
<ele>355.0</ele>
<speed>2.5</speed>
<course>33.2</course>
<desc>Speed 2.5 km/h Distance 3.27 km</desc>
<time>2010-03-14T11:06:36.19</time>
<name>2476</name>
</trkpt>
<trkpt lat="48.937943" lon="8.687668">
<ele>355.0</ele>
<speed>3.2</speed>
<course>22.1</course>
<desc>Speed 3.2 km/h Distance 3.27 km</desc>
<time>2010-03-14T11:06:37.19</time>
<name>2477</name>
</trkpt>
<trkpt lat="48.937957" lon="8.687677">
<ele>355.0</ele>
<speed>4.5</speed>
<course>21.5</course>
<desc>Speed 4.5 km/h Distance 3.27 km</desc>
<time>2010-03-14T11:06:38.18</time>
<name>2478</name>
</trkpt>
<trkpt lat="48.937965" lon="8.687682">
<ele>354.5</ele>
<speed>3.4</speed>
<course>21.5</course>
<desc>Speed 3.4 km/h Distance 3.27 km</desc>
<time>2010-03-14T11:06:39.19</time>
<name>2479</name>
</trkpt>
<trkpt lat="48.937973" lon="8.687687">
<ele>354.0</ele>
<speed>3.3</speed>
<course>20.6</course>
<desc>Speed 3.3 km/h Distance 3.27 km</desc>
<time>2010-03-14T11:06:40.19</time>
<name>2480</name>
</trkpt>
<trkpt lat="48.937985" lon="8.687693">
<ele>354.0</ele>
<speed>4.2</speed>
<course>22.3</course>
<desc>Speed 4.2 km/h Distance 3.27 km</desc>
<time>2010-03-14T11:06:41.19</time>
<name>2481</name>
</trkpt>
<trkpt lat="48.937998" lon="8.687702">
<ele>354.0</ele>
<speed>5.0</speed>
<course>25.2</course>
<desc>Speed 5.0 km/h Distance 3.27 km</desc>
<time>2010-03-14T11:06:42.19</time>
<name>2482</name>
</trkpt>
<trkpt lat="48.938010" lon="8.687710">
<ele>354.0</ele>
<speed>4.5</speed>
<course>28.6</course>
<desc>Speed 4.5 km/h Distance 3.28 km</desc>
<time>2010-03-14T11:06:43.19</time>
<name>2483</name>
</trkpt>
<trkpt lat="48.938020" lon="8.687718">
<ele>354.0</ele>
<speed>4.1</speed>
<course>25.2</course>
<desc>Speed 4.1 km/h Distance 3.28 km</desc>
<time>2010-03-14T11:06:44.19</time>
<name>2484</name>
</trkpt>
<trkpt lat="48.938032" lon="8.687727">
<ele>354.0</ele>
<speed>5.0</speed>
<course>20.9</course>
<desc>Speed 5.0 km/h Distance 3.28 km</desc>
<time>2010-03-14T11:06:45.18</time>
<name>2485</name>
</trkpt>
<trkpt lat="48.938043" lon="8.687733">
<ele>354.0</ele>
<speed>4.3</speed>
<course>33.0</course>
<desc>Speed 4.3 km/h Distance 3.28 km</desc>
<time>2010-03-14T11:06:46.18</time>
<name>2486</name>
</trkpt>
<trkpt lat="48.938053" lon="8.687743">
<ele>354.0</ele>
<speed>4.3</speed>
<course>42.5</course>
<desc>Speed 4.3 km/h Distance 3.28 km</desc>
<time>2010-03-14T11:06:47.19</time>
<name>2487</name>
</trkpt>
<trkpt lat="48.938062" lon="8.687755">
<ele>353.5</ele>
<speed>3.9</speed>
<course>42.5</course>
<desc>Speed 3.9 km/h Distance 3.28 km</desc>
<time>2010-03-14T11:06:48.19</time>
<name>2488</name>
</trkpt>
<trkpt lat="48.938070" lon="8.687767">
<ele>353.0</ele>
<speed>3.7</speed>
<course>33.2</course>
<desc>Speed 3.7 km/h Distance 3.28 km</desc>
<time>2010-03-14T11:06:49.19</time>
<name>2489</name>
</trkpt>
<trkpt lat="48.938080" lon="8.687777">
<ele>353.0</ele>
<speed>4.0</speed>
<course>29.4</course>
<desc>Speed 4.0 km/h Distance 3.28 km</desc>
<time>2010-03-14T11:06:50.19</time>
<name>2490</name>
</trkpt>
<trkpt lat="48.938092" lon="8.687787">
<ele>353.0</ele>
<speed>4.3</speed>
<course>18.2</course>
<desc>Speed 4.3 km/h Distance 3.29 km</desc>
<time>2010-03-14T11:06:51.19</time>
<name>2491</name>
</trkpt>
<trkpt lat="48.938102" lon="8.687792">
<ele>353.0</ele>
<speed>4.0</speed>
<course>16.0</course>
<desc>Speed 4.0 km/h Distance 3.29 km</desc>
<time>2010-03-14T11:06:52.19</time>
<name>2492</name>
</trkpt>
<trkpt lat="48.938113" lon="8.687797">
<ele>353.0</ele>
<speed>4.0</speed>
<course>25.2</course>
<desc>Speed 4.0 km/h Distance 3.29 km</desc>
<time>2010-03-14T11:06:53.21</time>
<name>2493</name>
</trkpt>
<trkpt lat="48.938125" lon="8.687805">
<ele>353.5</ele>
<speed>4.4</speed>
<course>28.6</course>
<desc>Speed 4.4 km/h Distance 3.29 km</desc>
<time>2010-03-14T11:06:54.18</time>
<name>2494</name>
</trkpt>
<trkpt lat="48.938135" lon="8.687813">
<ele>353.0</ele>
<speed>4.3</speed>
<course>23.8</course>
<desc>Speed 4.3 km/h Distance 3.29 km</desc>
<time>2010-03-14T11:06:55.18</time>
<name>2495</name>
</trkpt>
<trkpt lat="48.938145" lon="8.687820">
<ele>353.0</ele>
<speed>4.2</speed>
<course>28.6</course>
<desc>Speed 4.2 km/h Distance 3.29 km</desc>
<time>2010-03-14T11:06:56.21</time>
<name>2496</name>
</trkpt>
<trkpt lat="48.938155" lon="8.687828">
<ele>352.5</ele>
<speed>3.6</speed>
<course>23.8</course>
<desc>Speed 3.6 km/h Distance 3.29 km</desc>
<time>2010-03-14T11:06:57.18</time>
<name>2497</name>
</trkpt>
<trkpt lat="48.938165" lon="8.687835">
<ele>352.5</ele>
<speed>4.0</speed>
<course>33.2</course>
<desc>Speed 4.0 km/h Distance 3.30 km</desc>
<time>2010-03-14T11:06:58.18</time>
<name>2498</name>
</trkpt>
<trkpt lat="48.938175" lon="8.687845">
<ele>352.0</ele>
<speed>4.3</speed>
<course>24.9</course>
<desc>Speed 4.3 km/h Distance 3.30 km</desc>
<time>2010-03-14T11:06:59.18</time>
<name>2499</name>
</trkpt>
<trkpt lat="48.938187" lon="8.687853">
<ele>352.0</ele>
<speed>4.1</speed>
<course>33.2</course>
<desc>Speed 4.1 km/h Distance 3.30 km</desc>
<time>2010-03-14T11:07:00.19</time>
<name>2500</name>
</trkpt>
<trkpt lat="48.938197" lon="8.687863">
<ele>351.5</ele>
<speed>4.1</speed>
<course>28.6</course>
<desc>Speed 4.1 km/h Distance 3.30 km</desc>
<time>2010-03-14T11:07:01.19</time>
<name>2501</name>
</trkpt>
<trkpt lat="48.938207" lon="8.687872">
<ele>351.5</ele>
<speed>4.7</speed>
<course>25.2</course>
<desc>Speed 4.7 km/h Distance 3.30 km</desc>
<time>2010-03-14T11:07:02.18</time>
<name>2502</name>
</trkpt>
<trkpt lat="48.938218" lon="8.687880">
<ele>351.5</ele>
<speed>4.6</speed>
<course>22.1</course>
<desc>Speed 4.6 km/h Distance 3.30 km</desc>
<time>2010-03-14T11:07:03.18</time>
<name>2503</name>
</trkpt>
<trkpt lat="48.938232" lon="8.687888">
<ele>351.5</ele>
<speed>4.9</speed>
<course>24.9</course>
<desc>Speed 4.9 km/h Distance 3.30 km</desc>
<time>2010-03-14T11:07:04.18</time>
<name>2504</name>
</trkpt>
<trkpt lat="48.938243" lon="8.687897">
<ele>352.0</ele>
<speed>4.5</speed>
<course>26.0</course>
<desc>Speed 4.5 km/h Distance 3.30 km</desc>
<time>2010-03-14T11:07:05.18</time>
<name>2505</name>
</trkpt>
<trkpt lat="48.938257" lon="8.687907">
<ele>352.0</ele>
<speed>4.9</speed>
<course>29.4</course>
<desc>Speed 4.9 km/h Distance 3.31 km</desc>
<time>2010-03-14T11:07:06.18</time>
<name>2506</name>
</trkpt>
<trkpt lat="48.938268" lon="8.687917">
<ele>352.0</ele>
<speed>4.6</speed>
<course>20.6</course>
<desc>Speed 4.6 km/h Distance 3.31 km</desc>
<time>2010-03-14T11:07:07.18</time>
<name>2507</name>
</trkpt>
<trkpt lat="48.938280" lon="8.687923">
<ele>352.0</ele>
<speed>4.5</speed>
<course>29.2</course>
<desc>Speed 4.5 km/h Distance 3.31 km</desc>
<time>2010-03-14T11:07:08.18</time>
<name>2508</name>
</trkpt>
<trkpt lat="48.938292" lon="8.687933">
<ele>352.0</ele>
<speed>5.0</speed>
<course>22.3</course>
<desc>Speed 5.0 km/h Distance 3.31 km</desc>
<time>2010-03-14T11:07:09.18</time>
<name>2509</name>
</trkpt>
<trkpt lat="48.938305" lon="8.687942">
<ele>352.0</ele>
<speed>4.8</speed>
<course>26.4</course>
<desc>Speed 4.8 km/h Distance 3.31 km</desc>
<time>2010-03-14T11:07:10.18</time>
<name>2510</name>
</trkpt>
<trkpt lat="48.938318" lon="8.687952">
<ele>352.0</ele>
<speed>5.0</speed>
<course>33.5</course>
<desc>Speed 5.0 km/h Distance 3.31 km</desc>
<time>2010-03-14T11:07:11.18</time>
<name>2511</name>
</trkpt>
<trkpt lat="48.938327" lon="8.687960">
<ele>352.0</ele>
<speed>3.4</speed>
<course>33.2</course>
<desc>Speed 3.4 km/h Distance 3.32 km</desc>
<time>2010-03-14T11:07:12.18</time>
<name>2512</name>
</trkpt>
<trkpt lat="48.938335" lon="8.687968">
<ele>351.5</ele>
<speed>3.1</speed>
<course>23.8</course>
<desc>Speed 3.1 km/h Distance 3.32 km</desc>
<time>2010-03-14T11:07:13.18</time>
<name>2513</name>
</trkpt>
<trkpt lat="48.938345" lon="8.687975">
<ele>351.0</ele>
<speed>3.6</speed>
<course>22.3</course>
<desc>Speed 3.6 km/h Distance 3.32 km</desc>
<time>2010-03-14T11:07:14.18</time>
<name>2514</name>
</trkpt>
<trkpt lat="48.938358" lon="8.687983">
<ele>351.0</ele>
<speed>4.3</speed>
<course>20.6</course>
<desc>Speed 4.3 km/h Distance 3.32 km</desc>
<time>2010-03-14T11:07:15.18</time>
<name>2515</name>
</trkpt>
<trkpt lat="48.938370" lon="8.687990">
<ele>351.0</ele>
<speed>4.7</speed>
<course>25.2</course>
<desc>Speed 4.7 km/h Distance 3.32 km</desc>
<time>2010-03-14T11:07:16.17</time>
<name>2516</name>
</trkpt>
<trkpt lat="48.938382" lon="8.687998">
<ele>351.0</ele>
<speed>4.5</speed>
<course>28.6</course>
<desc>Speed 4.5 km/h Distance 3.32 km</desc>
<time>2010-03-14T11:07:17.17</time>
<name>2517</name>
</trkpt>
<trkpt lat="48.938392" lon="8.688007">
<ele>351.0</ele>
<speed>4.3</speed>
<course>20.9</course>
<desc>Speed 4.3 km/h Distance 3.32 km</desc>
<time>2010-03-14T11:07:18.17</time>
<name>2518</name>
</trkpt>
<trkpt lat="48.938403" lon="8.688013">
<ele>350.5</ele>
<speed>4.1</speed>
<course>23.8</course>
<desc>Speed 4.1 km/h Distance 3.32 km</desc>
<time>2010-03-14T11:07:19.18</time>
<name>2519</name>
</trkpt>
<trkpt lat="48.938413" lon="8.688020">
<ele>350.5</ele>
<speed>3.9</speed>
<course>25.2</course>
<desc>Speed 3.9 km/h Distance 3.33 km</desc>
<time>2010-03-14T11:07:20.18</time>
<name>2520</name>
</trkpt>
<trkpt lat="48.938425" lon="8.688028">
<ele>350.5</ele>
<speed>4.6</speed>
<course>25.2</course>
<desc>Speed 4.6 km/h Distance 3.33 km</desc>
<time>2010-03-14T11:07:21.18</time>
<name>2521</name>
</trkpt>
<trkpt lat="48.938437" lon="8.688037">
<ele>350.0</ele>
<speed>4.8</speed>
<course>25.2</course>
<desc>Speed 4.8 km/h Distance 3.33 km</desc>
<time>2010-03-14T11:07:22.18</time>
<name>2522</name>
</trkpt>
<trkpt lat="48.938448" lon="8.688045">
<ele>350.5</ele>
<speed>4.6</speed>
<course>29.4</course>
<desc>Speed 4.6 km/h Distance 3.33 km</desc>
<time>2010-03-14T11:07:23.17</time>
<name>2523</name>
</trkpt>
<trkpt lat="48.938460" lon="8.688055">
<ele>350.5</ele>
<speed>4.9</speed>
<course>23.4</course>
<desc>Speed 4.9 km/h Distance 3.33 km</desc>
<time>2010-03-14T11:07:24.17</time>
<name>2524</name>
</trkpt>
<trkpt lat="48.938470" lon="8.688062">
<ele>350.5</ele>
<speed>4.4</speed>
<course>16.0</course>
<desc>Speed 4.4 km/h Distance 3.33 km</desc>
<time>2010-03-14T11:07:25.17</time>
<name>2525</name>
</trkpt>
<trkpt lat="48.938482" lon="8.688067">
<ele>350.0</ele>
<speed>4.6</speed>
<course>20.9</course>
<desc>Speed 4.6 km/h Distance 3.33 km</desc>
<time>2010-03-14T11:07:26.18</time>
<name>2526</name>
</trkpt>
<trkpt lat="48.938493" lon="8.688073">
<ele>350.0</ele>
<speed>4.4</speed>
<course>25.2</course>
<desc>Speed 4.4 km/h Distance 3.34 km</desc>
<time>2010-03-14T11:07:27.17</time>
<name>2527</name>
</trkpt>
<trkpt lat="48.938505" lon="8.688082">
<ele>349.5</ele>
<speed>5.1</speed>
<course>23.4</course>
<desc>Speed 5.1 km/h Distance 3.34 km</desc>
<time>2010-03-14T11:07:28.17</time>
<name>2528</name>
</trkpt>
<trkpt lat="48.938515" lon="8.688088">
<ele>349.5</ele>
<speed>4.5</speed>
<course>23.8</course>
<desc>Speed 4.5 km/h Distance 3.34 km</desc>
<time>2010-03-14T11:07:29.18</time>
<name>2529</name>
</trkpt>
<trkpt lat="48.938525" lon="8.688095">
<ele>349.5</ele>
<speed>4.0</speed>
<course>39.4</course>
<desc>Speed 4.0 km/h Distance 3.34 km</desc>
<time>2010-03-14T11:07:30.17</time>
<name>2530</name>
</trkpt>
<trkpt lat="48.938532" lon="8.688103">
<ele>349.0</ele>
<speed>3.6</speed>
<course>28.6</course>
<desc>Speed 3.6 km/h Distance 3.34 km</desc>
<time>2010-03-14T11:07:31.16</time>
<name>2531</name>
</trkpt>
<trkpt lat="48.938542" lon="8.688112">
<ele>349.5</ele>
<speed>4.3</speed>
<course>33.2</course>
<desc>Speed 4.3 km/h Distance 3.34 km</desc>
<time>2010-03-14T11:07:32.16</time>
<name>2532</name>
</trkpt>
<trkpt lat="48.938550" lon="8.688120">
<ele>349.0</ele>
<speed>3.7</speed>
<course>39.4</course>
<desc>Speed 3.7 km/h Distance 3.34 km</desc>
<time>2010-03-14T11:07:33.16</time>
<name>2533</name>
</trkpt>
<trkpt lat="48.938557" lon="8.688128">
<ele>348.5</ele>
<speed>3.4</speed>
<course>23.8</course>
<desc>Speed 3.4 km/h Distance 3.34 km</desc>
<time>2010-03-14T11:07:34.16</time>
<name>2534</name>
</trkpt>
<trkpt lat="48.938567" lon="8.688135">
<ele>348.5</ele>
<speed>4.4</speed>
<course>33.2</course>
<desc>Speed 4.4 km/h Distance 3.35 km</desc>
<time>2010-03-14T11:07:35.16</time>
<name>2535</name>
</trkpt>
<trkpt lat="48.938575" lon="8.688143">
<ele>348.0</ele>
<speed>3.6</speed>
<course>28.6</course>
<desc>Speed 3.6 km/h Distance 3.35 km</desc>
<time>2010-03-14T11:07:36.16</time>
<name>2536</name>
</trkpt>
<trkpt lat="48.938585" lon="8.688152">
<ele>348.0</ele>
<speed>4.4</speed>
<course>38.1</course>
<desc>Speed 4.4 km/h Distance 3.35 km</desc>
<time>2010-03-14T11:07:37.16</time>
<name>2537</name>
</trkpt>
<trkpt lat="48.938593" lon="8.688162">
<ele>348.0</ele>
<speed>4.4</speed>
<course>33.4</course>
<desc>Speed 4.4 km/h Distance 3.35 km</desc>
<time>2010-03-14T11:07:38.16</time>
<name>2538</name>
</trkpt>
<trkpt lat="48.938607" lon="8.688175">
<ele>349.0</ele>
<speed>4.2</speed>
<course>22.7</course>
<desc>Speed 4.2 km/h Distance 3.35 km</desc>
<time>2010-03-14T11:07:39.16</time>
<name>2539</name>
</trkpt>
<trkpt lat="48.938625" lon="8.688187">
<ele>350.0</ele>
<speed>4.9</speed>
<course>30.9</course>
<desc>Speed 4.9 km/h Distance 3.35 km</desc>
<time>2010-03-14T11:07:40.16</time>
<name>2540</name>
</trkpt>
<trkpt lat="48.938643" lon="8.688203">
<ele>351.5</ele>
<speed>4.9</speed>
<course>22.1</course>
<desc>Speed 4.9 km/h Distance 3.35 km</desc>
<time>2010-03-14T11:07:41.16</time>
<name>2541</name>
</trkpt>
<trkpt lat="48.938657" lon="8.688212">
<ele>351.5</ele>
<speed>4.9</speed>
<course>29.4</course>
<desc>Speed 4.9 km/h Distance 3.36 km</desc>
<time>2010-03-14T11:07:42.16</time>
<name>2542</name>
</trkpt>
<trkpt lat="48.938668" lon="8.688222">
<ele>352.0</ele>
<speed>5.0</speed>
<course>23.7</course>
<desc>Speed 5.0 km/h Distance 3.36 km</desc>
<time>2010-03-14T11:07:43.16</time>
<name>2543</name>
</trkpt>
<trkpt lat="48.938683" lon="8.688232">
<ele>352.0</ele>
<speed>5.1</speed>
<course>20.9</course>
<desc>Speed 5.1 km/h Distance 3.36 km</desc>
<time>2010-03-14T11:07:44.16</time>
<name>2544</name>
</trkpt>
<trkpt lat="48.938695" lon="8.688238">
<ele>352.5</ele>
<speed>4.9</speed>
<course>22.6</course>
<desc>Speed 4.9 km/h Distance 3.36 km</desc>
<time>2010-03-14T11:07:45.16</time>
<name>2545</name>
</trkpt>
<trkpt lat="48.938708" lon="8.688247">
<ele>352.5</ele>
<speed>4.8</speed>
<course>25.2</course>
<desc>Speed 4.8 km/h Distance 3.36 km</desc>
<time>2010-03-14T11:07:46.16</time>
<name>2546</name>
</trkpt>
<trkpt lat="48.938720" lon="8.688255">
<ele>353.0</ele>
<speed>4.4</speed>
<course>28.9</course>
<desc>Speed 4.4 km/h Distance 3.36 km</desc>
<time>2010-03-14T11:07:47.16</time>
<name>2547</name>
</trkpt>
<trkpt lat="48.938730" lon="8.688263">
<ele>353.0</ele>
<speed>4.2</speed>
<course>20.9</course>
<desc>Speed 4.2 km/h Distance 3.37 km</desc>
<time>2010-03-14T11:07:48.16</time>
<name>2548</name>
</trkpt>
<trkpt lat="48.938742" lon="8.688270">
<ele>353.0</ele>
<speed>4.5</speed>
<course>26.0</course>
<desc>Speed 4.5 km/h Distance 3.37 km</desc>
<time>2010-03-14T11:07:49.17</time>
<name>2549</name>
</trkpt>
<trkpt lat="48.938755" lon="8.688280">
<ele>353.0</ele>
<speed>4.9</speed>
<course>26.0</course>
<desc>Speed 4.9 km/h Distance 3.37 km</desc>
<time>2010-03-14T11:07:50.16</time>
<name>2550</name>
</trkpt>
<trkpt lat="48.938768" lon="8.688290">
<ele>353.5</ele>
<speed>5.0</speed>
<course>23.7</course>
<desc>Speed 5.0 km/h Distance 3.37 km</desc>
<time>2010-03-14T11:07:51.16</time>
<name>2551</name>
</trkpt>
<trkpt lat="48.938783" lon="8.688300">
<ele>353.5</ele>
<speed>4.9</speed>
<course>22.3</course>
<desc>Speed 4.9 km/h Distance 3.37 km</desc>
<time>2010-03-14T11:07:52.15</time>
<name>2552</name>
</trkpt>
<trkpt lat="48.938797" lon="8.688308">
<ele>354.0</ele>
<speed>5.0</speed>
<course>25.2</course>
<desc>Speed 5.0 km/h Distance 3.37 km</desc>
<time>2010-03-14T11:07:53.15</time>
<name>2553</name>
</trkpt>
<trkpt lat="48.938808" lon="8.688317">
<ele>354.0</ele>
<speed>4.9</speed>
<course>33.7</course>
<desc>Speed 4.9 km/h Distance 3.38 km</desc>
<time>2010-03-14T11:07:54.15</time>
<name>2554</name>
</trkpt>
<trkpt lat="48.938818" lon="8.688327">
<ele>354.0</ele>
<speed>4.8</speed>
<course>22.6</course>
<desc>Speed 4.8 km/h Distance 3.38 km</desc>
<time>2010-03-14T11:07:55.15</time>
<name>2555</name>
</trkpt>
<trkpt lat="48.938832" lon="8.688335">
<ele>354.0</ele>
<speed>5.0</speed>
<course>25.2</course>
<desc>Speed 5.0 km/h Distance 3.38 km</desc>
<time>2010-03-14T11:07:56.15</time>
<name>2556</name>
</trkpt>
<trkpt lat="48.938843" lon="8.688343">
<ele>354.0</ele>
<speed>4.5</speed>
<course>24.9</course>
<desc>Speed 4.5 km/h Distance 3.38 km</desc>
<time>2010-03-14T11:07:57.15</time>
<name>2557</name>
</trkpt>
<trkpt lat="48.938855" lon="8.688352">
<ele>354.5</ele>
<speed>4.7</speed>
<course>24.9</course>
<desc>Speed 4.7 km/h Distance 3.38 km</desc>
<time>2010-03-14T11:07:58.15</time>
<name>2558</name>
</trkpt>
<trkpt lat="48.938867" lon="8.688360">
<ele>354.5</ele>
<speed>4.4</speed>
<course>15.5</course>
<desc>Speed 4.4 km/h Distance 3.38 km</desc>
<time>2010-03-14T11:07:59.15</time>
<name>2559</name>
</trkpt>
<trkpt lat="48.938878" lon="8.688365">
<ele>355.0</ele>
<speed>4.7</speed>
<course>24.2</course>
<desc>Speed 4.7 km/h Distance 3.38 km</desc>
<time>2010-03-14T11:08:00.15</time>
<name>2560</name>
</trkpt>
<trkpt lat="48.938888" lon="8.688372">
<ele>355.0</ele>
<speed>4.1</speed>
<course>18.4</course>
<desc>Speed 4.1 km/h Distance 3.38 km</desc>
<time>2010-03-14T11:08:01.16</time>
<name>2561</name>
</trkpt>
<trkpt lat="48.938902" lon="8.688378">
<ele>355.0</ele>
<speed>4.6</speed>
<course>25.2</course>
<desc>Speed 4.6 km/h Distance 3.39 km</desc>
<time>2010-03-14T11:08:02.16</time>
<name>2562</name>
</trkpt>
<trkpt lat="48.938913" lon="8.688387">
<ele>355.0</ele>
<speed>4.7</speed>
<course>29.2</course>
<desc>Speed 4.7 km/h Distance 3.39 km</desc>
<time>2010-03-14T11:08:03.15</time>
<name>2563</name>
</trkpt>
<trkpt lat="48.938925" lon="8.688397">
<ele>355.5</ele>
<speed>4.6</speed>
<course>18.1</course>
<desc>Speed 4.6 km/h Distance 3.39 km</desc>
<time>2010-03-14T11:08:04.15</time>
<name>2564</name>
</trkpt>
<trkpt lat="48.938938" lon="8.688403">
<ele>355.5</ele>
<speed>4.3</speed>
<course>4.7</course>
<desc>Speed 4.3 km/h Distance 3.39 km</desc>
<time>2010-03-14T11:08:05.15</time>
<name>2565</name>
</trkpt>
<trkpt lat="48.938950" lon="8.688405">
<ele>355.5</ele>
<speed>4.0</speed>
<course>18.2</course>
<desc>Speed 4.0 km/h Distance 3.39 km</desc>
<time>2010-03-14T11:08:06.15</time>
<name>2566</name>
</trkpt>
<trkpt lat="48.938960" lon="8.688410">
<ele>355.5</ele>
<speed>3.9</speed>
<course>18.2</course>
<desc>Speed 3.9 km/h Distance 3.39 km</desc>
<time>2010-03-14T11:08:07.15</time>
<name>2567</name>
</trkpt>
<trkpt lat="48.938970" lon="8.688415">
<ele>355.5</ele>
<speed>4.6</speed>
<course>10.4</course>
<desc>Speed 4.6 km/h Distance 3.39 km</desc>
<time>2010-03-14T11:08:08.15</time>
<name>2568</name>
</trkpt>
<trkpt lat="48.938982" lon="8.688418">
<ele>355.5</ele>
<speed>4.7</speed>
<course>9.0</course>
<desc>Speed 4.7 km/h Distance 3.40 km</desc>
<time>2010-03-14T11:08:09.15</time>
<name>2569</name>
</trkpt>
<trkpt lat="48.938995" lon="8.688422">
<ele>355.0</ele>
<speed>4.7</speed>
<course>18.2</course>
<desc>Speed 4.7 km/h Distance 3.40 km</desc>
<time>2010-03-14T11:08:10.15</time>
<name>2570</name>
</trkpt>
<trkpt lat="48.939005" lon="8.688427">
<ele>355.0</ele>
<speed>4.1</speed>
<course>21.5</course>
<desc>Speed 4.1 km/h Distance 3.40 km</desc>
<time>2010-03-14T11:08:11.15</time>
<name>2571</name>
</trkpt>
<trkpt lat="48.939013" lon="8.688432">
<ele>354.5</ele>
<speed>3.3</speed>
<course>16.0</course>
<desc>Speed 3.3 km/h Distance 3.40 km</desc>
<time>2010-03-14T11:08:12.15</time>
<name>2572</name>
</trkpt>
<trkpt lat="48.939025" lon="8.688437">
<ele>354.5</ele>
<speed>4.4</speed>
<course>18.2</course>
<desc>Speed 4.4 km/h Distance 3.40 km</desc>
<time>2010-03-14T11:08:13.15</time>
<name>2573</name>
</trkpt>
<trkpt lat="48.939035" lon="8.688442">
<ele>354.0</ele>
<speed>4.0</speed>
<course>17.6</course>
<desc>Speed 4.0 km/h Distance 3.40 km</desc>
<time>2010-03-14T11:08:14.15</time>
<name>2574</name>
</trkpt>
<trkpt lat="48.939045" lon="8.688447">
<ele>354.0</ele>
<speed>4.0</speed>
<course>11.2</course>
<desc>Speed 4.0 km/h Distance 3.40 km</desc>
<time>2010-03-14T11:08:15.15</time>
<name>2575</name>
</trkpt>
<trkpt lat="48.939057" lon="8.688450">
<ele>354.0</ele>
<speed>4.6</speed>
<course>14.4</course>
<desc>Speed 4.6 km/h Distance 3.40 km</desc>
<time>2010-03-14T11:08:16.15</time>
<name>2576</name>
</trkpt>
<trkpt lat="48.939070" lon="8.688455">
<ele>354.0</ele>
<speed>4.6</speed>
<course>9.0</course>
<desc>Speed 4.6 km/h Distance 3.41 km</desc>
<time>2010-03-14T11:08:17.15</time>
<name>2577</name>
</trkpt>
<trkpt lat="48.939083" lon="8.688458">
<ele>354.0</ele>
<speed>4.9</speed>
<course>22.3</course>
<desc>Speed 4.9 km/h Distance 3.41 km</desc>
<time>2010-03-14T11:08:18.15</time>
<name>2578</name>
</trkpt>
<trkpt lat="48.939097" lon="8.688467">
<ele>354.0</ele>
<speed>5.1</speed>
<course>22.1</course>
<desc>Speed 5.1 km/h Distance 3.41 km</desc>
<time>2010-03-14T11:08:19.14</time>
<name>2579</name>
</trkpt>
<trkpt lat="48.939110" lon="8.688475">
<ele>354.0</ele>
<speed>5.0</speed>
<course>25.2</course>
<desc>Speed 5.0 km/h Distance 3.41 km</desc>
<time>2010-03-14T11:08:20.14</time>
<name>2580</name>
</trkpt>
<trkpt lat="48.939122" lon="8.688483">
<ele>354.0</ele>
<speed>4.8</speed>
<course>18.1</course>
<desc>Speed 4.8 km/h Distance 3.41 km</desc>
<time>2010-03-14T11:08:21.14</time>
<name>2581</name>
</trkpt>
<trkpt lat="48.939135" lon="8.688490">
<ele>354.5</ele>
<speed>5.0</speed>
<course>16.3</course>
<desc>Speed 5.0 km/h Distance 3.41 km</desc>
<time>2010-03-14T11:08:22.14</time>
<name>2582</name>
</trkpt>
<trkpt lat="48.939150" lon="8.688497">
<ele>354.5</ele>
<speed>5.1</speed>
<course>15.5</course>
<desc>Speed 5.1 km/h Distance 3.42 km</desc>
<time>2010-03-14T11:08:23.15</time>
<name>2583</name>
</trkpt>
<trkpt lat="48.939162" lon="8.688502">
<ele>354.5</ele>
<speed>4.8</speed>
<course>13.5</course>
<desc>Speed 4.8 km/h Distance 3.42 km</desc>
<time>2010-03-14T11:08:24.15</time>
<name>2584</name>
</trkpt>
<trkpt lat="48.939175" lon="8.688507">
<ele>355.0</ele>
<speed>4.6</speed>
<course>20.9</course>
<desc>Speed 4.6 km/h Distance 3.42 km</desc>
<time>2010-03-14T11:08:25.14</time>
<name>2585</name>
</trkpt>
<trkpt lat="48.939187" lon="8.688513">
<ele>355.0</ele>
<speed>4.7</speed>
<course>20.2</course>
<desc>Speed 4.7 km/h Distance 3.42 km</desc>
<time>2010-03-14T11:08:26.14</time>
<name>2586</name>
</trkpt>
<trkpt lat="48.939198" lon="8.688520">
<ele>355.5</ele>
<speed>4.6</speed>
<course>13.5</course>
<desc>Speed 4.6 km/h Distance 3.42 km</desc>
<time>2010-03-14T11:08:27.14</time>
<name>2587</name>
</trkpt>
<trkpt lat="48.939212" lon="8.688525">
<ele>355.5</ele>
<speed>4.6</speed>
<course>18.1</course>
<desc>Speed 4.6 km/h Distance 3.42 km</desc>
<time>2010-03-14T11:08:28.14</time>
<name>2588</name>
</trkpt>
<trkpt lat="48.939225" lon="8.688532">
<ele>356.0</ele>
<speed>5.0</speed>
<course>18.1</course>
<desc>Speed 5.0 km/h Distance 3.42 km</desc>
<time>2010-03-14T11:08:29.14</time>
<name>2589</name>
</trkpt>
<trkpt lat="48.939238" lon="8.688538">
<ele>356.0</ele>
<speed>4.7</speed>
<course>18.4</course>
<desc>Speed 4.7 km/h Distance 3.43 km</desc>
<time>2010-03-14T11:08:30.14</time>
<name>2590</name>
</trkpt>
<trkpt lat="48.939252" lon="8.688545">
<ele>356.0</ele>
<speed>4.7</speed>
<course>16.0</course>
<desc>Speed 4.7 km/h Distance 3.43 km</desc>
<time>2010-03-14T11:08:31.14</time>
<name>2591</name>
</trkpt>
<trkpt lat="48.939263" lon="8.688550">
<ele>356.5</ele>
<speed>4.6</speed>
<course>16.0</course>
<desc>Speed 4.6 km/h Distance 3.43 km</desc>
<time>2010-03-14T11:08:32.14</time>
<name>2592</name>
</trkpt>
<trkpt lat="48.939275" lon="8.688555">
<ele>356.5</ele>
<speed>4.6</speed>
<course>16.0</course>
<desc>Speed 4.6 km/h Distance 3.43 km</desc>
<time>2010-03-14T11:08:33.14</time>
<name>2593</name>
</trkpt>
<trkpt lat="48.939287" lon="8.688560">
<ele>356.5</ele>
<speed>4.5</speed>
<course>12.6</course>
<desc>Speed 4.5 km/h Distance 3.43 km</desc>
<time>2010-03-14T11:08:34.14</time>
<name>2594</name>
</trkpt>
<trkpt lat="48.939297" lon="8.688563">
<ele>356.5</ele>
<speed>3.7</speed>
<course>15.5</course>
<desc>Speed 3.7 km/h Distance 3.43 km</desc>
<time>2010-03-14T11:08:35.14</time>
<name>2595</name>
</trkpt>
<trkpt lat="48.939308" lon="8.688568">
<ele>356.5</ele>
<speed>4.6</speed>
<course>17.6</course>
<desc>Speed 4.6 km/h Distance 3.43 km</desc>
<time>2010-03-14T11:08:36.14</time>
<name>2596</name>
</trkpt>
<trkpt lat="48.939318" lon="8.688573">
<ele>356.5</ele>
<speed>4.7</speed>
<course>15.5</course>
<desc>Speed 4.7 km/h Distance 3.44 km</desc>
<time>2010-03-14T11:08:37.14</time>
<name>2597</name>
</trkpt>
<trkpt lat="48.939330" lon="8.688578">
<ele>357.0</ele>
<speed>4.5</speed>
<course>15.5</course>
<desc>Speed 4.5 km/h Distance 3.44 km</desc>
<time>2010-03-14T11:08:38.14</time>
<name>2598</name>
</trkpt>
<trkpt lat="48.939342" lon="8.688583">
<ele>357.0</ele>
<speed>4.5</speed>
<course>11.2</course>
<desc>Speed 4.5 km/h Distance 3.44 km</desc>
<time>2010-03-14T11:08:39.14</time>
<name>2599</name>
</trkpt>
<trkpt lat="48.939353" lon="8.688587">
<ele>357.0</ele>
<speed>4.2</speed>
<course>18.2</course>
<desc>Speed 4.2 km/h Distance 3.44 km</desc>
<time>2010-03-14T11:08:40.14</time>
<name>2600</name>
</trkpt>
<trkpt lat="48.939363" lon="8.688592">
<ele>356.5</ele>
<speed>4.4</speed>
<course>16.0</course>
<desc>Speed 4.4 km/h Distance 3.44 km</desc>
<time>2010-03-14T11:08:41.14</time>
<name>2601</name>
</trkpt>
<trkpt lat="48.939375" lon="8.688597">
<ele>356.5</ele>
<speed>4.3</speed>
<course>16.6</course>
<desc>Speed 4.3 km/h Distance 3.44 km</desc>
<time>2010-03-14T11:08:42.14</time>
<name>2602</name>
</trkpt>
<trkpt lat="48.939393" lon="8.688605">
<ele>358.0</ele>
<speed>4.6</speed>
<course>16.6</course>
<desc>Speed 4.6 km/h Distance 3.44 km</desc>
<time>2010-03-14T11:08:43.14</time>
<name>2603</name>
</trkpt>
<trkpt lat="48.939408" lon="8.688612">
<ele>358.0</ele>
<speed>4.8</speed>
<course>20.1</course>
<desc>Speed 4.8 km/h Distance 3.45 km</desc>
<time>2010-03-14T11:08:44.14</time>
<name>2604</name>
</trkpt>
<trkpt lat="48.939423" lon="8.688620">
<ele>358.5</ele>
<speed>4.5</speed>
<course>21.5</course>
<desc>Speed 4.5 km/h Distance 3.45 km</desc>
<time>2010-03-14T11:08:45.14</time>
<name>2605</name>
</trkpt>
<trkpt lat="48.939440" lon="8.688630">
<ele>359.5</ele>
<speed>5.1</speed>
<course>18.0</course>
<desc>Speed 5.1 km/h Distance 3.45 km</desc>
<time>2010-03-14T11:08:46.14</time>
<name>2606</name>
</trkpt>
<trkpt lat="48.939460" lon="8.688640">
<ele>360.5</ele>
<speed>4.9</speed>
<course>22.3</course>
<desc>Speed 4.9 km/h Distance 3.45 km</desc>
<time>2010-03-14T11:08:47.13</time>
<name>2607</name>
</trkpt>
<trkpt lat="48.939473" lon="8.688648">
<ele>360.5</ele>
<speed>5.1</speed>
<course>18.1</course>
<desc>Speed 5.1 km/h Distance 3.45 km</desc>
<time>2010-03-14T11:08:48.14</time>
<name>2608</name>
</trkpt>
<trkpt lat="48.939487" lon="8.688655">
<ele>360.5</ele>
<speed>5.0</speed>
<course>22.1</course>
<desc>Speed 5.0 km/h Distance 3.45 km</desc>
<time>2010-03-14T11:08:49.14</time>
<name>2609</name>
</trkpt>
<trkpt lat="48.939500" lon="8.688663">
<ele>360.5</ele>
<speed>5.1</speed>
<course>25.2</course>
<desc>Speed 5.1 km/h Distance 3.46 km</desc>
<time>2010-03-14T11:08:50.14</time>
<name>2610</name>
</trkpt>
<trkpt lat="48.939512" lon="8.688672">
<ele>360.5</ele>
<speed>5.1</speed>
<course>25.2</course>
<desc>Speed 5.1 km/h Distance 3.46 km</desc>
<time>2010-03-14T11:08:51.14</time>
<name>2611</name>
</trkpt>
<trkpt lat="48.939523" lon="8.688680">
<ele>360.5</ele>
<speed>4.9</speed>
<course>20.9</course>
<desc>Speed 4.9 km/h Distance 3.46 km</desc>
<time>2010-03-14T11:08:52.13</time>
<name>2612</name>
</trkpt>
<trkpt lat="48.939535" lon="8.688687">
<ele>361.0</ele>
<speed>4.5</speed>
<course>18.1</course>
<desc>Speed 4.5 km/h Distance 3.46 km</desc>
<time>2010-03-14T11:08:53.13</time>
<name>2613</name>
</trkpt>
<trkpt lat="48.939548" lon="8.688693">
<ele>361.0</ele>
<speed>4.8</speed>
<course>21.0</course>
<desc>Speed 4.8 km/h Distance 3.46 km</desc>
<time>2010-03-14T11:08:55.27</time>
<name>2614</name>
</trkpt>
<trkpt lat="48.939588" lon="8.688717">
<ele>361.5</ele>
<speed>5.9</speed>
<course>20.6</course>
<desc>Speed 5.9 km/h Distance 3.47 km</desc>
<time>2010-03-14T11:08:57.14</time>
<name>2615</name>
</trkpt>
<trkpt lat="48.939600" lon="8.688723">
<ele>361.5</ele>
<speed>4.9</speed>
<course>24.9</course>
<desc>Speed 4.9 km/h Distance 3.47 km</desc>
<time>2010-03-14T11:08:58.13</time>
<name>2616</name>
</trkpt>
<trkpt lat="48.939612" lon="8.688732">
<ele>361.5</ele>
<speed>4.6</speed>
<course>20.9</course>
<desc>Speed 4.6 km/h Distance 3.47 km</desc>
<time>2010-03-14T11:08:59.14</time>
<name>2617</name>
</trkpt>
<trkpt lat="48.939623" lon="8.688738">
<ele>361.5</ele>
<speed>3.9</speed>
<course>29.2</course>
<desc>Speed 3.9 km/h Distance 3.47 km</desc>
<time>2010-03-14T11:09:00.13</time>
<name>2618</name>
</trkpt>
<trkpt lat="48.939633" lon="8.688747">
<ele>361.5</ele>
<speed>4.1</speed>
<course>30.8</course>
<desc>Speed 4.1 km/h Distance 3.47 km</desc>
<time>2010-03-14T11:09:01.14</time>
<name>2619</name>
</trkpt>
<trkpt lat="48.939650" lon="8.688762">
<ele>361.5</ele>
<speed>6.0</speed>
<course>16.0</course>
<desc>Speed 6.0 km/h Distance 3.47 km</desc>
<time>2010-03-14T11:09:02.14</time>
<name>2620</name>
</trkpt>
<trkpt lat="48.939662" lon="8.688767">
<ele>361.5</ele>
<speed>3.3</speed>
<course>30.2</course>
<desc>Speed 3.3 km/h Distance 3.48 km</desc>
<time>2010-03-14T11:09:03.13</time>
<name>2621</name>
</trkpt>
<trkpt lat="48.939705" lon="8.688805">
<ele>362.0</ele>
<speed>0.8</speed>
<course>25.2</course>
<desc>Speed 0.8 km/h Distance 3.48 km</desc>
<time>2010-03-14T11:09:05.12</time>
<name>2622</name>
</trkpt>
<trkpt lat="48.939717" lon="8.688813">
<ele>362.5</ele>
<speed>0.3</speed>
<course>16.0</course>
<desc>Speed 0.3 km/h Distance 3.48 km</desc>
<time>2010-03-14T11:09:06.11</time>
<name>2623</name>
</trkpt>
<trkpt lat="48.939728" lon="8.688818">
<ele>362.5</ele>
<speed>1.1</speed>
<course>3.9</course>
<desc>Speed 1.1 km/h Distance 3.48 km</desc>
<time>2010-03-14T11:09:07.12</time>
<name>2624</name>
</trkpt>
<trkpt lat="48.939742" lon="8.688820">
<ele>362.5</ele>
<speed>1.5</speed>
<course>40.9</course>
<desc>Speed 1.5 km/h Distance 3.49 km</desc>
<time>2010-03-14T11:09:08.11</time>
<name>2625</name>
</trkpt>
<trkpt lat="48.939747" lon="8.688827">
<ele>363.0</ele>
<speed>0.5</speed>
<course>20.8</course>
<desc>Speed 0.5 km/h Distance 3.49 km</desc>
<time>2010-03-14T11:09:09.13</time>
<name>2626</name>
</trkpt>
<trkpt lat="48.939755" lon="8.688832">
<ele>363.0</ele>
<speed>1.0</speed>
<course>347.4</course>
<desc>Speed 1.0 km/h Distance 3.49 km</desc>
<time>2010-03-14T11:09:10.17</time>
<name>2627</name>
</trkpt>
<trkpt lat="48.939760" lon="8.688830">
<ele>363.0</ele>
<speed>1.0</speed>
<course>296.6</course>
<desc>Speed 1.0 km/h Distance 3.49 km</desc>
<time>2010-03-14T11:09:11.10</time>
<name>2628</name>
</trkpt>
<trkpt lat="48.939762" lon="8.688825">
<ele>363.0</ele>
<speed>0.9</speed>
<course>37.2</course>
<desc>Speed 0.9 km/h Distance 3.49 km</desc>
<time>2010-03-14T11:09:12.10</time>
<name>2629</name>
</trkpt>
<trkpt lat="48.939763" lon="8.688827">
<ele>363.0</ele>
<speed>0.1</speed>
<course>12.6</course>
<desc>Speed 0.1 km/h Distance 3.49 km</desc>
<time>2010-03-14T11:09:13.12</time>
<name>2630</name>
</trkpt>
<trkpt lat="48.939765" lon="8.688827">
<ele>363.0</ele>
<speed>0.2</speed>
<course>12.6</course>
<desc>Speed 0.2 km/h Distance 3.49 km</desc>
<time>2010-03-14T11:09:14.09</time>
<name>2631</name>
</trkpt>
<trkpt lat="48.939767" lon="8.688827">
<ele>363.0</ele>
<speed>0.1</speed>
<course>12.6</course>
<desc>Speed 0.1 km/h Distance 3.49 km</desc>
<time>2010-03-14T11:09:15.09</time>
<name>2632</name>
</trkpt>
<trkpt lat="48.939768" lon="8.688827">
<ele>363.0</ele>
<speed>0.2</speed>
<course>0.0</course>
<desc>Speed 0.2 km/h Distance 3.49 km</desc>
<time>2010-03-14T11:09:16.11</time>
<name>2633</name>
</trkpt>
<trkpt lat="48.939770" lon="8.688827">
<ele>363.0</ele>
<speed>0.1</speed>
<course>90.0</course>
<desc>Speed 0.1 km/h Distance 3.49 km</desc>
<time>2010-03-14T11:09:17.08</time>
<name>2634</name>
</trkpt>
<trkpt lat="48.939770" lon="8.688828">
<ele>363.0</ele>
<speed>0.2</speed>
<course>270.0</course>
<desc>Speed 0.2 km/h Distance 3.49 km</desc>
<time>2010-03-14T11:09:18.08</time>
<name>2635</name>
</trkpt>
<trkpt lat="48.939770" lon="8.688827">
<ele>363.0</ele>
<speed>1.4</speed>
<course>167.4</course>
<desc>Speed 1.4 km/h Distance 3.49 km</desc>
<time>2010-03-14T11:09:19.08</time>
<name>2636</name>
</trkpt>
<trkpt lat="48.939768" lon="8.688828">
<ele>365.0</ele>
<speed>0.9</speed>
<course>236.7</course>
<desc>Speed 0.9 km/h Distance 3.49 km</desc>
<time>2010-03-14T11:09:20.08</time>
<name>2637</name>
</trkpt>
<trkpt lat="48.939763" lon="8.688817">
<ele>365.0</ele>
<speed>0.5</speed>
<course>150.8</course>
<desc>Speed 0.5 km/h Distance 3.49 km</desc>
<time>2010-03-14T11:09:21.08</time>
<name>2638</name>
</trkpt>
<trkpt lat="48.939762" lon="8.688817">
<ele>364.5</ele>
<speed>1.4</speed>
<course>146.3</course>
<desc>Speed 1.4 km/h Distance 3.49 km</desc>
<time>2010-03-14T11:09:22.10</time>
<name>2639</name>
</trkpt>
<trkpt lat="48.939758" lon="8.688820">
<ele>365.5</ele>
<speed>2.2</speed>
<course>74.5</course>
<desc>Speed 2.2 km/h Distance 3.49 km</desc>
<time>2010-03-14T11:09:23.07</time>
<name>2640</name>
</trkpt>
<trkpt lat="48.939762" lon="8.688838">
<ele>368.0</ele>
<speed>1.1</speed>
<course>73.3</course>
<desc>Speed 1.1 km/h Distance 3.49 km</desc>
<time>2010-03-14T11:09:24.15</time>
<name>2641</name>
</trkpt>
<trkpt lat="48.939763" lon="8.688847">
<ele>369.0</ele>
<speed>0.2</speed>
<course>58.6</course>
<desc>Speed 0.2 km/h Distance 3.49 km</desc>
<time>2010-03-14T11:09:25.07</time>
<name>2642</name>
</trkpt>
<trkpt lat="48.939767" lon="8.688855">
<ele>370.0</ele>
<speed>0.6</speed>
<course>49.9</course>
<desc>Speed 0.6 km/h Distance 3.49 km</desc>
<time>2010-03-14T11:09:26.06</time>
<name>2643</name>
</trkpt>
<trkpt lat="48.939775" lon="8.688870">
<ele>371.0</ele>
<speed>3.1</speed>
<course>55.9</course>
<desc>Speed 3.1 km/h Distance 3.50 km</desc>
<time>2010-03-14T11:09:27.06</time>
<name>2644</name>
</trkpt>
<trkpt lat="48.939782" lon="8.688885">
<ele>375.5</ele>
<speed>4.8</speed>
<course>29.4</course>
<desc>Speed 4.8 km/h Distance 3.50 km</desc>
<time>2010-03-14T11:09:28.06</time>
<name>2645</name>
</trkpt>
<trkpt lat="48.939793" lon="8.688895">
<ele>376.0</ele>
<speed>4.4</speed>
<course>25.2</course>
<desc>Speed 4.4 km/h Distance 3.50 km</desc>
<time>2010-03-14T11:09:29.06</time>
<name>2646</name>
</trkpt>
<trkpt lat="48.939805" lon="8.688903">
<ele>377.5</ele>
<speed>4.5</speed>
<course>49.0</course>
<desc>Speed 4.5 km/h Distance 3.50 km</desc>
<time>2010-03-14T11:09:30.06</time>
<name>2647</name>
</trkpt>
<trkpt lat="48.939818" lon="8.688927">
<ele>377.0</ele>
<speed>5.0</speed>
<course>36.9</course>
<desc>Speed 5.0 km/h Distance 3.50 km</desc>
<time>2010-03-14T11:09:31.06</time>
<name>2648</name>
</trkpt>
<trkpt lat="48.939830" lon="8.688940">
<ele>377.5</ele>
<speed>5.1</speed>
<course>17.6</course>
<desc>Speed 5.1 km/h Distance 3.50 km</desc>
<time>2010-03-14T11:09:32.06</time>
<name>2649</name>
</trkpt>
<trkpt lat="48.939840" lon="8.688945">
<ele>379.0</ele>
<speed>4.9</speed>
<course>351.9</course>
<desc>Speed 4.9 km/h Distance 3.51 km</desc>
<time>2010-03-14T11:09:33.06</time>
<name>2650</name>
</trkpt>
<trkpt lat="48.939855" lon="8.688942">
<ele>379.5</ele>
<speed>5.6</speed>
<course>18.2</course>
<desc>Speed 5.6 km/h Distance 3.51 km</desc>
<time>2010-03-14T11:09:34.06</time>
<name>2651</name>
</trkpt>
<trkpt lat="48.939865" lon="8.688947">
<ele>377.5</ele>
<speed>4.1</speed>
<course>351.9</course>
<desc>Speed 4.1 km/h Distance 3.51 km</desc>
<time>2010-03-14T11:09:35.05</time>
<name>2652</name>
</trkpt>
<trkpt lat="48.939875" lon="8.688945">
<ele>379.5</ele>
<speed>4.2</speed>
<course>2.2</course>
<desc>Speed 4.2 km/h Distance 3.51 km</desc>
<time>2010-03-14T11:09:36.05</time>
<name>2653</name>
</trkpt>
<trkpt lat="48.939887" lon="8.688945">
<ele>381.0</ele>
<speed>4.9</speed>
<course>326.3</course>
<desc>Speed 4.9 km/h Distance 3.51 km</desc>
<time>2010-03-14T11:09:37.05</time>
<name>2654</name>
</trkpt>
<trkpt lat="48.939890" lon="8.688942">
<ele>382.5</ele>
<speed>1.6</speed>
<course>39.4</course>
<desc>Speed 1.6 km/h Distance 3.51 km</desc>
<time>2010-03-14T11:09:38.05</time>
<name>2655</name>
</trkpt>
<trkpt lat="48.939897" lon="8.688950">
<ele>384.0</ele>
<speed>3.6</speed>
<course>23.7</course>
<desc>Speed 3.6 km/h Distance 3.51 km</desc>
<time>2010-03-14T11:09:39.05</time>
<name>2656</name>
</trkpt>
<trkpt lat="48.939912" lon="8.688960">
<ele>385.0</ele>
<speed>6.0</speed>
<course>23.8</course>
<desc>Speed 6.0 km/h Distance 3.51 km</desc>
<time>2010-03-14T11:09:40.05</time>
<name>2657</name>
</trkpt>
<trkpt lat="48.939922" lon="8.688967">
<ele>384.5</ele>
<speed>4.5</speed>
<course>11.8</course>
<desc>Speed 4.5 km/h Distance 3.51 km</desc>
<time>2010-03-14T11:09:41.04</time>
<name>2658</name>
</trkpt>
<trkpt lat="48.939943" lon="8.688973">
<ele>385.0</ele>
<speed>7.9</speed>
<course>8.8</course>
<desc>Speed 7.9 km/h Distance 3.52 km</desc>
<time>2010-03-14T11:09:42.05</time>
<name>2659</name>
</trkpt>
<trkpt lat="48.939958" lon="8.688977">
<ele>386.0</ele>
<speed>5.8</speed>
<course>347.4</course>
<desc>Speed 5.8 km/h Distance 3.52 km</desc>
<time>2010-03-14T11:09:43.04</time>
<name>2660</name>
</trkpt>
<trkpt lat="48.939968" lon="8.688973">
<ele>385.0</ele>
<speed>4.2</speed>
<course>5.0</course>
<desc>Speed 4.2 km/h Distance 3.52 km</desc>
<time>2010-03-14T11:09:44.04</time>
<name>2661</name>
</trkpt>
<trkpt lat="48.939977" lon="8.688973">
<ele>383.5</ele>
<speed>3.5</speed>
<course>7.7</course>
<desc>Speed 3.5 km/h Distance 3.52 km</desc>
<time>2010-03-14T11:09:45.04</time>
<name>2662</name>
</trkpt>
<trkpt lat="48.939985" lon="8.688975">
<ele>382.5</ele>
<speed>4.4</speed>
<course>18.2</course>
<desc>Speed 4.4 km/h Distance 3.52 km</desc>
<time>2010-03-14T11:09:46.04</time>
<name>2663</name>
</trkpt>
<trkpt lat="48.939995" lon="8.688980">
<ele>382.5</ele>
<speed>3.9</speed>
<course>252.9</course>
<desc>Speed 3.9 km/h Distance 3.52 km</desc>
<time>2010-03-14T11:09:47.04</time>
<name>2664</name>
</trkpt>
<trkpt lat="48.939993" lon="8.688972">
<ele>382.5</ele>
<speed>3.4</speed>
<course>218.1</course>
<desc>Speed 3.4 km/h Distance 3.52 km</desc>
<time>2010-03-14T11:09:48.05</time>
<name>2665</name>
</trkpt>
<trkpt lat="48.939985" lon="8.688962">
<ele>382.0</ele>
<speed>4.1</speed>
<course>167.4</course>
<desc>Speed 4.1 km/h Distance 3.53 km</desc>
<time>2010-03-14T11:09:49.03</time>
<name>2666</name>
</trkpt>
<trkpt lat="48.939983" lon="8.688962">
<ele>381.5</ele>
<speed>1.4</speed>
<course>17.1</course>
<desc>Speed 1.4 km/h Distance 3.53 km</desc>
<time>2010-03-14T11:09:50.03</time>
<name>2667</name>
</trkpt>
<trkpt lat="48.940012" lon="8.688975">
<ele>381.5</ele>
<speed>3.7</speed>
<course>347.4</course>
<desc>Speed 3.7 km/h Distance 3.53 km</desc>
<time>2010-03-14T11:09:52.03</time>
<name>2668</name>
</trkpt>
<trkpt lat="48.940017" lon="8.688973">
<ele>381.5</ele>
<speed>3.5</speed>
<course>11.6</course>
<desc>Speed 3.5 km/h Distance 3.53 km</desc>
<time>2010-03-14T11:09:53.04</time>
<name>2669</name>
</trkpt>
<trkpt lat="48.940027" lon="8.688977">
<ele>381.0</ele>
<speed>3.7</speed>
<course>14.9</course>
<desc>Speed 3.7 km/h Distance 3.53 km</desc>
<time>2010-03-14T11:09:54.04</time>
<name>2670</name>
</trkpt>
<trkpt lat="48.940035" lon="8.688980">
<ele>381.0</ele>
<speed>3.7</speed>
<course>26.4</course>
<desc>Speed 3.7 km/h Distance 3.53 km</desc>
<time>2010-03-14T11:09:55.04</time>
<name>2671</name>
</trkpt>
<trkpt lat="48.940042" lon="8.688985">
<ele>381.0</ele>
<speed>3.3</speed>
<course>12.6</course>
<desc>Speed 3.3 km/h Distance 3.53 km</desc>
<time>2010-03-14T11:09:56.03</time>
<name>2672</name>
</trkpt>
<trkpt lat="48.940047" lon="8.688987">
<ele>380.5</ele>
<speed>2.9</speed>
<course>21.5</course>
<desc>Speed 2.9 km/h Distance 3.53 km</desc>
<time>2010-03-14T11:09:57.03</time>
<name>2673</name>
</trkpt>
<trkpt lat="48.940055" lon="8.688992">
<ele>380.0</ele>
<speed>3.7</speed>
<course>12.6</course>
<desc>Speed 3.7 km/h Distance 3.53 km</desc>
<time>2010-03-14T11:09:58.02</time>
<name>2674</name>
</trkpt>
<trkpt lat="48.940065" lon="8.688995">
<ele>380.0</ele>
<speed>4.7</speed>
<course>18.2</course>
<desc>Speed 4.7 km/h Distance 3.53 km</desc>
<time>2010-03-14T11:09:59.03</time>
<name>2675</name>
</trkpt>
<trkpt lat="48.940075" lon="8.689000">
<ele>380.0</ele>
<speed>4.3</speed>
<course>14.9</course>
<desc>Speed 4.3 km/h Distance 3.54 km</desc>
<time>2010-03-14T11:10:00.03</time>
<name>2676</name>
</trkpt>
<trkpt lat="48.940083" lon="8.689003">
<ele>380.0</ele>
<speed>4.5</speed>
<course>20.9</course>
<desc>Speed 4.5 km/h Distance 3.54 km</desc>
<time>2010-03-14T11:10:01.04</time>
<name>2677</name>
</trkpt>
<trkpt lat="48.940095" lon="8.689010">
<ele>380.0</ele>
<speed>4.6</speed>
<course>14.9</course>
<desc>Speed 4.6 km/h Distance 3.54 km</desc>
<time>2010-03-14T11:10:02.03</time>
<name>2678</name>
</trkpt>
<trkpt lat="48.940103" lon="8.689013">
<ele>380.0</ele>
<speed>4.0</speed>
<course>18.2</course>
<desc>Speed 4.0 km/h Distance 3.54 km</desc>
<time>2010-03-14T11:10:03.02</time>
<name>2679</name>
</trkpt>
<trkpt lat="48.940113" lon="8.689018">
<ele>380.0</ele>
<speed>4.4</speed>
<course>18.2</course>
<desc>Speed 4.4 km/h Distance 3.54 km</desc>
<time>2010-03-14T11:10:04.02</time>
<name>2680</name>
</trkpt>
<trkpt lat="48.940123" lon="8.689023">
<ele>380.0</ele>
<speed>4.6</speed>
<course>21.5</course>
<desc>Speed 4.6 km/h Distance 3.54 km</desc>
<time>2010-03-14T11:10:05.03</time>
<name>2681</name>
</trkpt>
<trkpt lat="48.940132" lon="8.689028">
<ele>380.0</ele>
<speed>4.3</speed>
<course>18.2</course>
<desc>Speed 4.3 km/h Distance 3.54 km</desc>
<time>2010-03-14T11:10:06.03</time>
<name>2682</name>
</trkpt>
<trkpt lat="48.940142" lon="8.689033">
<ele>380.0</ele>
<speed>4.2</speed>
<course>18.2</course>
<desc>Speed 4.2 km/h Distance 3.54 km</desc>
<time>2010-03-14T11:10:07.03</time>
<name>2683</name>
</trkpt>
<trkpt lat="48.940152" lon="8.689038">
<ele>380.0</ele>
<speed>4.2</speed>
<course>18.2</course>
<desc>Speed 4.2 km/h Distance 3.54 km</desc>
<time>2010-03-14T11:10:08.02</time>
<name>2684</name>
</trkpt>
<trkpt lat="48.940162" lon="8.689043">
<ele>380.0</ele>
<speed>4.6</speed>
<course>15.5</course>
<desc>Speed 4.6 km/h Distance 3.55 km</desc>
<time>2010-03-14T11:10:09.02</time>
<name>2685</name>
</trkpt>
<trkpt lat="48.940173" lon="8.689048">
<ele>380.0</ele>
<speed>4.5</speed>
<course>18.2</course>
<desc>Speed 4.5 km/h Distance 3.55 km</desc>
<time>2010-03-14T11:10:10.03</time>
<name>2686</name>
</trkpt>
<trkpt lat="48.940183" lon="8.689053">
<ele>380.0</ele>
<speed>4.5</speed>
<course>20.9</course>
<desc>Speed 4.5 km/h Distance 3.55 km</desc>
<time>2010-03-14T11:10:11.03</time>
<name>2687</name>
</trkpt>
<trkpt lat="48.940195" lon="8.689060">
<ele>380.0</ele>
<speed>4.8</speed>
<course>16.0</course>
<desc>Speed 4.8 km/h Distance 3.55 km</desc>
<time>2010-03-14T11:10:12.02</time>
<name>2688</name>
</trkpt>
<trkpt lat="48.940207" lon="8.689065">
<ele>380.5</ele>
<speed>4.6</speed>
<course>14.9</course>
<desc>Speed 4.6 km/h Distance 3.55 km</desc>
<time>2010-03-14T11:10:13.03</time>
<name>2689</name>
</trkpt>
<trkpt lat="48.940218" lon="8.689070">
<ele>380.5</ele>
<speed>4.6</speed>
<course>14.9</course>
<desc>Speed 4.6 km/h Distance 3.55 km</desc>
<time>2010-03-14T11:10:14.02</time>
<name>2690</name>
</trkpt>
<trkpt lat="48.940230" lon="8.689075">
<ele>380.5</ele>
<speed>4.4</speed>
<course>15.5</course>
<desc>Speed 4.4 km/h Distance 3.55 km</desc>
<time>2010-03-14T11:10:15.02</time>
<name>2691</name>
</trkpt>
<trkpt lat="48.940242" lon="8.689080">
<ele>381.0</ele>
<speed>4.4</speed>
<course>18.2</course>
<desc>Speed 4.4 km/h Distance 3.56 km</desc>
<time>2010-03-14T11:10:16.03</time>
<name>2692</name>
</trkpt>
<trkpt lat="48.940252" lon="8.689085">
<ele>381.0</ele>
<speed>4.5</speed>
<course>23.4</course>
<desc>Speed 4.5 km/h Distance 3.56 km</desc>
<time>2010-03-14T11:10:17.02</time>
<name>2693</name>
</trkpt>
<trkpt lat="48.940262" lon="8.689092">
<ele>381.0</ele>
<speed>3.9</speed>
<course>10.4</course>
<desc>Speed 3.9 km/h Distance 3.56 km</desc>
<time>2010-03-14T11:10:18.02</time>
<name>2694</name>
</trkpt>
<trkpt lat="48.940273" lon="8.689095">
<ele>381.0</ele>
<speed>4.4</speed>
<course>15.5</course>
<desc>Speed 4.4 km/h Distance 3.56 km</desc>
<time>2010-03-14T11:10:19.02</time>
<name>2695</name>
</trkpt>
<trkpt lat="48.940285" lon="8.689100">
<ele>381.0</ele>
<speed>4.4</speed>
<course>18.2</course>
<desc>Speed 4.4 km/h Distance 3.56 km</desc>
<time>2010-03-14T11:10:20.02</time>
<name>2696</name>
</trkpt>
<trkpt lat="48.940295" lon="8.689105">
<ele>381.0</ele>
<speed>4.3</speed>
<course>15.5</course>
<desc>Speed 4.3 km/h Distance 3.56 km</desc>
<time>2010-03-14T11:10:21.02</time>
<name>2697</name>
</trkpt>
<trkpt lat="48.940307" lon="8.689110">
<ele>381.0</ele>
<speed>4.7</speed>
<course>16.0</course>
<desc>Speed 4.7 km/h Distance 3.56 km</desc>
<time>2010-03-14T11:10:22.02</time>
<name>2698</name>
</trkpt>
<trkpt lat="48.940318" lon="8.689115">
<ele>381.0</ele>
<speed>4.5</speed>
<course>21.5</course>
<desc>Speed 4.5 km/h Distance 3.56 km</desc>
<time>2010-03-14T11:10:23.02</time>
<name>2699</name>
</trkpt>
<trkpt lat="48.940327" lon="8.689120">
<ele>381.0</ele>
<speed>3.6</speed>
<course>15.5</course>
<desc>Speed 3.6 km/h Distance 3.57 km</desc>
<time>2010-03-14T11:10:24.02</time>
<name>2700</name>
</trkpt>
<trkpt lat="48.940338" lon="8.689125">
<ele>381.0</ele>
<speed>4.1</speed>
<course>23.4</course>
<desc>Speed 4.1 km/h Distance 3.57 km</desc>
<time>2010-03-14T11:10:25.02</time>
<name>2701</name>
</trkpt>
<trkpt lat="48.940348" lon="8.689132">
<ele>381.0</ele>
<speed>4.2</speed>
<course>27.9</course>
<desc>Speed 4.2 km/h Distance 3.57 km</desc>
<time>2010-03-14T11:10:26.02</time>
<name>2702</name>
</trkpt>
<trkpt lat="48.940357" lon="8.689138">
<ele>381.0</ele>
<speed>4.2</speed>
<course>28.6</course>
<desc>Speed 4.2 km/h Distance 3.57 km</desc>
<time>2010-03-14T11:10:27.02</time>
<name>2703</name>
</trkpt>
<trkpt lat="48.940367" lon="8.689147">
<ele>381.0</ele>
<speed>3.9</speed>
<course>39.4</course>
<desc>Speed 3.9 km/h Distance 3.57 km</desc>
<time>2010-03-14T11:10:28.02</time>
<name>2704</name>
</trkpt>
<trkpt lat="48.940373" lon="8.689155">
<ele>381.0</ele>
<speed>3.6</speed>
<course>18.2</course>
<desc>Speed 3.6 km/h Distance 3.57 km</desc>
<time>2010-03-14T11:10:29.02</time>
<name>2705</name>
</trkpt>
<trkpt lat="48.940383" lon="8.689160">
<ele>381.0</ele>
<speed>4.1</speed>
<course>18.8</course>
<desc>Speed 4.1 km/h Distance 3.57 km</desc>
<time>2010-03-14T11:10:30.02</time>
<name>2706</name>
</trkpt>
<trkpt lat="48.940393" lon="8.689165">
<ele>381.0</ele>
<speed>4.3</speed>
<course>25.2</course>
<desc>Speed 4.3 km/h Distance 3.57 km</desc>
<time>2010-03-14T11:10:31.01</time>
<name>2707</name>
</trkpt>
<trkpt lat="48.940405" lon="8.689173">
<ele>380.5</ele>
<speed>4.4</speed>
<course>18.2</course>
<desc>Speed 4.4 km/h Distance 3.57 km</desc>
<time>2010-03-14T11:10:32.01</time>
<name>2708</name>
</trkpt>
<trkpt lat="48.940415" lon="8.689178">
<ele>380.5</ele>
<speed>4.1</speed>
<course>18.2</course>
<desc>Speed 4.1 km/h Distance 3.58 km</desc>
<time>2010-03-14T11:10:33.01</time>
<name>2709</name>
</trkpt>
<trkpt lat="48.940425" lon="8.689183">
<ele>380.5</ele>
<speed>4.1</speed>
<course>27.9</course>
<desc>Speed 4.1 km/h Distance 3.58 km</desc>
<time>2010-03-14T11:10:34.04</time>
<name>2710</name>
</trkpt>
<trkpt lat="48.940433" lon="8.689190">
<ele>380.5</ele>
<speed>3.5</speed>
<course>18.2</course>
<desc>Speed 3.5 km/h Distance 3.58 km</desc>
<time>2010-03-14T11:10:35.01</time>
<name>2711</name>
</trkpt>
<trkpt lat="48.940443" lon="8.689195">
<ele>380.5</ele>
<speed>4.0</speed>
<course>18.2</course>
<desc>Speed 4.0 km/h Distance 3.58 km</desc>
<time>2010-03-14T11:10:36.01</time>
<name>2712</name>
</trkpt>
<trkpt lat="48.940453" lon="8.689200">
<ele>380.5</ele>
<speed>4.1</speed>
<course>18.2</course>
<desc>Speed 4.1 km/h Distance 3.58 km</desc>
<time>2010-03-14T11:10:37.01</time>
<name>2713</name>
</trkpt>
<trkpt lat="48.940463" lon="8.689205">
<ele>380.5</ele>
<speed>4.0</speed>
<course>19.6</course>
<desc>Speed 4.0 km/h Distance 3.58 km</desc>
<time>2010-03-14T11:10:38.01</time>
<name>2714</name>
</trkpt>
<trkpt lat="48.940478" lon="8.689213">
<ele>381.5</ele>
<speed>4.2</speed>
<course>32.6</course>
<desc>Speed 4.2 km/h Distance 3.58 km</desc>
<time>2010-03-14T11:10:39.01</time>
<name>2715</name>
</trkpt>
<trkpt lat="48.940485" lon="8.689220">
<ele>381.5</ele>
<speed>3.3</speed>
<course>27.9</course>
<desc>Speed 3.3 km/h Distance 3.58 km</desc>
<time>2010-03-14T11:10:40.01</time>
<name>2716</name>
</trkpt>
<trkpt lat="48.940493" lon="8.689227">
<ele>381.0</ele>
<speed>3.3</speed>
<course>27.9</course>
<desc>Speed 3.3 km/h Distance 3.59 km</desc>
<time>2010-03-14T11:10:41.01</time>
<name>2717</name>
</trkpt>
<trkpt lat="48.940502" lon="8.689233">
<ele>381.0</ele>
<speed>3.3</speed>
<course>39.4</course>
<desc>Speed 3.3 km/h Distance 3.59 km</desc>
<time>2010-03-14T11:10:42.01</time>
<name>2718</name>
</trkpt>
<trkpt lat="48.940508" lon="8.689242">
<ele>380.5</ele>
<speed>3.3</speed>
<course>27.9</course>
<desc>Speed 3.3 km/h Distance 3.59 km</desc>
<time>2010-03-14T11:10:43.01</time>
<name>2719</name>
</trkpt>
<trkpt lat="48.940517" lon="8.689248">
<ele>380.5</ele>
<speed>3.7</speed>
<course>28.6</course>
<desc>Speed 3.7 km/h Distance 3.59 km</desc>
<time>2010-03-14T11:10:44.01</time>
<name>2720</name>
</trkpt>
<trkpt lat="48.940527" lon="8.689257">
<ele>380.5</ele>
<speed>4.0</speed>
<course>28.6</course>
<desc>Speed 4.0 km/h Distance 3.59 km</desc>
<time>2010-03-14T11:10:45.01</time>
<name>2721</name>
</trkpt>
<trkpt lat="48.940537" lon="8.689265">
<ele>380.5</ele>
<speed>3.9</speed>
<course>20.6</course>
<desc>Speed 3.9 km/h Distance 3.59 km</desc>
<time>2010-03-14T11:10:46.01</time>
<name>2722</name>
</trkpt>
<trkpt lat="48.940548" lon="8.689272">
<ele>381.0</ele>
<speed>3.8</speed>
<course>27.9</course>
<desc>Speed 3.8 km/h Distance 3.59 km</desc>
<time>2010-03-14T11:10:47.01</time>
<name>2723</name>
</trkpt>
<trkpt lat="48.940557" lon="8.689278">
<ele>381.0</ele>
<speed>3.7</speed>
<course>33.2</course>
<desc>Speed 3.7 km/h Distance 3.59 km</desc>
<time>2010-03-14T11:10:48.01</time>
<name>2724</name>
</trkpt>
<trkpt lat="48.940565" lon="8.689287">
<ele>380.5</ele>
<speed>3.9</speed>
<course>65.4</course>
<desc>Speed 3.9 km/h Distance 3.59 km</desc>
<time>2010-03-14T11:10:49.01</time>
<name>2725</name>
</trkpt>
<trkpt lat="48.940570" lon="8.689303">
<ele>381.0</ele>
<speed>4.7</speed>
<course>75.8</course>
<desc>Speed 4.7 km/h Distance 3.60 km</desc>
<time>2010-03-14T11:10:50.00</time>
<name>2726</name>
</trkpt>
<trkpt lat="48.940573" lon="8.689323">
<ele>381.0</ele>
<speed>5.1</speed>
<course>73.0</course>
<desc>Speed 5.1 km/h Distance 3.60 km</desc>
<time>2010-03-14T11:10:51.00</time>
<name>2727</name>
</trkpt>
<trkpt lat="48.940577" lon="8.689340">
<ele>381.5</ele>
<speed>4.2</speed>
<course>90.0</course>
<desc>Speed 4.2 km/h Distance 3.60 km</desc>
<time>2010-03-14T11:10:52.00</time>
<name>2728</name>
</trkpt>
<trkpt lat="48.940577" lon="8.689355">
<ele>381.0</ele>
<speed>3.9</speed>
<course>90.0</course>
<desc>Speed 3.9 km/h Distance 3.60 km</desc>
<time>2010-03-14T11:10:52.99</time>
<name>2729</name>
</trkpt>
<trkpt lat="48.940577" lon="8.689370">
<ele>381.0</ele>
<speed>4.0</speed>
<course>90.0</course>
<desc>Speed 4.0 km/h Distance 3.60 km</desc>
<time>2010-03-14T11:10:53.99</time>
<name>2730</name>
</trkpt>
<trkpt lat="48.940577" lon="8.689387">
<ele>381.0</ele>
<speed>4.6</speed>
<course>81.3</course>
<desc>Speed 4.6 km/h Distance 3.60 km</desc>
<time>2010-03-14T11:10:55.00</time>
<name>2731</name>
</trkpt>
<trkpt lat="48.940578" lon="8.689403">
<ele>381.0</ele>
<speed>4.2</speed>
<course>80.4</course>
<desc>Speed 4.2 km/h Distance 3.60 km</desc>
<time>2010-03-14T11:10:56.00</time>
<name>2732</name>
</trkpt>
<trkpt lat="48.940580" lon="8.689418">
<ele>381.0</ele>
<speed>4.1</speed>
<course>90.0</course>
<desc>Speed 4.1 km/h Distance 3.60 km</desc>
<time>2010-03-14T11:10:56.99</time>
<name>2733</name>
</trkpt>
<trkpt lat="48.940580" lon="8.689430">
<ele>381.0</ele>
<speed>3.4</speed>
<course>99.6</course>
<desc>Speed 3.4 km/h Distance 3.61 km</desc>
<time>2010-03-14T11:10:57.99</time>
<name>2734</name>
</trkpt>
<trkpt lat="48.940578" lon="8.689445">
<ele>380.5</ele>
<speed>4.1</speed>
<course>102.3</course>
<desc>Speed 4.1 km/h Distance 3.61 km</desc>
<time>2010-03-14T11:10:58.99</time>
<name>2735</name>
</trkpt>
<trkpt lat="48.940577" lon="8.689457">
<ele>380.0</ele>
<speed>3.6</speed>
<course>99.6</course>
<desc>Speed 3.6 km/h Distance 3.61 km</desc>
<time>2010-03-14T11:10:59.99</time>
<name>2736</name>
</trkpt>
<trkpt lat="48.940575" lon="8.689472">
<ele>380.0</ele>
<speed>4.1</speed>
<course>106.9</course>
<desc>Speed 4.1 km/h Distance 3.61 km</desc>
<time>2010-03-14T11:11:01.01</time>
<name>2737</name>
</trkpt>
<trkpt lat="48.940572" lon="8.689488">
<ele>380.0</ele>
<speed>4.4</speed>
<course>99.6</course>
<desc>Speed 4.4 km/h Distance 3.61 km</desc>
<time>2010-03-14T11:11:02.00</time>
<name>2738</name>
</trkpt>
<trkpt lat="48.940570" lon="8.689503">
<ele>379.5</ele>
<speed>4.1</speed>
<course>99.6</course>
<desc>Speed 4.1 km/h Distance 3.61 km</desc>
<time>2010-03-14T11:11:03.00</time>
<name>2739</name>
</trkpt>
<trkpt lat="48.940568" lon="8.689518">
<ele>379.5</ele>
<speed>3.7</speed>
<course>99.6</course>
<desc>Speed 3.7 km/h Distance 3.61 km</desc>
<time>2010-03-14T11:11:04.00</time>
<name>2740</name>
</trkpt>
<trkpt lat="48.940567" lon="8.689533">
<ele>379.0</ele>
<speed>4.1</speed>
<course>90.0</course>
<desc>Speed 4.1 km/h Distance 3.61 km</desc>
<time>2010-03-14T11:11:05.00</time>
<name>2741</name>
</trkpt>
<trkpt lat="48.940567" lon="8.689552">
<ele>379.5</ele>
<speed>4.7</speed>
<course>99.6</course>
<desc>Speed 4.7 km/h Distance 3.61 km</desc>
<time>2010-03-14T11:11:05.99</time>
<name>2742</name>
</trkpt>
<trkpt lat="48.940565" lon="8.689567">
<ele>378.5</ele>
<speed>3.9</speed>
<course>105.5</course>
<desc>Speed 3.9 km/h Distance 3.62 km</desc>
<time>2010-03-14T11:11:07.02</time>
<name>2743</name>
</trkpt>
<trkpt lat="48.940562" lon="8.689585">
<ele>378.5</ele>
<speed>4.9</speed>
<course>105.4</course>
<desc>Speed 4.9 km/h Distance 3.62 km</desc>
<time>2010-03-14T11:11:07.99</time>
<name>2744</name>
</trkpt>
<trkpt lat="48.940558" lon="8.689603">
<ele>378.5</ele>
<speed>4.5</speed>
<course>105.5</course>
<desc>Speed 4.5 km/h Distance 3.62 km</desc>
<time>2010-03-14T11:11:08.99</time>
<name>2745</name>
</trkpt>
<trkpt lat="48.940555" lon="8.689622">
<ele>379.0</ele>
<speed>5.0</speed>
<course>97.9</course>
<desc>Speed 5.0 km/h Distance 3.62 km</desc>
<time>2010-03-14T11:11:10.02</time>
<name>2746</name>
</trkpt>
<trkpt lat="48.940553" lon="8.689640">
<ele>379.0</ele>
<speed>5.4</speed>
<course>105.5</course>
<desc>Speed 5.4 km/h Distance 3.62 km</desc>
<time>2010-03-14T11:11:10.99</time>
<name>2747</name>
</trkpt>
<trkpt lat="48.940550" lon="8.689658">
<ele>379.0</ele>
<speed>5.1</speed>
<course>82.1</course>
<desc>Speed 5.1 km/h Distance 3.62 km</desc>
<time>2010-03-14T11:11:11.99</time>
<name>2748</name>
</trkpt>
<trkpt lat="48.940552" lon="8.689677">
<ele>379.5</ele>
<speed>4.4</speed>
<course>98.7</course>
<desc>Speed 4.4 km/h Distance 3.62 km</desc>
<time>2010-03-14T11:11:12.99</time>
<name>2749</name>
</trkpt>
<trkpt lat="48.940550" lon="8.689693">
<ele>380.0</ele>
<speed>4.5</speed>
<course>90.0</course>
<desc>Speed 4.5 km/h Distance 3.63 km</desc>
<time>2010-03-14T11:11:13.99</time>
<name>2750</name>
</trkpt>
<trkpt lat="48.940550" lon="8.689708">
<ele>380.0</ele>
<speed>4.1</speed>
<course>90.0</course>
<desc>Speed 4.1 km/h Distance 3.63 km</desc>
<time>2010-03-14T11:11:14.99</time>
<name>2751</name>
</trkpt>
<trkpt lat="48.940550" lon="8.689723">
<ele>380.5</ele>
<speed>3.9</speed>
<course>90.0</course>
<desc>Speed 3.9 km/h Distance 3.63 km</desc>
<time>2010-03-14T11:11:15.99</time>
<name>2752</name>
</trkpt>
<trkpt lat="48.940550" lon="8.689740">
<ele>380.5</ele>
<speed>4.2</speed>
<course>90.0</course>
<desc>Speed 4.2 km/h Distance 3.63 km</desc>
<time>2010-03-14T11:11:16.99</time>
<name>2753</name>
</trkpt>
<trkpt lat="48.940550" lon="8.689757">
<ele>381.0</ele>
<speed>4.6</speed>
<course>81.3</course>
<desc>Speed 4.6 km/h Distance 3.63 km</desc>
<time>2010-03-14T11:11:17.99</time>
<name>2754</name>
</trkpt>
<trkpt lat="48.940552" lon="8.689773">
<ele>381.0</ele>
<speed>4.2</speed>
<course>90.0</course>
<desc>Speed 4.2 km/h Distance 3.63 km</desc>
<time>2010-03-14T11:11:18.98</time>
<name>2755</name>
</trkpt>
<trkpt lat="48.940552" lon="8.689790">
<ele>381.5</ele>
<speed>4.0</speed>
<course>90.0</course>
<desc>Speed 4.0 km/h Distance 3.63 km</desc>
<time>2010-03-14T11:11:19.99</time>
<name>2756</name>
</trkpt>
<trkpt lat="48.940552" lon="8.689808">
<ele>381.5</ele>
<speed>4.2</speed>
<course>98.7</course>
<desc>Speed 4.2 km/h Distance 3.63 km</desc>
<time>2010-03-14T11:11:20.99</time>
<name>2757</name>
</trkpt>
<trkpt lat="48.940550" lon="8.689825">
<ele>381.0</ele>
<speed>3.9</speed>
<course>80.4</course>
<desc>Speed 3.9 km/h Distance 3.63 km</desc>
<time>2010-03-14T11:11:21.99</time>
<name>2758</name>
</trkpt>
<trkpt lat="48.940552" lon="8.689840">
<ele>381.0</ele>
<speed>3.3</speed>
<course>90.0</course>
<desc>Speed 3.3 km/h Distance 3.64 km</desc>
<time>2010-03-14T11:11:22.99</time>
<name>2759</name>
</trkpt>
<trkpt lat="48.940552" lon="8.689855">
<ele>381.0</ele>
<speed>3.3</speed>
<course>79.2</course>
<desc>Speed 3.3 km/h Distance 3.64 km</desc>
<time>2010-03-14T11:11:23.99</time>
<name>2760</name>
</trkpt>
<trkpt lat="48.940553" lon="8.689868">
<ele>380.5</ele>
<speed>3.1</speed>
<course>90.0</course>
<desc>Speed 3.1 km/h Distance 3.64 km</desc>
<time>2010-03-14T11:11:24.98</time>
<name>2761</name>
</trkpt>
<trkpt lat="48.940553" lon="8.689883">
<ele>380.5</ele>
<speed>3.2</speed>
<course>80.4</course>
<desc>Speed 3.2 km/h Distance 3.64 km</desc>
<time>2010-03-14T11:11:25.99</time>
<name>2762</name>
</trkpt>
<trkpt lat="48.940555" lon="8.689898">
<ele>380.5</ele>
<speed>3.2</speed>
<course>80.4</course>
<desc>Speed 3.2 km/h Distance 3.64 km</desc>
<time>2010-03-14T11:11:26.99</time>
<name>2763</name>
</trkpt>
<trkpt lat="48.940557" lon="8.689913">
<ele>380.0</ele>
<speed>3.6</speed>
<course>90.0</course>
<desc>Speed 3.6 km/h Distance 3.64 km</desc>
<time>2010-03-14T11:11:27.99</time>
<name>2764</name>
</trkpt>
<trkpt lat="48.940557" lon="8.689930">
<ele>380.0</ele>
<speed>3.9</speed>
<course>73.0</course>
<desc>Speed 3.9 km/h Distance 3.64 km</desc>
<time>2010-03-14T11:11:28.99</time>
<name>2765</name>
</trkpt>
<trkpt lat="48.940560" lon="8.689947">
<ele>380.0</ele>
<speed>3.8</speed>
<course>90.0</course>
<desc>Speed 3.8 km/h Distance 3.64 km</desc>
<time>2010-03-14T11:11:29.99</time>
<name>2766</name>
</trkpt>
<trkpt lat="48.940560" lon="8.689963">
<ele>379.5</ele>
<speed>3.7</speed>
<course>90.0</course>
<desc>Speed 3.7 km/h Distance 3.64 km</desc>
<time>2010-03-14T11:11:30.99</time>
<name>2767</name>
</trkpt>
<trkpt lat="48.940560" lon="8.689978">
<ele>379.0</ele>
<speed>3.7</speed>
<course>71.3</course>
<desc>Speed 3.7 km/h Distance 3.65 km</desc>
<time>2010-03-14T11:11:31.99</time>
<name>2768</name>
</trkpt>
<trkpt lat="48.940563" lon="8.689993">
<ele>379.0</ele>
<speed>3.4</speed>
<course>90.0</course>
<desc>Speed 3.4 km/h Distance 3.65 km</desc>
<time>2010-03-14T11:11:32.99</time>
<name>2769</name>
</trkpt>
<trkpt lat="48.940563" lon="8.690005">
<ele>378.0</ele>
<speed>2.7</speed>
<course>77.7</course>
<desc>Speed 2.7 km/h Distance 3.65 km</desc>
<time>2010-03-14T11:11:33.99</time>
<name>2770</name>
</trkpt>
<trkpt lat="48.940565" lon="8.690017">
<ele>377.5</ele>
<speed>2.6</speed>
<course>58.6</course>
<desc>Speed 2.6 km/h Distance 3.65 km</desc>
<time>2010-03-14T11:11:34.99</time>
<name>2771</name>
</trkpt>
<trkpt lat="48.940568" lon="8.690025">
<ele>377.0</ele>
<speed>2.8</speed>
<course>72.9</course>
<desc>Speed 2.8 km/h Distance 3.65 km</desc>
<time>2010-03-14T11:11:35.98</time>
<name>2772</name>
</trkpt>
<trkpt lat="48.940570" lon="8.690033">
<ele>377.0</ele>
<speed>2.7</speed>
<course>66.4</course>
<desc>Speed 2.7 km/h Distance 3.65 km</desc>
<time>2010-03-14T11:11:36.98</time>
<name>2773</name>
</trkpt>
<trkpt lat="48.940573" lon="8.690045">
<ele>376.0</ele>
<speed>2.8</speed>
<course>75.6</course>
<desc>Speed 2.8 km/h Distance 3.65 km</desc>
<time>2010-03-14T11:11:37.98</time>
<name>2774</name>
</trkpt>
<trkpt lat="48.940575" lon="8.690055">
<ele>376.0</ele>
<speed>2.8</speed>
<course>77.7</course>
<desc>Speed 2.8 km/h Distance 3.65 km</desc>
<time>2010-03-14T11:11:38.99</time>
<name>2775</name>
</trkpt>
<trkpt lat="48.940577" lon="8.690067">
<ele>376.0</ele>
<speed>2.6</speed>
<course>90.0</course>
<desc>Speed 2.6 km/h Distance 3.65 km</desc>
<time>2010-03-14T11:11:39.98</time>
<name>2776</name>
</trkpt>
<trkpt lat="48.940577" lon="8.690078">
<ele>376.0</ele>
<speed>3.1</speed>
<course>90.0</course>
<desc>Speed 3.1 km/h Distance 3.65 km</desc>
<time>2010-03-14T11:11:40.98</time>
<name>2777</name>
</trkpt>
<trkpt lat="48.940577" lon="8.690090">
<ele>376.0</ele>
<speed>2.9</speed>
<course>90.0</course>
<desc>Speed 2.9 km/h Distance 3.65 km</desc>
<time>2010-03-14T11:11:41.98</time>
<name>2778</name>
</trkpt>
<trkpt lat="48.940577" lon="8.690103">
<ele>376.0</ele>
<speed>3.0</speed>
<course>90.0</course>
<desc>Speed 3.0 km/h Distance 3.66 km</desc>
<time>2010-03-14T11:11:42.98</time>
<name>2779</name>
</trkpt>
<trkpt lat="48.940577" lon="8.690117">
<ele>376.0</ele>
<speed>3.2</speed>
<course>77.7</course>
<desc>Speed 3.2 km/h Distance 3.66 km</desc>
<time>2010-03-14T11:11:43.98</time>
<name>2780</name>
</trkpt>
<trkpt lat="48.940578" lon="8.690128">
<ele>376.0</ele>
<speed>2.8</speed>
<course>72.9</course>
<desc>Speed 2.8 km/h Distance 3.66 km</desc>
<time>2010-03-14T11:11:44.98</time>
<name>2781</name>
</trkpt>
<trkpt lat="48.940580" lon="8.690137">
<ele>375.5</ele>
<speed>2.3</speed>
<course>75.6</course>
<desc>Speed 2.3 km/h Distance 3.66 km</desc>
<time>2010-03-14T11:11:45.98</time>
<name>2782</name>
</trkpt>
<trkpt lat="48.940582" lon="8.690147">
<ele>375.5</ele>
<speed>2.1</speed>
<course>72.9</course>
<desc>Speed 2.1 km/h Distance 3.66 km</desc>
<time>2010-03-14T11:11:46.98</time>
<name>2783</name>
</trkpt>
<trkpt lat="48.940583" lon="8.690155">
<ele>375.5</ele>
<speed>2.2</speed>
<course>102.3</course>
<desc>Speed 2.2 km/h Distance 3.66 km</desc>
<time>2010-03-14T11:11:47.98</time>
<name>2784</name>
</trkpt>
<trkpt lat="48.940582" lon="8.690167">
<ele>375.0</ele>
<speed>2.8</speed>
<course>77.7</course>
<desc>Speed 2.8 km/h Distance 3.66 km</desc>
<time>2010-03-14T11:11:48.98</time>
<name>2785</name>
</trkpt>
<trkpt lat="48.940583" lon="8.690178">
<ele>375.0</ele>
<speed>3.1</speed>
<course>90.0</course>
<desc>Speed 3.1 km/h Distance 3.66 km</desc>
<time>2010-03-14T11:11:49.98</time>
<name>2786</name>
</trkpt>
<trkpt lat="48.940583" lon="8.690192">
<ele>375.0</ele>
<speed>3.5</speed>
<course>90.0</course>
<desc>Speed 3.5 km/h Distance 3.66 km</desc>
<time>2010-03-14T11:11:50.98</time>
<name>2787</name>
</trkpt>
<trkpt lat="48.940583" lon="8.690205">
<ele>375.0</ele>
<speed>3.1</speed>
<course>77.7</course>
<desc>Speed 3.1 km/h Distance 3.66 km</desc>
<time>2010-03-14T11:11:51.98</time>
<name>2788</name>
</trkpt>
<trkpt lat="48.940585" lon="8.690217">
<ele>375.0</ele>
<speed>3.1</speed>
<course>52.7</course>
<desc>Speed 3.1 km/h Distance 3.66 km</desc>
<time>2010-03-14T11:11:52.98</time>
<name>2789</name>
</trkpt>
<trkpt lat="48.940592" lon="8.690230">
<ele>375.5</ele>
<speed>2.2</speed>
<course>58.6</course>
<desc>Speed 2.2 km/h Distance 3.67 km</desc>
<time>2010-03-14T11:11:53.98</time>
<name>2790</name>
</trkpt>
<trkpt lat="48.940598" lon="8.690247">
<ele>376.0</ele>
<speed>2.3</speed>
<course>64.9</course>
<desc>Speed 2.3 km/h Distance 3.67 km</desc>
<time>2010-03-14T11:11:54.98</time>
<name>2791</name>
</trkpt>
<trkpt lat="48.940605" lon="8.690268">
<ele>376.5</ele>
<speed>3.9</speed>
<course>90.0</course>
<desc>Speed 3.9 km/h Distance 3.67 km</desc>
<time>2010-03-14T11:11:55.98</time>
<name>2792</name>
</trkpt>
<trkpt lat="48.940605" lon="8.690283">
<ele>376.5</ele>
<speed>2.8</speed>
<course>90.0</course>
<desc>Speed 2.8 km/h Distance 3.67 km</desc>
<time>2010-03-14T11:11:56.98</time>
<name>2793</name>
</trkpt>
<trkpt lat="48.940605" lon="8.690298">
<ele>376.0</ele>
<speed>2.7</speed>
<course>90.0</course>
<desc>Speed 2.7 km/h Distance 3.67 km</desc>
<time>2010-03-14T11:11:57.98</time>
<name>2794</name>
</trkpt>
<trkpt lat="48.940605" lon="8.690315">
<ele>376.0</ele>
<speed>2.6</speed>
<course>71.3</course>
<desc>Speed 2.6 km/h Distance 3.67 km</desc>
<time>2010-03-14T11:11:58.98</time>
<name>2795</name>
</trkpt>
<trkpt lat="48.940608" lon="8.690330">
<ele>376.5</ele>
<speed>3.3</speed>
<course>73.1</course>
<desc>Speed 3.3 km/h Distance 3.67 km</desc>
<time>2010-03-14T11:11:59.97</time>
<name>2796</name>
</trkpt>
<trkpt lat="48.940612" lon="8.690347">
<ele>376.5</ele>
<speed>3.0</speed>
<course>90.0</course>
<desc>Speed 3.0 km/h Distance 3.67 km</desc>
<time>2010-03-14T11:12:00.98</time>
<name>2797</name>
</trkpt>
<trkpt lat="48.940612" lon="8.690362">
<ele>376.5</ele>
<speed>3.2</speed>
<course>81.3</course>
<desc>Speed 3.2 km/h Distance 3.68 km</desc>
<time>2010-03-14T11:12:01.97</time>
<name>2798</name>
</trkpt>
<trkpt lat="48.940613" lon="8.690378">
<ele>376.5</ele>
<speed>3.5</speed>
<course>65.4</course>
<desc>Speed 3.5 km/h Distance 3.68 km</desc>
<time>2010-03-14T11:12:02.97</time>
<name>2799</name>
</trkpt>
<trkpt lat="48.940618" lon="8.690395">
<ele>377.0</ele>
<speed>2.8</speed>
<course>81.3</course>
<desc>Speed 2.8 km/h Distance 3.68 km</desc>
<time>2010-03-14T11:12:03.97</time>
<name>2800</name>
</trkpt>
<trkpt lat="48.940620" lon="8.690412">
<ele>377.0</ele>
<speed>3.5</speed>
<course>69.1</course>
<desc>Speed 3.5 km/h Distance 3.68 km</desc>
<time>2010-03-14T11:12:04.97</time>
<name>2801</name>
</trkpt>
<trkpt lat="48.940623" lon="8.690425">
<ele>377.0</ele>
<speed>2.4</speed>
<course>69.2</course>
<desc>Speed 2.4 km/h Distance 3.68 km</desc>
<time>2010-03-14T11:12:05.97</time>
<name>2802</name>
</trkpt>
<trkpt lat="48.940628" lon="8.690445">
<ele>378.0</ele>
<speed>3.7</speed>
<course>69.1</course>
<desc>Speed 3.7 km/h Distance 3.68 km</desc>
<time>2010-03-14T11:12:06.97</time>
<name>2803</name>
</trkpt>
<trkpt lat="48.940633" lon="8.690465">
<ele>379.0</ele>
<speed>3.6</speed>
<course>77.7</course>
<desc>Speed 3.6 km/h Distance 3.68 km</desc>
<time>2010-03-14T11:12:07.97</time>
<name>2804</name>
</trkpt>
<trkpt lat="48.940635" lon="8.690477">
<ele>378.5</ele>
<speed>2.7</speed>
<course>58.7</course>
<desc>Speed 2.7 km/h Distance 3.68 km</desc>
<time>2010-03-14T11:12:08.97</time>
<name>2805</name>
</trkpt>
<trkpt lat="48.940642" lon="8.690493">
<ele>379.0</ele>
<speed>2.9</speed>
<course>66.5</course>
<desc>Speed 2.9 km/h Distance 3.69 km</desc>
<time>2010-03-14T11:12:09.97</time>
<name>2806</name>
</trkpt>
<trkpt lat="48.940645" lon="8.690505">
<ele>379.0</ele>
<speed>3.1</speed>
<course>58.7</course>
<desc>Speed 3.1 km/h Distance 3.69 km</desc>
<time>2010-03-14T11:12:10.97</time>
<name>2807</name>
</trkpt>
<trkpt lat="48.940652" lon="8.690522">
<ele>379.0</ele>
<speed>2.7</speed>
<course>73.1</course>
<desc>Speed 2.7 km/h Distance 3.69 km</desc>
<time>2010-03-14T11:12:11.97</time>
<name>2808</name>
</trkpt>
<trkpt lat="48.940655" lon="8.690538">
<ele>379.0</ele>
<speed>3.1</speed>
<course>63.0</course>
<desc>Speed 3.1 km/h Distance 3.69 km</desc>
<time>2010-03-14T11:12:12.97</time>
<name>2809</name>
</trkpt>
<trkpt lat="48.940658" lon="8.690548">
<ele>378.5</ele>
<speed>3.0</speed>
<course>48.9</course>
<desc>Speed 3.0 km/h Distance 3.69 km</desc>
<time>2010-03-14T11:12:13.97</time>
<name>2810</name>
</trkpt>
<trkpt lat="48.940665" lon="8.690560">
<ele>378.5</ele>
<speed>3.2</speed>
<course>73.1</course>
<desc>Speed 3.2 km/h Distance 3.69 km</desc>
<time>2010-03-14T11:12:14.97</time>
<name>2811</name>
</trkpt>
<trkpt lat="48.940667" lon="8.690568">
<ele>378.5</ele>
<speed>2.3</speed>
<course>58.6</course>
<desc>Speed 2.3 km/h Distance 3.69 km</desc>
<time>2010-03-14T11:12:15.97</time>
<name>2812</name>
</trkpt>
<trkpt lat="48.940670" lon="8.690577">
<ele>378.5</ele>
<speed>2.5</speed>
<course>90.0</course>
<desc>Speed 2.5 km/h Distance 3.69 km</desc>
<time>2010-03-14T11:12:16.97</time>
<name>2813</name>
</trkpt>
<trkpt lat="48.940670" lon="8.690590">
<ele>378.5</ele>
<speed>2.3</speed>
<course>72.9</course>
<desc>Speed 2.3 km/h Distance 3.69 km</desc>
<time>2010-03-14T11:12:17.97</time>
<name>2814</name>
</trkpt>
<trkpt lat="48.940672" lon="8.690598">
<ele>378.0</ele>
<speed>2.0</speed>
<course>90.0</course>
<desc>Speed 2.0 km/h Distance 3.69 km</desc>
<time>2010-03-14T11:12:18.97</time>
<name>2815</name>
</trkpt>
<trkpt lat="48.940672" lon="8.690602">
<ele>378.0</ele>
<speed>1.1</speed>
<course>98.7</course>
<desc>Speed 1.1 km/h Distance 3.69 km</desc>
<time>2010-03-14T11:12:20.00</time>
<name>2816</name>
</trkpt>
<trkpt lat="48.940670" lon="8.690618">
<ele>378.0</ele>
<speed>3.7</speed>
<course>102.3</course>
<desc>Speed 3.7 km/h Distance 3.70 km</desc>
<time>2010-03-14T11:12:20.96</time>
<name>2817</name>
</trkpt>
<trkpt lat="48.940668" lon="8.690630">
<ele>378.0</ele>
<speed>3.2</speed>
<course>81.3</course>
<desc>Speed 3.2 km/h Distance 3.70 km</desc>
<time>2010-03-14T11:12:21.96</time>
<name>2818</name>
</trkpt>
<trkpt lat="48.940670" lon="8.690647">
<ele>378.0</ele>
<speed>4.1</speed>
<course>71.3</course>
<desc>Speed 4.1 km/h Distance 3.70 km</desc>
<time>2010-03-14T11:12:22.99</time>
<name>2819</name>
</trkpt>
<trkpt lat="48.940673" lon="8.690662">
<ele>378.0</ele>
<speed>3.6</speed>
<course>79.2</course>
<desc>Speed 3.6 km/h Distance 3.70 km</desc>
<time>2010-03-14T11:12:23.96</time>
<name>2820</name>
</trkpt>
<trkpt lat="48.940675" lon="8.690675">
<ele>378.0</ele>
<speed>3.5</speed>
<course>79.3</course>
<desc>Speed 3.5 km/h Distance 3.70 km</desc>
<time>2010-03-14T11:12:24.96</time>
<name>2821</name>
</trkpt>
<trkpt lat="48.940677" lon="8.690688">
<ele>378.0</ele>
<speed>3.5</speed>
<course>90.0</course>
<desc>Speed 3.5 km/h Distance 3.70 km</desc>
<time>2010-03-14T11:12:25.96</time>
<name>2822</name>
</trkpt>
<trkpt lat="48.940677" lon="8.690705">
<ele>378.0</ele>
<speed>3.9</speed>
<course>90.0</course>
<desc>Speed 3.9 km/h Distance 3.70 km</desc>
<time>2010-03-14T11:12:26.96</time>
<name>2823</name>
</trkpt>
<trkpt lat="48.940677" lon="8.690715">
<ele>377.5</ele>
<speed>2.6</speed>
<course>47.8</course>
<desc>Speed 2.6 km/h Distance 3.70 km</desc>
<time>2010-03-14T11:12:27.96</time>
<name>2824</name>
</trkpt>
<trkpt lat="48.940682" lon="8.690723">
<ele>377.5</ele>
<speed>2.2</speed>
<course>79.2</course>
<desc>Speed 2.2 km/h Distance 3.70 km</desc>
<time>2010-03-14T11:12:28.96</time>
<name>2825</name>
</trkpt>
<trkpt lat="48.940683" lon="8.690737">
<ele>377.5</ele>
<speed>3.1</speed>
<course>53.0</course>
<desc>Speed 3.1 km/h Distance 3.70 km</desc>
<time>2010-03-14T11:12:29.96</time>
<name>2826</name>
</trkpt>
<trkpt lat="48.940687" lon="8.690743">
<ele>377.5</ele>
<speed>2.1</speed>
<course>110.2</course>
<desc>Speed 2.1 km/h Distance 3.71 km</desc>
<time>2010-03-14T11:12:30.96</time>
<name>2827</name>
</trkpt>
<trkpt lat="48.940685" lon="8.690750">
<ele>377.0</ele>
<speed>1.4</speed>
<course>110.8</course>
<desc>Speed 1.4 km/h Distance 3.71 km</desc>
<time>2010-03-14T11:12:31.96</time>
<name>2828</name>
</trkpt>
<trkpt lat="48.940682" lon="8.690763">
<ele>377.5</ele>
<speed>3.3</speed>
<course>75.6</course>
<desc>Speed 3.3 km/h Distance 3.71 km</desc>
<time>2010-03-14T11:12:32.96</time>
<name>2829</name>
</trkpt>
<trkpt lat="48.940683" lon="8.690773">
<ele>377.0</ele>
<speed>2.6</speed>
<course>90.0</course>
<desc>Speed 2.6 km/h Distance 3.71 km</desc>
<time>2010-03-14T11:12:33.96</time>
<name>2830</name>
</trkpt>
<trkpt lat="48.940683" lon="8.690787">
<ele>377.0</ele>
<speed>3.1</speed>
<course>99.6</course>
<desc>Speed 3.1 km/h Distance 3.71 km</desc>
<time>2010-03-14T11:12:34.96</time>
<name>2831</name>
</trkpt>
<trkpt lat="48.940682" lon="8.690802">
<ele>377.0</ele>
<speed>3.2</speed>
<course>102.3</course>
<desc>Speed 3.2 km/h Distance 3.71 km</desc>
<time>2010-03-14T11:12:35.96</time>
<name>2832</name>
</trkpt>
<trkpt lat="48.940680" lon="8.690813">
<ele>377.0</ele>
<speed>3.0</speed>
<course>90.0</course>
<desc>Speed 3.0 km/h Distance 3.71 km</desc>
<time>2010-03-14T11:12:36.96</time>
<name>2833</name>
</trkpt>
<trkpt lat="48.940680" lon="8.690827">
<ele>377.0</ele>
<speed>3.0</speed>
<course>98.7</course>
<desc>Speed 3.0 km/h Distance 3.71 km</desc>
<time>2010-03-14T11:12:37.96</time>
<name>2834</name>
</trkpt>
<trkpt lat="48.940678" lon="8.690843">
<ele>376.5</ele>
<speed>3.9</speed>
<course>82.8</course>
<desc>Speed 3.9 km/h Distance 3.71 km</desc>
<time>2010-03-14T11:12:38.96</time>
<name>2835</name>
</trkpt>
<trkpt lat="48.940680" lon="8.690863">
<ele>376.5</ele>
<speed>4.1</speed>
<course>97.2</course>
<desc>Speed 4.1 km/h Distance 3.71 km</desc>
<time>2010-03-14T11:12:39.96</time>
<name>2836</name>
</trkpt>
<trkpt lat="48.940678" lon="8.690883">
<ele>376.5</ele>
<speed>4.5</speed>
<course>106.9</course>
<desc>Speed 4.5 km/h Distance 3.72 km</desc>
<time>2010-03-14T11:12:40.96</time>
<name>2837</name>
</trkpt>
<trkpt lat="48.940675" lon="8.690900">
<ele>377.0</ele>
<speed>4.2</speed>
<course>109.4</course>
<desc>Speed 4.2 km/h Distance 3.72 km</desc>
<time>2010-03-14T11:12:41.96</time>
<name>2838</name>
</trkpt>
<trkpt lat="48.940670" lon="8.690922">
<ele>377.5</ele>
<speed>4.0</speed>
<course>97.2</course>
<desc>Speed 4.0 km/h Distance 3.72 km</desc>
<time>2010-03-14T11:12:42.96</time>
<name>2839</name>
</trkpt>
<trkpt lat="48.940668" lon="8.690942">
<ele>377.5</ele>
<speed>4.5</speed>
<course>106.9</course>
<desc>Speed 4.5 km/h Distance 3.72 km</desc>
<time>2010-03-14T11:12:43.96</time>
<name>2840</name>
</trkpt>
<trkpt lat="48.940665" lon="8.690958">
<ele>377.5</ele>
<speed>3.4</speed>
<course>104.2</course>
<desc>Speed 3.4 km/h Distance 3.72 km</desc>
<time>2010-03-14T11:12:44.96</time>
<name>2841</name>
</trkpt>
<trkpt lat="48.940662" lon="8.690978">
<ele>377.5</ele>
<speed>3.1</speed>
<course>98.7</course>
<desc>Speed 3.1 km/h Distance 3.72 km</desc>
<time>2010-03-14T11:12:45.96</time>
<name>2842</name>
</trkpt>
<trkpt lat="48.940660" lon="8.690995">
<ele>378.0</ele>
<speed>2.7</speed>
<course>90.0</course>
<desc>Speed 2.7 km/h Distance 3.72 km</desc>
<time>2010-03-14T11:12:46.96</time>
<name>2843</name>
</trkpt>
<trkpt lat="48.940660" lon="8.691007">
<ele>378.0</ele>
<speed>2.8</speed>
<course>90.0</course>
<desc>Speed 2.8 km/h Distance 3.73 km</desc>
<time>2010-03-14T11:12:47.96</time>
<name>2844</name>
</trkpt>
<trkpt lat="48.940660" lon="8.691018">
<ele>378.0</ele>
<speed>2.8</speed>
<course>100.8</course>
<desc>Speed 2.8 km/h Distance 3.73 km</desc>
<time>2010-03-14T11:12:48.96</time>
<name>2845</name>
</trkpt>
<trkpt lat="48.940658" lon="8.691032">
<ele>378.0</ele>
<speed>3.2</speed>
<course>99.6</course>
<desc>Speed 3.2 km/h Distance 3.73 km</desc>
<time>2010-03-14T11:12:49.96</time>
<name>2846</name>
</trkpt>
<trkpt lat="48.940657" lon="8.691047">
<ele>378.0</ele>
<speed>3.3</speed>
<course>102.3</course>
<desc>Speed 3.3 km/h Distance 3.73 km</desc>
<time>2010-03-14T11:12:50.96</time>
<name>2847</name>
</trkpt>
<trkpt lat="48.940655" lon="8.691058">
<ele>378.5</ele>
<speed>2.9</speed>
<course>90.0</course>
<desc>Speed 2.9 km/h Distance 3.73 km</desc>
<time>2010-03-14T11:12:51.96</time>
<name>2848</name>
</trkpt>
<trkpt lat="48.940655" lon="8.691072">
<ele>378.5</ele>
<speed>3.1</speed>
<course>90.0</course>
<desc>Speed 3.1 km/h Distance 3.73 km</desc>
<time>2010-03-14T11:12:52.96</time>
<name>2849</name>
</trkpt>
<trkpt lat="48.940655" lon="8.691087">
<ele>378.5</ele>
<speed>3.3</speed>
<course>90.0</course>
<desc>Speed 3.3 km/h Distance 3.73 km</desc>
<time>2010-03-14T11:12:53.96</time>
<name>2850</name>
</trkpt>
<trkpt lat="48.940655" lon="8.691100">
<ele>378.5</ele>
<speed>3.2</speed>
<course>79.3</course>
<desc>Speed 3.2 km/h Distance 3.73 km</desc>
<time>2010-03-14T11:12:54.96</time>
<name>2851</name>
</trkpt>
<trkpt lat="48.940657" lon="8.691113">
<ele>378.5</ele>
<speed>3.1</speed>
<course>104.2</course>
<desc>Speed 3.1 km/h Distance 3.73 km</desc>
<time>2010-03-14T11:12:55.96</time>
<name>2852</name>
</trkpt>
<trkpt lat="48.940653" lon="8.691133">
<ele>378.5</ele>
<speed>4.4</speed>
<course>90.0</course>
<desc>Speed 4.4 km/h Distance 3.73 km</desc>
<time>2010-03-14T11:12:56.96</time>
<name>2853</name>
</trkpt>
<trkpt lat="48.940653" lon="8.691152">
<ele>378.5</ele>
<speed>3.6</speed>
<course>90.0</course>
<desc>Speed 3.6 km/h Distance 3.74 km</desc>
<time>2010-03-14T11:12:57.96</time>
<name>2854</name>
</trkpt>
<trkpt lat="48.940653" lon="8.691167">
<ele>378.5</ele>
<speed>3.4</speed>
<course>104.2</course>
<desc>Speed 3.4 km/h Distance 3.74 km</desc>
<time>2010-03-14T11:12:58.96</time>
<name>2855</name>
</trkpt>
<trkpt lat="48.940650" lon="8.691187">
<ele>378.5</ele>
<speed>4.4</speed>
<course>104.2</course>
<desc>Speed 4.4 km/h Distance 3.74 km</desc>
<time>2010-03-14T11:12:59.96</time>
<name>2856</name>
</trkpt>
<trkpt lat="48.940647" lon="8.691207">
<ele>379.0</ele>
<speed>4.8</speed>
<course>97.9</course>
<desc>Speed 4.8 km/h Distance 3.74 km</desc>
<time>2010-03-14T11:13:00.96</time>
<name>2857</name>
</trkpt>
<trkpt lat="48.940645" lon="8.691225">
<ele>379.0</ele>
<speed>3.3</speed>
<course>96.7</course>
<desc>Speed 3.3 km/h Distance 3.74 km</desc>
<time>2010-03-14T11:13:01.96</time>
<name>2858</name>
</trkpt>
<trkpt lat="48.940643" lon="8.691247">
<ele>379.5</ele>
<speed>4.4</speed>
<course>96.7</course>
<desc>Speed 4.4 km/h Distance 3.74 km</desc>
<time>2010-03-14T11:13:02.96</time>
<name>2859</name>
</trkpt>
<trkpt lat="48.940642" lon="8.691268">
<ele>379.0</ele>
<speed>4.4</speed>
<course>104.2</course>
<desc>Speed 4.4 km/h Distance 3.74 km</desc>
<time>2010-03-14T11:13:03.96</time>
<name>2860</name>
</trkpt>
<trkpt lat="48.940638" lon="8.691288">
<ele>379.5</ele>
<speed>4.3</speed>
<course>103.2</course>
<desc>Speed 4.3 km/h Distance 3.75 km</desc>
<time>2010-03-14T11:13:04.96</time>
<name>2861</name>
</trkpt>
<trkpt lat="48.940635" lon="8.691310">
<ele>380.0</ele>
<speed>4.6</speed>
<course>96.2</course>
<desc>Speed 4.6 km/h Distance 3.75 km</desc>
<time>2010-03-14T11:13:05.96</time>
<name>2862</name>
</trkpt>
<trkpt lat="48.940633" lon="8.691333">
<ele>380.0</ele>
<speed>4.7</speed>
<course>90.0</course>
<desc>Speed 4.7 km/h Distance 3.75 km</desc>
<time>2010-03-14T11:13:06.96</time>
<name>2863</name>
</trkpt>
<trkpt lat="48.940633" lon="8.691345">
<ele>379.5</ele>
<speed>2.7</speed>
<course>79.2</course>
<desc>Speed 2.7 km/h Distance 3.75 km</desc>
<time>2010-03-14T11:13:07.96</time>
<name>2864</name>
</trkpt>
<trkpt lat="48.940635" lon="8.691358">
<ele>379.5</ele>
<speed>3.4</speed>
<course>76.5</course>
<desc>Speed 3.4 km/h Distance 3.75 km</desc>
<time>2010-03-14T11:13:08.96</time>
<name>2865</name>
</trkpt>
<trkpt lat="48.940640" lon="8.691390">
<ele>378.5</ele>
<speed>4.0</speed>
<course>80.9</course>
<desc>Speed 4.0 km/h Distance 3.75 km</desc>
<time>2010-03-14T11:13:09.96</time>
<name>2866</name>
</trkpt>
<trkpt lat="48.940643" lon="8.691422">
<ele>377.0</ele>
<speed>3.4</speed>
<course>81.7</course>
<desc>Speed 3.4 km/h Distance 3.76 km</desc>
<time>2010-03-14T11:13:10.96</time>
<name>2867</name>
</trkpt>
<trkpt lat="48.940647" lon="8.691457">
<ele>376.5</ele>
<speed>4.1</speed>
<course>103.2</course>
<desc>Speed 4.1 km/h Distance 3.76 km</desc>
<time>2010-03-14T11:13:11.96</time>
<name>2868</name>
</trkpt>
<trkpt lat="48.940643" lon="8.691478">
<ele>376.5</ele>
<speed>4.3</speed>
<course>98.7</course>
<desc>Speed 4.3 km/h Distance 3.76 km</desc>
<time>2010-03-14T11:13:12.96</time>
<name>2869</name>
</trkpt>
<trkpt lat="48.940642" lon="8.691495">
<ele>376.5</ele>
<speed>3.9</speed>
<course>91.9</course>
<desc>Speed 3.9 km/h Distance 3.76 km</desc>
<time>2010-03-14T11:13:13.96</time>
<name>2870</name>
</trkpt>
<trkpt lat="48.940640" lon="8.691573">
<ele>376.5</ele>
<speed>4.4</speed>
<course>90.0</course>
<desc>Speed 4.4 km/h Distance 3.77 km</desc>
<time>2010-03-14T11:13:15.96</time>
<name>2871</name>
</trkpt>
<trkpt lat="48.940640" lon="8.691588">
<ele>376.5</ele>
<speed>3.6</speed>
<course>73.0</course>
<desc>Speed 3.6 km/h Distance 3.77 km</desc>
<time>2010-03-14T11:13:16.96</time>
<name>2872</name>
</trkpt>
<trkpt lat="48.940643" lon="8.691605">
<ele>376.5</ele>
<speed>3.9</speed>
<course>90.0</course>
<desc>Speed 3.9 km/h Distance 3.77 km</desc>
<time>2010-03-14T11:13:17.96</time>
<name>2873</name>
</trkpt>
<trkpt lat="48.940643" lon="8.691618">
<ele>376.5</ele>
<speed>3.3</speed>
<course>52.7</course>
<desc>Speed 3.3 km/h Distance 3.77 km</desc>
<time>2010-03-14T11:13:18.96</time>
<name>2874</name>
</trkpt>
<trkpt lat="48.940650" lon="8.691632">
<ele>376.0</ele>
<speed>3.7</speed>
<course>66.4</course>
<desc>Speed 3.7 km/h Distance 3.77 km</desc>
<time>2010-03-14T11:13:19.96</time>
<name>2875</name>
</trkpt>
<trkpt lat="48.940653" lon="8.691643">
<ele>375.5</ele>
<speed>3.3</speed>
<course>58.6</course>
<desc>Speed 3.3 km/h Distance 3.77 km</desc>
<time>2010-03-14T11:13:20.96</time>
<name>2876</name>
</trkpt>
<trkpt lat="48.940657" lon="8.691652">
<ele>375.0</ele>
<speed>2.4</speed>
<course>52.7</course>
<desc>Speed 2.4 km/h Distance 3.77 km</desc>
<time>2010-03-14T11:13:21.96</time>
<name>2877</name>
</trkpt>
<trkpt lat="48.940663" lon="8.691665">
<ele>374.5</ele>
<speed>3.7</speed>
<course>69.2</course>
<desc>Speed 3.7 km/h Distance 3.77 km</desc>
<time>2010-03-14T11:13:22.96</time>
<name>2878</name>
</trkpt>
<trkpt lat="48.940667" lon="8.691678">
<ele>374.0</ele>
<speed>3.3</speed>
<course>90.0</course>
<desc>Speed 3.3 km/h Distance 3.78 km</desc>
<time>2010-03-14T11:13:23.96</time>
<name>2879</name>
</trkpt>
<trkpt lat="48.940667" lon="8.691698">
<ele>373.5</ele>
<speed>3.7</speed>
<course>109.4</course>
<desc>Speed 3.7 km/h Distance 3.78 km</desc>
<time>2010-03-14T11:13:24.96</time>
<name>2880</name>
</trkpt>
<trkpt lat="48.940662" lon="8.691720">
<ele>374.5</ele>
<speed>4.3</speed>
<course>115.4</course>
<desc>Speed 4.3 km/h Distance 3.78 km</desc>
<time>2010-03-14T11:13:25.96</time>
<name>2881</name>
</trkpt>
<trkpt lat="48.940653" lon="8.691747">
<ele>375.5</ele>
<speed>4.5</speed>
<course>123.7</course>
<desc>Speed 4.5 km/h Distance 3.78 km</desc>
<time>2010-03-14T11:13:26.96</time>
<name>2882</name>
</trkpt>
<trkpt lat="48.940642" lon="8.691773">
<ele>376.5</ele>
<speed>4.6</speed>
<course>119.3</course>
<desc>Speed 4.6 km/h Distance 3.78 km</desc>
<time>2010-03-14T11:13:27.96</time>
<name>2883</name>
</trkpt>
<trkpt lat="48.940630" lon="8.691805">
<ele>378.0</ele>
<speed>5.0</speed>
<course>79.3</course>
<desc>Speed 5.0 km/h Distance 3.79 km</desc>
<time>2010-03-14T11:13:28.96</time>
<name>2884</name>
</trkpt>
<trkpt lat="48.940632" lon="8.691818">
<ele>378.0</ele>
<speed>3.6</speed>
<course>90.0</course>
<desc>Speed 3.6 km/h Distance 3.79 km</desc>
<time>2010-03-14T11:13:29.96</time>
<name>2885</name>
</trkpt>
<trkpt lat="48.940632" lon="8.691837">
<ele>378.0</ele>
<speed>3.7</speed>
<course>98.6</course>
<desc>Speed 3.7 km/h Distance 3.79 km</desc>
<time>2010-03-14T11:13:30.96</time>
<name>2886</name>
</trkpt>
<trkpt lat="48.940630" lon="8.691853">
<ele>378.0</ele>
<speed>4.2</speed>
<course>103.2</course>
<desc>Speed 4.2 km/h Distance 3.79 km</desc>
<time>2010-03-14T11:13:31.96</time>
<name>2887</name>
</trkpt>
<trkpt lat="48.940627" lon="8.691875">
<ele>378.5</ele>
<speed>4.9</speed>
<course>90.0</course>
<desc>Speed 4.9 km/h Distance 3.79 km</desc>
<time>2010-03-14T11:13:32.96</time>
<name>2888</name>
</trkpt>
<trkpt lat="48.940627" lon="8.691895">
<ele>379.5</ele>
<speed>4.3</speed>
<course>90.0</course>
<desc>Speed 4.3 km/h Distance 3.79 km</desc>
<time>2010-03-14T11:13:33.96</time>
<name>2889</name>
</trkpt>
<trkpt lat="48.940627" lon="8.691910">
<ele>379.5</ele>
<speed>3.6</speed>
<course>105.7</course>
<desc>Speed 3.6 km/h Distance 3.79 km</desc>
<time>2010-03-14T11:13:34.96</time>
<name>2890</name>
</trkpt>
<trkpt lat="48.940615" lon="8.691973">
<ele>381.5</ele>
<speed>3.5</speed>
<course>90.0</course>
<desc>Speed 3.5 km/h Distance 3.80 km</desc>
<time>2010-03-14T11:13:36.96</time>
<name>2891</name>
</trkpt>
<trkpt lat="48.940615" lon="8.691987">
<ele>381.5</ele>
<speed>3.3</speed>
<course>119.7</course>
<desc>Speed 3.3 km/h Distance 3.80 km</desc>
<time>2010-03-14T11:13:37.96</time>
<name>2892</name>
</trkpt>
<trkpt lat="48.940605" lon="8.692013">
<ele>382.5</ele>
<speed>4.8</speed>
<course>101.0</course>
<desc>Speed 4.8 km/h Distance 3.80 km</desc>
<time>2010-03-14T11:13:38.96</time>
<name>2893</name>
</trkpt>
<trkpt lat="48.940597" lon="8.692078">
<ele>383.0</ele>
<speed>3.7</speed>
<course>97.9</course>
<desc>Speed 3.7 km/h Distance 3.81 km</desc>
<time>2010-03-14T11:13:40.96</time>
<name>2894</name>
</trkpt>
<trkpt lat="48.940595" lon="8.692097">
<ele>383.5</ele>
<speed>4.1</speed>
<course>97.9</course>
<desc>Speed 4.1 km/h Distance 3.81 km</desc>
<time>2010-03-14T11:13:41.96</time>
<name>2895</name>
</trkpt>
<trkpt lat="48.940593" lon="8.692115">
<ele>383.5</ele>
<speed>4.1</speed>
<course>102.9</course>
<desc>Speed 4.1 km/h Distance 3.81 km</desc>
<time>2010-03-14T11:13:42.96</time>
<name>2896</name>
</trkpt>
<trkpt lat="48.940588" lon="8.692148">
<ele>383.5</ele>
<speed>4.0</speed>
<course>90.0</course>
<desc>Speed 4.0 km/h Distance 3.81 km</desc>
<time>2010-03-14T11:13:43.96</time>
<name>2897</name>
</trkpt>
<trkpt lat="48.940588" lon="8.692168">
<ele>383.5</ele>
<speed>4.0</speed>
<course>97.4</course>
<desc>Speed 4.0 km/h Distance 3.81 km</desc>
<time>2010-03-14T11:13:44.96</time>
<name>2898</name>
</trkpt>
<trkpt lat="48.940582" lon="8.692247">
<ele>384.0</ele>
<speed>4.0</speed>
<course>93.8</course>
<desc>Speed 4.0 km/h Distance 3.82 km</desc>
<time>2010-03-14T11:13:46.96</time>
<name>2899</name>
</trkpt>
<trkpt lat="48.940580" lon="8.692285">
<ele>383.5</ele>
<speed>4.4</speed>
<course>84.9</course>
<desc>Speed 4.4 km/h Distance 3.82 km</desc>
<time>2010-03-14T11:13:47.96</time>
<name>2900</name>
</trkpt>
<trkpt lat="48.940582" lon="8.692313">
<ele>383.0</ele>
<speed>4.9</speed>
<course>107.0</course>
<desc>Speed 4.9 km/h Distance 3.82 km</desc>
<time>2010-03-14T11:13:48.96</time>
<name>2901</name>
</trkpt>
<trkpt lat="48.940578" lon="8.692330">
<ele>383.0</ele>
<speed>4.4</speed>
<course>105.6</course>
<desc>Speed 4.4 km/h Distance 3.82 km</desc>
<time>2010-03-14T11:13:49.96</time>
<name>2902</name>
</trkpt>
<trkpt lat="48.940563" lon="8.692412">
<ele>384.5</ele>
<speed>4.5</speed>
<course>90.0</course>
<desc>Speed 4.5 km/h Distance 3.83 km</desc>
<time>2010-03-14T11:13:51.96</time>
<name>2903</name>
</trkpt>
<trkpt lat="48.940563" lon="8.692430">
<ele>384.0</ele>
<speed>3.9</speed>
<course>82.8</course>
<desc>Speed 3.9 km/h Distance 3.83 km</desc>
<time>2010-03-14T11:13:52.96</time>
<name>2904</name>
</trkpt>
<trkpt lat="48.940565" lon="8.692450">
<ele>383.5</ele>
<speed>3.5</speed>
<course>108.7</course>
<desc>Speed 3.5 km/h Distance 3.83 km</desc>
<time>2010-03-14T11:13:53.96</time>
<name>2905</name>
</trkpt>
<trkpt lat="48.940562" lon="8.692465">
<ele>384.0</ele>
<speed>3.7</speed>
<course>100.8</course>
<desc>Speed 3.7 km/h Distance 3.84 km</desc>
<time>2010-03-14T11:13:54.96</time>
<name>2906</name>
</trkpt>
<trkpt lat="48.940560" lon="8.692478">
<ele>384.0</ele>
<speed>3.5</speed>
<course>90.0</course>
<desc>Speed 3.5 km/h Distance 3.84 km</desc>
<time>2010-03-14T11:13:55.96</time>
<name>2907</name>
</trkpt>
<trkpt lat="48.940560" lon="8.692492">
<ele>384.5</ele>
<speed>3.5</speed>
<course>90.0</course>
<desc>Speed 3.5 km/h Distance 3.84 km</desc>
<time>2010-03-14T11:13:56.96</time>
<name>2908</name>
</trkpt>
<trkpt lat="48.940560" lon="8.692505">
<ele>384.5</ele>
<speed>3.7</speed>
<course>80.4</course>
<desc>Speed 3.7 km/h Distance 3.84 km</desc>
<time>2010-03-14T11:13:57.96</time>
<name>2909</name>
</trkpt>
<trkpt lat="48.940562" lon="8.692520">
<ele>384.5</ele>
<speed>3.7</speed>
<course>90.0</course>
<desc>Speed 3.7 km/h Distance 3.84 km</desc>
<time>2010-03-14T11:13:58.96</time>
<name>2910</name>
</trkpt>
<trkpt lat="48.940562" lon="8.692535">
<ele>384.5</ele>
<speed>3.3</speed>
<course>90.0</course>
<desc>Speed 3.3 km/h Distance 3.84 km</desc>
<time>2010-03-14T11:13:59.96</time>
<name>2911</name>
</trkpt>
<trkpt lat="48.940562" lon="8.692542">
<ele>384.0</ele>
<speed>2.1</speed>
<course>90.0</course>
<desc>Speed 2.1 km/h Distance 3.84 km</desc>
<time>2010-03-14T11:14:00.96</time>
<name>2912</name>
</trkpt>
<trkpt lat="48.940562" lon="8.692553">
<ele>384.0</ele>
<speed>3.0</speed>
<course>76.8</course>
<desc>Speed 3.0 km/h Distance 3.84 km</desc>
<time>2010-03-14T11:14:01.96</time>
<name>2913</name>
</trkpt>
<trkpt lat="48.940565" lon="8.692575">
<ele>383.0</ele>
<speed>3.1</speed>
<course>79.3</course>
<desc>Speed 3.1 km/h Distance 3.84 km</desc>
<time>2010-03-14T11:14:02.96</time>
<name>2914</name>
</trkpt>
<trkpt lat="48.940567" lon="8.692588">
<ele>382.0</ele>
<speed>2.4</speed>
<course>113.5</course>
<desc>Speed 2.4 km/h Distance 3.84 km</desc>
<time>2010-03-14T11:14:03.96</time>
<name>2915</name>
</trkpt>
<trkpt lat="48.940563" lon="8.692600">
<ele>382.0</ele>
<speed>3.0</speed>
<course>110.9</course>
<desc>Speed 3.0 km/h Distance 3.85 km</desc>
<time>2010-03-14T11:14:04.96</time>
<name>2916</name>
</trkpt>
<trkpt lat="48.940560" lon="8.692613">
<ele>381.5</ele>
<speed>3.2</speed>
<course>110.9</course>
<desc>Speed 3.2 km/h Distance 3.85 km</desc>
<time>2010-03-14T11:14:05.96</time>
<name>2917</name>
</trkpt>
<trkpt lat="48.940555" lon="8.692633">
<ele>381.0</ele>
<speed>3.9</speed>
<course>110.8</course>
<desc>Speed 3.9 km/h Distance 3.85 km</desc>
<time>2010-03-14T11:14:06.96</time>
<name>2918</name>
</trkpt>
<trkpt lat="48.940552" lon="8.692647">
<ele>381.0</ele>
<speed>4.0</speed>
<course>103.2</course>
<desc>Speed 4.0 km/h Distance 3.85 km</desc>
<time>2010-03-14T11:14:07.96</time>
<name>2919</name>
</trkpt>
<trkpt lat="48.940548" lon="8.692668">
<ele>380.5</ele>
<speed>3.6</speed>
<course>114.6</course>
<desc>Speed 3.6 km/h Distance 3.85 km</desc>
<time>2010-03-14T11:14:08.96</time>
<name>2920</name>
</trkpt>
<trkpt lat="48.940543" lon="8.692685">
<ele>380.5</ele>
<speed>4.7</speed>
<course>109.4</course>
<desc>Speed 4.7 km/h Distance 3.85 km</desc>
<time>2010-03-14T11:14:09.96</time>
<name>2921</name>
</trkpt>
<trkpt lat="48.940538" lon="8.692707">
<ele>380.0</ele>
<speed>4.2</speed>
<course>113.5</course>
<desc>Speed 4.2 km/h Distance 3.85 km</desc>
<time>2010-03-14T11:14:10.96</time>
<name>2922</name>
</trkpt>
<trkpt lat="48.940535" lon="8.692718">
<ele>379.0</ele>
<speed>3.3</speed>
<course>108.7</course>
<desc>Speed 3.3 km/h Distance 3.85 km</desc>
<time>2010-03-14T11:14:11.96</time>
<name>2923</name>
</trkpt>
<trkpt lat="48.940528" lon="8.692748">
<ele>379.5</ele>
<speed>4.1</speed>
<course>106.9</course>
<desc>Speed 4.1 km/h Distance 3.86 km</desc>
<time>2010-03-14T11:14:12.96</time>
<name>2924</name>
</trkpt>
<trkpt lat="48.940522" lon="8.692782">
<ele>380.5</ele>
<speed>3.9</speed>
<course>98.6</course>
<desc>Speed 3.9 km/h Distance 3.86 km</desc>
<time>2010-03-14T11:14:13.96</time>
<name>2925</name>
</trkpt>
<trkpt lat="48.940520" lon="8.692798">
<ele>380.0</ele>
<speed>3.1</speed>
<course>116.9</course>
<desc>Speed 3.1 km/h Distance 3.86 km</desc>
<time>2010-03-14T11:14:14.96</time>
<name>2926</name>
</trkpt>
<trkpt lat="48.940512" lon="8.692823">
<ele>381.5</ele>
<speed>0.2</speed>
<course>90.0</course>
<desc>Speed 0.2 km/h Distance 3.86 km</desc>
<time>2010-03-14T11:14:15.96</time>
<name>2927</name>
</trkpt>
<trkpt lat="48.940512" lon="8.692833">
<ele>381.5</ele>
<speed>0.1</speed>
<course>113.5</course>
<desc>Speed 0.1 km/h Distance 3.86 km</desc>
<time>2010-03-14T11:14:16.96</time>
<name>2928</name>
</trkpt>
<trkpt lat="48.940508" lon="8.692845">
<ele>382.0</ele>
<speed>0.1</speed>
<course>90.0</course>
<desc>Speed 0.1 km/h Distance 3.86 km</desc>
<time>2010-03-14T11:14:17.96</time>
<name>2929</name>
</trkpt>
<trkpt lat="48.940508" lon="8.692848">
<ele>381.5</ele>
<speed>0.1</speed>
<course>29.2</course>
<desc>Speed 0.1 km/h Distance 3.86 km</desc>
<time>2010-03-14T11:14:18.96</time>
<name>2930</name>
</trkpt>
<trkpt lat="48.940510" lon="8.692850">
<ele>381.5</ele>
<speed>0.1</speed>
<course>90.0</course>
<desc>Speed 0.1 km/h Distance 3.86 km</desc>
<time>2010-03-14T11:14:19.96</time>
<name>2931</name>
</trkpt>
<trkpt lat="48.940510" lon="8.692853">
<ele>381.5</ele>
<speed>0.1</speed>
<course>90.0</course>
<desc>Speed 0.1 km/h Distance 3.86 km</desc>
<time>2010-03-14T11:14:20.96</time>
<name>2932</name>
</trkpt>
<trkpt lat="48.940510" lon="8.692860">
<ele>382.0</ele>
<speed>0.9</speed>
<course>90.0</course>
<desc>Speed 0.9 km/h Distance 3.87 km</desc>
<time>2010-03-14T11:14:21.96</time>
<name>2933</name>
</trkpt>
<trkpt lat="48.940510" lon="8.692867">
<ele>381.5</ele>
<speed>0.1</speed>
<course>167.4</course>
<desc>Speed 0.1 km/h Distance 3.87 km</desc>
<time>2010-03-14T11:14:22.96</time>
<name>2934</name>
</trkpt>
<trkpt lat="48.940507" lon="8.692868">
<ele>381.5</ele>
<speed>2.1</speed>
<course>162.5</course>
<desc>Speed 2.1 km/h Distance 3.87 km</desc>
<time>2010-03-14T11:14:23.96</time>
<name>2935</name>
</trkpt>
<trkpt lat="48.940500" lon="8.692872">
<ele>381.0</ele>
<speed>3.6</speed>
<course>185.0</course>
<desc>Speed 3.6 km/h Distance 3.87 km</desc>
<time>2010-03-14T11:14:24.96</time>
<name>2936</name>
</trkpt>
<trkpt lat="48.940492" lon="8.692870">
<ele>380.5</ele>
<speed>4.1</speed>
<course>180.0</course>
<desc>Speed 4.1 km/h Distance 3.87 km</desc>
<time>2010-03-14T11:14:25.96</time>
<name>2937</name>
</trkpt>
<trkpt lat="48.940482" lon="8.692870">
<ele>380.0</ele>
<speed>4.3</speed>
<course>219.4</course>
<desc>Speed 4.3 km/h Distance 3.87 km</desc>
<time>2010-03-14T11:14:26.96</time>
<name>2938</name>
</trkpt>
<trkpt lat="48.940475" lon="8.692862">
<ele>379.5</ele>
<speed>3.6</speed>
<course>205.4</course>
<desc>Speed 3.6 km/h Distance 3.87 km</desc>
<time>2010-03-14T11:14:27.96</time>
<name>2939</name>
</trkpt>
<trkpt lat="48.940470" lon="8.692858">
<ele>378.5</ele>
<speed>2.6</speed>
<course>175.0</course>
<desc>Speed 2.6 km/h Distance 3.87 km</desc>
<time>2010-03-14T11:14:28.96</time>
<name>2940</name>
</trkpt>
<trkpt lat="48.940462" lon="8.692858">
<ele>378.0</ele>
<speed>2.8</speed>
<course>187.7</course>
<desc>Speed 2.8 km/h Distance 3.87 km</desc>
<time>2010-03-14T11:14:29.96</time>
<name>2941</name>
</trkpt>
<trkpt lat="48.940453" lon="8.692857">
<ele>377.0</ele>
<speed>3.1</speed>
<course>191.2</course>
<desc>Speed 3.1 km/h Distance 3.87 km</desc>
<time>2010-03-14T11:14:30.96</time>
<name>2942</name>
</trkpt>
<trkpt lat="48.940442" lon="8.692853">
<ele>377.0</ele>
<speed>4.7</speed>
<course>190.3</course>
<desc>Speed 4.7 km/h Distance 3.87 km</desc>
<time>2010-03-14T11:14:31.96</time>
<name>2943</name>
</trkpt>
<trkpt lat="48.940428" lon="8.692850">
<ele>376.5</ele>
<speed>5.1</speed>
<course>188.8</course>
<desc>Speed 5.1 km/h Distance 3.88 km</desc>
<time>2010-03-14T11:14:32.96</time>
<name>2944</name>
</trkpt>
<trkpt lat="48.940413" lon="8.692847">
<ele>376.5</ele>
<speed>5.7</speed>
<course>185.3</course>
<desc>Speed 5.7 km/h Distance 3.88 km</desc>
<time>2010-03-14T11:14:33.96</time>
<name>2945</name>
</trkpt>
<trkpt lat="48.940400" lon="8.692845">
<ele>376.5</ele>
<speed>5.5</speed>
<course>183.8</course>
<desc>Speed 5.5 km/h Distance 3.88 km</desc>
<time>2010-03-14T11:14:34.96</time>
<name>2946</name>
</trkpt>
<trkpt lat="48.940385" lon="8.692843">
<ele>376.5</ele>
<speed>5.7</speed>
<course>192.2</course>
<desc>Speed 5.7 km/h Distance 3.88 km</desc>
<time>2010-03-14T11:14:35.96</time>
<name>2947</name>
</trkpt>
<trkpt lat="48.940370" lon="8.692838">
<ele>376.5</ele>
<speed>5.8</speed>
<course>191.2</course>
<desc>Speed 5.8 km/h Distance 3.88 km</desc>
<time>2010-03-14T11:14:36.96</time>
<name>2948</name>
</trkpt>
<trkpt lat="48.940358" lon="8.692835">
<ele>376.5</ele>
<speed>5.1</speed>
<course>185.3</course>
<desc>Speed 5.1 km/h Distance 3.88 km</desc>
<time>2010-03-14T11:14:37.96</time>
<name>2949</name>
</trkpt>
<trkpt lat="48.940345" lon="8.692833">
<ele>376.5</ele>
<speed>5.4</speed>
<course>183.8</course>
<desc>Speed 5.4 km/h Distance 3.88 km</desc>
<time>2010-03-14T11:14:38.96</time>
<name>2950</name>
</trkpt>
<trkpt lat="48.940330" lon="8.692832">
<ele>376.5</ele>
<speed>5.8</speed>
<course>184.4</course>
<desc>Speed 5.8 km/h Distance 3.89 km</desc>
<time>2010-03-14T11:14:39.96</time>
<name>2951</name>
</trkpt>
<trkpt lat="48.940320" lon="8.692830">
<ele>376.5</ele>
<speed>4.9</speed>
<course>178.8</course>
<desc>Speed 4.9 km/h Distance 3.89 km</desc>
<time>2010-03-14T11:14:40.96</time>
<name>2952</name>
</trkpt>
<trkpt lat="48.940307" lon="8.692830">
<ele>376.5</ele>
<speed>5.4</speed>
<course>185.3</course>
<desc>Speed 5.4 km/h Distance 3.89 km</desc>
<time>2010-03-14T11:14:41.96</time>
<name>2953</name>
</trkpt>
<trkpt lat="48.940293" lon="8.692828">
<ele>376.5</ele>
<speed>5.5</speed>
<course>175.6</course>
<desc>Speed 5.5 km/h Distance 3.89 km</desc>
<time>2010-03-14T11:14:42.96</time>
<name>2954</name>
</trkpt>
<trkpt lat="48.940283" lon="8.692828">
<ele>376.0</ele>
<speed>4.5</speed>
<course>169.8</course>
<desc>Speed 4.5 km/h Distance 3.89 km</desc>
<time>2010-03-14T11:14:43.96</time>
<name>2955</name>
</trkpt>
<trkpt lat="48.940265" lon="8.692833">
<ele>377.0</ele>
<speed>5.1</speed>
<course>173.5</course>
<desc>Speed 5.1 km/h Distance 3.89 km</desc>
<time>2010-03-14T11:14:44.96</time>
<name>2956</name>
</trkpt>
<trkpt lat="48.940247" lon="8.692837">
<ele>378.0</ele>
<speed>5.0</speed>
<course>180.0</course>
<desc>Speed 5.0 km/h Distance 3.90 km</desc>
<time>2010-03-14T11:14:45.96</time>
<name>2957</name>
</trkpt>
<trkpt lat="48.940232" lon="8.692837">
<ele>378.0</ele>
<speed>5.5</speed>
<course>191.2</course>
<desc>Speed 5.5 km/h Distance 3.90 km</desc>
<time>2010-03-14T11:14:46.96</time>
<name>2958</name>
</trkpt>
<trkpt lat="48.940220" lon="8.692833">
<ele>378.0</ele>
<speed>5.4</speed>
<course>174.7</course>
<desc>Speed 5.4 km/h Distance 3.90 km</desc>
<time>2010-03-14T11:14:47.96</time>
<name>2959</name>
</trkpt>
<trkpt lat="48.940207" lon="8.692835">
<ele>377.5</ele>
<speed>5.0</speed>
<course>164.0</course>
<desc>Speed 5.0 km/h Distance 3.90 km</desc>
<time>2010-03-14T11:14:48.96</time>
<name>2960</name>
</trkpt>
<trkpt lat="48.940195" lon="8.692840">
<ele>377.5</ele>
<speed>4.9</speed>
<course>174.7</course>
<desc>Speed 4.9 km/h Distance 3.90 km</desc>
<time>2010-03-14T11:14:49.96</time>
<name>2961</name>
</trkpt>
<trkpt lat="48.940182" lon="8.692842">
<ele>378.0</ele>
<speed>5.0</speed>
<course>175.0</course>
<desc>Speed 5.0 km/h Distance 3.90 km</desc>
<time>2010-03-14T11:14:50.96</time>
<name>2962</name>
</trkpt>
<trkpt lat="48.940167" lon="8.692843">
<ele>377.5</ele>
<speed>6.4</speed>
<course>183.8</course>
<desc>Speed 6.4 km/h Distance 3.90 km</desc>
<time>2010-03-14T11:14:51.96</time>
<name>2963</name>
</trkpt>
<trkpt lat="48.940152" lon="8.692842">
<ele>378.0</ele>
<speed>5.7</speed>
<course>189.0</course>
<desc>Speed 5.7 km/h Distance 3.91 km</desc>
<time>2010-03-14T11:14:52.96</time>
<name>2964</name>
</trkpt>
<trkpt lat="48.940138" lon="8.692838">
<ele>378.0</ele>
<speed>5.7</speed>
<course>180.0</course>
<desc>Speed 5.7 km/h Distance 3.91 km</desc>
<time>2010-03-14T11:14:53.96</time>
<name>2965</name>
</trkpt>
<trkpt lat="48.940125" lon="8.692838">
<ele>378.0</ele>
<speed>5.5</speed>
<course>176.2</course>
<desc>Speed 5.5 km/h Distance 3.91 km</desc>
<time>2010-03-14T11:14:54.96</time>
<name>2966</name>
</trkpt>
<trkpt lat="48.940110" lon="8.692840">
<ele>378.0</ele>
<speed>5.6</speed>
<course>175.0</course>
<desc>Speed 5.6 km/h Distance 3.91 km</desc>
<time>2010-03-14T11:14:55.96</time>
<name>2967</name>
</trkpt>
<trkpt lat="48.940095" lon="8.692842">
<ele>378.0</ele>
<speed>5.7</speed>
<course>176.2</course>
<desc>Speed 5.7 km/h Distance 3.91 km</desc>
<time>2010-03-14T11:14:56.96</time>
<name>2968</name>
</trkpt>
<trkpt lat="48.940080" lon="8.692843">
<ele>378.0</ele>
<speed>6.0</speed>
<course>178.8</course>
<desc>Speed 6.0 km/h Distance 3.91 km</desc>
<time>2010-03-14T11:14:57.96</time>
<name>2969</name>
</trkpt>
<trkpt lat="48.940067" lon="8.692843">
<ele>378.0</ele>
<speed>5.4</speed>
<course>183.8</course>
<desc>Speed 5.4 km/h Distance 3.92 km</desc>
<time>2010-03-14T11:14:58.96</time>
<name>2970</name>
</trkpt>
<trkpt lat="48.940052" lon="8.692842">
<ele>378.5</ele>
<speed>5.7</speed>
<course>180.0</course>
<desc>Speed 5.7 km/h Distance 3.92 km</desc>
<time>2010-03-14T11:14:59.96</time>
<name>2971</name>
</trkpt>
<trkpt lat="48.940033" lon="8.692842">
<ele>379.0</ele>
<speed>5.4</speed>
<course>188.8</course>
<desc>Speed 5.4 km/h Distance 3.92 km</desc>
<time>2010-03-14T11:15:00.96</time>
<name>2972</name>
</trkpt>
<trkpt lat="48.940018" lon="8.692838">
<ele>379.0</ele>
<speed>5.7</speed>
<course>185.3</course>
<desc>Speed 5.7 km/h Distance 3.92 km</desc>
<time>2010-03-14T11:15:01.96</time>
<name>2973</name>
</trkpt>
<trkpt lat="48.940005" lon="8.692837">
<ele>379.0</ele>
<speed>5.7</speed>
<course>177.2</course>
<desc>Speed 5.7 km/h Distance 3.92 km</desc>
<time>2010-03-14T11:15:02.96</time>
<name>2974</name>
</trkpt>
<trkpt lat="48.939988" lon="8.692837">
<ele>379.5</ele>
<speed>5.7</speed>
<course>185.0</course>
<desc>Speed 5.7 km/h Distance 3.92 km</desc>
<time>2010-03-14T11:15:03.96</time>
<name>2975</name>
</trkpt>
<trkpt lat="48.939973" lon="8.692835">
<ele>379.5</ele>
<speed>5.7</speed>
<course>180.0</course>
<desc>Speed 5.7 km/h Distance 3.93 km</desc>
<time>2010-03-14T11:15:04.96</time>
<name>2976</name>
</trkpt>
<trkpt lat="48.939958" lon="8.692835">
<ele>379.5</ele>
<speed>5.8</speed>
<course>175.0</course>
<desc>Speed 5.8 km/h Distance 3.93 km</desc>
<time>2010-03-14T11:15:05.96</time>
<name>2977</name>
</trkpt>
<trkpt lat="48.939943" lon="8.692837">
<ele>379.5</ele>
<speed>5.4</speed>
<course>176.2</course>
<desc>Speed 5.4 km/h Distance 3.93 km</desc>
<time>2010-03-14T11:15:06.96</time>
<name>2978</name>
</trkpt>
<trkpt lat="48.939928" lon="8.692838">
<ele>380.0</ele>
<speed>5.1</speed>
<course>183.8</course>
<desc>Speed 5.1 km/h Distance 3.93 km</desc>
<time>2010-03-14T11:15:07.96</time>
<name>2979</name>
</trkpt>
<trkpt lat="48.939913" lon="8.692837">
<ele>379.5</ele>
<speed>5.4</speed>
<course>178.8</course>
<desc>Speed 5.4 km/h Distance 3.93 km</desc>
<time>2010-03-14T11:15:08.96</time>
<name>2980</name>
</trkpt>
<trkpt lat="48.939900" lon="8.692837">
<ele>380.0</ele>
<speed>5.5</speed>
<course>178.1</course>
<desc>Speed 5.5 km/h Distance 3.93 km</desc>
<time>2010-03-14T11:15:09.96</time>
<name>2981</name>
</trkpt>
<trkpt lat="48.939885" lon="8.692837">
<ele>380.0</ele>
<speed>5.4</speed>
<course>183.9</course>
<desc>Speed 5.4 km/h Distance 3.94 km</desc>
<time>2010-03-14T11:15:10.96</time>
<name>2982</name>
</trkpt>
<trkpt lat="48.939872" lon="8.692835">
<ele>380.0</ele>
<speed>5.6</speed>
<course>183.8</course>
<desc>Speed 5.6 km/h Distance 3.94 km</desc>
<time>2010-03-14T11:15:11.96</time>
<name>2983</name>
</trkpt>
<trkpt lat="48.939857" lon="8.692833">
<ele>380.5</ele>
<speed>5.4</speed>
<course>183.9</course>
<desc>Speed 5.4 km/h Distance 3.94 km</desc>
<time>2010-03-14T11:15:12.96</time>
<name>2984</name>
</trkpt>
<trkpt lat="48.939843" lon="8.692832">
<ele>380.5</ele>
<speed>5.7</speed>
<course>189.0</course>
<desc>Speed 5.7 km/h Distance 3.94 km</desc>
<time>2010-03-14T11:15:13.96</time>
<name>2985</name>
</trkpt>
<trkpt lat="48.939830" lon="8.692828">
<ele>380.5</ele>
<speed>5.5</speed>
<course>180.0</course>
<desc>Speed 5.5 km/h Distance 3.94 km</desc>
<time>2010-03-14T11:15:14.96</time>
<name>2986</name>
</trkpt>
<trkpt lat="48.939813" lon="8.692828">
<ele>380.5</ele>
<speed>5.4</speed>
<course>189.0</course>
<desc>Speed 5.4 km/h Distance 3.94 km</desc>
<time>2010-03-14T11:15:15.96</time>
<name>2987</name>
</trkpt>
<trkpt lat="48.939800" lon="8.692825">
<ele>381.0</ele>
<speed>5.2</speed>
<course>189.0</course>
<desc>Speed 5.2 km/h Distance 3.95 km</desc>
<time>2010-03-14T11:15:16.96</time>
<name>2988</name>
</trkpt>
<trkpt lat="48.939787" lon="8.692822">
<ele>381.0</ele>
<speed>5.5</speed>
<course>198.1</course>
<desc>Speed 5.5 km/h Distance 3.95 km</desc>
<time>2010-03-14T11:15:17.96</time>
<name>2989</name>
</trkpt>
<trkpt lat="48.939773" lon="8.692815">
<ele>381.0</ele>
<speed>5.7</speed>
<course>198.4</course>
<desc>Speed 5.7 km/h Distance 3.95 km</desc>
<time>2010-03-14T11:15:18.96</time>
<name>2990</name>
</trkpt>
<trkpt lat="48.939760" lon="8.692808">
<ele>381.0</ele>
<speed>5.5</speed>
<course>187.7</course>
<desc>Speed 5.5 km/h Distance 3.95 km</desc>
<time>2010-03-14T11:15:19.96</time>
<name>2991</name>
</trkpt>
<trkpt lat="48.939743" lon="8.692805">
<ele>381.5</ele>
<speed>5.5</speed>
<course>189.7</course>
<desc>Speed 5.5 km/h Distance 3.95 km</desc>
<time>2010-03-14T11:15:20.96</time>
<name>2992</name>
</trkpt>
<trkpt lat="48.939730" lon="8.692802">
<ele>381.5</ele>
<speed>5.7</speed>
<course>185.3</course>
<desc>Speed 5.7 km/h Distance 3.95 km</desc>
<time>2010-03-14T11:15:21.96</time>
<name>2993</name>
</trkpt>
<trkpt lat="48.939717" lon="8.692800">
<ele>382.0</ele>
<speed>5.8</speed>
<course>176.3</course>
<desc>Speed 5.8 km/h Distance 3.96 km</desc>
<time>2010-03-14T11:15:22.96</time>
<name>2994</name>
</trkpt>
<trkpt lat="48.939698" lon="8.692802">
<ele>382.5</ele>
<speed>5.8</speed>
<course>176.2</course>
<desc>Speed 5.8 km/h Distance 3.96 km</desc>
<time>2010-03-14T11:15:23.96</time>
<name>2995</name>
</trkpt>
<trkpt lat="48.939683" lon="8.692802">
<ele>382.5</ele>
<speed>5.5</speed>
<course>176.2</course>
<desc>Speed 5.5 km/h Distance 3.96 km</desc>
<time>2010-03-14T11:15:24.96</time>
<name>2996</name>
</trkpt>
<trkpt lat="48.939668" lon="8.692802">
<ele>383.0</ele>
<speed>5.7</speed>
<course>175.9</course>
<desc>Speed 5.7 km/h Distance 3.96 km</desc>
<time>2010-03-14T11:15:25.96</time>
<name>2997</name>
</trkpt>
<trkpt lat="48.939652" lon="8.692803">
<ele>383.0</ele>
<speed>5.6</speed>
<course>183.8</course>
<desc>Speed 5.6 km/h Distance 3.96 km</desc>
<time>2010-03-14T11:15:26.96</time>
<name>2998</name>
</trkpt>
<trkpt lat="48.939637" lon="8.692802">
<ele>383.0</ele>
<speed>5.8</speed>
<course>178.8</course>
<desc>Speed 5.8 km/h Distance 3.96 km</desc>
<time>2010-03-14T11:15:27.96</time>
<name>2999</name>
</trkpt>
<trkpt lat="48.939623" lon="8.692802">
<ele>383.0</ele>
<speed>5.7</speed>
<course>175.9</course>
<desc>Speed 5.7 km/h Distance 3.97 km</desc>
<time>2010-03-14T11:15:28.96</time>
<name>3000</name>
</trkpt>
<trkpt lat="48.939607" lon="8.692803">
<ele>383.0</ele>
<speed>5.7</speed>
<course>178.1</course>
<desc>Speed 5.7 km/h Distance 3.97 km</desc>
<time>2010-03-14T11:15:29.96</time>
<name>3001</name>
</trkpt>
<trkpt lat="48.939592" lon="8.692803">
<ele>383.0</ele>
<speed>5.9</speed>
<course>180.0</course>
<desc>Speed 5.9 km/h Distance 3.97 km</desc>
<time>2010-03-14T11:15:30.96</time>
<name>3002</name>
</trkpt>
<trkpt lat="48.939577" lon="8.692803">
<ele>383.5</ele>
<speed>5.5</speed>
<course>180.0</course>
<desc>Speed 5.5 km/h Distance 3.97 km</desc>
<time>2010-03-14T11:15:31.96</time>
<name>3003</name>
</trkpt>
<trkpt lat="48.939562" lon="8.692803">
<ele>383.5</ele>
<speed>5.5</speed>
<course>187.5</course>
<desc>Speed 5.5 km/h Distance 3.97 km</desc>
<time>2010-03-14T11:15:32.96</time>
<name>3004</name>
</trkpt>
<trkpt lat="48.939547" lon="8.692800">
<ele>383.5</ele>
<speed>5.8</speed>
<course>188.8</course>
<desc>Speed 5.8 km/h Distance 3.97 km</desc>
<time>2010-03-14T11:15:33.96</time>
<name>3005</name>
</trkpt>
<trkpt lat="48.939532" lon="8.692797">
<ele>383.5</ele>
<speed>5.6</speed>
<course>189.0</course>
<desc>Speed 5.6 km/h Distance 3.98 km</desc>
<time>2010-03-14T11:15:34.96</time>
<name>3006</name>
</trkpt>
<trkpt lat="48.939518" lon="8.692793">
<ele>383.5</ele>
<speed>5.5</speed>
<course>182.8</course>
<desc>Speed 5.5 km/h Distance 3.98 km</desc>
<time>2010-03-14T11:15:35.96</time>
<name>3007</name>
</trkpt>
<trkpt lat="48.939502" lon="8.692792">
<ele>384.0</ele>
<speed>5.7</speed>
<course>189.0</course>
<desc>Speed 5.7 km/h Distance 3.98 km</desc>
<time>2010-03-14T11:15:36.96</time>
<name>3008</name>
</trkpt>
<trkpt lat="48.939488" lon="8.692788">
<ele>384.0</ele>
<speed>5.5</speed>
<course>188.8</course>
<desc>Speed 5.5 km/h Distance 3.98 km</desc>
<time>2010-03-14T11:15:37.96</time>
<name>3009</name>
</trkpt>
<trkpt lat="48.939473" lon="8.692785">
<ele>384.0</ele>
<speed>5.6</speed>
<course>185.0</course>
<desc>Speed 5.6 km/h Distance 3.98 km</desc>
<time>2010-03-14T11:15:38.96</time>
<name>3010</name>
</trkpt>
<trkpt lat="48.939458" lon="8.692783">
<ele>384.0</ele>
<speed>5.5</speed>
<course>183.8</course>
<desc>Speed 5.5 km/h Distance 3.98 km</desc>
<time>2010-03-14T11:15:39.96</time>
<name>3011</name>
</trkpt>
<trkpt lat="48.939443" lon="8.692782">
<ele>384.5</ele>
<speed>5.4</speed>
<course>187.7</course>
<desc>Speed 5.4 km/h Distance 3.99 km</desc>
<time>2010-03-14T11:15:40.96</time>
<name>3012</name>
</trkpt>
<trkpt lat="48.939427" lon="8.692778">
<ele>384.5</ele>
<speed>5.6</speed>
<course>189.0</course>
<desc>Speed 5.6 km/h Distance 3.99 km</desc>
<time>2010-03-14T11:15:41.96</time>
<name>3013</name>
</trkpt>
<trkpt lat="48.939413" lon="8.692775">
<ele>384.5</ele>
<speed>5.4</speed>
<course>169.2</course>
<desc>Speed 5.4 km/h Distance 3.99 km</desc>
<time>2010-03-14T11:15:42.96</time>
<name>3014</name>
</trkpt>
<trkpt lat="48.939397" lon="8.692780">
<ele>385.0</ele>
<speed>5.5</speed>
<course>173.0</course>
<desc>Speed 5.5 km/h Distance 3.99 km</desc>
<time>2010-03-14T11:15:43.96</time>
<name>3015</name>
</trkpt>
<trkpt lat="48.939378" lon="8.692783">
<ele>385.5</ele>
<speed>5.4</speed>
<course>173.0</course>
<desc>Speed 5.4 km/h Distance 3.99 km</desc>
<time>2010-03-14T11:15:44.96</time>
<name>3016</name>
</trkpt>
<trkpt lat="48.939360" lon="8.692787">
<ele>386.0</ele>
<speed>5.5</speed>
<course>183.8</course>
<desc>Speed 5.5 km/h Distance 4.00 km</desc>
<time>2010-03-14T11:15:45.96</time>
<name>3017</name>
</trkpt>
<trkpt lat="48.939345" lon="8.692785">
<ele>386.5</ele>
<speed>5.3</speed>
<course>185.3</course>
<desc>Speed 5.3 km/h Distance 4.00 km</desc>
<time>2010-03-14T11:15:46.96</time>
<name>3018</name>
</trkpt>
<trkpt lat="48.939332" lon="8.692783">
<ele>386.5</ele>
<speed>5.4</speed>
<course>187.5</course>
<desc>Speed 5.4 km/h Distance 4.00 km</desc>
<time>2010-03-14T11:15:47.96</time>
<name>3019</name>
</trkpt>
<trkpt lat="48.939317" lon="8.692780">
<ele>386.5</ele>
<speed>5.5</speed>
<course>183.8</course>
<desc>Speed 5.5 km/h Distance 4.00 km</desc>
<time>2010-03-14T11:15:48.96</time>
<name>3020</name>
</trkpt>
<trkpt lat="48.939302" lon="8.692778">
<ele>386.5</ele>
<speed>5.5</speed>
<course>181.9</course>
<desc>Speed 5.5 km/h Distance 4.00 km</desc>
<time>2010-03-14T11:15:49.96</time>
<name>3021</name>
</trkpt>
<trkpt lat="48.939287" lon="8.692777">
<ele>386.5</ele>
<speed>5.6</speed>
<course>182.8</course>
<desc>Speed 5.6 km/h Distance 4.00 km</desc>
<time>2010-03-14T11:15:50.96</time>
<name>3022</name>
</trkpt>
<trkpt lat="48.939270" lon="8.692775">
<ele>387.0</ele>
<speed>5.7</speed>
<course>189.0</course>
<desc>Speed 5.7 km/h Distance 4.01 km</desc>
<time>2010-03-14T11:15:51.96</time>
<name>3023</name>
</trkpt>
<trkpt lat="48.939257" lon="8.692772">
<ele>387.0</ele>
<speed>5.5</speed>
<course>187.5</course>
<desc>Speed 5.5 km/h Distance 4.01 km</desc>
<time>2010-03-14T11:15:52.96</time>
<name>3024</name>
</trkpt>
<trkpt lat="48.939242" lon="8.692768">
<ele>387.0</ele>
<speed>5.8</speed>
<course>189.0</course>
<desc>Speed 5.8 km/h Distance 4.01 km</desc>
<time>2010-03-14T11:15:53.96</time>
<name>3025</name>
</trkpt>
<trkpt lat="48.939228" lon="8.692765">
<ele>387.0</ele>
<speed>5.7</speed>
<course>191.7</course>
<desc>Speed 5.7 km/h Distance 4.01 km</desc>
<time>2010-03-14T11:15:54.96</time>
<name>3026</name>
</trkpt>
<trkpt lat="48.939213" lon="8.692760">
<ele>387.0</ele>
<speed>5.5</speed>
<course>189.0</course>
<desc>Speed 5.5 km/h Distance 4.01 km</desc>
<time>2010-03-14T11:15:55.96</time>
<name>3027</name>
</trkpt>
<trkpt lat="48.939200" lon="8.692757">
<ele>387.0</ele>
<speed>5.5</speed>
<course>188.1</course>
<desc>Speed 5.5 km/h Distance 4.01 km</desc>
<time>2010-03-14T11:15:56.96</time>
<name>3028</name>
</trkpt>
<trkpt lat="48.939185" lon="8.692753">
<ele>387.0</ele>
<speed>5.6</speed>
<course>188.1</course>
<desc>Speed 5.6 km/h Distance 4.01 km</desc>
<time>2010-03-14T11:15:57.96</time>
<name>3029</name>
</trkpt>
<trkpt lat="48.939170" lon="8.692750">
<ele>387.0</ele>
<speed>5.7</speed>
<course>188.8</course>
<desc>Speed 5.7 km/h Distance 4.02 km</desc>
<time>2010-03-14T11:15:58.96</time>
<name>3030</name>
</trkpt>
<trkpt lat="48.939155" lon="8.692747">
<ele>387.5</ele>
<speed>5.8</speed>
<course>191.7</course>
<desc>Speed 5.8 km/h Distance 4.02 km</desc>
<time>2010-03-14T11:15:59.96</time>
<name>3031</name>
</trkpt>
<trkpt lat="48.939140" lon="8.692742">
<ele>387.5</ele>
<speed>5.7</speed>
<course>192.2</course>
<desc>Speed 5.7 km/h Distance 4.02 km</desc>
<time>2010-03-14T11:16:00.96</time>
<name>3032</name>
</trkpt>
<trkpt lat="48.939125" lon="8.692737">
<ele>387.5</ele>
<speed>5.8</speed>
<course>187.7</course>
<desc>Speed 5.8 km/h Distance 4.02 km</desc>
<time>2010-03-14T11:16:01.96</time>
<name>3033</name>
</trkpt>
<trkpt lat="48.939108" lon="8.692733">
<ele>387.5</ele>
<speed>5.7</speed>
<course>188.8</course>
<desc>Speed 5.7 km/h Distance 4.02 km</desc>
<time>2010-03-14T11:16:02.96</time>
<name>3034</name>
</trkpt>
<trkpt lat="48.939093" lon="8.692730">
<ele>388.0</ele>
<speed>5.8</speed>
<course>183.8</course>
<desc>Speed 5.8 km/h Distance 4.03 km</desc>
<time>2010-03-14T11:16:03.96</time>
<name>3035</name>
</trkpt>
<trkpt lat="48.939078" lon="8.692728">
<ele>388.0</ele>
<speed>5.5</speed>
<course>183.8</course>
<desc>Speed 5.5 km/h Distance 4.03 km</desc>
<time>2010-03-14T11:16:04.96</time>
<name>3036</name>
</trkpt>
<trkpt lat="48.939063" lon="8.692727">
<ele>388.0</ele>
<speed>5.7</speed>
<course>187.7</course>
<desc>Speed 5.7 km/h Distance 4.03 km</desc>
<time>2010-03-14T11:16:05.96</time>
<name>3037</name>
</trkpt>
<trkpt lat="48.939047" lon="8.692723">
<ele>388.0</ele>
<speed>6.0</speed>
<course>198.4</course>
<desc>Speed 6.0 km/h Distance 4.03 km</desc>
<time>2010-03-14T11:16:06.96</time>
<name>3038</name>
</trkpt>
<trkpt lat="48.939033" lon="8.692717">
<ele>388.0</ele>
<speed>5.9</speed>
<course>192.2</course>
<desc>Speed 5.9 km/h Distance 4.03 km</desc>
<time>2010-03-14T11:16:07.96</time>
<name>3039</name>
</trkpt>
<trkpt lat="48.939018" lon="8.692712">
<ele>388.0</ele>
<speed>5.8</speed>
<course>192.6</course>
<desc>Speed 5.8 km/h Distance 4.03 km</desc>
<time>2010-03-14T11:16:08.96</time>
<name>3040</name>
</trkpt>
<trkpt lat="48.939003" lon="8.692707">
<ele>388.0</ele>
<speed>5.9</speed>
<course>192.6</course>
<desc>Speed 5.9 km/h Distance 4.04 km</desc>
<time>2010-03-14T11:16:09.96</time>
<name>3041</name>
</trkpt>
<trkpt lat="48.938988" lon="8.692702">
<ele>388.0</ele>
<speed>5.9</speed>
<course>188.8</course>
<desc>Speed 5.9 km/h Distance 4.04 km</desc>
<time>2010-03-14T11:16:10.96</time>
<name>3042</name>
</trkpt>
<trkpt lat="48.938973" lon="8.692698">
<ele>388.0</ele>
<speed>6.0</speed>
<course>188.8</course>
<desc>Speed 6.0 km/h Distance 4.04 km</desc>
<time>2010-03-14T11:16:11.96</time>
<name>3043</name>
</trkpt>
<trkpt lat="48.938958" lon="8.692695">
<ele>388.5</ele>
<speed>5.8</speed>
<course>188.1</course>
<desc>Speed 5.8 km/h Distance 4.04 km</desc>
<time>2010-03-14T11:16:12.96</time>
<name>3044</name>
</trkpt>
<trkpt lat="48.938943" lon="8.692692">
<ele>388.5</ele>
<speed>5.8</speed>
<course>183.8</course>
<desc>Speed 5.8 km/h Distance 4.04 km</desc>
<time>2010-03-14T11:16:13.96</time>
<name>3045</name>
</trkpt>
<trkpt lat="48.938928" lon="8.692690">
<ele>388.5</ele>
<speed>5.8</speed>
<course>187.5</course>
<desc>Speed 5.8 km/h Distance 4.04 km</desc>
<time>2010-03-14T11:16:14.96</time>
<name>3046</name>
</trkpt>
<trkpt lat="48.938913" lon="8.692687">
<ele>388.5</ele>
<speed>6.0</speed>
<course>192.2</course>
<desc>Speed 6.0 km/h Distance 4.05 km</desc>
<time>2010-03-14T11:16:15.96</time>
<name>3047</name>
</trkpt>
<trkpt lat="48.938898" lon="8.692682">
<ele>388.5</ele>
<speed>5.7</speed>
<course>188.8</course>
<desc>Speed 5.7 km/h Distance 4.05 km</desc>
<time>2010-03-14T11:16:16.96</time>
<name>3048</name>
</trkpt>
<trkpt lat="48.938883" lon="8.692678">
<ele>388.5</ele>
<speed>5.9</speed>
<course>192.6</course>
<desc>Speed 5.9 km/h Distance 4.05 km</desc>
<time>2010-03-14T11:16:17.96</time>
<name>3049</name>
</trkpt>
<trkpt lat="48.938868" lon="8.692673">
<ele>389.0</ele>
<speed>5.8</speed>
<course>187.5</course>
<desc>Speed 5.8 km/h Distance 4.05 km</desc>
<time>2010-03-14T11:16:18.96</time>
<name>3050</name>
</trkpt>
<trkpt lat="48.938853" lon="8.692670">
<ele>389.0</ele>
<speed>5.8</speed>
<course>183.8</course>
<desc>Speed 5.8 km/h Distance 4.05 km</desc>
<time>2010-03-14T11:16:19.96</time>
<name>3051</name>
</trkpt>
<trkpt lat="48.938838" lon="8.692668">
<ele>389.0</ele>
<speed>5.8</speed>
<course>188.8</course>
<desc>Speed 5.8 km/h Distance 4.05 km</desc>
<time>2010-03-14T11:16:20.96</time>
<name>3052</name>
</trkpt>
<trkpt lat="48.938823" lon="8.692665">
<ele>389.0</ele>
<speed>5.9</speed>
<course>193.5</course>
<desc>Speed 5.9 km/h Distance 4.06 km</desc>
<time>2010-03-14T11:16:21.96</time>
<name>3053</name>
</trkpt>
<trkpt lat="48.938810" lon="8.692660">
<ele>389.0</ele>
<speed>5.8</speed>
<course>187.5</course>
<desc>Speed 5.8 km/h Distance 4.06 km</desc>
<time>2010-03-14T11:16:22.96</time>
<name>3054</name>
</trkpt>
<trkpt lat="48.938795" lon="8.692657">
<ele>389.0</ele>
<speed>5.8</speed>
<course>191.7</course>
<desc>Speed 5.8 km/h Distance 4.06 km</desc>
<time>2010-03-14T11:16:23.96</time>
<name>3055</name>
</trkpt>
<trkpt lat="48.938780" lon="8.692652">
<ele>389.0</ele>
<speed>6.0</speed>
<course>196.6</course>
<desc>Speed 6.0 km/h Distance 4.06 km</desc>
<time>2010-03-14T11:16:24.96</time>
<name>3056</name>
</trkpt>
<trkpt lat="48.938765" lon="8.692645">
<ele>389.0</ele>
<speed>5.9</speed>
<course>198.4</course>
<desc>Speed 5.9 km/h Distance 4.06 km</desc>
<time>2010-03-14T11:16:25.96</time>
<name>3057</name>
</trkpt>
<trkpt lat="48.938752" lon="8.692638">
<ele>388.5</ele>
<speed>5.8</speed>
<course>192.6</course>
<desc>Speed 5.8 km/h Distance 4.06 km</desc>
<time>2010-03-14T11:16:26.96</time>
<name>3058</name>
</trkpt>
<trkpt lat="48.938737" lon="8.692633">
<ele>388.5</ele>
<speed>5.9</speed>
<course>192.2</course>
<desc>Speed 5.9 km/h Distance 4.07 km</desc>
<time>2010-03-14T11:16:27.96</time>
<name>3059</name>
</trkpt>
<trkpt lat="48.938722" lon="8.692628">
<ele>388.5</ele>
<speed>5.9</speed>
<course>193.5</course>
<desc>Speed 5.9 km/h Distance 4.07 km</desc>
<time>2010-03-14T11:16:28.96</time>
<name>3060</name>
</trkpt>
<trkpt lat="48.938708" lon="8.692623">
<ele>388.5</ele>
<speed>6.0</speed>
<course>192.2</course>
<desc>Speed 6.0 km/h Distance 4.07 km</desc>
<time>2010-03-14T11:16:29.96</time>
<name>3061</name>
</trkpt>
<trkpt lat="48.938693" lon="8.692618">
<ele>388.5</ele>
<speed>6.0</speed>
<course>192.6</course>
<desc>Speed 6.0 km/h Distance 4.07 km</desc>
<time>2010-03-14T11:16:30.96</time>
<name>3062</name>
</trkpt>
<trkpt lat="48.938678" lon="8.692613">
<ele>388.5</ele>
<speed>5.8</speed>
<course>193.5</course>
<desc>Speed 5.8 km/h Distance 4.07 km</desc>
<time>2010-03-14T11:16:31.96</time>
<name>3063</name>
</trkpt>
<trkpt lat="48.938665" lon="8.692608">
<ele>388.0</ele>
<speed>5.7</speed>
<course>198.1</course>
<desc>Speed 5.7 km/h Distance 4.07 km</desc>
<time>2010-03-14T11:16:32.96</time>
<name>3064</name>
</trkpt>
<trkpt lat="48.938652" lon="8.692602">
<ele>388.0</ele>
<speed>5.6</speed>
<course>194.0</course>
<desc>Speed 5.6 km/h Distance 4.08 km</desc>
<time>2010-03-14T11:16:33.96</time>
<name>3065</name>
</trkpt>
<trkpt lat="48.938638" lon="8.692597">
<ele>388.0</ele>
<speed>5.7</speed>
<course>188.8</course>
<desc>Speed 5.7 km/h Distance 4.08 km</desc>
<time>2010-03-14T11:16:34.96</time>
<name>3066</name>
</trkpt>
<trkpt lat="48.938623" lon="8.692593">
<ele>388.0</ele>
<speed>5.7</speed>
<course>188.8</course>
<desc>Speed 5.7 km/h Distance 4.08 km</desc>
<time>2010-03-14T11:16:35.96</time>
<name>3067</name>
</trkpt>
<trkpt lat="48.938608" lon="8.692590">
<ele>388.0</ele>
<speed>5.6</speed>
<course>188.8</course>
<desc>Speed 5.6 km/h Distance 4.08 km</desc>
<time>2010-03-14T11:16:36.96</time>
<name>3068</name>
</trkpt>
<trkpt lat="48.938593" lon="8.692587">
<ele>388.0</ele>
<speed>5.9</speed>
<course>183.8</course>
<desc>Speed 5.9 km/h Distance 4.08 km</desc>
<time>2010-03-14T11:16:37.96</time>
<name>3069</name>
</trkpt>
<trkpt lat="48.938578" lon="8.692585">
<ele>388.0</ele>
<speed>5.9</speed>
<course>188.1</course>
<desc>Speed 5.9 km/h Distance 4.08 km</desc>
<time>2010-03-14T11:16:38.96</time>
<name>3070</name>
</trkpt>
<trkpt lat="48.938563" lon="8.692582">
<ele>388.0</ele>
<speed>5.7</speed>
<course>189.0</course>
<desc>Speed 5.7 km/h Distance 4.09 km</desc>
<time>2010-03-14T11:16:39.96</time>
<name>3071</name>
</trkpt>
<trkpt lat="48.938550" lon="8.692578">
<ele>388.0</ele>
<speed>5.8</speed>
<course>188.1</course>
<desc>Speed 5.8 km/h Distance 4.09 km</desc>
<time>2010-03-14T11:16:40.96</time>
<name>3072</name>
</trkpt>
<trkpt lat="48.938535" lon="8.692575">
<ele>388.0</ele>
<speed>5.8</speed>
<course>189.0</course>
<desc>Speed 5.8 km/h Distance 4.09 km</desc>
<time>2010-03-14T11:16:41.96</time>
<name>3073</name>
</trkpt>
<trkpt lat="48.938522" lon="8.692572">
<ele>388.0</ele>
<speed>5.6</speed>
<course>196.6</course>
<desc>Speed 5.6 km/h Distance 4.09 km</desc>
<time>2010-03-14T11:16:42.96</time>
<name>3074</name>
</trkpt>
<trkpt lat="48.938507" lon="8.692565">
<ele>388.0</ele>
<speed>5.9</speed>
<course>198.1</course>
<desc>Speed 5.9 km/h Distance 4.09 km</desc>
<time>2010-03-14T11:16:43.96</time>
<name>3075</name>
</trkpt>
<trkpt lat="48.938493" lon="8.692558">
<ele>388.0</ele>
<speed>5.7</speed>
<course>198.1</course>
<desc>Speed 5.7 km/h Distance 4.09 km</desc>
<time>2010-03-14T11:16:44.96</time>
<name>3076</name>
</trkpt>
<trkpt lat="48.938480" lon="8.692552">
<ele>388.0</ele>
<speed>5.7</speed>
<course>198.1</course>
<desc>Speed 5.7 km/h Distance 4.09 km</desc>
<time>2010-03-14T11:16:45.96</time>
<name>3077</name>
</trkpt>
<trkpt lat="48.938467" lon="8.692545">
<ele>388.0</ele>
<speed>5.6</speed>
<course>198.1</course>
<desc>Speed 5.6 km/h Distance 4.10 km</desc>
<time>2010-03-14T11:16:46.96</time>
<name>3078</name>
</trkpt>
<trkpt lat="48.938453" lon="8.692538">
<ele>387.5</ele>
<speed>5.8</speed>
<course>198.1</course>
<desc>Speed 5.8 km/h Distance 4.10 km</desc>
<time>2010-03-14T11:16:47.96</time>
<name>3079</name>
</trkpt>
<trkpt lat="48.938440" lon="8.692532">
<ele>387.5</ele>
<speed>5.7</speed>
<course>193.5</course>
<desc>Speed 5.7 km/h Distance 4.10 km</desc>
<time>2010-03-14T11:16:48.96</time>
<name>3080</name>
</trkpt>
<trkpt lat="48.938427" lon="8.692527">
<ele>387.5</ele>
<speed>5.6</speed>
<course>192.6</course>
<desc>Speed 5.6 km/h Distance 4.10 km</desc>
<time>2010-03-14T11:16:49.96</time>
<name>3081</name>
</trkpt>
<trkpt lat="48.938412" lon="8.692522">
<ele>387.5</ele>
<speed>5.7</speed>
<course>189.7</course>
<desc>Speed 5.7 km/h Distance 4.10 km</desc>
<time>2010-03-14T11:16:50.96</time>
<name>3082</name>
</trkpt>
<trkpt lat="48.938398" lon="8.692518">
<ele>387.5</ele>
<speed>5.6</speed>
<course>192.2</course>
<desc>Speed 5.6 km/h Distance 4.10 km</desc>
<time>2010-03-14T11:16:51.96</time>
<name>3083</name>
</trkpt>
<trkpt lat="48.938383" lon="8.692513">
<ele>387.5</ele>
<speed>5.9</speed>
<course>194.0</course>
<desc>Speed 5.9 km/h Distance 4.11 km</desc>
<time>2010-03-14T11:16:52.96</time>
<name>3084</name>
</trkpt>
<trkpt lat="48.938370" lon="8.692508">
<ele>387.5</ele>
<speed>5.7</speed>
<course>198.1</course>
<desc>Speed 5.7 km/h Distance 4.11 km</desc>
<time>2010-03-14T11:16:53.96</time>
<name>3085</name>
</trkpt>
<trkpt lat="48.938357" lon="8.692502">
<ele>387.5</ele>
<speed>5.8</speed>
<course>188.8</course>
<desc>Speed 5.8 km/h Distance 4.11 km</desc>
<time>2010-03-14T11:16:54.96</time>
<name>3086</name>
</trkpt>
<trkpt lat="48.938342" lon="8.692498">
<ele>387.5</ele>
<speed>5.4</speed>
<course>189.0</course>
<desc>Speed 5.4 km/h Distance 4.11 km</desc>
<time>2010-03-14T11:16:55.96</time>
<name>3087</name>
</trkpt>
<trkpt lat="48.938328" lon="8.692495">
<ele>387.5</ele>
<speed>5.7</speed>
<course>192.2</course>
<desc>Speed 5.7 km/h Distance 4.11 km</desc>
<time>2010-03-14T11:16:56.96</time>
<name>3088</name>
</trkpt>
<trkpt lat="48.938313" lon="8.692490">
<ele>387.5</ele>
<speed>5.9</speed>
<course>198.4</course>
<desc>Speed 5.9 km/h Distance 4.11 km</desc>
<time>2010-03-14T11:16:57.96</time>
<name>3089</name>
</trkpt>
<trkpt lat="48.938300" lon="8.692483">
<ele>387.5</ele>
<speed>5.6</speed>
<course>198.1</course>
<desc>Speed 5.6 km/h Distance 4.12 km</desc>
<time>2010-03-14T11:16:58.96</time>
<name>3090</name>
</trkpt>
<trkpt lat="48.938287" lon="8.692477">
<ele>387.5</ele>
<speed>5.7</speed>
<course>196.6</course>
<desc>Speed 5.7 km/h Distance 4.12 km</desc>
<time>2010-03-14T11:16:59.96</time>
<name>3091</name>
</trkpt>
<trkpt lat="48.938272" lon="8.692470">
<ele>387.5</ele>
<speed>5.8</speed>
<course>198.1</course>
<desc>Speed 5.8 km/h Distance 4.12 km</desc>
<time>2010-03-14T11:17:00.96</time>
<name>3092</name>
</trkpt>
<trkpt lat="48.938258" lon="8.692463">
<ele>387.5</ele>
<speed>5.6</speed>
<course>193.5</course>
<desc>Speed 5.6 km/h Distance 4.12 km</desc>
<time>2010-03-14T11:17:01.96</time>
<name>3093</name>
</trkpt>
<trkpt lat="48.938245" lon="8.692458">
<ele>387.5</ele>
<speed>5.7</speed>
<course>198.1</course>
<desc>Speed 5.7 km/h Distance 4.12 km</desc>
<time>2010-03-14T11:17:02.96</time>
<name>3094</name>
</trkpt>
<trkpt lat="48.938232" lon="8.692452">
<ele>387.5</ele>
<speed>5.8</speed>
<course>191.7</course>
<desc>Speed 5.8 km/h Distance 4.12 km</desc>
<time>2010-03-14T11:17:03.96</time>
<name>3095</name>
</trkpt>
<trkpt lat="48.938217" lon="8.692447">
<ele>387.5</ele>
<speed>5.9</speed>
<course>205.2</course>
<desc>Speed 5.9 km/h Distance 4.13 km</desc>
<time>2010-03-14T11:17:04.96</time>
<name>3096</name>
</trkpt>
<trkpt lat="48.938205" lon="8.692438">
<ele>387.5</ele>
<speed>5.8</speed>
<course>188.8</course>
<desc>Speed 5.8 km/h Distance 4.13 km</desc>
<time>2010-03-14T11:17:05.96</time>
<name>3097</name>
</trkpt>
<trkpt lat="48.938190" lon="8.692435">
<ele>387.0</ele>
<speed>5.7</speed>
<course>185.3</course>
<desc>Speed 5.7 km/h Distance 4.13 km</desc>
<time>2010-03-14T11:17:06.96</time>
<name>3098</name>
</trkpt>
<trkpt lat="48.938177" lon="8.692433">
<ele>387.5</ele>
<speed>5.7</speed>
<course>198.1</course>
<desc>Speed 5.7 km/h Distance 4.13 km</desc>
<time>2010-03-14T11:17:07.96</time>
<name>3099</name>
</trkpt>
<trkpt lat="48.938163" lon="8.692427">
<ele>387.5</ele>
<speed>5.4</speed>
<course>213.2</course>
<desc>Speed 5.4 km/h Distance 4.13 km</desc>
<time>2010-03-14T11:17:08.96</time>
<name>3100</name>
</trkpt>
<trkpt lat="48.938153" lon="8.692417">
<ele>387.5</ele>
<speed>5.0</speed>
<course>193.5</course>
<desc>Speed 5.0 km/h Distance 4.13 km</desc>
<time>2010-03-14T11:17:09.96</time>
<name>3101</name>
</trkpt>
<trkpt lat="48.938140" lon="8.692412">
<ele>387.5</ele>
<speed>5.3</speed>
<course>198.1</course>
<desc>Speed 5.3 km/h Distance 4.13 km</desc>
<time>2010-03-14T11:17:10.96</time>
<name>3102</name>
</trkpt>
<trkpt lat="48.938127" lon="8.692405">
<ele>387.5</ele>
<speed>5.6</speed>
<course>198.1</course>
<desc>Speed 5.6 km/h Distance 4.14 km</desc>
<time>2010-03-14T11:17:11.96</time>
<name>3103</name>
</trkpt>
<trkpt lat="48.938113" lon="8.692398">
<ele>387.0</ele>
<speed>5.7</speed>
<course>193.5</course>
<desc>Speed 5.7 km/h Distance 4.14 km</desc>
<time>2010-03-14T11:17:12.96</time>
<name>3104</name>
</trkpt>
<trkpt lat="48.938100" lon="8.692393">
<ele>387.0</ele>
<speed>5.8</speed>
<course>198.1</course>
<desc>Speed 5.8 km/h Distance 4.14 km</desc>
<time>2010-03-14T11:17:13.96</time>
<name>3105</name>
</trkpt>
<trkpt lat="48.938087" lon="8.692387">
<ele>387.0</ele>
<speed>5.8</speed>
<course>198.1</course>
<desc>Speed 5.8 km/h Distance 4.14 km</desc>
<time>2010-03-14T11:17:14.96</time>
<name>3106</name>
</trkpt>
<trkpt lat="48.938073" lon="8.692380">
<ele>387.5</ele>
<speed>5.6</speed>
<course>198.1</course>
<desc>Speed 5.6 km/h Distance 4.14 km</desc>
<time>2010-03-14T11:17:16.96</time>
<name>3107</name>
</trkpt>
<trkpt lat="48.938060" lon="8.692373">
<ele>387.5</ele>
<speed>5.8</speed>
<course>192.6</course>
<desc>Speed 5.8 km/h Distance 4.14 km</desc>
<time>2010-03-14T11:17:17.96</time>
<name>3108</name>
</trkpt>
<trkpt lat="48.938045" lon="8.692368">
<ele>387.5</ele>
<speed>5.7</speed>
<course>194.0</course>
<desc>Speed 5.7 km/h Distance 4.15 km</desc>
<time>2010-03-14T11:17:18.96</time>
<name>3109</name>
</trkpt>
<trkpt lat="48.938032" lon="8.692363">
<ele>387.5</ele>
<speed>5.6</speed>
<course>198.1</course>
<desc>Speed 5.6 km/h Distance 4.15 km</desc>
<time>2010-03-14T11:17:19.96</time>
<name>3110</name>
</trkpt>
<trkpt lat="48.938018" lon="8.692357">
<ele>387.5</ele>
<speed>5.8</speed>
<course>198.1</course>
<desc>Speed 5.8 km/h Distance 4.15 km</desc>
<time>2010-03-14T11:17:20.96</time>
<name>3111</name>
</trkpt>
<trkpt lat="48.938005" lon="8.692350">
<ele>387.5</ele>
<speed>5.7</speed>
<course>196.6</course>
<desc>Speed 5.7 km/h Distance 4.15 km</desc>
<time>2010-03-14T11:17:21.96</time>
<name>3112</name>
</trkpt>
<trkpt lat="48.937990" lon="8.692343">
<ele>387.5</ele>
<speed>5.7</speed>
<course>198.1</course>
<desc>Speed 5.7 km/h Distance 4.15 km</desc>
<time>2010-03-14T11:17:22.96</time>
<name>3113</name>
</trkpt>
<trkpt lat="48.937977" lon="8.692337">
<ele>387.5</ele>
<speed>5.8</speed>
<course>193.5</course>
<desc>Speed 5.8 km/h Distance 4.15 km</desc>
<time>2010-03-14T11:17:23.96</time>
<name>3114</name>
</trkpt>
<trkpt lat="48.937963" lon="8.692332">
<ele>387.5</ele>
<speed>5.8</speed>
<course>196.3</course>
<desc>Speed 5.8 km/h Distance 4.15 km</desc>
<time>2010-03-14T11:17:24.96</time>
<name>3115</name>
</trkpt>
<trkpt lat="48.937948" lon="8.692325">
<ele>387.5</ele>
<speed>5.8</speed>
<course>193.5</course>
<desc>Speed 5.8 km/h Distance 4.16 km</desc>
<time>2010-03-14T11:17:25.96</time>
<name>3116</name>
</trkpt>
<trkpt lat="48.937935" lon="8.692320">
<ele>387.5</ele>
<speed>5.6</speed>
<course>192.6</course>
<desc>Speed 5.6 km/h Distance 4.16 km</desc>
<time>2010-03-14T11:17:26.96</time>
<name>3117</name>
</trkpt>
<trkpt lat="48.937920" lon="8.692315">
<ele>387.5</ele>
<speed>5.8</speed>
<course>198.8</course>
<desc>Speed 5.8 km/h Distance 4.16 km</desc>
<time>2010-03-14T11:17:27.96</time>
<name>3118</name>
</trkpt>
<trkpt lat="48.937907" lon="8.692308">
<ele>387.5</ele>
<speed>5.8</speed>
<course>198.8</course>
<desc>Speed 5.8 km/h Distance 4.16 km</desc>
<time>2010-03-14T11:17:28.96</time>
<name>3119</name>
</trkpt>
<trkpt lat="48.937893" lon="8.692302">
<ele>387.5</ele>
<speed>5.8</speed>
<course>192.6</course>
<desc>Speed 5.8 km/h Distance 4.16 km</desc>
<time>2010-03-14T11:17:29.96</time>
<name>3120</name>
</trkpt>
<trkpt lat="48.937878" lon="8.692297">
<ele>387.5</ele>
<speed>5.7</speed>
<course>198.1</course>
<desc>Speed 5.7 km/h Distance 4.16 km</desc>
<time>2010-03-14T11:17:30.96</time>
<name>3121</name>
</trkpt>
<trkpt lat="48.937865" lon="8.692290">
<ele>387.5</ele>
<speed>5.8</speed>
<course>198.1</course>
<desc>Speed 5.8 km/h Distance 4.17 km</desc>
<time>2010-03-14T11:17:31.96</time>
<name>3122</name>
</trkpt>
<trkpt lat="48.937852" lon="8.692283">
<ele>387.5</ele>
<speed>5.8</speed>
<course>198.1</course>
<desc>Speed 5.8 km/h Distance 4.17 km</desc>
<time>2010-03-14T11:17:32.96</time>
<name>3123</name>
</trkpt>
<trkpt lat="48.937838" lon="8.692277">
<ele>387.5</ele>
<speed>5.7</speed>
<course>192.2</course>
<desc>Speed 5.7 km/h Distance 4.17 km</desc>
<time>2010-03-14T11:17:33.96</time>
<name>3124</name>
</trkpt>
<trkpt lat="48.937823" lon="8.692272">
<ele>387.5</ele>
<speed>5.8</speed>
<course>193.5</course>
<desc>Speed 5.8 km/h Distance 4.17 km</desc>
<time>2010-03-14T11:17:34.96</time>
<name>3125</name>
</trkpt>
<trkpt lat="48.937810" lon="8.692267">
<ele>388.0</ele>
<speed>5.8</speed>
<course>202.3</course>
<desc>Speed 5.8 km/h Distance 4.17 km</desc>
<time>2010-03-14T11:17:35.96</time>
<name>3126</name>
</trkpt>
<trkpt lat="48.937797" lon="8.692258">
<ele>388.0</ele>
<speed>5.7</speed>
<course>202.1</course>
<desc>Speed 5.7 km/h Distance 4.17 km</desc>
<time>2010-03-14T11:17:36.96</time>
<name>3127</name>
</trkpt>
<trkpt lat="48.937783" lon="8.692250">
<ele>388.0</ele>
<speed>5.6</speed>
<course>198.1</course>
<desc>Speed 5.6 km/h Distance 4.18 km</desc>
<time>2010-03-14T11:17:37.96</time>
<name>3128</name>
</trkpt>
<trkpt lat="48.937770" lon="8.692243">
<ele>388.0</ele>
<speed>5.7</speed>
<course>202.1</course>
<desc>Speed 5.7 km/h Distance 4.18 km</desc>
<time>2010-03-14T11:17:38.96</time>
<name>3129</name>
</trkpt>
<trkpt lat="48.937757" lon="8.692235">
<ele>388.0</ele>
<speed>5.4</speed>
<course>202.1</course>
<desc>Speed 5.4 km/h Distance 4.18 km</desc>
<time>2010-03-14T11:17:39.96</time>
<name>3130</name>
</trkpt>
<trkpt lat="48.937743" lon="8.692227">
<ele>388.5</ele>
<speed>6.0</speed>
<course>196.0</course>
<desc>Speed 6.0 km/h Distance 4.18 km</desc>
<time>2010-03-14T11:17:40.96</time>
<name>3131</name>
</trkpt>
<trkpt lat="48.937728" lon="8.692220">
<ele>388.5</ele>
<speed>6.0</speed>
<course>202.1</course>
<desc>Speed 6.0 km/h Distance 4.18 km</desc>
<time>2010-03-14T11:17:41.96</time>
<name>3132</name>
</trkpt>
<trkpt lat="48.937715" lon="8.692212">
<ele>388.5</ele>
<speed>5.7</speed>
<course>205.2</course>
<desc>Speed 5.7 km/h Distance 4.18 km</desc>
<time>2010-03-14T11:17:42.96</time>
<name>3133</name>
</trkpt>
<trkpt lat="48.937703" lon="8.692203">
<ele>388.5</ele>
<speed>5.6</speed>
<course>198.1</course>
<desc>Speed 5.6 km/h Distance 4.19 km</desc>
<time>2010-03-14T11:17:43.96</time>
<name>3134</name>
</trkpt>
<trkpt lat="48.937690" lon="8.692197">
<ele>388.5</ele>
<speed>5.5</speed>
<course>202.6</course>
<desc>Speed 5.5 km/h Distance 4.19 km</desc>
<time>2010-03-14T11:17:44.96</time>
<name>3135</name>
</trkpt>
<trkpt lat="48.937677" lon="8.692188">
<ele>388.5</ele>
<speed>5.7</speed>
<course>202.3</course>
<desc>Speed 5.7 km/h Distance 4.19 km</desc>
<time>2010-03-14T11:17:45.96</time>
<name>3136</name>
</trkpt>
<trkpt lat="48.937663" lon="8.692180">
<ele>388.5</ele>
<speed>5.7</speed>
<course>198.1</course>
<desc>Speed 5.7 km/h Distance 4.19 km</desc>
<time>2010-03-14T11:17:46.96</time>
<name>3137</name>
</trkpt>
<trkpt lat="48.937650" lon="8.692173">
<ele>388.5</ele>
<speed>5.8</speed>
<course>196.6</course>
<desc>Speed 5.8 km/h Distance 4.19 km</desc>
<time>2010-03-14T11:17:47.96</time>
<name>3138</name>
</trkpt>
<trkpt lat="48.937635" lon="8.692167">
<ele>388.5</ele>
<speed>5.7</speed>
<course>198.1</course>
<desc>Speed 5.7 km/h Distance 4.19 km</desc>
<time>2010-03-14T11:17:48.96</time>
<name>3139</name>
</trkpt>
<trkpt lat="48.937622" lon="8.692160">
<ele>388.5</ele>
<speed>5.7</speed>
<course>202.3</course>
<desc>Speed 5.7 km/h Distance 4.19 km</desc>
<time>2010-03-14T11:17:49.96</time>
<name>3140</name>
</trkpt>
<trkpt lat="48.937608" lon="8.692152">
<ele>388.5</ele>
<speed>5.7</speed>
<course>198.1</course>
<desc>Speed 5.7 km/h Distance 4.20 km</desc>
<time>2010-03-14T11:17:50.96</time>
<name>3141</name>
</trkpt>
<trkpt lat="48.937595" lon="8.692145">
<ele>389.0</ele>
<speed>5.6</speed>
<course>198.1</course>
<desc>Speed 5.6 km/h Distance 4.20 km</desc>
<time>2010-03-14T11:17:51.96</time>
<name>3142</name>
</trkpt>
<trkpt lat="48.937582" lon="8.692138">
<ele>389.0</ele>
<speed>5.8</speed>
<course>198.1</course>
<desc>Speed 5.8 km/h Distance 4.20 km</desc>
<time>2010-03-14T11:17:52.96</time>
<name>3143</name>
</trkpt>
<trkpt lat="48.937568" lon="8.692132">
<ele>389.0</ele>
<speed>5.7</speed>
<course>192.6</course>
<desc>Speed 5.7 km/h Distance 4.20 km</desc>
<time>2010-03-14T11:17:53.96</time>
<name>3144</name>
</trkpt>
<trkpt lat="48.937553" lon="8.692127">
<ele>389.0</ele>
<speed>5.7</speed>
<course>194.0</course>
<desc>Speed 5.7 km/h Distance 4.20 km</desc>
<time>2010-03-14T11:17:54.96</time>
<name>3145</name>
</trkpt>
<trkpt lat="48.937540" lon="8.692122">
<ele>389.0</ele>
<speed>5.5</speed>
<course>205.2</course>
<desc>Speed 5.5 km/h Distance 4.20 km</desc>
<time>2010-03-14T11:17:55.96</time>
<name>3146</name>
</trkpt>
<trkpt lat="48.937528" lon="8.692113">
<ele>389.0</ele>
<speed>5.4</speed>
<course>198.8</course>
<desc>Speed 5.4 km/h Distance 4.21 km</desc>
<time>2010-03-14T11:17:56.96</time>
<name>3147</name>
</trkpt>
<trkpt lat="48.937515" lon="8.692107">
<ele>389.0</ele>
<speed>5.6</speed>
<course>202.6</course>
<desc>Speed 5.6 km/h Distance 4.21 km</desc>
<time>2010-03-14T11:17:57.96</time>
<name>3148</name>
</trkpt>
<trkpt lat="48.937502" lon="8.692098">
<ele>389.0</ele>
<speed>5.7</speed>
<course>198.1</course>
<desc>Speed 5.7 km/h Distance 4.21 km</desc>
<time>2010-03-14T11:17:58.96</time>
<name>3149</name>
</trkpt>
<trkpt lat="48.937488" lon="8.692092">
<ele>389.0</ele>
<speed>5.3</speed>
<course>200.6</course>
<desc>Speed 5.3 km/h Distance 4.21 km</desc>
<time>2010-03-14T11:17:59.96</time>
<name>3150</name>
</trkpt>
<trkpt lat="48.937477" lon="8.692085">
<ele>389.5</ele>
<speed>5.1</speed>
<course>205.2</course>
<desc>Speed 5.1 km/h Distance 4.21 km</desc>
<time>2010-03-14T11:18:00.96</time>
<name>3151</name>
</trkpt>
<trkpt lat="48.937465" lon="8.692077">
<ele>389.5</ele>
<speed>5.0</speed>
<course>203.8</course>
<desc>Speed 5.0 km/h Distance 4.21 km</desc>
<time>2010-03-14T11:18:01.96</time>
<name>3152</name>
</trkpt>
<trkpt lat="48.937455" lon="8.692070">
<ele>389.5</ele>
<speed>4.7</speed>
<course>200.9</course>
<desc>Speed 4.7 km/h Distance 4.21 km</desc>
<time>2010-03-14T11:18:02.96</time>
<name>3153</name>
</trkpt>
<trkpt lat="48.937443" lon="8.692063">
<ele>389.5</ele>
<speed>4.9</speed>
<course>193.5</course>
<desc>Speed 4.9 km/h Distance 4.22 km</desc>
<time>2010-03-14T11:18:03.96</time>
<name>3154</name>
</trkpt>
<trkpt lat="48.937430" lon="8.692058">
<ele>389.5</ele>
<speed>5.1</speed>
<course>200.6</course>
<desc>Speed 5.1 km/h Distance 4.22 km</desc>
<time>2010-03-14T11:18:04.96</time>
<name>3155</name>
</trkpt>
<trkpt lat="48.937418" lon="8.692052">
<ele>389.5</ele>
<speed>5.5</speed>
<course>198.1</course>
<desc>Speed 5.5 km/h Distance 4.22 km</desc>
<time>2010-03-14T11:18:05.96</time>
<name>3156</name>
</trkpt>
<trkpt lat="48.937405" lon="8.692045">
<ele>389.5</ele>
<speed>5.6</speed>
<course>193.5</course>
<desc>Speed 5.6 km/h Distance 4.22 km</desc>
<time>2010-03-14T11:18:06.96</time>
<name>3157</name>
</trkpt>
<trkpt lat="48.937392" lon="8.692040">
<ele>389.5</ele>
<speed>5.6</speed>
<course>202.3</course>
<desc>Speed 5.6 km/h Distance 4.22 km</desc>
<time>2010-03-14T11:18:07.96</time>
<name>3158</name>
</trkpt>
<trkpt lat="48.937378" lon="8.692032">
<ele>389.5</ele>
<speed>5.6</speed>
<course>198.1</course>
<desc>Speed 5.6 km/h Distance 4.22 km</desc>
<time>2010-03-14T11:18:08.96</time>
<name>3159</name>
</trkpt>
<trkpt lat="48.937365" lon="8.692025">
<ele>389.5</ele>
<speed>5.7</speed>
<course>198.1</course>
<desc>Speed 5.7 km/h Distance 4.23 km</desc>
<time>2010-03-14T11:18:09.96</time>
<name>3160</name>
</trkpt>
<trkpt lat="48.937352" lon="8.692018">
<ele>390.0</ele>
<speed>5.7</speed>
<course>198.1</course>
<desc>Speed 5.7 km/h Distance 4.23 km</desc>
<time>2010-03-14T11:18:10.96</time>
<name>3161</name>
</trkpt>
<trkpt lat="48.937338" lon="8.692012">
<ele>390.0</ele>
<speed>5.6</speed>
<course>202.1</course>
<desc>Speed 5.6 km/h Distance 4.23 km</desc>
<time>2010-03-14T11:18:11.96</time>
<name>3162</name>
</trkpt>
<trkpt lat="48.937325" lon="8.692003">
<ele>390.0</ele>
<speed>5.8</speed>
<course>196.3</course>
<desc>Speed 5.8 km/h Distance 4.23 km</desc>
<time>2010-03-14T11:18:12.96</time>
<name>3163</name>
</trkpt>
<trkpt lat="48.937310" lon="8.691997">
<ele>390.0</ele>
<speed>5.8</speed>
<course>198.4</course>
<desc>Speed 5.8 km/h Distance 4.23 km</desc>
<time>2010-03-14T11:18:13.96</time>
<name>3164</name>
</trkpt>
<trkpt lat="48.937297" lon="8.691990">
<ele>390.0</ele>
<speed>5.8</speed>
<course>194.4</course>
<desc>Speed 5.8 km/h Distance 4.23 km</desc>
<time>2010-03-14T11:18:14.96</time>
<name>3165</name>
</trkpt>
<trkpt lat="48.937283" lon="8.691985">
<ele>390.0</ele>
<speed>5.5</speed>
<course>202.3</course>
<desc>Speed 5.5 km/h Distance 4.23 km</desc>
<time>2010-03-14T11:18:15.96</time>
<name>3166</name>
</trkpt>
<trkpt lat="48.937270" lon="8.691977">
<ele>390.0</ele>
<speed>5.8</speed>
<course>194.0</course>
<desc>Speed 5.8 km/h Distance 4.24 km</desc>
<time>2010-03-14T11:18:16.96</time>
<name>3167</name>
</trkpt>
<trkpt lat="48.937257" lon="8.691972">
<ele>390.0</ele>
<speed>5.6</speed>
<course>198.1</course>
<desc>Speed 5.6 km/h Distance 4.24 km</desc>
<time>2010-03-14T11:18:17.96</time>
<name>3168</name>
</trkpt>
<trkpt lat="48.937243" lon="8.691965">
<ele>390.5</ele>
<speed>5.6</speed>
<course>202.3</course>
<desc>Speed 5.6 km/h Distance 4.24 km</desc>
<time>2010-03-14T11:18:18.96</time>
<name>3169</name>
</trkpt>
<trkpt lat="48.937230" lon="8.691957">
<ele>390.5</ele>
<speed>5.8</speed>
<course>198.1</course>
<desc>Speed 5.8 km/h Distance 4.24 km</desc>
<time>2010-03-14T11:18:19.96</time>
<name>3170</name>
</trkpt>
<trkpt lat="48.937217" lon="8.691950">
<ele>390.5</ele>
<speed>5.7</speed>
<course>200.1</course>
<desc>Speed 5.7 km/h Distance 4.24 km</desc>
<time>2010-03-14T11:18:20.96</time>
<name>3171</name>
</trkpt>
<trkpt lat="48.937202" lon="8.691942">
<ele>390.5</ele>
<speed>5.8</speed>
<course>202.1</course>
<desc>Speed 5.8 km/h Distance 4.24 km</desc>
<time>2010-03-14T11:18:21.96</time>
<name>3172</name>
</trkpt>
<trkpt lat="48.937188" lon="8.691933">
<ele>390.5</ele>
<speed>5.7</speed>
<course>194.0</course>
<desc>Speed 5.7 km/h Distance 4.25 km</desc>
<time>2010-03-14T11:18:22.96</time>
<name>3173</name>
</trkpt>
<trkpt lat="48.937175" lon="8.691928">
<ele>390.5</ele>
<speed>5.8</speed>
<course>198.1</course>
<desc>Speed 5.8 km/h Distance 4.25 km</desc>
<time>2010-03-14T11:18:23.96</time>
<name>3174</name>
</trkpt>
<trkpt lat="48.937162" lon="8.691922">
<ele>390.5</ele>
<speed>5.6</speed>
<course>202.3</course>
<desc>Speed 5.6 km/h Distance 4.25 km</desc>
<time>2010-03-14T11:18:24.96</time>
<name>3175</name>
</trkpt>
<trkpt lat="48.937148" lon="8.691913">
<ele>390.5</ele>
<speed>5.7</speed>
<course>200.6</course>
<desc>Speed 5.7 km/h Distance 4.25 km</desc>
<time>2010-03-14T11:18:25.96</time>
<name>3176</name>
</trkpt>
<trkpt lat="48.937137" lon="8.691907">
<ele>390.5</ele>
<speed>5.6</speed>
<course>191.7</course>
<desc>Speed 5.6 km/h Distance 4.25 km</desc>
<time>2010-03-14T11:18:26.96</time>
<name>3177</name>
</trkpt>
<trkpt lat="48.937122" lon="8.691902">
<ele>390.5</ele>
<speed>5.8</speed>
<course>198.1</course>
<desc>Speed 5.8 km/h Distance 4.25 km</desc>
<time>2010-03-14T11:18:27.96</time>
<name>3178</name>
</trkpt>
<trkpt lat="48.937108" lon="8.691895">
<ele>391.0</ele>
<speed>5.7</speed>
<course>205.2</course>
<desc>Speed 5.7 km/h Distance 4.26 km</desc>
<time>2010-03-14T11:18:28.96</time>
<name>3179</name>
</trkpt>
<trkpt lat="48.937097" lon="8.691887">
<ele>391.0</ele>
<speed>5.7</speed>
<course>202.6</course>
<desc>Speed 5.7 km/h Distance 4.26 km</desc>
<time>2010-03-14T11:18:29.96</time>
<name>3180</name>
</trkpt>
<trkpt lat="48.937083" lon="8.691878">
<ele>391.0</ele>
<speed>5.8</speed>
<course>198.1</course>
<desc>Speed 5.8 km/h Distance 4.26 km</desc>
<time>2010-03-14T11:18:30.96</time>
<name>3181</name>
</trkpt>
<trkpt lat="48.937070" lon="8.691872">
<ele>391.0</ele>
<speed>5.5</speed>
<course>198.1</course>
<desc>Speed 5.5 km/h Distance 4.26 km</desc>
<time>2010-03-14T11:18:31.96</time>
<name>3182</name>
</trkpt>
<trkpt lat="48.937057" lon="8.691865">
<ele>391.0</ele>
<speed>5.5</speed>
<course>193.5</course>
<desc>Speed 5.5 km/h Distance 4.26 km</desc>
<time>2010-03-14T11:18:32.96</time>
<name>3183</name>
</trkpt>
<trkpt lat="48.937043" lon="8.691860">
<ele>391.0</ele>
<speed>5.6</speed>
<course>198.4</course>
<desc>Speed 5.6 km/h Distance 4.26 km</desc>
<time>2010-03-14T11:18:33.96</time>
<name>3184</name>
</trkpt>
<trkpt lat="48.937030" lon="8.691853">
<ele>391.0</ele>
<speed>5.6</speed>
<course>189.0</course>
<desc>Speed 5.6 km/h Distance 4.26 km</desc>
<time>2010-03-14T11:18:34.96</time>
<name>3185</name>
</trkpt>
<trkpt lat="48.937017" lon="8.691850">
<ele>391.0</ele>
<speed>5.6</speed>
<course>193.5</course>
<desc>Speed 5.6 km/h Distance 4.27 km</desc>
<time>2010-03-14T11:18:35.96</time>
<name>3186</name>
</trkpt>
<trkpt lat="48.937003" lon="8.691845">
<ele>391.0</ele>
<speed>5.5</speed>
<course>189.7</course>
<desc>Speed 5.5 km/h Distance 4.27 km</desc>
<time>2010-03-14T11:18:36.96</time>
<name>3187</name>
</trkpt>
<trkpt lat="48.936990" lon="8.691842">
<ele>391.0</ele>
<speed>5.7</speed>
<course>180.0</course>
<desc>Speed 5.7 km/h Distance 4.27 km</desc>
<time>2010-03-14T11:18:37.96</time>
<name>3188</name>
</trkpt>
<trkpt lat="48.936975" lon="8.691842">
<ele>391.0</ele>
<speed>5.7</speed>
<course>178.8</course>
<desc>Speed 5.7 km/h Distance 4.27 km</desc>
<time>2010-03-14T11:18:38.96</time>
<name>3189</name>
</trkpt>
<trkpt lat="48.936962" lon="8.691842">
<ele>391.0</ele>
<speed>5.7</speed>
<course>176.2</course>
<desc>Speed 5.7 km/h Distance 4.27 km</desc>
<time>2010-03-14T11:18:39.96</time>
<name>3190</name>
</trkpt>
<trkpt lat="48.936947" lon="8.691843">
<ele>391.5</ele>
<speed>5.6</speed>
<course>178.8</course>
<desc>Speed 5.6 km/h Distance 4.27 km</desc>
<time>2010-03-14T11:18:40.96</time>
<name>3191</name>
</trkpt>
<trkpt lat="48.936933" lon="8.691845">
<ele>391.5</ele>
<speed>5.6</speed>
<course>171.2</course>
<desc>Speed 5.6 km/h Distance 4.28 km</desc>
<time>2010-03-14T11:18:41.96</time>
<name>3192</name>
</trkpt>
<trkpt lat="48.936918" lon="8.691848">
<ele>391.5</ele>
<speed>5.9</speed>
<course>174.7</course>
<desc>Speed 5.9 km/h Distance 4.28 km</desc>
<time>2010-03-14T11:18:42.96</time>
<name>3193</name>
</trkpt>
<trkpt lat="48.936905" lon="8.691850">
<ele>391.0</ele>
<speed>5.6</speed>
<course>165.6</course>
<desc>Speed 5.6 km/h Distance 4.28 km</desc>
<time>2010-03-14T11:18:43.96</time>
<name>3194</name>
</trkpt>
<trkpt lat="48.936892" lon="8.691855">
<ele>391.0</ele>
<speed>5.9</speed>
<course>163.7</course>
<desc>Speed 5.9 km/h Distance 4.28 km</desc>
<time>2010-03-14T11:18:44.96</time>
<name>3195</name>
</trkpt>
<trkpt lat="48.936877" lon="8.691862">
<ele>391.0</ele>
<speed>6.0</speed>
<course>166.5</course>
<desc>Speed 6.0 km/h Distance 4.28 km</desc>
<time>2010-03-14T11:18:45.96</time>
<name>3196</name>
</trkpt>
<trkpt lat="48.936863" lon="8.691867">
<ele>391.0</ele>
<speed>5.8</speed>
<course>161.9</course>
<desc>Speed 5.8 km/h Distance 4.28 km</desc>
<time>2010-03-14T11:18:46.96</time>
<name>3197</name>
</trkpt>
<trkpt lat="48.936850" lon="8.691873">
<ele>391.0</ele>
<speed>5.5</speed>
<course>166.0</course>
<desc>Speed 5.5 km/h Distance 4.28 km</desc>
<time>2010-03-14T11:18:47.96</time>
<name>3198</name>
</trkpt>
<trkpt lat="48.936837" lon="8.691878">
<ele>391.0</ele>
<speed>5.3</speed>
<course>161.6</course>
<desc>Speed 5.3 km/h Distance 4.29 km</desc>
<time>2010-03-14T11:18:48.96</time>
<name>3199</name>
</trkpt>
<trkpt lat="48.936823" lon="8.691885">
<ele>391.0</ele>
<speed>5.6</speed>
<course>166.0</course>
<desc>Speed 5.6 km/h Distance 4.29 km</desc>
<time>2010-03-14T11:18:49.96</time>
<name>3200</name>
</trkpt>
<trkpt lat="48.936810" lon="8.691890">
<ele>390.5</ele>
<speed>5.4</speed>
<course>159.1</course>
<desc>Speed 5.4 km/h Distance 4.29 km</desc>
<time>2010-03-14T11:18:50.96</time>
<name>3201</name>
</trkpt>
<trkpt lat="48.936798" lon="8.691897">
<ele>390.5</ele>
<speed>5.4</speed>
<course>159.9</course>
<desc>Speed 5.4 km/h Distance 4.29 km</desc>
<time>2010-03-14T11:18:51.96</time>
<name>3202</name>
</trkpt>
<trkpt lat="48.936783" lon="8.691905">
<ele>390.5</ele>
<speed>6.2</speed>
<course>161.6</course>
<desc>Speed 6.2 km/h Distance 4.29 km</desc>
<time>2010-03-14T11:18:52.96</time>
<name>3203</name>
</trkpt>
<trkpt lat="48.936770" lon="8.691912">
<ele>390.5</ele>
<speed>5.8</speed>
<course>161.6</course>
<desc>Speed 5.8 km/h Distance 4.29 km</desc>
<time>2010-03-14T11:18:53.96</time>
<name>3204</name>
</trkpt>
<trkpt lat="48.936757" lon="8.691918">
<ele>390.5</ele>
<speed>5.5</speed>
<course>166.0</course>
<desc>Speed 5.5 km/h Distance 4.30 km</desc>
<time>2010-03-14T11:18:54.96</time>
<name>3205</name>
</trkpt>
<trkpt lat="48.936743" lon="8.691923">
<ele>390.5</ele>
<speed>5.7</speed>
<course>174.7</course>
<desc>Speed 5.7 km/h Distance 4.30 km</desc>
<time>2010-03-14T11:18:55.96</time>
<name>3206</name>
</trkpt>
<trkpt lat="48.936730" lon="8.691925">
<ele>390.5</ele>
<speed>5.6</speed>
<course>178.8</course>
<desc>Speed 5.6 km/h Distance 4.30 km</desc>
<time>2010-03-14T11:18:56.96</time>
<name>3207</name>
</trkpt>
<trkpt lat="48.936717" lon="8.691925">
<ele>390.5</ele>
<speed>5.2</speed>
<course>178.1</course>
<desc>Speed 5.2 km/h Distance 4.30 km</desc>
<time>2010-03-14T11:18:57.96</time>
<name>3208</name>
</trkpt>
<trkpt lat="48.936702" lon="8.691927">
<ele>390.5</ele>
<speed>5.8</speed>
<course>185.3</course>
<desc>Speed 5.8 km/h Distance 4.30 km</desc>
<time>2010-03-14T11:18:58.96</time>
<name>3209</name>
</trkpt>
<trkpt lat="48.936688" lon="8.691925">
<ele>390.5</ele>
<speed>5.5</speed>
<course>186.3</course>
<desc>Speed 5.5 km/h Distance 4.30 km</desc>
<time>2010-03-14T11:18:59.96</time>
<name>3210</name>
</trkpt>
<trkpt lat="48.936677" lon="8.691923">
<ele>390.0</ele>
<speed>4.9</speed>
<course>174.7</course>
<desc>Speed 4.9 km/h Distance 4.30 km</desc>
<time>2010-03-14T11:19:00.96</time>
<name>3211</name>
</trkpt>
<trkpt lat="48.936663" lon="8.691925">
<ele>389.5</ele>
<speed>5.3</speed>
<course>181.2</course>
<desc>Speed 5.3 km/h Distance 4.31 km</desc>
<time>2010-03-14T11:19:01.96</time>
<name>3212</name>
</trkpt>
<trkpt lat="48.936650" lon="8.691923">
<ele>389.5</ele>
<speed>5.5</speed>
<course>189.0</course>
<desc>Speed 5.5 km/h Distance 4.31 km</desc>
<time>2010-03-14T11:19:02.96</time>
<name>3213</name>
</trkpt>
<trkpt lat="48.936637" lon="8.691920">
<ele>389.0</ele>
<speed>5.6</speed>
<course>190.4</course>
<desc>Speed 5.6 km/h Distance 4.31 km</desc>
<time>2010-03-14T11:19:03.96</time>
<name>3214</name>
</trkpt>
<trkpt lat="48.936625" lon="8.691917">
<ele>388.5</ele>
<speed>4.3</speed>
<course>191.2</course>
<desc>Speed 4.3 km/h Distance 4.31 km</desc>
<time>2010-03-14T11:19:04.96</time>
<name>3215</name>
</trkpt>
<trkpt lat="48.936613" lon="8.691913">
<ele>388.0</ele>
<speed>5.0</speed>
<course>187.5</course>
<desc>Speed 5.0 km/h Distance 4.31 km</desc>
<time>2010-03-14T11:19:05.96</time>
<name>3216</name>
</trkpt>
<trkpt lat="48.936598" lon="8.691910">
<ele>388.0</ele>
<speed>5.0</speed>
<course>193.5</course>
<desc>Speed 5.0 km/h Distance 4.31 km</desc>
<time>2010-03-14T11:19:06.96</time>
<name>3217</name>
</trkpt>
<trkpt lat="48.936585" lon="8.691905">
<ele>387.5</ele>
<speed>4.9</speed>
<course>203.8</course>
<desc>Speed 4.9 km/h Distance 4.32 km</desc>
<time>2010-03-14T11:19:07.96</time>
<name>3218</name>
</trkpt>
<trkpt lat="48.936575" lon="8.691898">
<ele>387.5</ele>
<speed>4.5</speed>
<course>208.6</course>
<desc>Speed 4.5 km/h Distance 4.32 km</desc>
<time>2010-03-14T11:19:08.96</time>
<name>3219</name>
</trkpt>
<trkpt lat="48.936565" lon="8.691890">
<ele>387.5</ele>
<speed>4.5</speed>
<course>200.2</course>
<desc>Speed 4.5 km/h Distance 4.32 km</desc>
<time>2010-03-14T11:19:09.96</time>
<name>3220</name>
</trkpt>
<trkpt lat="48.936553" lon="8.691883">
<ele>387.5</ele>
<speed>4.5</speed>
<course>209.2</course>
<desc>Speed 4.5 km/h Distance 4.32 km</desc>
<time>2010-03-14T11:19:10.96</time>
<name>3221</name>
</trkpt>
<trkpt lat="48.936552" lon="8.691882">
<ele>387.5</ele>
<speed>0.8</speed>
<course>231.9</course>
<desc>Speed 0.8 km/h Distance 4.32 km</desc>
<time>2010-03-14T11:19:11.96</time>
<name>3222</name>
</trkpt>
<trkpt lat="48.936550" lon="8.691878">
<ele>387.5</ele>
<speed>1.3</speed>
<course>287.1</course>
<desc>Speed 1.3 km/h Distance 4.32 km</desc>
<time>2010-03-14T11:19:12.96</time>
<name>3223</name>
</trkpt>
<trkpt lat="48.936552" lon="8.691870">
<ele>387.5</ele>
<speed>1.8</speed>
<course>297.4</course>
<desc>Speed 1.8 km/h Distance 4.32 km</desc>
<time>2010-03-14T11:19:13.96</time>
<name>3224</name>
</trkpt>
<trkpt lat="48.936553" lon="8.691865">
<ele>387.0</ele>
<speed>1.3</speed>
<course>180.0</course>
<desc>Speed 1.3 km/h Distance 4.32 km</desc>
<time>2010-03-14T11:19:14.96</time>
<name>3225</name>
</trkpt>
<trkpt lat="48.936550" lon="8.691865">
<ele>387.0</ele>
<speed>1.3</speed>
<course>212.3</course>
<desc>Speed 1.3 km/h Distance 4.32 km</desc>
<time>2010-03-14T11:19:15.96</time>
<name>3226</name>
</trkpt>
<trkpt lat="48.936545" lon="8.691860">
<ele>386.5</ele>
<speed>2.3</speed>
<course>213.2</course>
<desc>Speed 2.3 km/h Distance 4.32 km</desc>
<time>2010-03-14T11:19:16.96</time>
<name>3227</name>
</trkpt>
<trkpt lat="48.936540" lon="8.691855">
<ele>386.5</ele>
<speed>2.7</speed>
<course>198.2</course>
<desc>Speed 2.7 km/h Distance 4.32 km</desc>
<time>2010-03-14T11:19:17.96</time>
<name>3228</name>
</trkpt>
<trkpt lat="48.936530" lon="8.691850">
<ele>386.5</ele>
<speed>3.5</speed>
<course>184.4</course>
<desc>Speed 3.5 km/h Distance 4.32 km</desc>
<time>2010-03-14T11:19:18.96</time>
<name>3229</name>
</trkpt>
<trkpt lat="48.936520" lon="8.691848">
<ele>386.5</ele>
<speed>4.6</speed>
<course>184.7</course>
<desc>Speed 4.6 km/h Distance 4.32 km</desc>
<time>2010-03-14T11:19:19.96</time>
<name>3230</name>
</trkpt>
<trkpt lat="48.936508" lon="8.691847">
<ele>386.5</ele>
<speed>4.1</speed>
<course>213.2</course>
<desc>Speed 4.1 km/h Distance 4.33 km</desc>
<time>2010-03-14T11:19:20.96</time>
<name>3231</name>
</trkpt>
<trkpt lat="48.936500" lon="8.691838">
<ele>386.0</ele>
<speed>4.0</speed>
<course>217.5</course>
<desc>Speed 4.0 km/h Distance 4.33 km</desc>
<time>2010-03-14T11:19:21.96</time>
<name>3232</name>
</trkpt>
<trkpt lat="48.936490" lon="8.691827">
<ele>385.5</ele>
<speed>4.9</speed>
<course>208.9</course>
<desc>Speed 4.9 km/h Distance 4.33 km</desc>
<time>2010-03-14T11:19:22.96</time>
<name>3233</name>
</trkpt>
<trkpt lat="48.936480" lon="8.691818">
<ele>385.5</ele>
<speed>4.5</speed>
<course>203.4</course>
<desc>Speed 4.5 km/h Distance 4.33 km</desc>
<time>2010-03-14T11:19:23.96</time>
<name>3234</name>
</trkpt>
<trkpt lat="48.936470" lon="8.691812">
<ele>385.0</ele>
<speed>4.3</speed>
<course>213.2</course>
<desc>Speed 4.3 km/h Distance 4.33 km</desc>
<time>2010-03-14T11:19:24.96</time>
<name>3235</name>
</trkpt>
<trkpt lat="48.936462" lon="8.691803">
<ele>384.5</ele>
<speed>4.1</speed>
<course>196.0</course>
<desc>Speed 4.1 km/h Distance 4.33 km</desc>
<time>2010-03-14T11:19:25.96</time>
<name>3236</name>
</trkpt>
<trkpt lat="48.936450" lon="8.691798">
<ele>384.5</ele>
<speed>4.4</speed>
<course>189.5</course>
<desc>Speed 4.4 km/h Distance 4.33 km</desc>
<time>2010-03-14T11:19:26.96</time>
<name>3237</name>
</trkpt>
<trkpt lat="48.936438" lon="8.691795">
<ele>384.5</ele>
<speed>4.4</speed>
<course>200.9</course>
<desc>Speed 4.4 km/h Distance 4.33 km</desc>
<time>2010-03-14T11:19:27.96</time>
<name>3238</name>
</trkpt>
<trkpt lat="48.936427" lon="8.691788">
<ele>384.5</ele>
<speed>4.8</speed>
<course>200.9</course>
<desc>Speed 4.8 km/h Distance 4.34 km</desc>
<time>2010-03-14T11:19:28.96</time>
<name>3239</name>
</trkpt>
<trkpt lat="48.936415" lon="8.691782">
<ele>384.5</ele>
<speed>4.9</speed>
<course>208.6</course>
<desc>Speed 4.9 km/h Distance 4.34 km</desc>
<time>2010-03-14T11:19:29.96</time>
<name>3240</name>
</trkpt>
<trkpt lat="48.936405" lon="8.691773">
<ele>384.5</ele>
<speed>4.3</speed>
<course>217.5</course>
<desc>Speed 4.3 km/h Distance 4.34 km</desc>
<time>2010-03-14T11:19:30.96</time>
<name>3241</name>
</trkpt>
<trkpt lat="48.936395" lon="8.691762">
<ele>384.0</ele>
<speed>5.0</speed>
<course>203.8</course>
<desc>Speed 5.0 km/h Distance 4.34 km</desc>
<time>2010-03-14T11:19:31.96</time>
<name>3242</name>
</trkpt>
<trkpt lat="48.936385" lon="8.691755">
<ele>384.0</ele>
<speed>4.1</speed>
<course>200.9</course>
<desc>Speed 4.1 km/h Distance 4.34 km</desc>
<time>2010-03-14T11:19:32.96</time>
<name>3243</name>
</trkpt>
<trkpt lat="48.936373" lon="8.691748">
<ele>384.0</ele>
<speed>4.8</speed>
<course>205.2</course>
<desc>Speed 4.8 km/h Distance 4.34 km</desc>
<time>2010-03-14T11:19:33.96</time>
<name>3244</name>
</trkpt>
<trkpt lat="48.936362" lon="8.691740">
<ele>383.5</ele>
<speed>4.9</speed>
<course>198.2</course>
<desc>Speed 4.9 km/h Distance 4.34 km</desc>
<time>2010-03-14T11:19:34.96</time>
<name>3245</name>
</trkpt>
<trkpt lat="48.936352" lon="8.691735">
<ele>383.5</ele>
<speed>4.0</speed>
<course>207.9</course>
<desc>Speed 4.0 km/h Distance 4.35 km</desc>
<time>2010-03-14T11:19:35.96</time>
<name>3246</name>
</trkpt>
<trkpt lat="48.936343" lon="8.691728">
<ele>383.5</ele>
<speed>4.0</speed>
<course>213.5</course>
<desc>Speed 4.0 km/h Distance 4.35 km</desc>
<time>2010-03-14T11:19:36.96</time>
<name>3247</name>
</trkpt>
<trkpt lat="48.936335" lon="8.691720">
<ele>383.0</ele>
<speed>3.6</speed>
<course>219.4</course>
<desc>Speed 3.6 km/h Distance 4.35 km</desc>
<time>2010-03-14T11:19:37.96</time>
<name>3248</name>
</trkpt>
<trkpt lat="48.936328" lon="8.691712">
<ele>382.5</ele>
<speed>3.6</speed>
<course>213.3</course>
<desc>Speed 3.6 km/h Distance 4.35 km</desc>
<time>2010-03-14T11:19:38.96</time>
<name>3249</name>
</trkpt>
<trkpt lat="48.936317" lon="8.691700">
<ele>383.5</ele>
<speed>5.1</speed>
<course>213.3</course>
<desc>Speed 5.1 km/h Distance 4.35 km</desc>
<time>2010-03-14T11:19:39.96</time>
<name>3250</name>
</trkpt>
<trkpt lat="48.936317" lon="8.691702">
<ele>382.5</ele>
<speed>1.2</speed>
<course>192.6</course>
<desc>Speed 1.2 km/h Distance 4.35 km</desc>
<time>2010-03-14T11:19:40.96</time>
<name>3251</name>
</trkpt>
<trkpt lat="48.936313" lon="8.691700">
<ele>382.5</ele>
<speed>1.7</speed>
<course>203.0</course>
<desc>Speed 1.7 km/h Distance 4.35 km</desc>
<time>2010-03-14T11:19:41.96</time>
<name>3252</name>
</trkpt>
<trkpt lat="48.936310" lon="8.691698">
<ele>382.5</ele>
<speed>0.8</speed>
<course>90.0</course>
<desc>Speed 0.8 km/h Distance 4.35 km</desc>
<time>2010-03-14T11:19:42.96</time>
<name>3253</name>
</trkpt>
<trkpt lat="48.936310" lon="8.691700">
<ele>382.5</ele>
<speed>0.2</speed>
<course>167.4</course>
<desc>Speed 0.2 km/h Distance 4.35 km</desc>
<time>2010-03-14T11:19:43.96</time>
<name>3254</name>
</trkpt>
<trkpt lat="48.936308" lon="8.691700">
<ele>382.5</ele>
<speed>0.0</speed>
<course>142.8</course>
<desc>Speed 0.0 km/h Distance 4.35 km</desc>
<time>2010-03-14T11:19:44.96</time>
<name>3255</name>
</trkpt>
<trkpt lat="48.936307" lon="8.691702">
<ele>383.0</ele>
<speed>0.1</speed>
<course>90.0</course>
<desc>Speed 0.1 km/h Distance 4.35 km</desc>
<time>2010-03-14T11:19:45.96</time>
<name>3256</name>
</trkpt>
<trkpt lat="48.936307" lon="8.691703">
<ele>383.0</ele>
<speed>0.3</speed>
<course>90.0</course>
<desc>Speed 0.3 km/h Distance 4.35 km</desc>
<time>2010-03-14T11:19:46.96</time>
<name>3257</name>
</trkpt>
<trkpt lat="48.936307" lon="8.691703">
<ele>383.0</ele>
<speed>0.2</speed>
<course>167.4</course>
<desc>Speed 0.2 km/h Distance 4.35 km</desc>
<time>2010-03-14T11:19:47.96</time>
<name>3258</name>
</trkpt>
<trkpt lat="48.936305" lon="8.691703">
<ele>383.0</ele>
<speed>0.2</speed>
<course>90.0</course>
<desc>Speed 0.2 km/h Distance 4.35 km</desc>
<time>2010-03-14T11:19:48.96</time>
<name>3259</name>
</trkpt>
<trkpt lat="48.936305" lon="8.691705">
<ele>383.0</ele>
<speed>0.2</speed>
<course>192.6</course>
<desc>Speed 0.2 km/h Distance 4.35 km</desc>
<time>2010-03-14T11:19:49.96</time>
<name>3260</name>
</trkpt>
<trkpt lat="48.936302" lon="8.691703">
<ele>383.0</ele>
<speed>1.1</speed>
<course>242.6</course>
<desc>Speed 1.1 km/h Distance 4.35 km</desc>
<time>2010-03-14T11:19:50.96</time>
<name>3261</name>
</trkpt>
<trkpt lat="48.936300" lon="8.691698">
<ele>383.0</ele>
<speed>1.4</speed>
<course>330.8</course>
<desc>Speed 1.4 km/h Distance 4.35 km</desc>
<time>2010-03-14T11:19:51.96</time>
<name>3262</name>
</trkpt>
<trkpt lat="48.936302" lon="8.691697">
<ele>382.5</ele>
<speed>1.0</speed>
<course>192.6</course>
<desc>Speed 1.0 km/h Distance 4.35 km</desc>
<time>2010-03-14T11:19:52.96</time>
<name>3263</name>
</trkpt>
<trkpt lat="48.936297" lon="8.691695">
<ele>383.5</ele>
<speed>1.7</speed>
<course>213.2</course>
<desc>Speed 1.7 km/h Distance 4.35 km</desc>
<time>2010-03-14T11:19:53.96</time>
<name>3264</name>
</trkpt>
<trkpt lat="48.936292" lon="8.691690">
<ele>383.5</ele>
<speed>2.2</speed>
<course>161.2</course>
<desc>Speed 2.2 km/h Distance 4.35 km</desc>
<time>2010-03-14T11:19:54.96</time>
<name>3265</name>
</trkpt>
<trkpt lat="48.936288" lon="8.691692">
<ele>384.0</ele>
<speed>1.3</speed>
<course>205.4</course>
<desc>Speed 1.3 km/h Distance 4.35 km</desc>
<time>2010-03-14T11:19:55.96</time>
<name>3266</name>
</trkpt>
<trkpt lat="48.936283" lon="8.691688">
<ele>384.0</ele>
<speed>1.9</speed>
<course>330.8</course>
<desc>Speed 1.9 km/h Distance 4.36 km</desc>
<time>2010-03-14T11:19:56.96</time>
<name>3267</name>
</trkpt>
<trkpt lat="48.936285" lon="8.691687">
<ele>383.5</ele>
<speed>1.0</speed>
<course>322.8</course>
<desc>Speed 1.0 km/h Distance 4.36 km</desc>
<time>2010-03-14T11:19:57.96</time>
<name>3268</name>
</trkpt>
<trkpt lat="48.936287" lon="8.691685">
<ele>384.0</ele>
<speed>1.1</speed>
<course>322.8</course>
<desc>Speed 1.1 km/h Distance 4.36 km</desc>
<time>2010-03-14T11:19:58.96</time>
<name>3269</name>
</trkpt>
<trkpt lat="48.936287" lon="8.691685">
<ele>384.0</ele>
<speed>0.1</speed>
<course>322.8</course>
<desc>Speed 0.1 km/h Distance 4.36 km</desc>
<time>2010-03-14T11:19:59.96</time>
<name>3270</name>
</trkpt>
<trkpt lat="48.936287" lon="8.691685">
<ele>384.0</ele>
<speed>0.1</speed>
<course>231.9</course>
<desc>Speed 0.1 km/h Distance 4.36 km</desc>
<time>2010-03-14T11:20:00.96</time>
<name>3271</name>
</trkpt>
<trkpt lat="48.936285" lon="8.691682">
<ele>384.5</ele>
<speed>0.2</speed>
<course>242.6</course>
<desc>Speed 0.2 km/h Distance 4.36 km</desc>
<time>2010-03-14T11:20:01.96</time>
<name>3272</name>
</trkpt>
<trkpt lat="48.936283" lon="8.691677">
<ele>384.5</ele>
<speed>0.2</speed>
<course>326.3</course>
<desc>Speed 0.2 km/h Distance 4.36 km</desc>
<time>2010-03-14T11:20:02.96</time>
<name>3273</name>
</trkpt>
<trkpt lat="48.936287" lon="8.691673">
<ele>385.0</ele>
<speed>0.1</speed>
<course>326.3</course>
<desc>Speed 0.1 km/h Distance 4.36 km</desc>
<time>2010-03-14T11:20:03.96</time>
<name>3274</name>
</trkpt>
<trkpt lat="48.936287" lon="8.691673">
<ele>385.5</ele>
<speed>0.5</speed>
<course>224.7</course>
<desc>Speed 0.5 km/h Distance 4.36 km</desc>
<time>2010-03-14T11:20:04.96</time>
<name>3275</name>
</trkpt>
<trkpt lat="48.936277" lon="8.691658">
<ele>386.5</ele>
<speed>4.9</speed>
<course>208.6</course>
<desc>Speed 4.9 km/h Distance 4.36 km</desc>
<time>2010-03-14T11:20:05.96</time>
<name>3276</name>
</trkpt>
<trkpt lat="48.936267" lon="8.691650">
<ele>386.5</ele>
<speed>4.1</speed>
<course>208.9</course>
<desc>Speed 4.1 km/h Distance 4.36 km</desc>
<time>2010-03-14T11:20:06.96</time>
<name>3277</name>
</trkpt>
<trkpt lat="48.936257" lon="8.691642">
<ele>386.5</ele>
<speed>4.7</speed>
<course>209.4</course>
<desc>Speed 4.7 km/h Distance 4.36 km</desc>
<time>2010-03-14T11:20:07.96</time>
<name>3278</name>
</trkpt>
<trkpt lat="48.936245" lon="8.691632">
<ele>387.0</ele>
<speed>5.0</speed>
<course>213.2</course>
<desc>Speed 5.0 km/h Distance 4.36 km</desc>
<time>2010-03-14T11:20:08.96</time>
<name>3279</name>
</trkpt>
<trkpt lat="48.936235" lon="8.691622">
<ele>387.0</ele>
<speed>4.6</speed>
<course>203.8</course>
<desc>Speed 4.6 km/h Distance 4.36 km</desc>
<time>2010-03-14T11:20:09.96</time>
<name>3280</name>
</trkpt>
<trkpt lat="48.936225" lon="8.691615">
<ele>387.0</ele>
<speed>3.6</speed>
<course>219.4</course>
<desc>Speed 3.6 km/h Distance 4.36 km</desc>
<time>2010-03-14T11:20:10.96</time>
<name>3281</name>
</trkpt>
<trkpt lat="48.936218" lon="8.691607">
<ele>387.5</ele>
<speed>3.2</speed>
<course>222.6</course>
<desc>Speed 3.2 km/h Distance 4.37 km</desc>
<time>2010-03-14T11:20:11.96</time>
<name>3282</name>
</trkpt>
<trkpt lat="48.936210" lon="8.691595">
<ele>387.5</ele>
<speed>3.3</speed>
<course>221.4</course>
<desc>Speed 3.3 km/h Distance 4.37 km</desc>
<time>2010-03-14T11:20:12.96</time>
<name>3283</name>
</trkpt>
<trkpt lat="48.936205" lon="8.691588">
<ele>387.5</ele>
<speed>1.5</speed>
<course>221.4</course>
<desc>Speed 1.5 km/h Distance 4.37 km</desc>
<time>2010-03-14T11:20:13.96</time>
<name>3284</name>
</trkpt>
<trkpt lat="48.936205" lon="8.691588">
<ele>387.5</ele>
<speed>0.3</speed>
<course>157.0</course>
<desc>Speed 0.3 km/h Distance 4.37 km</desc>
<time>2010-03-14T11:20:14.96</time>
<name>3285</name>
</trkpt>
<trkpt lat="48.936202" lon="8.691590">
<ele>388.0</ele>
<speed>1.5</speed>
<course>167.4</course>
<desc>Speed 1.5 km/h Distance 4.37 km</desc>
<time>2010-03-14T11:20:15.96</time>
<name>3286</name>
</trkpt>
<trkpt lat="48.936197" lon="8.691592">
<ele>388.0</ele>
<speed>1.7</speed>
<course>213.2</course>
<desc>Speed 1.7 km/h Distance 4.37 km</desc>
<time>2010-03-14T11:20:16.96</time>
<name>3287</name>
</trkpt>
<trkpt lat="48.936190" lon="8.691585">
<ele>387.5</ele>
<speed>3.0</speed>
<course>227.8</course>
<desc>Speed 3.0 km/h Distance 4.37 km</desc>
<time>2010-03-14T11:20:17.96</time>
<name>3288</name>
</trkpt>
<trkpt lat="48.936185" lon="8.691577">
<ele>387.0</ele>
<speed>2.9</speed>
<course>235.9</course>
<desc>Speed 2.9 km/h Distance 4.37 km</desc>
<time>2010-03-14T11:20:18.96</time>
<name>3289</name>
</trkpt>
<trkpt lat="48.936178" lon="8.691562">
<ele>387.0</ele>
<speed>4.2</speed>
<course>229.7</course>
<desc>Speed 4.2 km/h Distance 4.37 km</desc>
<time>2010-03-14T11:20:19.96</time>
<name>3290</name>
</trkpt>
<trkpt lat="48.936170" lon="8.691547">
<ele>387.0</ele>
<speed>4.4</speed>
<course>220.2</course>
<desc>Speed 4.4 km/h Distance 4.37 km</desc>
<time>2010-03-14T11:20:20.96</time>
<name>3291</name>
</trkpt>
<trkpt lat="48.936158" lon="8.691532">
<ele>387.5</ele>
<speed>5.0</speed>
<course>224.5</course>
<desc>Speed 5.0 km/h Distance 4.38 km</desc>
<time>2010-03-14T11:20:21.96</time>
<name>3292</name>
</trkpt>
<trkpt lat="48.936148" lon="8.691517">
<ele>387.5</ele>
<speed>5.3</speed>
<course>217.2</course>
<desc>Speed 5.3 km/h Distance 4.38 km</desc>
<time>2010-03-14T11:20:22.96</time>
<name>3293</name>
</trkpt>
<trkpt lat="48.936138" lon="8.691505">
<ele>387.5</ele>
<speed>4.8</speed>
<course>217.5</course>
<desc>Speed 4.8 km/h Distance 4.38 km</desc>
<time>2010-03-14T11:20:23.96</time>
<name>3294</name>
</trkpt>
<trkpt lat="48.936128" lon="8.691493">
<ele>387.0</ele>
<speed>5.0</speed>
<course>220.2</course>
<desc>Speed 5.0 km/h Distance 4.38 km</desc>
<time>2010-03-14T11:20:24.96</time>
<name>3295</name>
</trkpt>
<trkpt lat="48.936117" lon="8.691478">
<ele>387.0</ele>
<speed>5.7</speed>
<course>222.0</course>
<desc>Speed 5.7 km/h Distance 4.38 km</desc>
<time>2010-03-14T11:20:25.96</time>
<name>3296</name>
</trkpt>
<trkpt lat="48.936103" lon="8.691460">
<ele>387.0</ele>
<speed>5.8</speed>
<course>223.3</course>
<desc>Speed 5.8 km/h Distance 4.38 km</desc>
<time>2010-03-14T11:20:26.96</time>
<name>3297</name>
</trkpt>
<trkpt lat="48.936092" lon="8.691443">
<ele>387.0</ele>
<speed>6.2</speed>
<course>221.4</course>
<desc>Speed 6.2 km/h Distance 4.38 km</desc>
<time>2010-03-14T11:20:27.96</time>
<name>3298</name>
</trkpt>
<trkpt lat="48.936082" lon="8.691430">
<ele>387.0</ele>
<speed>5.3</speed>
<course>224.7</course>
<desc>Speed 5.3 km/h Distance 4.39 km</desc>
<time>2010-03-14T11:20:28.96</time>
<name>3299</name>
</trkpt>
<trkpt lat="48.936072" lon="8.691415">
<ele>387.0</ele>
<speed>5.2</speed>
<course>221.4</course>
<desc>Speed 5.2 km/h Distance 4.39 km</desc>
<time>2010-03-14T11:20:29.96</time>
<name>3300</name>
</trkpt>
<trkpt lat="48.936062" lon="8.691402">
<ele>387.0</ele>
<speed>4.7</speed>
<course>224.5</course>
<desc>Speed 4.7 km/h Distance 4.39 km</desc>
<time>2010-03-14T11:20:30.96</time>
<name>3301</name>
</trkpt>
<trkpt lat="48.936052" lon="8.691387">
<ele>387.0</ele>
<speed>5.4</speed>
<course>223.1</course>
<desc>Speed 5.4 km/h Distance 4.39 km</desc>
<time>2010-03-14T11:20:31.96</time>
<name>3302</name>
</trkpt>
<trkpt lat="48.936040" lon="8.691370">
<ele>386.5</ele>
<speed>5.9</speed>
<course>223.2</course>
<desc>Speed 5.9 km/h Distance 4.39 km</desc>
<time>2010-03-14T11:20:32.96</time>
<name>3303</name>
</trkpt>
<trkpt lat="48.936028" lon="8.691353">
<ele>386.5</ele>
<speed>5.9</speed>
<course>227.6</course>
<desc>Speed 5.9 km/h Distance 4.39 km</desc>
<time>2010-03-14T11:20:33.96</time>
<name>3304</name>
</trkpt>
<trkpt lat="48.936018" lon="8.691337">
<ele>386.5</ele>
<speed>5.6</speed>
<course>216.6</course>
<desc>Speed 5.6 km/h Distance 4.40 km</desc>
<time>2010-03-14T11:20:34.96</time>
<name>3305</name>
</trkpt>
<trkpt lat="48.936005" lon="8.691322">
<ele>386.5</ele>
<speed>5.1</speed>
<course>223.2</course>
<desc>Speed 5.1 km/h Distance 4.40 km</desc>
<time>2010-03-14T11:20:35.96</time>
<name>3306</name>
</trkpt>
<trkpt lat="48.935993" lon="8.691305">
<ele>386.5</ele>
<speed>5.1</speed>
<course>226.4</course>
<desc>Speed 5.1 km/h Distance 4.40 km</desc>
<time>2010-03-14T11:20:36.96</time>
<name>3307</name>
</trkpt>
<trkpt lat="48.935985" lon="8.691292">
<ele>386.5</ele>
<speed>4.9</speed>
<course>213.2</course>
<desc>Speed 4.9 km/h Distance 4.40 km</desc>
<time>2010-03-14T11:20:37.96</time>
<name>3308</name>
</trkpt>
<trkpt lat="48.935975" lon="8.691282">
<ele>386.0</ele>
<speed>3.9</speed>
<course>206.4</course>
<desc>Speed 3.9 km/h Distance 4.40 km</desc>
<time>2010-03-14T11:20:38.96</time>
<name>3309</name>
</trkpt>
<trkpt lat="48.935968" lon="8.691277">
<ele>386.0</ele>
<speed>2.8</speed>
<course>141.9</course>
<desc>Speed 2.8 km/h Distance 4.40 km</desc>
<time>2010-03-14T11:20:39.96</time>
<name>3310</name>
</trkpt>
<trkpt lat="48.935960" lon="8.691287">
<ele>386.5</ele>
<speed>4.0</speed>
<course>141.9</course>
<desc>Speed 4.0 km/h Distance 4.40 km</desc>
<time>2010-03-14T11:20:40.96</time>
<name>3311</name>
</trkpt>
<trkpt lat="48.935960" lon="8.691287">
<ele>386.5</ele>
<speed>0.4</speed>
<course>231.9</course>
<desc>Speed 0.4 km/h Distance 4.40 km</desc>
<time>2010-03-14T11:20:41.96</time>
<name>3312</name>
</trkpt>
<trkpt lat="48.935958" lon="8.691283">
<ele>386.5</ele>
<speed>0.0</speed>
<course>270.0</course>
<desc>Speed 0.0 km/h Distance 4.40 km</desc>
<time>2010-03-14T11:20:42.96</time>
<name>3313</name>
</trkpt>
<trkpt lat="48.935958" lon="8.691280">
<ele>386.5</ele>
<speed>0.2</speed>
<course>270.0</course>
<desc>Speed 0.2 km/h Distance 4.41 km</desc>
<time>2010-03-14T11:20:43.96</time>
<name>3314</name>
</trkpt>
<trkpt lat="48.935958" lon="8.691280">
<ele>386.5</ele>
<speed>0.2</speed>
<course>249.5</course>
<desc>Speed 0.2 km/h Distance 4.41 km</desc>
<time>2010-03-14T11:20:44.96</time>
<name>3315</name>
</trkpt>
<trkpt lat="48.935957" lon="8.691273">
<ele>387.0</ele>
<speed>1.3</speed>
<course>232.7</course>
<desc>Speed 1.3 km/h Distance 4.41 km</desc>
<time>2010-03-14T11:20:45.96</time>
<name>3316</name>
</trkpt>
<trkpt lat="48.935950" lon="8.691260">
<ele>387.0</ele>
<speed>4.1</speed>
<course>222.5</course>
<desc>Speed 4.1 km/h Distance 4.41 km</desc>
<time>2010-03-14T11:20:46.96</time>
<name>3317</name>
</trkpt>
<trkpt lat="48.935942" lon="8.691248">
<ele>387.5</ele>
<speed>4.3</speed>
<course>232.7</course>
<desc>Speed 4.3 km/h Distance 4.41 km</desc>
<time>2010-03-14T11:20:47.96</time>
<name>3318</name>
</trkpt>
<trkpt lat="48.935935" lon="8.691235">
<ele>387.0</ele>
<speed>4.6</speed>
<course>224.6</course>
<desc>Speed 4.6 km/h Distance 4.41 km</desc>
<time>2010-03-14T11:20:48.96</time>
<name>3319</name>
</trkpt>
<trkpt lat="48.935925" lon="8.691220">
<ele>387.0</ele>
<speed>5.0</speed>
<course>226.5</course>
<desc>Speed 5.0 km/h Distance 4.41 km</desc>
<time>2010-03-14T11:20:49.96</time>
<name>3320</name>
</trkpt>
<trkpt lat="48.935917" lon="8.691207">
<ele>387.0</ele>
<speed>4.9</speed>
<course>229.8</course>
<desc>Speed 4.9 km/h Distance 4.41 km</desc>
<time>2010-03-14T11:20:50.96</time>
<name>3321</name>
</trkpt>
<trkpt lat="48.935908" lon="8.691192">
<ele>387.0</ele>
<speed>4.9</speed>
<course>224.5</course>
<desc>Speed 4.9 km/h Distance 4.41 km</desc>
<time>2010-03-14T11:20:51.96</time>
<name>3322</name>
</trkpt>
<trkpt lat="48.935898" lon="8.691177">
<ele>387.0</ele>
<speed>5.5</speed>
<course>220.2</course>
<desc>Speed 5.5 km/h Distance 4.42 km</desc>
<time>2010-03-14T11:20:52.96</time>
<name>3323</name>
</trkpt>
<trkpt lat="48.935887" lon="8.691162">
<ele>387.0</ele>
<speed>5.4</speed>
<course>224.6</course>
<desc>Speed 5.4 km/h Distance 4.42 km</desc>
<time>2010-03-14T11:20:53.96</time>
<name>3324</name>
</trkpt>
<trkpt lat="48.935877" lon="8.691147">
<ele>386.5</ele>
<speed>5.3</speed>
<course>224.7</course>
<desc>Speed 5.3 km/h Distance 4.42 km</desc>
<time>2010-03-14T11:20:54.96</time>
<name>3325</name>
</trkpt>
<trkpt lat="48.935867" lon="8.691132">
<ele>387.0</ele>
<speed>5.0</speed>
<course>213.3</course>
<desc>Speed 5.0 km/h Distance 4.42 km</desc>
<time>2010-03-14T11:20:55.96</time>
<name>3326</name>
</trkpt>
<trkpt lat="48.935855" lon="8.691120">
<ele>386.5</ele>
<speed>4.8</speed>
<course>220.2</course>
<desc>Speed 4.8 km/h Distance 4.42 km</desc>
<time>2010-03-14T11:20:56.96</time>
<name>3327</name>
</trkpt>
<trkpt lat="48.935843" lon="8.691105">
<ele>386.5</ele>
<speed>5.8</speed>
<course>217.0</course>
<desc>Speed 5.8 km/h Distance 4.42 km</desc>
<time>2010-03-14T11:20:57.96</time>
<name>3328</name>
</trkpt>
<trkpt lat="48.935832" lon="8.691092">
<ele>386.5</ele>
<speed>5.0</speed>
<course>208.6</course>
<desc>Speed 5.0 km/h Distance 4.42 km</desc>
<time>2010-03-14T11:20:58.96</time>
<name>3329</name>
</trkpt>
<trkpt lat="48.935822" lon="8.691083">
<ele>386.5</ele>
<speed>4.6</speed>
<course>213.2</course>
<desc>Speed 4.6 km/h Distance 4.43 km</desc>
<time>2010-03-14T11:20:59.96</time>
<name>3330</name>
</trkpt>
<trkpt lat="48.935812" lon="8.691073">
<ele>386.0</ele>
<speed>4.6</speed>
<course>229.8</course>
<desc>Speed 4.6 km/h Distance 4.43 km</desc>
<time>2010-03-14T11:21:00.96</time>
<name>3331</name>
</trkpt>
<trkpt lat="48.935803" lon="8.691058">
<ele>386.5</ele>
<speed>4.8</speed>
<course>235.3</course>
<desc>Speed 4.8 km/h Distance 4.43 km</desc>
<time>2010-03-14T11:21:01.97</time>
<name>3332</name>
</trkpt>
<trkpt lat="48.935795" lon="8.691040">
<ele>386.0</ele>
<speed>5.3</speed>
<course>241.0</course>
<desc>Speed 5.3 km/h Distance 4.43 km</desc>
<time>2010-03-14T11:21:02.97</time>
<name>3333</name>
</trkpt>
<trkpt lat="48.935788" lon="8.691022">
<ele>386.5</ele>
<speed>4.8</speed>
<course>229.7</course>
<desc>Speed 4.8 km/h Distance 4.43 km</desc>
<time>2010-03-14T11:21:03.97</time>
<name>3334</name>
</trkpt>
<trkpt lat="48.935780" lon="8.691007">
<ele>386.5</ele>
<speed>5.1</speed>
<course>224.5</course>
<desc>Speed 5.1 km/h Distance 4.43 km</desc>
<time>2010-03-14T11:21:04.97</time>
<name>3335</name>
</trkpt>
<trkpt lat="48.935770" lon="8.690992">
<ele>386.5</ele>
<speed>5.4</speed>
<course>209.8</course>
<desc>Speed 5.4 km/h Distance 4.44 km</desc>
<time>2010-03-14T11:21:05.97</time>
<name>3336</name>
</trkpt>
<trkpt lat="48.935757" lon="8.690980">
<ele>386.5</ele>
<speed>5.7</speed>
<course>224.5</course>
<desc>Speed 5.7 km/h Distance 4.44 km</desc>
<time>2010-03-14T11:21:06.97</time>
<name>3337</name>
</trkpt>
<trkpt lat="48.935747" lon="8.690965">
<ele>386.0</ele>
<speed>5.5</speed>
<course>229.7</course>
<desc>Speed 5.5 km/h Distance 4.44 km</desc>
<time>2010-03-14T11:21:07.97</time>
<name>3338</name>
</trkpt>
<trkpt lat="48.935738" lon="8.690950">
<ele>386.5</ele>
<speed>5.1</speed>
<course>229.7</course>
<desc>Speed 5.1 km/h Distance 4.44 km</desc>
<time>2010-03-14T11:21:08.97</time>
<name>3339</name>
</trkpt>
<trkpt lat="48.935730" lon="8.690935">
<ele>386.5</ele>
<speed>4.6</speed>
<course>222.5</course>
<desc>Speed 4.6 km/h Distance 4.44 km</desc>
<time>2010-03-14T11:21:09.97</time>
<name>3340</name>
</trkpt>
<trkpt lat="48.935722" lon="8.690923">
<ele>386.5</ele>
<speed>4.4</speed>
<course>226.6</course>
<desc>Speed 4.4 km/h Distance 4.44 km</desc>
<time>2010-03-14T11:21:10.97</time>
<name>3341</name>
</trkpt>
<trkpt lat="48.935713" lon="8.690910">
<ele>386.5</ele>
<speed>4.6</speed>
<course>226.6</course>
<desc>Speed 4.6 km/h Distance 4.44 km</desc>
<time>2010-03-14T11:21:11.97</time>
<name>3342</name>
</trkpt>
<trkpt lat="48.935705" lon="8.690897">
<ele>386.5</ele>
<speed>4.7</speed>
<course>222.6</course>
<desc>Speed 4.7 km/h Distance 4.45 km</desc>
<time>2010-03-14T11:21:12.97</time>
<name>3343</name>
</trkpt>
<trkpt lat="48.935697" lon="8.690885">
<ele>386.5</ele>
<speed>4.9</speed>
<course>217.5</course>
<desc>Speed 4.9 km/h Distance 4.45 km</desc>
<time>2010-03-14T11:21:13.97</time>
<name>3344</name>
</trkpt>
<trkpt lat="48.935687" lon="8.690873">
<ele>386.5</ele>
<speed>5.0</speed>
<course>217.5</course>
<desc>Speed 5.0 km/h Distance 4.45 km</desc>
<time>2010-03-14T11:21:14.97</time>
<name>3345</name>
</trkpt>
<trkpt lat="48.935677" lon="8.690862">
<ele>386.5</ele>
<speed>5.0</speed>
<course>213.3</course>
<desc>Speed 5.0 km/h Distance 4.45 km</desc>
<time>2010-03-14T11:21:15.97</time>
<name>3346</name>
</trkpt>
<trkpt lat="48.935665" lon="8.690850">
<ele>386.5</ele>
<speed>5.3</speed>
<course>213.4</course>
<desc>Speed 5.3 km/h Distance 4.45 km</desc>
<time>2010-03-14T11:21:16.97</time>
<name>3347</name>
</trkpt>
<trkpt lat="48.935653" lon="8.690838">
<ele>386.5</ele>
<speed>5.1</speed>
<course>222.6</course>
<desc>Speed 5.1 km/h Distance 4.45 km</desc>
<time>2010-03-14T11:21:17.97</time>
<name>3348</name>
</trkpt>
<trkpt lat="48.935645" lon="8.690827">
<ele>386.5</ele>
<speed>4.7</speed>
<course>217.0</course>
<desc>Speed 4.7 km/h Distance 4.45 km</desc>
<time>2010-03-14T11:21:18.97</time>
<name>3349</name>
</trkpt>
<trkpt lat="48.935633" lon="8.690813">
<ele>386.5</ele>
<speed>5.3</speed>
<course>229.9</course>
<desc>Speed 5.3 km/h Distance 4.46 km</desc>
<time>2010-03-14T11:21:19.97</time>
<name>3350</name>
</trkpt>
<trkpt lat="48.935625" lon="8.690798">
<ele>386.5</ele>
<speed>5.3</speed>
<course>229.8</course>
<desc>Speed 5.3 km/h Distance 4.46 km</desc>
<time>2010-03-14T11:21:20.97</time>
<name>3351</name>
</trkpt>
<trkpt lat="48.935617" lon="8.690783">
<ele>386.5</ele>
<speed>5.0</speed>
<course>230.3</course>
<desc>Speed 5.0 km/h Distance 4.46 km</desc>
<time>2010-03-14T11:21:21.97</time>
<name>3352</name>
</trkpt>
<trkpt lat="48.935607" lon="8.690765">
<ele>386.5</ele>
<speed>5.8</speed>
<course>221.2</course>
<desc>Speed 5.8 km/h Distance 4.46 km</desc>
<time>2010-03-14T11:21:22.97</time>
<name>3353</name>
</trkpt>
<trkpt lat="48.935597" lon="8.690752">
<ele>386.5</ele>
<speed>5.4</speed>
<course>213.2</course>
<desc>Speed 5.4 km/h Distance 4.46 km</desc>
<time>2010-03-14T11:21:23.97</time>
<name>3354</name>
</trkpt>
<trkpt lat="48.935587" lon="8.690742">
<ele>386.5</ele>
<speed>5.0</speed>
<course>198.4</course>
<desc>Speed 5.0 km/h Distance 4.46 km</desc>
<time>2010-03-14T11:21:24.97</time>
<name>3355</name>
</trkpt>
<trkpt lat="48.935573" lon="8.690735">
<ele>386.5</ele>
<speed>5.2</speed>
<course>196.0</course>
<desc>Speed 5.2 km/h Distance 4.46 km</desc>
<time>2010-03-14T11:21:25.97</time>
<name>3356</name>
</trkpt>
<trkpt lat="48.935562" lon="8.690730">
<ele>386.0</ele>
<speed>4.5</speed>
<course>198.8</course>
<desc>Speed 4.5 km/h Distance 4.47 km</desc>
<time>2010-03-14T11:21:26.97</time>
<name>3357</name>
</trkpt>
<trkpt lat="48.935555" lon="8.690727">
<ele>386.5</ele>
<speed>2.4</speed>
<course>270.0</course>
<desc>Speed 2.4 km/h Distance 4.47 km</desc>
<time>2010-03-14T11:21:27.97</time>
<name>3358</name>
</trkpt>
<trkpt lat="48.935555" lon="8.690725">
<ele>386.5</ele>
<speed>0.2</speed>
<course>270.0</course>
<desc>Speed 0.2 km/h Distance 4.47 km</desc>
<time>2010-03-14T11:21:28.97</time>
<name>3359</name>
</trkpt>
<trkpt lat="48.935555" lon="8.690725">
<ele>386.5</ele>
<speed>0.3</speed>
<course>227.1</course>
<desc>Speed 0.3 km/h Distance 4.47 km</desc>
<time>2010-03-14T11:21:29.97</time>
<name>3360</name>
</trkpt>
<trkpt lat="48.935550" lon="8.690717">
<ele>386.5</ele>
<speed>2.9</speed>
<course>213.2</course>
<desc>Speed 2.9 km/h Distance 4.47 km</desc>
<time>2010-03-14T11:21:30.97</time>
<name>3361</name>
</trkpt>
<trkpt lat="48.935542" lon="8.690708">
<ele>386.0</ele>
<speed>3.6</speed>
<course>213.2</course>
<desc>Speed 3.6 km/h Distance 4.47 km</desc>
<time>2010-03-14T11:21:31.97</time>
<name>3362</name>
</trkpt>
<trkpt lat="48.935532" lon="8.690698">
<ele>386.0</ele>
<speed>4.3</speed>
<course>218.1</course>
<desc>Speed 4.3 km/h Distance 4.47 km</desc>
<time>2010-03-14T11:21:32.97</time>
<name>3363</name>
</trkpt>
<trkpt lat="48.935523" lon="8.690688">
<ele>386.0</ele>
<speed>4.4</speed>
<course>223.1</course>
<desc>Speed 4.4 km/h Distance 4.47 km</desc>
<time>2010-03-14T11:21:33.97</time>
<name>3364</name>
</trkpt>
<trkpt lat="48.935512" lon="8.690672">
<ele>386.0</ele>
<speed>5.7</speed>
<course>213.3</course>
<desc>Speed 5.7 km/h Distance 4.47 km</desc>
<time>2010-03-14T11:21:34.97</time>
<name>3365</name>
</trkpt>
<trkpt lat="48.935500" lon="8.690660">
<ele>386.0</ele>
<speed>5.4</speed>
<course>222.6</course>
<desc>Speed 5.4 km/h Distance 4.47 km</desc>
<time>2010-03-14T11:21:35.97</time>
<name>3366</name>
</trkpt>
<trkpt lat="48.935492" lon="8.690648">
<ele>386.0</ele>
<speed>4.2</speed>
<course>217.5</course>
<desc>Speed 4.2 km/h Distance 4.48 km</desc>
<time>2010-03-14T11:21:36.97</time>
<name>3367</name>
</trkpt>
<trkpt lat="48.935482" lon="8.690637">
<ele>386.0</ele>
<speed>4.5</speed>
<course>222.5</course>
<desc>Speed 4.5 km/h Distance 4.48 km</desc>
<time>2010-03-14T11:21:37.97</time>
<name>3368</name>
</trkpt>
<trkpt lat="48.935473" lon="8.690625">
<ele>386.0</ele>
<speed>4.4</speed>
<course>229.1</course>
<desc>Speed 4.4 km/h Distance 4.48 km</desc>
<time>2010-03-14T11:21:38.97</time>
<name>3369</name>
</trkpt>
<trkpt lat="48.935467" lon="8.690613">
<ele>386.0</ele>
<speed>3.7</speed>
<course>218.1</course>
<desc>Speed 3.7 km/h Distance 4.48 km</desc>
<time>2010-03-14T11:21:39.97</time>
<name>3370</name>
</trkpt>
<trkpt lat="48.935458" lon="8.690603">
<ele>386.0</ele>
<speed>3.9</speed>
<course>217.5</course>
<desc>Speed 3.9 km/h Distance 4.48 km</desc>
<time>2010-03-14T11:21:40.97</time>
<name>3371</name>
</trkpt>
<trkpt lat="48.935448" lon="8.690592">
<ele>386.0</ele>
<speed>4.4</speed>
<course>222.6</course>
<desc>Speed 4.4 km/h Distance 4.48 km</desc>
<time>2010-03-14T11:21:41.97</time>
<name>3372</name>
</trkpt>
<trkpt lat="48.935440" lon="8.690580">
<ele>386.0</ele>
<speed>4.6</speed>
<course>222.6</course>
<desc>Speed 4.6 km/h Distance 4.48 km</desc>
<time>2010-03-14T11:21:42.97</time>
<name>3373</name>
</trkpt>
<trkpt lat="48.935432" lon="8.690568">
<ele>386.0</ele>
<speed>4.2</speed>
<course>207.9</course>
<desc>Speed 4.2 km/h Distance 4.48 km</desc>
<time>2010-03-14T11:21:43.97</time>
<name>3374</name>
</trkpt>
<trkpt lat="48.935423" lon="8.690562">
<ele>385.5</ele>
<speed>3.3</speed>
<course>232.7</course>
<desc>Speed 3.3 km/h Distance 4.49 km</desc>
<time>2010-03-14T11:21:44.97</time>
<name>3375</name>
</trkpt>
<trkpt lat="48.935417" lon="8.690548">
<ele>385.0</ele>
<speed>4.4</speed>
<course>222.6</course>
<desc>Speed 4.4 km/h Distance 4.49 km</desc>
<time>2010-03-14T11:21:45.97</time>
<name>3376</name>
</trkpt>
<trkpt lat="48.935408" lon="8.690537">
<ele>384.5</ele>
<speed>4.1</speed>
<course>217.5</course>
<desc>Speed 4.1 km/h Distance 4.49 km</desc>
<time>2010-03-14T11:21:46.97</time>
<name>3377</name>
</trkpt>
<trkpt lat="48.935398" lon="8.690525">
<ele>385.0</ele>
<speed>4.9</speed>
<course>228.9</course>
<desc>Speed 4.9 km/h Distance 4.49 km</desc>
<time>2010-03-14T11:21:47.97</time>
<name>3378</name>
</trkpt>
<trkpt lat="48.935392" lon="8.690513">
<ele>385.0</ele>
<speed>3.4</speed>
<course>232.4</course>
<desc>Speed 3.4 km/h Distance 4.49 km</desc>
<time>2010-03-14T11:21:48.97</time>
<name>3379</name>
</trkpt>
<trkpt lat="48.935387" lon="8.690503">
<ele>384.5</ele>
<speed>3.2</speed>
<course>217.5</course>
<desc>Speed 3.2 km/h Distance 4.49 km</desc>
<time>2010-03-14T11:21:49.97</time>
<name>3380</name>
</trkpt>
<trkpt lat="48.935377" lon="8.690492">
<ele>384.5</ele>
<speed>4.6</speed>
<course>229.8</course>
<desc>Speed 4.6 km/h Distance 4.49 km</desc>
<time>2010-03-14T11:21:50.97</time>
<name>3381</name>
</trkpt>
<trkpt lat="48.935368" lon="8.690477">
<ele>384.5</ele>
<speed>5.2</speed>
<course>224.6</course>
<desc>Speed 5.2 km/h Distance 4.49 km</desc>
<time>2010-03-14T11:21:51.97</time>
<name>3382</name>
</trkpt>
<trkpt lat="48.935358" lon="8.690462">
<ele>385.0</ele>
<speed>5.0</speed>
<course>222.6</course>
<desc>Speed 5.0 km/h Distance 4.50 km</desc>
<time>2010-03-14T11:21:52.97</time>
<name>3383</name>
</trkpt>
<trkpt lat="48.935350" lon="8.690450">
<ele>385.0</ele>
<speed>4.3</speed>
<course>222.6</course>
<desc>Speed 4.3 km/h Distance 4.50 km</desc>
<time>2010-03-14T11:21:53.97</time>
<name>3384</name>
</trkpt>
<trkpt lat="48.935342" lon="8.690438">
<ele>385.0</ele>
<speed>4.3</speed>
<course>221.3</course>
<desc>Speed 4.3 km/h Distance 4.50 km</desc>
<time>2010-03-14T11:21:54.97</time>
<name>3385</name>
</trkpt>
<trkpt lat="48.935332" lon="8.690425">
<ele>385.0</ele>
<speed>4.9</speed>
<course>222.6</course>
<desc>Speed 4.9 km/h Distance 4.50 km</desc>
<time>2010-03-14T11:21:55.97</time>
<name>3386</name>
</trkpt>
<trkpt lat="48.935323" lon="8.690413">
<ele>385.0</ele>
<speed>4.5</speed>
<course>229.8</course>
<desc>Speed 4.5 km/h Distance 4.50 km</desc>
<time>2010-03-14T11:21:56.97</time>
<name>3387</name>
</trkpt>
<trkpt lat="48.935315" lon="8.690398">
<ele>385.0</ele>
<speed>4.8</speed>
<course>224.5</course>
<desc>Speed 4.8 km/h Distance 4.50 km</desc>
<time>2010-03-14T11:21:57.97</time>
<name>3388</name>
</trkpt>
<trkpt lat="48.935305" lon="8.690383">
<ele>385.0</ele>
<speed>5.0</speed>
<course>222.6</course>
<desc>Speed 5.0 km/h Distance 4.50 km</desc>
<time>2010-03-14T11:21:58.97</time>
<name>3389</name>
</trkpt>
<trkpt lat="48.935297" lon="8.690372">
<ele>385.0</ele>
<speed>4.5</speed>
<course>226.4</course>
<desc>Speed 4.5 km/h Distance 4.51 km</desc>
<time>2010-03-14T11:21:59.97</time>
<name>3390</name>
</trkpt>
<trkpt lat="48.935288" lon="8.690358">
<ele>385.5</ele>
<speed>4.6</speed>
<course>229.8</course>
<desc>Speed 4.6 km/h Distance 4.51 km</desc>
<time>2010-03-14T11:22:00.97</time>
<name>3391</name>
</trkpt>
<trkpt lat="48.935280" lon="8.690343">
<ele>385.5</ele>
<speed>4.6</speed>
<course>224.7</course>
<desc>Speed 4.6 km/h Distance 4.51 km</desc>
<time>2010-03-14T11:22:01.97</time>
<name>3392</name>
</trkpt>
<trkpt lat="48.935270" lon="8.690328">
<ele>385.5</ele>
<speed>4.4</speed>
<course>232.8</course>
<desc>Speed 4.4 km/h Distance 4.51 km</desc>
<time>2010-03-14T11:22:02.97</time>
<name>3393</name>
</trkpt>
<trkpt lat="48.935263" lon="8.690315">
<ele>385.5</ele>
<speed>4.5</speed>
<course>232.8</course>
<desc>Speed 4.5 km/h Distance 4.51 km</desc>
<time>2010-03-14T11:22:03.97</time>
<name>3394</name>
</trkpt>
<trkpt lat="48.935258" lon="8.690305">
<ele>385.5</ele>
<speed>3.2</speed>
<course>224.5</course>
<desc>Speed 3.2 km/h Distance 4.51 km</desc>
<time>2010-03-14T11:22:04.97</time>
<name>3395</name>
</trkpt>
<trkpt lat="48.935252" lon="8.690295">
<ele>385.0</ele>
<speed>3.6</speed>
<course>227.1</course>
<desc>Speed 3.6 km/h Distance 4.51 km</desc>
<time>2010-03-14T11:22:05.97</time>
<name>3396</name>
</trkpt>
<trkpt lat="48.935247" lon="8.690287">
<ele>385.0</ele>
<speed>1.9</speed>
<course>221.4</course>
<desc>Speed 1.9 km/h Distance 4.51 km</desc>
<time>2010-03-14T11:22:06.97</time>
<name>3397</name>
</trkpt>
<trkpt lat="48.935242" lon="8.690280">
<ele>385.5</ele>
<speed>2.1</speed>
<course>229.1</course>
<desc>Speed 2.1 km/h Distance 4.51 km</desc>
<time>2010-03-14T11:22:07.97</time>
<name>3398</name>
</trkpt>
<trkpt lat="48.935235" lon="8.690268">
<ele>385.5</ele>
<speed>3.5</speed>
<course>232.7</course>
<desc>Speed 3.5 km/h Distance 4.52 km</desc>
<time>2010-03-14T11:22:08.97</time>
<name>3399</name>
</trkpt>
<trkpt lat="48.935228" lon="8.690255">
<ele>385.5</ele>
<speed>3.7</speed>
<course>226.4</course>
<desc>Speed 3.7 km/h Distance 4.52 km</desc>
<time>2010-03-14T11:22:09.97</time>
<name>3400</name>
</trkpt>
<trkpt lat="48.935220" lon="8.690242">
<ele>385.0</ele>
<speed>4.2</speed>
<course>229.7</course>
<desc>Speed 4.2 km/h Distance 4.52 km</desc>
<time>2010-03-14T11:22:10.97</time>
<name>3401</name>
</trkpt>
<trkpt lat="48.935212" lon="8.690227">
<ele>385.0</ele>
<speed>4.3</speed>
<course>238.6</course>
<desc>Speed 4.3 km/h Distance 4.52 km</desc>
<time>2010-03-14T11:22:11.97</time>
<name>3402</name>
</trkpt>
<trkpt lat="48.935205" lon="8.690210">
<ele>385.0</ele>
<speed>4.9</speed>
<course>232.7</course>
<desc>Speed 4.9 km/h Distance 4.52 km</desc>
<time>2010-03-14T11:22:12.97</time>
<name>3403</name>
</trkpt>
<trkpt lat="48.935197" lon="8.690193">
<ele>385.0</ele>
<speed>4.9</speed>
<course>229.8</course>
<desc>Speed 4.9 km/h Distance 4.52 km</desc>
<time>2010-03-14T11:22:13.97</time>
<name>3404</name>
</trkpt>
<trkpt lat="48.935188" lon="8.690178">
<ele>385.0</ele>
<speed>4.8</speed>
<course>232.7</course>
<desc>Speed 4.8 km/h Distance 4.52 km</desc>
<time>2010-03-14T11:22:14.97</time>
<name>3405</name>
</trkpt>
<trkpt lat="48.935182" lon="8.690165">
<ele>385.0</ele>
<speed>4.3</speed>
<course>229.7</course>
<desc>Speed 4.3 km/h Distance 4.53 km</desc>
<time>2010-03-14T11:22:15.97</time>
<name>3406</name>
</trkpt>
<trkpt lat="48.935173" lon="8.690150">
<ele>385.0</ele>
<speed>4.8</speed>
<course>226.4</course>
<desc>Speed 4.8 km/h Distance 4.53 km</desc>
<time>2010-03-14T11:22:16.97</time>
<name>3407</name>
</trkpt>
<trkpt lat="48.935165" lon="8.690137">
<ele>385.5</ele>
<speed>5.0</speed>
<course>235.9</course>
<desc>Speed 5.0 km/h Distance 4.53 km</desc>
<time>2010-03-14T11:22:17.97</time>
<name>3408</name>
</trkpt>
<trkpt lat="48.935158" lon="8.690122">
<ele>385.0</ele>
<speed>4.2</speed>
<course>229.8</course>
<desc>Speed 4.2 km/h Distance 4.53 km</desc>
<time>2010-03-14T11:22:18.97</time>
<name>3409</name>
</trkpt>
<trkpt lat="48.935150" lon="8.690107">
<ele>385.0</ele>
<speed>4.8</speed>
<course>228.9</course>
<desc>Speed 4.8 km/h Distance 4.53 km</desc>
<time>2010-03-14T11:22:19.97</time>
<name>3410</name>
</trkpt>
<trkpt lat="48.935143" lon="8.690095">
<ele>385.0</ele>
<speed>3.9</speed>
<course>232.7</course>
<desc>Speed 3.9 km/h Distance 4.53 km</desc>
<time>2010-03-14T11:22:20.97</time>
<name>3411</name>
</trkpt>
<trkpt lat="48.935137" lon="8.690082">
<ele>385.0</ele>
<speed>4.1</speed>
<course>229.7</course>
<desc>Speed 4.1 km/h Distance 4.53 km</desc>
<time>2010-03-14T11:22:21.97</time>
<name>3412</name>
</trkpt>
<trkpt lat="48.935128" lon="8.690067">
<ele>385.0</ele>
<speed>4.9</speed>
<course>229.7</course>
<desc>Speed 4.9 km/h Distance 4.53 km</desc>
<time>2010-03-14T11:22:22.97</time>
<name>3413</name>
</trkpt>
<trkpt lat="48.935120" lon="8.690052">
<ele>385.0</ele>
<speed>4.6</speed>
<course>227.6</course>
<desc>Speed 4.6 km/h Distance 4.54 km</desc>
<time>2010-03-14T11:22:23.97</time>
<name>3414</name>
</trkpt>
<trkpt lat="48.935110" lon="8.690035">
<ele>385.5</ele>
<speed>5.2</speed>
<course>232.7</course>
<desc>Speed 5.2 km/h Distance 4.54 km</desc>
<time>2010-03-14T11:22:24.97</time>
<name>3415</name>
</trkpt>
<trkpt lat="48.935102" lon="8.690018">
<ele>385.5</ele>
<speed>5.1</speed>
<course>232.7</course>
<desc>Speed 5.1 km/h Distance 4.54 km</desc>
<time>2010-03-14T11:22:25.97</time>
<name>3416</name>
</trkpt>
<trkpt lat="48.935093" lon="8.690002">
<ele>385.5</ele>
<speed>5.5</speed>
<course>230.3</course>
<desc>Speed 5.5 km/h Distance 4.54 km</desc>
<time>2010-03-14T11:22:26.97</time>
<name>3417</name>
</trkpt>
<trkpt lat="48.935083" lon="8.689983">
<ele>385.5</ele>
<speed>5.6</speed>
<course>232.7</course>
<desc>Speed 5.6 km/h Distance 4.54 km</desc>
<time>2010-03-14T11:22:27.97</time>
<name>3418</name>
</trkpt>
<trkpt lat="48.935075" lon="8.689967">
<ele>385.5</ele>
<speed>5.1</speed>
<course>232.7</course>
<desc>Speed 5.1 km/h Distance 4.54 km</desc>
<time>2010-03-14T11:22:28.97</time>
<name>3419</name>
</trkpt>
<trkpt lat="48.935068" lon="8.689953">
<ele>385.5</ele>
<speed>4.0</speed>
<course>219.4</course>
<desc>Speed 4.0 km/h Distance 4.55 km</desc>
<time>2010-03-14T11:22:29.97</time>
<name>3420</name>
</trkpt>
<trkpt lat="48.935062" lon="8.689945">
<ele>385.5</ele>
<speed>2.6</speed>
<course>270.0</course>
<desc>Speed 2.6 km/h Distance 4.55 km</desc>
<time>2010-03-14T11:22:30.97</time>
<name>3421</name>
</trkpt>
<trkpt lat="48.935062" lon="8.689943">
<ele>385.5</ele>
<speed>0.7</speed>
<course>246.5</course>
<desc>Speed 0.7 km/h Distance 4.55 km</desc>
<time>2010-03-14T11:22:31.97</time>
<name>3422</name>
</trkpt>
<trkpt lat="48.935058" lon="8.689932">
<ele>385.5</ele>
<speed>3.3</speed>
<course>228.9</course>
<desc>Speed 3.3 km/h Distance 4.55 km</desc>
<time>2010-03-14T11:22:32.97</time>
<name>3423</name>
</trkpt>
<trkpt lat="48.935052" lon="8.689920">
<ele>385.5</ele>
<speed>4.0</speed>
<course>235.9</course>
<desc>Speed 4.0 km/h Distance 4.55 km</desc>
<time>2010-03-14T11:22:33.97</time>
<name>3424</name>
</trkpt>
<trkpt lat="48.935045" lon="8.689905">
<ele>385.5</ele>
<speed>4.6</speed>
<course>232.7</course>
<desc>Speed 4.6 km/h Distance 4.55 km</desc>
<time>2010-03-14T11:22:34.97</time>
<name>3425</name>
</trkpt>
<trkpt lat="48.935035" lon="8.689885">
<ele>386.0</ele>
<speed>6.2</speed>
<course>229.7</course>
<desc>Speed 6.2 km/h Distance 4.55 km</desc>
<time>2010-03-14T11:22:35.97</time>
<name>3426</name>
</trkpt>
<trkpt lat="48.935027" lon="8.689870">
<ele>385.5</ele>
<speed>5.2</speed>
<course>220.2</course>
<desc>Speed 5.2 km/h Distance 4.55 km</desc>
<time>2010-03-14T11:22:36.97</time>
<name>3427</name>
</trkpt>
<trkpt lat="48.935015" lon="8.689855">
<ele>385.5</ele>
<speed>5.8</speed>
<course>229.8</course>
<desc>Speed 5.8 km/h Distance 4.55 km</desc>
<time>2010-03-14T11:22:37.97</time>
<name>3428</name>
</trkpt>
<trkpt lat="48.935007" lon="8.689840">
<ele>385.5</ele>
<speed>5.0</speed>
<course>229.1</course>
<desc>Speed 5.0 km/h Distance 4.56 km</desc>
<time>2010-03-14T11:22:38.97</time>
<name>3429</name>
</trkpt>
<trkpt lat="48.935000" lon="8.689828">
<ele>385.5</ele>
<speed>3.8</speed>
<course>236.9</course>
<desc>Speed 3.8 km/h Distance 4.56 km</desc>
<time>2010-03-14T11:22:39.97</time>
<name>3430</name>
</trkpt>
<trkpt lat="48.934995" lon="8.689817">
<ele>385.0</ele>
<speed>4.0</speed>
<course>232.6</course>
<desc>Speed 4.0 km/h Distance 4.56 km</desc>
<time>2010-03-14T11:22:40.97</time>
<name>3431</name>
</trkpt>
<trkpt lat="48.934990" lon="8.689807">
<ele>384.5</ele>
<speed>3.2</speed>
<course>222.6</course>
<desc>Speed 3.2 km/h Distance 4.56 km</desc>
<time>2010-03-14T11:22:41.97</time>
<name>3432</name>
</trkpt>
<trkpt lat="48.934982" lon="8.689795">
<ele>384.0</ele>
<speed>4.1</speed>
<course>226.5</course>
<desc>Speed 4.1 km/h Distance 4.56 km</desc>
<time>2010-03-14T11:22:42.97</time>
<name>3433</name>
</trkpt>
<trkpt lat="48.934973" lon="8.689782">
<ele>384.0</ele>
<speed>4.4</speed>
<course>232.7</course>
<desc>Speed 4.4 km/h Distance 4.56 km</desc>
<time>2010-03-14T11:22:43.97</time>
<name>3434</name>
</trkpt>
<trkpt lat="48.934965" lon="8.689765">
<ele>384.0</ele>
<speed>4.9</speed>
<course>229.7</course>
<desc>Speed 4.9 km/h Distance 4.56 km</desc>
<time>2010-03-14T11:22:44.97</time>
<name>3435</name>
</trkpt>
<trkpt lat="48.934957" lon="8.689750">
<ele>384.0</ele>
<speed>4.9</speed>
<course>232.7</course>
<desc>Speed 4.9 km/h Distance 4.56 km</desc>
<time>2010-03-14T11:22:45.97</time>
<name>3436</name>
</trkpt>
<trkpt lat="48.934948" lon="8.689733">
<ele>384.0</ele>
<speed>4.6</speed>
<course>227.4</course>
<desc>Speed 4.6 km/h Distance 4.57 km</desc>
<time>2010-03-14T11:22:46.97</time>
<name>3437</name>
</trkpt>
<trkpt lat="48.934938" lon="8.689717">
<ele>384.0</ele>
<speed>4.9</speed>
<course>243.0</course>
<desc>Speed 4.9 km/h Distance 4.57 km</desc>
<time>2010-03-14T11:22:47.97</time>
<name>3438</name>
</trkpt>
<trkpt lat="48.934935" lon="8.689707">
<ele>383.5</ele>
<speed>3.0</speed>
<course>237.1</course>
<desc>Speed 3.0 km/h Distance 4.57 km</desc>
<time>2010-03-14T11:22:48.97</time>
<name>3439</name>
</trkpt>
<trkpt lat="48.934930" lon="8.689695">
<ele>382.5</ele>
<speed>3.2</speed>
<course>236.7</course>
<desc>Speed 3.2 km/h Distance 4.57 km</desc>
<time>2010-03-14T11:22:49.97</time>
<name>3440</name>
</trkpt>
<trkpt lat="48.934925" lon="8.689683">
<ele>382.5</ele>
<speed>3.1</speed>
<course>230.2</course>
<desc>Speed 3.1 km/h Distance 4.57 km</desc>
<time>2010-03-14T11:22:50.97</time>
<name>3441</name>
</trkpt>
<trkpt lat="48.934915" lon="8.689665">
<ele>382.5</ele>
<speed>4.9</speed>
<course>232.7</course>
<desc>Speed 4.9 km/h Distance 4.57 km</desc>
<time>2010-03-14T11:22:51.97</time>
<name>3442</name>
</trkpt>
<trkpt lat="48.934907" lon="8.689648">
<ele>382.5</ele>
<speed>5.4</speed>
<course>227.6</course>
<desc>Speed 5.4 km/h Distance 4.57 km</desc>
<time>2010-03-14T11:22:52.97</time>
<name>3443</name>
</trkpt>
<trkpt lat="48.934897" lon="8.689632">
<ele>382.5</ele>
<speed>5.8</speed>
<course>226.6</course>
<desc>Speed 5.8 km/h Distance 4.58 km</desc>
<time>2010-03-14T11:22:53.97</time>
<name>3444</name>
</trkpt>
<trkpt lat="48.934888" lon="8.689618">
<ele>382.5</ele>
<speed>5.1</speed>
<course>229.9</course>
<desc>Speed 5.1 km/h Distance 4.58 km</desc>
<time>2010-03-14T11:22:54.97</time>
<name>3445</name>
</trkpt>
<trkpt lat="48.934880" lon="8.689603">
<ele>382.5</ele>
<speed>5.3</speed>
<course>229.9</course>
<desc>Speed 5.3 km/h Distance 4.58 km</desc>
<time>2010-03-14T11:22:55.97</time>
<name>3446</name>
</trkpt>
<trkpt lat="48.934872" lon="8.689588">
<ele>382.5</ele>
<speed>5.0</speed>
<course>232.7</course>
<desc>Speed 5.0 km/h Distance 4.58 km</desc>
<time>2010-03-14T11:22:56.97</time>
<name>3447</name>
</trkpt>
<trkpt lat="48.934863" lon="8.689572">
<ele>383.0</ele>
<speed>4.5</speed>
<course>243.1</course>
<desc>Speed 4.5 km/h Distance 4.58 km</desc>
<time>2010-03-14T11:22:57.97</time>
<name>3448</name>
</trkpt>
<trkpt lat="48.934858" lon="8.689557">
<ele>383.0</ele>
<speed>4.1</speed>
<course>249.1</course>
<desc>Speed 4.1 km/h Distance 4.58 km</desc>
<time>2010-03-14T11:22:58.97</time>
<name>3449</name>
</trkpt>
<trkpt lat="48.934855" lon="8.689543">
<ele>382.5</ele>
<speed>3.3</speed>
<course>232.8</course>
<desc>Speed 3.3 km/h Distance 4.58 km</desc>
<time>2010-03-14T11:22:59.97</time>
<name>3450</name>
</trkpt>
<trkpt lat="48.934850" lon="8.689533">
<ele>382.5</ele>
<speed>3.3</speed>
<course>232.8</course>
<desc>Speed 3.3 km/h Distance 4.58 km</desc>
<time>2010-03-14T11:23:00.97</time>
<name>3451</name>
</trkpt>
<trkpt lat="48.934843" lon="8.689520">
<ele>382.5</ele>
<speed>4.0</speed>
<course>232.8</course>
<desc>Speed 4.0 km/h Distance 4.59 km</desc>
<time>2010-03-14T11:23:01.97</time>
<name>3452</name>
</trkpt>
<trkpt lat="48.934838" lon="8.689510">
<ele>382.5</ele>
<speed>3.4</speed>
<course>224.5</course>
<desc>Speed 3.4 km/h Distance 4.59 km</desc>
<time>2010-03-14T11:23:02.97</time>
<name>3453</name>
</trkpt>
<trkpt lat="48.934832" lon="8.689500">
<ele>382.5</ele>
<speed>3.5</speed>
<course>229.9</course>
<desc>Speed 3.5 km/h Distance 4.59 km</desc>
<time>2010-03-14T11:23:03.97</time>
<name>3454</name>
</trkpt>
<trkpt lat="48.934823" lon="8.689485">
<ele>382.0</ele>
<speed>5.0</speed>
<course>229.8</course>
<desc>Speed 5.0 km/h Distance 4.59 km</desc>
<time>2010-03-14T11:23:04.97</time>
<name>3455</name>
</trkpt>
<trkpt lat="48.934815" lon="8.689470">
<ele>382.5</ele>
<speed>5.2</speed>
<course>245.5</course>
<desc>Speed 5.2 km/h Distance 4.59 km</desc>
<time>2010-03-14T11:23:05.97</time>
<name>3456</name>
</trkpt>
<trkpt lat="48.934810" lon="8.689453">
<ele>382.5</ele>
<speed>4.9</speed>
<course>235.9</course>
<desc>Speed 4.9 km/h Distance 4.59 km</desc>
<time>2010-03-14T11:23:06.97</time>
<name>3457</name>
</trkpt>
<trkpt lat="48.934803" lon="8.689438">
<ele>382.5</ele>
<speed>4.4</speed>
<course>226.5</course>
<desc>Speed 4.4 km/h Distance 4.59 km</desc>
<time>2010-03-14T11:23:07.97</time>
<name>3458</name>
</trkpt>
<trkpt lat="48.934795" lon="8.689425">
<ele>382.5</ele>
<speed>4.6</speed>
<course>238.6</course>
<desc>Speed 4.6 km/h Distance 4.59 km</desc>
<time>2010-03-14T11:23:08.97</time>
<name>3459</name>
</trkpt>
<trkpt lat="48.934788" lon="8.689408">
<ele>382.5</ele>
<speed>5.3</speed>
<course>241.0</course>
<desc>Speed 5.3 km/h Distance 4.60 km</desc>
<time>2010-03-14T11:23:09.97</time>
<name>3460</name>
</trkpt>
<trkpt lat="48.934782" lon="8.689390">
<ele>383.0</ele>
<speed>5.5</speed>
<course>226.5</course>
<desc>Speed 5.5 km/h Distance 4.60 km</desc>
<time>2010-03-14T11:23:10.97</time>
<name>3461</name>
</trkpt>
<trkpt lat="48.934773" lon="8.689377">
<ele>382.5</ele>
<speed>4.5</speed>
<course>222.6</course>
<desc>Speed 4.5 km/h Distance 4.60 km</desc>
<time>2010-03-14T11:23:11.97</time>
<name>3462</name>
</trkpt>
<trkpt lat="48.934765" lon="8.689365">
<ele>382.5</ele>
<speed>4.6</speed>
<course>213.4</course>
<desc>Speed 4.6 km/h Distance 4.60 km</desc>
<time>2010-03-14T11:23:12.97</time>
<name>3463</name>
</trkpt>
<trkpt lat="48.934755" lon="8.689355">
<ele>382.5</ele>
<speed>4.5</speed>
<course>200.6</course>
<desc>Speed 4.5 km/h Distance 4.60 km</desc>
<time>2010-03-14T11:23:13.97</time>
<name>3464</name>
</trkpt>
<trkpt lat="48.934743" lon="8.689348">
<ele>382.5</ele>
<speed>4.8</speed>
<course>217.5</course>
<desc>Speed 4.8 km/h Distance 4.60 km</desc>
<time>2010-03-14T11:23:14.97</time>
<name>3465</name>
</trkpt>
<trkpt lat="48.934733" lon="8.689337">
<ele>382.5</ele>
<speed>5.4</speed>
<course>224.6</course>
<desc>Speed 5.4 km/h Distance 4.60 km</desc>
<time>2010-03-14T11:23:15.97</time>
<name>3466</name>
</trkpt>
<trkpt lat="48.934723" lon="8.689322">
<ele>382.5</ele>
<speed>5.3</speed>
<course>224.8</course>
<desc>Speed 5.3 km/h Distance 4.61 km</desc>
<time>2010-03-14T11:23:16.97</time>
<name>3467</name>
</trkpt>
<trkpt lat="48.934717" lon="8.689312">
<ele>382.0</ele>
<speed>3.9</speed>
<course>232.8</course>
<desc>Speed 3.9 km/h Distance 4.61 km</desc>
<time>2010-03-14T11:23:17.97</time>
<name>3468</name>
</trkpt>
<trkpt lat="48.934710" lon="8.689298">
<ele>382.0</ele>
<speed>4.2</speed>
<course>208.6</course>
<desc>Speed 4.2 km/h Distance 4.61 km</desc>
<time>2010-03-14T11:23:18.97</time>
<name>3469</name>
</trkpt>
<trkpt lat="48.934700" lon="8.689290">
<ele>382.0</ele>
<speed>4.2</speed>
<course>228.9</course>
<desc>Speed 4.2 km/h Distance 4.61 km</desc>
<time>2010-03-14T11:23:19.97</time>
<name>3470</name>
</trkpt>
<trkpt lat="48.934693" lon="8.689278">
<ele>381.5</ele>
<speed>4.4</speed>
<course>226.4</course>
<desc>Speed 4.4 km/h Distance 4.61 km</desc>
<time>2010-03-14T11:23:20.97</time>
<name>3471</name>
</trkpt>
<trkpt lat="48.934685" lon="8.689265">
<ele>381.5</ele>
<speed>3.8</speed>
<course>232.7</course>
<desc>Speed 3.8 km/h Distance 4.61 km</desc>
<time>2010-03-14T11:23:21.97</time>
<name>3472</name>
</trkpt>
<trkpt lat="48.934678" lon="8.689252">
<ele>381.5</ele>
<speed>4.0</speed>
<course>232.7</course>
<desc>Speed 4.0 km/h Distance 4.61 km</desc>
<time>2010-03-14T11:23:22.97</time>
<name>3473</name>
</trkpt>
<trkpt lat="48.934672" lon="8.689238">
<ele>381.5</ele>
<speed>4.4</speed>
<course>226.5</course>
<desc>Speed 4.4 km/h Distance 4.61 km</desc>
<time>2010-03-14T11:23:23.97</time>
<name>3474</name>
</trkpt>
<trkpt lat="48.934663" lon="8.689225">
<ele>381.5</ele>
<speed>4.6</speed>
<course>229.7</course>
<desc>Speed 4.6 km/h Distance 4.62 km</desc>
<time>2010-03-14T11:23:24.97</time>
<name>3475</name>
</trkpt>
<trkpt lat="48.934655" lon="8.689210">
<ele>381.5</ele>
<speed>5.3</speed>
<course>235.3</course>
<desc>Speed 5.3 km/h Distance 4.62 km</desc>
<time>2010-03-14T11:23:25.97</time>
<name>3476</name>
</trkpt>
<trkpt lat="48.934647" lon="8.689192">
<ele>381.5</ele>
<speed>5.5</speed>
<course>226.5</course>
<desc>Speed 5.5 km/h Distance 4.62 km</desc>
<time>2010-03-14T11:23:26.97</time>
<name>3477</name>
</trkpt>
<trkpt lat="48.934638" lon="8.689178">
<ele>381.5</ele>
<speed>4.8</speed>
<course>238.7</course>
<desc>Speed 4.8 km/h Distance 4.62 km</desc>
<time>2010-03-14T11:23:27.97</time>
<name>3478</name>
</trkpt>
<trkpt lat="48.934632" lon="8.689162">
<ele>381.5</ele>
<speed>4.9</speed>
<course>243.0</course>
<desc>Speed 4.9 km/h Distance 4.62 km</desc>
<time>2010-03-14T11:23:29.00</time>
<name>3479</name>
</trkpt>
<trkpt lat="48.934628" lon="8.689152">
<ele>381.5</ele>
<speed>3.0</speed>
<course>236.9</course>
<desc>Speed 3.0 km/h Distance 4.62 km</desc>
<time>2010-03-14T11:23:30.00</time>
<name>3480</name>
</trkpt>
<trkpt lat="48.934623" lon="8.689140">
<ele>381.5</ele>
<speed>3.5</speed>
<course>228.9</course>
<desc>Speed 3.5 km/h Distance 4.62 km</desc>
<time>2010-03-14T11:23:31.00</time>
<name>3481</name>
</trkpt>
<trkpt lat="48.934617" lon="8.689128">
<ele>381.5</ele>
<speed>3.8</speed>
<course>243.1</course>
<desc>Speed 3.8 km/h Distance 4.62 km</desc>
<time>2010-03-14T11:23:32.00</time>
<name>3482</name>
</trkpt>
<trkpt lat="48.934612" lon="8.689113">
<ele>381.5</ele>
<speed>3.7</speed>
<course>232.7</course>
<desc>Speed 3.7 km/h Distance 4.63 km</desc>
<time>2010-03-14T11:23:33.00</time>
<name>3483</name>
</trkpt>
<trkpt lat="48.934605" lon="8.689100">
<ele>381.5</ele>
<speed>3.8</speed>
<course>222.6</course>
<desc>Speed 3.8 km/h Distance 4.63 km</desc>
<time>2010-03-14T11:23:34.00</time>
<name>3484</name>
</trkpt>
<trkpt lat="48.934597" lon="8.689088">
<ele>381.0</ele>
<speed>4.2</speed>
<course>226.4</course>
<desc>Speed 4.2 km/h Distance 4.63 km</desc>
<time>2010-03-14T11:23:35.00</time>
<name>3485</name>
</trkpt>
<trkpt lat="48.934588" lon="8.689075">
<ele>381.0</ele>
<speed>4.7</speed>
<course>218.1</course>
<desc>Speed 4.7 km/h Distance 4.63 km</desc>
<time>2010-03-14T11:23:36.00</time>
<name>3486</name>
</trkpt>
<trkpt lat="48.934580" lon="8.689065">
<ele>381.0</ele>
<speed>4.7</speed>
<course>226.4</course>
<desc>Speed 4.7 km/h Distance 4.63 km</desc>
<time>2010-03-14T11:23:37.00</time>
<name>3487</name>
</trkpt>
<trkpt lat="48.934572" lon="8.689052">
<ele>381.0</ele>
<speed>4.7</speed>
<course>221.2</course>
<desc>Speed 4.7 km/h Distance 4.63 km</desc>
<time>2010-03-14T11:23:38.00</time>
<name>3488</name>
</trkpt>
<trkpt lat="48.934562" lon="8.689038">
<ele>381.0</ele>
<speed>4.6</speed>
<course>217.2</course>
<desc>Speed 4.6 km/h Distance 4.63 km</desc>
<time>2010-03-14T11:23:39.00</time>
<name>3489</name>
</trkpt>
<trkpt lat="48.934560" lon="8.689037">
<ele>379.5</ele>
<speed>1.1</speed>
<course>218.4</course>
<desc>Speed 1.1 km/h Distance 4.63 km</desc>
<time>2010-03-14T11:23:40.00</time>
<name>3490</name>
</trkpt>
<trkpt lat="48.934552" lon="8.689027">
<ele>379.0</ele>
<speed>4.2</speed>
<course>232.7</course>
<desc>Speed 4.2 km/h Distance 4.64 km</desc>
<time>2010-03-14T11:23:41.00</time>
<name>3491</name>
</trkpt>
<trkpt lat="48.934545" lon="8.689013">
<ele>378.5</ele>
<speed>4.2</speed>
<course>235.9</course>
<desc>Speed 4.2 km/h Distance 4.64 km</desc>
<time>2010-03-14T11:23:42.00</time>
<name>3492</name>
</trkpt>
<trkpt lat="48.934538" lon="8.688998">
<ele>378.5</ele>
<speed>4.4</speed>
<course>218.4</course>
<desc>Speed 4.4 km/h Distance 4.64 km</desc>
<time>2010-03-14T11:23:43.00</time>
<name>3493</name>
</trkpt>
<trkpt lat="48.934530" lon="8.688988">
<ele>378.5</ele>
<speed>4.1</speed>
<course>226.5</course>
<desc>Speed 4.1 km/h Distance 4.64 km</desc>
<time>2010-03-14T11:23:44.00</time>
<name>3494</name>
</trkpt>
<trkpt lat="48.934522" lon="8.688975">
<ele>378.5</ele>
<speed>4.8</speed>
<course>226.4</course>
<desc>Speed 4.8 km/h Distance 4.64 km</desc>
<time>2010-03-14T11:23:45.00</time>
<name>3495</name>
</trkpt>
<trkpt lat="48.934513" lon="8.688962">
<ele>378.5</ele>
<speed>4.6</speed>
<course>235.9</course>
<desc>Speed 4.6 km/h Distance 4.64 km</desc>
<time>2010-03-14T11:23:46.00</time>
<name>3496</name>
</trkpt>
<trkpt lat="48.934507" lon="8.688947">
<ele>378.5</ele>
<speed>4.5</speed>
<course>232.7</course>
<desc>Speed 4.5 km/h Distance 4.64 km</desc>
<time>2010-03-14T11:23:47.00</time>
<name>3497</name>
</trkpt>
<trkpt lat="48.934500" lon="8.688933">
<ele>378.5</ele>
<speed>4.6</speed>
<course>226.4</course>
<desc>Speed 4.6 km/h Distance 4.64 km</desc>
<time>2010-03-14T11:23:48.00</time>
<name>3498</name>
</trkpt>
<trkpt lat="48.934492" lon="8.688920">
<ele>378.5</ele>
<speed>4.8</speed>
<course>228.9</course>
<desc>Speed 4.8 km/h Distance 4.65 km</desc>
<time>2010-03-14T11:23:49.00</time>
<name>3499</name>
</trkpt>
<trkpt lat="48.934485" lon="8.688908">
<ele>378.0</ele>
<speed>3.7</speed>
<course>236.7</course>
<desc>Speed 3.7 km/h Distance 4.65 km</desc>
<time>2010-03-14T11:23:50.00</time>
<name>3500</name>
</trkpt>
<trkpt lat="48.934480" lon="8.688897">
<ele>377.5</ele>
<speed>3.5</speed>
<course>251.3</course>
<desc>Speed 3.5 km/h Distance 4.65 km</desc>
<time>2010-03-14T11:23:51.00</time>
<name>3501</name>
</trkpt>
<trkpt lat="48.934477" lon="8.688882">
<ele>377.5</ele>
<speed>3.7</speed>
<course>225.9</course>
<desc>Speed 3.7 km/h Distance 4.65 km</desc>
<time>2010-03-14T11:23:52.00</time>
<name>3502</name>
</trkpt>
<trkpt lat="48.934465" lon="8.688863">
<ele>378.5</ele>
<speed>6.4</speed>
<course>226.6</course>
<desc>Speed 6.4 km/h Distance 4.65 km</desc>
<time>2010-03-14T11:23:53.00</time>
<name>3503</name>
</trkpt>
<trkpt lat="48.934457" lon="8.688850">
<ele>378.5</ele>
<speed>4.9</speed>
<course>229.7</course>
<desc>Speed 4.9 km/h Distance 4.65 km</desc>
<time>2010-03-14T11:23:54.00</time>
<name>3504</name>
</trkpt>
<trkpt lat="48.934448" lon="8.688835">
<ele>378.5</ele>
<speed>4.9</speed>
<course>229.8</course>
<desc>Speed 4.9 km/h Distance 4.65 km</desc>
<time>2010-03-14T11:23:55.00</time>
<name>3505</name>
</trkpt>
<trkpt lat="48.934440" lon="8.688820">
<ele>378.5</ele>
<speed>4.8</speed>
<course>232.7</course>
<desc>Speed 4.8 km/h Distance 4.65 km</desc>
<time>2010-03-14T11:23:56.00</time>
<name>3506</name>
</trkpt>
<trkpt lat="48.934433" lon="8.688807">
<ele>378.5</ele>
<speed>4.7</speed>
<course>229.7</course>
<desc>Speed 4.7 km/h Distance 4.66 km</desc>
<time>2010-03-14T11:23:57.00</time>
<name>3507</name>
</trkpt>
<trkpt lat="48.934425" lon="8.688792">
<ele>378.5</ele>
<speed>4.8</speed>
<course>232.8</course>
<desc>Speed 4.8 km/h Distance 4.66 km</desc>
<time>2010-03-14T11:23:58.00</time>
<name>3508</name>
</trkpt>
<trkpt lat="48.934418" lon="8.688778">
<ele>378.5</ele>
<speed>4.5</speed>
<course>217.5</course>
<desc>Speed 4.5 km/h Distance 4.66 km</desc>
<time>2010-03-14T11:23:59.00</time>
<name>3509</name>
</trkpt>
<trkpt lat="48.934408" lon="8.688767">
<ele>378.5</ele>
<speed>4.7</speed>
<course>229.7</course>
<desc>Speed 4.7 km/h Distance 4.66 km</desc>
<time>2010-03-14T11:24:00.00</time>
<name>3510</name>
</trkpt>
<trkpt lat="48.934400" lon="8.688752">
<ele>378.5</ele>
<speed>5.0</speed>
<course>229.1</course>
<desc>Speed 5.0 km/h Distance 4.66 km</desc>
<time>2010-03-14T11:24:01.00</time>
<name>3511</name>
</trkpt>
<trkpt lat="48.934393" lon="8.688740">
<ele>378.5</ele>
<speed>4.1</speed>
<course>236.9</course>
<desc>Speed 4.1 km/h Distance 4.66 km</desc>
<time>2010-03-14T11:24:02.00</time>
<name>3512</name>
</trkpt>
<trkpt lat="48.934388" lon="8.688728">
<ele>379.0</ele>
<speed>3.7</speed>
<course>222.6</course>
<desc>Speed 3.7 km/h Distance 4.66 km</desc>
<time>2010-03-14T11:24:03.00</time>
<name>3513</name>
</trkpt>
<trkpt lat="48.934380" lon="8.688717">
<ele>379.0</ele>
<speed>4.5</speed>
<course>245.5</course>
<desc>Speed 4.5 km/h Distance 4.66 km</desc>
<time>2010-03-14T11:24:04.00</time>
<name>3514</name>
</trkpt>
<trkpt lat="48.934375" lon="8.688700">
<ele>379.0</ele>
<speed>4.1</speed>
<course>233.5</course>
<desc>Speed 4.1 km/h Distance 4.67 km</desc>
<time>2010-03-14T11:24:05.00</time>
<name>3515</name>
</trkpt>
<trkpt lat="48.934372" lon="8.688693">
<ele>379.0</ele>
<speed>2.2</speed>
<course>213.7</course>
<desc>Speed 2.2 km/h Distance 4.67 km</desc>
<time>2010-03-14T11:24:06.00</time>
<name>3516</name>
</trkpt>
<trkpt lat="48.934365" lon="8.688687">
<ele>379.0</ele>
<speed>3.2</speed>
<course>222.6</course>
<desc>Speed 3.2 km/h Distance 4.67 km</desc>
<time>2010-03-14T11:24:07.00</time>
<name>3517</name>
</trkpt>
<trkpt lat="48.934357" lon="8.688675">
<ele>379.0</ele>
<speed>4.5</speed>
<course>232.7</course>
<desc>Speed 4.5 km/h Distance 4.67 km</desc>
<time>2010-03-14T11:24:08.00</time>
<name>3518</name>
</trkpt>
<trkpt lat="48.934350" lon="8.688662">
<ele>379.0</ele>
<speed>4.2</speed>
<course>219.4</course>
<desc>Speed 4.2 km/h Distance 4.67 km</desc>
<time>2010-03-14T11:24:09.00</time>
<name>3519</name>
</trkpt>
<trkpt lat="48.934343" lon="8.688653">
<ele>379.0</ele>
<speed>3.3</speed>
<course>228.9</course>
<desc>Speed 3.3 km/h Distance 4.67 km</desc>
<time>2010-03-14T11:24:10.00</time>
<name>3520</name>
</trkpt>
<trkpt lat="48.934337" lon="8.688642">
<ele>379.0</ele>
<speed>3.7</speed>
<course>236.7</course>
<desc>Speed 3.7 km/h Distance 4.67 km</desc>
<time>2010-03-14T11:24:11.00</time>
<name>3521</name>
</trkpt>
<trkpt lat="48.934332" lon="8.688630">
<ele>379.0</ele>
<speed>3.7</speed>
<course>224.5</course>
<desc>Speed 3.7 km/h Distance 4.67 km</desc>
<time>2010-03-14T11:24:12.00</time>
<name>3522</name>
</trkpt>
<trkpt lat="48.934325" lon="8.688620">
<ele>379.0</ele>
<speed>3.3</speed>
<course>238.6</course>
<desc>Speed 3.3 km/h Distance 4.67 km</desc>
<time>2010-03-14T11:24:13.00</time>
<name>3523</name>
</trkpt>
<trkpt lat="48.934322" lon="8.688612">
<ele>379.0</ele>
<speed>3.0</speed>
<course>232.7</course>
<desc>Speed 3.0 km/h Distance 4.68 km</desc>
<time>2010-03-14T11:24:14.00</time>
<name>3524</name>
</trkpt>
<trkpt lat="48.934315" lon="8.688598">
<ele>379.0</ele>
<speed>4.1</speed>
<course>226.5</course>
<desc>Speed 4.1 km/h Distance 4.68 km</desc>
<time>2010-03-14T11:24:15.00</time>
<name>3525</name>
</trkpt>
<trkpt lat="48.934307" lon="8.688585">
<ele>379.0</ele>
<speed>4.8</speed>
<course>235.3</course>
<desc>Speed 4.8 km/h Distance 4.68 km</desc>
<time>2010-03-14T11:24:16.00</time>
<name>3526</name>
</trkpt>
<trkpt lat="48.934298" lon="8.688567">
<ele>379.0</ele>
<speed>5.9</speed>
<course>221.4</course>
<desc>Speed 5.9 km/h Distance 4.68 km</desc>
<time>2010-03-14T11:24:17.00</time>
<name>3527</name>
</trkpt>
<trkpt lat="48.934288" lon="8.688553">
<ele>379.0</ele>
<speed>4.8</speed>
<course>222.6</course>
<desc>Speed 4.8 km/h Distance 4.68 km</desc>
<time>2010-03-14T11:24:18.00</time>
<name>3528</name>
</trkpt>
<trkpt lat="48.934280" lon="8.688542">
<ele>378.5</ele>
<speed>4.4</speed>
<course>232.7</course>
<desc>Speed 4.4 km/h Distance 4.68 km</desc>
<time>2010-03-14T11:24:19.00</time>
<name>3529</name>
</trkpt>
<trkpt lat="48.934273" lon="8.688528">
<ele>378.5</ele>
<speed>4.3</speed>
<course>213.5</course>
<desc>Speed 4.3 km/h Distance 4.68 km</desc>
<time>2010-03-14T11:24:20.00</time>
<name>3530</name>
</trkpt>
<trkpt lat="48.934265" lon="8.688520">
<ele>378.5</ele>
<speed>4.0</speed>
<course>229.1</course>
<desc>Speed 4.0 km/h Distance 4.68 km</desc>
<time>2010-03-14T11:24:21.00</time>
<name>3531</name>
</trkpt>
<trkpt lat="48.934258" lon="8.688508">
<ele>378.0</ele>
<speed>3.7</speed>
<course>236.7</course>
<desc>Speed 3.7 km/h Distance 4.69 km</desc>
<time>2010-03-14T11:24:22.00</time>
<name>3532</name>
</trkpt>
<trkpt lat="48.934253" lon="8.688497">
<ele>378.0</ele>
<speed>3.3</speed>
<course>238.6</course>
<desc>Speed 3.3 km/h Distance 4.69 km</desc>
<time>2010-03-14T11:24:23.00</time>
<name>3533</name>
</trkpt>
<trkpt lat="48.934250" lon="8.688488">
<ele>378.5</ele>
<speed>2.7</speed>
<course>243.1</course>
<desc>Speed 2.7 km/h Distance 4.69 km</desc>
<time>2010-03-14T11:24:24.00</time>
<name>3534</name>
</trkpt>
<trkpt lat="48.934245" lon="8.688473">
<ele>378.5</ele>
<speed>4.2</speed>
<course>243.1</course>
<desc>Speed 4.2 km/h Distance 4.69 km</desc>
<time>2010-03-14T11:24:25.00</time>
<name>3535</name>
</trkpt>
<trkpt lat="48.934240" lon="8.688458">
<ele>378.5</ele>
<speed>4.1</speed>
<course>243.1</course>
<desc>Speed 4.1 km/h Distance 4.69 km</desc>
<time>2010-03-14T11:24:26.00</time>
<name>3536</name>
</trkpt>
<trkpt lat="48.934235" lon="8.688443">
<ele>378.5</ele>
<speed>4.3</speed>
<course>234.9</course>
<desc>Speed 4.3 km/h Distance 4.69 km</desc>
<time>2010-03-14T11:24:27.00</time>
<name>3537</name>
</trkpt>
<trkpt lat="48.934225" lon="8.688422">
<ele>378.5</ele>
<speed>6.7</speed>
<course>218.1</course>
<desc>Speed 6.7 km/h Distance 4.69 km</desc>
<time>2010-03-14T11:24:28.00</time>
<name>3538</name>
</trkpt>
<trkpt lat="48.934217" lon="8.688412">
<ele>378.5</ele>
<speed>3.9</speed>
<course>232.7</course>
<desc>Speed 3.9 km/h Distance 4.69 km</desc>
<time>2010-03-14T11:24:29.00</time>
<name>3539</name>
</trkpt>
<trkpt lat="48.934210" lon="8.688398">
<ele>378.5</ele>
<speed>4.5</speed>
<course>218.1</course>
<desc>Speed 4.5 km/h Distance 4.70 km</desc>
<time>2010-03-14T11:24:30.00</time>
<name>3540</name>
</trkpt>
<trkpt lat="48.934202" lon="8.688388">
<ele>378.0</ele>
<speed>3.9</speed>
<course>228.7</course>
<desc>Speed 3.9 km/h Distance 4.70 km</desc>
<time>2010-03-14T11:24:31.00</time>
<name>3541</name>
</trkpt>
<trkpt lat="48.934195" lon="8.688377">
<ele>378.0</ele>
<speed>4.1</speed>
<course>232.7</course>
<desc>Speed 4.1 km/h Distance 4.70 km</desc>
<time>2010-03-14T11:24:32.00</time>
<name>3542</name>
</trkpt>
<trkpt lat="48.934188" lon="8.688363">
<ele>378.0</ele>
<speed>4.2</speed>
<course>236.7</course>
<desc>Speed 4.2 km/h Distance 4.70 km</desc>
<time>2010-03-14T11:24:33.00</time>
<name>3543</name>
</trkpt>
<trkpt lat="48.934183" lon="8.688352">
<ele>378.0</ele>
<speed>3.6</speed>
<course>229.7</course>
<desc>Speed 3.6 km/h Distance 4.70 km</desc>
<time>2010-03-14T11:24:34.00</time>
<name>3544</name>
</trkpt>
<trkpt lat="48.934175" lon="8.688337">
<ele>378.0</ele>
<speed>4.6</speed>
<course>240.3</course>
<desc>Speed 4.6 km/h Distance 4.70 km</desc>
<time>2010-03-14T11:24:35.00</time>
<name>3545</name>
</trkpt>
<trkpt lat="48.934170" lon="8.688323">
<ele>378.0</ele>
<speed>4.0</speed>
<course>232.7</course>
<desc>Speed 4.0 km/h Distance 4.70 km</desc>
<time>2010-03-14T11:24:36.00</time>
<name>3546</name>
</trkpt>
<trkpt lat="48.934163" lon="8.688310">
<ele>378.0</ele>
<speed>4.0</speed>
<course>226.5</course>
<desc>Speed 4.0 km/h Distance 4.70 km</desc>
<time>2010-03-14T11:24:37.00</time>
<name>3547</name>
</trkpt>
<trkpt lat="48.934155" lon="8.688297">
<ele>378.0</ele>
<speed>4.8</speed>
<course>238.6</course>
<desc>Speed 4.8 km/h Distance 4.70 km</desc>
<time>2010-03-14T11:24:38.00</time>
<name>3548</name>
</trkpt>
<trkpt lat="48.934148" lon="8.688280">
<ele>378.0</ele>
<speed>4.7</speed>
<course>228.7</course>
<desc>Speed 4.7 km/h Distance 4.71 km</desc>
<time>2010-03-14T11:24:39.00</time>
<name>3549</name>
</trkpt>
<trkpt lat="48.934142" lon="8.688268">
<ele>378.0</ele>
<speed>4.2</speed>
<course>232.7</course>
<desc>Speed 4.2 km/h Distance 4.71 km</desc>
<time>2010-03-14T11:24:40.00</time>
<name>3550</name>
</trkpt>
<trkpt lat="48.934133" lon="8.688252">
<ele>378.0</ele>
<speed>5.1</speed>
<course>226.5</course>
<desc>Speed 5.1 km/h Distance 4.71 km</desc>
<time>2010-03-14T11:24:41.00</time>
<name>3551</name>
</trkpt>
<trkpt lat="48.934125" lon="8.688238">
<ele>378.0</ele>
<speed>4.7</speed>
<course>232.7</course>
<desc>Speed 4.7 km/h Distance 4.71 km</desc>
<time>2010-03-14T11:24:42.00</time>
<name>3552</name>
</trkpt>
<trkpt lat="48.934118" lon="8.688225">
<ele>378.0</ele>
<speed>4.5</speed>
<course>232.7</course>
<desc>Speed 4.5 km/h Distance 4.71 km</desc>
<time>2010-03-14T11:24:43.00</time>
<name>3553</name>
</trkpt>
<trkpt lat="48.934112" lon="8.688212">
<ele>378.0</ele>
<speed>4.1</speed>
<course>229.1</course>
<desc>Speed 4.1 km/h Distance 4.71 km</desc>
<time>2010-03-14T11:24:44.00</time>
<name>3554</name>
</trkpt>
<trkpt lat="48.934105" lon="8.688200">
<ele>378.0</ele>
<speed>3.9</speed>
<course>232.7</course>
<desc>Speed 3.9 km/h Distance 4.71 km</desc>
<time>2010-03-14T11:24:45.00</time>
<name>3555</name>
</trkpt>
<trkpt lat="48.934097" lon="8.688183">
<ele>378.0</ele>
<speed>5.3</speed>
<course>229.8</course>
<desc>Speed 5.3 km/h Distance 4.72 km</desc>
<time>2010-03-14T11:24:46.00</time>
<name>3556</name>
</trkpt>
<trkpt lat="48.934088" lon="8.688168">
<ele>378.0</ele>
<speed>4.9</speed>
<course>229.8</course>
<desc>Speed 4.9 km/h Distance 4.72 km</desc>
<time>2010-03-14T11:24:47.00</time>
<name>3557</name>
</trkpt>
<trkpt lat="48.934080" lon="8.688153">
<ele>378.0</ele>
<speed>5.0</speed>
<course>229.9</course>
<desc>Speed 5.0 km/h Distance 4.72 km</desc>
<time>2010-03-14T11:24:48.00</time>
<name>3558</name>
</trkpt>
<trkpt lat="48.934072" lon="8.688138">
<ele>378.0</ele>
<speed>4.9</speed>
<course>243.1</course>
<desc>Speed 4.9 km/h Distance 4.72 km</desc>
<time>2010-03-14T11:24:49.00</time>
<name>3559</name>
</trkpt>
<trkpt lat="48.934067" lon="8.688123">
<ele>378.0</ele>
<speed>4.4</speed>
<course>235.9</course>
<desc>Speed 4.4 km/h Distance 4.72 km</desc>
<time>2010-03-14T11:24:50.00</time>
<name>3560</name>
</trkpt>
<trkpt lat="48.934060" lon="8.688108">
<ele>378.0</ele>
<speed>4.3</speed>
<course>229.1</course>
<desc>Speed 4.3 km/h Distance 4.72 km</desc>
<time>2010-03-14T11:24:51.00</time>
<name>3561</name>
</trkpt>
<trkpt lat="48.934053" lon="8.688097">
<ele>378.0</ele>
<speed>4.0</speed>
<course>235.9</course>
<desc>Speed 4.0 km/h Distance 4.72 km</desc>
<time>2010-03-14T11:24:52.00</time>
<name>3562</name>
</trkpt>
<trkpt lat="48.934047" lon="8.688082">
<ele>378.0</ele>
<speed>4.6</speed>
<course>247.9</course>
<desc>Speed 4.6 km/h Distance 4.72 km</desc>
<time>2010-03-14T11:24:53.00</time>
<name>3563</name>
</trkpt>
<trkpt lat="48.934040" lon="8.688057">
<ele>378.5</ele>
<speed>7.2</speed>
<course>245.5</course>
<desc>Speed 7.2 km/h Distance 4.73 km</desc>
<time>2010-03-14T11:24:54.00</time>
<name>3564</name>
</trkpt>
<trkpt lat="48.934035" lon="8.688040">
<ele>378.5</ele>
<speed>4.7</speed>
<course>243.1</course>
<desc>Speed 4.7 km/h Distance 4.73 km</desc>
<time>2010-03-14T11:24:55.00</time>
<name>3565</name>
</trkpt>
<trkpt lat="48.934030" lon="8.688025">
<ele>378.5</ele>
<speed>4.3</speed>
<course>235.8</course>
<desc>Speed 4.3 km/h Distance 4.73 km</desc>
<time>2010-03-14T11:24:56.00</time>
<name>3566</name>
</trkpt>
<trkpt lat="48.934023" lon="8.688010">
<ele>378.5</ele>
<speed>4.6</speed>
<course>253.1</course>
<desc>Speed 4.6 km/h Distance 4.73 km</desc>
<time>2010-03-14T11:24:57.00</time>
<name>3567</name>
</trkpt>
<trkpt lat="48.934020" lon="8.687993">
<ele>378.5</ele>
<speed>4.4</speed>
<course>261.3</course>
<desc>Speed 4.4 km/h Distance 4.73 km</desc>
<time>2010-03-14T11:24:58.00</time>
<name>3568</name>
</trkpt>
<trkpt lat="48.934018" lon="8.687977">
<ele>378.5</ele>
<speed>4.3</speed>
<course>251.3</course>
<desc>Speed 4.3 km/h Distance 4.73 km</desc>
<time>2010-03-14T11:24:59.00</time>
<name>3569</name>
</trkpt>
<trkpt lat="48.934015" lon="8.687962">
<ele>378.5</ele>
<speed>3.9</speed>
<course>245.5</course>
<desc>Speed 3.9 km/h Distance 4.73 km</desc>
<time>2010-03-14T11:25:00.00</time>
<name>3570</name>
</trkpt>
<trkpt lat="48.934010" lon="8.687945">
<ele>378.5</ele>
<speed>4.8</speed>
<course>236.9</course>
<desc>Speed 4.8 km/h Distance 4.74 km</desc>
<time>2010-03-14T11:25:01.00</time>
<name>3571</name>
</trkpt>
<trkpt lat="48.934005" lon="8.687933">
<ele>378.0</ele>
<speed>3.3</speed>
<course>236.7</course>
<desc>Speed 3.3 km/h Distance 4.74 km</desc>
<time>2010-03-14T11:25:02.00</time>
<name>3572</name>
</trkpt>
<trkpt lat="48.934000" lon="8.687922">
<ele>378.0</ele>
<speed>3.6</speed>
<course>222.5</course>
<desc>Speed 3.6 km/h Distance 4.74 km</desc>
<time>2010-03-14T11:25:03.00</time>
<name>3573</name>
</trkpt>
<trkpt lat="48.933992" lon="8.687910">
<ele>378.0</ele>
<speed>4.2</speed>
<course>235.9</course>
<desc>Speed 4.2 km/h Distance 4.74 km</desc>
<time>2010-03-14T11:25:04.00</time>
<name>3574</name>
</trkpt>
<trkpt lat="48.933985" lon="8.687895">
<ele>378.0</ele>
<speed>4.6</speed>
<course>232.7</course>
<desc>Speed 4.6 km/h Distance 4.74 km</desc>
<time>2010-03-14T11:25:05.00</time>
<name>3575</name>
</trkpt>
<trkpt lat="48.933978" lon="8.687882">
<ele>378.0</ele>
<speed>4.2</speed>
<course>235.9</course>
<desc>Speed 4.2 km/h Distance 4.74 km</desc>
<time>2010-03-14T11:25:06.00</time>
<name>3576</name>
</trkpt>
<trkpt lat="48.933972" lon="8.687867">
<ele>378.0</ele>
<speed>4.7</speed>
<course>232.7</course>
<desc>Speed 4.7 km/h Distance 4.74 km</desc>
<time>2010-03-14T11:25:07.00</time>
<name>3577</name>
</trkpt>
<trkpt lat="48.933963" lon="8.687850">
<ele>378.0</ele>
<speed>5.2</speed>
<course>232.7</course>
<desc>Speed 5.2 km/h Distance 4.74 km</desc>
<time>2010-03-14T11:25:08.00</time>
<name>3578</name>
</trkpt>
<trkpt lat="48.933955" lon="8.687833">
<ele>378.0</ele>
<speed>5.2</speed>
<course>232.8</course>
<desc>Speed 5.2 km/h Distance 4.75 km</desc>
<time>2010-03-14T11:25:09.00</time>
<name>3579</name>
</trkpt>
<trkpt lat="48.933948" lon="8.687820">
<ele>378.0</ele>
<speed>4.4</speed>
<course>217.5</course>
<desc>Speed 4.4 km/h Distance 4.75 km</desc>
<time>2010-03-14T11:25:10.00</time>
<name>3580</name>
</trkpt>
<trkpt lat="48.933938" lon="8.687808">
<ele>377.5</ele>
<speed>5.0</speed>
<course>213.2</course>
<desc>Speed 5.0 km/h Distance 4.75 km</desc>
<time>2010-03-14T11:25:11.00</time>
<name>3581</name>
</trkpt>
<trkpt lat="48.933928" lon="8.687798">
<ele>377.5</ele>
<speed>4.3</speed>
<course>222.6</course>
<desc>Speed 4.3 km/h Distance 4.75 km</desc>
<time>2010-03-14T11:25:12.00</time>
<name>3582</name>
</trkpt>
<trkpt lat="48.933920" lon="8.687787">
<ele>377.5</ele>
<speed>4.6</speed>
<course>229.7</course>
<desc>Speed 4.6 km/h Distance 4.75 km</desc>
<time>2010-03-14T11:25:13.00</time>
<name>3583</name>
</trkpt>
<trkpt lat="48.933912" lon="8.687772">
<ele>377.5</ele>
<speed>4.9</speed>
<course>226.4</course>
<desc>Speed 4.9 km/h Distance 4.75 km</desc>
<time>2010-03-14T11:25:14.00</time>
<name>3584</name>
</trkpt>
<trkpt lat="48.933903" lon="8.687758">
<ele>377.5</ele>
<speed>4.7</speed>
<course>236.0</course>
<desc>Speed 4.7 km/h Distance 4.75 km</desc>
<time>2010-03-14T11:25:15.00</time>
<name>3585</name>
</trkpt>
<trkpt lat="48.933897" lon="8.687743">
<ele>377.5</ele>
<speed>4.7</speed>
<course>235.3</course>
<desc>Speed 4.7 km/h Distance 4.76 km</desc>
<time>2010-03-14T11:25:16.00</time>
<name>3586</name>
</trkpt>
<trkpt lat="48.933888" lon="8.687725">
<ele>377.5</ele>
<speed>5.5</speed>
<course>232.7</course>
<desc>Speed 5.5 km/h Distance 4.76 km</desc>
<time>2010-03-14T11:25:17.00</time>
<name>3587</name>
</trkpt>
<trkpt lat="48.933882" lon="8.687712">
<ele>377.0</ele>
<speed>4.5</speed>
<course>245.4</course>
<desc>Speed 4.5 km/h Distance 4.76 km</desc>
<time>2010-03-14T11:25:18.00</time>
<name>3588</name>
</trkpt>
<trkpt lat="48.933877" lon="8.687695">
<ele>377.5</ele>
<speed>4.5</speed>
<course>249.3</course>
<desc>Speed 4.5 km/h Distance 4.76 km</desc>
<time>2010-03-14T11:25:19.00</time>
<name>3589</name>
</trkpt>
<trkpt lat="48.933873" lon="8.687682">
<ele>377.5</ele>
<speed>3.6</speed>
<course>240.3</course>
<desc>Speed 3.6 km/h Distance 4.76 km</desc>
<time>2010-03-14T11:25:20.00</time>
<name>3590</name>
</trkpt>
<trkpt lat="48.933868" lon="8.687668">
<ele>377.0</ele>
<speed>3.6</speed>
<course>236.7</course>
<desc>Speed 3.6 km/h Distance 4.76 km</desc>
<time>2010-03-14T11:25:21.00</time>
<name>3591</name>
</trkpt>
<trkpt lat="48.933863" lon="8.687657">
<ele>377.0</ele>
<speed>3.9</speed>
<course>235.9</course>
<desc>Speed 3.9 km/h Distance 4.76 km</desc>
<time>2010-03-14T11:25:22.00</time>
<name>3592</name>
</trkpt>
<trkpt lat="48.933857" lon="8.687642">
<ele>377.0</ele>
<speed>4.2</speed>
<course>213.7</course>
<desc>Speed 4.2 km/h Distance 4.76 km</desc>
<time>2010-03-14T11:25:23.00</time>
<name>3593</name>
</trkpt>
<trkpt lat="48.933850" lon="8.687635">
<ele>377.0</ele>
<speed>3.1</speed>
<course>246.5</course>
<desc>Speed 3.1 km/h Distance 4.76 km</desc>
<time>2010-03-14T11:25:24.00</time>
<name>3594</name>
</trkpt>
<trkpt lat="48.933843" lon="8.687612">
<ele>378.5</ele>
<speed>1.3</speed>
<course>246.5</course>
<desc>Speed 1.3 km/h Distance 4.77 km</desc>
<time>2010-03-14T11:25:25.00</time>
<name>3595</name>
</trkpt>
<trkpt lat="48.933843" lon="8.687612">
<ele>378.5</ele>
<speed>0.2</speed>
<course>246.5</course>
<desc>Speed 0.2 km/h Distance 4.77 km</desc>
<time>2010-03-14T11:25:26.00</time>
<name>3596</name>
</trkpt>
<trkpt lat="48.933843" lon="8.687612">
<ele>378.5</ele>
<speed>0.5</speed>
<course>270.0</course>
<desc>Speed 0.5 km/h Distance 4.77 km</desc>
<time>2010-03-14T11:25:27.00</time>
<name>3597</name>
</trkpt>
<trkpt lat="48.933843" lon="8.687610">
<ele>378.5</ele>
<speed>0.1</speed>
<course>270.0</course>
<desc>Speed 0.1 km/h Distance 4.77 km</desc>
<time>2010-03-14T11:25:28.00</time>
<name>3598</name>
</trkpt>
<trkpt lat="48.933843" lon="8.687610">
<ele>378.5</ele>
<speed>0.1</speed>
<course>249.5</course>
<desc>Speed 0.1 km/h Distance 4.77 km</desc>
<time>2010-03-14T11:25:29.00</time>
<name>3599</name>
</trkpt>
<trkpt lat="48.933842" lon="8.687603">
<ele>379.0</ele>
<speed>0.1</speed>
<course>249.5</course>
<desc>Speed 0.1 km/h Distance 4.77 km</desc>
<time>2010-03-14T11:25:30.00</time>
<name>3600</name>
</trkpt>
<trkpt lat="48.933842" lon="8.687603">
<ele>379.0</ele>
<speed>0.1</speed>
<course>167.4</course>
<desc>Speed 0.1 km/h Distance 4.77 km</desc>
<time>2010-03-14T11:25:31.00</time>
<name>3601</name>
</trkpt>
<trkpt lat="48.933840" lon="8.687603">
<ele>379.0</ele>
<speed>0.1</speed>
<course>270.0</course>
<desc>Speed 0.1 km/h Distance 4.77 km</desc>
<time>2010-03-14T11:25:32.00</time>
<name>3602</name>
</trkpt>
<trkpt lat="48.933840" lon="8.687602">
<ele>379.0</ele>
<speed>0.3</speed>
<course>243.4</course>
<desc>Speed 0.3 km/h Distance 4.77 km</desc>
<time>2010-03-14T11:25:33.00</time>
<name>3603</name>
</trkpt>
<trkpt lat="48.933837" lon="8.687592">
<ele>379.5</ele>
<speed>0.9</speed>
<course>243.0</course>
<desc>Speed 0.9 km/h Distance 4.77 km</desc>
<time>2010-03-14T11:25:34.00</time>
<name>3604</name>
</trkpt>
<trkpt lat="48.933833" lon="8.687582">
<ele>380.0</ele>
<speed>3.2</speed>
<course>232.6</course>
<desc>Speed 3.2 km/h Distance 4.77 km</desc>
<time>2010-03-14T11:25:35.00</time>
<name>3605</name>
</trkpt>
<trkpt lat="48.933828" lon="8.687572">
<ele>380.0</ele>
<speed>3.3</speed>
<course>243.1</course>
<desc>Speed 3.3 km/h Distance 4.77 km</desc>
<time>2010-03-14T11:25:36.00</time>
<name>3606</name>
</trkpt>
<trkpt lat="48.933823" lon="8.687557">
<ele>380.0</ele>
<speed>4.4</speed>
<course>238.7</course>
<desc>Speed 4.4 km/h Distance 4.77 km</desc>
<time>2010-03-14T11:25:37.00</time>
<name>3607</name>
</trkpt>
<trkpt lat="48.933817" lon="8.687540">
<ele>380.0</ele>
<speed>4.6</speed>
<course>251.3</course>
<desc>Speed 4.6 km/h Distance 4.77 km</desc>
<time>2010-03-14T11:25:38.00</time>
<name>3608</name>
</trkpt>
<trkpt lat="48.933813" lon="8.687525">
<ele>380.0</ele>
<speed>4.6</speed>
<course>253.1</course>
<desc>Speed 4.6 km/h Distance 4.77 km</desc>
<time>2010-03-14T11:25:39.00</time>
<name>3609</name>
</trkpt>
<trkpt lat="48.933810" lon="8.687508">
<ele>380.0</ele>
<speed>4.6</speed>
<course>253.1</course>
<desc>Speed 4.6 km/h Distance 4.78 km</desc>
<time>2010-03-14T11:25:40.00</time>
<name>3610</name>
</trkpt>
<trkpt lat="48.933807" lon="8.687492">
<ele>380.0</ele>
<speed>4.2</speed>
<course>243.1</course>
<desc>Speed 4.2 km/h Distance 4.78 km</desc>
<time>2010-03-14T11:25:41.00</time>
<name>3611</name>
</trkpt>
<trkpt lat="48.933802" lon="8.687477">
<ele>380.0</ele>
<speed>4.5</speed>
<course>243.1</course>
<desc>Speed 4.5 km/h Distance 4.78 km</desc>
<time>2010-03-14T11:25:42.00</time>
<name>3612</name>
</trkpt>
<trkpt lat="48.933797" lon="8.687462">
<ele>380.0</ele>
<speed>4.2</speed>
<course>243.1</course>
<desc>Speed 4.2 km/h Distance 4.78 km</desc>
<time>2010-03-14T11:25:43.00</time>
<name>3613</name>
</trkpt>
<trkpt lat="48.933792" lon="8.687447">
<ele>380.0</ele>
<speed>3.9</speed>
<course>253.1</course>
<desc>Speed 3.9 km/h Distance 4.78 km</desc>
<time>2010-03-14T11:25:44.00</time>
<name>3614</name>
</trkpt>
<trkpt lat="48.933788" lon="8.687430">
<ele>380.0</ele>
<speed>4.5</speed>
<course>254.5</course>
<desc>Speed 4.5 km/h Distance 4.78 km</desc>
<time>2010-03-14T11:25:45.00</time>
<name>3615</name>
</trkpt>
<trkpt lat="48.933785" lon="8.687412">
<ele>379.5</ele>
<speed>4.9</speed>
<course>243.1</course>
<desc>Speed 4.9 km/h Distance 4.78 km</desc>
<time>2010-03-14T11:25:46.00</time>
<name>3616</name>
</trkpt>
<trkpt lat="48.933780" lon="8.687397">
<ele>379.5</ele>
<speed>4.3</speed>
<course>243.1</course>
<desc>Speed 4.3 km/h Distance 4.78 km</desc>
<time>2010-03-14T11:25:47.00</time>
<name>3617</name>
</trkpt>
<trkpt lat="48.933775" lon="8.687382">
<ele>379.5</ele>
<speed>4.2</speed>
<course>245.4</course>
<desc>Speed 4.2 km/h Distance 4.79 km</desc>
<time>2010-03-14T11:25:48.00</time>
<name>3618</name>
</trkpt>
<trkpt lat="48.933770" lon="8.687365">
<ele>379.5</ele>
<speed>4.9</speed>
<course>245.5</course>
<desc>Speed 4.9 km/h Distance 4.79 km</desc>
<time>2010-03-14T11:25:49.00</time>
<name>3619</name>
</trkpt>
<trkpt lat="48.933765" lon="8.687348">
<ele>379.5</ele>
<speed>4.6</speed>
<course>237.1</course>
<desc>Speed 4.6 km/h Distance 4.79 km</desc>
<time>2010-03-14T11:25:50.00</time>
<name>3620</name>
</trkpt>
<trkpt lat="48.933760" lon="8.687337">
<ele>379.5</ele>
<speed>3.5</speed>
<course>218.1</course>
<desc>Speed 3.5 km/h Distance 4.79 km</desc>
<time>2010-03-14T11:25:51.00</time>
<name>3621</name>
</trkpt>
<trkpt lat="48.933752" lon="8.687327">
<ele>379.5</ele>
<speed>3.9</speed>
<course>251.3</course>
<desc>Speed 3.9 km/h Distance 4.79 km</desc>
<time>2010-03-14T11:25:52.00</time>
<name>3622</name>
</trkpt>
<trkpt lat="48.933748" lon="8.687312">
<ele>379.0</ele>
<speed>4.1</speed>
<course>233.0</course>
<desc>Speed 4.1 km/h Distance 4.79 km</desc>
<time>2010-03-14T11:25:53.00</time>
<name>3623</name>
</trkpt>
<trkpt lat="48.933742" lon="8.687298">
<ele>379.0</ele>
<speed>4.3</speed>
<course>226.6</course>
<desc>Speed 4.3 km/h Distance 4.79 km</desc>
<time>2010-03-14T11:25:54.00</time>
<name>3624</name>
</trkpt>
<trkpt lat="48.933733" lon="8.687285">
<ele>379.0</ele>
<speed>4.5</speed>
<course>229.1</course>
<desc>Speed 4.5 km/h Distance 4.79 km</desc>
<time>2010-03-14T11:25:55.00</time>
<name>3625</name>
</trkpt>
<trkpt lat="48.933727" lon="8.687273">
<ele>379.0</ele>
<speed>4.0</speed>
<course>240.3</course>
<desc>Speed 4.0 km/h Distance 4.80 km</desc>
<time>2010-03-14T11:25:56.03</time>
<name>3626</name>
</trkpt>
<trkpt lat="48.933722" lon="8.687260">
<ele>379.0</ele>
<speed>4.2</speed>
<course>245.5</course>
<desc>Speed 4.2 km/h Distance 4.80 km</desc>
<time>2010-03-14T11:25:57.03</time>
<name>3627</name>
</trkpt>
<trkpt lat="48.933717" lon="8.687243">
<ele>379.0</ele>
<speed>4.5</speed>
<course>243.1</course>
<desc>Speed 4.5 km/h Distance 4.80 km</desc>
<time>2010-03-14T11:25:58.03</time>
<name>3628</name>
</trkpt>
<trkpt lat="48.933712" lon="8.687228">
<ele>379.0</ele>
<speed>4.1</speed>
<course>243.1</course>
<desc>Speed 4.1 km/h Distance 4.80 km</desc>
<time>2010-03-14T11:25:59.03</time>
<name>3629</name>
</trkpt>
<trkpt lat="48.933707" lon="8.687213">
<ele>379.0</ele>
<speed>4.8</speed>
<course>245.4</course>
<desc>Speed 4.8 km/h Distance 4.80 km</desc>
<time>2010-03-14T11:26:00.03</time>
<name>3630</name>
</trkpt>
<trkpt lat="48.933702" lon="8.687197">
<ele>378.5</ele>
<speed>4.3</speed>
<course>240.3</course>
<desc>Speed 4.3 km/h Distance 4.80 km</desc>
<time>2010-03-14T11:26:01.03</time>
<name>3631</name>
</trkpt>
<trkpt lat="48.933697" lon="8.687183">
<ele>378.5</ele>
<speed>4.0</speed>
<course>251.3</course>
<desc>Speed 4.0 km/h Distance 4.80 km</desc>
<time>2010-03-14T11:26:02.03</time>
<name>3632</name>
</trkpt>
<trkpt lat="48.933693" lon="8.687168">
<ele>378.0</ele>
<speed>4.1</speed>
<course>235.9</course>
<desc>Speed 4.1 km/h Distance 4.80 km</desc>
<time>2010-03-14T11:26:03.03</time>
<name>3633</name>
</trkpt>
<trkpt lat="48.933687" lon="8.687153">
<ele>378.0</ele>
<speed>4.6</speed>
<course>235.9</course>
<desc>Speed 4.6 km/h Distance 4.80 km</desc>
<time>2010-03-14T11:26:04.03</time>
<name>3634</name>
</trkpt>
<trkpt lat="48.933680" lon="8.687138">
<ele>378.0</ele>
<speed>4.7</speed>
<course>238.7</course>
<desc>Speed 4.7 km/h Distance 4.81 km</desc>
<time>2010-03-14T11:26:05.03</time>
<name>3635</name>
</trkpt>
<trkpt lat="48.933673" lon="8.687122">
<ele>378.0</ele>
<speed>5.2</speed>
<course>243.1</course>
<desc>Speed 5.2 km/h Distance 4.81 km</desc>
<time>2010-03-14T11:26:06.03</time>
<name>3636</name>
</trkpt>
<trkpt lat="48.933668" lon="8.687107">
<ele>378.0</ele>
<speed>3.7</speed>
<course>249.1</course>
<desc>Speed 3.7 km/h Distance 4.81 km</desc>
<time>2010-03-14T11:26:07.03</time>
<name>3637</name>
</trkpt>
<trkpt lat="48.933665" lon="8.687093">
<ele>378.0</ele>
<speed>3.9</speed>
<course>249.1</course>
<desc>Speed 3.9 km/h Distance 4.81 km</desc>
<time>2010-03-14T11:26:08.03</time>
<name>3638</name>
</trkpt>
<trkpt lat="48.933662" lon="8.687080">
<ele>377.5</ele>
<speed>3.6</speed>
<course>235.9</course>
<desc>Speed 3.6 km/h Distance 4.81 km</desc>
<time>2010-03-14T11:26:09.03</time>
<name>3639</name>
</trkpt>
<trkpt lat="48.933655" lon="8.687065">
<ele>378.0</ele>
<speed>4.6</speed>
<course>251.3</course>
<desc>Speed 4.6 km/h Distance 4.81 km</desc>
<time>2010-03-14T11:26:10.03</time>
<name>3640</name>
</trkpt>
<trkpt lat="48.933652" lon="8.687050">
<ele>378.0</ele>
<speed>3.9</speed>
<course>232.7</course>
<desc>Speed 3.9 km/h Distance 4.81 km</desc>
<time>2010-03-14T11:26:11.03</time>
<name>3641</name>
</trkpt>
<trkpt lat="48.933645" lon="8.687037">
<ele>378.0</ele>
<speed>4.2</speed>
<course>253.1</course>
<desc>Speed 4.2 km/h Distance 4.81 km</desc>
<time>2010-03-14T11:26:12.03</time>
<name>3642</name>
</trkpt>
<trkpt lat="48.933642" lon="8.687020">
<ele>378.0</ele>
<speed>4.2</speed>
<course>243.1</course>
<desc>Speed 4.2 km/h Distance 4.82 km</desc>
<time>2010-03-14T11:26:13.03</time>
<name>3643</name>
</trkpt>
<trkpt lat="48.933637" lon="8.687005">
<ele>378.0</ele>
<speed>4.3</speed>
<course>243.1</course>
<desc>Speed 4.3 km/h Distance 4.82 km</desc>
<time>2010-03-14T11:26:14.03</time>
<name>3644</name>
</trkpt>
<trkpt lat="48.933632" lon="8.686990">
<ele>378.0</ele>
<speed>4.3</speed>
<course>245.5</course>
<desc>Speed 4.3 km/h Distance 4.82 km</desc>
<time>2010-03-14T11:26:15.03</time>
<name>3645</name>
</trkpt>
<trkpt lat="48.933627" lon="8.686973">
<ele>378.0</ele>
<speed>4.6</speed>
<course>245.4</course>
<desc>Speed 4.6 km/h Distance 4.82 km</desc>
<time>2010-03-14T11:26:16.03</time>
<name>3646</name>
</trkpt>
<trkpt lat="48.933622" lon="8.686957">
<ele>378.0</ele>
<speed>4.5</speed>
<course>240.3</course>
<desc>Speed 4.5 km/h Distance 4.82 km</desc>
<time>2010-03-14T11:26:17.03</time>
<name>3647</name>
</trkpt>
<trkpt lat="48.933617" lon="8.686943">
<ele>378.0</ele>
<speed>3.6</speed>
<course>240.3</course>
<desc>Speed 3.6 km/h Distance 4.82 km</desc>
<time>2010-03-14T11:26:18.03</time>
<name>3648</name>
</trkpt>
<trkpt lat="48.933612" lon="8.686930">
<ele>378.0</ele>
<speed>4.2</speed>
<course>238.7</course>
<desc>Speed 4.2 km/h Distance 4.82 km</desc>
<time>2010-03-14T11:26:19.03</time>
<name>3649</name>
</trkpt>
<trkpt lat="48.933605" lon="8.686913">
<ele>378.0</ele>
<speed>4.9</speed>
<course>238.7</course>
<desc>Speed 4.9 km/h Distance 4.82 km</desc>
<time>2010-03-14T11:26:20.03</time>
<name>3650</name>
</trkpt>
<trkpt lat="48.933598" lon="8.686897">
<ele>378.5</ele>
<speed>4.9</speed>
<course>245.4</course>
<desc>Speed 4.9 km/h Distance 4.83 km</desc>
<time>2010-03-14T11:26:21.03</time>
<name>3651</name>
</trkpt>
<trkpt lat="48.933593" lon="8.686880">
<ele>378.5</ele>
<speed>4.4</speed>
<course>243.1</course>
<desc>Speed 4.4 km/h Distance 4.83 km</desc>
<time>2010-03-14T11:26:22.03</time>
<name>3652</name>
</trkpt>
<trkpt lat="48.933588" lon="8.686865">
<ele>378.5</ele>
<speed>4.2</speed>
<course>238.7</course>
<desc>Speed 4.2 km/h Distance 4.83 km</desc>
<time>2010-03-14T11:26:23.03</time>
<name>3653</name>
</trkpt>
<trkpt lat="48.933582" lon="8.686848">
<ele>378.5</ele>
<speed>4.8</speed>
<course>243.1</course>
<desc>Speed 4.8 km/h Distance 4.83 km</desc>
<time>2010-03-14T11:26:24.03</time>
<name>3654</name>
</trkpt>
<trkpt lat="48.933577" lon="8.686833">
<ele>379.0</ele>
<speed>4.5</speed>
<course>245.4</course>
<desc>Speed 4.5 km/h Distance 4.83 km</desc>
<time>2010-03-14T11:26:25.03</time>
<name>3655</name>
</trkpt>
<trkpt lat="48.933572" lon="8.686817">
<ele>379.0</ele>
<speed>4.7</speed>
<course>235.9</course>
<desc>Speed 4.7 km/h Distance 4.83 km</desc>
<time>2010-03-14T11:26:26.03</time>
<name>3656</name>
</trkpt>
<trkpt lat="48.933565" lon="8.686802">
<ele>379.0</ele>
<speed>4.6</speed>
<course>247.4</course>
<desc>Speed 4.6 km/h Distance 4.83 km</desc>
<time>2010-03-14T11:26:27.03</time>
<name>3657</name>
</trkpt>
<trkpt lat="48.933560" lon="8.686783">
<ele>379.5</ele>
<speed>4.6</speed>
<course>238.6</course>
<desc>Speed 4.6 km/h Distance 4.84 km</desc>
<time>2010-03-14T11:26:28.03</time>
<name>3658</name>
</trkpt>
<trkpt lat="48.933553" lon="8.686767">
<ele>379.5</ele>
<speed>5.1</speed>
<course>232.7</course>
<desc>Speed 5.1 km/h Distance 4.84 km</desc>
<time>2010-03-14T11:26:29.03</time>
<name>3659</name>
</trkpt>
<trkpt lat="48.933545" lon="8.686750">
<ele>379.5</ele>
<speed>4.9</speed>
<course>251.3</course>
<desc>Speed 4.9 km/h Distance 4.84 km</desc>
<time>2010-03-14T11:26:30.03</time>
<name>3660</name>
</trkpt>
<trkpt lat="48.933542" lon="8.686735">
<ele>379.5</ele>
<speed>4.2</speed>
<course>245.5</course>
<desc>Speed 4.2 km/h Distance 4.84 km</desc>
<time>2010-03-14T11:26:31.03</time>
<name>3661</name>
</trkpt>
<trkpt lat="48.933537" lon="8.686718">
<ele>380.0</ele>
<speed>4.3</speed>
<course>236.0</course>
<desc>Speed 4.3 km/h Distance 4.84 km</desc>
<time>2010-03-14T11:26:32.03</time>
<name>3662</name>
</trkpt>
<trkpt lat="48.933530" lon="8.686703">
<ele>380.0</ele>
<speed>4.2</speed>
<course>236.1</course>
<desc>Speed 4.2 km/h Distance 4.84 km</desc>
<time>2010-03-14T11:26:33.03</time>
<name>3663</name>
</trkpt>
<trkpt lat="48.933523" lon="8.686688">
<ele>380.0</ele>
<speed>4.7</speed>
<course>232.8</course>
<desc>Speed 4.7 km/h Distance 4.84 km</desc>
<time>2010-03-14T11:26:34.03</time>
<name>3664</name>
</trkpt>
<trkpt lat="48.933517" lon="8.686675">
<ele>380.5</ele>
<speed>4.2</speed>
<course>243.1</course>
<desc>Speed 4.2 km/h Distance 4.84 km</desc>
<time>2010-03-14T11:26:35.03</time>
<name>3665</name>
</trkpt>
<trkpt lat="48.933512" lon="8.686660">
<ele>380.5</ele>
<speed>4.1</speed>
<course>247.4</course>
<desc>Speed 4.1 km/h Distance 4.85 km</desc>
<time>2010-03-14T11:26:36.03</time>
<name>3666</name>
</trkpt>
<trkpt lat="48.933507" lon="8.686642">
<ele>380.5</ele>
<speed>4.9</speed>
<course>245.5</course>
<desc>Speed 4.9 km/h Distance 4.85 km</desc>
<time>2010-03-14T11:26:37.03</time>
<name>3667</name>
</trkpt>
<trkpt lat="48.933502" lon="8.686625">
<ele>380.5</ele>
<speed>4.5</speed>
<course>246.5</course>
<desc>Speed 4.5 km/h Distance 4.85 km</desc>
<time>2010-03-14T11:26:38.03</time>
<name>3668</name>
</trkpt>
<trkpt lat="48.933498" lon="8.686613">
<ele>380.5</ele>
<speed>3.3</speed>
<course>232.7</course>
<desc>Speed 3.3 km/h Distance 4.85 km</desc>
<time>2010-03-14T11:26:39.03</time>
<name>3669</name>
</trkpt>
<trkpt lat="48.933492" lon="8.686600">
<ele>380.0</ele>
<speed>4.2</speed>
<course>224.5</course>
<desc>Speed 4.2 km/h Distance 4.85 km</desc>
<time>2010-03-14T11:26:40.03</time>
<name>3670</name>
</trkpt>
<trkpt lat="48.933485" lon="8.686590">
<ele>380.0</ele>
<speed>3.5</speed>
<course>236.9</course>
<desc>Speed 3.5 km/h Distance 4.85 km</desc>
<time>2010-03-14T11:26:41.03</time>
<name>3671</name>
</trkpt>
<trkpt lat="48.933480" lon="8.686578">
<ele>379.5</ele>
<speed>3.3</speed>
<course>232.6</course>
<desc>Speed 3.3 km/h Distance 4.85 km</desc>
<time>2010-03-14T11:26:42.03</time>
<name>3672</name>
</trkpt>
<trkpt lat="48.933475" lon="8.686568">
<ele>379.0</ele>
<speed>2.9</speed>
<course>249.1</course>
<desc>Speed 2.9 km/h Distance 4.85 km</desc>
<time>2010-03-14T11:26:43.03</time>
<name>3673</name>
</trkpt>
<trkpt lat="48.933472" lon="8.686555">
<ele>379.0</ele>
<speed>3.5</speed>
<course>245.4</course>
<desc>Speed 3.5 km/h Distance 4.86 km</desc>
<time>2010-03-14T11:26:44.03</time>
<name>3674</name>
</trkpt>
<trkpt lat="48.933467" lon="8.686538">
<ele>379.0</ele>
<speed>4.6</speed>
<course>238.6</course>
<desc>Speed 4.6 km/h Distance 4.86 km</desc>
<time>2010-03-14T11:26:45.03</time>
<name>3675</name>
</trkpt>
<trkpt lat="48.933460" lon="8.686522">
<ele>379.0</ele>
<speed>4.8</speed>
<course>224.5</course>
<desc>Speed 4.8 km/h Distance 4.86 km</desc>
<time>2010-03-14T11:26:46.03</time>
<name>3676</name>
</trkpt>
<trkpt lat="48.933453" lon="8.686512">
<ele>379.0</ele>
<speed>3.6</speed>
<course>226.5</course>
<desc>Speed 3.6 km/h Distance 4.86 km</desc>
<time>2010-03-14T11:26:47.03</time>
<name>3677</name>
</trkpt>
<trkpt lat="48.933445" lon="8.686498">
<ele>379.0</ele>
<speed>4.7</speed>
<course>238.7</course>
<desc>Speed 4.7 km/h Distance 4.86 km</desc>
<time>2010-03-14T11:26:48.03</time>
<name>3678</name>
</trkpt>
<trkpt lat="48.933438" lon="8.686482">
<ele>379.0</ele>
<speed>4.9</speed>
<course>245.5</course>
<desc>Speed 4.9 km/h Distance 4.86 km</desc>
<time>2010-03-14T11:26:49.03</time>
<name>3679</name>
</trkpt>
<trkpt lat="48.933433" lon="8.686465">
<ele>379.0</ele>
<speed>4.5</speed>
<course>245.5</course>
<desc>Speed 4.5 km/h Distance 4.86 km</desc>
<time>2010-03-14T11:26:50.03</time>
<name>3680</name>
</trkpt>
<trkpt lat="48.933428" lon="8.686448">
<ele>379.0</ele>
<speed>4.8</speed>
<course>253.1</course>
<desc>Speed 4.8 km/h Distance 4.86 km</desc>
<time>2010-03-14T11:26:51.03</time>
<name>3681</name>
</trkpt>
<trkpt lat="48.933425" lon="8.686432">
<ele>379.0</ele>
<speed>4.3</speed>
<course>243.1</course>
<desc>Speed 4.3 km/h Distance 4.87 km</desc>
<time>2010-03-14T11:26:52.03</time>
<name>3682</name>
</trkpt>
<trkpt lat="48.933420" lon="8.686417">
<ele>379.0</ele>
<speed>4.5</speed>
<course>245.5</course>
<desc>Speed 4.5 km/h Distance 4.87 km</desc>
<time>2010-03-14T11:26:53.03</time>
<name>3683</name>
</trkpt>
<trkpt lat="48.933415" lon="8.686400">
<ele>379.0</ele>
<speed>4.7</speed>
<course>245.4</course>
<desc>Speed 4.7 km/h Distance 4.87 km</desc>
<time>2010-03-14T11:26:54.03</time>
<name>3684</name>
</trkpt>
<trkpt lat="48.933410" lon="8.686383">
<ele>379.0</ele>
<speed>4.2</speed>
<course>228.7</course>
<desc>Speed 4.2 km/h Distance 4.87 km</desc>
<time>2010-03-14T11:26:55.03</time>
<name>3685</name>
</trkpt>
<trkpt lat="48.933403" lon="8.686372">
<ele>379.0</ele>
<speed>4.3</speed>
<course>221.2</course>
<desc>Speed 4.3 km/h Distance 4.87 km</desc>
<time>2010-03-14T11:26:56.03</time>
<name>3686</name>
</trkpt>
<trkpt lat="48.933393" lon="8.686358">
<ele>379.0</ele>
<speed>4.7</speed>
<course>235.9</course>
<desc>Speed 4.7 km/h Distance 4.87 km</desc>
<time>2010-03-14T11:26:57.03</time>
<name>3687</name>
</trkpt>
<trkpt lat="48.933387" lon="8.686343">
<ele>379.0</ele>
<speed>4.9</speed>
<course>235.9</course>
<desc>Speed 4.9 km/h Distance 4.87 km</desc>
<time>2010-03-14T11:26:58.03</time>
<name>3688</name>
</trkpt>
<trkpt lat="48.933380" lon="8.686328">
<ele>379.0</ele>
<speed>4.6</speed>
<course>247.4</course>
<desc>Speed 4.6 km/h Distance 4.87 km</desc>
<time>2010-03-14T11:26:59.03</time>
<name>3689</name>
</trkpt>
<trkpt lat="48.933375" lon="8.686310">
<ele>379.0</ele>
<speed>4.7</speed>
<course>251.3</course>
<desc>Speed 4.7 km/h Distance 4.88 km</desc>
<time>2010-03-14T11:27:00.03</time>
<name>3690</name>
</trkpt>
<trkpt lat="48.933372" lon="8.686295">
<ele>379.0</ele>
<speed>4.4</speed>
<course>253.1</course>
<desc>Speed 4.4 km/h Distance 4.88 km</desc>
<time>2010-03-14T11:27:01.03</time>
<name>3691</name>
</trkpt>
<trkpt lat="48.933368" lon="8.686278">
<ele>378.5</ele>
<speed>4.1</speed>
<course>251.4</course>
<desc>Speed 4.1 km/h Distance 4.88 km</desc>
<time>2010-03-14T11:27:02.03</time>
<name>3692</name>
</trkpt>
<trkpt lat="48.933365" lon="8.686263">
<ele>378.5</ele>
<speed>3.9</speed>
<course>243.2</course>
<desc>Speed 3.9 km/h Distance 4.88 km</desc>
<time>2010-03-14T11:27:03.03</time>
<name>3693</name>
</trkpt>
<trkpt lat="48.933362" lon="8.686253">
<ele>378.5</ele>
<speed>2.9</speed>
<course>237.1</course>
<desc>Speed 2.9 km/h Distance 4.88 km</desc>
<time>2010-03-14T11:27:04.03</time>
<name>3694</name>
</trkpt>
<trkpt lat="48.933357" lon="8.686242">
<ele>378.5</ele>
<speed>3.9</speed>
<course>235.9</course>
<desc>Speed 3.9 km/h Distance 4.88 km</desc>
<time>2010-03-14T11:27:05.03</time>
<name>3695</name>
</trkpt>
<trkpt lat="48.933350" lon="8.686227">
<ele>378.5</ele>
<speed>4.6</speed>
<course>253.0</course>
<desc>Speed 4.6 km/h Distance 4.88 km</desc>
<time>2010-03-14T11:27:06.03</time>
<name>3696</name>
</trkpt>
<trkpt lat="48.933347" lon="8.686210">
<ele>378.5</ele>
<speed>4.2</speed>
<course>251.3</course>
<desc>Speed 4.2 km/h Distance 4.88 km</desc>
<time>2010-03-14T11:27:07.03</time>
<name>3697</name>
</trkpt>
<trkpt lat="48.933343" lon="8.686195">
<ele>378.5</ele>
<speed>4.1</speed>
<course>247.4</course>
<desc>Speed 4.1 km/h Distance 4.89 km</desc>
<time>2010-03-14T11:27:08.03</time>
<name>3698</name>
</trkpt>
<trkpt lat="48.933338" lon="8.686177">
<ele>378.5</ele>
<speed>4.7</speed>
<course>262.1</course>
<desc>Speed 4.7 km/h Distance 4.89 km</desc>
<time>2010-03-14T11:27:09.03</time>
<name>3699</name>
</trkpt>
<trkpt lat="48.933337" lon="8.686158">
<ele>378.5</ele>
<speed>4.7</speed>
<course>245.5</course>
<desc>Speed 4.7 km/h Distance 4.89 km</desc>
<time>2010-03-14T11:27:10.03</time>
<name>3700</name>
</trkpt>
<trkpt lat="48.933332" lon="8.686142">
<ele>378.0</ele>
<speed>4.4</speed>
<course>251.3</course>
<desc>Speed 4.4 km/h Distance 4.89 km</desc>
<time>2010-03-14T11:27:11.03</time>
<name>3701</name>
</trkpt>
<trkpt lat="48.933328" lon="8.686127">
<ele>377.5</ele>
<speed>4.2</speed>
<course>224.5</course>
<desc>Speed 4.2 km/h Distance 4.89 km</desc>
<time>2010-03-14T11:27:12.03</time>
<name>3702</name>
</trkpt>
<trkpt lat="48.933322" lon="8.686117">
<ele>377.5</ele>
<speed>3.4</speed>
<course>220.9</course>
<desc>Speed 3.4 km/h Distance 4.89 km</desc>
<time>2010-03-14T11:27:13.03</time>
<name>3703</name>
</trkpt>
<trkpt lat="48.933317" lon="8.686110">
<ele>377.0</ele>
<speed>2.4</speed>
<course>217.2</course>
<desc>Speed 2.4 km/h Distance 4.89 km</desc>
<time>2010-03-14T11:27:14.03</time>
<name>3704</name>
</trkpt>
<trkpt lat="48.933315" lon="8.686108">
<ele>377.5</ele>
<speed>0.9</speed>
<course>213.2</course>
<desc>Speed 0.9 km/h Distance 4.89 km</desc>
<time>2010-03-14T11:27:15.03</time>
<name>3705</name>
</trkpt>
<trkpt lat="48.933310" lon="8.686103">
<ele>377.0</ele>
<speed>1.8</speed>
<course>249.8</course>
<desc>Speed 1.8 km/h Distance 4.89 km</desc>
<time>2010-03-14T11:27:16.03</time>
<name>3706</name>
</trkpt>
<trkpt lat="48.933308" lon="8.686097">
<ele>377.0</ele>
<speed>1.7</speed>
<course>270.0</course>
<desc>Speed 1.7 km/h Distance 4.89 km</desc>
<time>2010-03-14T11:27:17.03</time>
<name>3707</name>
</trkpt>
<trkpt lat="48.933308" lon="8.686095">
<ele>377.0</ele>
<speed>0.6</speed>
<course>246.5</course>
<desc>Speed 0.6 km/h Distance 4.89 km</desc>
<time>2010-03-14T11:27:18.03</time>
<name>3708</name>
</trkpt>
<trkpt lat="48.933305" lon="8.686083">
<ele>377.0</ele>
<speed>3.2</speed>
<course>232.7</course>
<desc>Speed 3.2 km/h Distance 4.90 km</desc>
<time>2010-03-14T11:27:19.03</time>
<name>3709</name>
</trkpt>
<trkpt lat="48.933297" lon="8.686067">
<ele>377.5</ele>
<speed>5.2</speed>
<course>232.8</course>
<desc>Speed 5.2 km/h Distance 4.90 km</desc>
<time>2010-03-14T11:27:20.03</time>
<name>3710</name>
</trkpt>
<trkpt lat="48.933292" lon="8.686057">
<ele>377.0</ele>
<speed>3.0</speed>
<course>232.7</course>
<desc>Speed 3.0 km/h Distance 4.90 km</desc>
<time>2010-03-14T11:27:21.03</time>
<name>3711</name>
</trkpt>
<trkpt lat="48.933285" lon="8.686043">
<ele>377.0</ele>
<speed>3.9</speed>
<course>253.0</course>
<desc>Speed 3.9 km/h Distance 4.90 km</desc>
<time>2010-03-14T11:27:22.03</time>
<name>3712</name>
</trkpt>
<trkpt lat="48.933282" lon="8.686027">
<ele>377.0</ele>
<speed>4.1</speed>
<course>259.3</course>
<desc>Speed 4.1 km/h Distance 4.90 km</desc>
<time>2010-03-14T11:27:23.03</time>
<name>3713</name>
</trkpt>
<trkpt lat="48.933280" lon="8.686013">
<ele>377.0</ele>
<speed>3.3</speed>
<course>257.8</course>
<desc>Speed 3.3 km/h Distance 4.90 km</desc>
<time>2010-03-14T11:27:24.03</time>
<name>3714</name>
</trkpt>
<trkpt lat="48.933278" lon="8.686002">
<ele>376.5</ele>
<speed>2.8</speed>
<course>249.2</course>
<desc>Speed 2.8 km/h Distance 4.90 km</desc>
<time>2010-03-14T11:27:25.03</time>
<name>3715</name>
</trkpt>
<trkpt lat="48.933275" lon="8.685988">
<ele>376.5</ele>
<speed>3.2</speed>
<course>270.0</course>
<desc>Speed 3.2 km/h Distance 4.90 km</desc>
<time>2010-03-14T11:27:26.03</time>
<name>3716</name>
</trkpt>
<trkpt lat="48.933275" lon="8.685982">
<ele>376.5</ele>
<speed>1.7</speed>
<course>270.0</course>
<desc>Speed 1.7 km/h Distance 4.90 km</desc>
<time>2010-03-14T11:27:27.03</time>
<name>3717</name>
</trkpt>
<trkpt lat="48.933275" lon="8.685980">
<ele>376.5</ele>
<speed>0.4</speed>
<course>270.0</course>
<desc>Speed 0.4 km/h Distance 4.90 km</desc>
<time>2010-03-14T11:27:28.03</time>
<name>3718</name>
</trkpt>
<trkpt lat="48.933275" lon="8.685978">
<ele>377.0</ele>
<speed>0.5</speed>
<course>243.4</course>
<desc>Speed 0.5 km/h Distance 4.90 km</desc>
<time>2010-03-14T11:27:29.03</time>
<name>3719</name>
</trkpt>
<trkpt lat="48.933273" lon="8.685973">
<ele>377.0</ele>
<speed>1.2</speed>
<course>243.4</course>
<desc>Speed 1.2 km/h Distance 4.90 km</desc>
<time>2010-03-14T11:27:30.03</time>
<name>3720</name>
</trkpt>
<trkpt lat="48.933273" lon="8.685973">
<ele>377.0</ele>
<speed>0.2</speed>
<course>270.0</course>
<desc>Speed 0.2 km/h Distance 4.90 km</desc>
<time>2010-03-14T11:27:31.03</time>
<name>3721</name>
</trkpt>
<trkpt lat="48.933273" lon="8.685972">
<ele>377.0</ele>
<speed>0.1</speed>
<course>270.0</course>
<desc>Speed 0.1 km/h Distance 4.90 km</desc>
<time>2010-03-14T11:27:32.03</time>
<name>3722</name>
</trkpt>
<trkpt lat="48.933273" lon="8.685972">
<ele>377.0</ele>
<speed>0.1</speed>
<course>270.0</course>
<desc>Speed 0.1 km/h Distance 4.90 km</desc>
<time>2010-03-14T11:27:33.03</time>
<name>3723</name>
</trkpt>
<trkpt lat="48.933273" lon="8.685970">
<ele>377.0</ele>
<speed>0.2</speed>
<course>270.0</course>
<desc>Speed 0.2 km/h Distance 4.90 km</desc>
<time>2010-03-14T11:27:34.03</time>
<name>3724</name>
</trkpt>
<trkpt lat="48.933273" lon="8.685970">
<ele>377.0</ele>
<speed>0.1</speed>
<course>270.0</course>
<desc>Speed 0.1 km/h Distance 4.90 km</desc>
<time>2010-03-14T11:27:35.03</time>
<name>3725</name>
</trkpt>
<trkpt lat="48.933273" lon="8.685970">
<ele>377.0</ele>
<speed>0.4</speed>
<course>270.0</course>
<desc>Speed 0.4 km/h Distance 4.90 km</desc>
<time>2010-03-14T11:27:36.03</time>
<name>3726</name>
</trkpt>
<trkpt lat="48.933273" lon="8.685970">
<ele>377.0</ele>
<speed>0.7</speed>
<course>90.0</course>
<desc>Speed 0.7 km/h Distance 4.90 km</desc>
<time>2010-03-14T11:27:37.03</time>
<name>3727</name>
</trkpt>
<trkpt lat="48.933273" lon="8.685973">
<ele>377.0</ele>
<speed>1.1</speed>
<course>290.5</course>
<desc>Speed 1.1 km/h Distance 4.90 km</desc>
<time>2010-03-14T11:27:38.03</time>
<name>3728</name>
</trkpt>
<trkpt lat="48.933275" lon="8.685967">
<ele>377.0</ele>
<speed>1.6</speed>
<course>243.2</course>
<desc>Speed 1.6 km/h Distance 4.91 km</desc>
<time>2010-03-14T11:27:39.03</time>
<name>3729</name>
</trkpt>
<trkpt lat="48.933272" lon="8.685957">
<ele>377.5</ele>
<speed>2.6</speed>
<course>243.4</course>
<desc>Speed 2.6 km/h Distance 4.91 km</desc>
<time>2010-03-14T11:27:40.03</time>
<name>3730</name>
</trkpt>
<trkpt lat="48.933268" lon="8.685947">
<ele>377.5</ele>
<speed>3.0</speed>
<course>236.9</course>
<desc>Speed 3.0 km/h Distance 4.91 km</desc>
<time>2010-03-14T11:27:41.03</time>
<name>3731</name>
</trkpt>
<trkpt lat="48.933263" lon="8.685935">
<ele>377.5</ele>
<speed>3.1</speed>
<course>246.5</course>
<desc>Speed 3.1 km/h Distance 4.91 km</desc>
<time>2010-03-14T11:27:42.03</time>
<name>3732</name>
</trkpt>
<trkpt lat="48.933260" lon="8.685923">
<ele>378.0</ele>
<speed>3.6</speed>
<course>249.1</course>
<desc>Speed 3.6 km/h Distance 4.91 km</desc>
<time>2010-03-14T11:27:43.03</time>
<name>3733</name>
</trkpt>
<trkpt lat="48.933257" lon="8.685910">
<ele>378.0</ele>
<speed>3.3</speed>
<course>251.3</course>
<desc>Speed 3.3 km/h Distance 4.91 km</desc>
<time>2010-03-14T11:27:44.03</time>
<name>3734</name>
</trkpt>
<trkpt lat="48.933253" lon="8.685895">
<ele>377.5</ele>
<speed>3.7</speed>
<course>236.7</course>
<desc>Speed 3.7 km/h Distance 4.91 km</desc>
<time>2010-03-14T11:27:45.03</time>
<name>3735</name>
</trkpt>
<trkpt lat="48.933248" lon="8.685883">
<ele>378.0</ele>
<speed>3.2</speed>
<course>249.1</course>
<desc>Speed 3.2 km/h Distance 4.91 km</desc>
<time>2010-03-14T11:27:46.03</time>
<name>3736</name>
</trkpt>
<trkpt lat="48.933247" lon="8.685877">
<ele>378.0</ele>
<speed>1.9</speed>
<course>227.8</course>
<desc>Speed 1.9 km/h Distance 4.91 km</desc>
<time>2010-03-14T11:27:47.03</time>
<name>3737</name>
</trkpt>
<trkpt lat="48.933242" lon="8.685868">
<ele>377.5</ele>
<speed>2.9</speed>
<course>221.4</course>
<desc>Speed 2.9 km/h Distance 4.91 km</desc>
<time>2010-03-14T11:27:48.03</time>
<name>3738</name>
</trkpt>
<trkpt lat="48.933237" lon="8.685862">
<ele>378.0</ele>
<speed>2.3</speed>
<course>246.5</course>
<desc>Speed 2.3 km/h Distance 4.91 km</desc>
<time>2010-03-14T11:27:49.03</time>
<name>3739</name>
</trkpt>
<trkpt lat="48.933233" lon="8.685850">
<ele>378.0</ele>
<speed>3.0</speed>
<course>245.5</course>
<desc>Speed 3.0 km/h Distance 4.91 km</desc>
<time>2010-03-14T11:27:50.03</time>
<name>3740</name>
</trkpt>
<trkpt lat="48.933228" lon="8.685833">
<ele>378.0</ele>
<speed>4.6</speed>
<course>243.1</course>
<desc>Speed 4.6 km/h Distance 4.92 km</desc>
<time>2010-03-14T11:27:51.03</time>
<name>3741</name>
</trkpt>
<trkpt lat="48.933223" lon="8.685818">
<ele>377.5</ele>
<speed>4.0</speed>
<course>261.3</course>
<desc>Speed 4.0 km/h Distance 4.92 km</desc>
<time>2010-03-14T11:27:52.03</time>
<name>3742</name>
</trkpt>
<trkpt lat="48.933222" lon="8.685802">
<ele>377.5</ele>
<speed>4.0</speed>
<course>255.8</course>
<desc>Speed 4.0 km/h Distance 4.92 km</desc>
<time>2010-03-14T11:27:53.03</time>
<name>3743</name>
</trkpt>
<trkpt lat="48.933218" lon="8.685782">
<ele>377.5</ele>
<speed>4.8</speed>
<course>249.2</course>
<desc>Speed 4.8 km/h Distance 4.92 km</desc>
<time>2010-03-14T11:27:54.03</time>
<name>3744</name>
</trkpt>
<trkpt lat="48.933213" lon="8.685762">
<ele>377.5</ele>
<speed>5.0</speed>
<course>270.0</course>
<desc>Speed 5.0 km/h Distance 4.92 km</desc>
<time>2010-03-14T11:27:55.03</time>
<name>3745</name>
</trkpt>
<trkpt lat="48.933213" lon="8.685742">
<ele>378.0</ele>
<speed>4.9</speed>
<course>254.5</course>
<desc>Speed 4.9 km/h Distance 4.92 km</desc>
<time>2010-03-14T11:27:56.03</time>
<name>3746</name>
</trkpt>
<trkpt lat="48.933210" lon="8.685723">
<ele>378.0</ele>
<speed>4.5</speed>
<course>247.4</course>
<desc>Speed 4.5 km/h Distance 4.92 km</desc>
<time>2010-03-14T11:27:57.03</time>
<name>3747</name>
</trkpt>
<trkpt lat="48.933205" lon="8.685705">
<ele>378.0</ele>
<speed>4.9</speed>
<course>241.0</course>
<desc>Speed 4.9 km/h Distance 4.93 km</desc>
<time>2010-03-14T11:27:58.03</time>
<name>3748</name>
</trkpt>
<trkpt lat="48.933198" lon="8.685687">
<ele>378.0</ele>
<speed>5.0</speed>
<course>247.4</course>
<desc>Speed 5.0 km/h Distance 4.93 km</desc>
<time>2010-03-14T11:27:59.03</time>
<name>3749</name>
</trkpt>
<trkpt lat="48.933193" lon="8.685668">
<ele>378.0</ele>
<speed>4.8</speed>
<course>235.9</course>
<desc>Speed 4.8 km/h Distance 4.93 km</desc>
<time>2010-03-14T11:28:00.03</time>
<name>3750</name>
</trkpt>
<trkpt lat="48.933187" lon="8.685653">
<ele>377.5</ele>
<speed>4.1</speed>
<course>245.4</course>
<desc>Speed 4.1 km/h Distance 4.93 km</desc>
<time>2010-03-14T11:28:01.03</time>
<name>3751</name>
</trkpt>
<trkpt lat="48.933182" lon="8.685637">
<ele>378.0</ele>
<speed>4.8</speed>
<course>237.6</course>
<desc>Speed 4.8 km/h Distance 4.93 km</desc>
<time>2010-03-14T11:28:02.03</time>
<name>3752</name>
</trkpt>
<trkpt lat="48.933173" lon="8.685617">
<ele>377.5</ele>
<speed>5.6</speed>
<course>241.0</course>
<desc>Speed 5.6 km/h Distance 4.93 km</desc>
<time>2010-03-14T11:28:03.03</time>
<name>3753</name>
</trkpt>
<trkpt lat="48.933167" lon="8.685598">
<ele>377.5</ele>
<speed>5.1</speed>
<course>235.3</course>
<desc>Speed 5.1 km/h Distance 4.93 km</desc>
<time>2010-03-14T11:28:04.03</time>
<name>3754</name>
</trkpt>
<trkpt lat="48.933158" lon="8.685580">
<ele>377.5</ele>
<speed>5.0</speed>
<course>247.4</course>
<desc>Speed 5.0 km/h Distance 4.94 km</desc>
<time>2010-03-14T11:28:05.03</time>
<name>3755</name>
</trkpt>
<trkpt lat="48.933153" lon="8.685562">
<ele>377.5</ele>
<speed>5.2</speed>
<course>241.0</course>
<desc>Speed 5.2 km/h Distance 4.94 km</desc>
<time>2010-03-14T11:28:06.03</time>
<name>3756</name>
</trkpt>
<trkpt lat="48.933147" lon="8.685543">
<ele>377.5</ele>
<speed>5.1</speed>
<course>232.7</course>
<desc>Speed 5.1 km/h Distance 4.94 km</desc>
<time>2010-03-14T11:28:07.03</time>
<name>3757</name>
</trkpt>
<trkpt lat="48.933138" lon="8.685527">
<ele>377.0</ele>
<speed>4.9</speed>
<course>241.0</course>
<desc>Speed 4.9 km/h Distance 4.94 km</desc>
<time>2010-03-14T11:28:08.03</time>
<name>3758</name>
</trkpt>
<trkpt lat="48.933132" lon="8.685508">
<ele>377.0</ele>
<speed>5.0</speed>
<course>241.0</course>
<desc>Speed 5.0 km/h Distance 4.94 km</desc>
<time>2010-03-14T11:28:09.03</time>
<name>3759</name>
</trkpt>
<trkpt lat="48.933125" lon="8.685490">
<ele>377.0</ele>
<speed>4.9</speed>
<course>245.4</course>
<desc>Speed 4.9 km/h Distance 4.94 km</desc>
<time>2010-03-14T11:28:10.03</time>
<name>3760</name>
</trkpt>
<trkpt lat="48.933120" lon="8.685473">
<ele>377.0</ele>
<speed>4.8</speed>
<course>247.4</course>
<desc>Speed 4.8 km/h Distance 4.95 km</desc>
<time>2010-03-14T11:28:11.03</time>
<name>3761</name>
</trkpt>
<trkpt lat="48.933115" lon="8.685455">
<ele>377.0</ele>
<speed>4.7</speed>
<course>243.1</course>
<desc>Speed 4.7 km/h Distance 4.95 km</desc>
<time>2010-03-14T11:28:12.03</time>
<name>3762</name>
</trkpt>
<trkpt lat="48.933110" lon="8.685440">
<ele>377.5</ele>
<speed>4.3</speed>
<course>235.3</course>
<desc>Speed 4.3 km/h Distance 4.95 km</desc>
<time>2010-03-14T11:28:13.03</time>
<name>3763</name>
</trkpt>
<trkpt lat="48.933102" lon="8.685422">
<ele>377.5</ele>
<speed>4.9</speed>
<course>247.4</course>
<desc>Speed 4.9 km/h Distance 4.95 km</desc>
<time>2010-03-14T11:28:14.03</time>
<name>3764</name>
</trkpt>
<trkpt lat="48.933097" lon="8.685403">
<ele>377.5</ele>
<speed>5.0</speed>
<course>243.1</course>
<desc>Speed 5.0 km/h Distance 4.95 km</desc>
<time>2010-03-14T11:28:15.03</time>
<name>3765</name>
</trkpt>
<trkpt lat="48.933090" lon="8.685383">
<ele>377.5</ele>
<speed>5.4</speed>
<course>241.0</course>
<desc>Speed 5.4 km/h Distance 4.95 km</desc>
<time>2010-03-14T11:28:16.03</time>
<name>3766</name>
</trkpt>
<trkpt lat="48.933083" lon="8.685365">
<ele>377.5</ele>
<speed>5.0</speed>
<course>247.5</course>
<desc>Speed 5.0 km/h Distance 4.95 km</desc>
<time>2010-03-14T11:28:17.03</time>
<name>3767</name>
</trkpt>
<trkpt lat="48.933078" lon="8.685347">
<ele>377.5</ele>
<speed>5.0</speed>
<course>241.0</course>
<desc>Speed 5.0 km/h Distance 4.96 km</desc>
<time>2010-03-14T11:28:18.03</time>
<name>3768</name>
</trkpt>
<trkpt lat="48.933072" lon="8.685328">
<ele>377.5</ele>
<speed>4.8</speed>
<course>236.0</course>
<desc>Speed 4.8 km/h Distance 4.96 km</desc>
<time>2010-03-14T11:28:19.03</time>
<name>3769</name>
</trkpt>
<trkpt lat="48.933065" lon="8.685313">
<ele>377.5</ele>
<speed>4.4</speed>
<course>246.5</course>
<desc>Speed 4.4 km/h Distance 4.96 km</desc>
<time>2010-03-14T11:28:20.03</time>
<name>3770</name>
</trkpt>
<trkpt lat="48.933062" lon="8.685302">
<ele>377.5</ele>
<speed>3.4</speed>
<course>270.0</course>
<desc>Speed 3.4 km/h Distance 4.96 km</desc>
<time>2010-03-14T11:28:21.03</time>
<name>3771</name>
</trkpt>
<trkpt lat="48.933062" lon="8.685295">
<ele>378.0</ele>
<speed>1.5</speed>
<course>270.0</course>
<desc>Speed 1.5 km/h Distance 4.96 km</desc>
<time>2010-03-14T11:28:22.03</time>
<name>3772</name>
</trkpt>
<trkpt lat="48.933062" lon="8.685293">
<ele>378.0</ele>
<speed>0.2</speed>
<course>270.0</course>
<desc>Speed 0.2 km/h Distance 4.96 km</desc>
<time>2010-03-14T11:28:23.56</time>
<name>3773</name>
</trkpt>
<trkpt lat="48.933062" lon="8.685293">
<ele>378.0</ele>
<speed>0.1</speed>
<course>270.0</course>
<desc>Speed 0.1 km/h Distance 4.96 km</desc>
<time>2010-03-14T11:28:24.55</time>
<name>3774</name>
</trkpt>
<trkpt lat="48.933062" lon="8.685293">
<ele>378.0</ele>
<speed>0.1</speed>
<course>270.0</course>
<desc>Speed 0.1 km/h Distance 4.96 km</desc>
<time>2010-03-14T11:28:25.55</time>
<name>3775</name>
</trkpt>
<trkpt lat="48.933062" lon="8.685293">
<ele>378.0</ele>
<speed>0.2</speed>
<course>270.0</course>
<desc>Speed 0.2 km/h Distance 4.96 km</desc>
<time>2010-03-14T11:28:26.55</time>
<name>3776</name>
</trkpt>
<trkpt lat="48.933062" lon="8.685293">
<ele>378.0</ele>
<speed>0.0</speed>
<course>270.0</course>
<desc>Speed 0.0 km/h Distance 4.96 km</desc>
<time>2010-03-14T11:28:27.55</time>
<name>3777</name>
</trkpt>
<trkpt lat="48.933062" lon="8.685293">
<ele>378.0</ele>
<speed>0.1</speed>
<course>180.0</course>
<desc>Speed 0.1 km/h Distance 4.96 km</desc>
<time>2010-03-14T11:28:28.55</time>
<name>3778</name>
</trkpt>
<trkpt lat="48.933060" lon="8.685293">
<ele>378.0</ele>
<speed>0.1</speed>
<course>238.6</course>
<desc>Speed 0.1 km/h Distance 4.96 km</desc>
<time>2010-03-14T11:28:29.55</time>
<name>3779</name>
</trkpt>
<trkpt lat="48.933057" lon="8.685285">
<ele>377.5</ele>
<speed>2.3</speed>
<course>236.7</course>
<desc>Speed 2.3 km/h Distance 4.96 km</desc>
<time>2010-03-14T11:28:30.55</time>
<name>3780</name>
</trkpt>
<trkpt lat="48.933052" lon="8.685273">
<ele>377.5</ele>
<speed>4.0</speed>
<course>238.6</course>
<desc>Speed 4.0 km/h Distance 4.96 km</desc>
<time>2010-03-14T11:28:31.56</time>
<name>3781</name>
</trkpt>
<trkpt lat="48.933045" lon="8.685257">
<ele>378.0</ele>
<speed>4.9</speed>
<course>247.4</course>
<desc>Speed 4.9 km/h Distance 4.96 km</desc>
<time>2010-03-14T11:28:32.55</time>
<name>3782</name>
</trkpt>
<trkpt lat="48.933040" lon="8.685238">
<ele>378.0</ele>
<speed>5.0</speed>
<course>245.4</course>
<desc>Speed 5.0 km/h Distance 4.97 km</desc>
<time>2010-03-14T11:28:33.55</time>
<name>3783</name>
</trkpt>
<trkpt lat="48.933035" lon="8.685222">
<ele>378.0</ele>
<speed>5.1</speed>
<course>247.5</course>
<desc>Speed 5.1 km/h Distance 4.97 km</desc>
<time>2010-03-14T11:28:34.55</time>
<name>3784</name>
</trkpt>
<trkpt lat="48.933030" lon="8.685203">
<ele>378.0</ele>
<speed>5.0</speed>
<course>249.2</course>
<desc>Speed 5.0 km/h Distance 4.97 km</desc>
<time>2010-03-14T11:28:35.55</time>
<name>3785</name>
</trkpt>
<trkpt lat="48.933025" lon="8.685183">
<ele>378.0</ele>
<speed>5.3</speed>
<course>253.1</course>
<desc>Speed 5.3 km/h Distance 4.97 km</desc>
<time>2010-03-14T11:28:36.55</time>
<name>3786</name>
</trkpt>
<trkpt lat="48.933022" lon="8.685167">
<ele>378.0</ele>
<speed>5.0</speed>
<course>241.0</course>
<desc>Speed 5.0 km/h Distance 4.97 km</desc>
<time>2010-03-14T11:28:37.54</time>
<name>3787</name>
</trkpt>
<trkpt lat="48.933015" lon="8.685148">
<ele>378.0</ele>
<speed>4.8</speed>
<course>235.9</course>
<desc>Speed 4.8 km/h Distance 4.97 km</desc>
<time>2010-03-14T11:28:38.55</time>
<name>3788</name>
</trkpt>
<trkpt lat="48.933008" lon="8.685133">
<ele>378.0</ele>
<speed>4.7</speed>
<course>241.0</course>
<desc>Speed 4.7 km/h Distance 4.97 km</desc>
<time>2010-03-14T11:28:39.54</time>
<name>3789</name>
</trkpt>
<trkpt lat="48.933002" lon="8.685115">
<ele>378.0</ele>
<speed>5.0</speed>
<course>229.8</course>
<desc>Speed 5.0 km/h Distance 4.98 km</desc>
<time>2010-03-14T11:28:40.54</time>
<name>3790</name>
</trkpt>
<trkpt lat="48.932993" lon="8.685100">
<ele>378.0</ele>
<speed>5.3</speed>
<course>227.6</course>
<desc>Speed 5.3 km/h Distance 4.98 km</desc>
<time>2010-03-14T11:28:41.54</time>
<name>3791</name>
</trkpt>
<trkpt lat="48.932983" lon="8.685083">
<ele>378.0</ele>
<speed>5.5</speed>
<course>235.3</course>
<desc>Speed 5.5 km/h Distance 4.98 km</desc>
<time>2010-03-14T11:28:42.54</time>
<name>3792</name>
</trkpt>
<trkpt lat="48.932975" lon="8.685065">
<ele>378.0</ele>
<speed>5.5</speed>
<course>241.0</course>
<desc>Speed 5.5 km/h Distance 4.98 km</desc>
<time>2010-03-14T11:28:43.54</time>
<name>3793</name>
</trkpt>
<trkpt lat="48.932968" lon="8.685047">
<ele>378.5</ele>
<speed>5.5</speed>
<course>241.1</course>
<desc>Speed 5.5 km/h Distance 4.98 km</desc>
<time>2010-03-14T11:28:44.54</time>
<name>3794</name>
</trkpt>
<trkpt lat="48.932962" lon="8.685028">
<ele>378.0</ele>
<speed>5.1</speed>
<course>247.4</course>
<desc>Speed 5.1 km/h Distance 4.98 km</desc>
<time>2010-03-14T11:28:45.53</time>
<name>3795</name>
</trkpt>
<trkpt lat="48.932957" lon="8.685010">
<ele>378.5</ele>
<speed>5.3</speed>
<course>238.7</course>
<desc>Speed 5.3 km/h Distance 4.98 km</desc>
<time>2010-03-14T11:28:46.54</time>
<name>3796</name>
</trkpt>
<trkpt lat="48.932950" lon="8.684993">
<ele>378.0</ele>
<speed>5.1</speed>
<course>241.0</course>
<desc>Speed 5.1 km/h Distance 4.99 km</desc>
<time>2010-03-14T11:28:47.54</time>
<name>3797</name>
</trkpt>
<trkpt lat="48.932943" lon="8.684975">
<ele>378.5</ele>
<speed>5.2</speed>
<course>245.5</course>
<desc>Speed 5.2 km/h Distance 4.99 km</desc>
<time>2010-03-14T11:28:48.53</time>
<name>3798</name>
</trkpt>
<trkpt lat="48.932938" lon="8.684958">
<ele>378.5</ele>
<speed>4.8</speed>
<course>241.0</course>
<desc>Speed 4.8 km/h Distance 4.99 km</desc>
<time>2010-03-14T11:28:49.53</time>
<name>3799</name>
</trkpt>
<trkpt lat="48.932932" lon="8.684940">
<ele>378.5</ele>
<speed>5.3</speed>
<course>235.3</course>
<desc>Speed 5.3 km/h Distance 4.99 km</desc>
<time>2010-03-14T11:28:50.53</time>
<name>3800</name>
</trkpt>
<trkpt lat="48.932923" lon="8.684922">
<ele>378.5</ele>
<speed>5.5</speed>
<course>243.1</course>
<desc>Speed 5.5 km/h Distance 4.99 km</desc>
<time>2010-03-14T11:28:51.53</time>
<name>3801</name>
</trkpt>
<trkpt lat="48.932917" lon="8.684902">
<ele>378.5</ele>
<speed>5.6</speed>
<course>247.4</course>
<desc>Speed 5.6 km/h Distance 4.99 km</desc>
<time>2010-03-14T11:28:52.53</time>
<name>3802</name>
</trkpt>
<trkpt lat="48.932912" lon="8.684883">
<ele>378.5</ele>
<speed>5.1</speed>
<course>243.1</course>
<desc>Speed 5.1 km/h Distance 4.99 km</desc>
<time>2010-03-14T11:28:53.53</time>
<name>3803</name>
</trkpt>
<trkpt lat="48.932905" lon="8.684863">
<ele>378.5</ele>
<speed>5.3</speed>
<course>238.7</course>
<desc>Speed 5.3 km/h Distance 5.00 km</desc>
<time>2010-03-14T11:28:54.53</time>
<name>3804</name>
</trkpt>
<trkpt lat="48.932898" lon="8.684847">
<ele>378.5</ele>
<speed>5.2</speed>
<course>238.7</course>
<desc>Speed 5.2 km/h Distance 5.00 km</desc>
<time>2010-03-14T11:28:55.53</time>
<name>3805</name>
</trkpt>
<trkpt lat="48.932892" lon="8.684830">
<ele>378.5</ele>
<speed>5.1</speed>
<course>238.7</course>
<desc>Speed 5.1 km/h Distance 5.00 km</desc>
<time>2010-03-14T11:28:56.53</time>
<name>3806</name>
</trkpt>
<trkpt lat="48.932885" lon="8.684813">
<ele>378.5</ele>
<speed>5.1</speed>
<course>232.7</course>
<desc>Speed 5.1 km/h Distance 5.00 km</desc>
<time>2010-03-14T11:28:57.53</time>
<name>3807</name>
</trkpt>
<trkpt lat="48.932877" lon="8.684797">
<ele>378.5</ele>
<speed>4.9</speed>
<course>241.0</course>
<desc>Speed 4.9 km/h Distance 5.00 km</desc>
<time>2010-03-14T11:28:58.53</time>
<name>3808</name>
</trkpt>
<trkpt lat="48.932870" lon="8.684778">
<ele>378.5</ele>
<speed>5.1</speed>
<course>238.7</course>
<desc>Speed 5.1 km/h Distance 5.00 km</desc>
<time>2010-03-14T11:28:59.53</time>
<name>3809</name>
</trkpt>
<trkpt lat="48.932863" lon="8.684762">
<ele>378.5</ele>
<speed>5.0</speed>
<course>235.4</course>
<desc>Speed 5.0 km/h Distance 5.01 km</desc>
<time>2010-03-14T11:29:00.53</time>
<name>3810</name>
</trkpt>
<trkpt lat="48.932855" lon="8.684743">
<ele>378.5</ele>
<speed>5.2</speed>
<course>249.1</course>
<desc>Speed 5.2 km/h Distance 5.01 km</desc>
<time>2010-03-14T11:29:01.54</time>
<name>3811</name>
</trkpt>
<trkpt lat="48.932850" lon="8.684723">
<ele>378.5</ele>
<speed>5.5</speed>
<course>240.9</course>
<desc>Speed 5.5 km/h Distance 5.01 km</desc>
<time>2010-03-14T11:29:02.53</time>
<name>3812</name>
</trkpt>
<trkpt lat="48.932843" lon="8.684705">
<ele>378.5</ele>
<speed>5.3</speed>
<course>243.1</course>
<desc>Speed 5.3 km/h Distance 5.01 km</desc>
<time>2010-03-14T11:29:03.52</time>
<name>3813</name>
</trkpt>
<trkpt lat="48.932837" lon="8.684685">
<ele>378.5</ele>
<speed>5.4</speed>
<course>241.0</course>
<desc>Speed 5.4 km/h Distance 5.01 km</desc>
<time>2010-03-14T11:29:04.52</time>
<name>3814</name>
</trkpt>
<trkpt lat="48.932830" lon="8.684667">
<ele>378.5</ele>
<speed>5.5</speed>
<course>232.7</course>
<desc>Speed 5.5 km/h Distance 5.01 km</desc>
<time>2010-03-14T11:29:05.52</time>
<name>3815</name>
</trkpt>
<trkpt lat="48.932822" lon="8.684650">
<ele>379.0</ele>
<speed>5.3</speed>
<course>235.3</course>
<desc>Speed 5.3 km/h Distance 5.01 km</desc>
<time>2010-03-14T11:29:06.53</time>
<name>3816</name>
</trkpt>
<trkpt lat="48.932813" lon="8.684632">
<ele>379.0</ele>
<speed>5.4</speed>
<course>224.5</course>
<desc>Speed 5.4 km/h Distance 5.02 km</desc>
<time>2010-03-14T11:29:07.52</time>
<name>3817</name>
</trkpt>
<trkpt lat="48.932803" lon="8.684617">
<ele>379.0</ele>
<speed>5.4</speed>
<course>221.3</course>
<desc>Speed 5.4 km/h Distance 5.02 km</desc>
<time>2010-03-14T11:29:08.52</time>
<name>3818</name>
</trkpt>
<trkpt lat="48.932793" lon="8.684603">
<ele>379.0</ele>
<speed>5.4</speed>
<course>224.7</course>
<desc>Speed 5.4 km/h Distance 5.02 km</desc>
<time>2010-03-14T11:29:09.52</time>
<name>3819</name>
</trkpt>
<trkpt lat="48.932783" lon="8.684588">
<ele>379.0</ele>
<speed>5.4</speed>
<course>232.7</course>
<desc>Speed 5.4 km/h Distance 5.02 km</desc>
<time>2010-03-14T11:29:10.52</time>
<name>3820</name>
</trkpt>
<trkpt lat="48.932775" lon="8.684572">
<ele>379.0</ele>
<speed>5.3</speed>
<course>235.3</course>
<desc>Speed 5.3 km/h Distance 5.02 km</desc>
<time>2010-03-14T11:29:11.52</time>
<name>3821</name>
</trkpt>
<trkpt lat="48.932767" lon="8.684553">
<ele>379.0</ele>
<speed>5.3</speed>
<course>241.0</course>
<desc>Speed 5.3 km/h Distance 5.02 km</desc>
<time>2010-03-14T11:29:12.52</time>
<name>3822</name>
</trkpt>
<trkpt lat="48.932760" lon="8.684535">
<ele>379.0</ele>
<speed>5.3</speed>
<course>243.1</course>
<desc>Speed 5.3 km/h Distance 5.03 km</desc>
<time>2010-03-14T11:29:13.52</time>
<name>3823</name>
</trkpt>
<trkpt lat="48.932753" lon="8.684515">
<ele>379.0</ele>
<speed>5.3</speed>
<course>253.1</course>
<desc>Speed 5.3 km/h Distance 5.03 km</desc>
<time>2010-03-14T11:29:14.52</time>
<name>3824</name>
</trkpt>
<trkpt lat="48.932750" lon="8.684498">
<ele>379.0</ele>
<speed>4.7</speed>
<course>249.2</course>
<desc>Speed 4.7 km/h Distance 5.03 km</desc>
<time>2010-03-14T11:29:15.52</time>
<name>3825</name>
</trkpt>
<trkpt lat="48.932745" lon="8.684478">
<ele>379.0</ele>
<speed>5.0</speed>
<course>247.5</course>
<desc>Speed 5.0 km/h Distance 5.03 km</desc>
<time>2010-03-14T11:29:16.52</time>
<name>3826</name>
</trkpt>
<trkpt lat="48.932740" lon="8.684460">
<ele>379.0</ele>
<speed>4.8</speed>
<course>247.4</course>
<desc>Speed 4.8 km/h Distance 5.03 km</desc>
<time>2010-03-14T11:29:17.52</time>
<name>3827</name>
</trkpt>
<trkpt lat="48.932735" lon="8.684442">
<ele>378.5</ele>
<speed>5.1</speed>
<course>247.4</course>
<desc>Speed 5.1 km/h Distance 5.03 km</desc>
<time>2010-03-14T11:29:18.52</time>
<name>3828</name>
</trkpt>
<trkpt lat="48.932730" lon="8.684423">
<ele>378.5</ele>
<speed>5.0</speed>
<course>238.6</course>
<desc>Speed 5.0 km/h Distance 5.03 km</desc>
<time>2010-03-14T11:29:19.52</time>
<name>3829</name>
</trkpt>
<trkpt lat="48.932723" lon="8.684407">
<ele>378.0</ele>
<speed>4.6</speed>
<course>247.5</course>
<desc>Speed 4.6 km/h Distance 5.04 km</desc>
<time>2010-03-14T11:29:20.52</time>
<name>3830</name>
</trkpt>
<trkpt lat="48.932718" lon="8.684388">
<ele>378.0</ele>
<speed>5.2</speed>
<course>249.2</course>
<desc>Speed 5.2 km/h Distance 5.04 km</desc>
<time>2010-03-14T11:29:21.51</time>
<name>3831</name>
</trkpt>
<trkpt lat="48.932713" lon="8.684368">
<ele>378.0</ele>
<speed>5.2</speed>
<course>251.3</course>
<desc>Speed 5.2 km/h Distance 5.04 km</desc>
<time>2010-03-14T11:29:22.52</time>
<name>3832</name>
</trkpt>
<trkpt lat="48.932710" lon="8.684353">
<ele>378.0</ele>
<speed>4.0</speed>
<course>238.7</course>
<desc>Speed 4.0 km/h Distance 5.04 km</desc>
<time>2010-03-14T11:29:23.51</time>
<name>3833</name>
</trkpt>
<trkpt lat="48.932703" lon="8.684337">
<ele>377.5</ele>
<speed>4.6</speed>
<course>247.5</course>
<desc>Speed 4.6 km/h Distance 5.04 km</desc>
<time>2010-03-14T11:29:24.51</time>
<name>3834</name>
</trkpt>
<trkpt lat="48.932698" lon="8.684318">
<ele>377.5</ele>
<speed>5.0</speed>
<course>249.2</course>
<desc>Speed 5.0 km/h Distance 5.04 km</desc>
<time>2010-03-14T11:29:25.52</time>
<name>3835</name>
</trkpt>
<trkpt lat="48.932693" lon="8.684298">
<ele>377.5</ele>
<speed>5.1</speed>
<course>260.4</course>
<desc>Speed 5.1 km/h Distance 5.04 km</desc>
<time>2010-03-14T11:29:26.51</time>
<name>3836</name>
</trkpt>
<trkpt lat="48.932692" lon="8.684283">
<ele>377.0</ele>
<speed>3.9</speed>
<course>270.0</course>
<desc>Speed 3.9 km/h Distance 5.05 km</desc>
<time>2010-03-14T11:29:27.51</time>
<name>3837</name>
</trkpt>
<trkpt lat="48.932692" lon="8.684268">
<ele>376.0</ele>
<speed>3.9</speed>
<course>254.5</course>
<desc>Speed 3.9 km/h Distance 5.05 km</desc>
<time>2010-03-14T11:29:28.51</time>
<name>3838</name>
</trkpt>
<trkpt lat="48.932688" lon="8.684250">
<ele>376.0</ele>
<speed>4.6</speed>
<course>255.8</course>
<desc>Speed 4.6 km/h Distance 5.05 km</desc>
<time>2010-03-14T11:29:29.51</time>
<name>3839</name>
</trkpt>
<trkpt lat="48.932685" lon="8.684230">
<ele>376.0</ele>
<speed>4.9</speed>
<course>245.5</course>
<desc>Speed 4.9 km/h Distance 5.05 km</desc>
<time>2010-03-14T11:29:30.52</time>
<name>3840</name>
</trkpt>
<trkpt lat="48.932680" lon="8.684213">
<ele>376.0</ele>
<speed>4.8</speed>
<course>237.6</course>
<desc>Speed 4.8 km/h Distance 5.05 km</desc>
<time>2010-03-14T11:29:31.52</time>
<name>3841</name>
</trkpt>
<trkpt lat="48.932672" lon="8.684193">
<ele>375.5</ele>
<speed>5.7</speed>
<course>247.4</course>
<desc>Speed 5.7 km/h Distance 5.05 km</desc>
<time>2010-03-14T11:29:32.51</time>
<name>3842</name>
</trkpt>
<trkpt lat="48.932667" lon="8.684175">
<ele>375.5</ele>
<speed>5.5</speed>
<course>241.0</course>
<desc>Speed 5.5 km/h Distance 5.05 km</desc>
<time>2010-03-14T11:29:33.51</time>
<name>3843</name>
</trkpt>
<trkpt lat="48.932660" lon="8.684157">
<ele>375.5</ele>
<speed>5.2</speed>
<course>235.3</course>
<desc>Speed 5.2 km/h Distance 5.06 km</desc>
<time>2010-03-14T11:29:34.51</time>
<name>3844</name>
</trkpt>
<trkpt lat="48.932652" lon="8.684138">
<ele>375.5</ele>
<speed>5.4</speed>
<course>241.0</course>
<desc>Speed 5.4 km/h Distance 5.06 km</desc>
<time>2010-03-14T11:29:35.51</time>
<name>3845</name>
</trkpt>
<trkpt lat="48.932645" lon="8.684120">
<ele>375.5</ele>
<speed>5.1</speed>
<course>238.6</course>
<desc>Speed 5.1 km/h Distance 5.06 km</desc>
<time>2010-03-14T11:29:36.51</time>
<name>3846</name>
</trkpt>
<trkpt lat="48.932638" lon="8.684103">
<ele>375.0</ele>
<speed>5.1</speed>
<course>249.1</course>
<desc>Speed 5.1 km/h Distance 5.06 km</desc>
<time>2010-03-14T11:29:37.51</time>
<name>3847</name>
</trkpt>
<trkpt lat="48.932633" lon="8.684083">
<ele>375.0</ele>
<speed>5.2</speed>
<course>241.0</course>
<desc>Speed 5.2 km/h Distance 5.06 km</desc>
<time>2010-03-14T11:29:38.51</time>
<name>3848</name>
</trkpt>
<trkpt lat="48.932627" lon="8.684065">
<ele>375.0</ele>
<speed>5.3</speed>
<course>249.1</course>
<desc>Speed 5.3 km/h Distance 5.06 km</desc>
<time>2010-03-14T11:29:39.51</time>
<name>3849</name>
</trkpt>
<trkpt lat="48.932622" lon="8.684045">
<ele>374.5</ele>
<speed>5.4</speed>
<course>241.0</course>
<desc>Speed 5.4 km/h Distance 5.06 km</desc>
<time>2010-03-14T11:29:40.51</time>
<name>3850</name>
</trkpt>
<trkpt lat="48.932615" lon="8.684027">
<ele>374.5</ele>
<speed>5.2</speed>
<course>249.2</course>
<desc>Speed 5.2 km/h Distance 5.07 km</desc>
<time>2010-03-14T11:29:41.51</time>
<name>3851</name>
</trkpt>
<trkpt lat="48.932610" lon="8.684007">
<ele>374.5</ele>
<speed>5.5</speed>
<course>243.1</course>
<desc>Speed 5.5 km/h Distance 5.07 km</desc>
<time>2010-03-14T11:29:42.51</time>
<name>3852</name>
</trkpt>
<trkpt lat="48.932603" lon="8.683987">
<ele>374.5</ele>
<speed>5.4</speed>
<course>247.4</course>
<desc>Speed 5.4 km/h Distance 5.07 km</desc>
<time>2010-03-14T11:29:43.51</time>
<name>3853</name>
</trkpt>
<trkpt lat="48.932598" lon="8.683968">
<ele>374.5</ele>
<speed>5.2</speed>
<course>238.6</course>
<desc>Speed 5.2 km/h Distance 5.07 km</desc>
<time>2010-03-14T11:29:44.50</time>
<name>3854</name>
</trkpt>
<trkpt lat="48.932592" lon="8.683952">
<ele>374.0</ele>
<speed>5.1</speed>
<course>235.3</course>
<desc>Speed 5.1 km/h Distance 5.07 km</desc>
<time>2010-03-14T11:29:45.51</time>
<name>3855</name>
</trkpt>
<trkpt lat="48.932583" lon="8.683933">
<ele>374.0</ele>
<speed>5.3</speed>
<course>241.0</course>
<desc>Speed 5.3 km/h Distance 5.07 km</desc>
<time>2010-03-14T11:29:46.50</time>
<name>3856</name>
</trkpt>
<trkpt lat="48.932577" lon="8.683915">
<ele>374.0</ele>
<speed>5.5</speed>
<course>243.1</course>
<desc>Speed 5.5 km/h Distance 5.08 km</desc>
<time>2010-03-14T11:29:47.50</time>
<name>3857</name>
</trkpt>
<trkpt lat="48.932570" lon="8.683895">
<ele>374.0</ele>
<speed>5.5</speed>
<course>241.0</course>
<desc>Speed 5.5 km/h Distance 5.08 km</desc>
<time>2010-03-14T11:29:48.50</time>
<name>3858</name>
</trkpt>
<trkpt lat="48.932563" lon="8.683877">
<ele>373.5</ele>
<speed>5.2</speed>
<course>241.0</course>
<desc>Speed 5.2 km/h Distance 5.08 km</desc>
<time>2010-03-14T11:29:49.50</time>
<name>3859</name>
</trkpt>
<trkpt lat="48.932557" lon="8.683858">
<ele>373.5</ele>
<speed>5.4</speed>
<course>243.1</course>
<desc>Speed 5.4 km/h Distance 5.08 km</desc>
<time>2010-03-14T11:29:50.50</time>
<name>3860</name>
</trkpt>
<trkpt lat="48.932550" lon="8.683838">
<ele>373.5</ele>
<speed>5.5</speed>
<course>243.1</course>
<desc>Speed 5.5 km/h Distance 5.08 km</desc>
<time>2010-03-14T11:29:51.50</time>
<name>3861</name>
</trkpt>
<trkpt lat="48.932543" lon="8.683818">
<ele>373.5</ele>
<speed>5.6</speed>
<course>243.1</course>
<desc>Speed 5.6 km/h Distance 5.08 km</desc>
<time>2010-03-14T11:29:52.50</time>
<name>3862</name>
</trkpt>
<trkpt lat="48.932537" lon="8.683798">
<ele>373.5</ele>
<speed>5.3</speed>
<course>243.1</course>
<desc>Speed 5.3 km/h Distance 5.09 km</desc>
<time>2010-03-14T11:29:53.50</time>
<name>3863</name>
</trkpt>
<trkpt lat="48.932530" lon="8.683778">
<ele>373.0</ele>
<speed>5.5</speed>
<course>241.0</course>
<desc>Speed 5.5 km/h Distance 5.09 km</desc>
<time>2010-03-14T11:29:54.50</time>
<name>3864</name>
</trkpt>
<trkpt lat="48.932523" lon="8.683760">
<ele>373.0</ele>
<speed>5.4</speed>
<course>241.0</course>
<desc>Speed 5.4 km/h Distance 5.09 km</desc>
<time>2010-03-14T11:29:55.50</time>
<name>3865</name>
</trkpt>
<trkpt lat="48.932517" lon="8.683742">
<ele>373.0</ele>
<speed>5.1</speed>
<course>235.3</course>
<desc>Speed 5.1 km/h Distance 5.09 km</desc>
<time>2010-03-14T11:29:56.50</time>
<name>3866</name>
</trkpt>
<trkpt lat="48.932508" lon="8.683723">
<ele>372.5</ele>
<speed>5.5</speed>
<course>241.0</course>
<desc>Speed 5.5 km/h Distance 5.09 km</desc>
<time>2010-03-14T11:29:57.50</time>
<name>3867</name>
</trkpt>
<trkpt lat="48.932502" lon="8.683705">
<ele>372.5</ele>
<speed>5.3</speed>
<course>241.0</course>
<desc>Speed 5.3 km/h Distance 5.09 km</desc>
<time>2010-03-14T11:29:58.50</time>
<name>3868</name>
</trkpt>
<trkpt lat="48.932495" lon="8.683687">
<ele>372.5</ele>
<speed>5.5</speed>
<course>247.5</course>
<desc>Speed 5.5 km/h Distance 5.09 km</desc>
<time>2010-03-14T11:29:59.50</time>
<name>3869</name>
</trkpt>
<trkpt lat="48.932490" lon="8.683668">
<ele>372.5</ele>
<speed>5.1</speed>
<course>244.9</course>
<desc>Speed 5.1 km/h Distance 5.10 km</desc>
<time>2010-03-14T11:30:00.50</time>
<name>3870</name>
</trkpt>
<trkpt lat="48.932483" lon="8.683647">
<ele>372.0</ele>
<speed>5.7</speed>
<course>250.6</course>
<desc>Speed 5.7 km/h Distance 5.10 km</desc>
<time>2010-03-14T11:30:01.50</time>
<name>3871</name>
</trkpt>
<trkpt lat="48.932478" lon="8.683625">
<ele>372.0</ele>
<speed>5.6</speed>
<course>241.0</course>
<desc>Speed 5.6 km/h Distance 5.10 km</desc>
<time>2010-03-14T11:30:02.49</time>
<name>3872</name>
</trkpt>
<trkpt lat="48.932472" lon="8.683607">
<ele>372.0</ele>
<speed>5.4</speed>
<course>235.3</course>
<desc>Speed 5.4 km/h Distance 5.10 km</desc>
<time>2010-03-14T11:30:03.49</time>
<name>3873</name>
</trkpt>
<trkpt lat="48.932463" lon="8.683588">
<ele>372.0</ele>
<speed>5.4</speed>
<course>235.3</course>
<desc>Speed 5.4 km/h Distance 5.10 km</desc>
<time>2010-03-14T11:30:04.49</time>
<name>3874</name>
</trkpt>
<trkpt lat="48.932455" lon="8.683570">
<ele>371.5</ele>
<speed>5.3</speed>
<course>241.0</course>
<desc>Speed 5.3 km/h Distance 5.10 km</desc>
<time>2010-03-14T11:30:05.49</time>
<name>3875</name>
</trkpt>
<trkpt lat="48.932448" lon="8.683552">
<ele>371.5</ele>
<speed>5.1</speed>
<course>238.7</course>
<desc>Speed 5.1 km/h Distance 5.11 km</desc>
<time>2010-03-14T11:30:06.49</time>
<name>3876</name>
</trkpt>
<trkpt lat="48.932442" lon="8.683535">
<ele>371.0</ele>
<speed>5.0</speed>
<course>249.2</course>
<desc>Speed 5.0 km/h Distance 5.11 km</desc>
<time>2010-03-14T11:30:07.49</time>
<name>3877</name>
</trkpt>
<trkpt lat="48.932437" lon="8.683515">
<ele>371.0</ele>
<speed>5.5</speed>
<course>249.2</course>
<desc>Speed 5.5 km/h Distance 5.11 km</desc>
<time>2010-03-14T11:30:08.49</time>
<name>3878</name>
</trkpt>
<trkpt lat="48.932432" lon="8.683495">
<ele>371.0</ele>
<speed>5.2</speed>
<course>254.5</course>
<desc>Speed 5.2 km/h Distance 5.11 km</desc>
<time>2010-03-14T11:30:09.49</time>
<name>3879</name>
</trkpt>
<trkpt lat="48.932428" lon="8.683477">
<ele>371.0</ele>
<speed>4.8</speed>
<course>238.6</course>
<desc>Speed 4.8 km/h Distance 5.11 km</desc>
<time>2010-03-14T11:30:10.49</time>
<name>3880</name>
</trkpt>
<trkpt lat="48.932422" lon="8.683460">
<ele>371.0</ele>
<speed>4.6</speed>
<course>245.4</course>
<desc>Speed 4.6 km/h Distance 5.11 km</desc>
<time>2010-03-14T11:30:11.49</time>
<name>3881</name>
</trkpt>
<trkpt lat="48.932417" lon="8.683443">
<ele>371.0</ele>
<speed>4.8</speed>
<course>243.1</course>
<desc>Speed 4.8 km/h Distance 5.11 km</desc>
<time>2010-03-14T11:30:12.49</time>
<name>3882</name>
</trkpt>
<trkpt lat="48.932410" lon="8.683423">
<ele>370.5</ele>
<speed>5.3</speed>
<course>247.4</course>
<desc>Speed 5.3 km/h Distance 5.12 km</desc>
<time>2010-03-14T11:30:13.49</time>
<name>3883</name>
</trkpt>
<trkpt lat="48.932405" lon="8.683405">
<ele>370.0</ele>
<speed>5.0</speed>
<course>247.5</course>
<desc>Speed 5.0 km/h Distance 5.12 km</desc>
<time>2010-03-14T11:30:14.49</time>
<name>3884</name>
</trkpt>
<trkpt lat="48.932400" lon="8.683387">
<ele>370.0</ele>
<speed>4.8</speed>
<course>247.5</course>
<desc>Speed 4.8 km/h Distance 5.12 km</desc>
<time>2010-03-14T11:30:15.49</time>
<name>3885</name>
</trkpt>
<trkpt lat="48.932395" lon="8.683368">
<ele>370.0</ele>
<speed>4.7</speed>
<course>249.2</course>
<desc>Speed 4.7 km/h Distance 5.12 km</desc>
<time>2010-03-14T11:30:16.49</time>
<name>3886</name>
</trkpt>
<trkpt lat="48.932390" lon="8.683348">
<ele>370.0</ele>
<speed>5.4</speed>
<course>249.2</course>
<desc>Speed 5.4 km/h Distance 5.12 km</desc>
<time>2010-03-14T11:30:17.49</time>
<name>3887</name>
</trkpt>
<trkpt lat="48.932385" lon="8.683328">
<ele>369.5</ele>
<speed>5.4</speed>
<course>249.2</course>
<desc>Speed 5.4 km/h Distance 5.12 km</desc>
<time>2010-03-14T11:30:18.49</time>
<name>3888</name>
</trkpt>
<trkpt lat="48.932380" lon="8.683308">
<ele>369.5</ele>
<speed>5.1</speed>
<course>259.3</course>
<desc>Speed 5.1 km/h Distance 5.13 km</desc>
<time>2010-03-14T11:30:19.49</time>
<name>3889</name>
</trkpt>
<trkpt lat="48.932378" lon="8.683295">
<ele>369.0</ele>
<speed>3.5</speed>
<course>254.6</course>
<desc>Speed 3.5 km/h Distance 5.13 km</desc>
<time>2010-03-14T11:30:20.49</time>
<name>3890</name>
</trkpt>
<trkpt lat="48.932375" lon="8.683277">
<ele>368.5</ele>
<speed>4.6</speed>
<course>251.4</course>
<desc>Speed 4.6 km/h Distance 5.13 km</desc>
<time>2010-03-14T11:30:21.49</time>
<name>3891</name>
</trkpt>
<trkpt lat="48.932372" lon="8.683262">
<ele>368.5</ele>
<speed>4.1</speed>
<course>256.8</course>
<desc>Speed 4.1 km/h Distance 5.13 km</desc>
<time>2010-03-14T11:30:22.48</time>
<name>3892</name>
</trkpt>
<trkpt lat="48.932368" lon="8.683240">
<ele>368.0</ele>
<speed>5.2</speed>
<course>262.8</course>
<desc>Speed 5.2 km/h Distance 5.13 km</desc>
<time>2010-03-14T11:30:23.49</time>
<name>3893</name>
</trkpt>
<trkpt lat="48.932367" lon="8.683220">
<ele>368.0</ele>
<speed>5.2</speed>
<course>255.8</course>
<desc>Speed 5.2 km/h Distance 5.13 km</desc>
<time>2010-03-14T11:30:24.49</time>
<name>3894</name>
</trkpt>
<trkpt lat="48.932363" lon="8.683200">
<ele>367.5</ele>
<speed>5.0</speed>
<course>249.2</course>
<desc>Speed 5.0 km/h Distance 5.13 km</desc>
<time>2010-03-14T11:30:25.49</time>
<name>3895</name>
</trkpt>
<trkpt lat="48.932358" lon="8.683180">
<ele>367.5</ele>
<speed>5.2</speed>
<course>249.2</course>
<desc>Speed 5.2 km/h Distance 5.14 km</desc>
<time>2010-03-14T11:30:26.48</time>
<name>3896</name>
</trkpt>
<trkpt lat="48.932353" lon="8.683160">
<ele>367.5</ele>
<speed>5.3</speed>
<course>250.6</course>
<desc>Speed 5.3 km/h Distance 5.14 km</desc>
<time>2010-03-14T11:30:27.49</time>
<name>3897</name>
</trkpt>
<trkpt lat="48.932348" lon="8.683138">
<ele>367.0</ele>
<speed>5.6</speed>
<course>247.4</course>
<desc>Speed 5.6 km/h Distance 5.14 km</desc>
<time>2010-03-14T11:30:28.48</time>
<name>3898</name>
</trkpt>
<trkpt lat="48.932343" lon="8.683120">
<ele>367.0</ele>
<speed>5.2</speed>
<course>249.2</course>
<desc>Speed 5.2 km/h Distance 5.14 km</desc>
<time>2010-03-14T11:30:29.48</time>
<name>3899</name>
</trkpt>
<trkpt lat="48.932338" lon="8.683100">
<ele>366.5</ele>
<speed>5.1</speed>
<course>249.2</course>
<desc>Speed 5.1 km/h Distance 5.14 km</desc>
<time>2010-03-14T11:30:30.48</time>
<name>3900</name>
</trkpt>
<trkpt lat="48.932333" lon="8.683080">
<ele>367.0</ele>
<speed>5.4</speed>
<course>249.2</course>
<desc>Speed 5.4 km/h Distance 5.14 km</desc>
<time>2010-03-14T11:30:31.48</time>
<name>3901</name>
</trkpt>
<trkpt lat="48.932328" lon="8.683060">
<ele>367.0</ele>
<speed>5.4</speed>
<course>250.6</course>
<desc>Speed 5.4 km/h Distance 5.14 km</desc>
<time>2010-03-14T11:30:32.48</time>
<name>3902</name>
</trkpt>
<trkpt lat="48.932323" lon="8.683038">
<ele>366.5</ele>
<speed>5.8</speed>
<course>250.6</course>
<desc>Speed 5.8 km/h Distance 5.15 km</desc>
<time>2010-03-14T11:30:33.48</time>
<name>3903</name>
</trkpt>
<trkpt lat="48.932318" lon="8.683017">
<ele>366.5</ele>
<speed>5.8</speed>
<course>250.6</course>
<desc>Speed 5.8 km/h Distance 5.15 km</desc>
<time>2010-03-14T11:30:34.48</time>
<name>3904</name>
</trkpt>
<trkpt lat="48.932313" lon="8.682995">
<ele>366.5</ele>
<speed>5.6</speed>
<course>249.1</course>
<desc>Speed 5.6 km/h Distance 5.15 km</desc>
<time>2010-03-14T11:30:35.48</time>
<name>3905</name>
</trkpt>
<trkpt lat="48.932308" lon="8.682975">
<ele>366.5</ele>
<speed>5.6</speed>
<course>250.6</course>
<desc>Speed 5.6 km/h Distance 5.15 km</desc>
<time>2010-03-14T11:30:36.48</time>
<name>3906</name>
</trkpt>
<trkpt lat="48.932303" lon="8.682953">
<ele>366.5</ele>
<speed>5.7</speed>
<course>249.2</course>
<desc>Speed 5.7 km/h Distance 5.15 km</desc>
<time>2010-03-14T11:30:37.48</time>
<name>3907</name>
</trkpt>
<trkpt lat="48.932298" lon="8.682933">
<ele>366.0</ele>
<speed>5.7</speed>
<course>244.9</course>
<desc>Speed 5.7 km/h Distance 5.15 km</desc>
<time>2010-03-14T11:30:38.48</time>
<name>3908</name>
</trkpt>
<trkpt lat="48.932292" lon="8.682912">
<ele>366.0</ele>
<speed>5.7</speed>
<course>250.6</course>
<desc>Speed 5.7 km/h Distance 5.16 km</desc>
<time>2010-03-14T11:30:39.48</time>
<name>3909</name>
</trkpt>
<trkpt lat="48.932287" lon="8.682890">
<ele>366.0</ele>
<speed>5.9</speed>
<course>244.9</course>
<desc>Speed 5.9 km/h Distance 5.16 km</desc>
<time>2010-03-14T11:30:40.48</time>
<name>3910</name>
</trkpt>
<trkpt lat="48.932280" lon="8.682868">
<ele>366.0</ele>
<speed>5.9</speed>
<course>250.7</course>
<desc>Speed 5.9 km/h Distance 5.16 km</desc>
<time>2010-03-14T11:30:41.48</time>
<name>3911</name>
</trkpt>
<trkpt lat="48.932275" lon="8.682847">
<ele>366.0</ele>
<speed>5.9</speed>
<course>252.0</course>
<desc>Speed 5.9 km/h Distance 5.16 km</desc>
<time>2010-03-14T11:30:42.48</time>
<name>3912</name>
</trkpt>
<trkpt lat="48.932270" lon="8.682823">
<ele>365.5</ele>
<speed>5.9</speed>
<course>244.9</course>
<desc>Speed 5.9 km/h Distance 5.16 km</desc>
<time>2010-03-14T11:30:43.47</time>
<name>3913</name>
</trkpt>
<trkpt lat="48.932263" lon="8.682802">
<ele>365.5</ele>
<speed>5.8</speed>
<course>250.6</course>
<desc>Speed 5.8 km/h Distance 5.16 km</desc>
<time>2010-03-14T11:30:44.47</time>
<name>3914</name>
</trkpt>
<trkpt lat="48.932258" lon="8.682780">
<ele>366.0</ele>
<speed>5.9</speed>
<course>244.9</course>
<desc>Speed 5.9 km/h Distance 5.17 km</desc>
<time>2010-03-14T11:30:45.47</time>
<name>3915</name>
</trkpt>
<trkpt lat="48.932252" lon="8.682758">
<ele>366.0</ele>
<speed>5.8</speed>
<course>250.6</course>
<desc>Speed 5.8 km/h Distance 5.17 km</desc>
<time>2010-03-14T11:30:46.47</time>
<name>3916</name>
</trkpt>
<trkpt lat="48.932247" lon="8.682737">
<ele>366.0</ele>
<speed>5.7</speed>
<course>243.1</course>
<desc>Speed 5.7 km/h Distance 5.17 km</desc>
<time>2010-03-14T11:30:47.47</time>
<name>3917</name>
</trkpt>
<trkpt lat="48.932240" lon="8.682717">
<ele>366.0</ele>
<speed>5.6</speed>
<course>249.2</course>
<desc>Speed 5.6 km/h Distance 5.17 km</desc>
<time>2010-03-14T11:30:48.47</time>
<name>3918</name>
</trkpt>
<trkpt lat="48.932235" lon="8.682697">
<ele>365.5</ele>
<speed>5.6</speed>
<course>244.9</course>
<desc>Speed 5.6 km/h Distance 5.17 km</desc>
<time>2010-03-14T11:30:49.47</time>
<name>3919</name>
</trkpt>
<trkpt lat="48.932228" lon="8.682675">
<ele>365.5</ele>
<speed>5.7</speed>
<course>250.6</course>
<desc>Speed 5.7 km/h Distance 5.17 km</desc>
<time>2010-03-14T11:30:50.47</time>
<name>3920</name>
</trkpt>
<trkpt lat="48.932223" lon="8.682653">
<ele>365.5</ele>
<speed>5.6</speed>
<course>249.1</course>
<desc>Speed 5.6 km/h Distance 5.18 km</desc>
<time>2010-03-14T11:30:51.47</time>
<name>3921</name>
</trkpt>
<trkpt lat="48.932218" lon="8.682633">
<ele>365.5</ele>
<speed>5.6</speed>
<course>250.6</course>
<desc>Speed 5.6 km/h Distance 5.18 km</desc>
<time>2010-03-14T11:30:52.47</time>
<name>3922</name>
</trkpt>
<trkpt lat="48.932213" lon="8.682612">
<ele>365.5</ele>
<speed>5.5</speed>
<course>243.1</course>
<desc>Speed 5.5 km/h Distance 5.18 km</desc>
<time>2010-03-14T11:30:53.47</time>
<name>3923</name>
</trkpt>
<trkpt lat="48.932207" lon="8.682592">
<ele>365.5</ele>
<speed>5.7</speed>
<course>243.1</course>
<desc>Speed 5.7 km/h Distance 5.18 km</desc>
<time>2010-03-14T11:30:54.47</time>
<name>3924</name>
</trkpt>
<trkpt lat="48.932200" lon="8.682572">
<ele>365.5</ele>
<speed>5.6</speed>
<course>244.9</course>
<desc>Speed 5.6 km/h Distance 5.18 km</desc>
<time>2010-03-14T11:30:55.47</time>
<name>3925</name>
</trkpt>
<trkpt lat="48.932193" lon="8.682550">
<ele>365.5</ele>
<speed>5.6</speed>
<course>249.2</course>
<desc>Speed 5.6 km/h Distance 5.18 km</desc>
<time>2010-03-14T11:30:56.47</time>
<name>3926</name>
</trkpt>
<trkpt lat="48.932188" lon="8.682530">
<ele>365.5</ele>
<speed>5.6</speed>
<course>249.2</course>
<desc>Speed 5.6 km/h Distance 5.19 km</desc>
<time>2010-03-14T11:30:57.47</time>
<name>3927</name>
</trkpt>
<trkpt lat="48.932183" lon="8.682510">
<ele>365.0</ele>
<speed>5.3</speed>
<course>243.1</course>
<desc>Speed 5.3 km/h Distance 5.19 km</desc>
<time>2010-03-14T11:30:58.47</time>
<name>3928</name>
</trkpt>
<trkpt lat="48.932177" lon="8.682490">
<ele>365.0</ele>
<speed>5.5</speed>
<course>249.1</course>
<desc>Speed 5.5 km/h Distance 5.19 km</desc>
<time>2010-03-14T11:30:59.47</time>
<name>3929</name>
</trkpt>
<trkpt lat="48.932172" lon="8.682470">
<ele>365.0</ele>
<speed>5.8</speed>
<course>250.6</course>
<desc>Speed 5.8 km/h Distance 5.19 km</desc>
<time>2010-03-14T11:31:00.47</time>
<name>3930</name>
</trkpt>
<trkpt lat="48.932167" lon="8.682448">
<ele>365.0</ele>
<speed>5.5</speed>
<course>249.2</course>
<desc>Speed 5.5 km/h Distance 5.19 km</desc>
<time>2010-03-14T11:31:01.48</time>
<name>3931</name>
</trkpt>
<trkpt lat="48.932162" lon="8.682428">
<ele>365.0</ele>
<speed>5.5</speed>
<course>251.9</course>
<desc>Speed 5.5 km/h Distance 5.19 km</desc>
<time>2010-03-14T11:31:02.47</time>
<name>3932</name>
</trkpt>
<trkpt lat="48.932157" lon="8.682405">
<ele>365.0</ele>
<speed>5.8</speed>
<course>244.9</course>
<desc>Speed 5.8 km/h Distance 5.20 km</desc>
<time>2010-03-14T11:31:03.47</time>
<name>3933</name>
</trkpt>
<trkpt lat="48.932150" lon="8.682383">
<ele>365.5</ele>
<speed>5.9</speed>
<course>249.2</course>
<desc>Speed 5.9 km/h Distance 5.20 km</desc>
<time>2010-03-14T11:31:04.47</time>
<name>3934</name>
</trkpt>
<trkpt lat="48.932145" lon="8.682363">
<ele>365.5</ele>
<speed>5.8</speed>
<course>244.9</course>
<desc>Speed 5.8 km/h Distance 5.20 km</desc>
<time>2010-03-14T11:31:05.47</time>
<name>3935</name>
</trkpt>
<trkpt lat="48.932138" lon="8.682342">
<ele>365.5</ele>
<speed>5.8</speed>
<course>243.1</course>
<desc>Speed 5.8 km/h Distance 5.20 km</desc>
<time>2010-03-14T11:31:06.47</time>
<name>3936</name>
</trkpt>
<trkpt lat="48.932132" lon="8.682322">
<ele>365.5</ele>
<speed>5.6</speed>
<course>243.1</course>
<desc>Speed 5.6 km/h Distance 5.20 km</desc>
<time>2010-03-14T11:31:07.47</time>
<name>3937</name>
</trkpt>
<trkpt lat="48.932125" lon="8.682302">
<ele>365.5</ele>
<speed>5.8</speed>
<course>237.6</course>
<desc>Speed 5.8 km/h Distance 5.20 km</desc>
<time>2010-03-14T11:31:08.47</time>
<name>3938</name>
</trkpt>
<trkpt lat="48.932117" lon="8.682282">
<ele>365.5</ele>
<speed>5.8</speed>
<course>244.9</course>
<desc>Speed 5.8 km/h Distance 5.21 km</desc>
<time>2010-03-14T11:31:09.47</time>
<name>3939</name>
</trkpt>
<trkpt lat="48.932110" lon="8.682260">
<ele>366.0</ele>
<speed>5.9</speed>
<course>250.6</course>
<desc>Speed 5.9 km/h Distance 5.21 km</desc>
<time>2010-03-14T11:31:10.46</time>
<name>3940</name>
</trkpt>
<trkpt lat="48.932105" lon="8.682238">
<ele>366.0</ele>
<speed>5.8</speed>
<course>250.6</course>
<desc>Speed 5.8 km/h Distance 5.21 km</desc>
<time>2010-03-14T11:31:11.46</time>
<name>3941</name>
</trkpt>
<trkpt lat="48.932100" lon="8.682217">
<ele>366.0</ele>
<speed>5.6</speed>
<course>249.2</course>
<desc>Speed 5.6 km/h Distance 5.21 km</desc>
<time>2010-03-14T11:31:12.46</time>
<name>3942</name>
</trkpt>
<trkpt lat="48.932095" lon="8.682197">
<ele>366.0</ele>
<speed>5.5</speed>
<course>244.9</course>
<desc>Speed 5.5 km/h Distance 5.21 km</desc>
<time>2010-03-14T11:31:13.46</time>
<name>3943</name>
</trkpt>
<trkpt lat="48.932088" lon="8.682175">
<ele>366.5</ele>
<speed>5.6</speed>
<course>243.1</course>
<desc>Speed 5.6 km/h Distance 5.21 km</desc>
<time>2010-03-14T11:31:14.46</time>
<name>3944</name>
</trkpt>
<trkpt lat="48.932082" lon="8.682155">
<ele>366.5</ele>
<speed>5.6</speed>
<course>249.2</course>
<desc>Speed 5.6 km/h Distance 5.22 km</desc>
<time>2010-03-14T11:31:15.46</time>
<name>3945</name>
</trkpt>
<trkpt lat="48.932077" lon="8.682135">
<ele>366.5</ele>
<speed>5.4</speed>
<course>241.1</course>
<desc>Speed 5.4 km/h Distance 5.22 km</desc>
<time>2010-03-14T11:31:16.46</time>
<name>3946</name>
</trkpt>
<trkpt lat="48.932070" lon="8.682117">
<ele>366.5</ele>
<speed>5.5</speed>
<course>244.9</course>
<desc>Speed 5.5 km/h Distance 5.22 km</desc>
<time>2010-03-14T11:31:17.46</time>
<name>3947</name>
</trkpt>
<trkpt lat="48.932063" lon="8.682095">
<ele>367.0</ele>
<speed>5.7</speed>
<course>249.2</course>
<desc>Speed 5.7 km/h Distance 5.22 km</desc>
<time>2010-03-14T11:31:18.46</time>
<name>3948</name>
</trkpt>
<trkpt lat="48.932058" lon="8.682075">
<ele>367.0</ele>
<speed>5.6</speed>
<course>249.2</course>
<desc>Speed 5.6 km/h Distance 5.22 km</desc>
<time>2010-03-14T11:31:19.46</time>
<name>3949</name>
</trkpt>
<trkpt lat="48.932053" lon="8.682055">
<ele>366.5</ele>
<speed>5.4</speed>
<course>249.2</course>
<desc>Speed 5.4 km/h Distance 5.22 km</desc>
<time>2010-03-14T11:31:20.47</time>
<name>3950</name>
</trkpt>
<trkpt lat="48.932048" lon="8.682035">
<ele>366.5</ele>
<speed>5.6</speed>
<course>243.2</course>
<desc>Speed 5.6 km/h Distance 5.23 km</desc>
<time>2010-03-14T11:31:21.46</time>
<name>3951</name>
</trkpt>
<trkpt lat="48.932042" lon="8.682015">
<ele>366.5</ele>
<speed>5.5</speed>
<course>244.9</course>
<desc>Speed 5.5 km/h Distance 5.23 km</desc>
<time>2010-03-14T11:31:22.46</time>
<name>3952</name>
</trkpt>
<trkpt lat="48.932035" lon="8.681993">
<ele>366.5</ele>
<speed>5.7</speed>
<course>255.8</course>
<desc>Speed 5.7 km/h Distance 5.23 km</desc>
<time>2010-03-14T11:31:23.46</time>
<name>3953</name>
</trkpt>
<trkpt lat="48.932032" lon="8.681973">
<ele>366.5</ele>
<speed>5.5</speed>
<course>243.1</course>
<desc>Speed 5.5 km/h Distance 5.23 km</desc>
<time>2010-03-14T11:31:24.46</time>
<name>3954</name>
</trkpt>
<trkpt lat="48.932025" lon="8.681953">
<ele>366.5</ele>
<speed>5.5</speed>
<course>250.6</course>
<desc>Speed 5.5 km/h Distance 5.23 km</desc>
<time>2010-03-14T11:31:25.46</time>
<name>3955</name>
</trkpt>
<trkpt lat="48.932020" lon="8.681932">
<ele>366.5</ele>
<speed>5.5</speed>
<course>249.2</course>
<desc>Speed 5.5 km/h Distance 5.23 km</desc>
<time>2010-03-14T11:31:26.46</time>
<name>3956</name>
</trkpt>
<trkpt lat="48.932015" lon="8.681912">
<ele>366.5</ele>
<speed>5.5</speed>
<course>250.6</course>
<desc>Speed 5.5 km/h Distance 5.24 km</desc>
<time>2010-03-14T11:31:27.46</time>
<name>3957</name>
</trkpt>
<trkpt lat="48.932010" lon="8.681890">
<ele>366.5</ele>
<speed>5.4</speed>
<course>249.2</course>
<desc>Speed 5.4 km/h Distance 5.24 km</desc>
<time>2010-03-14T11:31:28.46</time>
<name>3958</name>
</trkpt>
<trkpt lat="48.932005" lon="8.681870">
<ele>366.5</ele>
<speed>5.7</speed>
<course>250.6</course>
<desc>Speed 5.7 km/h Distance 5.24 km</desc>
<time>2010-03-14T11:31:29.46</time>
<name>3959</name>
</trkpt>
<trkpt lat="48.932000" lon="8.681848">
<ele>366.5</ele>
<speed>5.4</speed>
<course>249.1</course>
<desc>Speed 5.4 km/h Distance 5.24 km</desc>
<time>2010-03-14T11:31:30.46</time>
<name>3960</name>
</trkpt>
<trkpt lat="48.931995" lon="8.681828">
<ele>366.5</ele>
<speed>5.6</speed>
<course>244.9</course>
<desc>Speed 5.6 km/h Distance 5.24 km</desc>
<time>2010-03-14T11:31:31.46</time>
<name>3961</name>
</trkpt>
<trkpt lat="48.931988" lon="8.681807">
<ele>366.5</ele>
<speed>5.5</speed>
<course>249.2</course>
<desc>Speed 5.5 km/h Distance 5.24 km</desc>
<time>2010-03-14T11:31:32.46</time>
<name>3962</name>
</trkpt>
<trkpt lat="48.931983" lon="8.681787">
<ele>367.0</ele>
<speed>5.3</speed>
<course>249.2</course>
<desc>Speed 5.3 km/h Distance 5.25 km</desc>
<time>2010-03-14T11:31:33.46</time>
<name>3963</name>
</trkpt>
<trkpt lat="48.931978" lon="8.681767">
<ele>367.0</ele>
<speed>5.5</speed>
<course>250.7</course>
<desc>Speed 5.5 km/h Distance 5.25 km</desc>
<time>2010-03-14T11:31:34.46</time>
<name>3964</name>
</trkpt>
<trkpt lat="48.931973" lon="8.681745">
<ele>367.0</ele>
<speed>5.5</speed>
<course>243.2</course>
<desc>Speed 5.5 km/h Distance 5.25 km</desc>
<time>2010-03-14T11:31:35.46</time>
<name>3965</name>
</trkpt>
<trkpt lat="48.931967" lon="8.681725">
<ele>367.0</ele>
<speed>5.5</speed>
<course>249.2</course>
<desc>Speed 5.5 km/h Distance 5.25 km</desc>
<time>2010-03-14T11:31:36.46</time>
<name>3966</name>
</trkpt>
<trkpt lat="48.931962" lon="8.681705">
<ele>367.0</ele>
<speed>5.5</speed>
<course>244.9</course>
<desc>Speed 5.5 km/h Distance 5.25 km</desc>
<time>2010-03-14T11:31:37.46</time>
<name>3967</name>
</trkpt>
<trkpt lat="48.931955" lon="8.681683">
<ele>367.0</ele>
<speed>5.7</speed>
<course>249.2</course>
<desc>Speed 5.7 km/h Distance 5.25 km</desc>
<time>2010-03-14T11:31:38.46</time>
<name>3968</name>
</trkpt>
<trkpt lat="48.931950" lon="8.681663">
<ele>367.0</ele>
<speed>5.5</speed>
<course>243.1</course>
<desc>Speed 5.5 km/h Distance 5.26 km</desc>
<time>2010-03-14T11:31:39.46</time>
<name>3969</name>
</trkpt>
<trkpt lat="48.931943" lon="8.681643">
<ele>367.0</ele>
<speed>5.7</speed>
<course>255.8</course>
<desc>Speed 5.7 km/h Distance 5.26 km</desc>
<time>2010-03-14T11:31:40.46</time>
<name>3970</name>
</trkpt>
<trkpt lat="48.931940" lon="8.681623">
<ele>367.0</ele>
<speed>5.3</speed>
<course>249.1</course>
<desc>Speed 5.3 km/h Distance 5.26 km</desc>
<time>2010-03-14T11:31:41.46</time>
<name>3971</name>
</trkpt>
<trkpt lat="48.931935" lon="8.681603">
<ele>367.0</ele>
<speed>5.3</speed>
<course>250.6</course>
<desc>Speed 5.3 km/h Distance 5.26 km</desc>
<time>2010-03-14T11:31:42.46</time>
<name>3972</name>
</trkpt>
<trkpt lat="48.931930" lon="8.681582">
<ele>367.0</ele>
<speed>5.5</speed>
<course>243.1</course>
<desc>Speed 5.5 km/h Distance 5.26 km</desc>
<time>2010-03-14T11:31:43.46</time>
<name>3973</name>
</trkpt>
<trkpt lat="48.931923" lon="8.681562">
<ele>367.0</ele>
<speed>5.6</speed>
<course>243.1</course>
<desc>Speed 5.6 km/h Distance 5.26 km</desc>
<time>2010-03-14T11:31:44.46</time>
<name>3974</name>
</trkpt>
<trkpt lat="48.931917" lon="8.681542">
<ele>367.0</ele>
<speed>5.5</speed>
<course>249.2</course>
<desc>Speed 5.5 km/h Distance 5.26 km</desc>
<time>2010-03-14T11:31:45.45</time>
<name>3975</name>
</trkpt>
<trkpt lat="48.931912" lon="8.681522">
<ele>367.0</ele>
<speed>5.4</speed>
<course>243.1</course>
<desc>Speed 5.4 km/h Distance 5.27 km</desc>
<time>2010-03-14T11:31:46.45</time>
<name>3976</name>
</trkpt>
<trkpt lat="48.931905" lon="8.681502">
<ele>367.0</ele>
<speed>5.6</speed>
<course>250.6</course>
<desc>Speed 5.6 km/h Distance 5.27 km</desc>
<time>2010-03-14T11:31:47.45</time>
<name>3977</name>
</trkpt>
<trkpt lat="48.931900" lon="8.681480">
<ele>367.0</ele>
<speed>5.7</speed>
<course>249.2</course>
<desc>Speed 5.7 km/h Distance 5.27 km</desc>
<time>2010-03-14T11:31:48.45</time>
<name>3978</name>
</trkpt>
<trkpt lat="48.931895" lon="8.681460">
<ele>367.0</ele>
<speed>5.4</speed>
<course>249.1</course>
<desc>Speed 5.4 km/h Distance 5.27 km</desc>
<time>2010-03-14T11:31:49.46</time>
<name>3979</name>
</trkpt>
<trkpt lat="48.931890" lon="8.681440">
<ele>367.0</ele>
<speed>5.4</speed>
<course>250.6</course>
<desc>Speed 5.4 km/h Distance 5.27 km</desc>
<time>2010-03-14T11:31:50.45</time>
<name>3980</name>
</trkpt>
<trkpt lat="48.931885" lon="8.681418">
<ele>367.0</ele>
<speed>5.5</speed>
<course>249.2</course>
<desc>Speed 5.5 km/h Distance 5.27 km</desc>
<time>2010-03-14T11:31:51.45</time>
<name>3981</name>
</trkpt>
<trkpt lat="48.931880" lon="8.681398">
<ele>367.0</ele>
<speed>5.4</speed>
<course>249.2</course>
<desc>Speed 5.4 km/h Distance 5.28 km</desc>
<time>2010-03-14T11:31:52.45</time>
<name>3982</name>
</trkpt>
<trkpt lat="48.931875" lon="8.681378">
<ele>367.0</ele>
<speed>5.6</speed>
<course>250.6</course>
<desc>Speed 5.6 km/h Distance 5.28 km</desc>
<time>2010-03-14T11:31:53.45</time>
<name>3983</name>
</trkpt>
<trkpt lat="48.931870" lon="8.681357">
<ele>367.0</ele>
<speed>5.3</speed>
<course>247.4</course>
<desc>Speed 5.3 km/h Distance 5.28 km</desc>
<time>2010-03-14T11:31:54.45</time>
<name>3984</name>
</trkpt>
<trkpt lat="48.931865" lon="8.681338">
<ele>367.0</ele>
<speed>5.2</speed>
<course>249.2</course>
<desc>Speed 5.2 km/h Distance 5.28 km</desc>
<time>2010-03-14T11:31:55.45</time>
<name>3985</name>
</trkpt>
<trkpt lat="48.931860" lon="8.681318">
<ele>367.0</ele>
<speed>5.3</speed>
<course>250.6</course>
<desc>Speed 5.3 km/h Distance 5.28 km</desc>
<time>2010-03-14T11:31:56.45</time>
<name>3986</name>
</trkpt>
<trkpt lat="48.931855" lon="8.681297">
<ele>367.0</ele>
<speed>5.6</speed>
<course>249.2</course>
<desc>Speed 5.6 km/h Distance 5.28 km</desc>
<time>2010-03-14T11:31:57.45</time>
<name>3987</name>
</trkpt>
<trkpt lat="48.931850" lon="8.681277">
<ele>367.0</ele>
<speed>5.6</speed>
<course>256.8</course>
<desc>Speed 5.6 km/h Distance 5.29 km</desc>
<time>2010-03-14T11:31:58.45</time>
<name>3988</name>
</trkpt>
<trkpt lat="48.931847" lon="8.681255">
<ele>367.0</ele>
<speed>5.4</speed>
<course>244.9</course>
<desc>Speed 5.4 km/h Distance 5.29 km</desc>
<time>2010-03-14T11:31:59.45</time>
<name>3989</name>
</trkpt>
<trkpt lat="48.931840" lon="8.681233">
<ele>367.0</ele>
<speed>5.4</speed>
<course>255.8</course>
<desc>Speed 5.4 km/h Distance 5.29 km</desc>
<time>2010-03-14T11:32:00.45</time>
<name>3990</name>
</trkpt>
<trkpt lat="48.931837" lon="8.681213">
<ele>367.0</ele>
<speed>5.4</speed>
<course>243.1</course>
<desc>Speed 5.4 km/h Distance 5.29 km</desc>
<time>2010-03-14T11:32:01.46</time>
<name>3991</name>
</trkpt>
<trkpt lat="48.931830" lon="8.681193">
<ele>367.0</ele>
<speed>5.5</speed>
<course>250.6</course>
<desc>Speed 5.5 km/h Distance 5.29 km</desc>
<time>2010-03-14T11:32:02.45</time>
<name>3992</name>
</trkpt>
<trkpt lat="48.931825" lon="8.681172">
<ele>367.0</ele>
<speed>5.4</speed>
<course>249.2</course>
<desc>Speed 5.4 km/h Distance 5.29 km</desc>
<time>2010-03-14T11:32:03.45</time>
<name>3993</name>
</trkpt>
<trkpt lat="48.931820" lon="8.681152">
<ele>367.0</ele>
<speed>5.5</speed>
<course>245.4</course>
<desc>Speed 5.5 km/h Distance 5.30 km</desc>
<time>2010-03-14T11:32:04.45</time>
<name>3994</name>
</trkpt>
<trkpt lat="48.931815" lon="8.681135">
<ele>367.0</ele>
<speed>4.7</speed>
<course>249.1</course>
<desc>Speed 4.7 km/h Distance 5.30 km</desc>
<time>2010-03-14T11:32:05.45</time>
<name>3995</name>
</trkpt>
<trkpt lat="48.931810" lon="8.681115">
<ele>367.0</ele>
<speed>5.3</speed>
<course>249.2</course>
<desc>Speed 5.3 km/h Distance 5.30 km</desc>
<time>2010-03-14T11:32:06.45</time>
<name>3996</name>
</trkpt>
<trkpt lat="48.931805" lon="8.681095">
<ele>367.0</ele>
<speed>5.2</speed>
<course>247.4</course>
<desc>Speed 5.2 km/h Distance 5.30 km</desc>
<time>2010-03-14T11:32:07.45</time>
<name>3997</name>
</trkpt>
<trkpt lat="48.931800" lon="8.681077">
<ele>367.0</ele>
<speed>4.8</speed>
<course>251.9</course>
<desc>Speed 4.8 km/h Distance 5.30 km</desc>
<time>2010-03-14T11:32:08.44</time>
<name>3998</name>
</trkpt>
<trkpt lat="48.931795" lon="8.681053">
<ele>367.5</ele>
<speed>5.8</speed>
<course>256.8</course>
<desc>Speed 5.8 km/h Distance 5.30 km</desc>
<time>2010-03-14T11:32:09.44</time>
<name>3999</name>
</trkpt>
<trkpt lat="48.931792" lon="8.681032">
<ele>367.5</ele>
<speed>5.7</speed>
<course>249.1</course>
<desc>Speed 5.7 km/h Distance 5.30 km</desc>
<time>2010-03-14T11:32:10.44</time>
<name>4000</name>
</trkpt>
<trkpt lat="48.931787" lon="8.681012">
<ele>367.5</ele>
<speed>5.2</speed>
<course>250.7</course>
<desc>Speed 5.2 km/h Distance 5.31 km</desc>
<time>2010-03-14T11:32:11.44</time>
<name>4001</name>
</trkpt>
<trkpt lat="48.931782" lon="8.680990">
<ele>367.5</ele>
<speed>5.8</speed>
<course>250.7</course>
<desc>Speed 5.8 km/h Distance 5.31 km</desc>
<time>2010-03-14T11:32:12.44</time>
<name>4002</name>
</trkpt>
<trkpt lat="48.931777" lon="8.680968">
<ele>367.5</ele>
<speed>5.7</speed>
<course>250.6</course>
<desc>Speed 5.7 km/h Distance 5.31 km</desc>
<time>2010-03-14T11:32:13.44</time>
<name>4003</name>
</trkpt>
<trkpt lat="48.931772" lon="8.680947">
<ele>368.0</ele>
<speed>5.6</speed>
<course>246.5</course>
<desc>Speed 5.6 km/h Distance 5.31 km</desc>
<time>2010-03-14T11:32:14.44</time>
<name>4004</name>
</trkpt>
<trkpt lat="48.931765" lon="8.680923">
<ele>368.0</ele>
<speed>5.9</speed>
<course>250.7</course>
<desc>Speed 5.9 km/h Distance 5.31 km</desc>
<time>2010-03-14T11:32:15.44</time>
<name>4005</name>
</trkpt>
<trkpt lat="48.931760" lon="8.680902">
<ele>368.0</ele>
<speed>5.9</speed>
<course>250.6</course>
<desc>Speed 5.9 km/h Distance 5.31 km</desc>
<time>2010-03-14T11:32:16.44</time>
<name>4006</name>
</trkpt>
<trkpt lat="48.931755" lon="8.680880">
<ele>368.0</ele>
<speed>5.5</speed>
<course>249.1</course>
<desc>Speed 5.5 km/h Distance 5.32 km</desc>
<time>2010-03-14T11:32:17.44</time>
<name>4007</name>
</trkpt>
<trkpt lat="48.931750" lon="8.680860">
<ele>368.0</ele>
<speed>5.3</speed>
<course>244.9</course>
<desc>Speed 5.3 km/h Distance 5.32 km</desc>
<time>2010-03-14T11:32:18.44</time>
<name>4008</name>
</trkpt>
<trkpt lat="48.931743" lon="8.680838">
<ele>368.0</ele>
<speed>5.6</speed>
<course>257.7</course>
<desc>Speed 5.6 km/h Distance 5.32 km</desc>
<time>2010-03-14T11:32:19.44</time>
<name>4009</name>
</trkpt>
<trkpt lat="48.931740" lon="8.680815">
<ele>369.0</ele>
<speed>5.5</speed>
<course>263.3</course>
<desc>Speed 5.5 km/h Distance 5.32 km</desc>
<time>2010-03-14T11:32:20.44</time>
<name>4010</name>
</trkpt>
<trkpt lat="48.931738" lon="8.680793">
<ele>369.0</ele>
<speed>5.5</speed>
<course>245.5</course>
<desc>Speed 5.5 km/h Distance 5.32 km</desc>
<time>2010-03-14T11:32:21.44</time>
<name>4011</name>
</trkpt>
<trkpt lat="48.931733" lon="8.680777">
<ele>369.0</ele>
<speed>4.4</speed>
<course>254.5</course>
<desc>Speed 4.4 km/h Distance 5.32 km</desc>
<time>2010-03-14T11:32:22.44</time>
<name>4012</name>
</trkpt>
<trkpt lat="48.931730" lon="8.680758">
<ele>369.0</ele>
<speed>4.6</speed>
<course>245.4</course>
<desc>Speed 4.6 km/h Distance 5.33 km</desc>
<time>2010-03-14T11:32:23.44</time>
<name>4013</name>
</trkpt>
<trkpt lat="48.931725" lon="8.680742">
<ele>368.5</ele>
<speed>4.6</speed>
<course>249.2</course>
<desc>Speed 4.6 km/h Distance 5.33 km</desc>
<time>2010-03-14T11:32:24.44</time>
<name>4014</name>
</trkpt>
<trkpt lat="48.931720" lon="8.680722">
<ele>368.5</ele>
<speed>5.1</speed>
<course>262.1</course>
<desc>Speed 5.1 km/h Distance 5.33 km</desc>
<time>2010-03-14T11:32:25.44</time>
<name>4015</name>
</trkpt>
<trkpt lat="48.931718" lon="8.680703">
<ele>368.0</ele>
<speed>4.6</speed>
<course>261.3</course>
<desc>Speed 4.6 km/h Distance 5.33 km</desc>
<time>2010-03-14T11:32:26.44</time>
<name>4016</name>
</trkpt>
<trkpt lat="48.931717" lon="8.680687">
<ele>367.0</ele>
<speed>4.1</speed>
<course>253.0</course>
<desc>Speed 4.1 km/h Distance 5.33 km</desc>
<time>2010-03-14T11:32:27.44</time>
<name>4017</name>
</trkpt>
<trkpt lat="48.931713" lon="8.680670">
<ele>366.5</ele>
<speed>4.5</speed>
<course>249.2</course>
<desc>Speed 4.5 km/h Distance 5.33 km</desc>
<time>2010-03-14T11:32:28.44</time>
<name>4018</name>
</trkpt>
<trkpt lat="48.931708" lon="8.680650">
<ele>365.5</ele>
<speed>5.4</speed>
<course>270.0</course>
<desc>Speed 5.4 km/h Distance 5.33 km</desc>
<time>2010-03-14T11:32:29.44</time>
<name>4019</name>
</trkpt>
<trkpt lat="48.931708" lon="8.680630">
<ele>364.5</ele>
<speed>4.9</speed>
<course>262.8</course>
<desc>Speed 4.9 km/h Distance 5.34 km</desc>
<time>2010-03-14T11:32:30.44</time>
<name>4020</name>
</trkpt>
<trkpt lat="48.931707" lon="8.680610">
<ele>364.5</ele>
<speed>4.8</speed>
<course>254.5</course>
<desc>Speed 4.8 km/h Distance 5.34 km</desc>
<time>2010-03-14T11:32:31.44</time>
<name>4021</name>
</trkpt>
<trkpt lat="48.931703" lon="8.680592">
<ele>364.0</ele>
<speed>4.9</speed>
<course>247.4</course>
<desc>Speed 4.9 km/h Distance 5.34 km</desc>
<time>2010-03-14T11:32:32.44</time>
<name>4022</name>
</trkpt>
<trkpt lat="48.931698" lon="8.680573">
<ele>363.5</ele>
<speed>4.4</speed>
<course>245.5</course>
<desc>Speed 4.4 km/h Distance 5.34 km</desc>
<time>2010-03-14T11:32:33.44</time>
<name>4023</name>
</trkpt>
<trkpt lat="48.931693" lon="8.680557">
<ele>363.5</ele>
<speed>4.4</speed>
<course>251.3</course>
<desc>Speed 4.4 km/h Distance 5.34 km</desc>
<time>2010-03-14T11:32:34.44</time>
<name>4024</name>
</trkpt>
<trkpt lat="48.931690" lon="8.680542">
<ele>363.0</ele>
<speed>4.1</speed>
<course>243.1</course>
<desc>Speed 4.1 km/h Distance 5.34 km</desc>
<time>2010-03-14T11:32:35.44</time>
<name>4025</name>
</trkpt>
<trkpt lat="48.931685" lon="8.680527">
<ele>362.5</ele>
<speed>4.1</speed>
<course>249.2</course>
<desc>Speed 4.1 km/h Distance 5.34 km</desc>
<time>2010-03-14T11:32:36.44</time>
<name>4026</name>
</trkpt>
<trkpt lat="48.931680" lon="8.680507">
<ele>362.0</ele>
<speed>5.2</speed>
<course>250.6</course>
<desc>Speed 5.2 km/h Distance 5.35 km</desc>
<time>2010-03-14T11:32:37.44</time>
<name>4027</name>
</trkpt>
<trkpt lat="48.931675" lon="8.680485">
<ele>362.0</ele>
<speed>5.4</speed>
<course>253.1</course>
<desc>Speed 5.4 km/h Distance 5.35 km</desc>
<time>2010-03-14T11:32:38.44</time>
<name>4028</name>
</trkpt>
<trkpt lat="48.931672" lon="8.680468">
<ele>361.5</ele>
<speed>4.6</speed>
<course>247.5</course>
<desc>Speed 4.6 km/h Distance 5.35 km</desc>
<time>2010-03-14T11:32:39.44</time>
<name>4029</name>
</trkpt>
<trkpt lat="48.931667" lon="8.680450">
<ele>361.5</ele>
<speed>4.5</speed>
<course>255.8</course>
<desc>Speed 4.5 km/h Distance 5.35 km</desc>
<time>2010-03-14T11:32:40.43</time>
<name>4030</name>
</trkpt>
<trkpt lat="48.931663" lon="8.680430">
<ele>361.0</ele>
<speed>5.0</speed>
<course>255.8</course>
<desc>Speed 5.0 km/h Distance 5.35 km</desc>
<time>2010-03-14T11:32:41.44</time>
<name>4031</name>
</trkpt>
<trkpt lat="48.931660" lon="8.680410">
<ele>361.0</ele>
<speed>5.0</speed>
<course>250.6</course>
<desc>Speed 5.0 km/h Distance 5.35 km</desc>
<time>2010-03-14T11:32:42.44</time>
<name>4032</name>
</trkpt>
<trkpt lat="48.931655" lon="8.680388">
<ele>361.0</ele>
<speed>5.5</speed>
<course>247.5</course>
<desc>Speed 5.5 km/h Distance 5.35 km</desc>
<time>2010-03-14T11:32:43.44</time>
<name>4033</name>
</trkpt>
<trkpt lat="48.931650" lon="8.680370">
<ele>360.5</ele>
<speed>5.1</speed>
<course>247.4</course>
<desc>Speed 5.1 km/h Distance 5.36 km</desc>
<time>2010-03-14T11:32:44.43</time>
<name>4034</name>
</trkpt>
<trkpt lat="48.931645" lon="8.680352">
<ele>360.5</ele>
<speed>5.5</speed>
<course>243.1</course>
<desc>Speed 5.5 km/h Distance 5.36 km</desc>
<time>2010-03-14T11:32:45.43</time>
<name>4035</name>
</trkpt>
<trkpt lat="48.931638" lon="8.680332">
<ele>360.5</ele>
<speed>5.6</speed>
<course>249.2</course>
<desc>Speed 5.6 km/h Distance 5.36 km</desc>
<time>2010-03-14T11:32:46.43</time>
<name>4036</name>
</trkpt>
<trkpt lat="48.931633" lon="8.680312">
<ele>360.5</ele>
<speed>5.8</speed>
<course>244.9</course>
<desc>Speed 5.8 km/h Distance 5.36 km</desc>
<time>2010-03-14T11:32:47.43</time>
<name>4037</name>
</trkpt>
<trkpt lat="48.931627" lon="8.680290">
<ele>360.5</ele>
<speed>5.9</speed>
<course>247.9</course>
<desc>Speed 5.9 km/h Distance 5.36 km</desc>
<time>2010-03-14T11:32:48.43</time>
<name>4038</name>
</trkpt>
<trkpt lat="48.931620" lon="8.680265">
<ele>360.5</ele>
<speed>6.1</speed>
<course>252.0</course>
<desc>Speed 6.1 km/h Distance 5.36 km</desc>
<time>2010-03-14T11:32:49.43</time>
<name>4039</name>
</trkpt>
<trkpt lat="48.931615" lon="8.680242">
<ele>360.5</ele>
<speed>6.1</speed>
<course>246.5</course>
<desc>Speed 6.1 km/h Distance 5.37 km</desc>
<time>2010-03-14T11:32:50.43</time>
<name>4040</name>
</trkpt>
<trkpt lat="48.931608" lon="8.680218">
<ele>360.5</ele>
<speed>6.2</speed>
<course>246.5</course>
<desc>Speed 6.2 km/h Distance 5.37 km</desc>
<time>2010-03-14T11:32:51.43</time>
<name>4041</name>
</trkpt>
<trkpt lat="48.931602" lon="8.680195">
<ele>361.0</ele>
<speed>6.2</speed>
<course>244.9</course>
<desc>Speed 6.2 km/h Distance 5.37 km</desc>
<time>2010-03-14T11:32:52.43</time>
<name>4042</name>
</trkpt>
<trkpt lat="48.931595" lon="8.680173">
<ele>361.0</ele>
<speed>6.2</speed>
<course>253.1</course>
<desc>Speed 6.2 km/h Distance 5.37 km</desc>
<time>2010-03-14T11:32:53.43</time>
<name>4043</name>
</trkpt>
<trkpt lat="48.931590" lon="8.680148">
<ele>361.0</ele>
<speed>6.2</speed>
<course>250.6</course>
<desc>Speed 6.2 km/h Distance 5.37 km</desc>
<time>2010-03-14T11:32:54.43</time>
<name>4044</name>
</trkpt>
<trkpt lat="48.931585" lon="8.680127">
<ele>361.0</ele>
<speed>5.9</speed>
<course>244.9</course>
<desc>Speed 5.9 km/h Distance 5.38 km</desc>
<time>2010-03-14T11:32:55.43</time>
<name>4045</name>
</trkpt>
<trkpt lat="48.931578" lon="8.680105">
<ele>361.0</ele>
<speed>5.7</speed>
<course>251.9</course>
<desc>Speed 5.7 km/h Distance 5.38 km</desc>
<time>2010-03-14T11:32:56.43</time>
<name>4046</name>
</trkpt>
<trkpt lat="48.931573" lon="8.680082">
<ele>361.0</ele>
<speed>5.9</speed>
<course>250.6</course>
<desc>Speed 5.9 km/h Distance 5.38 km</desc>
<time>2010-03-14T11:32:57.43</time>
<name>4047</name>
</trkpt>
<trkpt lat="48.931568" lon="8.680060">
<ele>361.0</ele>
<speed>5.9</speed>
<course>251.9</course>
<desc>Speed 5.9 km/h Distance 5.38 km</desc>
<time>2010-03-14T11:32:58.43</time>
<name>4048</name>
</trkpt>
<trkpt lat="48.931563" lon="8.680037">
<ele>360.5</ele>
<speed>5.9</speed>
<course>250.6</course>
<desc>Speed 5.9 km/h Distance 5.38 km</desc>
<time>2010-03-14T11:32:59.43</time>
<name>4049</name>
</trkpt>
<trkpt lat="48.931558" lon="8.680015">
<ele>360.5</ele>
<speed>5.8</speed>
<course>250.7</course>
<desc>Speed 5.8 km/h Distance 5.38 km</desc>
<time>2010-03-14T11:33:00.43</time>
<name>4050</name>
</trkpt>
<trkpt lat="48.931553" lon="8.679993">
<ele>360.5</ele>
<speed>5.7</speed>
<course>244.9</course>
<desc>Speed 5.7 km/h Distance 5.39 km</desc>
<time>2010-03-14T11:33:01.43</time>
<name>4051</name>
</trkpt>
<trkpt lat="48.931547" lon="8.679972">
<ele>360.5</ele>
<speed>5.7</speed>
<course>250.6</course>
<desc>Speed 5.7 km/h Distance 5.39 km</desc>
<time>2010-03-14T11:33:02.43</time>
<name>4052</name>
</trkpt>
<trkpt lat="48.931542" lon="8.679950">
<ele>360.5</ele>
<speed>5.9</speed>
<course>250.6</course>
<desc>Speed 5.9 km/h Distance 5.39 km</desc>
<time>2010-03-14T11:33:03.43</time>
<name>4053</name>
</trkpt>
<trkpt lat="48.931537" lon="8.679928">
<ele>360.5</ele>
<speed>5.8</speed>
<course>244.9</course>
<desc>Speed 5.8 km/h Distance 5.39 km</desc>
<time>2010-03-14T11:33:04.42</time>
<name>4054</name>
</trkpt>
<trkpt lat="48.931530" lon="8.679907">
<ele>360.0</ele>
<speed>5.9</speed>
<course>244.9</course>
<desc>Speed 5.9 km/h Distance 5.39 km</desc>
<time>2010-03-14T11:33:05.42</time>
<name>4055</name>
</trkpt>
<trkpt lat="48.931523" lon="8.679885">
<ele>360.0</ele>
<speed>6.2</speed>
<course>246.5</course>
<desc>Speed 6.2 km/h Distance 5.39 km</desc>
<time>2010-03-14T11:33:06.43</time>
<name>4056</name>
</trkpt>
<trkpt lat="48.931517" lon="8.679862">
<ele>360.0</ele>
<speed>6.0</speed>
<course>252.0</course>
<desc>Speed 6.0 km/h Distance 5.40 km</desc>
<time>2010-03-14T11:33:07.42</time>
<name>4057</name>
</trkpt>
<trkpt lat="48.931512" lon="8.679838">
<ele>360.0</ele>
<speed>6.0</speed>
<course>252.0</course>
<desc>Speed 6.0 km/h Distance 5.40 km</desc>
<time>2010-03-14T11:33:08.42</time>
<name>4058</name>
</trkpt>
<trkpt lat="48.931507" lon="8.679815">
<ele>359.5</ele>
<speed>6.2</speed>
<course>246.5</course>
<desc>Speed 6.2 km/h Distance 5.40 km</desc>
<time>2010-03-14T11:33:09.43</time>
<name>4059</name>
</trkpt>
<trkpt lat="48.931500" lon="8.679792">
<ele>359.5</ele>
<speed>6.1</speed>
<course>250.6</course>
<desc>Speed 6.1 km/h Distance 5.40 km</desc>
<time>2010-03-14T11:33:10.42</time>
<name>4060</name>
</trkpt>
<trkpt lat="48.931495" lon="8.679770">
<ele>359.5</ele>
<speed>5.9</speed>
<course>237.7</course>
<desc>Speed 5.9 km/h Distance 5.40 km</desc>
<time>2010-03-14T11:33:11.42</time>
<name>4061</name>
</trkpt>
<trkpt lat="48.931487" lon="8.679750">
<ele>359.0</ele>
<speed>5.7</speed>
<course>241.0</course>
<desc>Speed 5.7 km/h Distance 5.40 km</desc>
<time>2010-03-14T11:33:12.42</time>
<name>4062</name>
</trkpt>
<trkpt lat="48.931480" lon="8.679732">
<ele>359.0</ele>
<speed>5.1</speed>
<course>231.9</course>
<desc>Speed 5.1 km/h Distance 5.41 km</desc>
<time>2010-03-14T11:33:13.42</time>
<name>4063</name>
</trkpt>
<trkpt lat="48.931478" lon="8.679728">
<ele>358.5</ele>
<speed>1.1</speed>
<course>270.0</course>
<desc>Speed 1.1 km/h Distance 5.41 km</desc>
<time>2010-03-14T11:33:14.42</time>
<name>4064</name>
</trkpt>
<trkpt lat="48.931478" lon="8.679727">
<ele>358.5</ele>
<speed>0.4</speed>
<course>270.0</course>
<desc>Speed 0.4 km/h Distance 5.41 km</desc>
<time>2010-03-14T11:33:15.42</time>
<name>4065</name>
</trkpt>
<trkpt lat="48.931478" lon="8.679727">
<ele>358.5</ele>
<speed>0.4</speed>
<course>270.0</course>
<desc>Speed 0.4 km/h Distance 5.41 km</desc>
<time>2010-03-14T11:33:16.42</time>
<name>4066</name>
</trkpt>
<trkpt lat="48.931478" lon="8.679727">
<ele>358.5</ele>
<speed>0.1</speed>
<course>270.0</course>
<desc>Speed 0.1 km/h Distance 5.41 km</desc>
<time>2010-03-14T11:33:17.43</time>
<name>4067</name>
</trkpt>
<trkpt lat="48.931478" lon="8.679727">
<ele>358.5</ele>
<speed>0.5</speed>
<course>280.7</course>
<desc>Speed 0.5 km/h Distance 5.41 km</desc>
<time>2010-03-14T11:33:18.43</time>
<name>4068</name>
</trkpt>
<trkpt lat="48.931480" lon="8.679713">
<ele>358.5</ele>
<speed>3.5</speed>
<course>255.8</course>
<desc>Speed 3.5 km/h Distance 5.41 km</desc>
<time>2010-03-14T11:33:19.42</time>
<name>4069</name>
</trkpt>
<trkpt lat="48.931477" lon="8.679693">
<ele>358.0</ele>
<speed>5.0</speed>
<course>243.1</course>
<desc>Speed 5.0 km/h Distance 5.41 km</desc>
<time>2010-03-14T11:33:20.43</time>
<name>4070</name>
</trkpt>
<trkpt lat="48.931470" lon="8.679673">
<ele>358.0</ele>
<speed>5.7</speed>
<course>247.4</course>
<desc>Speed 5.7 km/h Distance 5.41 km</desc>
<time>2010-03-14T11:33:21.43</time>
<name>4071</name>
</trkpt>
<trkpt lat="48.931465" lon="8.679655">
<ele>357.5</ele>
<speed>5.4</speed>
<course>252.0</course>
<desc>Speed 5.4 km/h Distance 5.41 km</desc>
<time>2010-03-14T11:33:22.42</time>
<name>4072</name>
</trkpt>
<trkpt lat="48.931460" lon="8.679632">
<ele>357.5</ele>
<speed>5.9</speed>
<course>249.2</course>
<desc>Speed 5.9 km/h Distance 5.41 km</desc>
<time>2010-03-14T11:33:23.42</time>
<name>4073</name>
</trkpt>
<trkpt lat="48.931455" lon="8.679612">
<ele>357.0</ele>
<speed>5.5</speed>
<course>257.7</course>
<desc>Speed 5.5 km/h Distance 5.42 km</desc>
<time>2010-03-14T11:33:24.42</time>
<name>4074</name>
</trkpt>
<trkpt lat="48.931452" lon="8.679588">
<ele>357.0</ele>
<speed>5.9</speed>
<course>245.4</course>
<desc>Speed 5.9 km/h Distance 5.42 km</desc>
<time>2010-03-14T11:33:25.42</time>
<name>4075</name>
</trkpt>
<trkpt lat="48.931447" lon="8.679572">
<ele>357.0</ele>
<speed>4.7</speed>
<course>238.7</course>
<desc>Speed 4.7 km/h Distance 5.42 km</desc>
<time>2010-03-14T11:33:26.42</time>
<name>4076</name>
</trkpt>
<trkpt lat="48.931433" lon="8.679538">
<ele>358.5</ele>
<speed>0.9</speed>
<course>247.2</course>
<desc>Speed 0.9 km/h Distance 5.42 km</desc>
<time>2010-03-14T11:33:27.42</time>
<name>4077</name>
</trkpt>
<trkpt lat="48.931420" lon="8.679490">
<ele>359.0</ele>
<speed>5.6</speed>
<course>256.8</course>
<desc>Speed 5.6 km/h Distance 5.43 km</desc>
<time>2010-03-14T11:33:29.42</time>
<name>4078</name>
</trkpt>
<trkpt lat="48.931417" lon="8.679468">
<ele>359.0</ele>
<speed>5.9</speed>
<course>256.8</course>
<desc>Speed 5.9 km/h Distance 5.43 km</desc>
<time>2010-03-14T11:33:30.42</time>
<name>4079</name>
</trkpt>
<trkpt lat="48.931413" lon="8.679447">
<ele>359.0</ele>
<speed>5.8</speed>
<course>250.6</course>
<desc>Speed 5.8 km/h Distance 5.43 km</desc>
<time>2010-03-14T11:33:31.41</time>
<name>4080</name>
</trkpt>
<trkpt lat="48.931408" lon="8.679425">
<ele>358.5</ele>
<speed>5.7</speed>
<course>250.6</course>
<desc>Speed 5.7 km/h Distance 5.43 km</desc>
<time>2010-03-14T11:33:32.42</time>
<name>4081</name>
</trkpt>
<trkpt lat="48.931403" lon="8.679403">
<ele>358.5</ele>
<speed>6.0</speed>
<course>250.6</course>
<desc>Speed 6.0 km/h Distance 5.43 km</desc>
<time>2010-03-14T11:33:33.42</time>
<name>4082</name>
</trkpt>
<trkpt lat="48.931398" lon="8.679382">
<ele>358.0</ele>
<speed>5.9</speed>
<course>250.6</course>
<desc>Speed 5.9 km/h Distance 5.43 km</desc>
<time>2010-03-14T11:33:34.41</time>
<name>4083</name>
</trkpt>
<trkpt lat="48.931393" lon="8.679360">
<ele>358.0</ele>
<speed>5.8</speed>
<course>256.8</course>
<desc>Speed 5.8 km/h Distance 5.44 km</desc>
<time>2010-03-14T11:33:35.41</time>
<name>4084</name>
</trkpt>
<trkpt lat="48.931390" lon="8.679338">
<ele>357.5</ele>
<speed>5.8</speed>
<course>251.9</course>
<desc>Speed 5.8 km/h Distance 5.44 km</desc>
<time>2010-03-14T11:33:36.41</time>
<name>4085</name>
</trkpt>
<trkpt lat="48.931385" lon="8.679315">
<ele>357.5</ele>
<speed>6.2</speed>
<course>250.6</course>
<desc>Speed 6.2 km/h Distance 5.44 km</desc>
<time>2010-03-14T11:33:37.42</time>
<name>4086</name>
</trkpt>
<trkpt lat="48.931380" lon="8.679293">
<ele>357.0</ele>
<speed>5.8</speed>
<course>261.3</course>
<desc>Speed 5.8 km/h Distance 5.44 km</desc>
<time>2010-03-14T11:33:38.41</time>
<name>4087</name>
</trkpt>
<trkpt lat="48.931378" lon="8.679277">
<ele>356.5</ele>
<speed>4.5</speed>
<course>263.8</course>
<desc>Speed 4.5 km/h Distance 5.44 km</desc>
<time>2010-03-14T11:33:39.41</time>
<name>4088</name>
</trkpt>
<trkpt lat="48.931377" lon="8.679253">
<ele>356.0</ele>
<speed>5.7</speed>
<course>256.8</course>
<desc>Speed 5.7 km/h Distance 5.44 km</desc>
<time>2010-03-14T11:33:40.41</time>
<name>4089</name>
</trkpt>
<trkpt lat="48.931373" lon="8.679232">
<ele>355.5</ele>
<speed>5.6</speed>
<course>277.9</course>
<desc>Speed 5.6 km/h Distance 5.45 km</desc>
<time>2010-03-14T11:33:41.41</time>
<name>4090</name>
</trkpt>
<trkpt lat="48.931375" lon="8.679213">
<ele>355.0</ele>
<speed>4.6</speed>
<course>288.7</course>
<desc>Speed 4.6 km/h Distance 5.45 km</desc>
<time>2010-03-14T11:33:42.41</time>
<name>4091</name>
</trkpt>
<trkpt lat="48.931378" lon="8.679198">
<ele>354.5</ele>
<speed>4.2</speed>
<course>277.9</course>
<desc>Speed 4.2 km/h Distance 5.45 km</desc>
<time>2010-03-14T11:33:43.41</time>
<name>4092</name>
</trkpt>
<trkpt lat="48.931380" lon="8.679180">
<ele>354.0</ele>
<speed>4.6</speed>
<course>296.9</course>
<desc>Speed 4.6 km/h Distance 5.45 km</desc>
<time>2010-03-14T11:33:44.41</time>
<name>4093</name>
</trkpt>
<trkpt lat="48.931385" lon="8.679165">
<ele>353.0</ele>
<speed>4.4</speed>
<course>296.9</course>
<desc>Speed 4.4 km/h Distance 5.45 km</desc>
<time>2010-03-14T11:33:45.41</time>
<name>4094</name>
</trkpt>
<trkpt lat="48.931390" lon="8.679150">
<ele>352.5</ele>
<speed>3.8</speed>
<course>296.9</course>
<desc>Speed 3.8 km/h Distance 5.45 km</desc>
<time>2010-03-14T11:33:46.41</time>
<name>4095</name>
</trkpt>
<trkpt lat="48.931395" lon="8.679135">
<ele>352.0</ele>
<speed>4.4</speed>
<course>322.5</course>
<desc>Speed 4.4 km/h Distance 5.45 km</desc>
<time>2010-03-14T11:33:47.41</time>
<name>4096</name>
</trkpt>
<trkpt lat="48.931405" lon="8.679123">
<ele>352.0</ele>
<speed>4.8</speed>
<course>330.2</course>
<desc>Speed 4.8 km/h Distance 5.45 km</desc>
<time>2010-03-14T11:33:48.41</time>
<name>4097</name>
</trkpt>
<trkpt lat="48.931418" lon="8.679112">
<ele>351.5</ele>
<speed>5.7</speed>
<course>330.2</course>
<desc>Speed 5.7 km/h Distance 5.46 km</desc>
<time>2010-03-14T11:33:49.41</time>
<name>4098</name>
</trkpt>
<trkpt lat="48.931432" lon="8.679100">
<ele>351.5</ele>
<speed>6.0</speed>
<course>334.0</course>
<desc>Speed 6.0 km/h Distance 5.46 km</desc>
<time>2010-03-14T11:33:50.41</time>
<name>4099</name>
</trkpt>
<trkpt lat="48.931445" lon="8.679090">
<ele>352.0</ele>
<speed>5.7</speed>
<course>339.8</course>
<desc>Speed 5.7 km/h Distance 5.46 km</desc>
<time>2010-03-14T11:33:51.41</time>
<name>4100</name>
</trkpt>
<trkpt lat="48.931457" lon="8.679083">
<ele>352.5</ele>
<speed>4.9</speed>
<course>330.6</course>
<desc>Speed 4.9 km/h Distance 5.46 km</desc>
<time>2010-03-14T11:33:52.41</time>
<name>4101</name>
</trkpt>
<trkpt lat="48.931468" lon="8.679073">
<ele>352.5</ele>
<speed>5.3</speed>
<course>323.5</course>
<desc>Speed 5.3 km/h Distance 5.46 km</desc>
<time>2010-03-14T11:33:53.41</time>
<name>4102</name>
</trkpt>
<trkpt lat="48.931482" lon="8.679058">
<ele>353.0</ele>
<speed>5.9</speed>
<course>326.8</course>
<desc>Speed 5.9 km/h Distance 5.46 km</desc>
<time>2010-03-14T11:33:54.41</time>
<name>4103</name>
</trkpt>
<trkpt lat="48.931495" lon="8.679045">
<ele>353.0</ele>
<speed>5.9</speed>
<course>326.6</course>
<desc>Speed 5.9 km/h Distance 5.47 km</desc>
<time>2010-03-14T11:33:55.40</time>
<name>4104</name>
</trkpt>
<trkpt lat="48.931508" lon="8.679032">
<ele>353.0</ele>
<speed>5.8</speed>
<course>336.3</course>
<desc>Speed 5.8 km/h Distance 5.47 km</desc>
<time>2010-03-14T11:33:56.40</time>
<name>4105</name>
</trkpt>
<trkpt lat="48.931523" lon="8.679022">
<ele>353.0</ele>
<speed>5.8</speed>
<course>337.9</course>
<desc>Speed 5.8 km/h Distance 5.47 km</desc>
<time>2010-03-14T11:33:57.40</time>
<name>4106</name>
</trkpt>
<trkpt lat="48.931537" lon="8.679013">
<ele>353.0</ele>
<speed>5.7</speed>
<course>326.8</course>
<desc>Speed 5.7 km/h Distance 5.47 km</desc>
<time>2010-03-14T11:33:58.40</time>
<name>4107</name>
</trkpt>
<trkpt lat="48.931547" lon="8.679003">
<ele>353.0</ele>
<speed>4.9</speed>
<course>326.5</course>
<desc>Speed 4.9 km/h Distance 5.47 km</desc>
<time>2010-03-14T11:33:59.40</time>
<name>4108</name>
</trkpt>
<trkpt lat="48.931555" lon="8.678995">
<ele>353.0</ele>
<speed>3.5</speed>
<course>341.8</course>
<desc>Speed 3.5 km/h Distance 5.47 km</desc>
<time>2010-03-14T11:34:00.40</time>
<name>4109</name>
</trkpt>
<trkpt lat="48.931565" lon="8.678990">
<ele>353.5</ele>
<speed>4.0</speed>
<course>326.8</course>
<desc>Speed 4.0 km/h Distance 5.47 km</desc>
<time>2010-03-14T11:34:01.41</time>
<name>4110</name>
</trkpt>
<trkpt lat="48.931573" lon="8.678982">
<ele>353.5</ele>
<speed>4.3</speed>
<course>334.8</course>
<desc>Speed 4.3 km/h Distance 5.48 km</desc>
<time>2010-03-14T11:34:02.40</time>
<name>4111</name>
</trkpt>
<trkpt lat="48.931585" lon="8.678973">
<ele>354.0</ele>
<speed>5.0</speed>
<course>330.6</course>
<desc>Speed 5.0 km/h Distance 5.48 km</desc>
<time>2010-03-14T11:34:03.40</time>
<name>4112</name>
</trkpt>
<trkpt lat="48.931597" lon="8.678963">
<ele>353.5</ele>
<speed>5.1</speed>
<course>339.1</course>
<desc>Speed 5.1 km/h Distance 5.48 km</desc>
<time>2010-03-14T11:34:04.41</time>
<name>4113</name>
</trkpt>
<trkpt lat="48.931608" lon="8.678957">
<ele>353.0</ele>
<speed>4.9</speed>
<course>341.6</course>
<desc>Speed 4.9 km/h Distance 5.48 km</desc>
<time>2010-03-14T11:34:05.40</time>
<name>4114</name>
</trkpt>
<trkpt lat="48.931622" lon="8.678950">
<ele>353.0</ele>
<speed>5.1</speed>
<course>337.7</course>
<desc>Speed 5.1 km/h Distance 5.48 km</desc>
<time>2010-03-14T11:34:06.40</time>
<name>4115</name>
</trkpt>
<trkpt lat="48.931635" lon="8.678942">
<ele>352.5</ele>
<speed>5.3</speed>
<course>333.8</course>
<desc>Speed 5.3 km/h Distance 5.48 km</desc>
<time>2010-03-14T11:34:07.40</time>
<name>4116</name>
</trkpt>
<trkpt lat="48.931648" lon="8.678932">
<ele>352.0</ele>
<speed>5.8</speed>
<course>341.6</course>
<desc>Speed 5.8 km/h Distance 5.48 km</desc>
<time>2010-03-14T11:34:08.40</time>
<name>4117</name>
</trkpt>
<trkpt lat="48.931662" lon="8.678925">
<ele>351.0</ele>
<speed>5.7</speed>
<course>330.8</course>
<desc>Speed 5.7 km/h Distance 5.49 km</desc>
<time>2010-03-14T11:34:09.41</time>
<name>4118</name>
</trkpt>
<trkpt lat="48.931673" lon="8.678915">
<ele>351.0</ele>
<speed>5.1</speed>
<course>336.3</course>
<desc>Speed 5.1 km/h Distance 5.49 km</desc>
<time>2010-03-14T11:34:10.40</time>
<name>4119</name>
</trkpt>
<trkpt lat="48.931688" lon="8.678905">
<ele>350.5</ele>
<speed>5.7</speed>
<course>337.4</course>
<desc>Speed 5.7 km/h Distance 5.49 km</desc>
<time>2010-03-14T11:34:11.41</time>
<name>4120</name>
</trkpt>
<trkpt lat="48.931702" lon="8.678897">
<ele>350.5</ele>
<speed>5.7</speed>
<course>337.7</course>
<desc>Speed 5.7 km/h Distance 5.49 km</desc>
<time>2010-03-14T11:34:12.40</time>
<name>4121</name>
</trkpt>
<trkpt lat="48.931715" lon="8.678888">
<ele>350.5</ele>
<speed>6.0</speed>
<course>326.7</course>
<desc>Speed 6.0 km/h Distance 5.49 km</desc>
<time>2010-03-14T11:34:13.41</time>
<name>4122</name>
</trkpt>
<trkpt lat="48.931727" lon="8.678877">
<ele>350.5</ele>
<speed>5.7</speed>
<course>330.2</course>
<desc>Speed 5.7 km/h Distance 5.49 km</desc>
<time>2010-03-14T11:34:14.40</time>
<name>4123</name>
</trkpt>
<trkpt lat="48.931740" lon="8.678865">
<ele>350.5</ele>
<speed>5.9</speed>
<course>326.6</course>
<desc>Speed 5.9 km/h Distance 5.50 km</desc>
<time>2010-03-14T11:34:15.40</time>
<name>4124</name>
</trkpt>
<trkpt lat="48.931752" lon="8.678853">
<ele>350.5</ele>
<speed>5.2</speed>
<course>322.7</course>
<desc>Speed 5.2 km/h Distance 5.50 km</desc>
<time>2010-03-14T11:34:16.40</time>
<name>4125</name>
</trkpt>
<trkpt lat="48.931762" lon="8.678842">
<ele>350.5</ele>
<speed>4.9</speed>
<course>330.8</course>
<desc>Speed 4.9 km/h Distance 5.50 km</desc>
<time>2010-03-14T11:34:17.40</time>
<name>4126</name>
</trkpt>
<trkpt lat="48.931773" lon="8.678832">
<ele>350.5</ele>
<speed>4.9</speed>
<course>334.8</course>
<desc>Speed 4.9 km/h Distance 5.50 km</desc>
<time>2010-03-14T11:34:18.40</time>
<name>4127</name>
</trkpt>
<trkpt lat="48.931785" lon="8.678823">
<ele>350.5</ele>
<speed>5.2</speed>
<course>322.5</course>
<desc>Speed 5.2 km/h Distance 5.50 km</desc>
<time>2010-03-14T11:34:19.40</time>
<name>4128</name>
</trkpt>
<trkpt lat="48.931795" lon="8.678812">
<ele>350.5</ele>
<speed>5.0</speed>
<course>326.7</course>
<desc>Speed 5.0 km/h Distance 5.50 km</desc>
<time>2010-03-14T11:34:20.40</time>
<name>4129</name>
</trkpt>
<trkpt lat="48.931807" lon="8.678800">
<ele>350.5</ele>
<speed>5.2</speed>
<course>334.8</course>
<desc>Speed 5.2 km/h Distance 5.50 km</desc>
<time>2010-03-14T11:34:21.39</time>
<name>4130</name>
</trkpt>
<trkpt lat="48.931818" lon="8.678792">
<ele>350.5</ele>
<speed>5.1</speed>
<course>326.9</course>
<desc>Speed 5.1 km/h Distance 5.51 km</desc>
<time>2010-03-14T11:34:22.39</time>
<name>4131</name>
</trkpt>
<trkpt lat="48.931830" lon="8.678780">
<ele>350.5</ele>
<speed>5.2</speed>
<course>337.7</course>
<desc>Speed 5.2 km/h Distance 5.51 km</desc>
<time>2010-03-14T11:34:23.39</time>
<name>4132</name>
</trkpt>
<trkpt lat="48.931843" lon="8.678772">
<ele>351.0</ele>
<speed>5.4</speed>
<course>334.8</course>
<desc>Speed 5.4 km/h Distance 5.51 km</desc>
<time>2010-03-14T11:34:24.39</time>
<name>4133</name>
</trkpt>
<trkpt lat="48.931855" lon="8.678763">
<ele>351.0</ele>
<speed>5.6</speed>
<course>334.0</course>
<desc>Speed 5.6 km/h Distance 5.51 km</desc>
<time>2010-03-14T11:34:25.39</time>
<name>4134</name>
</trkpt>
<trkpt lat="48.931868" lon="8.678753">
<ele>350.5</ele>
<speed>5.4</speed>
<course>334.8</course>
<desc>Speed 5.4 km/h Distance 5.51 km</desc>
<time>2010-03-14T11:34:26.40</time>
<name>4135</name>
</trkpt>
<trkpt lat="48.931880" lon="8.678745">
<ele>350.5</ele>
<speed>5.0</speed>
<course>330.6</course>
<desc>Speed 5.0 km/h Distance 5.51 km</desc>
<time>2010-03-14T11:34:27.39</time>
<name>4136</name>
</trkpt>
<trkpt lat="48.931892" lon="8.678735">
<ele>350.5</ele>
<speed>5.3</speed>
<course>330.6</course>
<desc>Speed 5.3 km/h Distance 5.52 km</desc>
<time>2010-03-14T11:34:28.39</time>
<name>4137</name>
</trkpt>
<trkpt lat="48.931903" lon="8.678725">
<ele>350.5</ele>
<speed>5.4</speed>
<course>330.8</course>
<desc>Speed 5.4 km/h Distance 5.52 km</desc>
<time>2010-03-14T11:34:29.39</time>
<name>4138</name>
</trkpt>
<trkpt lat="48.931915" lon="8.678715">
<ele>350.5</ele>
<speed>5.1</speed>
<course>337.4</course>
<desc>Speed 5.1 km/h Distance 5.52 km</desc>
<time>2010-03-14T11:34:30.39</time>
<name>4139</name>
</trkpt>
<trkpt lat="48.931928" lon="8.678707">
<ele>350.5</ele>
<speed>5.3</speed>
<course>322.5</course>
<desc>Speed 5.3 km/h Distance 5.52 km</desc>
<time>2010-03-14T11:34:31.39</time>
<name>4140</name>
</trkpt>
<trkpt lat="48.931938" lon="8.678695">
<ele>350.5</ele>
<speed>5.0</speed>
<course>323.5</course>
<desc>Speed 5.0 km/h Distance 5.52 km</desc>
<time>2010-03-14T11:34:32.39</time>
<name>4141</name>
</trkpt>
<trkpt lat="48.931952" lon="8.678680">
<ele>350.5</ele>
<speed>6.0</speed>
<course>326.6</course>
<desc>Speed 6.0 km/h Distance 5.52 km</desc>
<time>2010-03-14T11:34:33.39</time>
<name>4142</name>
</trkpt>
<trkpt lat="48.931965" lon="8.678667">
<ele>350.5</ele>
<speed>5.7</speed>
<course>323.1</course>
<desc>Speed 5.7 km/h Distance 5.53 km</desc>
<time>2010-03-14T11:34:34.39</time>
<name>4143</name>
</trkpt>
<trkpt lat="48.931977" lon="8.678653">
<ele>350.5</ele>
<speed>5.3</speed>
<course>344.0</course>
<desc>Speed 5.3 km/h Distance 5.53 km</desc>
<time>2010-03-14T11:34:35.39</time>
<name>4144</name>
</trkpt>
<trkpt lat="48.931988" lon="8.678648">
<ele>351.0</ele>
<speed>4.6</speed>
<course>331.4</course>
<desc>Speed 4.6 km/h Distance 5.53 km</desc>
<time>2010-03-14T11:34:36.39</time>
<name>4145</name>
</trkpt>
<trkpt lat="48.931998" lon="8.678640">
<ele>351.0</ele>
<speed>4.9</speed>
<course>337.9</course>
<desc>Speed 4.9 km/h Distance 5.53 km</desc>
<time>2010-03-14T11:34:37.39</time>
<name>4146</name>
</trkpt>
<trkpt lat="48.932012" lon="8.678632">
<ele>351.0</ele>
<speed>5.4</speed>
<course>326.7</course>
<desc>Speed 5.4 km/h Distance 5.53 km</desc>
<time>2010-03-14T11:34:38.39</time>
<name>4147</name>
</trkpt>
<trkpt lat="48.932023" lon="8.678620">
<ele>351.5</ele>
<speed>5.0</speed>
<course>330.6</course>
<desc>Speed 5.0 km/h Distance 5.53 km</desc>
<time>2010-03-14T11:34:39.39</time>
<name>4148</name>
</trkpt>
<trkpt lat="48.932035" lon="8.678610">
<ele>351.5</ele>
<speed>4.7</speed>
<course>292.6</course>
<desc>Speed 4.7 km/h Distance 5.53 km</desc>
<time>2010-03-14T11:34:40.39</time>
<name>4149</name>
</trkpt>
<trkpt lat="48.932040" lon="8.678592">
<ele>352.5</ele>
<speed>4.3</speed>
<course>336.2</course>
<desc>Speed 4.3 km/h Distance 5.54 km</desc>
<time>2010-03-14T11:34:41.39</time>
<name>4150</name>
</trkpt>
<trkpt lat="48.932050" lon="8.678585">
<ele>352.5</ele>
<speed>4.1</speed>
<course>274.6</course>
<desc>Speed 4.1 km/h Distance 5.54 km</desc>
<time>2010-03-14T11:34:42.40</time>
<name>4151</name>
</trkpt>
<trkpt lat="48.932052" lon="8.678553">
<ele>354.5</ele>
<speed>4.2</speed>
<course>331.1</course>
<desc>Speed 4.2 km/h Distance 5.54 km</desc>
<time>2010-03-14T11:34:43.39</time>
<name>4152</name>
</trkpt>
<trkpt lat="48.932062" lon="8.678545">
<ele>354.5</ele>
<speed>4.6</speed>
<course>326.6</course>
<desc>Speed 4.6 km/h Distance 5.54 km</desc>
<time>2010-03-14T11:34:44.38</time>
<name>4153</name>
</trkpt>
<trkpt lat="48.932072" lon="8.678535">
<ele>354.5</ele>
<speed>4.9</speed>
<course>330.2</course>
<desc>Speed 4.9 km/h Distance 5.54 km</desc>
<time>2010-03-14T11:34:45.40</time>
<name>4154</name>
</trkpt>
<trkpt lat="48.932085" lon="8.678523">
<ele>354.5</ele>
<speed>5.5</speed>
<course>336.3</course>
<desc>Speed 5.5 km/h Distance 5.54 km</desc>
<time>2010-03-14T11:34:46.38</time>
<name>4155</name>
</trkpt>
<trkpt lat="48.932100" lon="8.678513">
<ele>355.0</ele>
<speed>6.1</speed>
<course>337.7</course>
<desc>Speed 6.1 km/h Distance 5.55 km</desc>
<time>2010-03-14T11:34:47.39</time>
<name>4156</name>
</trkpt>
<trkpt lat="48.932113" lon="8.678505">
<ele>355.0</ele>
<speed>6.0</speed>
<course>339.9</course>
<desc>Speed 6.0 km/h Distance 5.55 km</desc>
<time>2010-03-14T11:34:48.41</time>
<name>4157</name>
</trkpt>
<trkpt lat="48.932128" lon="8.678497">
<ele>355.0</ele>
<speed>5.9</speed>
<course>330.2</course>
<desc>Speed 5.9 km/h Distance 5.55 km</desc>
<time>2010-03-14T11:34:49.38</time>
<name>4158</name>
</trkpt>
<trkpt lat="48.932142" lon="8.678485">
<ele>355.0</ele>
<speed>5.7</speed>
<course>333.8</course>
<desc>Speed 5.7 km/h Distance 5.55 km</desc>
<time>2010-03-14T11:34:50.38</time>
<name>4159</name>
</trkpt>
<trkpt lat="48.932155" lon="8.678475">
<ele>355.0</ele>
<speed>5.7</speed>
<course>340.1</course>
<desc>Speed 5.7 km/h Distance 5.55 km</desc>
<time>2010-03-14T11:34:51.41</time>
<name>4160</name>
</trkpt>
<trkpt lat="48.932170" lon="8.678467">
<ele>355.0</ele>
<speed>6.0</speed>
<course>331.0</course>
<desc>Speed 6.0 km/h Distance 5.55 km</desc>
<time>2010-03-14T11:34:52.38</time>
<name>4161</name>
</trkpt>
<trkpt lat="48.932182" lon="8.678457">
<ele>355.0</ele>
<speed>5.7</speed>
<course>347.8</course>
<desc>Speed 5.7 km/h Distance 5.56 km</desc>
<time>2010-03-14T11:34:53.38</time>
<name>4162</name>
</trkpt>
<trkpt lat="48.932197" lon="8.678452">
<ele>355.0</ele>
<speed>5.9</speed>
<course>340.1</course>
<desc>Speed 5.9 km/h Distance 5.56 km</desc>
<time>2010-03-14T11:34:54.38</time>
<name>4163</name>
</trkpt>
<trkpt lat="48.932212" lon="8.678443">
<ele>355.5</ele>
<speed>5.7</speed>
<course>330.6</course>
<desc>Speed 5.7 km/h Distance 5.56 km</desc>
<time>2010-03-14T11:34:55.38</time>
<name>4164</name>
</trkpt>
<trkpt lat="48.932223" lon="8.678433">
<ele>355.5</ele>
<speed>5.5</speed>
<course>334.0</course>
<desc>Speed 5.5 km/h Distance 5.56 km</desc>
<time>2010-03-14T11:34:56.38</time>
<name>4165</name>
</trkpt>
<trkpt lat="48.932237" lon="8.678423">
<ele>355.5</ele>
<speed>5.7</speed>
<course>336.3</course>
<desc>Speed 5.7 km/h Distance 5.56 km</desc>
<time>2010-03-14T11:34:57.38</time>
<name>4166</name>
</trkpt>
<trkpt lat="48.932252" lon="8.678413">
<ele>355.5</ele>
<speed>5.8</speed>
<course>337.9</course>
<desc>Speed 5.8 km/h Distance 5.56 km</desc>
<time>2010-03-14T11:34:58.38</time>
<name>4167</name>
</trkpt>
<trkpt lat="48.932265" lon="8.678405">
<ele>355.5</ele>
<speed>6.0</speed>
<course>337.7</course>
<desc>Speed 6.0 km/h Distance 5.57 km</desc>
<time>2010-03-14T11:34:59.38</time>
<name>4168</name>
</trkpt>
<trkpt lat="48.932278" lon="8.678397">
<ele>356.0</ele>
<speed>5.8</speed>
<course>339.9</course>
<desc>Speed 5.8 km/h Distance 5.57 km</desc>
<time>2010-03-14T11:35:00.38</time>
<name>4169</name>
</trkpt>
<trkpt lat="48.932293" lon="8.678388">
<ele>356.0</ele>
<speed>5.8</speed>
<course>326.6</course>
<desc>Speed 5.8 km/h Distance 5.57 km</desc>
<time>2010-03-14T11:35:01.39</time>
<name>4170</name>
</trkpt>
<trkpt lat="48.932305" lon="8.678377">
<ele>356.0</ele>
<speed>5.6</speed>
<course>334.0</course>
<desc>Speed 5.6 km/h Distance 5.57 km</desc>
<time>2010-03-14T11:35:02.38</time>
<name>4171</name>
</trkpt>
<trkpt lat="48.932318" lon="8.678367">
<ele>356.5</ele>
<speed>5.7</speed>
<course>334.0</course>
<desc>Speed 5.7 km/h Distance 5.57 km</desc>
<time>2010-03-14T11:35:03.38</time>
<name>4172</name>
</trkpt>
<trkpt lat="48.932332" lon="8.678357">
<ele>356.5</ele>
<speed>5.4</speed>
<course>335.1</course>
<desc>Speed 5.4 km/h Distance 5.57 km</desc>
<time>2010-03-14T11:35:04.37</time>
<name>4173</name>
</trkpt>
<trkpt lat="48.932343" lon="8.678348">
<ele>357.0</ele>
<speed>5.5</speed>
<course>337.9</course>
<desc>Speed 5.5 km/h Distance 5.57 km</desc>
<time>2010-03-14T11:35:05.37</time>
<name>4174</name>
</trkpt>
<trkpt lat="48.932357" lon="8.678340">
<ele>357.0</ele>
<speed>5.5</speed>
<course>337.9</course>
<desc>Speed 5.5 km/h Distance 5.58 km</desc>
<time>2010-03-14T11:35:06.37</time>
<name>4175</name>
</trkpt>
<trkpt lat="48.932370" lon="8.678332">
<ele>357.0</ele>
<speed>5.5</speed>
<course>330.2</course>
<desc>Speed 5.5 km/h Distance 5.58 km</desc>
<time>2010-03-14T11:35:07.37</time>
<name>4176</name>
</trkpt>
<trkpt lat="48.932383" lon="8.678320">
<ele>357.0</ele>
<speed>5.9</speed>
<course>329.6</course>
<desc>Speed 5.9 km/h Distance 5.58 km</desc>
<time>2010-03-14T11:35:08.38</time>
<name>4177</name>
</trkpt>
<trkpt lat="48.932398" lon="8.678307">
<ele>357.0</ele>
<speed>6.0</speed>
<course>326.7</course>
<desc>Speed 6.0 km/h Distance 5.58 km</desc>
<time>2010-03-14T11:35:09.38</time>
<name>4178</name>
</trkpt>
<trkpt lat="48.932410" lon="8.678295">
<ele>357.0</ele>
<speed>5.3</speed>
<course>333.8</course>
<desc>Speed 5.3 km/h Distance 5.58 km</desc>
<time>2010-03-14T11:35:10.37</time>
<name>4179</name>
</trkpt>
<trkpt lat="48.932423" lon="8.678285">
<ele>357.0</ele>
<speed>5.7</speed>
<course>326.6</course>
<desc>Speed 5.7 km/h Distance 5.58 km</desc>
<time>2010-03-14T11:35:11.37</time>
<name>4180</name>
</trkpt>
<trkpt lat="48.932435" lon="8.678273">
<ele>357.0</ele>
<speed>5.7</speed>
<course>330.2</course>
<desc>Speed 5.7 km/h Distance 5.59 km</desc>
<time>2010-03-14T11:35:12.38</time>
<name>4181</name>
</trkpt>
<trkpt lat="48.932448" lon="8.678262">
<ele>357.0</ele>
<speed>5.5</speed>
<course>333.6</course>
<desc>Speed 5.5 km/h Distance 5.59 km</desc>
<time>2010-03-14T11:35:13.38</time>
<name>4182</name>
</trkpt>
<trkpt lat="48.932462" lon="8.678252">
<ele>356.5</ele>
<speed>5.8</speed>
<course>326.6</course>
<desc>Speed 5.8 km/h Distance 5.59 km</desc>
<time>2010-03-14T11:35:14.38</time>
<name>4183</name>
</trkpt>
<trkpt lat="48.932473" lon="8.678240">
<ele>356.0</ele>
<speed>5.8</speed>
<course>336.3</course>
<desc>Speed 5.8 km/h Distance 5.59 km</desc>
<time>2010-03-14T11:35:15.37</time>
<name>4184</name>
</trkpt>
<trkpt lat="48.932488" lon="8.678230">
<ele>356.5</ele>
<speed>5.8</speed>
<course>341.9</course>
<desc>Speed 5.8 km/h Distance 5.59 km</desc>
<time>2010-03-14T11:35:16.37</time>
<name>4185</name>
</trkpt>
<trkpt lat="48.932502" lon="8.678223">
<ele>356.5</ele>
<speed>5.7</speed>
<course>337.9</course>
<desc>Speed 5.7 km/h Distance 5.59 km</desc>
<time>2010-03-14T11:35:17.38</time>
<name>4186</name>
</trkpt>
<trkpt lat="48.932515" lon="8.678215">
<ele>356.5</ele>
<speed>5.5</speed>
<course>337.7</course>
<desc>Speed 5.5 km/h Distance 5.60 km</desc>
<time>2010-03-14T11:35:18.37</time>
<name>4187</name>
</trkpt>
<trkpt lat="48.932528" lon="8.678207">
<ele>356.5</ele>
<speed>5.6</speed>
<course>330.6</course>
<desc>Speed 5.6 km/h Distance 5.60 km</desc>
<time>2010-03-14T11:35:19.37</time>
<name>4188</name>
</trkpt>
<trkpt lat="48.932540" lon="8.678197">
<ele>356.0</ele>
<speed>5.5</speed>
<course>333.6</course>
<desc>Speed 5.5 km/h Distance 5.60 km</desc>
<time>2010-03-14T11:35:20.37</time>
<name>4189</name>
</trkpt>
<trkpt lat="48.932553" lon="8.678187">
<ele>355.5</ele>
<speed>5.6</speed>
<course>326.6</course>
<desc>Speed 5.6 km/h Distance 5.60 km</desc>
<time>2010-03-14T11:35:21.37</time>
<name>4190</name>
</trkpt>
<trkpt lat="48.932565" lon="8.678175">
<ele>355.0</ele>
<speed>5.3</speed>
<course>330.6</course>
<desc>Speed 5.3 km/h Distance 5.60 km</desc>
<time>2010-03-14T11:35:22.38</time>
<name>4191</name>
</trkpt>
<trkpt lat="48.932577" lon="8.678165">
<ele>355.0</ele>
<speed>5.3</speed>
<course>333.8</course>
<desc>Speed 5.3 km/h Distance 5.60 km</desc>
<time>2010-03-14T11:35:23.37</time>
<name>4192</name>
</trkpt>
<trkpt lat="48.932590" lon="8.678155">
<ele>354.5</ele>
<speed>6.1</speed>
<course>333.8</course>
<desc>Speed 6.1 km/h Distance 5.61 km</desc>
<time>2010-03-14T11:35:24.38</time>
<name>4193</name>
</trkpt>
<trkpt lat="48.932603" lon="8.678145">
<ele>354.0</ele>
<speed>5.9</speed>
<course>333.8</course>
<desc>Speed 5.9 km/h Distance 5.61 km</desc>
<time>2010-03-14T11:35:25.37</time>
<name>4194</name>
</trkpt>
<trkpt lat="48.932617" lon="8.678135">
<ele>353.5</ele>
<speed>5.6</speed>
<course>326.7</course>
<desc>Speed 5.6 km/h Distance 5.61 km</desc>
<time>2010-03-14T11:35:26.37</time>
<name>4195</name>
</trkpt>
<trkpt lat="48.932628" lon="8.678123">
<ele>353.0</ele>
<speed>5.3</speed>
<course>341.9</course>
<desc>Speed 5.3 km/h Distance 5.61 km</desc>
<time>2010-03-14T11:35:27.36</time>
<name>4196</name>
</trkpt>
<trkpt lat="48.932642" lon="8.678117">
<ele>353.0</ele>
<speed>5.7</speed>
<course>335.1</course>
<desc>Speed 5.7 km/h Distance 5.61 km</desc>
<time>2010-03-14T11:35:28.37</time>
<name>4197</name>
</trkpt>
<trkpt lat="48.932653" lon="8.678108">
<ele>353.0</ele>
<speed>5.1</speed>
<course>326.6</course>
<desc>Speed 5.1 km/h Distance 5.61 km</desc>
<time>2010-03-14T11:35:29.37</time>
<name>4198</name>
</trkpt>
<trkpt lat="48.932665" lon="8.678097">
<ele>352.5</ele>
<speed>5.3</speed>
<course>317.4</course>
<desc>Speed 5.3 km/h Distance 5.62 km</desc>
<time>2010-03-14T11:35:30.36</time>
<name>4199</name>
</trkpt>
<trkpt lat="48.932673" lon="8.678085">
<ele>351.5</ele>
<speed>4.6</speed>
<course>341.9</course>
<desc>Speed 4.6 km/h Distance 5.62 km</desc>
<time>2010-03-14T11:35:31.37</time>
<name>4200</name>
</trkpt>
<trkpt lat="48.932687" lon="8.678078">
<ele>352.0</ele>
<speed>5.4</speed>
<course>343.7</course>
<desc>Speed 5.4 km/h Distance 5.62 km</desc>
<time>2010-03-14T11:35:32.36</time>
<name>4201</name>
</trkpt>
<trkpt lat="48.932702" lon="8.678072">
<ele>352.0</ele>
<speed>5.8</speed>
<course>326.8</course>
<desc>Speed 5.8 km/h Distance 5.62 km</desc>
<time>2010-03-14T11:35:33.36</time>
<name>4202</name>
</trkpt>
<trkpt lat="48.932712" lon="8.678062">
<ele>352.0</ele>
<speed>5.1</speed>
<course>330.6</course>
<desc>Speed 5.1 km/h Distance 5.62 km</desc>
<time>2010-03-14T11:35:34.36</time>
<name>4203</name>
</trkpt>
<trkpt lat="48.932723" lon="8.678052">
<ele>352.5</ele>
<speed>5.0</speed>
<course>322.5</course>
<desc>Speed 5.0 km/h Distance 5.62 km</desc>
<time>2010-03-14T11:35:35.36</time>
<name>4204</name>
</trkpt>
<trkpt lat="48.932733" lon="8.678040">
<ele>352.0</ele>
<speed>4.8</speed>
<course>341.8</course>
<desc>Speed 4.8 km/h Distance 5.62 km</desc>
<time>2010-03-14T11:35:36.36</time>
<name>4205</name>
</trkpt>
<trkpt lat="48.932743" lon="8.678035">
<ele>352.0</ele>
<speed>4.1</speed>
<course>348.8</course>
<desc>Speed 4.1 km/h Distance 5.63 km</desc>
<time>2010-03-14T11:35:37.36</time>
<name>4206</name>
</trkpt>
<trkpt lat="48.932755" lon="8.678032">
<ele>352.0</ele>
<speed>4.4</speed>
<course>344.5</course>
<desc>Speed 4.4 km/h Distance 5.63 km</desc>
<time>2010-03-14T11:35:38.36</time>
<name>4207</name>
</trkpt>
<trkpt lat="48.932767" lon="8.678027">
<ele>352.5</ele>
<speed>4.8</speed>
<course>334.8</course>
<desc>Speed 4.8 km/h Distance 5.63 km</desc>
<time>2010-03-14T11:35:39.36</time>
<name>4208</name>
</trkpt>
<trkpt lat="48.932778" lon="8.678018">
<ele>352.0</ele>
<speed>4.9</speed>
<course>339.1</course>
<desc>Speed 4.9 km/h Distance 5.63 km</desc>
<time>2010-03-14T11:35:40.36</time>
<name>4209</name>
</trkpt>
<trkpt lat="48.932790" lon="8.678012">
<ele>352.0</ele>
<speed>4.6</speed>
<course>344.0</course>
<desc>Speed 4.6 km/h Distance 5.63 km</desc>
<time>2010-03-14T11:35:41.36</time>
<name>4210</name>
</trkpt>
<trkpt lat="48.932802" lon="8.678007">
<ele>352.0</ele>
<speed>5.0</speed>
<course>341.9</course>
<desc>Speed 5.0 km/h Distance 5.63 km</desc>
<time>2010-03-14T11:35:42.36</time>
<name>4211</name>
</trkpt>
<trkpt lat="48.932815" lon="8.678000">
<ele>352.5</ele>
<speed>5.1</speed>
<course>322.5</course>
<desc>Speed 5.1 km/h Distance 5.63 km</desc>
<time>2010-03-14T11:35:43.36</time>
<name>4212</name>
</trkpt>
<trkpt lat="48.932825" lon="8.677988">
<ele>351.5</ele>
<speed>4.8</speed>
<course>335.1</course>
<desc>Speed 4.8 km/h Distance 5.64 km</desc>
<time>2010-03-14T11:35:44.36</time>
<name>4213</name>
</trkpt>
<trkpt lat="48.932837" lon="8.677980">
<ele>351.5</ele>
<speed>5.3</speed>
<course>330.6</course>
<desc>Speed 5.3 km/h Distance 5.64 km</desc>
<time>2010-03-14T11:35:45.36</time>
<name>4214</name>
</trkpt>
<trkpt lat="48.932848" lon="8.677970">
<ele>351.5</ele>
<speed>5.0</speed>
<course>322.5</course>
<desc>Speed 5.0 km/h Distance 5.64 km</desc>
<time>2010-03-14T11:35:46.36</time>
<name>4215</name>
</trkpt>
<trkpt lat="48.932858" lon="8.677958">
<ele>351.5</ele>
<speed>5.1</speed>
<course>333.6</course>
<desc>Speed 5.1 km/h Distance 5.64 km</desc>
<time>2010-03-14T11:35:47.36</time>
<name>4216</name>
</trkpt>
<trkpt lat="48.932872" lon="8.677948">
<ele>351.0</ele>
<speed>5.2</speed>
<course>322.5</course>
<desc>Speed 5.2 km/h Distance 5.64 km</desc>
<time>2010-03-14T11:35:48.35</time>
<name>4217</name>
</trkpt>
<trkpt lat="48.932882" lon="8.677937">
<ele>350.5</ele>
<speed>4.9</speed>
<course>317.4</course>
<desc>Speed 4.9 km/h Distance 5.64 km</desc>
<time>2010-03-14T11:35:49.35</time>
<name>4218</name>
</trkpt>
<trkpt lat="48.932890" lon="8.677925">
<ele>350.0</ele>
<speed>4.4</speed>
<course>287.0</course>
<desc>Speed 4.4 km/h Distance 5.64 km</desc>
<time>2010-03-14T11:35:50.36</time>
<name>4219</name>
</trkpt>
<trkpt lat="48.932893" lon="8.677908">
<ele>350.0</ele>
<speed>4.2</speed>
<course>278.7</course>
<desc>Speed 4.2 km/h Distance 5.65 km</desc>
<time>2010-03-14T11:35:51.36</time>
<name>4220</name>
</trkpt>
<trkpt lat="48.932895" lon="8.677892">
<ele>350.0</ele>
<speed>4.5</speed>
<course>283.2</course>
<desc>Speed 4.5 km/h Distance 5.65 km</desc>
<time>2010-03-14T11:35:52.36</time>
<name>4221</name>
</trkpt>
<trkpt lat="48.932898" lon="8.677870">
<ele>350.0</ele>
<speed>5.3</speed>
<course>262.8</course>
<desc>Speed 5.3 km/h Distance 5.65 km</desc>
<time>2010-03-14T11:35:53.35</time>
<name>4222</name>
</trkpt>
<trkpt lat="48.932897" lon="8.677850">
<ele>350.0</ele>
<speed>5.3</speed>
<course>256.8</course>
<desc>Speed 5.3 km/h Distance 5.65 km</desc>
<time>2010-03-14T11:35:54.35</time>
<name>4223</name>
</trkpt>
<trkpt lat="48.932893" lon="8.677828">
<ele>350.0</ele>
<speed>5.7</speed>
<course>257.7</course>
<desc>Speed 5.7 km/h Distance 5.65 km</desc>
<time>2010-03-14T11:35:55.35</time>
<name>4224</name>
</trkpt>
<trkpt lat="48.932890" lon="8.677805">
<ele>351.0</ele>
<speed>6.0</speed>
<course>264.2</course>
<desc>Speed 6.0 km/h Distance 5.65 km</desc>
<time>2010-03-14T11:35:56.35</time>
<name>4225</name>
</trkpt>
<trkpt lat="48.932888" lon="8.677780">
<ele>352.0</ele>
<speed>6.1</speed>
<course>257.7</course>
<desc>Speed 6.1 km/h Distance 5.65 km</desc>
<time>2010-03-14T11:35:57.35</time>
<name>4226</name>
</trkpt>
<trkpt lat="48.932885" lon="8.677757">
<ele>353.0</ele>
<speed>5.7</speed>
<course>256.8</course>
<desc>Speed 5.7 km/h Distance 5.66 km</desc>
<time>2010-03-14T11:35:58.35</time>
<name>4227</name>
</trkpt>
<trkpt lat="48.932882" lon="8.677735">
<ele>353.0</ele>
<speed>5.6</speed>
<course>270.0</course>
<desc>Speed 5.6 km/h Distance 5.66 km</desc>
<time>2010-03-14T11:35:59.35</time>
<name>4228</name>
</trkpt>
<trkpt lat="48.932882" lon="8.677710">
<ele>354.0</ele>
<speed>6.2</speed>
<course>270.0</course>
<desc>Speed 6.2 km/h Distance 5.66 km</desc>
<time>2010-03-14T11:36:00.36</time>
<name>4229</name>
</trkpt>
<trkpt lat="48.932882" lon="8.677685">
<ele>355.0</ele>
<speed>5.9</speed>
<course>270.0</course>
<desc>Speed 5.9 km/h Distance 5.66 km</desc>
<time>2010-03-14T11:36:01.36</time>
<name>4230</name>
</trkpt>
<trkpt lat="48.932882" lon="8.677663">
<ele>355.5</ele>
<speed>5.5</speed>
<course>263.8</course>
<desc>Speed 5.5 km/h Distance 5.66 km</desc>
<time>2010-03-14T11:36:02.34</time>
<name>4231</name>
</trkpt>
<trkpt lat="48.932880" lon="8.677640">
<ele>356.0</ele>
<speed>6.0</speed>
<course>270.0</course>
<desc>Speed 6.0 km/h Distance 5.66 km</desc>
<time>2010-03-14T11:36:03.34</time>
<name>4232</name>
</trkpt>
<trkpt lat="48.932880" lon="8.677617">
<ele>355.5</ele>
<speed>5.8</speed>
<course>284.2</course>
<desc>Speed 5.8 km/h Distance 5.67 km</desc>
<time>2010-03-14T11:36:04.34</time>
<name>4233</name>
</trkpt>
<trkpt lat="48.932883" lon="8.677597">
<ele>356.0</ele>
<speed>5.0</speed>
<course>296.9</course>
<desc>Speed 5.0 km/h Distance 5.67 km</desc>
<time>2010-03-14T11:36:05.34</time>
<name>4234</name>
</trkpt>
<trkpt lat="48.932890" lon="8.677577">
<ele>356.5</ele>
<speed>5.5</speed>
<course>307.3</course>
<desc>Speed 5.5 km/h Distance 5.67 km</desc>
<time>2010-03-14T11:36:06.34</time>
<name>4235</name>
</trkpt>
<trkpt lat="48.932898" lon="8.677560">
<ele>356.5</ele>
<speed>5.2</speed>
<course>312.4</course>
<desc>Speed 5.2 km/h Distance 5.67 km</desc>
<time>2010-03-14T11:36:07.34</time>
<name>4236</name>
</trkpt>
<trkpt lat="48.932908" lon="8.677543">
<ele>356.5</ele>
<speed>5.8</speed>
<course>304.1</course>
<desc>Speed 5.8 km/h Distance 5.67 km</desc>
<time>2010-03-14T11:36:08.34</time>
<name>4237</name>
</trkpt>
<trkpt lat="48.932915" lon="8.677528">
<ele>356.5</ele>
<speed>4.8</speed>
<course>307.4</course>
<desc>Speed 4.8 km/h Distance 5.67 km</desc>
<time>2010-03-14T11:36:09.34</time>
<name>4238</name>
</trkpt>
<trkpt lat="48.932920" lon="8.677518">
<ele>356.5</ele>
<speed>3.0</speed>
<course>270.0</course>
<desc>Speed 3.0 km/h Distance 5.68 km</desc>
<time>2010-03-14T11:36:10.34</time>
<name>4239</name>
</trkpt>
<trkpt lat="48.932920" lon="8.677515">
<ele>356.5</ele>
<speed>0.9</speed>
<course>270.0</course>
<desc>Speed 0.9 km/h Distance 5.68 km</desc>
<time>2010-03-14T11:36:11.35</time>
<name>4240</name>
</trkpt>
<trkpt lat="48.932920" lon="8.677513">
<ele>356.5</ele>
<speed>0.7</speed>
<course>270.0</course>
<desc>Speed 0.7 km/h Distance 5.68 km</desc>
<time>2010-03-14T11:36:12.34</time>
<name>4241</name>
</trkpt>
<trkpt lat="48.932920" lon="8.677513">
<ele>357.0</ele>
<speed>0.2</speed>
<course>270.0</course>
<desc>Speed 0.2 km/h Distance 5.68 km</desc>
<time>2010-03-14T11:36:13.35</time>
<name>4242</name>
</trkpt>
<trkpt lat="48.932920" lon="8.677510">
<ele>357.0</ele>
<speed>0.3</speed>
<course>270.0</course>
<desc>Speed 0.3 km/h Distance 5.68 km</desc>
<time>2010-03-14T11:36:14.35</time>
<name>4243</name>
</trkpt>
<trkpt lat="48.932920" lon="8.677508">
<ele>357.0</ele>
<speed>0.1</speed>
<course>270.0</course>
<desc>Speed 0.1 km/h Distance 5.68 km</desc>
<time>2010-03-14T11:36:15.35</time>
<name>4244</name>
</trkpt>
<trkpt lat="48.932920" lon="8.677508">
<ele>357.0</ele>
<speed>0.1</speed>
<course>12.6</course>
<desc>Speed 0.1 km/h Distance 5.68 km</desc>
<time>2010-03-14T11:36:16.34</time>
<name>4245</name>
</trkpt>
<trkpt lat="48.932922" lon="8.677508">
<ele>357.5</ele>
<speed>0.5</speed>
<course>12.6</course>
<desc>Speed 0.5 km/h Distance 5.68 km</desc>
<time>2010-03-14T11:36:17.37</time>
<name>4246</name>
</trkpt>
<trkpt lat="48.932922" lon="8.677508">
<ele>357.5</ele>
<speed>0.4</speed>
<course>12.6</course>
<desc>Speed 0.4 km/h Distance 5.68 km</desc>
<time>2010-03-14T11:36:18.34</time>
<name>4247</name>
</trkpt>
<trkpt lat="48.932922" lon="8.677508">
<ele>357.5</ele>
<speed>0.5</speed>
<course>270.0</course>
<desc>Speed 0.5 km/h Distance 5.68 km</desc>
<time>2010-03-14T11:36:19.35</time>
<name>4248</name>
</trkpt>
<trkpt lat="48.932922" lon="8.677507">
<ele>357.5</ele>
<speed>0.4</speed>
<course>242.6</course>
<desc>Speed 0.4 km/h Distance 5.68 km</desc>
<time>2010-03-14T11:36:20.34</time>
<name>4249</name>
</trkpt>
<trkpt lat="48.932920" lon="8.677502">
<ele>357.5</ele>
<speed>1.1</speed>
<course>270.0</course>
<desc>Speed 1.1 km/h Distance 5.68 km</desc>
<time>2010-03-14T11:36:21.34</time>
<name>4250</name>
</trkpt>
<trkpt lat="48.932920" lon="8.677498">
<ele>357.5</ele>
<speed>1.1</speed>
<course>249.5</course>
<desc>Speed 1.1 km/h Distance 5.68 km</desc>
<time>2010-03-14T11:36:22.34</time>
<name>4251</name>
</trkpt>
<trkpt lat="48.932918" lon="8.677492">
<ele>358.0</ele>
<speed>0.3</speed>
<course>270.0</course>
<desc>Speed 0.3 km/h Distance 5.68 km</desc>
<time>2010-03-14T11:36:23.34</time>
<name>4252</name>
</trkpt>
<trkpt lat="48.932918" lon="8.677490">
<ele>358.0</ele>
<speed>0.2</speed>
<course>326.8</course>
<desc>Speed 0.2 km/h Distance 5.68 km</desc>
<time>2010-03-14T11:36:24.36</time>
<name>4253</name>
</trkpt>
<trkpt lat="48.932923" lon="8.677485">
<ele>358.0</ele>
<speed>2.7</speed>
<course>299.8</course>
<desc>Speed 2.7 km/h Distance 5.68 km</desc>
<time>2010-03-14T11:36:25.34</time>
<name>4254</name>
</trkpt>
<trkpt lat="48.932928" lon="8.677472">
<ele>358.0</ele>
<speed>3.2</speed>
<course>336.2</course>
<desc>Speed 3.2 km/h Distance 5.68 km</desc>
<time>2010-03-14T11:36:26.34</time>
<name>4255</name>
</trkpt>
<trkpt lat="48.932938" lon="8.677465">
<ele>358.0</ele>
<speed>4.5</speed>
<course>344.0</course>
<desc>Speed 4.5 km/h Distance 5.68 km</desc>
<time>2010-03-14T11:36:27.34</time>
<name>4256</name>
</trkpt>
<trkpt lat="48.932950" lon="8.677460">
<ele>357.5</ele>
<speed>4.9</speed>
<course>351.0</course>
<desc>Speed 4.9 km/h Distance 5.68 km</desc>
<time>2010-03-14T11:36:28.34</time>
<name>4257</name>
</trkpt>
<trkpt lat="48.932963" lon="8.677457">
<ele>357.5</ele>
<speed>5.1</speed>
<course>339.4</course>
<desc>Speed 5.1 km/h Distance 5.68 km</desc>
<time>2010-03-14T11:36:29.34</time>
<name>4258</name>
</trkpt>
<trkpt lat="48.932975" lon="8.677450">
<ele>357.5</ele>
<speed>4.9</speed>
<course>334.8</course>
<desc>Speed 4.9 km/h Distance 5.68 km</desc>
<time>2010-03-14T11:36:30.34</time>
<name>4259</name>
</trkpt>
<trkpt lat="48.932987" lon="8.677442">
<ele>357.5</ele>
<speed>5.3</speed>
<course>346.5</course>
<desc>Speed 5.3 km/h Distance 5.69 km</desc>
<time>2010-03-14T11:36:31.37</time>
<name>4260</name>
</trkpt>
<trkpt lat="48.933000" lon="8.677437">
<ele>357.0</ele>
<speed>5.3</speed>
<course>339.1</course>
<desc>Speed 5.3 km/h Distance 5.69 km</desc>
<time>2010-03-14T11:36:32.34</time>
<name>4261</name>
</trkpt>
<trkpt lat="48.933012" lon="8.677430">
<ele>357.0</ele>
<speed>4.8</speed>
<course>334.8</course>
<desc>Speed 4.8 km/h Distance 5.69 km</desc>
<time>2010-03-14T11:36:33.34</time>
<name>4262</name>
</trkpt>
<trkpt lat="48.933023" lon="8.677422">
<ele>357.0</ele>
<speed>5.3</speed>
<course>346.0</course>
<desc>Speed 5.3 km/h Distance 5.69 km</desc>
<time>2010-03-14T11:36:34.33</time>
<name>4263</name>
</trkpt>
<trkpt lat="48.933037" lon="8.677417">
<ele>356.5</ele>
<speed>5.2</speed>
<course>341.9</course>
<desc>Speed 5.2 km/h Distance 5.69 km</desc>
<time>2010-03-14T11:36:35.33</time>
<name>4264</name>
</trkpt>
<trkpt lat="48.933050" lon="8.677410">
<ele>356.0</ele>
<speed>5.1</speed>
<course>334.8</course>
<desc>Speed 5.1 km/h Distance 5.69 km</desc>
<time>2010-03-14T11:36:36.34</time>
<name>4265</name>
</trkpt>
<trkpt lat="48.933062" lon="8.677402">
<ele>356.0</ele>
<speed>5.3</speed>
<course>334.0</course>
<desc>Speed 5.3 km/h Distance 5.70 km</desc>
<time>2010-03-14T11:36:37.34</time>
<name>4266</name>
</trkpt>
<trkpt lat="48.933075" lon="8.677392">
<ele>355.5</ele>
<speed>5.4</speed>
<course>337.9</course>
<desc>Speed 5.4 km/h Distance 5.70 km</desc>
<time>2010-03-14T11:36:38.33</time>
<name>4267</name>
</trkpt>
<trkpt lat="48.933088" lon="8.677383">
<ele>356.0</ele>
<speed>5.5</speed>
<course>334.8</course>
<desc>Speed 5.5 km/h Distance 5.70 km</desc>
<time>2010-03-14T11:36:39.33</time>
<name>4268</name>
</trkpt>
<trkpt lat="48.933100" lon="8.677375">
<ele>356.0</ele>
<speed>5.5</speed>
<course>326.6</course>
<desc>Speed 5.5 km/h Distance 5.70 km</desc>
<time>2010-03-14T11:36:40.33</time>
<name>4269</name>
</trkpt>
<trkpt lat="48.933113" lon="8.677362">
<ele>356.0</ele>
<speed>5.5</speed>
<course>323.1</course>
<desc>Speed 5.5 km/h Distance 5.70 km</desc>
<time>2010-03-14T11:36:41.34</time>
<name>4270</name>
</trkpt>
<trkpt lat="48.933125" lon="8.677348">
<ele>356.0</ele>
<speed>5.4</speed>
<course>323.0</course>
<desc>Speed 5.4 km/h Distance 5.70 km</desc>
<time>2010-03-14T11:36:42.34</time>
<name>4271</name>
</trkpt>
<trkpt lat="48.933137" lon="8.677335">
<ele>356.0</ele>
<speed>5.4</speed>
<course>326.6</course>
<desc>Speed 5.4 km/h Distance 5.70 km</desc>
<time>2010-03-14T11:36:43.34</time>
<name>4272</name>
</trkpt>
<trkpt lat="48.933148" lon="8.677323">
<ele>356.5</ele>
<speed>5.4</speed>
<course>334.0</course>
<desc>Speed 5.4 km/h Distance 5.71 km</desc>
<time>2010-03-14T11:36:44.33</time>
<name>4273</name>
</trkpt>
<trkpt lat="48.933162" lon="8.677313">
<ele>356.5</ele>
<speed>5.4</speed>
<course>335.1</course>
<desc>Speed 5.4 km/h Distance 5.71 km</desc>
<time>2010-03-14T11:36:45.33</time>
<name>4274</name>
</trkpt>
<trkpt lat="48.933173" lon="8.677305">
<ele>356.5</ele>
<speed>5.5</speed>
<course>334.0</course>
<desc>Speed 5.5 km/h Distance 5.71 km</desc>
<time>2010-03-14T11:36:46.33</time>
<name>4275</name>
</trkpt>
<trkpt lat="48.933187" lon="8.677295">
<ele>356.5</ele>
<speed>5.4</speed>
<course>334.0</course>
<desc>Speed 5.4 km/h Distance 5.71 km</desc>
<time>2010-03-14T11:36:47.33</time>
<name>4276</name>
</trkpt>
<trkpt lat="48.933200" lon="8.677285">
<ele>356.0</ele>
<speed>5.7</speed>
<course>330.2</course>
<desc>Speed 5.7 km/h Distance 5.71 km</desc>
<time>2010-03-14T11:36:48.33</time>
<name>4277</name>
</trkpt>
<trkpt lat="48.933213" lon="8.677273">
<ele>356.0</ele>
<speed>5.7</speed>
<course>319.8</course>
<desc>Speed 5.7 km/h Distance 5.71 km</desc>
<time>2010-03-14T11:36:49.33</time>
<name>4278</name>
</trkpt>
<trkpt lat="48.933225" lon="8.677258">
<ele>356.0</ele>
<speed>5.6</speed>
<course>319.8</course>
<desc>Speed 5.6 km/h Distance 5.72 km</desc>
<time>2010-03-14T11:36:50.33</time>
<name>4279</name>
</trkpt>
<trkpt lat="48.933237" lon="8.677243">
<ele>356.0</ele>
<speed>5.6</speed>
<course>330.8</course>
<desc>Speed 5.6 km/h Distance 5.72 km</desc>
<time>2010-03-14T11:36:51.33</time>
<name>4280</name>
</trkpt>
<trkpt lat="48.933248" lon="8.677233">
<ele>356.5</ele>
<speed>5.1</speed>
<course>326.6</course>
<desc>Speed 5.1 km/h Distance 5.72 km</desc>
<time>2010-03-14T11:36:52.33</time>
<name>4281</name>
</trkpt>
<trkpt lat="48.933260" lon="8.677222">
<ele>356.5</ele>
<speed>5.3</speed>
<course>322.5</course>
<desc>Speed 5.3 km/h Distance 5.72 km</desc>
<time>2010-03-14T11:36:53.33</time>
<name>4282</name>
</trkpt>
<trkpt lat="48.933270" lon="8.677210">
<ele>356.5</ele>
<speed>5.0</speed>
<course>330.8</course>
<desc>Speed 5.0 km/h Distance 5.72 km</desc>
<time>2010-03-14T11:36:54.33</time>
<name>4283</name>
</trkpt>
<trkpt lat="48.933282" lon="8.677200">
<ele>356.5</ele>
<speed>4.8</speed>
<course>323.1</course>
<desc>Speed 4.8 km/h Distance 5.72 km</desc>
<time>2010-03-14T11:36:55.36</time>
<name>4284</name>
</trkpt>
<trkpt lat="48.933293" lon="8.677187">
<ele>356.5</ele>
<speed>5.4</speed>
<course>326.6</course>
<desc>Speed 5.4 km/h Distance 5.73 km</desc>
<time>2010-03-14T11:36:56.32</time>
<name>4285</name>
</trkpt>
<trkpt lat="48.933305" lon="8.677175">
<ele>356.5</ele>
<speed>5.4</speed>
<course>323.1</course>
<desc>Speed 5.4 km/h Distance 5.73 km</desc>
<time>2010-03-14T11:36:57.33</time>
<name>4286</name>
</trkpt>
<trkpt lat="48.933317" lon="8.677162">
<ele>356.5</ele>
<speed>5.3</speed>
<course>323.0</course>
<desc>Speed 5.3 km/h Distance 5.73 km</desc>
<time>2010-03-14T11:36:58.33</time>
<name>4287</name>
</trkpt>
<trkpt lat="48.933328" lon="8.677148">
<ele>356.5</ele>
<speed>5.4</speed>
<course>318.8</course>
<desc>Speed 5.4 km/h Distance 5.73 km</desc>
<time>2010-03-14T11:36:59.33</time>
<name>4288</name>
</trkpt>
<trkpt lat="48.933338" lon="8.677135">
<ele>356.5</ele>
<speed>5.0</speed>
<course>319.8</course>
<desc>Speed 5.0 km/h Distance 5.73 km</desc>
<time>2010-03-14T11:37:00.32</time>
<name>4289</name>
</trkpt>
<trkpt lat="48.933350" lon="8.677120">
<ele>356.5</ele>
<speed>5.5</speed>
<course>323.0</course>
<desc>Speed 5.5 km/h Distance 5.73 km</desc>
<time>2010-03-14T11:37:01.33</time>
<name>4290</name>
</trkpt>
<trkpt lat="48.933362" lon="8.677107">
<ele>356.0</ele>
<speed>5.5</speed>
<course>323.1</course>
<desc>Speed 5.5 km/h Distance 5.74 km</desc>
<time>2010-03-14T11:37:02.32</time>
<name>4291</name>
</trkpt>
<trkpt lat="48.933373" lon="8.677093">
<ele>355.5</ele>
<speed>5.4</speed>
<course>318.7</course>
<desc>Speed 5.4 km/h Distance 5.74 km</desc>
<time>2010-03-14T11:37:03.32</time>
<name>4292</name>
</trkpt>
<trkpt lat="48.933383" lon="8.677080">
<ele>355.5</ele>
<speed>5.2</speed>
<course>319.8</course>
<desc>Speed 5.2 km/h Distance 5.74 km</desc>
<time>2010-03-14T11:37:04.32</time>
<name>4293</name>
</trkpt>
<trkpt lat="48.933395" lon="8.677065">
<ele>355.5</ele>
<speed>5.4</speed>
<course>323.0</course>
<desc>Speed 5.4 km/h Distance 5.74 km</desc>
<time>2010-03-14T11:37:05.33</time>
<name>4294</name>
</trkpt>
<trkpt lat="48.933407" lon="8.677052">
<ele>355.5</ele>
<speed>5.4</speed>
<course>318.7</course>
<desc>Speed 5.4 km/h Distance 5.74 km</desc>
<time>2010-03-14T11:37:06.32</time>
<name>4295</name>
</trkpt>
<trkpt lat="48.933417" lon="8.677038">
<ele>355.5</ele>
<speed>5.2</speed>
<course>319.8</course>
<desc>Speed 5.2 km/h Distance 5.74 km</desc>
<time>2010-03-14T11:37:07.32</time>
<name>4296</name>
</trkpt>
<trkpt lat="48.933428" lon="8.677023">
<ele>355.5</ele>
<speed>5.5</speed>
<course>322.5</course>
<desc>Speed 5.5 km/h Distance 5.74 km</desc>
<time>2010-03-14T11:37:08.32</time>
<name>4297</name>
</trkpt>
<trkpt lat="48.933438" lon="8.677012">
<ele>355.0</ele>
<speed>5.1</speed>
<course>333.6</course>
<desc>Speed 5.1 km/h Distance 5.75 km</desc>
<time>2010-03-14T11:37:09.32</time>
<name>4298</name>
</trkpt>
<trkpt lat="48.933452" lon="8.677002">
<ele>354.0</ele>
<speed>5.3</speed>
<course>330.6</course>
<desc>Speed 5.3 km/h Distance 5.75 km</desc>
<time>2010-03-14T11:37:10.32</time>
<name>4299</name>
</trkpt>
<trkpt lat="48.933463" lon="8.676992">
<ele>353.5</ele>
<speed>5.2</speed>
<course>330.8</course>
<desc>Speed 5.2 km/h Distance 5.75 km</desc>
<time>2010-03-14T11:37:11.33</time>
<name>4300</name>
</trkpt>
<trkpt lat="48.933475" lon="8.676982">
<ele>353.0</ele>
<speed>5.3</speed>
<course>317.4</course>
<desc>Speed 5.3 km/h Distance 5.75 km</desc>
<time>2010-03-14T11:37:12.32</time>
<name>4301</name>
</trkpt>
<trkpt lat="48.933483" lon="8.676970">
<ele>353.0</ele>
<speed>4.6</speed>
<course>326.9</course>
<desc>Speed 4.6 km/h Distance 5.75 km</desc>
<time>2010-03-14T11:37:13.32</time>
<name>4302</name>
</trkpt>
<trkpt lat="48.933495" lon="8.676958">
<ele>352.5</ele>
<speed>4.9</speed>
<course>318.7</course>
<desc>Speed 4.9 km/h Distance 5.75 km</desc>
<time>2010-03-14T11:37:14.32</time>
<name>4303</name>
</trkpt>
<trkpt lat="48.933505" lon="8.676945">
<ele>352.5</ele>
<speed>4.9</speed>
<course>334.8</course>
<desc>Speed 4.9 km/h Distance 5.75 km</desc>
<time>2010-03-14T11:37:15.31</time>
<name>4304</name>
</trkpt>
<trkpt lat="48.933517" lon="8.676937">
<ele>352.0</ele>
<speed>5.4</speed>
<course>330.6</course>
<desc>Speed 5.4 km/h Distance 5.76 km</desc>
<time>2010-03-14T11:37:16.31</time>
<name>4305</name>
</trkpt>
<trkpt lat="48.933528" lon="8.676927">
<ele>352.0</ele>
<speed>5.0</speed>
<course>322.5</course>
<desc>Speed 5.0 km/h Distance 5.76 km</desc>
<time>2010-03-14T11:37:17.32</time>
<name>4306</name>
</trkpt>
<trkpt lat="48.933538" lon="8.676915">
<ele>351.5</ele>
<speed>4.9</speed>
<course>330.8</course>
<desc>Speed 4.9 km/h Distance 5.76 km</desc>
<time>2010-03-14T11:37:18.32</time>
<name>4307</name>
</trkpt>
<trkpt lat="48.933550" lon="8.676905">
<ele>351.0</ele>
<speed>4.9</speed>
<course>346.5</course>
<desc>Speed 4.9 km/h Distance 5.76 km</desc>
<time>2010-03-14T11:37:19.32</time>
<name>4308</name>
</trkpt>
<trkpt lat="48.933563" lon="8.676900">
<ele>350.5</ele>
<speed>5.3</speed>
<course>346.5</course>
<desc>Speed 5.3 km/h Distance 5.76 km</desc>
<time>2010-03-14T11:37:20.32</time>
<name>4309</name>
</trkpt>
<trkpt lat="48.933577" lon="8.676895">
<ele>350.5</ele>
<speed>5.2</speed>
<course>343.4</course>
<desc>Speed 5.2 km/h Distance 5.76 km</desc>
<time>2010-03-14T11:37:21.32</time>
<name>4310</name>
</trkpt>
<trkpt lat="48.933592" lon="8.676888">
<ele>350.5</ele>
<speed>5.3</speed>
<course>350.3</course>
<desc>Speed 5.3 km/h Distance 5.77 km</desc>
<time>2010-03-14T11:37:22.32</time>
<name>4311</name>
</trkpt>
<trkpt lat="48.933605" lon="8.676885">
<ele>350.0</ele>
<speed>5.5</speed>
<course>351.0</course>
<desc>Speed 5.5 km/h Distance 5.77 km</desc>
<time>2010-03-14T11:37:23.31</time>
<name>4312</name>
</trkpt>
<trkpt lat="48.933618" lon="8.676882">
<ele>350.0</ele>
<speed>5.2</speed>
<course>334.8</course>
<desc>Speed 5.2 km/h Distance 5.77 km</desc>
<time>2010-03-14T11:37:24.34</time>
<name>4313</name>
</trkpt>
<trkpt lat="48.933630" lon="8.676873">
<ele>349.5</ele>
<speed>5.1</speed>
<course>339.8</course>
<desc>Speed 5.1 km/h Distance 5.77 km</desc>
<time>2010-03-14T11:37:25.31</time>
<name>4314</name>
</trkpt>
<trkpt lat="48.933642" lon="8.676867">
<ele>349.5</ele>
<speed>4.9</speed>
<course>341.9</course>
<desc>Speed 4.9 km/h Distance 5.77 km</desc>
<time>2010-03-14T11:37:26.31</time>
<name>4315</name>
</trkpt>
<trkpt lat="48.933655" lon="8.676860">
<ele>349.0</ele>
<speed>5.4</speed>
<course>351.9</course>
<desc>Speed 5.4 km/h Distance 5.77 km</desc>
<time>2010-03-14T11:37:27.31</time>
<name>4316</name>
</trkpt>
<trkpt lat="48.933670" lon="8.676857">
<ele>348.5</ele>
<speed>5.9</speed>
<course>351.9</course>
<desc>Speed 5.9 km/h Distance 5.77 km</desc>
<time>2010-03-14T11:37:28.31</time>
<name>4317</name>
</trkpt>
<trkpt lat="48.933685" lon="8.676853">
<ele>348.0</ele>
<speed>5.7</speed>
<course>0.0</course>
<desc>Speed 5.7 km/h Distance 5.78 km</desc>
<time>2010-03-14T11:37:29.31</time>
<name>4318</name>
</trkpt>
<trkpt lat="48.933700" lon="8.676853">
<ele>347.0</ele>
<speed>6.2</speed>
<course>330.8</course>
<desc>Speed 6.2 km/h Distance 5.78 km</desc>
<time>2010-03-14T11:37:30.31</time>
<name>4319</name>
</trkpt>
<trkpt lat="48.933712" lon="8.676843">
<ele>347.0</ele>
<speed>4.7</speed>
<course>346.5</course>
<desc>Speed 4.7 km/h Distance 5.78 km</desc>
<time>2010-03-14T11:37:31.31</time>
<name>4320</name>
</trkpt>
<trkpt lat="48.933725" lon="8.676838">
<ele>346.5</ele>
<speed>5.4</speed>
<course>356.2</course>
<desc>Speed 5.4 km/h Distance 5.78 km</desc>
<time>2010-03-14T11:37:32.31</time>
<name>4321</name>
</trkpt>
<trkpt lat="48.933740" lon="8.676837">
<ele>346.0</ele>
<speed>5.9</speed>
<course>334.8</course>
<desc>Speed 5.9 km/h Distance 5.78 km</desc>
<time>2010-03-14T11:37:33.31</time>
<name>4322</name>
</trkpt>
<trkpt lat="48.933752" lon="8.676828">
<ele>346.0</ele>
<speed>4.9</speed>
<course>351.0</course>
<desc>Speed 4.9 km/h Distance 5.78 km</desc>
<time>2010-03-14T11:37:34.31</time>
<name>4323</name>
</trkpt>
<trkpt lat="48.933765" lon="8.676825">
<ele>345.0</ele>
<speed>5.3</speed>
<course>346.5</course>
<desc>Speed 5.3 km/h Distance 5.79 km</desc>
<time>2010-03-14T11:37:35.30</time>
<name>4324</name>
</trkpt>
<trkpt lat="48.933778" lon="8.676820">
<ele>344.5</ele>
<speed>5.5</speed>
<course>354.7</course>
<desc>Speed 5.5 km/h Distance 5.79 km</desc>
<time>2010-03-14T11:37:36.31</time>
<name>4325</name>
</trkpt>
<trkpt lat="48.933792" lon="8.676818">
<ele>344.0</ele>
<speed>5.6</speed>
<course>351.9</course>
<desc>Speed 5.6 km/h Distance 5.79 km</desc>
<time>2010-03-14T11:37:37.31</time>
<name>4326</name>
</trkpt>
<trkpt lat="48.933807" lon="8.676815">
<ele>343.0</ele>
<speed>5.8</speed>
<course>351.2</course>
<desc>Speed 5.8 km/h Distance 5.79 km</desc>
<time>2010-03-14T11:37:38.31</time>
<name>4327</name>
</trkpt>
<trkpt lat="48.933822" lon="8.676812">
<ele>342.0</ele>
<speed>5.6</speed>
<course>341.9</course>
<desc>Speed 5.6 km/h Distance 5.79 km</desc>
<time>2010-03-14T11:37:39.30</time>
<name>4328</name>
</trkpt>
<trkpt lat="48.933835" lon="8.676805">
<ele>341.5</ele>
<speed>5.5</speed>
<course>346.0</course>
<desc>Speed 5.5 km/h Distance 5.79 km</desc>
<time>2010-03-14T11:37:40.31</time>
<name>4329</name>
</trkpt>
<trkpt lat="48.933848" lon="8.676800">
<ele>341.0</ele>
<speed>5.4</speed>
<course>280.8</course>
<desc>Speed 5.4 km/h Distance 5.80 km</desc>
<time>2010-03-14T11:37:41.31</time>
<name>4330</name>
</trkpt>
<trkpt lat="48.933852" lon="8.676773">
<ele>342.5</ele>
<speed>6.0</speed>
<course>307.3</course>
<desc>Speed 6.0 km/h Distance 5.80 km</desc>
<time>2010-03-14T11:37:42.31</time>
<name>4331</name>
</trkpt>
<trkpt lat="48.933862" lon="8.676753">
<ele>342.5</ele>
<speed>5.7</speed>
<course>346.5</course>
<desc>Speed 5.7 km/h Distance 5.80 km</desc>
<time>2010-03-14T11:37:43.30</time>
<name>4332</name>
</trkpt>
<trkpt lat="48.933875" lon="8.676748">
<ele>342.5</ele>
<speed>5.5</speed>
<course>337.4</course>
<desc>Speed 5.5 km/h Distance 5.80 km</desc>
<time>2010-03-14T11:37:44.31</time>
<name>4333</name>
</trkpt>
<trkpt lat="48.933888" lon="8.676740">
<ele>342.0</ele>
<speed>5.3</speed>
<course>334.8</course>
<desc>Speed 5.3 km/h Distance 5.80 km</desc>
<time>2010-03-14T11:37:45.31</time>
<name>4334</name>
</trkpt>
<trkpt lat="48.933900" lon="8.676732">
<ele>341.5</ele>
<speed>5.0</speed>
<course>339.4</course>
<desc>Speed 5.0 km/h Distance 5.80 km</desc>
<time>2010-03-14T11:37:46.31</time>
<name>4335</name>
</trkpt>
<trkpt lat="48.933912" lon="8.676725">
<ele>341.5</ele>
<speed>4.8</speed>
<course>326.8</course>
<desc>Speed 4.8 km/h Distance 5.80 km</desc>
<time>2010-03-14T11:37:47.30</time>
<name>4336</name>
</trkpt>
<trkpt lat="48.933922" lon="8.676715">
<ele>341.5</ele>
<speed>4.7</speed>
<course>330.6</course>
<desc>Speed 4.7 km/h Distance 5.81 km</desc>
<time>2010-03-14T11:37:48.31</time>
<name>4337</name>
</trkpt>
<trkpt lat="48.933933" lon="8.676705">
<ele>341.5</ele>
<speed>4.8</speed>
<course>331.4</course>
<desc>Speed 4.8 km/h Distance 5.81 km</desc>
<time>2010-03-14T11:37:49.31</time>
<name>4338</name>
</trkpt>
<trkpt lat="48.933943" lon="8.676697">
<ele>341.5</ele>
<speed>4.8</speed>
<course>335.1</course>
<desc>Speed 4.8 km/h Distance 5.81 km</desc>
<time>2010-03-14T11:37:50.31</time>
<name>4339</name>
</trkpt>
<trkpt lat="48.933955" lon="8.676688">
<ele>341.5</ele>
<speed>4.7</speed>
<course>330.8</course>
<desc>Speed 4.7 km/h Distance 5.81 km</desc>
<time>2010-03-14T11:37:51.30</time>
<name>4340</name>
</trkpt>
<trkpt lat="48.933967" lon="8.676678">
<ele>342.5</ele>
<speed>4.3</speed>
<course>326.8</course>
<desc>Speed 4.3 km/h Distance 5.81 km</desc>
<time>2010-03-14T11:37:52.30</time>
<name>4341</name>
</trkpt>
<trkpt lat="48.933977" lon="8.676668">
<ele>342.5</ele>
<speed>4.8</speed>
<course>330.6</course>
<desc>Speed 4.8 km/h Distance 5.81 km</desc>
<time>2010-03-14T11:37:53.30</time>
<name>4342</name>
</trkpt>
<trkpt lat="48.933988" lon="8.676658">
<ele>342.0</ele>
<speed>4.5</speed>
<course>339.4</course>
<desc>Speed 4.5 km/h Distance 5.81 km</desc>
<time>2010-03-14T11:37:54.30</time>
<name>4343</name>
</trkpt>
<trkpt lat="48.934000" lon="8.676652">
<ele>341.5</ele>
<speed>5.0</speed>
<course>339.1</course>
<desc>Speed 5.0 km/h Distance 5.82 km</desc>
<time>2010-03-14T11:37:55.30</time>
<name>4344</name>
</trkpt>
<trkpt lat="48.934012" lon="8.676645">
<ele>341.5</ele>
<speed>4.9</speed>
<course>339.8</course>
<desc>Speed 4.9 km/h Distance 5.82 km</desc>
<time>2010-03-14T11:37:56.30</time>
<name>4345</name>
</trkpt>
<trkpt lat="48.934023" lon="8.676638">
<ele>341.0</ele>
<speed>5.0</speed>
<course>351.0</course>
<desc>Speed 5.0 km/h Distance 5.82 km</desc>
<time>2010-03-14T11:37:57.30</time>
<name>4346</name>
</trkpt>
<trkpt lat="48.934037" lon="8.676635">
<ele>340.5</ele>
<speed>5.1</speed>
<course>334.8</course>
<desc>Speed 5.1 km/h Distance 5.82 km</desc>
<time>2010-03-14T11:37:58.30</time>
<name>4347</name>
</trkpt>
<trkpt lat="48.934048" lon="8.676627">
<ele>340.5</ele>
<speed>4.7</speed>
<course>346.5</course>
<desc>Speed 4.7 km/h Distance 5.82 km</desc>
<time>2010-03-14T11:37:59.29</time>
<name>4348</name>
</trkpt>
<trkpt lat="48.934062" lon="8.676622">
<ele>339.5</ele>
<speed>5.4</speed>
<course>341.9</course>
<desc>Speed 5.4 km/h Distance 5.82 km</desc>
<time>2010-03-14T11:38:00.29</time>
<name>4349</name>
</trkpt>
<trkpt lat="48.934075" lon="8.676615">
<ele>339.5</ele>
<speed>5.5</speed>
<course>333.8</course>
<desc>Speed 5.5 km/h Distance 5.82 km</desc>
<time>2010-03-14T11:38:01.31</time>
<name>4350</name>
</trkpt>
<trkpt lat="48.934088" lon="8.676605">
<ele>339.0</ele>
<speed>5.6</speed>
<course>337.9</course>
<desc>Speed 5.6 km/h Distance 5.83 km</desc>
<time>2010-03-14T11:38:02.30</time>
<name>4351</name>
</trkpt>
<trkpt lat="48.934102" lon="8.676597">
<ele>338.5</ele>
<speed>5.8</speed>
<course>344.0</course>
<desc>Speed 5.8 km/h Distance 5.83 km</desc>
<time>2010-03-14T11:38:03.29</time>
<name>4352</name>
</trkpt>
<trkpt lat="48.934117" lon="8.676590">
<ele>337.5</ele>
<speed>5.9</speed>
<course>339.1</course>
<desc>Speed 5.9 km/h Distance 5.83 km</desc>
<time>2010-03-14T11:38:04.29</time>
<name>4353</name>
</trkpt>
<trkpt lat="48.934128" lon="8.676583">
<ele>337.5</ele>
<speed>5.1</speed>
<course>339.4</course>
<desc>Speed 5.1 km/h Distance 5.83 km</desc>
<time>2010-03-14T11:38:05.29</time>
<name>4354</name>
</trkpt>
<trkpt lat="48.934140" lon="8.676577">
<ele>337.5</ele>
<speed>4.9</speed>
<course>351.0</course>
<desc>Speed 4.9 km/h Distance 5.83 km</desc>
<time>2010-03-14T11:38:06.29</time>
<name>4355</name>
</trkpt>
<trkpt lat="48.934153" lon="8.676573">
<ele>337.5</ele>
<speed>4.8</speed>
<course>334.8</course>
<desc>Speed 4.8 km/h Distance 5.83 km</desc>
<time>2010-03-14T11:38:07.29</time>
<name>4356</name>
</trkpt>
<trkpt lat="48.934165" lon="8.676565">
<ele>337.0</ele>
<speed>5.2</speed>
<course>348.8</course>
<desc>Speed 5.2 km/h Distance 5.84 km</desc>
<time>2010-03-14T11:38:08.29</time>
<name>4357</name>
</trkpt>
<trkpt lat="48.934177" lon="8.676562">
<ele>336.5</ele>
<speed>5.0</speed>
<course>345.1</course>
<desc>Speed 5.0 km/h Distance 5.84 km</desc>
<time>2010-03-14T11:38:09.30</time>
<name>4358</name>
</trkpt>
<trkpt lat="48.934185" lon="8.676558">
<ele>336.5</ele>
<speed>2.9</speed>
<course>313.6</course>
<desc>Speed 2.9 km/h Distance 5.84 km</desc>
<time>2010-03-14T11:38:10.29</time>
<name>4359</name>
</trkpt>
<trkpt lat="48.934193" lon="8.676545">
<ele>336.5</ele>
<speed>4.4</speed>
<course>331.4</course>
<desc>Speed 4.4 km/h Distance 5.84 km</desc>
<time>2010-03-14T11:38:11.32</time>
<name>4360</name>
</trkpt>
<trkpt lat="48.934203" lon="8.676537">
<ele>337.0</ele>
<speed>4.5</speed>
<course>313.6</course>
<desc>Speed 4.5 km/h Distance 5.84 km</desc>
<time>2010-03-14T11:38:12.29</time>
<name>4361</name>
</trkpt>
<trkpt lat="48.934212" lon="8.676523">
<ele>337.5</ele>
<speed>4.5</speed>
<course>310.3</course>
<desc>Speed 4.5 km/h Distance 5.84 km</desc>
<time>2010-03-14T11:38:13.29</time>
<name>4362</name>
</trkpt>
<trkpt lat="48.934220" lon="8.676508">
<ele>338.5</ele>
<speed>4.6</speed>
<course>318.8</course>
<desc>Speed 4.6 km/h Distance 5.84 km</desc>
<time>2010-03-14T11:38:14.29</time>
<name>4363</name>
</trkpt>
<trkpt lat="48.934230" lon="8.676495">
<ele>338.5</ele>
<speed>4.4</speed>
<course>317.4</course>
<desc>Speed 4.4 km/h Distance 5.84 km</desc>
<time>2010-03-14T11:38:15.29</time>
<name>4364</name>
</trkpt>
<trkpt lat="48.934238" lon="8.676483">
<ele>338.5</ele>
<speed>3.9</speed>
<course>326.8</course>
<desc>Speed 3.9 km/h Distance 5.85 km</desc>
<time>2010-03-14T11:38:16.29</time>
<name>4365</name>
</trkpt>
<trkpt lat="48.934247" lon="8.676475">
<ele>338.5</ele>
<speed>3.9</speed>
<course>330.8</course>
<desc>Speed 3.9 km/h Distance 5.85 km</desc>
<time>2010-03-14T11:38:17.29</time>
<name>4366</name>
</trkpt>
<trkpt lat="48.934258" lon="8.676465">
<ele>338.0</ele>
<speed>4.8</speed>
<course>336.2</course>
<desc>Speed 4.8 km/h Distance 5.85 km</desc>
<time>2010-03-14T11:38:18.29</time>
<name>4367</name>
</trkpt>
<trkpt lat="48.934268" lon="8.676458">
<ele>338.0</ele>
<speed>4.8</speed>
<course>2.2</course>
<desc>Speed 4.8 km/h Distance 5.85 km</desc>
<time>2010-03-14T11:38:19.29</time>
<name>4368</name>
</trkpt>
<trkpt lat="48.934280" lon="8.676458">
<ele>338.5</ele>
<speed>4.4</speed>
<course>278.7</course>
<desc>Speed 4.4 km/h Distance 5.85 km</desc>
<time>2010-03-14T11:38:20.28</time>
<name>4369</name>
</trkpt>
<trkpt lat="48.934282" lon="8.676442">
<ele>341.0</ele>
<speed>3.9</speed>
<course>347.4</course>
<desc>Speed 3.9 km/h Distance 5.85 km</desc>
<time>2010-03-14T11:38:21.28</time>
<name>4370</name>
</trkpt>
<trkpt lat="48.934287" lon="8.676440">
<ele>341.0</ele>
<speed>2.1</speed>
<course>345.1</course>
<desc>Speed 2.1 km/h Distance 5.85 km</desc>
<time>2010-03-14T11:38:22.29</time>
<name>4371</name>
</trkpt>
<trkpt lat="48.934295" lon="8.676437">
<ele>340.5</ele>
<speed>3.3</speed>
<course>355.0</course>
<desc>Speed 3.3 km/h Distance 5.85 km</desc>
<time>2010-03-14T11:38:23.28</time>
<name>4372</name>
</trkpt>
<trkpt lat="48.934303" lon="8.676435">
<ele>340.5</ele>
<speed>3.7</speed>
<course>248.9</course>
<desc>Speed 3.7 km/h Distance 5.85 km</desc>
<time>2010-03-14T11:38:24.28</time>
<name>4373</name>
</trkpt>
<trkpt lat="48.934277" lon="8.676330">
<ele>349.5</ele>
<speed>3.1</speed>
<course>333.6</course>
<desc>Speed 3.1 km/h Distance 5.86 km</desc>
<time>2010-03-14T11:38:26.28</time>
<name>4374</name>
</trkpt>
<trkpt lat="48.934283" lon="8.676325">
<ele>349.0</ele>
<speed>2.7</speed>
<course>326.8</course>
<desc>Speed 2.7 km/h Distance 5.86 km</desc>
<time>2010-03-14T11:38:27.28</time>
<name>4375</name>
</trkpt>
<trkpt lat="48.934288" lon="8.676320">
<ele>348.5</ele>
<speed>2.8</speed>
<course>331.1</course>
<desc>Speed 2.8 km/h Distance 5.86 km</desc>
<time>2010-03-14T11:38:28.28</time>
<name>4376</name>
</trkpt>
<trkpt lat="48.934298" lon="8.676312">
<ele>347.5</ele>
<speed>3.7</speed>
<course>307.0</course>
<desc>Speed 3.7 km/h Distance 5.87 km</desc>
<time>2010-03-14T11:38:29.28</time>
<name>4377</name>
</trkpt>
<trkpt lat="48.934302" lon="8.676305">
<ele>346.5</ele>
<speed>1.8</speed>
<course>287.1</course>
<desc>Speed 1.8 km/h Distance 5.87 km</desc>
<time>2010-03-14T11:38:30.29</time>
<name>4378</name>
</trkpt>
<trkpt lat="48.934303" lon="8.676297">
<ele>344.5</ele>
<speed>1.8</speed>
<course>326.8</course>
<desc>Speed 1.8 km/h Distance 5.87 km</desc>
<time>2010-03-14T11:38:31.28</time>
<name>4379</name>
</trkpt>
<trkpt lat="48.934310" lon="8.676290">
<ele>344.0</ele>
<speed>2.6</speed>
<course>257.7</course>
<desc>Speed 2.6 km/h Distance 5.87 km</desc>
<time>2010-03-14T11:38:32.28</time>
<name>4380</name>
</trkpt>
<trkpt lat="48.934305" lon="8.676255">
<ele>345.0</ele>
<speed>2.6</speed>
<course>264.6</course>
<desc>Speed 2.6 km/h Distance 5.87 km</desc>
<time>2010-03-14T11:38:33.29</time>
<name>4381</name>
</trkpt>
<trkpt lat="48.934302" lon="8.676202">
<ele>346.0</ele>
<speed>2.9</speed>
<course>259.2</course>
<desc>Speed 2.9 km/h Distance 5.87 km</desc>
<time>2010-03-14T11:38:35.28</time>
<name>4382</name>
</trkpt>
<trkpt lat="48.934298" lon="8.676175">
<ele>345.5</ele>
<speed>3.0</speed>
<course>312.2</course>
<desc>Speed 3.0 km/h Distance 5.88 km</desc>
<time>2010-03-14T11:38:36.28</time>
<name>4383</name>
</trkpt>
<trkpt lat="48.934303" lon="8.676167">
<ele>344.0</ele>
<speed>1.9</speed>
<course>284.4</course>
<desc>Speed 1.9 km/h Distance 5.88 km</desc>
<time>2010-03-14T11:38:37.28</time>
<name>4384</name>
</trkpt>
<trkpt lat="48.934305" lon="8.676157">
<ele>343.0</ele>
<speed>1.8</speed>
<course>288.6</course>
<desc>Speed 1.8 km/h Distance 5.88 km</desc>
<time>2010-03-14T11:38:38.28</time>
<name>4385</name>
</trkpt>
<trkpt lat="48.934308" lon="8.676142">
<ele>342.5</ele>
<speed>2.6</speed>
<course>341.2</course>
<desc>Speed 2.6 km/h Distance 5.88 km</desc>
<time>2010-03-14T11:38:39.28</time>
<name>4386</name>
</trkpt>
<trkpt lat="48.934315" lon="8.676138">
<ele>342.0</ele>
<speed>2.5</speed>
<course>326.8</course>
<desc>Speed 2.5 km/h Distance 5.88 km</desc>
<time>2010-03-14T11:38:40.28</time>
<name>4387</name>
</trkpt>
<trkpt lat="48.934322" lon="8.676132">
<ele>340.5</ele>
<speed>2.9</speed>
<course>341.2</course>
<desc>Speed 2.9 km/h Distance 5.88 km</desc>
<time>2010-03-14T11:38:41.28</time>
<name>4388</name>
</trkpt>
<trkpt lat="48.934328" lon="8.676128">
<ele>339.0</ele>
<speed>2.1</speed>
<course>257.7</course>
<desc>Speed 2.1 km/h Distance 5.88 km</desc>
<time>2010-03-14T11:38:42.28</time>
<name>4389</name>
</trkpt>
<trkpt lat="48.934325" lon="8.676105">
<ele>341.5</ele>
<speed>2.6</speed>
<course>270.0</course>
<desc>Speed 2.6 km/h Distance 5.88 km</desc>
<time>2010-03-14T11:38:43.28</time>
<name>4390</name>
</trkpt>
<trkpt lat="48.934325" lon="8.676093">
<ele>341.0</ele>
<speed>1.3</speed>
<course>270.0</course>
<desc>Speed 1.3 km/h Distance 5.88 km</desc>
<time>2010-03-14T11:38:44.28</time>
<name>4391</name>
</trkpt>
<trkpt lat="48.934325" lon="8.676087">
<ele>339.5</ele>
<speed>1.2</speed>
<course>293.6</course>
<desc>Speed 1.2 km/h Distance 5.88 km</desc>
<time>2010-03-14T11:38:45.28</time>
<name>4392</name>
</trkpt>
<trkpt lat="48.934328" lon="8.676075">
<ele>338.5</ele>
<speed>2.5</speed>
<course>303.3</course>
<desc>Speed 2.5 km/h Distance 5.89 km</desc>
<time>2010-03-14T11:38:46.28</time>
<name>4393</name>
</trkpt>
<trkpt lat="48.934333" lon="8.676063">
<ele>337.5</ele>
<speed>2.7</speed>
<course>293.5</course>
<desc>Speed 2.7 km/h Distance 5.89 km</desc>
<time>2010-03-14T11:38:47.28</time>
<name>4394</name>
</trkpt>
<trkpt lat="48.934337" lon="8.676052">
<ele>337.0</ele>
<speed>2.3</speed>
<course>307.6</course>
<desc>Speed 2.3 km/h Distance 5.89 km</desc>
<time>2010-03-14T11:38:48.28</time>
<name>4395</name>
</trkpt>
<trkpt lat="48.934342" lon="8.676042">
<ele>336.5</ele>
<speed>2.1</speed>
<course>312.9</course>
<desc>Speed 2.1 km/h Distance 5.89 km</desc>
<time>2010-03-14T11:38:49.28</time>
<name>4396</name>
</trkpt>
<trkpt lat="48.934347" lon="8.676033">
<ele>335.5</ele>
<speed>1.3</speed>
<course>327.4</course>
<desc>Speed 1.3 km/h Distance 5.89 km</desc>
<time>2010-03-14T11:38:50.28</time>
<name>4397</name>
</trkpt>
<trkpt lat="48.934353" lon="8.676027">
<ele>334.5</ele>
<speed>2.5</speed>
<course>301.4</course>
<desc>Speed 2.5 km/h Distance 5.89 km</desc>
<time>2010-03-14T11:38:51.28</time>
<name>4398</name>
</trkpt>
<trkpt lat="48.934357" lon="8.676018">
<ele>333.5</ele>
<speed>2.4</speed>
<course>318.6</course>
<desc>Speed 2.4 km/h Distance 5.89 km</desc>
<time>2010-03-14T11:38:52.28</time>
<name>4399</name>
</trkpt>
<trkpt lat="48.934362" lon="8.676012">
<ele>332.5</ele>
<speed>1.6</speed>
<course>307.0</course>
<desc>Speed 1.6 km/h Distance 5.89 km</desc>
<time>2010-03-14T11:38:53.28</time>
<name>4400</name>
</trkpt>
<trkpt lat="48.934365" lon="8.676005">
<ele>332.0</ele>
<speed>1.2</speed>
<course>0.0</course>
<desc>Speed 1.2 km/h Distance 5.89 km</desc>
<time>2010-03-14T11:38:54.28</time>
<name>4401</name>
</trkpt>
<trkpt lat="48.934370" lon="8.676005">
<ele>332.0</ele>
<speed>1.1</speed>
<course>326.8</course>
<desc>Speed 1.1 km/h Distance 5.89 km</desc>
<time>2010-03-14T11:38:55.28</time>
<name>4402</name>
</trkpt>
<trkpt lat="48.934375" lon="8.676000">
<ele>332.0</ele>
<speed>1.7</speed>
<course>301.4</course>
<desc>Speed 1.7 km/h Distance 5.89 km</desc>
<time>2010-03-14T11:38:56.27</time>
<name>4403</name>
</trkpt>
<trkpt lat="48.934378" lon="8.675992">
<ele>332.0</ele>
<speed>2.1</speed>
<course>297.0</course>
<desc>Speed 2.1 km/h Distance 5.89 km</desc>
<time>2010-03-14T11:38:57.27</time>
<name>4404</name>
</trkpt>
<trkpt lat="48.934382" lon="8.675982">
<ele>331.5</ele>
<speed>2.2</speed>
<course>307.4</course>
<desc>Speed 2.2 km/h Distance 5.90 km</desc>
<time>2010-03-14T11:38:58.27</time>
<name>4405</name>
</trkpt>
<trkpt lat="48.934387" lon="8.675972">
<ele>331.0</ele>
<speed>2.1</speed>
<course>297.0</course>
<desc>Speed 2.1 km/h Distance 5.90 km</desc>
<time>2010-03-14T11:38:59.27</time>
<name>4406</name>
</trkpt>
<trkpt lat="48.934390" lon="8.675962">
<ele>330.0</ele>
<speed>1.9</speed>
<course>312.9</course>
<desc>Speed 1.9 km/h Distance 5.90 km</desc>
<time>2010-03-14T11:39:00.27</time>
<name>4407</name>
</trkpt>
<trkpt lat="48.934395" lon="8.675953">
<ele>330.0</ele>
<speed>1.7</speed>
<course>327.7</course>
<desc>Speed 1.7 km/h Distance 5.90 km</desc>
<time>2010-03-14T11:39:01.28</time>
<name>4408</name>
</trkpt>
<trkpt lat="48.934400" lon="8.675948">
<ele>329.5</ele>
<speed>1.6</speed>
<course>326.8</course>
<desc>Speed 1.6 km/h Distance 5.90 km</desc>
<time>2010-03-14T11:39:02.27</time>
<name>4409</name>
</trkpt>
<trkpt lat="48.934408" lon="8.675940">
<ele>329.0</ele>
<speed>2.2</speed>
<course>282.2</course>
<desc>Speed 2.2 km/h Distance 5.90 km</desc>
<time>2010-03-14T11:39:03.27</time>
<name>4410</name>
</trkpt>
<trkpt lat="48.934410" lon="8.675928">
<ele>328.5</ele>
<speed>2.1</speed>
<course>252.2</course>
<desc>Speed 2.1 km/h Distance 5.90 km</desc>
<time>2010-03-14T11:39:04.27</time>
<name>4411</name>
</trkpt>
<trkpt lat="48.934397" lon="8.675865">
<ele>332.5</ele>
<speed>1.2</speed>
<course>307.6</course>
<desc>Speed 1.2 km/h Distance 5.91 km</desc>
<time>2010-03-14T11:39:06.27</time>
<name>4412</name>
</trkpt>
<trkpt lat="48.934402" lon="8.675855">
<ele>332.0</ele>
<speed>2.1</speed>
<course>254.9</course>
<desc>Speed 2.1 km/h Distance 5.91 km</desc>
<time>2010-03-14T11:39:07.27</time>
<name>4413</name>
</trkpt>
<trkpt lat="48.934397" lon="8.675827">
<ele>333.0</ele>
<speed>2.3</speed>
<course>290.9</course>
<desc>Speed 2.3 km/h Distance 5.91 km</desc>
<time>2010-03-14T11:39:08.27</time>
<name>4414</name>
</trkpt>
<trkpt lat="48.934400" lon="8.675813">
<ele>332.0</ele>
<speed>2.8</speed>
<course>307.2</course>
<desc>Speed 2.8 km/h Distance 5.91 km</desc>
<time>2010-03-14T11:39:09.27</time>
<name>4415</name>
</trkpt>
<trkpt lat="48.934405" lon="8.675803">
<ele>331.5</ele>
<speed>2.7</speed>
<course>312.2</course>
<desc>Speed 2.7 km/h Distance 5.91 km</desc>
<time>2010-03-14T11:39:10.27</time>
<name>4416</name>
</trkpt>
<trkpt lat="48.934410" lon="8.675795">
<ele>331.5</ele>
<speed>2.1</speed>
<course>245.8</course>
<desc>Speed 2.1 km/h Distance 5.91 km</desc>
<time>2010-03-14T11:39:11.27</time>
<name>4417</name>
</trkpt>
<trkpt lat="48.934388" lon="8.675722">
<ele>337.5</ele>
<speed>1.2</speed>
<course>251.3</course>
<desc>Speed 1.2 km/h Distance 5.92 km</desc>
<time>2010-03-14T11:39:13.27</time>
<name>4418</name>
</trkpt>
<trkpt lat="48.934385" lon="8.675707">
<ele>338.0</ele>
<speed>0.8</speed>
<course>244.9</course>
<desc>Speed 0.8 km/h Distance 5.92 km</desc>
<time>2010-03-14T11:39:14.27</time>
<name>4419</name>
</trkpt>
<trkpt lat="48.934378" lon="8.675685">
<ele>339.0</ele>
<speed>0.7</speed>
<course>237.6</course>
<desc>Speed 0.7 km/h Distance 5.92 km</desc>
<time>2010-03-14T11:39:15.27</time>
<name>4420</name>
</trkpt>
<trkpt lat="48.934370" lon="8.675665">
<ele>341.5</ele>
<speed>0.1</speed>
<course>241.0</course>
<desc>Speed 0.1 km/h Distance 5.92 km</desc>
<time>2010-03-14T11:39:16.27</time>
<name>4421</name>
</trkpt>
<trkpt lat="48.934363" lon="8.675647">
<ele>343.0</ele>
<speed>0.3</speed>
<course>247.1</course>
<desc>Speed 0.3 km/h Distance 5.92 km</desc>
<time>2010-03-14T11:39:17.29</time>
<name>4422</name>
</trkpt>
<trkpt lat="48.934355" lon="8.675617">
<ele>345.0</ele>
<speed>0.4</speed>
<course>233.0</course>
<desc>Speed 0.4 km/h Distance 5.93 km</desc>
<time>2010-03-14T11:39:19.27</time>
<name>4423</name>
</trkpt>
<trkpt lat="48.934352" lon="8.675610">
<ele>346.0</ele>
<speed>0.1</speed>
<course>252.9</course>
<desc>Speed 0.1 km/h Distance 5.93 km</desc>
<time>2010-03-14T11:39:20.26</time>
<name>4424</name>
</trkpt>
<trkpt lat="48.934350" lon="8.675602">
<ele>346.5</ele>
<speed>0.1</speed>
<course>243.0</course>
<desc>Speed 0.1 km/h Distance 5.93 km</desc>
<time>2010-03-14T11:39:21.26</time>
<name>4425</name>
</trkpt>
<trkpt lat="48.934347" lon="8.675592">
<ele>347.5</ele>
<speed>0.2</speed>
<course>251.3</course>
<desc>Speed 0.2 km/h Distance 5.93 km</desc>
<time>2010-03-14T11:39:22.26</time>
<name>4426</name>
</trkpt>
<trkpt lat="48.934343" lon="8.675577">
<ele>348.0</ele>
<speed>0.1</speed>
<course>270.0</course>
<desc>Speed 0.1 km/h Distance 5.93 km</desc>
<time>2010-03-14T11:39:23.26</time>
<name>4427</name>
</trkpt>
<trkpt lat="48.934343" lon="8.675575">
<ele>348.5</ele>
<speed>0.4</speed>
<course>287.1</course>
<desc>Speed 0.4 km/h Distance 5.93 km</desc>
<time>2010-03-14T11:39:24.29</time>
<name>4428</name>
</trkpt>
<trkpt lat="48.934345" lon="8.675567">
<ele>349.0</ele>
<speed>1.3</speed>
<course>310.9</course>
<desc>Speed 1.3 km/h Distance 5.93 km</desc>
<time>2010-03-14T11:39:25.26</time>
<name>4429</name>
</trkpt>
<trkpt lat="48.934352" lon="8.675555">
<ele>348.5</ele>
<speed>0.6</speed>
<course>308.1</course>
<desc>Speed 0.6 km/h Distance 5.93 km</desc>
<time>2010-03-14T11:39:26.26</time>
<name>4430</name>
</trkpt>
<trkpt lat="48.934353" lon="8.675552">
<ele>348.5</ele>
<speed>0.5</speed>
<course>270.0</course>
<desc>Speed 0.5 km/h Distance 5.93 km</desc>
<time>2010-03-14T11:39:27.28</time>
<name>4431</name>
</trkpt>
<trkpt lat="48.934353" lon="8.675547">
<ele>349.0</ele>
<speed>0.2</speed>
<course>270.0</course>
<desc>Speed 0.2 km/h Distance 5.93 km</desc>
<time>2010-03-14T11:39:28.25</time>
<name>4432</name>
</trkpt>
<trkpt lat="48.934353" lon="8.675543">
<ele>349.5</ele>
<speed>0.1</speed>
<course>249.1</course>
<desc>Speed 0.1 km/h Distance 5.93 km</desc>
<time>2010-03-14T11:39:29.25</time>
<name>4433</name>
</trkpt>
<trkpt lat="48.934352" lon="8.675537">
<ele>349.5</ele>
<speed>0.1</speed>
<course>242.6</course>
<desc>Speed 0.1 km/h Distance 5.93 km</desc>
<time>2010-03-14T11:39:30.26</time>
<name>4434</name>
</trkpt>
<trkpt lat="48.934350" lon="8.675532">
<ele>350.5</ele>
<speed>0.1</speed>
<course>220.9</course>
<desc>Speed 0.1 km/h Distance 5.93 km</desc>
<time>2010-03-14T11:39:31.26</time>
<name>4435</name>
</trkpt>
<trkpt lat="48.934345" lon="8.675525">
<ele>351.0</ele>
<speed>0.3</speed>
<course>221.9</course>
<desc>Speed 0.3 km/h Distance 5.93 km</desc>
<time>2010-03-14T11:39:32.26</time>
<name>4436</name>
</trkpt>
<trkpt lat="48.934340" lon="8.675518">
<ele>352.0</ele>
<speed>0.1</speed>
<course>231.9</course>
<desc>Speed 0.1 km/h Distance 5.93 km</desc>
<time>2010-03-14T11:39:33.43</time>
<name>4437</name>
</trkpt>
<trkpt lat="48.934338" lon="8.675515">
<ele>352.5</ele>
<speed>0.1</speed>
<course>236.9</course>
<desc>Speed 0.1 km/h Distance 5.93 km</desc>
<time>2010-03-14T11:39:34.26</time>
<name>4438</name>
</trkpt>
<trkpt lat="48.934333" lon="8.675503">
<ele>353.5</ele>
<speed>0.9</speed>
<course>225.5</course>
<desc>Speed 0.9 km/h Distance 5.94 km</desc>
<time>2010-03-14T11:39:35.26</time>
<name>4439</name>
</trkpt>
<trkpt lat="48.934300" lon="8.675452">
<ele>354.5</ele>
<speed>1.2</speed>
<course>227.6</course>
<desc>Speed 1.2 km/h Distance 5.94 km</desc>
<time>2010-03-14T11:39:37.26</time>
<name>4440</name>
</trkpt>
<trkpt lat="48.934280" lon="8.675418">
<ele>354.5</ele>
<speed>1.4</speed>
<course>25.7</course>
<desc>Speed 1.4 km/h Distance 5.94 km</desc>
<time>2010-03-14T11:39:39.25</time>
<name>4441</name>
</trkpt>
<trkpt lat="48.934298" lon="8.675432">
<ele>355.0</ele>
<speed>0.4</speed>
<course>307.0</course>
<desc>Speed 0.4 km/h Distance 5.95 km</desc>
<time>2010-03-14T11:39:40.25</time>
<name>4442</name>
</trkpt>
<trkpt lat="48.934302" lon="8.675425">
<ele>355.0</ele>
<speed>0.1</speed>
<course>246.5</course>
<desc>Speed 0.1 km/h Distance 5.95 km</desc>
<time>2010-03-14T11:39:41.24</time>
<name>4443</name>
</trkpt>
<trkpt lat="48.934295" lon="8.675402">
<ele>355.0</ele>
<speed>0.2</speed>
<course>227.6</course>
<desc>Speed 0.2 km/h Distance 5.95 km</desc>
<time>2010-03-14T11:39:42.24</time>
<name>4444</name>
</trkpt>
<trkpt lat="48.934285" lon="8.675385">
<ele>355.5</ele>
<speed>0.6</speed>
<course>260.1</course>
<desc>Speed 0.6 km/h Distance 5.95 km</desc>
<time>2010-03-14T11:39:43.31</time>
<name>4445</name>
</trkpt>
<trkpt lat="48.934278" lon="8.675327">
<ele>354.0</ele>
<speed>0.8</speed>
<course>270.0</course>
<desc>Speed 0.8 km/h Distance 5.95 km</desc>
<time>2010-03-14T11:39:45.24</time>
<name>4446</name>
</trkpt>
<trkpt lat="48.934278" lon="8.675325">
<ele>354.5</ele>
<speed>0.8</speed>
<course>302.9</course>
<desc>Speed 0.8 km/h Distance 5.95 km</desc>
<time>2010-03-14T11:39:46.23</time>
<name>4447</name>
</trkpt>
<trkpt lat="48.934283" lon="8.675313">
<ele>353.5</ele>
<speed>0.8</speed>
<course>262.8</course>
<desc>Speed 0.8 km/h Distance 5.96 km</desc>
<time>2010-03-14T11:39:47.23</time>
<name>4448</name>
</trkpt>
<trkpt lat="48.934282" lon="8.675293">
<ele>352.5</ele>
<speed>3.9</speed>
<course>245.1</course>
<desc>Speed 3.9 km/h Distance 5.96 km</desc>
<time>2010-03-14T11:39:48.22</time>
<name>4449</name>
</trkpt>
<trkpt lat="48.934233" lon="8.675135">
<ele>353.5</ele>
<speed>0.3</speed>
<course>322.8</course>
<desc>Speed 0.3 km/h Distance 5.97 km</desc>
<time>2010-03-14T11:39:51.23</time>
<name>4450</name>
</trkpt>
<trkpt lat="48.934235" lon="8.675133">
<ele>353.5</ele>
<speed>0.3</speed>
<course>223.5</course>
<desc>Speed 0.3 km/h Distance 5.97 km</desc>
<time>2010-03-14T11:39:52.23</time>
<name>4451</name>
</trkpt>
<trkpt lat="48.934232" lon="8.675128">
<ele>354.0</ele>
<speed>1.5</speed>
<course>232.7</course>
<desc>Speed 1.5 km/h Distance 5.97 km</desc>
<time>2010-03-14T11:39:53.23</time>
<name>4452</name>
</trkpt>
<trkpt lat="48.934225" lon="8.675115">
<ele>354.5</ele>
<speed>2.3</speed>
<course>330.8</course>
<desc>Speed 2.3 km/h Distance 5.97 km</desc>
<time>2010-03-14T11:39:54.22</time>
<name>4453</name>
</trkpt>
<trkpt lat="48.934227" lon="8.675113">
<ele>354.5</ele>
<speed>0.5</speed>
<course>242.6</course>
<desc>Speed 0.5 km/h Distance 5.97 km</desc>
<time>2010-03-14T11:39:55.22</time>
<name>4454</name>
</trkpt>
<trkpt lat="48.934225" lon="8.675108">
<ele>355.0</ele>
<speed>0.1</speed>
<course>326.3</course>
<desc>Speed 0.1 km/h Distance 5.97 km</desc>
<time>2010-03-14T11:39:56.22</time>
<name>4455</name>
</trkpt>
<trkpt lat="48.934228" lon="8.675105">
<ele>355.5</ele>
<speed>0.8</speed>
<course>23.8</course>
<desc>Speed 0.8 km/h Distance 5.97 km</desc>
<time>2010-03-14T11:39:57.22</time>
<name>4456</name>
</trkpt>
<trkpt lat="48.934238" lon="8.675112">
<ele>356.5</ele>
<speed>0.2</speed>
<course>12.6</course>
<desc>Speed 0.2 km/h Distance 5.97 km</desc>
<time>2010-03-14T11:39:58.22</time>
<name>4457</name>
</trkpt>
<trkpt lat="48.934240" lon="8.675112">
<ele>356.5</ele>
<speed>0.2</speed>
<course>9.0</course>
<desc>Speed 0.2 km/h Distance 5.97 km</desc>
<time>2010-03-14T11:39:59.22</time>
<name>4458</name>
</trkpt>
<trkpt lat="48.934253" lon="8.675115">
<ele>358.0</ele>
<speed>0.3</speed>
<course>232.7</course>
<desc>Speed 0.3 km/h Distance 5.98 km</desc>
<time>2010-03-14T11:40:00.22</time>
<name>4459</name>
</trkpt>
<trkpt lat="48.934247" lon="8.675102">
<ele>359.0</ele>
<speed>0.9</speed>
<course>260.4</course>
<desc>Speed 0.9 km/h Distance 5.98 km</desc>
<time>2010-03-14T11:40:01.23</time>
<name>4460</name>
</trkpt>
<trkpt lat="48.934245" lon="8.675087">
<ele>360.5</ele>
<speed>0.6</speed>
<course>0.0</course>
<desc>Speed 0.6 km/h Distance 5.98 km</desc>
<time>2010-03-14T11:40:02.21</time>
<name>4461</name>
</trkpt>
<trkpt lat="48.934250" lon="8.675087">
<ele>360.5</ele>
<speed>0.7</speed>
<course>209.2</course>
<desc>Speed 0.7 km/h Distance 5.98 km</desc>
<time>2010-03-14T11:40:03.21</time>
<name>4462</name>
</trkpt>
<trkpt lat="48.934248" lon="8.675085">
<ele>361.0</ele>
<speed>0.5</speed>
<course>287.1</course>
<desc>Speed 0.5 km/h Distance 5.98 km</desc>
<time>2010-03-14T11:40:04.21</time>
<name>4463</name>
</trkpt>
<trkpt lat="48.934250" lon="8.675077">
<ele>361.5</ele>
<speed>1.3</speed>
<course>270.0</course>
<desc>Speed 1.3 km/h Distance 5.98 km</desc>
<time>2010-03-14T11:40:05.22</time>
<name>4464</name>
</trkpt>
<trkpt lat="48.934250" lon="8.675072">
<ele>362.0</ele>
<speed>2.5</speed>
<course>240.3</course>
<desc>Speed 2.5 km/h Distance 5.98 km</desc>
<time>2010-03-14T11:40:06.21</time>
<name>4465</name>
</trkpt>
<trkpt lat="48.934245" lon="8.675058">
<ele>363.0</ele>
<speed>0.5</speed>
<course>219.4</course>
<desc>Speed 0.5 km/h Distance 5.98 km</desc>
<time>2010-03-14T11:40:07.21</time>
<name>4466</name>
</trkpt>
<trkpt lat="48.934212" lon="8.675017">
<ele>364.0</ele>
<speed>6.4</speed>
<course>171.2</course>
<desc>Speed 6.4 km/h Distance 5.99 km</desc>
<time>2010-03-14T11:40:09.21</time>
<name>4467</name>
</trkpt>
<trkpt lat="48.934197" lon="8.675020">
<ele>364.0</ele>
<speed>6.3</speed>
<course>357.5</course>
<desc>Speed 6.3 km/h Distance 5.99 km</desc>
<time>2010-03-14T11:40:10.21</time>
<name>4468</name>
</trkpt>
<trkpt lat="48.934222" lon="8.675018">
<ele>364.0</ele>
<speed>8.7</speed>
<course>346.7</course>
<desc>Speed 8.7 km/h Distance 5.99 km</desc>
<time>2010-03-14T11:40:11.21</time>
<name>4469</name>
</trkpt>
<trkpt lat="48.934240" lon="8.675012">
<ele>364.5</ele>
<speed>0.6</speed>
<course>1.9</course>
<desc>Speed 0.6 km/h Distance 5.99 km</desc>
<time>2010-03-14T11:40:13.21</time>
<name>4470</name>
</trkpt>
<trkpt lat="48.934255" lon="8.675012">
<ele>365.0</ele>
<speed>0.5</speed>
<course>333.6</course>
<desc>Speed 0.5 km/h Distance 5.99 km</desc>
<time>2010-03-14T11:40:14.21</time>
<name>4471</name>
</trkpt>
<trkpt lat="48.934262" lon="8.675007">
<ele>364.5</ele>
<speed>0.1</speed>
<course>12.6</course>
<desc>Speed 0.1 km/h Distance 6.00 km</desc>
<time>2010-03-14T11:40:15.21</time>
<name>4472</name>
</trkpt>
<trkpt lat="48.934265" lon="8.675007">
<ele>364.5</ele>
<speed>0.3</speed>
<course>12.6</course>
<desc>Speed 0.3 km/h Distance 6.00 km</desc>
<time>2010-03-14T11:40:16.21</time>
<name>4473</name>
</trkpt>
<trkpt lat="48.934268" lon="8.675007">
<ele>364.5</ele>
<speed>0.2</speed>
<course>341.2</course>
<desc>Speed 0.2 km/h Distance 6.00 km</desc>
<time>2010-03-14T11:40:17.21</time>
<name>4474</name>
</trkpt>
<trkpt lat="48.934272" lon="8.675005">
<ele>364.5</ele>
<speed>0.2</speed>
<course>347.4</course>
<desc>Speed 0.2 km/h Distance 6.00 km</desc>
<time>2010-03-14T11:40:18.22</time>
<name>4475</name>
</trkpt>
<trkpt lat="48.934273" lon="8.675003">
<ele>364.5</ele>
<speed>0.1</speed>
<course>270.0</course>
<desc>Speed 0.1 km/h Distance 6.00 km</desc>
<time>2010-03-14T11:40:19.21</time>
<name>4476</name>
</trkpt>
<trkpt lat="48.934273" lon="8.675002">
<ele>364.0</ele>
<speed>0.1</speed>
<course>270.0</course>
<desc>Speed 0.1 km/h Distance 6.00 km</desc>
<time>2010-03-14T11:40:20.21</time>
<name>4477</name>
</trkpt>
<trkpt lat="48.934273" lon="8.674997">
<ele>364.0</ele>
<speed>0.2</speed>
<course>231.9</course>
<desc>Speed 0.2 km/h Distance 6.00 km</desc>
<time>2010-03-14T11:40:21.21</time>
<name>4478</name>
</trkpt>
<trkpt lat="48.934272" lon="8.674993">
<ele>364.0</ele>
<speed>0.1</speed>
<course>224.5</course>
<desc>Speed 0.1 km/h Distance 6.00 km</desc>
<time>2010-03-14T11:40:22.21</time>
<name>4479</name>
</trkpt>
<trkpt lat="48.934268" lon="8.674988">
<ele>364.0</ele>
<speed>0.1</speed>
<course>270.0</course>
<desc>Speed 0.1 km/h Distance 6.00 km</desc>
<time>2010-03-14T11:40:23.22</time>
<name>4480</name>
</trkpt>
<trkpt lat="48.934268" lon="8.674987">
<ele>364.0</ele>
<speed>0.2</speed>
<course>330.8</course>
<desc>Speed 0.2 km/h Distance 6.00 km</desc>
<time>2010-03-14T11:40:24.21</time>
<name>4481</name>
</trkpt>
<trkpt lat="48.934270" lon="8.674985">
<ele>364.0</ele>
<speed>0.2</speed>
<course>308.1</course>
<desc>Speed 0.2 km/h Distance 6.00 km</desc>
<time>2010-03-14T11:40:25.21</time>
<name>4482</name>
</trkpt>
<trkpt lat="48.934272" lon="8.674982">
<ele>363.5</ele>
<speed>0.0</speed>
<course>308.1</course>
<desc>Speed 0.0 km/h Distance 6.00 km</desc>
<time>2010-03-14T11:40:26.23</time>
<name>4483</name>
</trkpt>
<trkpt lat="48.934272" lon="8.674982">
<ele>363.5</ele>
<speed>0.0</speed>
<course>231.9</course>
<desc>Speed 0.0 km/h Distance 6.00 km</desc>
<time>2010-03-14T11:40:27.21</time>
<name>4484</name>
</trkpt>
<trkpt lat="48.934270" lon="8.674978">
<ele>364.0</ele>
<speed>0.2</speed>
<course>231.9</course>
<desc>Speed 0.2 km/h Distance 6.00 km</desc>
<time>2010-03-14T11:40:28.21</time>
<name>4485</name>
</trkpt>
<trkpt lat="48.934268" lon="8.674975">
<ele>364.0</ele>
<speed>0.3</speed>
<course>231.9</course>
<desc>Speed 0.3 km/h Distance 6.00 km</desc>
<time>2010-03-14T11:40:29.21</time>
<name>4486</name>
</trkpt>
<trkpt lat="48.934268" lon="8.674975">
<ele>364.0</ele>
<speed>0.2</speed>
<course>231.9</course>
<desc>Speed 0.2 km/h Distance 6.00 km</desc>
<time>2010-03-14T11:40:30.22</time>
<name>4487</name>
</trkpt>
<trkpt lat="48.934268" lon="8.674975">
<ele>364.0</ele>
<speed>0.3</speed>
<course>231.9</course>
<desc>Speed 0.3 km/h Distance 6.00 km</desc>
<time>2010-03-14T11:40:31.21</time>
<name>4488</name>
</trkpt>
<trkpt lat="48.934268" lon="8.674975">
<ele>364.0</ele>
<speed>0.1</speed>
<course>270.0</course>
<desc>Speed 0.1 km/h Distance 6.00 km</desc>
<time>2010-03-14T11:40:32.21</time>
<name>4489</name>
</trkpt>
<trkpt lat="48.934268" lon="8.674973">
<ele>364.0</ele>
<speed>0.1</speed>
<course>270.0</course>
<desc>Speed 0.1 km/h Distance 6.00 km</desc>
<time>2010-03-14T11:40:33.21</time>
<name>4490</name>
</trkpt>
<trkpt lat="48.934268" lon="8.674973">
<ele>364.0</ele>
<speed>0.1</speed>
<course>270.0</course>
<desc>Speed 0.1 km/h Distance 6.00 km</desc>
<time>2010-03-14T11:40:34.21</time>
<name>4491</name>
</trkpt>
<trkpt lat="48.934268" lon="8.674973">
<ele>364.0</ele>
<speed>0.1</speed>
<course>270.0</course>
<desc>Speed 0.1 km/h Distance 6.00 km</desc>
<time>2010-03-14T11:40:35.21</time>
<name>4492</name>
</trkpt>
<trkpt lat="48.934268" lon="8.674972">
<ele>364.0</ele>
<speed>0.2</speed>
<course>12.6</course>
<desc>Speed 0.2 km/h Distance 6.00 km</desc>
<time>2010-03-14T11:40:36.21</time>
<name>4493</name>
</trkpt>
<trkpt lat="48.934270" lon="8.674972">
<ele>364.0</ele>
<speed>0.2</speed>
<course>12.6</course>
<desc>Speed 0.2 km/h Distance 6.00 km</desc>
<time>2010-03-14T11:40:37.21</time>
<name>4494</name>
</trkpt>
<trkpt lat="48.934270" lon="8.674972">
<ele>364.0</ele>
<speed>0.3</speed>
<course>12.6</course>
<desc>Speed 0.3 km/h Distance 6.00 km</desc>
<time>2010-03-14T11:40:38.22</time>
<name>4495</name>
</trkpt>
<trkpt lat="48.934270" lon="8.674972">
<ele>364.0</ele>
<speed>0.5</speed>
<course>12.6</course>
<desc>Speed 0.5 km/h Distance 6.00 km</desc>
<time>2010-03-14T11:40:39.24</time>
<name>4496</name>
</trkpt>
<trkpt lat="48.934270" lon="8.674972">
<ele>364.0</ele>
<speed>0.4</speed>
<course>12.6</course>
<desc>Speed 0.4 km/h Distance 6.00 km</desc>
<time>2010-03-14T11:40:40.24</time>
<name>4497</name>
</trkpt>
<trkpt lat="48.934270" lon="8.674972">
<ele>364.0</ele>
<speed>0.3</speed>
<course>12.6</course>
<desc>Speed 0.3 km/h Distance 6.00 km</desc>
<time>2010-03-14T11:40:41.24</time>
<name>4498</name>
</trkpt>
<trkpt lat="48.934270" lon="8.674972">
<ele>364.0</ele>
<speed>0.2</speed>
<course>270.0</course>
<desc>Speed 0.2 km/h Distance 6.00 km</desc>
<time>2010-03-14T11:40:42.24</time>
<name>4499</name>
</trkpt>
<trkpt lat="48.934270" lon="8.674970">
<ele>364.0</ele>
<speed>0.2</speed>
<course>270.0</course>
<desc>Speed 0.2 km/h Distance 6.00 km</desc>
<time>2010-03-14T11:40:43.24</time>
<name>4500</name>
</trkpt>
<trkpt lat="48.934270" lon="8.674970">
<ele>364.0</ele>
<speed>0.4</speed>
<course>90.0</course>
<desc>Speed 0.4 km/h Distance 6.00 km</desc>
<time>2010-03-14T11:40:44.24</time>
<name>4501</name>
</trkpt>
<trkpt lat="48.934270" lon="8.674972">
<ele>364.0</ele>
<speed>0.5</speed>
<course>90.0</course>
<desc>Speed 0.5 km/h Distance 6.00 km</desc>
<time>2010-03-14T11:40:45.24</time>
<name>4502</name>
</trkpt>
<trkpt lat="48.934270" lon="8.674972">
<ele>364.0</ele>
<speed>0.6</speed>
<course>90.0</course>
<desc>Speed 0.6 km/h Distance 6.00 km</desc>
<time>2010-03-14T11:40:46.24</time>
<name>4503</name>
</trkpt>
<trkpt lat="48.934270" lon="8.674972">
<ele>364.0</ele>
<speed>0.2</speed>
<course>90.0</course>
<desc>Speed 0.2 km/h Distance 6.00 km</desc>
<time>2010-03-14T11:40:47.24</time>
<name>4504</name>
</trkpt>
<trkpt lat="48.934270" lon="8.674972">
<ele>364.0</ele>
<speed>0.6</speed>
<course>90.0</course>
<desc>Speed 0.6 km/h Distance 6.00 km</desc>
<time>2010-03-14T11:40:48.24</time>
<name>4505</name>
</trkpt>
<trkpt lat="48.934270" lon="8.674972">
<ele>364.0</ele>
<speed>0.1</speed>
<course>12.6</course>
<desc>Speed 0.1 km/h Distance 6.00 km</desc>
<time>2010-03-14T11:40:49.24</time>
<name>4506</name>
</trkpt>
<trkpt lat="48.934273" lon="8.674973">
<ele>364.0</ele>
<speed>0.8</speed>
<course>90.0</course>
<desc>Speed 0.8 km/h Distance 6.00 km</desc>
<time>2010-03-14T11:40:50.24</time>
<name>4507</name>
</trkpt>
<trkpt lat="48.934273" lon="8.674975">
<ele>364.0</ele>
<speed>0.1</speed>
<course>270.0</course>
<desc>Speed 0.1 km/h Distance 6.00 km</desc>
<time>2010-03-14T11:40:51.24</time>
<name>4508</name>
</trkpt>
<trkpt lat="48.934273" lon="8.674973">
<ele>364.0</ele>
<speed>0.3</speed>
<course>270.0</course>
<desc>Speed 0.3 km/h Distance 6.00 km</desc>
<time>2010-03-14T11:40:52.24</time>
<name>4509</name>
</trkpt>
<trkpt lat="48.934273" lon="8.674973">
<ele>364.0</ele>
<speed>0.0</speed>
<course>12.6</course>
<desc>Speed 0.0 km/h Distance 6.00 km</desc>
<time>2010-03-14T11:40:53.24</time>
<name>4510</name>
</trkpt>
<trkpt lat="48.934275" lon="8.674973">
<ele>364.0</ele>
<speed>0.2</speed>
<course>12.6</course>
<desc>Speed 0.2 km/h Distance 6.00 km</desc>
<time>2010-03-14T11:40:54.24</time>
<name>4511</name>
</trkpt>
<trkpt lat="48.934275" lon="8.674973">
<ele>364.0</ele>
<speed>0.2</speed>
<course>12.6</course>
<desc>Speed 0.2 km/h Distance 6.00 km</desc>
<time>2010-03-14T11:40:55.24</time>
<name>4512</name>
</trkpt>
<trkpt lat="48.934277" lon="8.674973">
<ele>364.0</ele>
<speed>0.2</speed>
<course>12.6</course>
<desc>Speed 0.2 km/h Distance 6.00 km</desc>
<time>2010-03-14T11:40:56.24</time>
<name>4513</name>
</trkpt>
<trkpt lat="48.934277" lon="8.674973">
<ele>364.0</ele>
<speed>0.2</speed>
<course>270.0</course>
<desc>Speed 0.2 km/h Distance 6.00 km</desc>
<time>2010-03-14T11:40:57.24</time>
<name>4514</name>
</trkpt>
<trkpt lat="48.934277" lon="8.674970">
<ele>364.0</ele>
<speed>0.3</speed>
<course>270.0</course>
<desc>Speed 0.3 km/h Distance 6.00 km</desc>
<time>2010-03-14T11:40:58.24</time>
<name>4515</name>
</trkpt>
<trkpt lat="48.934277" lon="8.674970">
<ele>364.0</ele>
<speed>0.1</speed>
<course>0.0</course>
<desc>Speed 0.1 km/h Distance 6.00 km</desc>
<time>2010-03-14T11:40:59.24</time>
<name>4516</name>
</trkpt>
<trkpt lat="48.934278" lon="8.674970">
<ele>363.5</ele>
<speed>0.3</speed>
<course>270.0</course>
<desc>Speed 0.3 km/h Distance 6.00 km</desc>
<time>2010-03-14T11:41:00.24</time>
<name>4517</name>
</trkpt>
<trkpt lat="48.934278" lon="8.674968">
<ele>363.5</ele>
<speed>0.4</speed>
<course>270.0</course>
<desc>Speed 0.4 km/h Distance 6.00 km</desc>
<time>2010-03-14T11:41:01.24</time>
<name>4518</name>
</trkpt>
<trkpt lat="48.934278" lon="8.674968">
<ele>363.5</ele>
<speed>0.2</speed>
<course>270.0</course>
<desc>Speed 0.2 km/h Distance 6.00 km</desc>
<time>2010-03-14T11:41:02.24</time>
<name>4519</name>
</trkpt>
<trkpt lat="48.934278" lon="8.674967">
<ele>363.5</ele>
<speed>0.4</speed>
<course>330.8</course>
<desc>Speed 0.4 km/h Distance 6.00 km</desc>
<time>2010-03-14T11:41:03.24</time>
<name>4520</name>
</trkpt>
<trkpt lat="48.934280" lon="8.674965">
<ele>363.5</ele>
<speed>0.3</speed>
<course>270.0</course>
<desc>Speed 0.3 km/h Distance 6.00 km</desc>
<time>2010-03-14T11:41:04.24</time>
<name>4521</name>
</trkpt>
<trkpt lat="48.934280" lon="8.674963">
<ele>363.5</ele>
<speed>0.5</speed>
<course>270.0</course>
<desc>Speed 0.5 km/h Distance 6.00 km</desc>
<time>2010-03-14T11:41:05.24</time>
<name>4522</name>
</trkpt>
<trkpt lat="48.934280" lon="8.674963">
<ele>363.5</ele>
<speed>0.4</speed>
<course>270.0</course>
<desc>Speed 0.4 km/h Distance 6.00 km</desc>
<time>2010-03-14T11:41:06.24</time>
<name>4523</name>
</trkpt>
<trkpt lat="48.934280" lon="8.674963">
<ele>363.5</ele>
<speed>0.4</speed>
<course>270.0</course>
<desc>Speed 0.4 km/h Distance 6.00 km</desc>
<time>2010-03-14T11:41:07.24</time>
<name>4524</name>
</trkpt>
<trkpt lat="48.934280" lon="8.674963">
<ele>363.5</ele>
<speed>0.1</speed>
<course>270.0</course>
<desc>Speed 0.1 km/h Distance 6.00 km</desc>
<time>2010-03-14T11:41:08.24</time>
<name>4525</name>
</trkpt>
<trkpt lat="48.934280" lon="8.674962">
<ele>363.5</ele>
<speed>0.6</speed>
<course>12.6</course>
<desc>Speed 0.6 km/h Distance 6.00 km</desc>
<time>2010-03-14T11:41:09.24</time>
<name>4526</name>
</trkpt>
<trkpt lat="48.934282" lon="8.674962">
<ele>363.5</ele>
<speed>0.1</speed>
<course>12.6</course>
<desc>Speed 0.1 km/h Distance 6.00 km</desc>
<time>2010-03-14T11:41:10.24</time>
<name>4527</name>
</trkpt>
<trkpt lat="48.934282" lon="8.674962">
<ele>363.5</ele>
<speed>0.6</speed>
<course>12.6</course>
<desc>Speed 0.6 km/h Distance 6.00 km</desc>
<time>2010-03-14T11:41:11.24</time>
<name>4528</name>
</trkpt>
<trkpt lat="48.934282" lon="8.674962">
<ele>363.5</ele>
<speed>0.1</speed>
<course>12.6</course>
<desc>Speed 0.1 km/h Distance 6.00 km</desc>
<time>2010-03-14T11:41:12.24</time>
<name>4529</name>
</trkpt>
<trkpt lat="48.934282" lon="8.674962">
<ele>363.5</ele>
<speed>0.1</speed>
<course>12.6</course>
<desc>Speed 0.1 km/h Distance 6.00 km</desc>
<time>2010-03-14T11:41:13.24</time>
<name>4530</name>
</trkpt>
<trkpt lat="48.934282" lon="8.674962">
<ele>363.5</ele>
<speed>0.2</speed>
<course>188.1</course>
<desc>Speed 0.2 km/h Distance 6.00 km</desc>
<time>2010-03-14T11:41:14.24</time>
<name>4531</name>
</trkpt>
<trkpt lat="48.934277" lon="8.674960">
<ele>363.5</ele>
<speed>1.4</speed>
<course>188.1</course>
<desc>Speed 1.4 km/h Distance 6.00 km</desc>
<time>2010-03-14T11:41:15.24</time>
<name>4532</name>
</trkpt>
<trkpt lat="48.934277" lon="8.674960">
<ele>363.5</ele>
<speed>0.4</speed>
<course>217.2</course>
<desc>Speed 0.4 km/h Distance 6.00 km</desc>
<time>2010-03-14T11:41:16.24</time>
<name>4533</name>
</trkpt>
<trkpt lat="48.934275" lon="8.674958">
<ele>363.5</ele>
<speed>0.1</speed>
<course>0.0</course>
<desc>Speed 0.1 km/h Distance 6.00 km</desc>
<time>2010-03-14T11:41:17.24</time>
<name>4534</name>
</trkpt>
<trkpt lat="48.934285" lon="8.674958">
<ele>364.5</ele>
<speed>0.4</speed>
<course>0.0</course>
<desc>Speed 0.4 km/h Distance 6.00 km</desc>
<time>2010-03-14T11:41:18.24</time>
<name>4535</name>
</trkpt>
<trkpt lat="48.934290" lon="8.674958">
<ele>364.5</ele>
<speed>0.7</speed>
<course>0.0</course>
<desc>Speed 0.7 km/h Distance 6.00 km</desc>
<time>2010-03-14T11:41:19.24</time>
<name>4536</name>
</trkpt>
<trkpt lat="48.934290" lon="8.674958">
<ele>364.5</ele>
<speed>0.1</speed>
<course>0.0</course>
<desc>Speed 0.1 km/h Distance 6.00 km</desc>
<time>2010-03-14T11:41:20.24</time>
<name>4537</name>
</trkpt>
<trkpt lat="48.934290" lon="8.674958">
<ele>364.5</ele>
<speed>0.6</speed>
<course>150.8</course>
<desc>Speed 0.6 km/h Distance 6.00 km</desc>
<time>2010-03-14T11:41:21.24</time>
<name>4538</name>
</trkpt>
<trkpt lat="48.934288" lon="8.674958">
<ele>364.5</ele>
<speed>0.3</speed>
<course>90.0</course>
<desc>Speed 0.3 km/h Distance 6.00 km</desc>
<time>2010-03-14T11:41:22.24</time>
<name>4539</name>
</trkpt>
<trkpt lat="48.934288" lon="8.674960">
<ele>365.0</ele>
<speed>0.1</speed>
<course>90.0</course>
<desc>Speed 0.1 km/h Distance 6.00 km</desc>
<time>2010-03-14T11:41:23.24</time>
<name>4540</name>
</trkpt>
<trkpt lat="48.934288" lon="8.674960">
<ele>365.0</ele>
<speed>0.6</speed>
<course>90.0</course>
<desc>Speed 0.6 km/h Distance 6.00 km</desc>
<time>2010-03-14T11:41:24.24</time>
<name>4541</name>
</trkpt>
<trkpt lat="48.934288" lon="8.674960">
<ele>365.0</ele>
<speed>0.2</speed>
<course>29.2</course>
<desc>Speed 0.2 km/h Distance 6.00 km</desc>
<time>2010-03-14T11:41:25.24</time>
<name>4542</name>
</trkpt>
<trkpt lat="48.934290" lon="8.674960">
<ele>365.0</ele>
<speed>0.2</speed>
<course>12.6</course>
<desc>Speed 0.2 km/h Distance 6.00 km</desc>
<time>2010-03-14T11:41:26.24</time>
<name>4543</name>
</trkpt>
<trkpt lat="48.934292" lon="8.674960">
<ele>365.5</ele>
<speed>0.3</speed>
<course>90.0</course>
<desc>Speed 0.3 km/h Distance 6.01 km</desc>
<time>2010-03-14T11:41:27.24</time>
<name>4544</name>
</trkpt>
<trkpt lat="48.934292" lon="8.674962">
<ele>365.5</ele>
<speed>0.1</speed>
<course>90.0</course>
<desc>Speed 0.1 km/h Distance 6.01 km</desc>
<time>2010-03-14T11:41:28.24</time>
<name>4545</name>
</trkpt>
<trkpt lat="48.934292" lon="8.674962">
<ele>365.5</ele>
<speed>0.1</speed>
<course>90.0</course>
<desc>Speed 0.1 km/h Distance 6.01 km</desc>
<time>2010-03-14T11:41:29.24</time>
<name>4546</name>
</trkpt>
<trkpt lat="48.934292" lon="8.674962">
<ele>365.5</ele>
<speed>0.1</speed>
<course>90.0</course>
<desc>Speed 0.1 km/h Distance 6.01 km</desc>
<time>2010-03-14T11:41:30.24</time>
<name>4547</name>
</trkpt>
<trkpt lat="48.934292" lon="8.674962">
<ele>365.5</ele>
<speed>0.1</speed>
<course>90.0</course>
<desc>Speed 0.1 km/h Distance 6.01 km</desc>
<time>2010-03-14T11:41:31.24</time>
<name>4548</name>
</trkpt>
<trkpt lat="48.934292" lon="8.674962">
<ele>365.5</ele>
<speed>0.1</speed>
<course>90.0</course>
<desc>Speed 0.1 km/h Distance 6.01 km</desc>
<time>2010-03-14T11:41:32.24</time>
<name>4549</name>
</trkpt>
<trkpt lat="48.934292" lon="8.674962">
<ele>365.5</ele>
<speed>0.2</speed>
<course>90.0</course>
<desc>Speed 0.2 km/h Distance 6.01 km</desc>
<time>2010-03-14T11:41:33.24</time>
<name>4550</name>
</trkpt>
<trkpt lat="48.934292" lon="8.674962">
<ele>365.5</ele>
<speed>0.1</speed>
<course>90.0</course>
<desc>Speed 0.1 km/h Distance 6.01 km</desc>
<time>2010-03-14T11:41:34.24</time>
<name>4551</name>
</trkpt>
<trkpt lat="48.934292" lon="8.674962">
<ele>365.5</ele>
<speed>0.1</speed>
<course>12.6</course>
<desc>Speed 0.1 km/h Distance 6.01 km</desc>
<time>2010-03-14T11:41:35.24</time>
<name>4552</name>
</trkpt>
<trkpt lat="48.934293" lon="8.674962">
<ele>365.5</ele>
<speed>0.1</speed>
<course>12.6</course>
<desc>Speed 0.1 km/h Distance 6.01 km</desc>
<time>2010-03-14T11:41:36.24</time>
<name>4553</name>
</trkpt>
<trkpt lat="48.934293" lon="8.674962">
<ele>365.5</ele>
<speed>0.1</speed>
<course>12.6</course>
<desc>Speed 0.1 km/h Distance 6.01 km</desc>
<time>2010-03-14T11:41:37.24</time>
<name>4554</name>
</trkpt>
<trkpt lat="48.934293" lon="8.674962">
<ele>365.5</ele>
<speed>0.3</speed>
<course>90.0</course>
<desc>Speed 0.3 km/h Distance 6.01 km</desc>
<time>2010-03-14T11:41:38.24</time>
<name>4555</name>
</trkpt>
<trkpt lat="48.934293" lon="8.674963">
<ele>365.5</ele>
<speed>0.1</speed>
<course>90.0</course>
<desc>Speed 0.1 km/h Distance 6.01 km</desc>
<time>2010-03-14T11:41:39.24</time>
<name>4556</name>
</trkpt>
<trkpt lat="48.934293" lon="8.674963">
<ele>365.5</ele>
<speed>0.4</speed>
<course>90.0</course>
<desc>Speed 0.4 km/h Distance 6.01 km</desc>
<time>2010-03-14T11:41:40.24</time>
<name>4557</name>
</trkpt>
<trkpt lat="48.934293" lon="8.674963">
<ele>366.0</ele>
<speed>0.2</speed>
<course>90.0</course>
<desc>Speed 0.2 km/h Distance 6.01 km</desc>
<time>2010-03-14T11:41:41.24</time>
<name>4558</name>
</trkpt>
<trkpt lat="48.934293" lon="8.674963">
<ele>366.0</ele>
<speed>0.1</speed>
<course>90.0</course>
<desc>Speed 0.1 km/h Distance 6.01 km</desc>
<time>2010-03-14T11:41:42.24</time>
<name>4559</name>
</trkpt>
<trkpt lat="48.934293" lon="8.674965">
<ele>366.0</ele>
<speed>0.1</speed>
<course>90.0</course>
<desc>Speed 0.1 km/h Distance 6.01 km</desc>
<time>2010-03-14T11:41:43.24</time>
<name>4560</name>
</trkpt>
<trkpt lat="48.934293" lon="8.674965">
<ele>366.0</ele>
<speed>0.1</speed>
<course>90.0</course>
<desc>Speed 0.1 km/h Distance 6.01 km</desc>
<time>2010-03-14T11:41:44.24</time>
<name>4561</name>
</trkpt>
<trkpt lat="48.934293" lon="8.674965">
<ele>366.0</ele>
<speed>0.2</speed>
<course>90.0</course>
<desc>Speed 0.2 km/h Distance 6.01 km</desc>
<time>2010-03-14T11:41:45.24</time>
<name>4562</name>
</trkpt>
<trkpt lat="48.934293" lon="8.674965">
<ele>366.0</ele>
<speed>0.5</speed>
<course>90.0</course>
<desc>Speed 0.5 km/h Distance 6.01 km</desc>
<time>2010-03-14T11:41:46.24</time>
<name>4563</name>
</trkpt>
<trkpt lat="48.934293" lon="8.674965">
<ele>366.0</ele>
<speed>0.2</speed>
<course>0.0</course>
<desc>Speed 0.2 km/h Distance 6.01 km</desc>
<time>2010-03-14T11:41:47.24</time>
<name>4564</name>
</trkpt>
<trkpt lat="48.934295" lon="8.674965">
<ele>366.0</ele>
<speed>0.6</speed>
<course>0.0</course>
<desc>Speed 0.6 km/h Distance 6.01 km</desc>
<time>2010-03-14T11:41:48.24</time>
<name>4565</name>
</trkpt>
<trkpt lat="48.934295" lon="8.674965">
<ele>366.0</ele>
<speed>0.1</speed>
<course>0.0</course>
<desc>Speed 0.1 km/h Distance 6.01 km</desc>
<time>2010-03-14T11:41:49.24</time>
<name>4566</name>
</trkpt>
<trkpt lat="48.934295" lon="8.674965">
<ele>366.0</ele>
<speed>0.1</speed>
<course>0.0</course>
<desc>Speed 0.1 km/h Distance 6.01 km</desc>
<time>2010-03-14T11:41:50.24</time>
<name>4567</name>
</trkpt>
<trkpt lat="48.934295" lon="8.674965">
<ele>366.0</ele>
<speed>0.1</speed>
<course>0.0</course>
<desc>Speed 0.1 km/h Distance 6.01 km</desc>
<time>2010-03-14T11:41:51.24</time>
<name>4568</name>
</trkpt>
<trkpt lat="48.934295" lon="8.674963">
<ele>366.0</ele>
<speed>0.1</speed>
<course>0.0</course>
<desc>Speed 0.1 km/h Distance 6.01 km</desc>
<time>2010-03-14T11:41:52.24</time>
<name>4569</name>
</trkpt>
<trkpt lat="48.934295" lon="8.674963">
<ele>366.0</ele>
<speed>0.1</speed>
<course>12.6</course>
<desc>Speed 0.1 km/h Distance 6.01 km</desc>
<time>2010-03-14T11:41:53.24</time>
<name>4570</name>
</trkpt>
<trkpt lat="48.934297" lon="8.674963">
<ele>366.0</ele>
<speed>0.1</speed>
<course>12.6</course>
<desc>Speed 0.1 km/h Distance 6.01 km</desc>
<time>2010-03-14T11:41:54.24</time>
<name>4571</name>
</trkpt>
<trkpt lat="48.934297" lon="8.674963">
<ele>366.0</ele>
<speed>0.7</speed>
<course>12.6</course>
<desc>Speed 0.7 km/h Distance 6.01 km</desc>
<time>2010-03-14T11:41:55.24</time>
<name>4572</name>
</trkpt>
<trkpt lat="48.934297" lon="8.674963">
<ele>366.0</ele>
<speed>0.3</speed>
<course>12.6</course>
<desc>Speed 0.3 km/h Distance 6.01 km</desc>
<time>2010-03-14T11:41:56.24</time>
<name>4573</name>
</trkpt>
<trkpt lat="48.934297" lon="8.674963">
<ele>366.0</ele>
<speed>0.2</speed>
<course>12.6</course>
<desc>Speed 0.2 km/h Distance 6.01 km</desc>
<time>2010-03-14T11:41:57.24</time>
<name>4574</name>
</trkpt>
<trkpt lat="48.934297" lon="8.674963">
<ele>366.0</ele>
<speed>0.1</speed>
<course>12.6</course>
<desc>Speed 0.1 km/h Distance 6.01 km</desc>
<time>2010-03-14T11:41:58.24</time>
<name>4575</name>
</trkpt>
<trkpt lat="48.934297" lon="8.674963">
<ele>366.0</ele>
<speed>0.4</speed>
<course>270.0</course>
<desc>Speed 0.4 km/h Distance 6.01 km</desc>
<time>2010-03-14T11:41:59.24</time>
<name>4576</name>
</trkpt>
<trkpt lat="48.934297" lon="8.674962">
<ele>366.0</ele>
<speed>0.3</speed>
<course>270.0</course>
<desc>Speed 0.3 km/h Distance 6.01 km</desc>
<time>2010-03-14T11:42:00.24</time>
<name>4577</name>
</trkpt>
<trkpt lat="48.934297" lon="8.674962">
<ele>366.0</ele>
<speed>0.6</speed>
<course>270.0</course>
<desc>Speed 0.6 km/h Distance 6.01 km</desc>
<time>2010-03-14T11:42:01.24</time>
<name>4578</name>
</trkpt>
<trkpt lat="48.934297" lon="8.674962">
<ele>366.0</ele>
<speed>0.2</speed>
<course>270.0</course>
<desc>Speed 0.2 km/h Distance 6.01 km</desc>
<time>2010-03-14T11:42:02.24</time>
<name>4579</name>
</trkpt>
<trkpt lat="48.934297" lon="8.674962">
<ele>366.0</ele>
<speed>0.1</speed>
<course>270.0</course>
<desc>Speed 0.1 km/h Distance 6.01 km</desc>
<time>2010-03-14T11:42:03.24</time>
<name>4580</name>
</trkpt>
<trkpt lat="48.934297" lon="8.674962">
<ele>366.0</ele>
<speed>0.0</speed>
<course>270.0</course>
<desc>Speed 0.0 km/h Distance 6.01 km</desc>
<time>2010-03-14T11:42:04.24</time>
<name>4581</name>
</trkpt>
<trkpt lat="48.934297" lon="8.674962">
<ele>366.0</ele>
<speed>0.1</speed>
<course>90.0</course>
<desc>Speed 0.1 km/h Distance 6.01 km</desc>
<time>2010-03-14T11:42:05.24</time>
<name>4582</name>
</trkpt>
<trkpt lat="48.934297" lon="8.674963">
<ele>366.0</ele>
<speed>0.3</speed>
<course>90.0</course>
<desc>Speed 0.3 km/h Distance 6.01 km</desc>
<time>2010-03-14T11:42:06.24</time>
<name>4583</name>
</trkpt>
<trkpt lat="48.934297" lon="8.674963">
<ele>366.5</ele>
<speed>0.2</speed>
<course>90.0</course>
<desc>Speed 0.2 km/h Distance 6.01 km</desc>
<time>2010-03-14T11:42:07.24</time>
<name>4584</name>
</trkpt>
<trkpt lat="48.934297" lon="8.674963">
<ele>366.5</ele>
<speed>0.2</speed>
<course>90.0</course>
<desc>Speed 0.2 km/h Distance 6.01 km</desc>
<time>2010-03-14T11:42:08.24</time>
<name>4585</name>
</trkpt>
<trkpt lat="48.934297" lon="8.674963">
<ele>366.5</ele>
<speed>0.0</speed>
<course>90.0</course>
<desc>Speed 0.0 km/h Distance 6.01 km</desc>
<time>2010-03-14T11:42:09.24</time>
<name>4586</name>
</trkpt>
<trkpt lat="48.934297" lon="8.674963">
<ele>366.5</ele>
<speed>0.2</speed>
<course>90.0</course>
<desc>Speed 0.2 km/h Distance 6.01 km</desc>
<time>2010-03-14T11:42:10.24</time>
<name>4587</name>
</trkpt>
<trkpt lat="48.934297" lon="8.674963">
<ele>366.5</ele>
<speed>0.1</speed>
<course>90.0</course>
<desc>Speed 0.1 km/h Distance 6.01 km</desc>
<time>2010-03-14T11:42:11.24</time>
<name>4588</name>
</trkpt>
<trkpt lat="48.934297" lon="8.674963">
<ele>366.5</ele>
<speed>0.1</speed>
<course>90.0</course>
<desc>Speed 0.1 km/h Distance 6.01 km</desc>
<time>2010-03-14T11:42:12.24</time>
<name>4589</name>
</trkpt>
<trkpt lat="48.934297" lon="8.674963">
<ele>366.5</ele>
<speed>0.1</speed>
<course>90.0</course>
<desc>Speed 0.1 km/h Distance 6.01 km</desc>
<time>2010-03-14T11:42:13.24</time>
<name>4590</name>
</trkpt>
<trkpt lat="48.934297" lon="8.674963">
<ele>366.5</ele>
<speed>0.2</speed>
<course>90.0</course>
<desc>Speed 0.2 km/h Distance 6.01 km</desc>
<time>2010-03-14T11:42:14.24</time>
<name>4591</name>
</trkpt>
<trkpt lat="48.934297" lon="8.674963">
<ele>366.5</ele>
<speed>0.2</speed>
<course>270.0</course>
<desc>Speed 0.2 km/h Distance 6.01 km</desc>
<time>2010-03-14T11:42:15.24</time>
<name>4592</name>
</trkpt>
<trkpt lat="48.934297" lon="8.674962">
<ele>366.5</ele>
<speed>0.1</speed>
<course>270.0</course>
<desc>Speed 0.1 km/h Distance 6.01 km</desc>
<time>2010-03-14T11:42:16.24</time>
<name>4593</name>
</trkpt>
<trkpt lat="48.934297" lon="8.674962">
<ele>366.5</ele>
<speed>0.3</speed>
<course>12.6</course>
<desc>Speed 0.3 km/h Distance 6.01 km</desc>
<time>2010-03-14T11:42:17.24</time>
<name>4594</name>
</trkpt>
<trkpt lat="48.934298" lon="8.674962">
<ele>366.5</ele>
<speed>0.1</speed>
<course>12.6</course>
<desc>Speed 0.1 km/h Distance 6.01 km</desc>
<time>2010-03-14T11:42:18.24</time>
<name>4595</name>
</trkpt>
<trkpt lat="48.934298" lon="8.674962">
<ele>366.5</ele>
<speed>0.1</speed>
<course>12.6</course>
<desc>Speed 0.1 km/h Distance 6.01 km</desc>
<time>2010-03-14T11:42:19.24</time>
<name>4596</name>
</trkpt>
<trkpt lat="48.934298" lon="8.674962">
<ele>366.5</ele>
<speed>0.0</speed>
<course>167.4</course>
<desc>Speed 0.0 km/h Distance 6.01 km</desc>
<time>2010-03-14T11:42:20.24</time>
<name>4597</name>
</trkpt>
<trkpt lat="48.934297" lon="8.674962">
<ele>366.5</ele>
<speed>0.1</speed>
<course>270.0</course>
<desc>Speed 0.1 km/h Distance 6.01 km</desc>
<time>2010-03-14T11:42:21.24</time>
<name>4598</name>
</trkpt>
<trkpt lat="48.934297" lon="8.674960">
<ele>366.5</ele>
<speed>0.2</speed>
<course>270.0</course>
<desc>Speed 0.2 km/h Distance 6.01 km</desc>
<time>2010-03-14T11:42:22.24</time>
<name>4599</name>
</trkpt>
<trkpt lat="48.934297" lon="8.674960">
<ele>366.5</ele>
<speed>0.1</speed>
<course>270.0</course>
<desc>Speed 0.1 km/h Distance 6.01 km</desc>
<time>2010-03-14T11:42:23.24</time>
<name>4600</name>
</trkpt>
<trkpt lat="48.934297" lon="8.674960">
<ele>366.5</ele>
<speed>0.1</speed>
<course>270.0</course>
<desc>Speed 0.1 km/h Distance 6.01 km</desc>
<time>2010-03-14T11:42:24.24</time>
<name>4601</name>
</trkpt>
<trkpt lat="48.934297" lon="8.674960">
<ele>366.5</ele>
<speed>0.1</speed>
<course>270.0</course>
<desc>Speed 0.1 km/h Distance 6.01 km</desc>
<time>2010-03-14T11:42:25.24</time>
<name>4602</name>
</trkpt>
<trkpt lat="48.934297" lon="8.674958">
<ele>366.5</ele>
<speed>0.1</speed>
<course>270.0</course>
<desc>Speed 0.1 km/h Distance 6.01 km</desc>
<time>2010-03-14T11:42:26.24</time>
<name>4603</name>
</trkpt>
<trkpt lat="48.934297" lon="8.674958">
<ele>366.5</ele>
<speed>0.4</speed>
<course>270.0</course>
<desc>Speed 0.4 km/h Distance 6.01 km</desc>
<time>2010-03-14T11:42:27.24</time>
<name>4604</name>
</trkpt>
<trkpt lat="48.934297" lon="8.674958">
<ele>366.5</ele>
<speed>0.1</speed>
<course>315.5</course>
<desc>Speed 0.1 km/h Distance 6.01 km</desc>
<time>2010-03-14T11:42:28.24</time>
<name>4605</name>
</trkpt>
<trkpt lat="48.934300" lon="8.674953">
<ele>366.5</ele>
<speed>2.0</speed>
<course>270.0</course>
<desc>Speed 2.0 km/h Distance 6.01 km</desc>
<time>2010-03-14T11:42:29.24</time>
<name>4606</name>
</trkpt>
<trkpt lat="48.934300" lon="8.674952">
<ele>366.5</ele>
<speed>0.5</speed>
<course>270.0</course>
<desc>Speed 0.5 km/h Distance 6.01 km</desc>
<time>2010-03-14T11:42:30.24</time>
<name>4607</name>
</trkpt>
<trkpt lat="48.934300" lon="8.674952">
<ele>366.0</ele>
<speed>0.2</speed>
<course>270.0</course>
<desc>Speed 0.2 km/h Distance 6.01 km</desc>
<time>2010-03-14T11:42:31.24</time>
<name>4608</name>
</trkpt>
<trkpt lat="48.934300" lon="8.674952">
<ele>366.0</ele>
<speed>0.5</speed>
<course>270.0</course>
<desc>Speed 0.5 km/h Distance 6.01 km</desc>
<time>2010-03-14T11:42:32.24</time>
<name>4609</name>
</trkpt>
<trkpt lat="48.934300" lon="8.674952">
<ele>366.0</ele>
<speed>0.2</speed>
<course>270.0</course>
<desc>Speed 0.2 km/h Distance 6.01 km</desc>
<time>2010-03-14T11:42:33.24</time>
<name>4610</name>
</trkpt>
<trkpt lat="48.934300" lon="8.674952">
<ele>366.0</ele>
<speed>0.3</speed>
<course>270.0</course>
<desc>Speed 0.3 km/h Distance 6.01 km</desc>
<time>2010-03-14T11:42:34.24</time>
<name>4611</name>
</trkpt>
<trkpt lat="48.934300" lon="8.674952">
<ele>366.0</ele>
<speed>0.5</speed>
<course>270.0</course>
<desc>Speed 0.5 km/h Distance 6.01 km</desc>
<time>2010-03-14T11:42:35.24</time>
<name>4612</name>
</trkpt>
<trkpt lat="48.934300" lon="8.674952">
<ele>366.0</ele>
<speed>0.1</speed>
<course>142.8</course>
<desc>Speed 0.1 km/h Distance 6.01 km</desc>
<time>2010-03-14T11:42:36.24</time>
<name>4613</name>
</trkpt>
<trkpt lat="48.934298" lon="8.674953">
<ele>366.5</ele>
<speed>0.6</speed>
<course>142.8</course>
<desc>Speed 0.6 km/h Distance 6.01 km</desc>
<time>2010-03-14T11:42:37.24</time>
<name>4614</name>
</trkpt>
<trkpt lat="48.934298" lon="8.674953">
<ele>366.0</ele>
<speed>0.2</speed>
<course>29.2</course>
<desc>Speed 0.2 km/h Distance 6.01 km</desc>
<time>2010-03-14T11:42:38.24</time>
<name>4615</name>
</trkpt>
<trkpt lat="48.934300" lon="8.674953">
<ele>366.5</ele>
<speed>0.3</speed>
<course>90.0</course>
<desc>Speed 0.3 km/h Distance 6.01 km</desc>
<time>2010-03-14T11:42:39.24</time>
<name>4616</name>
</trkpt>
<trkpt lat="48.934300" lon="8.674955">
<ele>366.5</ele>
<speed>0.1</speed>
<course>90.0</course>
<desc>Speed 0.1 km/h Distance 6.01 km</desc>
<time>2010-03-14T11:42:40.24</time>
<name>4617</name>
</trkpt>
<trkpt lat="48.934300" lon="8.674955">
<ele>366.0</ele>
<speed>0.2</speed>
<course>90.0</course>
<desc>Speed 0.2 km/h Distance 6.01 km</desc>
<time>2010-03-14T11:42:41.24</time>
<name>4618</name>
</trkpt>
<trkpt lat="48.934300" lon="8.674957">
<ele>366.5</ele>
<speed>0.1</speed>
<course>150.8</course>
<desc>Speed 0.1 km/h Distance 6.01 km</desc>
<time>2010-03-14T11:42:42.24</time>
<name>4619</name>
</trkpt>
<trkpt lat="48.934298" lon="8.674957">
<ele>365.5</ele>
<speed>1.1</speed>
<course>37.2</course>
<desc>Speed 1.1 km/h Distance 6.01 km</desc>
<time>2010-03-14T11:42:43.24</time>
<name>4620</name>
</trkpt>
<trkpt lat="48.934300" lon="8.674958">
<ele>365.5</ele>
<speed>0.4</speed>
<course>62.6</course>
<desc>Speed 0.4 km/h Distance 6.01 km</desc>
<time>2010-03-14T11:42:44.24</time>
<name>4621</name>
</trkpt>
<trkpt lat="48.934302" lon="8.674963">
<ele>366.0</ele>
<speed>0.5</speed>
<course>90.0</course>
<desc>Speed 0.5 km/h Distance 6.01 km</desc>
<time>2010-03-14T11:42:45.24</time>
<name>4622</name>
</trkpt>
<trkpt lat="48.934302" lon="8.674967">
<ele>365.5</ele>
<speed>0.0</speed>
<course>117.4</course>
<desc>Speed 0.0 km/h Distance 6.01 km</desc>
<time>2010-03-14T11:42:46.24</time>
<name>4623</name>
</trkpt>
<trkpt lat="48.934300" lon="8.674972">
<ele>365.5</ele>
<speed>0.3</speed>
<course>117.4</course>
<desc>Speed 0.3 km/h Distance 6.01 km</desc>
<time>2010-03-14T11:42:47.24</time>
<name>4624</name>
</trkpt>
<trkpt lat="48.934300" lon="8.674972">
<ele>365.5</ele>
<speed>0.3</speed>
<course>90.0</course>
<desc>Speed 0.3 km/h Distance 6.01 km</desc>
<time>2010-03-14T11:42:48.24</time>
<name>4625</name>
</trkpt>
<trkpt lat="48.934300" lon="8.674975">
<ele>365.5</ele>
<speed>0.1</speed>
<course>90.0</course>
<desc>Speed 0.1 km/h Distance 6.01 km</desc>
<time>2010-03-14T11:42:49.24</time>
<name>4626</name>
</trkpt>
<trkpt lat="48.934300" lon="8.674977">
<ele>365.5</ele>
<speed>0.1</speed>
<course>12.6</course>
<desc>Speed 0.1 km/h Distance 6.01 km</desc>
<time>2010-03-14T11:42:50.24</time>
<name>4627</name>
</trkpt>
<trkpt lat="48.934302" lon="8.674977">
<ele>365.5</ele>
<speed>0.6</speed>
<course>51.9</course>
<desc>Speed 0.6 km/h Distance 6.01 km</desc>
<time>2010-03-14T11:42:51.24</time>
<name>4628</name>
</trkpt>
<trkpt lat="48.934303" lon="8.674980">
<ele>365.5</ele>
<speed>0.6</speed>
<course>51.9</course>
<desc>Speed 0.6 km/h Distance 6.01 km</desc>
<time>2010-03-14T11:42:52.24</time>
<name>4629</name>
</trkpt>
<trkpt lat="48.934303" lon="8.674980">
<ele>365.5</ele>
<speed>0.5</speed>
<course>51.9</course>
<desc>Speed 0.5 km/h Distance 6.01 km</desc>
<time>2010-03-14T11:42:53.24</time>
<name>4630</name>
</trkpt>
<trkpt lat="48.934303" lon="8.674980">
<ele>365.5</ele>
<speed>0.5</speed>
<course>213.7</course>
<desc>Speed 0.5 km/h Distance 6.01 km</desc>
<time>2010-03-14T11:42:54.24</time>
<name>4631</name>
</trkpt>
<trkpt lat="48.934300" lon="8.674977">
<ele>366.0</ele>
<speed>1.4</speed>
<course>213.7</course>
<desc>Speed 1.4 km/h Distance 6.01 km</desc>
<time>2010-03-14T11:42:55.24</time>
<name>4632</name>
</trkpt>
<trkpt lat="48.934300" lon="8.674977">
<ele>366.0</ele>
<speed>0.5</speed>
<course>213.7</course>
<desc>Speed 0.5 km/h Distance 6.01 km</desc>
<time>2010-03-14T11:42:56.24</time>
<name>4633</name>
</trkpt>
<trkpt lat="48.934300" lon="8.674977">
<ele>366.0</ele>
<speed>0.6</speed>
<course>213.7</course>
<desc>Speed 0.6 km/h Distance 6.01 km</desc>
<time>2010-03-14T11:42:57.24</time>
<name>4634</name>
</trkpt>
<trkpt lat="48.934300" lon="8.674977">
<ele>366.0</ele>
<speed>0.4</speed>
<course>213.7</course>
<desc>Speed 0.4 km/h Distance 6.01 km</desc>
<time>2010-03-14T11:42:58.24</time>
<name>4635</name>
</trkpt>
<trkpt lat="48.934300" lon="8.674977">
<ele>366.0</ele>
<speed>0.2</speed>
<course>213.7</course>
<desc>Speed 0.2 km/h Distance 6.01 km</desc>
<time>2010-03-14T11:42:59.24</time>
<name>4636</name>
</trkpt>
<trkpt lat="48.934300" lon="8.674977">
<ele>366.0</ele>
<speed>0.1</speed>
<course>150.8</course>
<desc>Speed 0.1 km/h Distance 6.01 km</desc>
<time>2010-03-14T11:43:00.24</time>
<name>4637</name>
</trkpt>
<trkpt lat="48.934298" lon="8.674977">
<ele>366.0</ele>
<speed>0.1</speed>
<course>150.8</course>
<desc>Speed 0.1 km/h Distance 6.01 km</desc>
<time>2010-03-14T11:43:01.24</time>
<name>4638</name>
</trkpt>
<trkpt lat="48.934298" lon="8.674977">
<ele>366.0</ele>
<speed>0.5</speed>
<course>150.8</course>
<desc>Speed 0.5 km/h Distance 6.01 km</desc>
<time>2010-03-14T11:43:02.24</time>
<name>4639</name>
</trkpt>
<trkpt lat="48.934298" lon="8.674977">
<ele>366.0</ele>
<speed>0.4</speed>
<course>180.0</course>
<desc>Speed 0.4 km/h Distance 6.01 km</desc>
<time>2010-03-14T11:43:03.24</time>
<name>4640</name>
</trkpt>
<trkpt lat="48.934295" lon="8.674977">
<ele>365.0</ele>
<speed>1.3</speed>
<course>326.3</course>
<desc>Speed 1.3 km/h Distance 6.01 km</desc>
<time>2010-03-14T11:43:04.24</time>
<name>4641</name>
</trkpt>
<trkpt lat="48.934298" lon="8.674973">
<ele>365.0</ele>
<speed>1.1</speed>
<course>55.7</course>
<desc>Speed 1.1 km/h Distance 6.01 km</desc>
<time>2010-03-14T11:43:05.27</time>
<name>4642</name>
</trkpt>
<trkpt lat="48.934300" lon="8.674977">
<ele>365.5</ele>
<speed>0.1</speed>
<course>90.0</course>
<desc>Speed 0.1 km/h Distance 6.01 km</desc>
<time>2010-03-14T11:43:06.27</time>
<name>4643</name>
</trkpt>
<trkpt lat="48.934300" lon="8.674978">
<ele>365.5</ele>
<speed>0.1</speed>
<course>90.0</course>
<desc>Speed 0.1 km/h Distance 6.01 km</desc>
<time>2010-03-14T11:43:07.27</time>
<name>4644</name>
</trkpt>
<trkpt lat="48.934300" lon="8.674978">
<ele>365.5</ele>
<speed>0.1</speed>
<course>90.0</course>
<desc>Speed 0.1 km/h Distance 6.01 km</desc>
<time>2010-03-14T11:43:08.27</time>
<name>4645</name>
</trkpt>
<trkpt lat="48.934300" lon="8.674978">
<ele>366.0</ele>
<speed>0.3</speed>
<course>90.0</course>
<desc>Speed 0.3 km/h Distance 6.01 km</desc>
<time>2010-03-14T11:43:09.27</time>
<name>4646</name>
</trkpt>
<trkpt lat="48.934300" lon="8.674978">
<ele>366.0</ele>
<speed>0.1</speed>
<course>115.9</course>
<desc>Speed 0.1 km/h Distance 6.01 km</desc>
<time>2010-03-14T11:43:10.27</time>
<name>4647</name>
</trkpt>
<trkpt lat="48.934298" lon="8.674983">
<ele>366.0</ele>
<speed>1.4</speed>
<course>37.2</course>
<desc>Speed 1.4 km/h Distance 6.01 km</desc>
<time>2010-03-14T11:43:11.27</time>
<name>4648</name>
</trkpt>
<trkpt lat="48.934300" lon="8.674985">
<ele>366.5</ele>
<speed>1.0</speed>
<course>90.0</course>
<desc>Speed 1.0 km/h Distance 6.01 km</desc>
<time>2010-03-14T11:43:12.27</time>
<name>4649</name>
</trkpt>
<trkpt lat="48.934300" lon="8.674987">
<ele>366.5</ele>
<speed>0.2</speed>
<course>12.6</course>
<desc>Speed 0.2 km/h Distance 6.01 km</desc>
<time>2010-03-14T11:43:13.27</time>
<name>4650</name>
</trkpt>
<trkpt lat="48.934302" lon="8.674987">
<ele>366.5</ele>
<speed>0.3</speed>
<course>128.1</course>
<desc>Speed 0.3 km/h Distance 6.01 km</desc>
<time>2010-03-14T11:43:14.27</time>
<name>4651</name>
</trkpt>
<trkpt lat="48.934300" lon="8.674990">
<ele>366.5</ele>
<speed>0.6</speed>
<course>128.1</course>
<desc>Speed 0.6 km/h Distance 6.01 km</desc>
<time>2010-03-14T11:43:15.27</time>
<name>4652</name>
</trkpt>
<trkpt lat="48.934300" lon="8.674990">
<ele>366.5</ele>
<speed>0.1</speed>
<course>128.1</course>
<desc>Speed 0.1 km/h Distance 6.01 km</desc>
<time>2010-03-14T11:43:16.27</time>
<name>4653</name>
</trkpt>
<trkpt lat="48.934300" lon="8.674990">
<ele>367.0</ele>
<speed>1.0</speed>
<course>12.6</course>
<desc>Speed 1.0 km/h Distance 6.01 km</desc>
<time>2010-03-14T11:43:17.27</time>
<name>4654</name>
</trkpt>
<trkpt lat="48.934302" lon="8.674990">
<ele>366.5</ele>
<speed>0.3</speed>
<course>12.6</course>
<desc>Speed 0.3 km/h Distance 6.01 km</desc>
<time>2010-03-14T11:43:18.27</time>
<name>4655</name>
</trkpt>
<trkpt lat="48.934302" lon="8.674990">
<ele>366.5</ele>
<speed>0.0</speed>
<course>12.6</course>
<desc>Speed 0.0 km/h Distance 6.01 km</desc>
<time>2010-03-14T11:43:19.27</time>
<name>4656</name>
</trkpt>
<trkpt lat="48.934302" lon="8.674990">
<ele>366.5</ele>
<speed>0.4</speed>
<course>142.8</course>
<desc>Speed 0.4 km/h Distance 6.01 km</desc>
<time>2010-03-14T11:43:20.27</time>
<name>4657</name>
</trkpt>
<trkpt lat="48.934300" lon="8.674992">
<ele>366.5</ele>
<speed>1.2</speed>
<course>142.8</course>
<desc>Speed 1.2 km/h Distance 6.01 km</desc>
<time>2010-03-14T11:43:21.27</time>
<name>4658</name>
</trkpt>
<trkpt lat="48.934300" lon="8.674992">
<ele>366.5</ele>
<speed>0.3</speed>
<course>142.8</course>
<desc>Speed 0.3 km/h Distance 6.01 km</desc>
<time>2010-03-14T11:43:22.27</time>
<name>4659</name>
</trkpt>
<trkpt lat="48.934300" lon="8.674992">
<ele>366.5</ele>
<speed>0.7</speed>
<course>270.0</course>
<desc>Speed 0.7 km/h Distance 6.01 km</desc>
<time>2010-03-14T11:43:23.27</time>
<name>4660</name>
</trkpt>
<trkpt lat="48.934300" lon="8.674990">
<ele>367.0</ele>
<speed>0.2</speed>
<course>270.0</course>
<desc>Speed 0.2 km/h Distance 6.01 km</desc>
<time>2010-03-14T11:43:24.27</time>
<name>4661</name>
</trkpt>
<trkpt lat="48.934300" lon="8.674990">
<ele>367.0</ele>
<speed>0.4</speed>
<course>12.6</course>
<desc>Speed 0.4 km/h Distance 6.01 km</desc>
<time>2010-03-14T11:43:25.27</time>
<name>4662</name>
</trkpt>
<trkpt lat="48.934302" lon="8.674990">
<ele>367.0</ele>
<speed>0.5</speed>
<course>12.6</course>
<desc>Speed 0.5 km/h Distance 6.01 km</desc>
<time>2010-03-14T11:43:26.27</time>
<name>4663</name>
</trkpt>
<trkpt lat="48.934302" lon="8.674990">
<ele>367.0</ele>
<speed>0.6</speed>
<course>128.1</course>
<desc>Speed 0.6 km/h Distance 6.01 km</desc>
<time>2010-03-14T11:43:27.27</time>
<name>4664</name>
</trkpt>
<trkpt lat="48.934300" lon="8.674993">
<ele>368.0</ele>
<speed>1.0</speed>
<course>128.1</course>
<desc>Speed 1.0 km/h Distance 6.01 km</desc>
<time>2010-03-14T11:43:28.27</time>
<name>4665</name>
</trkpt>
<trkpt lat="48.934300" lon="8.674993">
<ele>368.0</ele>
<speed>0.4</speed>
<course>322.8</course>
<desc>Speed 0.4 km/h Distance 6.01 km</desc>
<time>2010-03-14T11:43:29.27</time>
<name>4666</name>
</trkpt>
<trkpt lat="48.934302" lon="8.674992">
<ele>368.0</ele>
<speed>0.6</speed>
<course>270.0</course>
<desc>Speed 0.6 km/h Distance 6.02 km</desc>
<time>2010-03-14T11:43:30.27</time>
<name>4667</name>
</trkpt>
<trkpt lat="48.934302" lon="8.674988">
<ele>368.0</ele>
<speed>0.4</speed>
<course>0.0</course>
<desc>Speed 0.4 km/h Distance 6.02 km</desc>
<time>2010-03-14T11:43:31.27</time>
<name>4668</name>
</trkpt>
<trkpt lat="48.934303" lon="8.674988">
<ele>368.0</ele>
<speed>0.4</speed>
<course>270.0</course>
<desc>Speed 0.4 km/h Distance 6.02 km</desc>
<time>2010-03-14T11:43:32.27</time>
<name>4669</name>
</trkpt>
<trkpt lat="48.934303" lon="8.674985">
<ele>368.0</ele>
<speed>0.1</speed>
<course>0.0</course>
<desc>Speed 0.1 km/h Distance 6.02 km</desc>
<time>2010-03-14T11:43:33.27</time>
<name>4670</name>
</trkpt>
<trkpt lat="48.934305" lon="8.674985">
<ele>368.5</ele>
<speed>0.3</speed>
<course>322.8</course>
<desc>Speed 0.3 km/h Distance 6.02 km</desc>
<time>2010-03-14T11:43:34.27</time>
<name>4671</name>
</trkpt>
<trkpt lat="48.934307" lon="8.674983">
<ele>368.5</ele>
<speed>0.1</speed>
<course>322.8</course>
<desc>Speed 0.1 km/h Distance 6.02 km</desc>
<time>2010-03-14T11:43:35.27</time>
<name>4672</name>
</trkpt>
<trkpt lat="48.934307" lon="8.674983">
<ele>368.5</ele>
<speed>0.1</speed>
<course>270.0</course>
<desc>Speed 0.1 km/h Distance 6.02 km</desc>
<time>2010-03-14T11:43:36.27</time>
<name>4673</name>
</trkpt>
<trkpt lat="48.934307" lon="8.674982">
<ele>368.5</ele>
<speed>0.2</speed>
<course>330.8</course>
<desc>Speed 0.2 km/h Distance 6.02 km</desc>
<time>2010-03-14T11:43:37.27</time>
<name>4674</name>
</trkpt>
<trkpt lat="48.934308" lon="8.674980">
<ele>368.5</ele>
<speed>0.3</speed>
<course>322.8</course>
<desc>Speed 0.3 km/h Distance 6.02 km</desc>
<time>2010-03-14T11:43:38.27</time>
<name>4675</name>
</trkpt>
<trkpt lat="48.934310" lon="8.674978">
<ele>368.5</ele>
<speed>0.1</speed>
<course>322.8</course>
<desc>Speed 0.1 km/h Distance 6.02 km</desc>
<time>2010-03-14T11:43:39.27</time>
<name>4676</name>
</trkpt>
<trkpt lat="48.934310" lon="8.674978">
<ele>369.0</ele>
<speed>0.3</speed>
<course>322.8</course>
<desc>Speed 0.3 km/h Distance 6.02 km</desc>
<time>2010-03-14T11:43:40.27</time>
<name>4677</name>
</trkpt>
<trkpt lat="48.934310" lon="8.674978">
<ele>369.0</ele>
<speed>0.1</speed>
<course>322.8</course>
<desc>Speed 0.1 km/h Distance 6.02 km</desc>
<time>2010-03-14T11:43:41.27</time>
<name>4678</name>
</trkpt>
<trkpt lat="48.934310" lon="8.674978">
<ele>369.0</ele>
<speed>0.3</speed>
<course>322.8</course>
<desc>Speed 0.3 km/h Distance 6.02 km</desc>
<time>2010-03-14T11:43:42.27</time>
<name>4679</name>
</trkpt>
<trkpt lat="48.934310" lon="8.674978">
<ele>369.0</ele>
<speed>0.3</speed>
<course>297.4</course>
<desc>Speed 0.3 km/h Distance 6.02 km</desc>
<time>2010-03-14T11:43:43.27</time>
<name>4680</name>
</trkpt>
<trkpt lat="48.934312" lon="8.674973">
<ele>369.0</ele>
<speed>1.2</speed>
<course>270.0</course>
<desc>Speed 1.2 km/h Distance 6.02 km</desc>
<time>2010-03-14T11:43:44.27</time>
<name>4681</name>
</trkpt>
<trkpt lat="48.934312" lon="8.674972">
<ele>369.5</ele>
<speed>0.2</speed>
<course>12.6</course>
<desc>Speed 0.2 km/h Distance 6.02 km</desc>
<time>2010-03-14T11:43:45.27</time>
<name>4682</name>
</trkpt>
<trkpt lat="48.934313" lon="8.674972">
<ele>369.5</ele>
<speed>0.1</speed>
<course>270.0</course>
<desc>Speed 0.1 km/h Distance 6.02 km</desc>
<time>2010-03-14T11:43:46.27</time>
<name>4683</name>
</trkpt>
<trkpt lat="48.934313" lon="8.674967">
<ele>369.5</ele>
<speed>0.1</speed>
<course>270.0</course>
<desc>Speed 0.1 km/h Distance 6.02 km</desc>
<time>2010-03-14T11:43:47.27</time>
<name>4684</name>
</trkpt>
<trkpt lat="48.934313" lon="8.674967">
<ele>369.5</ele>
<speed>0.0</speed>
<course>270.0</course>
<desc>Speed 0.0 km/h Distance 6.02 km</desc>
<time>2010-03-14T11:43:48.27</time>
<name>4685</name>
</trkpt>
<trkpt lat="48.934313" lon="8.674965">
<ele>369.5</ele>
<speed>0.2</speed>
<course>270.0</course>
<desc>Speed 0.2 km/h Distance 6.02 km</desc>
<time>2010-03-14T11:43:49.27</time>
<name>4686</name>
</trkpt>
<trkpt lat="48.934313" lon="8.674965">
<ele>369.5</ele>
<speed>0.1</speed>
<course>270.0</course>
<desc>Speed 0.1 km/h Distance 6.02 km</desc>
<time>2010-03-14T11:43:50.27</time>
<name>4687</name>
</trkpt>
<trkpt lat="48.934313" lon="8.674963">
<ele>369.5</ele>
<speed>0.1</speed>
<course>167.4</course>
<desc>Speed 0.1 km/h Distance 6.02 km</desc>
<time>2010-03-14T11:43:51.27</time>
<name>4688</name>
</trkpt>
<trkpt lat="48.934312" lon="8.674963">
<ele>369.5</ele>
<speed>0.2</speed>
<course>270.0</course>
<desc>Speed 0.2 km/h Distance 6.02 km</desc>
<time>2010-03-14T11:43:52.27</time>
<name>4689</name>
</trkpt>
<trkpt lat="48.934312" lon="8.674962">
<ele>369.5</ele>
<speed>0.1</speed>
<course>270.0</course>
<desc>Speed 0.1 km/h Distance 6.02 km</desc>
<time>2010-03-14T11:43:53.27</time>
<name>4690</name>
</trkpt>
<trkpt lat="48.934312" lon="8.674962">
<ele>369.5</ele>
<speed>0.1</speed>
<course>167.4</course>
<desc>Speed 0.1 km/h Distance 6.02 km</desc>
<time>2010-03-14T11:43:54.27</time>
<name>4691</name>
</trkpt>
<trkpt lat="48.934310" lon="8.674962">
<ele>369.5</ele>
<speed>0.0</speed>
<course>167.4</course>
<desc>Speed 0.0 km/h Distance 6.02 km</desc>
<time>2010-03-14T11:43:55.27</time>
<name>4692</name>
</trkpt>
<trkpt lat="48.934310" lon="8.674962">
<ele>369.5</ele>
<speed>0.2</speed>
<course>167.4</course>
<desc>Speed 0.2 km/h Distance 6.02 km</desc>
<time>2010-03-14T11:43:56.27</time>
<name>4693</name>
</trkpt>
<trkpt lat="48.934310" lon="8.674962">
<ele>369.5</ele>
<speed>0.3</speed>
<course>270.0</course>
<desc>Speed 0.3 km/h Distance 6.02 km</desc>
<time>2010-03-14T11:43:57.27</time>
<name>4694</name>
</trkpt>
<trkpt lat="48.934310" lon="8.674960">
<ele>369.0</ele>
<speed>0.3</speed>
<course>270.0</course>
<desc>Speed 0.3 km/h Distance 6.02 km</desc>
<time>2010-03-14T11:43:58.27</time>
<name>4695</name>
</trkpt>
<trkpt lat="48.934310" lon="8.674960">
<ele>369.0</ele>
<speed>0.3</speed>
<course>142.8</course>
<desc>Speed 0.3 km/h Distance 6.02 km</desc>
<time>2010-03-14T11:43:59.27</time>
<name>4696</name>
</trkpt>
<trkpt lat="48.934308" lon="8.674962">
<ele>369.0</ele>
<speed>0.3</speed>
<course>142.8</course>
<desc>Speed 0.3 km/h Distance 6.02 km</desc>
<time>2010-03-14T11:44:00.27</time>
<name>4697</name>
</trkpt>
<trkpt lat="48.934308" lon="8.674962">
<ele>369.0</ele>
<speed>0.0</speed>
<course>270.0</course>
<desc>Speed 0.0 km/h Distance 6.02 km</desc>
<time>2010-03-14T11:44:01.27</time>
<name>4698</name>
</trkpt>
<trkpt lat="48.934308" lon="8.674960">
<ele>369.0</ele>
<speed>0.1</speed>
<course>270.0</course>
<desc>Speed 0.1 km/h Distance 6.02 km</desc>
<time>2010-03-14T11:44:02.27</time>
<name>4699</name>
</trkpt>
<trkpt lat="48.934308" lon="8.674960">
<ele>369.0</ele>
<speed>0.2</speed>
<course>270.0</course>
<desc>Speed 0.2 km/h Distance 6.02 km</desc>
<time>2010-03-14T11:44:03.27</time>
<name>4700</name>
</trkpt>
<trkpt lat="48.934308" lon="8.674960">
<ele>369.0</ele>
<speed>0.1</speed>
<course>270.0</course>
<desc>Speed 0.1 km/h Distance 6.02 km</desc>
<time>2010-03-14T11:44:04.27</time>
<name>4701</name>
</trkpt>
<trkpt lat="48.934308" lon="8.674960">
<ele>369.0</ele>
<speed>0.1</speed>
<course>270.0</course>
<desc>Speed 0.1 km/h Distance 6.02 km</desc>
<time>2010-03-14T11:44:05.27</time>
<name>4702</name>
</trkpt>
<trkpt lat="48.934308" lon="8.674960">
<ele>369.0</ele>
<speed>0.3</speed>
<course>270.0</course>
<desc>Speed 0.3 km/h Distance 6.02 km</desc>
<time>2010-03-14T11:44:06.27</time>
<name>4703</name>
</trkpt>
<trkpt lat="48.934308" lon="8.674960">
<ele>369.0</ele>
<speed>0.1</speed>
<course>270.0</course>
<desc>Speed 0.1 km/h Distance 6.02 km</desc>
<time>2010-03-14T11:44:07.27</time>
<name>4704</name>
</trkpt>
<trkpt lat="48.934308" lon="8.674958">
<ele>369.0</ele>
<speed>0.2</speed>
<course>270.0</course>
<desc>Speed 0.2 km/h Distance 6.02 km</desc>
<time>2010-03-14T11:44:08.27</time>
<name>4705</name>
</trkpt>
<trkpt lat="48.934308" lon="8.674958">
<ele>369.0</ele>
<speed>0.1</speed>
<course>167.4</course>
<desc>Speed 0.1 km/h Distance 6.02 km</desc>
<time>2010-03-14T11:44:09.27</time>
<name>4706</name>
</trkpt>
<trkpt lat="48.934307" lon="8.674958">
<ele>369.0</ele>
<speed>0.1</speed>
<course>167.4</course>
<desc>Speed 0.1 km/h Distance 6.02 km</desc>
<time>2010-03-14T11:44:10.27</time>
<name>4707</name>
</trkpt>
<trkpt lat="48.934307" lon="8.674958">
<ele>369.0</ele>
<speed>0.1</speed>
<course>167.4</course>
<desc>Speed 0.1 km/h Distance 6.02 km</desc>
<time>2010-03-14T11:44:11.27</time>
<name>4708</name>
</trkpt>
<trkpt lat="48.934307" lon="8.674958">
<ele>369.0</ele>
<speed>0.3</speed>
<course>167.4</course>
<desc>Speed 0.3 km/h Distance 6.02 km</desc>
<time>2010-03-14T11:44:12.27</time>
<name>4709</name>
</trkpt>
<trkpt lat="48.934307" lon="8.674958">
<ele>369.0</ele>
<speed>0.2</speed>
<course>167.4</course>
<desc>Speed 0.2 km/h Distance 6.02 km</desc>
<time>2010-03-14T11:44:13.27</time>
<name>4710</name>
</trkpt>
<trkpt lat="48.934307" lon="8.674958">
<ele>369.0</ele>
<speed>0.3</speed>
<course>167.4</course>
<desc>Speed 0.3 km/h Distance 6.02 km</desc>
<time>2010-03-14T11:44:14.27</time>
<name>4711</name>
</trkpt>
<trkpt lat="48.934307" lon="8.674958">
<ele>369.0</ele>
<speed>0.1</speed>
<course>167.4</course>
<desc>Speed 0.1 km/h Distance 6.02 km</desc>
<time>2010-03-14T11:44:15.27</time>
<name>4712</name>
</trkpt>
<trkpt lat="48.934307" lon="8.674958">
<ele>369.0</ele>
<speed>0.1</speed>
<course>167.4</course>
<desc>Speed 0.1 km/h Distance 6.02 km</desc>
<time>2010-03-14T11:44:16.27</time>
<name>4713</name>
</trkpt>
<trkpt lat="48.934307" lon="8.674958">
<ele>369.0</ele>
<speed>0.1</speed>
<course>167.4</course>
<desc>Speed 0.1 km/h Distance 6.02 km</desc>
<time>2010-03-14T11:44:17.27</time>
<name>4714</name>
</trkpt>
<trkpt lat="48.934307" lon="8.674958">
<ele>369.5</ele>
<speed>0.3</speed>
<course>29.2</course>
<desc>Speed 0.3 km/h Distance 6.02 km</desc>
<time>2010-03-14T11:44:18.27</time>
<name>4715</name>
</trkpt>
<trkpt lat="48.934308" lon="8.674960">
<ele>369.5</ele>
<speed>0.3</speed>
<course>29.2</course>
<desc>Speed 0.3 km/h Distance 6.02 km</desc>
<time>2010-03-14T11:44:19.27</time>
<name>4716</name>
</trkpt>
<trkpt lat="48.934308" lon="8.674960">
<ele>369.5</ele>
<speed>0.3</speed>
<course>209.2</course>
<desc>Speed 0.3 km/h Distance 6.02 km</desc>
<time>2010-03-14T11:44:20.27</time>
<name>4717</name>
</trkpt>
<trkpt lat="48.934307" lon="8.674958">
<ele>369.5</ele>
<speed>0.1</speed>
<course>12.6</course>
<desc>Speed 0.1 km/h Distance 6.02 km</desc>
<time>2010-03-14T11:44:21.27</time>
<name>4718</name>
</trkpt>
<trkpt lat="48.934308" lon="8.674958">
<ele>370.0</ele>
<speed>0.1</speed>
<course>12.6</course>
<desc>Speed 0.1 km/h Distance 6.02 km</desc>
<time>2010-03-14T11:44:22.27</time>
<name>4719</name>
</trkpt>
<trkpt lat="48.934308" lon="8.674958">
<ele>370.0</ele>
<speed>0.2</speed>
<course>12.6</course>
<desc>Speed 0.2 km/h Distance 6.02 km</desc>
<time>2010-03-14T11:44:23.27</time>
<name>4720</name>
</trkpt>
<trkpt lat="48.934308" lon="8.674958">
<ele>370.0</ele>
<speed>0.2</speed>
<course>12.6</course>
<desc>Speed 0.2 km/h Distance 6.02 km</desc>
<time>2010-03-14T11:44:24.27</time>
<name>4721</name>
</trkpt>
<trkpt lat="48.934308" lon="8.674958">
<ele>370.0</ele>
<speed>0.2</speed>
<course>12.6</course>
<desc>Speed 0.2 km/h Distance 6.02 km</desc>
<time>2010-03-14T11:44:25.27</time>
<name>4722</name>
</trkpt>
<trkpt lat="48.934308" lon="8.674958">
<ele>370.0</ele>
<speed>0.2</speed>
<course>12.6</course>
<desc>Speed 0.2 km/h Distance 6.02 km</desc>
<time>2010-03-14T11:44:26.27</time>
<name>4723</name>
</trkpt>
<trkpt lat="48.934308" lon="8.674958">
<ele>370.0</ele>
<speed>0.3</speed>
<course>12.6</course>
<desc>Speed 0.3 km/h Distance 6.02 km</desc>
<time>2010-03-14T11:44:27.27</time>
<name>4724</name>
</trkpt>
<trkpt lat="48.934308" lon="8.674958">
<ele>370.0</ele>
<speed>0.1</speed>
<course>12.6</course>
<desc>Speed 0.1 km/h Distance 6.02 km</desc>
<time>2010-03-14T11:44:28.27</time>
<name>4725</name>
</trkpt>
<trkpt lat="48.934308" lon="8.674958">
<ele>370.0</ele>
<speed>0.1</speed>
<course>12.6</course>
<desc>Speed 0.1 km/h Distance 6.02 km</desc>
<time>2010-03-14T11:44:29.27</time>
<name>4726</name>
</trkpt>
<trkpt lat="48.934308" lon="8.674958">
<ele>370.0</ele>
<speed>0.1</speed>
<course>12.6</course>
<desc>Speed 0.1 km/h Distance 6.02 km</desc>
<time>2010-03-14T11:44:30.27</time>
<name>4727</name>
</trkpt>
<trkpt lat="48.934308" lon="8.674958">
<ele>370.0</ele>
<speed>0.1</speed>
<course>12.6</course>
<desc>Speed 0.1 km/h Distance 6.02 km</desc>
<time>2010-03-14T11:44:31.27</time>
<name>4728</name>
</trkpt>
<trkpt lat="48.934308" lon="8.674958">
<ele>370.0</ele>
<speed>0.3</speed>
<course>12.6</course>
<desc>Speed 0.3 km/h Distance 6.02 km</desc>
<time>2010-03-14T11:44:32.27</time>
<name>4729</name>
</trkpt>
<trkpt lat="48.934308" lon="8.674958">
<ele>370.0</ele>
<speed>0.2</speed>
<course>12.6</course>
<desc>Speed 0.2 km/h Distance 6.02 km</desc>
<time>2010-03-14T11:44:33.27</time>
<name>4730</name>
</trkpt>
<trkpt lat="48.934308" lon="8.674958">
<ele>370.0</ele>
<speed>0.2</speed>
<course>12.6</course>
<desc>Speed 0.2 km/h Distance 6.02 km</desc>
<time>2010-03-14T11:44:34.27</time>
<name>4731</name>
</trkpt>
<trkpt lat="48.934308" lon="8.674958">
<ele>370.0</ele>
<speed>0.1</speed>
<course>12.6</course>
<desc>Speed 0.1 km/h Distance 6.02 km</desc>
<time>2010-03-14T11:44:35.27</time>
<name>4732</name>
</trkpt>
<trkpt lat="48.934310" lon="8.674958">
<ele>370.0</ele>
<speed>0.2</speed>
<course>12.6</course>
<desc>Speed 0.2 km/h Distance 6.02 km</desc>
<time>2010-03-14T11:44:36.27</time>
<name>4733</name>
</trkpt>
<trkpt lat="48.934310" lon="8.674958">
<ele>370.0</ele>
<speed>0.1</speed>
<course>12.6</course>
<desc>Speed 0.1 km/h Distance 6.02 km</desc>
<time>2010-03-14T11:44:37.27</time>
<name>4734</name>
</trkpt>
<trkpt lat="48.934310" lon="8.674958">
<ele>370.5</ele>
<speed>0.1</speed>
<course>12.6</course>
<desc>Speed 0.1 km/h Distance 6.02 km</desc>
<time>2010-03-14T11:44:38.27</time>
<name>4735</name>
</trkpt>
<trkpt lat="48.934310" lon="8.674958">
<ele>370.5</ele>
<speed>0.3</speed>
<course>12.6</course>
<desc>Speed 0.3 km/h Distance 6.02 km</desc>
<time>2010-03-14T11:44:39.27</time>
<name>4736</name>
</trkpt>
<trkpt lat="48.934312" lon="8.674958">
<ele>371.0</ele>
<speed>0.1</speed>
<course>90.0</course>
<desc>Speed 0.1 km/h Distance 6.02 km</desc>
<time>2010-03-14T11:44:40.27</time>
<name>4737</name>
</trkpt>
<trkpt lat="48.934312" lon="8.674960">
<ele>371.0</ele>
<speed>0.1</speed>
<course>90.0</course>
<desc>Speed 0.1 km/h Distance 6.02 km</desc>
<time>2010-03-14T11:44:41.27</time>
<name>4738</name>
</trkpt>
<trkpt lat="48.934312" lon="8.674960">
<ele>371.0</ele>
<speed>0.6</speed>
<course>90.0</course>
<desc>Speed 0.6 km/h Distance 6.02 km</desc>
<time>2010-03-14T11:44:42.27</time>
<name>4739</name>
</trkpt>
<trkpt lat="48.934312" lon="8.674960">
<ele>371.0</ele>
<speed>0.2</speed>
<course>90.0</course>
<desc>Speed 0.2 km/h Distance 6.02 km</desc>
<time>2010-03-14T11:44:43.27</time>
<name>4740</name>
</trkpt>
<trkpt lat="48.934312" lon="8.674960">
<ele>371.0</ele>
<speed>0.2</speed>
<course>90.0</course>
<desc>Speed 0.2 km/h Distance 6.02 km</desc>
<time>2010-03-14T11:44:44.27</time>
<name>4741</name>
</trkpt>
<trkpt lat="48.934312" lon="8.674960">
<ele>371.0</ele>
<speed>0.2</speed>
<course>90.0</course>
<desc>Speed 0.2 km/h Distance 6.02 km</desc>
<time>2010-03-14T11:44:45.27</time>
<name>4742</name>
</trkpt>
<trkpt lat="48.934312" lon="8.674960">
<ele>371.0</ele>
<speed>0.1</speed>
<course>270.0</course>
<desc>Speed 0.1 km/h Distance 6.02 km</desc>
<time>2010-03-14T11:44:46.27</time>
<name>4743</name>
</trkpt>
<trkpt lat="48.934312" lon="8.674958">
<ele>371.0</ele>
<speed>0.1</speed>
<course>270.0</course>
<desc>Speed 0.1 km/h Distance 6.02 km</desc>
<time>2010-03-14T11:44:47.27</time>
<name>4744</name>
</trkpt>
<trkpt lat="48.934312" lon="8.674958">
<ele>371.0</ele>
<speed>0.5</speed>
<course>270.0</course>
<desc>Speed 0.5 km/h Distance 6.02 km</desc>
<time>2010-03-14T11:44:48.27</time>
<name>4745</name>
</trkpt>
<trkpt lat="48.934312" lon="8.674958">
<ele>371.0</ele>
<speed>0.2</speed>
<course>270.0</course>
<desc>Speed 0.2 km/h Distance 6.02 km</desc>
<time>2010-03-14T11:44:49.27</time>
<name>4746</name>
</trkpt>
<trkpt lat="48.934312" lon="8.674957">
<ele>371.0</ele>
<speed>0.3</speed>
<course>270.0</course>
<desc>Speed 0.3 km/h Distance 6.02 km</desc>
<time>2010-03-14T11:44:50.27</time>
<name>4747</name>
</trkpt>
<trkpt lat="48.934312" lon="8.674957">
<ele>371.0</ele>
<speed>0.1</speed>
<course>270.0</course>
<desc>Speed 0.1 km/h Distance 6.02 km</desc>
<time>2010-03-14T11:44:51.27</time>
<name>4748</name>
</trkpt>
<trkpt lat="48.934312" lon="8.674957">
<ele>371.0</ele>
<speed>0.1</speed>
<course>270.0</course>
<desc>Speed 0.1 km/h Distance 6.02 km</desc>
<time>2010-03-14T11:44:52.27</time>
<name>4749</name>
</trkpt>
<trkpt lat="48.934312" lon="8.674957">
<ele>371.0</ele>
<speed>0.1</speed>
<course>270.0</course>
<desc>Speed 0.1 km/h Distance 6.02 km</desc>
<time>2010-03-14T11:44:53.27</time>
<name>4750</name>
</trkpt>
<trkpt lat="48.934312" lon="8.674957">
<ele>371.0</ele>
<speed>0.1</speed>
<course>322.8</course>
<desc>Speed 0.1 km/h Distance 6.02 km</desc>
<time>2010-03-14T11:44:54.27</time>
<name>4751</name>
</trkpt>
<trkpt lat="48.934313" lon="8.674955">
<ele>371.0</ele>
<speed>0.1</speed>
<course>322.8</course>
<desc>Speed 0.1 km/h Distance 6.02 km</desc>
<time>2010-03-14T11:44:55.27</time>
<name>4752</name>
</trkpt>
<trkpt lat="48.934313" lon="8.674955">
<ele>371.0</ele>
<speed>0.1</speed>
<course>322.8</course>
<desc>Speed 0.1 km/h Distance 6.02 km</desc>
<time>2010-03-14T11:44:56.27</time>
<name>4753</name>
</trkpt>
<trkpt lat="48.934313" lon="8.674955">
<ele>371.0</ele>
<speed>0.2</speed>
<course>167.4</course>
<desc>Speed 0.2 km/h Distance 6.02 km</desc>
<time>2010-03-14T11:44:57.27</time>
<name>4754</name>
</trkpt>
<trkpt lat="48.934312" lon="8.674955">
<ele>371.0</ele>
<speed>0.3</speed>
<course>12.6</course>
<desc>Speed 0.3 km/h Distance 6.02 km</desc>
<time>2010-03-14T11:44:58.27</time>
<name>4755</name>
</trkpt>
<trkpt lat="48.934313" lon="8.674955">
<ele>371.0</ele>
<speed>0.1</speed>
<course>12.6</course>
<desc>Speed 0.1 km/h Distance 6.02 km</desc>
<time>2010-03-14T11:44:59.27</time>
<name>4756</name>
</trkpt>
<trkpt lat="48.934313" lon="8.674955">
<ele>371.0</ele>
<speed>0.1</speed>
<course>217.2</course>
<desc>Speed 0.1 km/h Distance 6.02 km</desc>
<time>2010-03-14T11:45:00.27</time>
<name>4757</name>
</trkpt>
<trkpt lat="48.934312" lon="8.674953">
<ele>371.0</ele>
<speed>0.3</speed>
<course>12.6</course>
<desc>Speed 0.3 km/h Distance 6.02 km</desc>
<time>2010-03-14T11:45:01.27</time>
<name>4758</name>
</trkpt>
<trkpt lat="48.934313" lon="8.674953">
<ele>371.0</ele>
<speed>0.1</speed>
<course>12.6</course>
<desc>Speed 0.1 km/h Distance 6.02 km</desc>
<time>2010-03-14T11:45:02.27</time>
<name>4759</name>
</trkpt>
<trkpt lat="48.934313" lon="8.674953">
<ele>371.0</ele>
<speed>0.5</speed>
<course>90.0</course>
<desc>Speed 0.5 km/h Distance 6.02 km</desc>
<time>2010-03-14T11:45:03.27</time>
<name>4760</name>
</trkpt>
<trkpt lat="48.934313" lon="8.674955">
<ele>371.0</ele>
<speed>0.3</speed>
<course>90.0</course>
<desc>Speed 0.3 km/h Distance 6.02 km</desc>
<time>2010-03-14T11:45:04.27</time>
<name>4761</name>
</trkpt>
<trkpt lat="48.934313" lon="8.674955">
<ele>371.0</ele>
<speed>0.1</speed>
<course>270.0</course>
<desc>Speed 0.1 km/h Distance 6.02 km</desc>
<time>2010-03-14T11:45:05.27</time>
<name>4762</name>
</trkpt>
<trkpt lat="48.934313" lon="8.674952">
<ele>371.5</ele>
<speed>0.7</speed>
<course>278.7</course>
<desc>Speed 0.7 km/h Distance 6.02 km</desc>
<time>2010-03-14T11:45:06.27</time>
<name>4763</name>
</trkpt>
<trkpt lat="48.934315" lon="8.674935">
<ele>369.5</ele>
<speed>4.6</speed>
<course>90.0</course>
<desc>Speed 4.6 km/h Distance 6.02 km</desc>
<time>2010-03-14T11:45:07.27</time>
<name>4764</name>
</trkpt>
<trkpt lat="48.934315" lon="8.674937">
<ele>369.5</ele>
<speed>0.3</speed>
<course>90.0</course>
<desc>Speed 0.3 km/h Distance 6.02 km</desc>
<time>2010-03-14T11:45:08.27</time>
<name>4765</name>
</trkpt>
<trkpt lat="48.934315" lon="8.674938">
<ele>369.5</ele>
<speed>0.2</speed>
<course>90.0</course>
<desc>Speed 0.2 km/h Distance 6.02 km</desc>
<time>2010-03-14T11:45:09.27</time>
<name>4766</name>
</trkpt>
<trkpt lat="48.934315" lon="8.674938">
<ele>369.5</ele>
<speed>0.3</speed>
<course>90.0</course>
<desc>Speed 0.3 km/h Distance 6.02 km</desc>
<time>2010-03-14T11:45:10.27</time>
<name>4767</name>
</trkpt>
<trkpt lat="48.934315" lon="8.674940">
<ele>369.5</ele>
<speed>0.4</speed>
<course>12.6</course>
<desc>Speed 0.4 km/h Distance 6.02 km</desc>
<time>2010-03-14T11:45:11.27</time>
<name>4768</name>
</trkpt>
<trkpt lat="48.934317" lon="8.674940">
<ele>369.5</ele>
<speed>0.4</speed>
<course>90.0</course>
<desc>Speed 0.4 km/h Distance 6.02 km</desc>
<time>2010-03-14T11:45:12.27</time>
<name>4769</name>
</trkpt>
<trkpt lat="48.934317" lon="8.674942">
<ele>369.5</ele>
<speed>0.6</speed>
<course>90.0</course>
<desc>Speed 0.6 km/h Distance 6.02 km</desc>
<time>2010-03-14T11:45:13.27</time>
<name>4770</name>
</trkpt>
<trkpt lat="48.934317" lon="8.674943">
<ele>369.5</ele>
<speed>0.8</speed>
<course>327.7</course>
<desc>Speed 0.8 km/h Distance 6.02 km</desc>
<time>2010-03-14T11:45:14.27</time>
<name>4771</name>
</trkpt>
<trkpt lat="48.934322" lon="8.674938">
<ele>369.5</ele>
<speed>3.0</speed>
<course>51.9</course>
<desc>Speed 3.0 km/h Distance 6.02 km</desc>
<time>2010-03-14T11:45:15.27</time>
<name>4772</name>
</trkpt>
<trkpt lat="48.934323" lon="8.674942">
<ele>369.5</ele>
<speed>0.4</speed>
<course>90.0</course>
<desc>Speed 0.4 km/h Distance 6.03 km</desc>
<time>2010-03-14T11:45:16.27</time>
<name>4773</name>
</trkpt>
<trkpt lat="48.934323" lon="8.674952">
<ele>369.5</ele>
<speed>1.9</speed>
<course>90.0</course>
<desc>Speed 1.9 km/h Distance 6.03 km</desc>
<time>2010-03-14T11:45:17.27</time>
<name>4774</name>
</trkpt>
<trkpt lat="48.934323" lon="8.674957">
<ele>369.5</ele>
<speed>0.1</speed>
<course>90.0</course>
<desc>Speed 0.1 km/h Distance 6.03 km</desc>
<time>2010-03-14T11:45:18.27</time>
<name>4775</name>
</trkpt>
<trkpt lat="48.934323" lon="8.674968">
<ele>369.5</ele>
<speed>1.3</speed>
<course>167.4</course>
<desc>Speed 1.3 km/h Distance 6.03 km</desc>
<time>2010-03-14T11:45:19.27</time>
<name>4776</name>
</trkpt>
<trkpt lat="48.934322" lon="8.674968">
<ele>369.5</ele>
<speed>0.9</speed>
<course>12.6</course>
<desc>Speed 0.9 km/h Distance 6.03 km</desc>
<time>2010-03-14T11:45:20.27</time>
<name>4777</name>
</trkpt>
<trkpt lat="48.934323" lon="8.674968">
<ele>369.0</ele>
<speed>0.8</speed>
<course>12.6</course>
<desc>Speed 0.8 km/h Distance 6.03 km</desc>
<time>2010-03-14T11:45:21.27</time>
<name>4778</name>
</trkpt>
<trkpt lat="48.934323" lon="8.674968">
<ele>369.0</ele>
<speed>0.3</speed>
<course>12.6</course>
<desc>Speed 0.3 km/h Distance 6.03 km</desc>
<time>2010-03-14T11:45:22.27</time>
<name>4779</name>
</trkpt>
<trkpt lat="48.934325" lon="8.674968">
<ele>369.0</ele>
<speed>0.2</speed>
<course>12.6</course>
<desc>Speed 0.2 km/h Distance 6.03 km</desc>
<time>2010-03-14T11:45:23.27</time>
<name>4780</name>
</trkpt>
<trkpt lat="48.934327" lon="8.674968">
<ele>369.0</ele>
<speed>0.2</speed>
<course>12.6</course>
<desc>Speed 0.2 km/h Distance 6.03 km</desc>
<time>2010-03-14T11:45:24.27</time>
<name>4781</name>
</trkpt>
<trkpt lat="48.934327" lon="8.674968">
<ele>369.5</ele>
<speed>0.3</speed>
<course>270.0</course>
<desc>Speed 0.3 km/h Distance 6.03 km</desc>
<time>2010-03-14T11:45:25.27</time>
<name>4782</name>
</trkpt>
<trkpt lat="48.934327" lon="8.674967">
<ele>369.5</ele>
<speed>0.1</speed>
<course>330.8</course>
<desc>Speed 0.1 km/h Distance 6.03 km</desc>
<time>2010-03-14T11:45:26.27</time>
<name>4783</name>
</trkpt>
<trkpt lat="48.934328" lon="8.674965">
<ele>369.5</ele>
<speed>0.5</speed>
<course>90.0</course>
<desc>Speed 0.5 km/h Distance 6.03 km</desc>
<time>2010-03-14T11:45:27.27</time>
<name>4784</name>
</trkpt>
<trkpt lat="48.934328" lon="8.674967">
<ele>369.5</ele>
<speed>0.4</speed>
<course>90.0</course>
<desc>Speed 0.4 km/h Distance 6.03 km</desc>
<time>2010-03-14T11:45:28.27</time>
<name>4785</name>
</trkpt>
<trkpt lat="48.934328" lon="8.674967">
<ele>369.5</ele>
<speed>0.3</speed>
<course>90.0</course>
<desc>Speed 0.3 km/h Distance 6.03 km</desc>
<time>2010-03-14T11:45:29.27</time>
<name>4786</name>
</trkpt>
<trkpt lat="48.934328" lon="8.674968">
<ele>370.0</ele>
<speed>0.3</speed>
<course>90.0</course>
<desc>Speed 0.3 km/h Distance 6.03 km</desc>
<time>2010-03-14T11:45:30.27</time>
<name>4787</name>
</trkpt>
<trkpt lat="48.934328" lon="8.674968">
<ele>370.0</ele>
<speed>0.4</speed>
<course>90.0</course>
<desc>Speed 0.4 km/h Distance 6.03 km</desc>
<time>2010-03-14T11:45:31.27</time>
<name>4788</name>
</trkpt>
<trkpt lat="48.934328" lon="8.674968">
<ele>370.0</ele>
<speed>0.1</speed>
<course>270.0</course>
<desc>Speed 0.1 km/h Distance 6.03 km</desc>
<time>2010-03-14T11:45:32.30</time>
<name>4789</name>
</trkpt>
<trkpt lat="48.934328" lon="8.674967">
<ele>370.0</ele>
<speed>0.2</speed>
<course>270.0</course>
<desc>Speed 0.2 km/h Distance 6.03 km</desc>
<time>2010-03-14T11:45:33.30</time>
<name>4790</name>
</trkpt>
<trkpt lat="48.934328" lon="8.674967">
<ele>370.5</ele>
<speed>0.2</speed>
<course>270.0</course>
<desc>Speed 0.2 km/h Distance 6.03 km</desc>
<time>2010-03-14T11:45:34.30</time>
<name>4791</name>
</trkpt>
<trkpt lat="48.934328" lon="8.674967">
<ele>370.5</ele>
<speed>0.4</speed>
<course>270.0</course>
<desc>Speed 0.4 km/h Distance 6.03 km</desc>
<time>2010-03-14T11:45:35.30</time>
<name>4792</name>
</trkpt>
<trkpt lat="48.934328" lon="8.674967">
<ele>370.5</ele>
<speed>0.1</speed>
<course>270.0</course>
<desc>Speed 0.1 km/h Distance 6.03 km</desc>
<time>2010-03-14T11:45:36.30</time>
<name>4793</name>
</trkpt>
<trkpt lat="48.934328" lon="8.674967">
<ele>370.5</ele>
<speed>0.4</speed>
<course>270.0</course>
<desc>Speed 0.4 km/h Distance 6.03 km</desc>
<time>2010-03-14T11:45:37.30</time>
<name>4794</name>
</trkpt>
<trkpt lat="48.934328" lon="8.674967">
<ele>370.5</ele>
<speed>0.1</speed>
<course>12.6</course>
<desc>Speed 0.1 km/h Distance 6.03 km</desc>
<time>2010-03-14T11:45:38.30</time>
<name>4795</name>
</trkpt>
<trkpt lat="48.934330" lon="8.674967">
<ele>371.0</ele>
<speed>0.3</speed>
<course>12.6</course>
<desc>Speed 0.3 km/h Distance 6.03 km</desc>
<time>2010-03-14T11:45:39.30</time>
<name>4796</name>
</trkpt>
<trkpt lat="48.934330" lon="8.674967">
<ele>371.0</ele>
<speed>0.5</speed>
<course>12.6</course>
<desc>Speed 0.5 km/h Distance 6.03 km</desc>
<time>2010-03-14T11:45:40.30</time>
<name>4797</name>
</trkpt>
<trkpt lat="48.934330" lon="8.674967">
<ele>371.0</ele>
<speed>0.3</speed>
<course>12.6</course>
<desc>Speed 0.3 km/h Distance 6.03 km</desc>
<time>2010-03-14T11:45:41.30</time>
<name>4798</name>
</trkpt>
<trkpt lat="48.934330" lon="8.674967">
<ele>371.0</ele>
<speed>0.1</speed>
<course>12.6</course>
<desc>Speed 0.1 km/h Distance 6.03 km</desc>
<time>2010-03-14T11:45:42.30</time>
<name>4799</name>
</trkpt>
<trkpt lat="48.934330" lon="8.674967">
<ele>371.0</ele>
<speed>0.1</speed>
<course>12.6</course>
<desc>Speed 0.1 km/h Distance 6.03 km</desc>
<time>2010-03-14T11:45:43.30</time>
<name>4800</name>
</trkpt>
<trkpt lat="48.934330" lon="8.674967">
<ele>371.0</ele>
<speed>0.6</speed>
<course>12.6</course>
<desc>Speed 0.6 km/h Distance 6.03 km</desc>
<time>2010-03-14T11:45:44.30</time>
<name>4801</name>
</trkpt>
<trkpt lat="48.934332" lon="8.674967">
<ele>371.0</ele>
<speed>0.7</speed>
<course>12.6</course>
<desc>Speed 0.7 km/h Distance 6.03 km</desc>
<time>2010-03-14T11:45:45.30</time>
<name>4802</name>
</trkpt>
<trkpt lat="48.934332" lon="8.674967">
<ele>371.0</ele>
<speed>0.7</speed>
<course>90.0</course>
<desc>Speed 0.7 km/h Distance 6.03 km</desc>
<time>2010-03-14T11:45:46.30</time>
<name>4803</name>
</trkpt>
<trkpt lat="48.934332" lon="8.674968">
<ele>371.0</ele>
<speed>0.1</speed>
<course>90.0</course>
<desc>Speed 0.1 km/h Distance 6.03 km</desc>
<time>2010-03-14T11:45:47.30</time>
<name>4804</name>
</trkpt>
<trkpt lat="48.934332" lon="8.674968">
<ele>371.0</ele>
<speed>0.2</speed>
<course>90.0</course>
<desc>Speed 0.2 km/h Distance 6.03 km</desc>
<time>2010-03-14T11:45:48.30</time>
<name>4805</name>
</trkpt>
<trkpt lat="48.934332" lon="8.674968">
<ele>371.0</ele>
<speed>0.3</speed>
<course>90.0</course>
<desc>Speed 0.3 km/h Distance 6.03 km</desc>
<time>2010-03-14T11:45:49.30</time>
<name>4806</name>
</trkpt>
<trkpt lat="48.934332" lon="8.674968">
<ele>371.0</ele>
<speed>0.1</speed>
<course>90.0</course>
<desc>Speed 0.1 km/h Distance 6.03 km</desc>
<time>2010-03-14T11:45:50.30</time>
<name>4807</name>
</trkpt>
<trkpt lat="48.934332" lon="8.674968">
<ele>371.0</ele>
<speed>0.2</speed>
<course>90.0</course>
<desc>Speed 0.2 km/h Distance 6.03 km</desc>
<time>2010-03-14T11:45:51.30</time>
<name>4808</name>
</trkpt>
<trkpt lat="48.934332" lon="8.674968">
<ele>371.0</ele>
<speed>0.2</speed>
<course>90.0</course>
<desc>Speed 0.2 km/h Distance 6.03 km</desc>
<time>2010-03-14T11:45:52.30</time>
<name>4809</name>
</trkpt>
<trkpt lat="48.934332" lon="8.674968">
<ele>371.0</ele>
<speed>0.1</speed>
<course>90.0</course>
<desc>Speed 0.1 km/h Distance 6.03 km</desc>
<time>2010-03-14T11:45:53.30</time>
<name>4810</name>
</trkpt>
<trkpt lat="48.934332" lon="8.674968">
<ele>371.0</ele>
<speed>0.2</speed>
<course>90.0</course>
<desc>Speed 0.2 km/h Distance 6.03 km</desc>
<time>2010-03-14T11:45:54.30</time>
<name>4811</name>
</trkpt>
<trkpt lat="48.934332" lon="8.674970">
<ele>371.0</ele>
<speed>0.2</speed>
<course>90.0</course>
<desc>Speed 0.2 km/h Distance 6.03 km</desc>
<time>2010-03-14T11:45:55.30</time>
<name>4812</name>
</trkpt>
<trkpt lat="48.934332" lon="8.674972">
<ele>371.5</ele>
<speed>0.2</speed>
<course>142.8</course>
<desc>Speed 0.2 km/h Distance 6.03 km</desc>
<time>2010-03-14T11:45:56.30</time>
<name>4813</name>
</trkpt>
<trkpt lat="48.934330" lon="8.674973">
<ele>371.5</ele>
<speed>0.3</speed>
<course>142.8</course>
<desc>Speed 0.3 km/h Distance 6.03 km</desc>
<time>2010-03-14T11:45:57.30</time>
<name>4814</name>
</trkpt>
<trkpt lat="48.934330" lon="8.674973">
<ele>371.5</ele>
<speed>0.1</speed>
<course>150.8</course>
<desc>Speed 0.1 km/h Distance 6.03 km</desc>
<time>2010-03-14T11:45:58.30</time>
<name>4815</name>
</trkpt>
<trkpt lat="48.934328" lon="8.674975">
<ele>371.5</ele>
<speed>0.6</speed>
<course>150.8</course>
<desc>Speed 0.6 km/h Distance 6.03 km</desc>
<time>2010-03-14T11:45:59.30</time>
<name>4816</name>
</trkpt>
<trkpt lat="48.934328" lon="8.674975">
<ele>371.5</ele>
<speed>0.2</speed>
<course>90.0</course>
<desc>Speed 0.2 km/h Distance 6.03 km</desc>
<time>2010-03-14T11:46:00.30</time>
<name>4817</name>
</trkpt>
<trkpt lat="48.934328" lon="8.674977">
<ele>371.5</ele>
<speed>0.3</speed>
<course>90.0</course>
<desc>Speed 0.3 km/h Distance 6.03 km</desc>
<time>2010-03-14T11:46:01.30</time>
<name>4818</name>
</trkpt>
<trkpt lat="48.934328" lon="8.674977">
<ele>371.5</ele>
<speed>0.2</speed>
<course>12.6</course>
<desc>Speed 0.2 km/h Distance 6.03 km</desc>
<time>2010-03-14T11:46:02.30</time>
<name>4819</name>
</trkpt>
<trkpt lat="48.934330" lon="8.674977">
<ele>372.0</ele>
<speed>0.1</speed>
<course>12.6</course>
<desc>Speed 0.1 km/h Distance 6.03 km</desc>
<time>2010-03-14T11:46:03.30</time>
<name>4820</name>
</trkpt>
<trkpt lat="48.934330" lon="8.674977">
<ele>372.0</ele>
<speed>0.1</speed>
<course>167.4</course>
<desc>Speed 0.1 km/h Distance 6.03 km</desc>
<time>2010-03-14T11:46:04.30</time>
<name>4821</name>
</trkpt>
<trkpt lat="48.934328" lon="8.674977">
<ele>371.5</ele>
<speed>0.2</speed>
<course>167.4</course>
<desc>Speed 0.2 km/h Distance 6.03 km</desc>
<time>2010-03-14T11:46:05.30</time>
<name>4822</name>
</trkpt>
<trkpt lat="48.934328" lon="8.674977">
<ele>372.0</ele>
<speed>0.1</speed>
<course>90.0</course>
<desc>Speed 0.1 km/h Distance 6.03 km</desc>
<time>2010-03-14T11:46:06.30</time>
<name>4823</name>
</trkpt>
<trkpt lat="48.934328" lon="8.674978">
<ele>372.0</ele>
<speed>0.1</speed>
<course>90.0</course>
<desc>Speed 0.1 km/h Distance 6.03 km</desc>
<time>2010-03-14T11:46:07.30</time>
<name>4824</name>
</trkpt>
<trkpt lat="48.934328" lon="8.674978">
<ele>372.0</ele>
<speed>0.1</speed>
<course>90.0</course>
<desc>Speed 0.1 km/h Distance 6.03 km</desc>
<time>2010-03-14T11:46:08.30</time>
<name>4825</name>
</trkpt>
<trkpt lat="48.934328" lon="8.674978">
<ele>372.0</ele>
<speed>0.1</speed>
<course>90.0</course>
<desc>Speed 0.1 km/h Distance 6.03 km</desc>
<time>2010-03-14T11:46:09.30</time>
<name>4826</name>
</trkpt>
<trkpt lat="48.934328" lon="8.674978">
<ele>372.0</ele>
<speed>0.2</speed>
<course>90.0</course>
<desc>Speed 0.2 km/h Distance 6.03 km</desc>
<time>2010-03-14T11:46:10.30</time>
<name>4827</name>
</trkpt>
<trkpt lat="48.934328" lon="8.674978">
<ele>372.0</ele>
<speed>0.2</speed>
<course>90.0</course>
<desc>Speed 0.2 km/h Distance 6.03 km</desc>
<time>2010-03-14T11:46:11.30</time>
<name>4828</name>
</trkpt>
<trkpt lat="48.934328" lon="8.674978">
<ele>372.0</ele>
<speed>0.3</speed>
<course>90.0</course>
<desc>Speed 0.3 km/h Distance 6.03 km</desc>
<time>2010-03-14T11:46:12.30</time>
<name>4829</name>
</trkpt>
<trkpt lat="48.934328" lon="8.674978">
<ele>372.0</ele>
<speed>0.4</speed>
<course>255.6</course>
<desc>Speed 0.4 km/h Distance 6.03 km</desc>
<time>2010-03-14T11:46:13.30</time>
<name>4830</name>
</trkpt>
<trkpt lat="48.934327" lon="8.674968">
<ele>372.0</ele>
<speed>2.3</speed>
<course>301.4</course>
<desc>Speed 2.3 km/h Distance 6.03 km</desc>
<time>2010-03-14T11:46:14.30</time>
<name>4831</name>
</trkpt>
<trkpt lat="48.934330" lon="8.674960">
<ele>372.0</ele>
<speed>1.8</speed>
<course>296.6</course>
<desc>Speed 1.8 km/h Distance 6.03 km</desc>
<time>2010-03-14T11:46:15.30</time>
<name>4832</name>
</trkpt>
<trkpt lat="48.934332" lon="8.674955">
<ele>372.5</ele>
<speed>1.0</speed>
<course>290.8</course>
<desc>Speed 1.0 km/h Distance 6.03 km</desc>
<time>2010-03-14T11:46:16.30</time>
<name>4833</name>
</trkpt>
<trkpt lat="48.934335" lon="8.674942">
<ele>372.5</ele>
<speed>2.6</speed>
<course>312.6</course>
<desc>Speed 2.6 km/h Distance 6.03 km</desc>
<time>2010-03-14T11:46:17.30</time>
<name>4834</name>
</trkpt>
<trkpt lat="48.934340" lon="8.674933">
<ele>371.5</ele>
<speed>1.5</speed>
<course>312.2</course>
<desc>Speed 1.5 km/h Distance 6.03 km</desc>
<time>2010-03-14T11:46:18.30</time>
<name>4835</name>
</trkpt>
<trkpt lat="48.934345" lon="8.674925">
<ele>370.0</ele>
<speed>1.4</speed>
<course>308.1</course>
<desc>Speed 1.4 km/h Distance 6.03 km</desc>
<time>2010-03-14T11:46:19.30</time>
<name>4836</name>
</trkpt>
<trkpt lat="48.934347" lon="8.674922">
<ele>369.5</ele>
<speed>0.9</speed>
<course>344.0</course>
<desc>Speed 0.9 km/h Distance 6.04 km</desc>
<time>2010-03-14T11:46:20.30</time>
<name>4837</name>
</trkpt>
<trkpt lat="48.934353" lon="8.674918">
<ele>369.0</ele>
<speed>1.9</speed>
<course>327.4</course>
<desc>Speed 1.9 km/h Distance 6.04 km</desc>
<time>2010-03-14T11:46:21.30</time>
<name>4838</name>
</trkpt>
<trkpt lat="48.934360" lon="8.674912">
<ele>368.0</ele>
<speed>3.0</speed>
<course>355.0</course>
<desc>Speed 3.0 km/h Distance 6.04 km</desc>
<time>2010-03-14T11:46:22.30</time>
<name>4839</name>
</trkpt>
<trkpt lat="48.934368" lon="8.674910">
<ele>368.0</ele>
<speed>2.4</speed>
<course>341.2</course>
<desc>Speed 2.4 km/h Distance 6.04 km</desc>
<time>2010-03-14T11:46:23.30</time>
<name>4840</name>
</trkpt>
<trkpt lat="48.934375" lon="8.674907">
<ele>367.5</ele>
<speed>1.8</speed>
<course>322.8</course>
<desc>Speed 1.8 km/h Distance 6.04 km</desc>
<time>2010-03-14T11:46:24.30</time>
<name>4841</name>
</trkpt>
<trkpt lat="48.934377" lon="8.674905">
<ele>367.0</ele>
<speed>1.3</speed>
<course>315.5</course>
<desc>Speed 1.3 km/h Distance 6.04 km</desc>
<time>2010-03-14T11:46:25.30</time>
<name>4842</name>
</trkpt>
<trkpt lat="48.934380" lon="8.674900">
<ele>366.0</ele>
<speed>2.0</speed>
<course>342.5</course>
<desc>Speed 2.0 km/h Distance 6.04 km</desc>
<time>2010-03-14T11:46:26.30</time>
<name>4843</name>
</trkpt>
<trkpt lat="48.934387" lon="8.674897">
<ele>365.5</ele>
<speed>3.2</speed>
<course>326.8</course>
<desc>Speed 3.2 km/h Distance 6.04 km</desc>
<time>2010-03-14T11:46:27.30</time>
<name>4844</name>
</trkpt>
<trkpt lat="48.934392" lon="8.674892">
<ele>364.0</ele>
<speed>2.8</speed>
<course>290.9</course>
<desc>Speed 2.8 km/h Distance 6.04 km</desc>
<time>2010-03-14T11:46:28.30</time>
<name>4845</name>
</trkpt>
<trkpt lat="48.934393" lon="8.674885">
<ele>363.0</ele>
<speed>1.5</speed>
<course>297.4</course>
<desc>Speed 1.5 km/h Distance 6.04 km</desc>
<time>2010-03-14T11:46:29.30</time>
<name>4846</name>
</trkpt>
<trkpt lat="48.934395" lon="8.674880">
<ele>362.5</ele>
<speed>2.0</speed>
<course>326.8</course>
<desc>Speed 2.0 km/h Distance 6.04 km</desc>
<time>2010-03-14T11:46:30.30</time>
<name>4847</name>
</trkpt>
<trkpt lat="48.934402" lon="8.674873">
<ele>361.5</ele>
<speed>2.8</speed>
<course>334.4</course>
<desc>Speed 2.8 km/h Distance 6.04 km</desc>
<time>2010-03-14T11:46:31.30</time>
<name>4848</name>
</trkpt>
<trkpt lat="48.934408" lon="8.674868">
<ele>360.0</ele>
<speed>3.2</speed>
<course>326.8</course>
<desc>Speed 3.2 km/h Distance 6.04 km</desc>
<time>2010-03-14T11:46:32.30</time>
<name>4849</name>
</trkpt>
<trkpt lat="48.934413" lon="8.674863">
<ele>359.0</ele>
<speed>2.2</speed>
<course>336.2</course>
<desc>Speed 2.2 km/h Distance 6.04 km</desc>
<time>2010-03-14T11:46:33.30</time>
<name>4850</name>
</trkpt>
<trkpt lat="48.934418" lon="8.674860">
<ele>357.5</ele>
<speed>2.1</speed>
<course>327.7</course>
<desc>Speed 2.1 km/h Distance 6.04 km</desc>
<time>2010-03-14T11:46:34.30</time>
<name>4851</name>
</trkpt>
<trkpt lat="48.934423" lon="8.674855">
<ele>357.0</ele>
<speed>2.1</speed>
<course>342.4</course>
<desc>Speed 2.1 km/h Distance 6.05 km</desc>
<time>2010-03-14T11:46:35.30</time>
<name>4852</name>
</trkpt>
<trkpt lat="48.934433" lon="8.674850">
<ele>357.0</ele>
<speed>3.7</speed>
<course>326.3</course>
<desc>Speed 3.7 km/h Distance 6.05 km</desc>
<time>2010-03-14T11:46:36.30</time>
<name>4853</name>
</trkpt>
<trkpt lat="48.934440" lon="8.674843">
<ele>355.5</ele>
<speed>2.2</speed>
<course>315.5</course>
<desc>Speed 2.2 km/h Distance 6.05 km</desc>
<time>2010-03-14T11:46:37.30</time>
<name>4854</name>
</trkpt>
<trkpt lat="48.934447" lon="8.674833">
<ele>353.5</ele>
<speed>2.9</speed>
<course>320.6</course>
<desc>Speed 2.9 km/h Distance 6.05 km</desc>
<time>2010-03-14T11:46:38.30</time>
<name>4855</name>
</trkpt>
<trkpt lat="48.934453" lon="8.674825">
<ele>352.0</ele>
<speed>3.2</speed>
<course>315.5</course>
<desc>Speed 3.2 km/h Distance 6.05 km</desc>
<time>2010-03-14T11:46:39.30</time>
<name>4856</name>
</trkpt>
<trkpt lat="48.934460" lon="8.674815">
<ele>351.5</ele>
<speed>3.1</speed>
<course>321.9</course>
<desc>Speed 3.1 km/h Distance 6.05 km</desc>
<time>2010-03-14T11:46:40.30</time>
<name>4857</name>
</trkpt>
<trkpt lat="48.934468" lon="8.674805">
<ele>350.0</ele>
<speed>2.8</speed>
<course>358.8</course>
<desc>Speed 2.8 km/h Distance 6.05 km</desc>
<time>2010-03-14T11:46:41.30</time>
<name>4858</name>
</trkpt>
<trkpt lat="48.934475" lon="8.674803">
<ele>349.0</ele>
<speed>2.7</speed>
<course>345.1</course>
<desc>Speed 2.7 km/h Distance 6.05 km</desc>
<time>2010-03-14T11:46:42.30</time>
<name>4859</name>
</trkpt>
<trkpt lat="48.934487" lon="8.674798">
<ele>349.0</ele>
<speed>4.1</speed>
<course>342.4</course>
<desc>Speed 4.1 km/h Distance 6.05 km</desc>
<time>2010-03-14T11:46:43.30</time>
<name>4860</name>
</trkpt>
<trkpt lat="48.934497" lon="8.674793">
<ele>349.0</ele>
<speed>4.2</speed>
<course>336.6</course>
<desc>Speed 4.2 km/h Distance 6.05 km</desc>
<time>2010-03-14T11:46:44.30</time>
<name>4861</name>
</trkpt>
<trkpt lat="48.934507" lon="8.674787">
<ele>348.5</ele>
<speed>3.3</speed>
<course>315.5</course>
<desc>Speed 3.3 km/h Distance 6.06 km</desc>
<time>2010-03-14T11:46:45.30</time>
<name>4862</name>
</trkpt>
<trkpt lat="48.934513" lon="8.674777">
<ele>348.5</ele>
<speed>3.0</speed>
<course>345.1</course>
<desc>Speed 3.0 km/h Distance 6.06 km</desc>
<time>2010-03-14T11:46:46.30</time>
<name>4863</name>
</trkpt>
<trkpt lat="48.934522" lon="8.674773">
<ele>348.5</ele>
<speed>2.5</speed>
<course>320.6</course>
<desc>Speed 2.5 km/h Distance 6.06 km</desc>
<time>2010-03-14T11:46:47.30</time>
<name>4864</name>
</trkpt>
<trkpt lat="48.934528" lon="8.674765">
<ele>347.0</ele>
<speed>2.9</speed>
<course>320.6</course>
<desc>Speed 2.9 km/h Distance 6.06 km</desc>
<time>2010-03-14T11:46:48.30</time>
<name>4865</name>
</trkpt>
<trkpt lat="48.934535" lon="8.674757">
<ele>345.5</ele>
<speed>3.2</speed>
<course>327.4</course>
<desc>Speed 3.2 km/h Distance 6.06 km</desc>
<time>2010-03-14T11:46:49.30</time>
<name>4866</name>
</trkpt>
<trkpt lat="48.934542" lon="8.674750">
<ele>344.5</ele>
<speed>2.8</speed>
<course>331.4</course>
<desc>Speed 2.8 km/h Distance 6.06 km</desc>
<time>2010-03-14T11:46:50.30</time>
<name>4867</name>
</trkpt>
<trkpt lat="48.934552" lon="8.674742">
<ele>342.5</ele>
<speed>3.6</speed>
<course>341.9</course>
<desc>Speed 3.6 km/h Distance 6.06 km</desc>
<time>2010-03-14T11:46:51.30</time>
<name>4868</name>
</trkpt>
<trkpt lat="48.934565" lon="8.674735">
<ele>342.0</ele>
<speed>4.8</speed>
<course>337.9</course>
<desc>Speed 4.8 km/h Distance 6.06 km</desc>
<time>2010-03-14T11:46:52.30</time>
<name>4869</name>
</trkpt>
<trkpt lat="48.934578" lon="8.674727">
<ele>342.0</ele>
<speed>4.8</speed>
<course>317.4</course>
<desc>Speed 4.8 km/h Distance 6.07 km</desc>
<time>2010-03-14T11:46:53.30</time>
<name>4870</name>
</trkpt>
<trkpt lat="48.934587" lon="8.674715">
<ele>342.0</ele>
<speed>3.2</speed>
<course>315.5</course>
<desc>Speed 3.2 km/h Distance 6.07 km</desc>
<time>2010-03-14T11:46:54.30</time>
<name>4871</name>
</trkpt>
<trkpt lat="48.934593" lon="8.674705">
<ele>340.0</ele>
<speed>3.2</speed>
<course>321.9</course>
<desc>Speed 3.2 km/h Distance 6.07 km</desc>
<time>2010-03-14T11:46:55.30</time>
<name>4872</name>
</trkpt>
<trkpt lat="48.934602" lon="8.674695">
<ele>338.0</ele>
<speed>3.0</speed>
<course>326.8</course>
<desc>Speed 3.0 km/h Distance 6.07 km</desc>
<time>2010-03-14T11:46:56.30</time>
<name>4873</name>
</trkpt>
<trkpt lat="48.934612" lon="8.674685">
<ele>336.5</ele>
<speed>3.7</speed>
<course>340.1</course>
<desc>Speed 3.7 km/h Distance 6.07 km</desc>
<time>2010-03-14T11:46:57.30</time>
<name>4874</name>
</trkpt>
<trkpt lat="48.934627" lon="8.674677">
<ele>336.0</ele>
<speed>4.5</speed>
<course>296.9</course>
<desc>Speed 4.5 km/h Distance 6.07 km</desc>
<time>2010-03-14T11:46:58.30</time>
<name>4875</name>
</trkpt>
<trkpt lat="48.934632" lon="8.674662">
<ele>334.5</ele>
<speed>3.7</speed>
<course>337.4</course>
<desc>Speed 3.7 km/h Distance 6.07 km</desc>
<time>2010-03-14T11:46:59.30</time>
<name>4876</name>
</trkpt>
<trkpt lat="48.934645" lon="8.674653">
<ele>334.5</ele>
<speed>4.5</speed>
<course>331.4</course>
<desc>Speed 4.5 km/h Distance 6.07 km</desc>
<time>2010-03-14T11:47:00.30</time>
<name>4877</name>
</trkpt>
<trkpt lat="48.934655" lon="8.674645">
<ele>334.0</ele>
<speed>3.2</speed>
<course>321.9</course>
<desc>Speed 3.2 km/h Distance 6.08 km</desc>
<time>2010-03-14T11:47:01.30</time>
<name>4878</name>
</trkpt>
<trkpt lat="48.934663" lon="8.674635">
<ele>333.0</ele>
<speed>2.7</speed>
<course>339.4</course>
<desc>Speed 2.7 km/h Distance 6.08 km</desc>
<time>2010-03-14T11:47:02.30</time>
<name>4879</name>
</trkpt>
<trkpt lat="48.934675" lon="8.674628">
<ele>332.5</ele>
<speed>4.2</speed>
<course>264.9</course>
<desc>Speed 4.2 km/h Distance 6.08 km</desc>
<time>2010-03-14T11:47:03.30</time>
<name>4880</name>
</trkpt>
<trkpt lat="48.934673" lon="8.674600">
<ele>332.5</ele>
<speed>7.2</speed>
<course>286.9</course>
<desc>Speed 7.2 km/h Distance 6.08 km</desc>
<time>2010-03-14T11:47:04.30</time>
<name>4881</name>
</trkpt>
<trkpt lat="48.934677" lon="8.674583">
<ele>332.5</ele>
<speed>4.2</speed>
<course>1.2</course>
<desc>Speed 4.2 km/h Distance 6.08 km</desc>
<time>2010-03-14T11:47:05.30</time>
<name>4882</name>
</trkpt>
<trkpt lat="48.934690" lon="8.674583">
<ele>333.0</ele>
<speed>4.7</speed>
<course>326.3</course>
<desc>Speed 4.7 km/h Distance 6.08 km</desc>
<time>2010-03-14T11:47:06.30</time>
<name>4883</name>
</trkpt>
<trkpt lat="48.934697" lon="8.674577">
<ele>331.5</ele>
<speed>2.6</speed>
<course>266.9</course>
<desc>Speed 2.6 km/h Distance 6.08 km</desc>
<time>2010-03-14T11:47:07.30</time>
<name>4884</name>
</trkpt>
<trkpt lat="48.934695" lon="8.674530">
<ele>330.0</ele>
<speed>3.9</speed>
<course>336.2</course>
<desc>Speed 3.9 km/h Distance 6.09 km</desc>
<time>2010-03-14T11:47:09.30</time>
<name>4885</name>
</trkpt>
<trkpt lat="48.934705" lon="8.674523">
<ele>328.5</ele>
<speed>3.7</speed>
<course>356.1</course>
<desc>Speed 3.7 km/h Distance 6.09 km</desc>
<time>2010-03-14T11:47:10.30</time>
<name>4886</name>
</trkpt>
<trkpt lat="48.934718" lon="8.674522">
<ele>328.5</ele>
<speed>4.3</speed>
<course>339.8</course>
<desc>Speed 4.3 km/h Distance 6.09 km</desc>
<time>2010-03-14T11:47:11.30</time>
<name>4887</name>
</trkpt>
<trkpt lat="48.934730" lon="8.674515">
<ele>327.5</ele>
<speed>4.0</speed>
<course>341.8</course>
<desc>Speed 4.0 km/h Distance 6.09 km</desc>
<time>2010-03-14T11:47:12.30</time>
<name>4888</name>
</trkpt>
<trkpt lat="48.934740" lon="8.674510">
<ele>327.5</ele>
<speed>2.9</speed>
<course>0.0</course>
<desc>Speed 2.9 km/h Distance 6.09 km</desc>
<time>2010-03-14T11:47:13.30</time>
<name>4889</name>
</trkpt>
<trkpt lat="48.934747" lon="8.674510">
<ele>327.0</ele>
<speed>2.6</speed>
<course>355.0</course>
<desc>Speed 2.6 km/h Distance 6.09 km</desc>
<time>2010-03-14T11:47:14.30</time>
<name>4890</name>
</trkpt>
<trkpt lat="48.934755" lon="8.674508">
<ele>326.5</ele>
<speed>3.1</speed>
<course>347.4</course>
<desc>Speed 3.1 km/h Distance 6.09 km</desc>
<time>2010-03-14T11:47:15.30</time>
<name>4891</name>
</trkpt>
<trkpt lat="48.934760" lon="8.674507">
<ele>326.5</ele>
<speed>2.0</speed>
<course>332.1</course>
<desc>Speed 2.0 km/h Distance 6.10 km</desc>
<time>2010-03-14T11:47:17.30</time>
<name>4892</name>
</trkpt>
<trkpt lat="48.934768" lon="8.674500">
<ele>325.5</ele>
<speed>3.5</speed>
<course>264.2</course>
<desc>Speed 3.5 km/h Distance 6.10 km</desc>
<time>2010-03-14T11:47:18.30</time>
<name>4893</name>
</trkpt>
<trkpt lat="48.934767" lon="8.674475">
<ele>326.0</ele>
<speed>6.2</speed>
<course>16.0</course>
<desc>Speed 6.2 km/h Distance 6.10 km</desc>
<time>2010-03-14T11:47:19.30</time>
<name>4894</name>
</trkpt>
<trkpt lat="48.934778" lon="8.674480">
<ele>324.5</ele>
<speed>4.2</speed>
<course>348.4</course>
<desc>Speed 4.2 km/h Distance 6.10 km</desc>
<time>2010-03-14T11:47:20.30</time>
<name>4895</name>
</trkpt>
<trkpt lat="48.934788" lon="8.674477">
<ele>322.5</ele>
<speed>3.9</speed>
<course>319.1</course>
<desc>Speed 3.9 km/h Distance 6.10 km</desc>
<time>2010-03-14T11:47:21.30</time>
<name>4896</name>
</trkpt>
<trkpt lat="48.934793" lon="8.674470">
<ele>321.0</ele>
<speed>3.3</speed>
<course>346.5</course>
<desc>Speed 3.3 km/h Distance 6.10 km</desc>
<time>2010-03-14T11:47:22.30</time>
<name>4897</name>
</trkpt>
<trkpt lat="48.934807" lon="8.674465">
<ele>321.0</ele>
<speed>4.5</speed>
<course>326.8</course>
<desc>Speed 4.5 km/h Distance 6.10 km</desc>
<time>2010-03-14T11:47:23.30</time>
<name>4898</name>
</trkpt>
<trkpt lat="48.934817" lon="8.674455">
<ele>320.5</ele>
<speed>3.7</speed>
<course>343.4</course>
<desc>Speed 3.7 km/h Distance 6.10 km</desc>
<time>2010-03-14T11:47:24.30</time>
<name>4899</name>
</trkpt>
<trkpt lat="48.934832" lon="8.674448">
<ele>320.0</ele>
<speed>4.9</speed>
<course>317.4</course>
<desc>Speed 4.9 km/h Distance 6.11 km</desc>
<time>2010-03-14T11:47:25.30</time>
<name>4900</name>
</trkpt>
<trkpt lat="48.934840" lon="8.674437">
<ele>318.0</ele>
<speed>3.1</speed>
<course>326.8</course>
<desc>Speed 3.1 km/h Distance 6.11 km</desc>
<time>2010-03-14T11:47:26.30</time>
<name>4901</name>
</trkpt>
<trkpt lat="48.934847" lon="8.674430">
<ele>317.0</ele>
<speed>2.6</speed>
<course>303.3</course>
<desc>Speed 2.6 km/h Distance 6.11 km</desc>
<time>2010-03-14T11:47:27.30</time>
<name>4902</name>
</trkpt>
<trkpt lat="48.934852" lon="8.674418">
<ele>315.5</ele>
<speed>2.3</speed>
<course>326.5</course>
<desc>Speed 2.3 km/h Distance 6.11 km</desc>
<time>2010-03-14T11:47:28.30</time>
<name>4903</name>
</trkpt>
<trkpt lat="48.934860" lon="8.674410">
<ele>315.5</ele>
<speed>3.5</speed>
<course>336.2</course>
<desc>Speed 3.5 km/h Distance 6.11 km</desc>
<time>2010-03-14T11:47:29.30</time>
<name>4904</name>
</trkpt>
<trkpt lat="48.934870" lon="8.674403">
<ele>313.5</ele>
<speed>3.3</speed>
<course>307.2</course>
<desc>Speed 3.3 km/h Distance 6.11 km</desc>
<time>2010-03-14T11:47:30.30</time>
<name>4905</name>
</trkpt>
<trkpt lat="48.934875" lon="8.674393">
<ele>311.5</ele>
<speed>2.3</speed>
<course>322.5</course>
<desc>Speed 2.3 km/h Distance 6.11 km</desc>
<time>2010-03-14T11:47:31.30</time>
<name>4906</name>
</trkpt>
<trkpt lat="48.934885" lon="8.674382">
<ele>310.0</ele>
<speed>3.4</speed>
<course>307.3</course>
<desc>Speed 3.4 km/h Distance 6.11 km</desc>
<time>2010-03-14T11:47:32.30</time>
<name>4907</name>
</trkpt>
<trkpt lat="48.934892" lon="8.674368">
<ele>309.0</ele>
<speed>3.1</speed>
<course>307.3</course>
<desc>Speed 3.1 km/h Distance 6.12 km</desc>
<time>2010-03-14T11:47:33.30</time>
<name>4908</name>
</trkpt>
<trkpt lat="48.934898" lon="8.674355">
<ele>308.0</ele>
<speed>2.8</speed>
<course>304.1</course>
<desc>Speed 2.8 km/h Distance 6.12 km</desc>
<time>2010-03-14T11:47:34.30</time>
<name>4909</name>
</trkpt>
<trkpt lat="48.934905" lon="8.674340">
<ele>308.5</ele>
<speed>3.2</speed>
<course>289.4</course>
<desc>Speed 3.2 km/h Distance 6.12 km</desc>
<time>2010-03-14T11:47:35.30</time>
<name>4910</name>
</trkpt>
<trkpt lat="48.934910" lon="8.674318">
<ele>309.0</ele>
<speed>3.6</speed>
<course>275.1</course>
<desc>Speed 3.6 km/h Distance 6.12 km</desc>
<time>2010-03-14T11:47:36.30</time>
<name>4911</name>
</trkpt>
<trkpt lat="48.934912" lon="8.674290">
<ele>309.5</ele>
<speed>3.3</speed>
<course>297.0</course>
<desc>Speed 3.3 km/h Distance 6.12 km</desc>
<time>2010-03-14T11:47:37.30</time>
<name>4912</name>
</trkpt>
<trkpt lat="48.934915" lon="8.674280">
<ele>309.0</ele>
<speed>2.0</speed>
<course>282.3</course>
<desc>Speed 2.0 km/h Distance 6.12 km</desc>
<time>2010-03-14T11:47:38.30</time>
<name>4913</name>
</trkpt>
<trkpt lat="48.934917" lon="8.674268">
<ele>309.0</ele>
<speed>2.0</speed>
<course>270.0</course>
<desc>Speed 2.0 km/h Distance 6.12 km</desc>
<time>2010-03-14T11:47:39.30</time>
<name>4914</name>
</trkpt>
<trkpt lat="48.934917" lon="8.674245">
<ele>309.5</ele>
<speed>2.3</speed>
<course>264.9</course>
<desc>Speed 2.3 km/h Distance 6.12 km</desc>
<time>2010-03-14T11:47:40.30</time>
<name>4915</name>
</trkpt>
<trkpt lat="48.934915" lon="8.674217">
<ele>310.0</ele>
<speed>2.9</speed>
<course>262.1</course>
<desc>Speed 2.9 km/h Distance 6.13 km</desc>
<time>2010-03-14T11:47:41.30</time>
<name>4916</name>
</trkpt>
<trkpt lat="48.934912" lon="8.674180">
<ele>313.0</ele>
<speed>2.6</speed>
<course>320.6</course>
<desc>Speed 2.6 km/h Distance 6.13 km</desc>
<time>2010-03-14T11:47:42.30</time>
<name>4917</name>
</trkpt>
<trkpt lat="48.934918" lon="8.674172">
<ele>313.5</ele>
<speed>3.3</speed>
<course>279.6</course>
<desc>Speed 3.3 km/h Distance 6.13 km</desc>
<time>2010-03-14T11:47:43.30</time>
<name>4918</name>
</trkpt>
<trkpt lat="48.934920" lon="8.674157">
<ele>312.0</ele>
<speed>2.5</speed>
<course>277.2</course>
<desc>Speed 2.5 km/h Distance 6.13 km</desc>
<time>2010-03-14T11:47:44.30</time>
<name>4919</name>
</trkpt>
<trkpt lat="48.934922" lon="8.674137">
<ele>312.5</ele>
<speed>3.3</speed>
<course>326.8</course>
<desc>Speed 3.3 km/h Distance 6.13 km</desc>
<time>2010-03-14T11:47:45.30</time>
<name>4920</name>
</trkpt>
<trkpt lat="48.934930" lon="8.674128">
<ele>311.5</ele>
<speed>3.0</speed>
<course>299.6</course>
<desc>Speed 3.0 km/h Distance 6.13 km</desc>
<time>2010-03-14T11:47:46.30</time>
<name>4921</name>
</trkpt>
<trkpt lat="48.934935" lon="8.674115">
<ele>310.5</ele>
<speed>2.2</speed>
<course>284.2</course>
<desc>Speed 2.2 km/h Distance 6.14 km</desc>
<time>2010-03-14T11:47:47.30</time>
<name>4922</name>
</trkpt>
<trkpt lat="48.934938" lon="8.674095">
<ele>309.5</ele>
<speed>2.6</speed>
<course>275.8</course>
<desc>Speed 2.6 km/h Distance 6.14 km</desc>
<time>2010-03-14T11:47:48.30</time>
<name>4923</name>
</trkpt>
<trkpt lat="48.934940" lon="8.674070">
<ele>309.0</ele>
<speed>3.3</speed>
<course>270.0</course>
<desc>Speed 3.3 km/h Distance 6.14 km</desc>
<time>2010-03-14T11:47:49.30</time>
<name>4924</name>
</trkpt>
<trkpt lat="48.934940" lon="8.674040">
<ele>309.0</ele>
<speed>3.5</speed>
<course>262.5</course>
<desc>Speed 3.5 km/h Distance 6.14 km</desc>
<time>2010-03-14T11:47:50.30</time>
<name>4925</name>
</trkpt>
<trkpt lat="48.934937" lon="8.674002">
<ele>311.0</ele>
<speed>4.2</speed>
<course>257.7</course>
<desc>Speed 4.2 km/h Distance 6.14 km</desc>
<time>2010-03-14T11:47:51.30</time>
<name>4926</name>
</trkpt>
<trkpt lat="48.934928" lon="8.673943">
<ele>313.5</ele>
<speed>3.6</speed>
<course>270.0</course>
<desc>Speed 3.6 km/h Distance 6.15 km</desc>
<time>2010-03-14T11:47:53.30</time>
<name>4927</name>
</trkpt>
<trkpt lat="48.934928" lon="8.673923">
<ele>313.0</ele>
<speed>2.8</speed>
<course>279.6</course>
<desc>Speed 2.8 km/h Distance 6.15 km</desc>
<time>2010-03-14T11:47:54.30</time>
<name>4928</name>
</trkpt>
<trkpt lat="48.934932" lon="8.673893">
<ele>315.5</ele>
<speed>4.0</speed>
<course>265.9</course>
<desc>Speed 4.0 km/h Distance 6.15 km</desc>
<time>2010-03-14T11:47:55.30</time>
<name>4929</name>
</trkpt>
<trkpt lat="48.934930" lon="8.673858">
<ele>317.0</ele>
<speed>3.7</speed>
<course>322.5</course>
<desc>Speed 3.7 km/h Distance 6.15 km</desc>
<time>2010-03-14T11:47:56.30</time>
<name>4930</name>
</trkpt>
<trkpt lat="48.934940" lon="8.673847">
<ele>317.0</ele>
<speed>4.2</speed>
<course>307.3</course>
<desc>Speed 4.2 km/h Distance 6.16 km</desc>
<time>2010-03-14T11:47:57.30</time>
<name>4931</name>
</trkpt>
<trkpt lat="48.934947" lon="8.673833">
<ele>315.0</ele>
<speed>2.8</speed>
<course>318.8</course>
<desc>Speed 2.8 km/h Distance 6.16 km</desc>
<time>2010-03-14T11:47:58.30</time>
<name>4932</name>
</trkpt>
<trkpt lat="48.934957" lon="8.673820">
<ele>315.0</ele>
<speed>4.3</speed>
<course>303.3</course>
<desc>Speed 4.3 km/h Distance 6.16 km</desc>
<time>2010-03-14T11:47:59.30</time>
<name>4933</name>
</trkpt>
<trkpt lat="48.934962" lon="8.673808">
<ele>314.0</ele>
<speed>2.8</speed>
<course>301.3</course>
<desc>Speed 2.8 km/h Distance 6.16 km</desc>
<time>2010-03-14T11:48:00.33</time>
<name>4934</name>
</trkpt>
<trkpt lat="48.934968" lon="8.673792">
<ele>314.0</ele>
<speed>3.5</speed>
<course>286.9</course>
<desc>Speed 3.5 km/h Distance 6.16 km</desc>
<time>2010-03-14T11:48:01.33</time>
<name>4935</name>
</trkpt>
<trkpt lat="48.934973" lon="8.673767">
<ele>314.0</ele>
<speed>4.0</speed>
<course>320.6</course>
<desc>Speed 4.0 km/h Distance 6.16 km</desc>
<time>2010-03-14T11:48:02.33</time>
<name>4936</name>
</trkpt>
<trkpt lat="48.934980" lon="8.673758">
<ele>313.0</ele>
<speed>3.0</speed>
<course>310.2</course>
<desc>Speed 3.0 km/h Distance 6.16 km</desc>
<time>2010-03-14T11:48:03.33</time>
<name>4937</name>
</trkpt>
<trkpt lat="48.934988" lon="8.673743">
<ele>313.0</ele>
<speed>3.4</speed>
<course>290.8</course>
<desc>Speed 3.4 km/h Distance 6.17 km</desc>
<time>2010-03-14T11:48:04.33</time>
<name>4938</name>
</trkpt>
<trkpt lat="48.934992" lon="8.673730">
<ele>312.5</ele>
<speed>2.3</speed>
<course>283.2</course>
<desc>Speed 2.3 km/h Distance 6.17 km</desc>
<time>2010-03-14T11:48:05.33</time>
<name>4939</name>
</trkpt>
<trkpt lat="48.934995" lon="8.673708">
<ele>314.0</ele>
<speed>3.0</speed>
<course>265.4</course>
<desc>Speed 3.0 km/h Distance 6.17 km</desc>
<time>2010-03-14T11:48:06.33</time>
<name>4940</name>
</trkpt>
<trkpt lat="48.934993" lon="8.673677">
<ele>313.5</ele>
<speed>3.0</speed>
<course>297.0</course>
<desc>Speed 3.0 km/h Distance 6.17 km</desc>
<time>2010-03-14T11:48:07.33</time>
<name>4941</name>
</trkpt>
<trkpt lat="48.934997" lon="8.673667">
<ele>311.5</ele>
<speed>2.7</speed>
<course>281.5</course>
<desc>Speed 2.7 km/h Distance 6.17 km</desc>
<time>2010-03-14T11:48:08.33</time>
<name>4942</name>
</trkpt>
<trkpt lat="48.935000" lon="8.673642">
<ele>314.5</ele>
<speed>6.3</speed>
<course>284.2</course>
<desc>Speed 6.3 km/h Distance 6.17 km</desc>
<time>2010-03-14T11:48:09.33</time>
<name>4943</name>
</trkpt>
<trkpt lat="48.935003" lon="8.673622">
<ele>313.5</ele>
<speed>3.4</speed>
<course>280.8</course>
<desc>Speed 3.4 km/h Distance 6.17 km</desc>
<time>2010-03-14T11:48:10.33</time>
<name>4944</name>
</trkpt>
<trkpt lat="48.935007" lon="8.673595">
<ele>315.0</ele>
<speed>4.4</speed>
<course>290.8</course>
<desc>Speed 4.4 km/h Distance 6.18 km</desc>
<time>2010-03-14T11:48:11.33</time>
<name>4945</name>
</trkpt>
<trkpt lat="48.935010" lon="8.673582">
<ele>314.0</ele>
<speed>2.8</speed>
<course>293.5</course>
<desc>Speed 2.8 km/h Distance 6.18 km</desc>
<time>2010-03-14T11:48:12.33</time>
<name>4946</name>
</trkpt>
<trkpt lat="48.935013" lon="8.673570">
<ele>314.5</ele>
<speed>2.4</speed>
<course>287.0</course>
<desc>Speed 2.4 km/h Distance 6.18 km</desc>
<time>2010-03-14T11:48:13.33</time>
<name>4947</name>
</trkpt>
<trkpt lat="48.935017" lon="8.673553">
<ele>316.0</ele>
<speed>2.6</speed>
<course>326.8</course>
<desc>Speed 2.6 km/h Distance 6.18 km</desc>
<time>2010-03-14T11:48:14.33</time>
<name>4948</name>
</trkpt>
<trkpt lat="48.935022" lon="8.673548">
<ele>316.5</ele>
<speed>1.9</speed>
<course>341.2</course>
<desc>Speed 1.9 km/h Distance 6.18 km</desc>
<time>2010-03-14T11:48:15.33</time>
<name>4949</name>
</trkpt>
<trkpt lat="48.935025" lon="8.673547">
<ele>316.5</ele>
<speed>0.7</speed>
<course>270.0</course>
<desc>Speed 0.7 km/h Distance 6.18 km</desc>
<time>2010-03-14T11:48:16.33</time>
<name>4950</name>
</trkpt>
<trkpt lat="48.935025" lon="8.673538">
<ele>317.5</ele>
<speed>0.4</speed>
<course>243.0</course>
<desc>Speed 0.4 km/h Distance 6.18 km</desc>
<time>2010-03-14T11:48:17.33</time>
<name>4951</name>
</trkpt>
<trkpt lat="48.935022" lon="8.673528">
<ele>319.0</ele>
<speed>0.2</speed>
<course>253.1</course>
<desc>Speed 0.2 km/h Distance 6.18 km</desc>
<time>2010-03-14T11:48:18.33</time>
<name>4952</name>
</trkpt>
<trkpt lat="48.935017" lon="8.673503">
<ele>321.5</ele>
<speed>1.4</speed>
<course>263.1</course>
<desc>Speed 1.4 km/h Distance 6.18 km</desc>
<time>2010-03-14T11:48:19.33</time>
<name>4953</name>
</trkpt>
<trkpt lat="48.935010" lon="8.673420">
<ele>329.5</ele>
<speed>3.3</speed>
<course>281.1</course>
<desc>Speed 3.3 km/h Distance 6.19 km</desc>
<time>2010-03-14T11:48:21.33</time>
<name>4954</name>
</trkpt>
<trkpt lat="48.935017" lon="8.673368">
<ele>336.0</ele>
<speed>3.9</speed>
<course>337.0</course>
<desc>Speed 3.9 km/h Distance 6.19 km</desc>
<time>2010-03-14T11:48:23.33</time>
<name>4955</name>
</trkpt>
<trkpt lat="48.935027" lon="8.673362">
<ele>336.0</ele>
<speed>3.8</speed>
<course>313.6</course>
<desc>Speed 3.8 km/h Distance 6.20 km</desc>
<time>2010-03-14T11:48:24.33</time>
<name>4956</name>
</trkpt>
<trkpt lat="48.935035" lon="8.673348">
<ele>336.5</ele>
<speed>4.5</speed>
<course>277.2</course>
<desc>Speed 4.5 km/h Distance 6.20 km</desc>
<time>2010-03-14T11:48:25.33</time>
<name>4957</name>
</trkpt>
<trkpt lat="48.935037" lon="8.673328">
<ele>338.0</ele>
<speed>2.4</speed>
<course>276.7</course>
<desc>Speed 2.4 km/h Distance 6.20 km</desc>
<time>2010-03-14T11:48:26.33</time>
<name>4958</name>
</trkpt>
<trkpt lat="48.935038" lon="8.673307">
<ele>340.5</ele>
<speed>3.3</speed>
<course>270.0</course>
<desc>Speed 3.3 km/h Distance 6.20 km</desc>
<time>2010-03-14T11:48:27.33</time>
<name>4959</name>
</trkpt>
<trkpt lat="48.935038" lon="8.673280">
<ele>342.0</ele>
<speed>3.7</speed>
<course>264.9</course>
<desc>Speed 3.7 km/h Distance 6.20 km</desc>
<time>2010-03-14T11:48:28.33</time>
<name>4960</name>
</trkpt>
<trkpt lat="48.935037" lon="8.673252">
<ele>342.5</ele>
<speed>6.4</speed>
<course>318.8</course>
<desc>Speed 6.4 km/h Distance 6.20 km</desc>
<time>2010-03-14T11:48:29.33</time>
<name>4961</name>
</trkpt>
<trkpt lat="48.935047" lon="8.673238">
<ele>342.5</ele>
<speed>4.3</speed>
<course>316.7</course>
<desc>Speed 4.3 km/h Distance 6.21 km</desc>
<time>2010-03-14T11:48:30.33</time>
<name>4962</name>
</trkpt>
<trkpt lat="48.935058" lon="8.673222">
<ele>342.5</ele>
<speed>4.5</speed>
<course>331.4</course>
<desc>Speed 4.5 km/h Distance 6.21 km</desc>
<time>2010-03-14T11:48:31.33</time>
<name>4963</name>
</trkpt>
<trkpt lat="48.935068" lon="8.673213">
<ele>342.5</ele>
<speed>4.5</speed>
<course>326.8</course>
<desc>Speed 4.5 km/h Distance 6.21 km</desc>
<time>2010-03-14T11:48:32.33</time>
<name>4964</name>
</trkpt>
<trkpt lat="48.935077" lon="8.673205">
<ele>342.5</ele>
<speed>3.4</speed>
<course>326.8</course>
<desc>Speed 3.4 km/h Distance 6.21 km</desc>
<time>2010-03-14T11:48:33.33</time>
<name>4965</name>
</trkpt>
<trkpt lat="48.935087" lon="8.673195">
<ele>343.0</ele>
<speed>4.0</speed>
<course>307.0</course>
<desc>Speed 4.0 km/h Distance 6.21 km</desc>
<time>2010-03-14T11:48:34.33</time>
<name>4966</name>
</trkpt>
<trkpt lat="48.935093" lon="8.673182">
<ele>343.0</ele>
<speed>2.8</speed>
<course>290.7</course>
<desc>Speed 2.8 km/h Distance 6.21 km</desc>
<time>2010-03-14T11:48:35.33</time>
<name>4967</name>
</trkpt>
<trkpt lat="48.935097" lon="8.673168">
<ele>343.5</ele>
<speed>2.1</speed>
<course>336.2</course>
<desc>Speed 2.1 km/h Distance 6.21 km</desc>
<time>2010-03-14T11:48:36.33</time>
<name>4968</name>
</trkpt>
<trkpt lat="48.935102" lon="8.673165">
<ele>344.0</ele>
<speed>1.4</speed>
<course>255.6</course>
<desc>Speed 1.4 km/h Distance 6.21 km</desc>
<time>2010-03-14T11:48:37.33</time>
<name>4969</name>
</trkpt>
<trkpt lat="48.935100" lon="8.673155">
<ele>344.0</ele>
<speed>1.1</speed>
<course>317.4</course>
<desc>Speed 1.1 km/h Distance 6.21 km</desc>
<time>2010-03-14T11:48:38.33</time>
<name>4970</name>
</trkpt>
<trkpt lat="48.935108" lon="8.673143">
<ele>344.5</ele>
<speed>3.1</speed>
<course>318.6</course>
<desc>Speed 3.1 km/h Distance 6.22 km</desc>
<time>2010-03-14T11:48:39.33</time>
<name>4971</name>
</trkpt>
<trkpt lat="48.935118" lon="8.673130">
<ele>345.5</ele>
<speed>4.9</speed>
<course>348.3</course>
<desc>Speed 4.9 km/h Distance 6.22 km</desc>
<time>2010-03-14T11:48:40.33</time>
<name>4972</name>
</trkpt>
<trkpt lat="48.935133" lon="8.673125">
<ele>345.5</ele>
<speed>4.6</speed>
<course>346.0</course>
<desc>Speed 4.6 km/h Distance 6.22 km</desc>
<time>2010-03-14T11:48:41.33</time>
<name>4973</name>
</trkpt>
<trkpt lat="48.935147" lon="8.673120">
<ele>345.5</ele>
<speed>4.5</speed>
<course>333.6</course>
<desc>Speed 4.5 km/h Distance 6.22 km</desc>
<time>2010-03-14T11:48:42.33</time>
<name>4974</name>
</trkpt>
<trkpt lat="48.935160" lon="8.673110">
<ele>346.0</ele>
<speed>4.6</speed>
<course>318.7</course>
<desc>Speed 4.6 km/h Distance 6.22 km</desc>
<time>2010-03-14T11:48:43.33</time>
<name>4975</name>
</trkpt>
<trkpt lat="48.935170" lon="8.673097">
<ele>346.5</ele>
<speed>4.2</speed>
<course>263.8</course>
<desc>Speed 4.2 km/h Distance 6.22 km</desc>
<time>2010-03-14T11:48:44.33</time>
<name>4976</name>
</trkpt>
<trkpt lat="48.935168" lon="8.673073">
<ele>347.0</ele>
<speed>1.5</speed>
<course>280.2</course>
<desc>Speed 1.5 km/h Distance 6.23 km</desc>
<time>2010-03-14T11:48:45.33</time>
<name>4977</name>
</trkpt>
<trkpt lat="48.935172" lon="8.673045">
<ele>348.5</ele>
<speed>3.4</speed>
<course>331.4</course>
<desc>Speed 3.4 km/h Distance 6.23 km</desc>
<time>2010-03-14T11:48:46.33</time>
<name>4978</name>
</trkpt>
<trkpt lat="48.935182" lon="8.673037">
<ele>348.5</ele>
<speed>4.0</speed>
<course>323.1</course>
<desc>Speed 4.0 km/h Distance 6.23 km</desc>
<time>2010-03-14T11:48:47.33</time>
<name>4979</name>
</trkpt>
<trkpt lat="48.935193" lon="8.673023">
<ele>349.0</ele>
<speed>5.8</speed>
<course>346.5</course>
<desc>Speed 5.8 km/h Distance 6.23 km</desc>
<time>2010-03-14T11:48:48.33</time>
<name>4980</name>
</trkpt>
<trkpt lat="48.935207" lon="8.673018">
<ele>349.0</ele>
<speed>5.2</speed>
<course>338.5</course>
<desc>Speed 5.2 km/h Distance 6.23 km</desc>
<time>2010-03-14T11:48:49.33</time>
<name>4981</name>
</trkpt>
<trkpt lat="48.935223" lon="8.673008">
<ele>348.5</ele>
<speed>5.8</speed>
<course>330.6</course>
<desc>Speed 5.8 km/h Distance 6.23 km</desc>
<time>2010-03-14T11:48:50.33</time>
<name>4982</name>
</trkpt>
<trkpt lat="48.935235" lon="8.672998">
<ele>349.0</ele>
<speed>4.9</speed>
<course>337.9</course>
<desc>Speed 4.9 km/h Distance 6.24 km</desc>
<time>2010-03-14T11:48:51.33</time>
<name>4983</name>
</trkpt>
<trkpt lat="48.935248" lon="8.672990">
<ele>349.0</ele>
<speed>5.3</speed>
<course>1.2</course>
<desc>Speed 5.3 km/h Distance 6.24 km</desc>
<time>2010-03-14T11:48:52.33</time>
<name>4984</name>
</trkpt>
<trkpt lat="48.935262" lon="8.672990">
<ele>349.5</ele>
<speed>4.9</speed>
<course>348.8</course>
<desc>Speed 4.9 km/h Distance 6.24 km</desc>
<time>2010-03-14T11:48:53.33</time>
<name>4985</name>
</trkpt>
<trkpt lat="48.935273" lon="8.672987">
<ele>349.5</ele>
<speed>4.3</speed>
<course>330.6</course>
<desc>Speed 4.3 km/h Distance 6.24 km</desc>
<time>2010-03-14T11:48:54.33</time>
<name>4986</name>
</trkpt>
<trkpt lat="48.935285" lon="8.672977">
<ele>350.0</ele>
<speed>5.4</speed>
<course>299.7</course>
<desc>Speed 5.4 km/h Distance 6.24 km</desc>
<time>2010-03-14T11:48:55.33</time>
<name>4987</name>
</trkpt>
<trkpt lat="48.935290" lon="8.672963">
<ele>350.5</ele>
<speed>3.8</speed>
<course>294.5</course>
<desc>Speed 3.8 km/h Distance 6.24 km</desc>
<time>2010-03-14T11:48:56.33</time>
<name>4988</name>
</trkpt>
<trkpt lat="48.935295" lon="8.672947">
<ele>351.0</ele>
<speed>4.1</speed>
<course>282.3</course>
<desc>Speed 4.1 km/h Distance 6.24 km</desc>
<time>2010-03-14T11:48:57.33</time>
<name>4989</name>
</trkpt>
<trkpt lat="48.935298" lon="8.672923">
<ele>352.0</ele>
<speed>4.3</speed>
<course>265.4</course>
<desc>Speed 4.3 km/h Distance 6.25 km</desc>
<time>2010-03-14T11:48:58.33</time>
<name>4990</name>
</trkpt>
<trkpt lat="48.935297" lon="8.672892">
<ele>353.5</ele>
<speed>3.0</speed>
<course>337.9</course>
<desc>Speed 3.0 km/h Distance 6.25 km</desc>
<time>2010-03-14T11:48:59.33</time>
<name>4991</name>
</trkpt>
<trkpt lat="48.935310" lon="8.672883">
<ele>354.0</ele>
<speed>4.4</speed>
<course>310.2</course>
<desc>Speed 4.4 km/h Distance 6.25 km</desc>
<time>2010-03-14T11:49:00.33</time>
<name>4992</name>
</trkpt>
<trkpt lat="48.935318" lon="8.672868">
<ele>354.0</ele>
<speed>3.6</speed>
<course>307.2</course>
<desc>Speed 3.6 km/h Distance 6.25 km</desc>
<time>2010-03-14T11:49:01.33</time>
<name>4993</name>
</trkpt>
<trkpt lat="48.935328" lon="8.672848">
<ele>354.5</ele>
<speed>4.6</speed>
<course>288.7</course>
<desc>Speed 4.6 km/h Distance 6.25 km</desc>
<time>2010-03-14T11:49:02.33</time>
<name>4994</name>
</trkpt>
<trkpt lat="48.935335" lon="8.672818">
<ele>355.5</ele>
<speed>3.9</speed>
<course>321.8</course>
<desc>Speed 3.9 km/h Distance 6.25 km</desc>
<time>2010-03-14T11:49:03.33</time>
<name>4995</name>
</trkpt>
<trkpt lat="48.935352" lon="8.672798">
<ele>355.5</ele>
<speed>5.4</speed>
<course>330.2</course>
<desc>Speed 5.4 km/h Distance 6.26 km</desc>
<time>2010-03-14T11:49:04.33</time>
<name>4996</name>
</trkpt>
<trkpt lat="48.935365" lon="8.672787">
<ele>355.5</ele>
<speed>5.5</speed>
<course>326.7</course>
<desc>Speed 5.5 km/h Distance 6.26 km</desc>
<time>2010-03-14T11:49:05.33</time>
<name>4997</name>
</trkpt>
<trkpt lat="48.935380" lon="8.672772">
<ele>356.5</ele>
<speed>5.9</speed>
<course>339.9</course>
<desc>Speed 5.9 km/h Distance 6.26 km</desc>
<time>2010-03-14T11:49:06.33</time>
<name>4998</name>
</trkpt>
<trkpt lat="48.935395" lon="8.672763">
<ele>356.5</ele>
<speed>5.4</speed>
<course>346.0</course>
<desc>Speed 5.4 km/h Distance 6.26 km</desc>
<time>2010-03-14T11:49:07.33</time>
<name>4999</name>
</trkpt>
<trkpt lat="48.935408" lon="8.672758">
<ele>357.0</ele>
<speed>5.5</speed>
<course>326.8</course>
<desc>Speed 5.5 km/h Distance 6.26 km</desc>
<time>2010-03-14T11:49:08.33</time>
<name>5000</name>
</trkpt>
<trkpt lat="48.935417" lon="8.672750">
<ele>357.5</ele>
<speed>3.9</speed>
<course>307.3</course>
<desc>Speed 3.9 km/h Distance 6.27 km</desc>
<time>2010-03-14T11:49:09.33</time>
<name>5001</name>
</trkpt>
<trkpt lat="48.935425" lon="8.672733">
<ele>358.0</ele>
<speed>4.7</speed>
<course>296.9</course>
<desc>Speed 4.7 km/h Distance 6.27 km</desc>
<time>2010-03-14T11:49:10.33</time>
<name>5002</name>
</trkpt>
<trkpt lat="48.935432" lon="8.672713">
<ele>359.0</ele>
<speed>5.3</speed>
<course>277.2</course>
<desc>Speed 5.3 km/h Distance 6.27 km</desc>
<time>2010-03-14T11:49:11.33</time>
<name>5003</name>
</trkpt>
<trkpt lat="48.935433" lon="8.672693">
<ele>360.0</ele>
<speed>4.5</speed>
<course>345.1</course>
<desc>Speed 4.5 km/h Distance 6.27 km</desc>
<time>2010-03-14T11:49:12.33</time>
<name>5004</name>
</trkpt>
<trkpt lat="48.935445" lon="8.672688">
<ele>360.0</ele>
<speed>4.9</speed>
<course>334.0</course>
<desc>Speed 4.9 km/h Distance 6.27 km</desc>
<time>2010-03-14T11:49:13.33</time>
<name>5005</name>
</trkpt>
<trkpt lat="48.935458" lon="8.672678">
<ele>360.5</ele>
<speed>4.9</speed>
<course>337.4</course>
<desc>Speed 4.9 km/h Distance 6.27 km</desc>
<time>2010-03-14T11:49:14.33</time>
<name>5006</name>
</trkpt>
<trkpt lat="48.935472" lon="8.672670">
<ele>361.0</ele>
<speed>5.1</speed>
<course>318.7</course>
<desc>Speed 5.1 km/h Distance 6.27 km</desc>
<time>2010-03-14T11:49:15.33</time>
<name>5007</name>
</trkpt>
<trkpt lat="48.935482" lon="8.672657">
<ele>361.0</ele>
<speed>3.9</speed>
<course>299.7</course>
<desc>Speed 3.9 km/h Distance 6.28 km</desc>
<time>2010-03-14T11:49:16.33</time>
<name>5008</name>
</trkpt>
<trkpt lat="48.935487" lon="8.672643">
<ele>362.0</ele>
<speed>4.1</speed>
<course>304.7</course>
<desc>Speed 4.1 km/h Distance 6.28 km</desc>
<time>2010-03-14T11:49:17.33</time>
<name>5009</name>
</trkpt>
<trkpt lat="48.935495" lon="8.672625">
<ele>363.0</ele>
<speed>5.4</speed>
<course>340.1</course>
<desc>Speed 5.4 km/h Distance 6.28 km</desc>
<time>2010-03-14T11:49:18.33</time>
<name>5010</name>
</trkpt>
<trkpt lat="48.935510" lon="8.672617">
<ele>363.5</ele>
<speed>5.8</speed>
<course>315.5</course>
<desc>Speed 5.8 km/h Distance 6.28 km</desc>
<time>2010-03-14T11:49:19.33</time>
<name>5011</name>
</trkpt>
<trkpt lat="48.935520" lon="8.672602">
<ele>363.5</ele>
<speed>4.5</speed>
<course>300.3</course>
<desc>Speed 4.5 km/h Distance 6.28 km</desc>
<time>2010-03-14T11:49:20.33</time>
<name>5012</name>
</trkpt>
<trkpt lat="48.935528" lon="8.672580">
<ele>364.0</ele>
<speed>4.2</speed>
<course>292.9</course>
<desc>Speed 4.2 km/h Distance 6.28 km</desc>
<time>2010-03-14T11:49:21.33</time>
<name>5013</name>
</trkpt>
<trkpt lat="48.935537" lon="8.672550">
<ele>364.5</ele>
<speed>4.6</speed>
<course>316.8</course>
<desc>Speed 4.6 km/h Distance 6.29 km</desc>
<time>2010-03-14T11:49:22.33</time>
<name>5014</name>
</trkpt>
<trkpt lat="48.935548" lon="8.672533">
<ele>364.5</ele>
<speed>3.4</speed>
<course>310.3</course>
<desc>Speed 3.4 km/h Distance 6.29 km</desc>
<time>2010-03-14T11:49:23.33</time>
<name>5015</name>
</trkpt>
<trkpt lat="48.935557" lon="8.672518">
<ele>364.5</ele>
<speed>4.2</speed>
<course>341.6</course>
<desc>Speed 4.2 km/h Distance 6.29 km</desc>
<time>2010-03-14T11:49:24.33</time>
<name>5016</name>
</trkpt>
<trkpt lat="48.935570" lon="8.672512">
<ele>364.5</ele>
<speed>4.2</speed>
<course>307.2</course>
<desc>Speed 4.2 km/h Distance 6.29 km</desc>
<time>2010-03-14T11:49:25.35</time>
<name>5017</name>
</trkpt>
<trkpt lat="48.935577" lon="8.672498">
<ele>364.5</ele>
<speed>2.3</speed>
<course>326.8</course>
<desc>Speed 2.3 km/h Distance 6.29 km</desc>
<time>2010-03-14T11:49:26.35</time>
<name>5018</name>
</trkpt>
<trkpt lat="48.935587" lon="8.672488">
<ele>364.0</ele>
<speed>3.3</speed>
<course>245.4</course>
<desc>Speed 3.3 km/h Distance 6.29 km</desc>
<time>2010-03-14T11:49:27.35</time>
<name>5019</name>
</trkpt>
<trkpt lat="48.935577" lon="8.672455">
<ele>364.0</ele>
<speed>8.5</speed>
<course>264.6</course>
<desc>Speed 8.5 km/h Distance 6.30 km</desc>
<time>2010-03-14T11:49:28.35</time>
<name>5020</name>
</trkpt>
<trkpt lat="48.935575" lon="8.672428">
<ele>364.0</ele>
<speed>5.1</speed>
<course>331.4</course>
<desc>Speed 5.1 km/h Distance 6.30 km</desc>
<time>2010-03-14T11:49:29.35</time>
<name>5021</name>
</trkpt>
<trkpt lat="48.935585" lon="8.672420">
<ele>364.0</ele>
<speed>3.4</speed>
<course>270.0</course>
<desc>Speed 3.4 km/h Distance 6.30 km</desc>
<time>2010-03-14T11:49:30.52</time>
<name>5022</name>
</trkpt>
<trkpt lat="48.935585" lon="8.672403">
<ele>364.5</ele>
<speed>2.6</speed>
<course>293.6</course>
<desc>Speed 2.6 km/h Distance 6.30 km</desc>
<time>2010-03-14T11:49:31.36</time>
<name>5023</name>
</trkpt>
<trkpt lat="48.935588" lon="8.672392">
<ele>364.5</ele>
<speed>2.0</speed>
<course>270.0</course>
<desc>Speed 2.0 km/h Distance 6.30 km</desc>
<time>2010-03-14T11:49:32.36</time>
<name>5024</name>
</trkpt>
<trkpt lat="48.935588" lon="8.672387">
<ele>364.5</ele>
<speed>1.2</speed>
<course>18.1</course>
<desc>Speed 1.2 km/h Distance 6.30 km</desc>
<time>2010-03-14T11:49:33.36</time>
<name>5025</name>
</trkpt>
<trkpt lat="48.935602" lon="8.672393">
<ele>364.5</ele>
<speed>5.8</speed>
<course>259.6</course>
<desc>Speed 5.8 km/h Distance 6.30 km</desc>
<time>2010-03-14T11:49:34.36</time>
<name>5026</name>
</trkpt>
<trkpt lat="48.935590" lon="8.672297">
<ele>365.0</ele>
<speed>6.6</speed>
<course>247.7</course>
<desc>Speed 6.6 km/h Distance 6.31 km</desc>
<time>2010-03-14T11:49:36.38</time>
<name>5027</name>
</trkpt>
<trkpt lat="48.935578" lon="8.672253">
<ele>365.0</ele>
<speed>5.4</speed>
<course>255.8</course>
<desc>Speed 5.4 km/h Distance 6.31 km</desc>
<time>2010-03-14T11:49:37.38</time>
<name>5028</name>
</trkpt>
<trkpt lat="48.935572" lon="8.672213">
<ele>365.0</ele>
<speed>3.5</speed>
<course>273.2</course>
<desc>Speed 3.5 km/h Distance 6.32 km</desc>
<time>2010-03-14T11:49:38.38</time>
<name>5029</name>
</trkpt>
<trkpt lat="48.935575" lon="8.672122">
<ele>366.0</ele>
<speed>2.4</speed>
<course>274.5</course>
<desc>Speed 2.4 km/h Distance 6.32 km</desc>
<time>2010-03-14T11:49:40.41</time>
<name>5030</name>
</trkpt>
<trkpt lat="48.935578" lon="8.672057">
<ele>366.0</ele>
<speed>4.7</speed>
<course>354.4</course>
<desc>Speed 4.7 km/h Distance 6.33 km</desc>
<time>2010-03-14T11:49:42.39</time>
<name>5031</name>
</trkpt>
<trkpt lat="48.935602" lon="8.672053">
<ele>366.0</ele>
<speed>8.1</speed>
<course>302.3</course>
<desc>Speed 8.1 km/h Distance 6.33 km</desc>
<time>2010-03-14T11:49:43.39</time>
<name>5032</name>
</trkpt>
<trkpt lat="48.935610" lon="8.672033">
<ele>366.0</ele>
<speed>3.7</speed>
<course>323.0</course>
<desc>Speed 3.7 km/h Distance 6.33 km</desc>
<time>2010-03-14T11:49:44.39</time>
<name>5033</name>
</trkpt>
<trkpt lat="48.935622" lon="8.672020">
<ele>365.5</ele>
<speed>2.8</speed>
<course>357.2</course>
<desc>Speed 2.8 km/h Distance 6.33 km</desc>
<time>2010-03-14T11:49:45.39</time>
<name>5034</name>
</trkpt>
<trkpt lat="48.935685" lon="8.672015">
<ele>365.0</ele>
<speed>8.4</speed>
<course>290.8</course>
<desc>Speed 8.4 km/h Distance 6.34 km</desc>
<time>2010-03-14T11:49:47.39</time>
<name>5035</name>
</trkpt>
<trkpt lat="48.935692" lon="8.671988">
<ele>365.0</ele>
<speed>3.7</speed>
<course>345.8</course>
<desc>Speed 3.7 km/h Distance 6.34 km</desc>
<time>2010-03-14T11:49:48.39</time>
<name>5036</name>
</trkpt>
<trkpt lat="48.935713" lon="8.671980">
<ele>365.0</ele>
<speed>4.8</speed>
<course>326.7</course>
<desc>Speed 4.8 km/h Distance 6.35 km</desc>
<time>2010-03-14T11:49:49.39</time>
<name>5037</name>
</trkpt>
<trkpt lat="48.935732" lon="8.671962">
<ele>364.5</ele>
<speed>5.9</speed>
<course>314.4</course>
<desc>Speed 5.9 km/h Distance 6.35 km</desc>
<time>2010-03-14T11:49:50.39</time>
<name>5038</name>
</trkpt>
<trkpt lat="48.935747" lon="8.671938">
<ele>364.5</ele>
<speed>5.0</speed>
<course>326.7</course>
<desc>Speed 5.0 km/h Distance 6.35 km</desc>
<time>2010-03-14T11:49:51.39</time>
<name>5039</name>
</trkpt>
<trkpt lat="48.935763" lon="8.671922">
<ele>364.5</ele>
<speed>5.7</speed>
<course>301.3</course>
<desc>Speed 5.7 km/h Distance 6.35 km</desc>
<time>2010-03-14T11:49:52.39</time>
<name>5040</name>
</trkpt>
<trkpt lat="48.935773" lon="8.671897">
<ele>364.0</ele>
<speed>3.7</speed>
<course>305.6</course>
<desc>Speed 3.7 km/h Distance 6.36 km</desc>
<time>2010-03-14T11:49:53.39</time>
<name>5041</name>
</trkpt>
<trkpt lat="48.935787" lon="8.671868">
<ele>364.5</ele>
<speed>5.0</speed>
<course>346.1</course>
<desc>Speed 5.0 km/h Distance 6.36 km</desc>
<time>2010-03-14T11:49:54.39</time>
<name>5042</name>
</trkpt>
<trkpt lat="48.935813" lon="8.671858">
<ele>364.5</ele>
<speed>5.8</speed>
<course>336.3</course>
<desc>Speed 5.8 km/h Distance 6.36 km</desc>
<time>2010-03-14T11:49:55.39</time>
<name>5043</name>
</trkpt>
<trkpt lat="48.935838" lon="8.671842">
<ele>364.5</ele>
<speed>5.4</speed>
<course>330.3</course>
<desc>Speed 5.4 km/h Distance 6.36 km</desc>
<time>2010-03-14T11:49:56.39</time>
<name>5044</name>
</trkpt>
<trkpt lat="48.935863" lon="8.671820">
<ele>364.5</ele>
<speed>5.4</speed>
<course>347.4</course>
<desc>Speed 5.4 km/h Distance 6.37 km</desc>
<time>2010-03-14T11:49:57.39</time>
<name>5045</name>
</trkpt>
<trkpt lat="48.935888" lon="8.671812">
<ele>364.5</ele>
<speed>5.9</speed>
<course>343.0</course>
<desc>Speed 5.9 km/h Distance 6.37 km</desc>
<time>2010-03-14T11:49:58.39</time>
<name>5046</name>
</trkpt>
<trkpt lat="48.935913" lon="8.671800">
<ele>364.5</ele>
<speed>6.0</speed>
<course>322.1</course>
<desc>Speed 6.0 km/h Distance 6.37 km</desc>
<time>2010-03-14T11:49:59.39</time>
<name>5047</name>
</trkpt>
<trkpt lat="48.935932" lon="8.671778">
<ele>364.5</ele>
<speed>5.5</speed>
<course>329.7</course>
<desc>Speed 5.5 km/h Distance 6.38 km</desc>
<time>2010-03-14T11:50:00.39</time>
<name>5048</name>
</trkpt>
<trkpt lat="48.935947" lon="8.671765">
<ele>364.5</ele>
<speed>5.9</speed>
<course>311.6</course>
<desc>Speed 5.9 km/h Distance 6.38 km</desc>
<time>2010-03-14T11:50:01.39</time>
<name>5049</name>
</trkpt>
<trkpt lat="48.935958" lon="8.671745">
<ele>365.0</ele>
<speed>5.3</speed>
<course>303.7</course>
<desc>Speed 5.3 km/h Distance 6.38 km</desc>
<time>2010-03-14T11:50:02.39</time>
<name>5050</name>
</trkpt>
<trkpt lat="48.935970" lon="8.671718">
<ele>365.0</ele>
<speed>5.4</speed>
<course>299.3</course>
<desc>Speed 5.4 km/h Distance 6.38 km</desc>
<time>2010-03-14T11:50:03.39</time>
<name>5051</name>
</trkpt>
<trkpt lat="48.935982" lon="8.671687">
<ele>365.0</ele>
<speed>5.8</speed>
<course>298.5</course>
<desc>Speed 5.8 km/h Distance 6.38 km</desc>
<time>2010-03-14T11:50:04.39</time>
<name>5052</name>
</trkpt>
<trkpt lat="48.935990" lon="8.671663">
<ele>365.5</ele>
<speed>5.1</speed>
<course>296.9</course>
<desc>Speed 5.1 km/h Distance 6.39 km</desc>
<time>2010-03-14T11:50:05.39</time>
<name>5053</name>
</trkpt>
<trkpt lat="48.935998" lon="8.671638">
<ele>366.0</ele>
<speed>5.3</speed>
<course>307.2</course>
<desc>Speed 5.3 km/h Distance 6.39 km</desc>
<time>2010-03-14T11:50:06.39</time>
<name>5054</name>
</trkpt>
<trkpt lat="48.936010" lon="8.671615">
<ele>366.5</ele>
<speed>5.4</speed>
<course>318.0</course>
<desc>Speed 5.4 km/h Distance 6.39 km</desc>
<time>2010-03-14T11:50:07.39</time>
<name>5055</name>
</trkpt>
<trkpt lat="48.936023" lon="8.671597">
<ele>366.5</ele>
<speed>4.9</speed>
<course>335.3</course>
<desc>Speed 4.9 km/h Distance 6.39 km</desc>
<time>2010-03-14T11:50:08.39</time>
<name>5056</name>
</trkpt>
<trkpt lat="48.936040" lon="8.671585">
<ele>366.0</ele>
<speed>5.2</speed>
<course>341.9</course>
<desc>Speed 5.2 km/h Distance 6.39 km</desc>
<time>2010-03-14T11:50:09.39</time>
<name>5057</name>
</trkpt>
<trkpt lat="48.936053" lon="8.671578">
<ele>366.0</ele>
<speed>4.2</speed>
<course>340.3</course>
<desc>Speed 4.2 km/h Distance 6.40 km</desc>
<time>2010-03-14T11:50:10.39</time>
<name>5058</name>
</trkpt>
<trkpt lat="48.936072" lon="8.671568">
<ele>366.0</ele>
<speed>5.3</speed>
<course>340.3</course>
<desc>Speed 5.3 km/h Distance 6.40 km</desc>
<time>2010-03-14T11:50:11.39</time>
<name>5059</name>
</trkpt>
<trkpt lat="48.936090" lon="8.671558">
<ele>366.0</ele>
<speed>5.1</speed>
<course>334.5</course>
<desc>Speed 5.1 km/h Distance 6.40 km</desc>
<time>2010-03-14T11:50:12.39</time>
<name>5060</name>
</trkpt>
<trkpt lat="48.936108" lon="8.671545">
<ele>366.0</ele>
<speed>4.5</speed>
<course>342.0</course>
<desc>Speed 4.5 km/h Distance 6.40 km</desc>
<time>2010-03-14T11:50:13.39</time>
<name>5061</name>
</trkpt>
<trkpt lat="48.936128" lon="8.671535">
<ele>366.0</ele>
<speed>4.7</speed>
<course>326.6</course>
<desc>Speed 4.7 km/h Distance 6.41 km</desc>
<time>2010-03-14T11:50:14.39</time>
<name>5062</name>
</trkpt>
<trkpt lat="48.936142" lon="8.671522">
<ele>366.0</ele>
<speed>4.8</speed>
<course>334.0</course>
<desc>Speed 4.8 km/h Distance 6.41 km</desc>
<time>2010-03-14T11:50:15.39</time>
<name>5063</name>
</trkpt>
<trkpt lat="48.936155" lon="8.671512">
<ele>366.0</ele>
<speed>4.9</speed>
<course>316.7</course>
<desc>Speed 4.9 km/h Distance 6.41 km</desc>
<time>2010-03-14T11:50:16.39</time>
<name>5064</name>
</trkpt>
<trkpt lat="48.936167" lon="8.671495">
<ele>366.0</ele>
<speed>4.3</speed>
<course>323.8</course>
<desc>Speed 4.3 km/h Distance 6.41 km</desc>
<time>2010-03-14T11:50:17.39</time>
<name>5065</name>
</trkpt>
<trkpt lat="48.936182" lon="8.671478">
<ele>366.5</ele>
<speed>5.7</speed>
<course>299.7</course>
<desc>Speed 5.7 km/h Distance 6.41 km</desc>
<time>2010-03-14T11:50:18.39</time>
<name>5066</name>
</trkpt>
<trkpt lat="48.936192" lon="8.671452">
<ele>366.5</ele>
<speed>4.6</speed>
<course>309.1</course>
<desc>Speed 4.6 km/h Distance 6.41 km</desc>
<time>2010-03-14T11:50:19.39</time>
<name>5067</name>
</trkpt>
<trkpt lat="48.936205" lon="8.671427">
<ele>366.5</ele>
<speed>5.4</speed>
<course>323.4</course>
<desc>Speed 5.4 km/h Distance 6.42 km</desc>
<time>2010-03-14T11:50:20.39</time>
<name>5068</name>
</trkpt>
<trkpt lat="48.936218" lon="8.671412">
<ele>366.5</ele>
<speed>5.2</speed>
<course>313.1</course>
<desc>Speed 5.2 km/h Distance 6.42 km</desc>
<time>2010-03-14T11:50:21.39</time>
<name>5069</name>
</trkpt>
<trkpt lat="48.936232" lon="8.671390">
<ele>366.5</ele>
<speed>5.1</speed>
<course>326.7</course>
<desc>Speed 5.1 km/h Distance 6.42 km</desc>
<time>2010-03-14T11:50:22.39</time>
<name>5070</name>
</trkpt>
<trkpt lat="48.936248" lon="8.671373">
<ele>366.5</ele>
<speed>5.2</speed>
<course>323.1</course>
<desc>Speed 5.2 km/h Distance 6.42 km</desc>
<time>2010-03-14T11:50:23.39</time>
<name>5071</name>
</trkpt>
<trkpt lat="48.936260" lon="8.671360">
<ele>366.5</ele>
<speed>4.8</speed>
<course>326.8</course>
<desc>Speed 4.8 km/h Distance 6.42 km</desc>
<time>2010-03-14T11:50:24.39</time>
<name>5072</name>
</trkpt>
<trkpt lat="48.936270" lon="8.671350">
<ele>366.5</ele>
<speed>4.6</speed>
<course>312.4</course>
<desc>Speed 4.6 km/h Distance 6.43 km</desc>
<time>2010-03-14T11:50:25.39</time>
<name>5073</name>
</trkpt>
<trkpt lat="48.936280" lon="8.671333">
<ele>366.5</ele>
<speed>5.2</speed>
<course>334.8</course>
<desc>Speed 5.2 km/h Distance 6.43 km</desc>
<time>2010-03-14T11:50:26.39</time>
<name>5074</name>
</trkpt>
<trkpt lat="48.936292" lon="8.671325">
<ele>367.0</ele>
<speed>5.1</speed>
<course>339.1</course>
<desc>Speed 5.1 km/h Distance 6.43 km</desc>
<time>2010-03-14T11:50:27.39</time>
<name>5075</name>
</trkpt>
<trkpt lat="48.936303" lon="8.671318">
<ele>367.0</ele>
<speed>5.0</speed>
<course>337.9</course>
<desc>Speed 5.0 km/h Distance 6.43 km</desc>
<time>2010-03-14T11:50:28.39</time>
<name>5076</name>
</trkpt>
<trkpt lat="48.936317" lon="8.671310">
<ele>367.0</ele>
<speed>4.5</speed>
<course>319.8</course>
<desc>Speed 4.5 km/h Distance 6.43 km</desc>
<time>2010-03-14T11:50:29.39</time>
<name>5077</name>
</trkpt>
<trkpt lat="48.936328" lon="8.671295">
<ele>367.0</ele>
<speed>4.4</speed>
<course>331.4</course>
<desc>Speed 4.4 km/h Distance 6.43 km</desc>
<time>2010-03-14T11:50:30.39</time>
<name>5078</name>
</trkpt>
<trkpt lat="48.936338" lon="8.671287">
<ele>367.0</ele>
<speed>4.5</speed>
<course>318.8</course>
<desc>Speed 4.5 km/h Distance 6.44 km</desc>
<time>2010-03-14T11:50:31.39</time>
<name>5079</name>
</trkpt>
<trkpt lat="48.936353" lon="8.671267">
<ele>367.0</ele>
<speed>4.8</speed>
<course>336.3</course>
<desc>Speed 4.8 km/h Distance 6.44 km</desc>
<time>2010-03-14T11:50:32.39</time>
<name>5080</name>
</trkpt>
<trkpt lat="48.936368" lon="8.671257">
<ele>367.0</ele>
<speed>4.6</speed>
<course>333.6</course>
<desc>Speed 4.6 km/h Distance 6.44 km</desc>
<time>2010-03-14T11:50:33.39</time>
<name>5081</name>
</trkpt>
<trkpt lat="48.936382" lon="8.671247">
<ele>367.0</ele>
<speed>3.9</speed>
<course>346.5</course>
<desc>Speed 3.9 km/h Distance 6.44 km</desc>
<time>2010-03-14T11:50:34.39</time>
<name>5082</name>
</trkpt>
<trkpt lat="48.936395" lon="8.671242">
<ele>367.5</ele>
<speed>4.2</speed>
<course>334.8</course>
<desc>Speed 4.2 km/h Distance 6.44 km</desc>
<time>2010-03-14T11:50:35.39</time>
<name>5083</name>
</trkpt>
<trkpt lat="48.936407" lon="8.671233">
<ele>367.5</ele>
<speed>3.2</speed>
<course>8.1</course>
<desc>Speed 3.2 km/h Distance 6.44 km</desc>
<time>2010-03-14T11:50:36.39</time>
<name>5084</name>
</trkpt>
<trkpt lat="48.936417" lon="8.671235">
<ele>367.5</ele>
<speed>4.1</speed>
<course>351.2</course>
<desc>Speed 4.1 km/h Distance 6.45 km</desc>
<time>2010-03-14T11:50:37.39</time>
<name>5085</name>
</trkpt>
<trkpt lat="48.936432" lon="8.671232">
<ele>367.5</ele>
<speed>5.9</speed>
<course>354.1</course>
<desc>Speed 5.9 km/h Distance 6.45 km</desc>
<time>2010-03-14T11:50:38.39</time>
<name>5086</name>
</trkpt>
<trkpt lat="48.936453" lon="8.671228">
<ele>367.0</ele>
<speed>7.3</speed>
<course>345.4</course>
<desc>Speed 7.3 km/h Distance 6.45 km</desc>
<time>2010-03-14T11:50:39.39</time>
<name>5087</name>
</trkpt>
<trkpt lat="48.936470" lon="8.671222">
<ele>367.0</ele>
<speed>6.1</speed>
<course>332.3</course>
<desc>Speed 6.1 km/h Distance 6.45 km</desc>
<time>2010-03-14T11:50:40.39</time>
<name>5088</name>
</trkpt>
<trkpt lat="48.936487" lon="8.671208">
<ele>367.0</ele>
<speed>5.7</speed>
<course>329.3</course>
<desc>Speed 5.7 km/h Distance 6.45 km</desc>
<time>2010-03-14T11:50:41.39</time>
<name>5089</name>
</trkpt>
<trkpt lat="48.936503" lon="8.671193">
<ele>366.5</ele>
<speed>5.6</speed>
<course>326.8</course>
<desc>Speed 5.6 km/h Distance 6.46 km</desc>
<time>2010-03-14T11:50:42.39</time>
<name>5090</name>
</trkpt>
<trkpt lat="48.936512" lon="8.671185">
<ele>367.0</ele>
<speed>4.4</speed>
<course>321.2</course>
<desc>Speed 4.4 km/h Distance 6.46 km</desc>
<time>2010-03-14T11:50:43.39</time>
<name>5091</name>
</trkpt>
<trkpt lat="48.936527" lon="8.671167">
<ele>367.0</ele>
<speed>5.7</speed>
<course>315.5</course>
<desc>Speed 5.7 km/h Distance 6.46 km</desc>
<time>2010-03-14T11:50:44.39</time>
<name>5092</name>
</trkpt>
<trkpt lat="48.936537" lon="8.671152">
<ele>367.0</ele>
<speed>4.8</speed>
<course>336.3</course>
<desc>Speed 4.8 km/h Distance 6.46 km</desc>
<time>2010-03-14T11:50:45.39</time>
<name>5093</name>
</trkpt>
<trkpt lat="48.936552" lon="8.671142">
<ele>367.0</ele>
<speed>5.7</speed>
<course>335.3</course>
<desc>Speed 5.7 km/h Distance 6.46 km</desc>
<time>2010-03-14T11:50:46.39</time>
<name>5094</name>
</trkpt>
<trkpt lat="48.936568" lon="8.671130">
<ele>367.0</ele>
<speed>5.9</speed>
<course>319.7</course>
<desc>Speed 5.9 km/h Distance 6.46 km</desc>
<time>2010-03-14T11:50:47.39</time>
<name>5095</name>
</trkpt>
<trkpt lat="48.936580" lon="8.671115">
<ele>367.0</ele>
<speed>4.6</speed>
<course>330.8</course>
<desc>Speed 4.6 km/h Distance 6.47 km</desc>
<time>2010-03-14T11:50:48.39</time>
<name>5096</name>
</trkpt>
<trkpt lat="48.936592" lon="8.671105">
<ele>366.5</ele>
<speed>4.6</speed>
<course>330.2</course>
<desc>Speed 4.6 km/h Distance 6.47 km</desc>
<time>2010-03-14T11:50:49.39</time>
<name>5097</name>
</trkpt>
<trkpt lat="48.936605" lon="8.671093">
<ele>366.5</ele>
<speed>4.5</speed>
<course>326.6</course>
<desc>Speed 4.5 km/h Distance 6.47 km</desc>
<time>2010-03-14T11:50:50.39</time>
<name>5098</name>
</trkpt>
<trkpt lat="48.936618" lon="8.671080">
<ele>366.5</ele>
<speed>4.7</speed>
<course>343.2</course>
<desc>Speed 4.7 km/h Distance 6.47 km</desc>
<time>2010-03-14T11:50:51.39</time>
<name>5099</name>
</trkpt>
<trkpt lat="48.936637" lon="8.671072">
<ele>366.0</ele>
<speed>5.1</speed>
<course>351.6</course>
<desc>Speed 5.1 km/h Distance 6.47 km</desc>
<time>2010-03-14T11:50:52.39</time>
<name>5100</name>
</trkpt>
<trkpt lat="48.936658" lon="8.671067">
<ele>366.0</ele>
<speed>6.6</speed>
<course>347.7</course>
<desc>Speed 6.6 km/h Distance 6.48 km</desc>
<time>2010-03-14T11:50:53.39</time>
<name>5101</name>
</trkpt>
<trkpt lat="48.936678" lon="8.671060">
<ele>366.0</ele>
<speed>6.2</speed>
<course>346.4</course>
<desc>Speed 6.2 km/h Distance 6.48 km</desc>
<time>2010-03-14T11:50:54.39</time>
<name>5102</name>
</trkpt>
<trkpt lat="48.936697" lon="8.671053">
<ele>366.0</ele>
<speed>6.4</speed>
<course>338.5</course>
<desc>Speed 6.4 km/h Distance 6.48 km</desc>
<time>2010-03-14T11:50:55.39</time>
<name>5103</name>
</trkpt>
<trkpt lat="48.936713" lon="8.671043">
<ele>365.5</ele>
<speed>5.9</speed>
<course>341.9</course>
<desc>Speed 5.9 km/h Distance 6.48 km</desc>
<time>2010-03-14T11:50:56.39</time>
<name>5104</name>
</trkpt>
<trkpt lat="48.936727" lon="8.671037">
<ele>365.5</ele>
<speed>6.2</speed>
<course>334.0</course>
<desc>Speed 6.2 km/h Distance 6.48 km</desc>
<time>2010-03-14T11:50:57.39</time>
<name>5105</name>
</trkpt>
<trkpt lat="48.936740" lon="8.671027">
<ele>365.5</ele>
<speed>6.3</speed>
<course>323.1</course>
<desc>Speed 6.3 km/h Distance 6.48 km</desc>
<time>2010-03-14T11:50:58.39</time>
<name>5106</name>
</trkpt>
<trkpt lat="48.936752" lon="8.671013">
<ele>366.0</ele>
<speed>5.7</speed>
<course>352.5</course>
<desc>Speed 5.7 km/h Distance 6.49 km</desc>
<time>2010-03-14T11:50:59.39</time>
<name>5107</name>
</trkpt>
<trkpt lat="48.936767" lon="8.671010">
<ele>366.0</ele>
<speed>5.8</speed>
<course>286.9</course>
<desc>Speed 5.8 km/h Distance 6.49 km</desc>
<time>2010-03-14T11:51:00.39</time>
<name>5108</name>
</trkpt>
<trkpt lat="48.936770" lon="8.670993">
<ele>366.0</ele>
<speed>4.9</speed>
<course>334.8</course>
<desc>Speed 4.9 km/h Distance 6.49 km</desc>
<time>2010-03-14T11:51:01.39</time>
<name>5109</name>
</trkpt>
<trkpt lat="48.936782" lon="8.670985">
<ele>366.0</ele>
<speed>4.8</speed>
<course>336.3</course>
<desc>Speed 4.8 km/h Distance 6.49 km</desc>
<time>2010-03-14T11:51:02.39</time>
<name>5110</name>
</trkpt>
<trkpt lat="48.936797" lon="8.670975">
<ele>366.0</ele>
<speed>5.9</speed>
<course>343.4</course>
<desc>Speed 5.9 km/h Distance 6.49 km</desc>
<time>2010-03-14T11:51:03.39</time>
<name>5111</name>
</trkpt>
<trkpt lat="48.936812" lon="8.670968">
<ele>366.0</ele>
<speed>6.1</speed>
<course>310.1</course>
<desc>Speed 6.1 km/h Distance 6.49 km</desc>
<time>2010-03-14T11:51:04.39</time>
<name>5112</name>
</trkpt>
<trkpt lat="48.936820" lon="8.670953">
<ele>366.0</ele>
<speed>4.9</speed>
<course>299.0</course>
<desc>Speed 4.9 km/h Distance 6.50 km</desc>
<time>2010-03-14T11:51:05.39</time>
<name>5113</name>
</trkpt>
<trkpt lat="48.936827" lon="8.670935">
<ele>366.0</ele>
<speed>5.2</speed>
<course>346.0</course>
<desc>Speed 5.2 km/h Distance 6.50 km</desc>
<time>2010-03-14T11:51:06.39</time>
<name>5114</name>
</trkpt>
<trkpt lat="48.936840" lon="8.670930">
<ele>366.0</ele>
<speed>5.2</speed>
<course>343.4</course>
<desc>Speed 5.2 km/h Distance 6.50 km</desc>
<time>2010-03-14T11:51:07.39</time>
<name>5115</name>
</trkpt>
<trkpt lat="48.936855" lon="8.670923">
<ele>366.0</ele>
<speed>5.0</speed>
<course>341.6</course>
<desc>Speed 5.0 km/h Distance 6.50 km</desc>
<time>2010-03-14T11:51:08.39</time>
<name>5116</name>
</trkpt>
<trkpt lat="48.936868" lon="8.670917">
<ele>366.0</ele>
<speed>5.3</speed>
<course>332.1</course>
<desc>Speed 5.3 km/h Distance 6.50 km</desc>
<time>2010-03-14T11:51:09.39</time>
<name>5117</name>
</trkpt>
<trkpt lat="48.936877" lon="8.670910">
<ele>366.0</ele>
<speed>4.2</speed>
<course>339.1</course>
<desc>Speed 4.2 km/h Distance 6.50 km</desc>
<time>2010-03-14T11:51:10.39</time>
<name>5118</name>
</trkpt>
<trkpt lat="48.936888" lon="8.670903">
<ele>366.0</ele>
<speed>3.8</speed>
<course>325.9</course>
<desc>Speed 3.8 km/h Distance 6.50 km</desc>
<time>2010-03-14T11:51:11.39</time>
<name>5119</name>
</trkpt>
<trkpt lat="48.936893" lon="8.670898">
<ele>366.0</ele>
<speed>2.7</speed>
<course>270.0</course>
<desc>Speed 2.7 km/h Distance 6.51 km</desc>
<time>2010-03-14T11:51:12.39</time>
<name>5120</name>
</trkpt>
<trkpt lat="48.936893" lon="8.670895">
<ele>366.0</ele>
<speed>0.6</speed>
<course>347.4</course>
<desc>Speed 0.6 km/h Distance 6.51 km</desc>
<time>2010-03-14T11:51:13.39</time>
<name>5121</name>
</trkpt>
<trkpt lat="48.936895" lon="8.670893">
<ele>366.0</ele>
<speed>0.1</speed>
<course>307.3</course>
<desc>Speed 0.1 km/h Distance 6.51 km</desc>
<time>2010-03-14T11:51:14.39</time>
<name>5122</name>
</trkpt>
<trkpt lat="48.936903" lon="8.670877">
<ele>365.5</ele>
<speed>2.5</speed>
<course>307.3</course>
<desc>Speed 2.5 km/h Distance 6.51 km</desc>
<time>2010-03-14T11:51:15.90</time>
<name>5123</name>
</trkpt>
<trkpt lat="48.936903" lon="8.670877">
<ele>365.5</ele>
<speed>2.5</speed>
<course>323.1</course>
<desc>Speed 2.5 km/h Distance 6.51 km</desc>
<time>2010-03-14T11:51:16.39</time>
<name>5124</name>
</trkpt>
<trkpt lat="48.936915" lon="8.670863">
<ele>365.5</ele>
<speed>4.4</speed>
<course>309.7</course>
<desc>Speed 4.4 km/h Distance 6.51 km</desc>
<time>2010-03-14T11:51:17.39</time>
<name>5125</name>
</trkpt>
<trkpt lat="48.936925" lon="8.670845">
<ele>365.5</ele>
<speed>4.0</speed>
<course>323.5</course>
<desc>Speed 4.0 km/h Distance 6.51 km</desc>
<time>2010-03-14T11:51:18.39</time>
<name>5126</name>
</trkpt>
<trkpt lat="48.936938" lon="8.670830">
<ele>365.0</ele>
<speed>4.7</speed>
<course>326.9</course>
<desc>Speed 4.7 km/h Distance 6.51 km</desc>
<time>2010-03-14T11:51:19.39</time>
<name>5127</name>
</trkpt>
<trkpt lat="48.936950" lon="8.670818">
<ele>364.5</ele>
<speed>4.4</speed>
<course>319.8</course>
<desc>Speed 4.4 km/h Distance 6.51 km</desc>
<time>2010-03-14T11:51:20.39</time>
<name>5128</name>
</trkpt>
<trkpt lat="48.936962" lon="8.670803">
<ele>363.5</ele>
<speed>4.4</speed>
<course>341.8</course>
<desc>Speed 4.4 km/h Distance 6.52 km</desc>
<time>2010-03-14T11:51:21.39</time>
<name>5129</name>
</trkpt>
<trkpt lat="48.936972" lon="8.670798">
<ele>364.5</ele>
<speed>4.0</speed>
<course>307.6</course>
<desc>Speed 4.0 km/h Distance 6.52 km</desc>
<time>2010-03-14T11:51:22.39</time>
<name>5130</name>
</trkpt>
<trkpt lat="48.936977" lon="8.670788">
<ele>364.5</ele>
<speed>2.1</speed>
<course>352.8</course>
<desc>Speed 2.1 km/h Distance 6.52 km</desc>
<time>2010-03-14T11:51:23.39</time>
<name>5131</name>
</trkpt>
<trkpt lat="48.937002" lon="8.670783">
<ele>364.0</ele>
<speed>4.1</speed>
<course>346.5</course>
<desc>Speed 4.1 km/h Distance 6.52 km</desc>
<time>2010-03-14T11:51:24.90</time>
<name>5132</name>
</trkpt>
<trkpt lat="48.937015" lon="8.670778">
<ele>362.5</ele>
<speed>5.3</speed>
<course>355.6</course>
<desc>Speed 5.3 km/h Distance 6.52 km</desc>
<time>2010-03-14T11:51:26.39</time>
<name>5133</name>
</trkpt>
<trkpt lat="48.937025" lon="8.670777">
<ele>362.0</ele>
<speed>4.0</speed>
<course>325.1</course>
<desc>Speed 4.0 km/h Distance 6.52 km</desc>
<time>2010-03-14T11:51:27.39</time>
<name>5134</name>
</trkpt>
<trkpt lat="48.937052" lon="8.670748">
<ele>359.5</ele>
<speed>4.8</speed>
<course>316.7</course>
<desc>Speed 4.8 km/h Distance 6.53 km</desc>
<time>2010-03-14T11:51:28.89</time>
<name>5135</name>
</trkpt>
<trkpt lat="48.937063" lon="8.670732">
<ele>358.0</ele>
<speed>4.5</speed>
<course>307.3</course>
<desc>Speed 4.5 km/h Distance 6.53 km</desc>
<time>2010-03-14T11:51:29.90</time>
<name>5136</name>
</trkpt>
<trkpt lat="48.937085" lon="8.670688">
<ele>357.5</ele>
<speed>3.7</speed>
<course>290.8</course>
<desc>Speed 3.7 km/h Distance 6.53 km</desc>
<time>2010-03-14T11:51:31.89</time>
<name>5137</name>
</trkpt>
<trkpt lat="48.937092" lon="8.670662">
<ele>357.0</ele>
<speed>3.9</speed>
<course>289.0</course>
<desc>Speed 3.9 km/h Distance 6.53 km</desc>
<time>2010-03-14T11:51:33.39</time>
<name>5138</name>
</trkpt>
<trkpt lat="48.937103" lon="8.670610">
<ele>356.0</ele>
<speed>3.7</speed>
<course>322.5</course>
<desc>Speed 3.7 km/h Distance 6.54 km</desc>
<time>2010-03-14T11:51:34.89</time>
<name>5139</name>
</trkpt>
<trkpt lat="48.937113" lon="8.670598">
<ele>355.0</ele>
<speed>3.8</speed>
<course>310.3</course>
<desc>Speed 3.8 km/h Distance 6.54 km</desc>
<time>2010-03-14T11:51:35.89</time>
<name>5140</name>
</trkpt>
<trkpt lat="48.937122" lon="8.670583">
<ele>353.5</ele>
<speed>3.8</speed>
<course>323.1</course>
<desc>Speed 3.8 km/h Distance 6.54 km</desc>
<time>2010-03-14T11:51:36.89</time>
<name>5141</name>
</trkpt>
<trkpt lat="48.937133" lon="8.670570">
<ele>353.0</ele>
<speed>4.7</speed>
<course>316.7</course>
<desc>Speed 4.7 km/h Distance 6.54 km</desc>
<time>2010-03-14T11:51:37.89</time>
<name>5142</name>
</trkpt>
<trkpt lat="48.937145" lon="8.670553">
<ele>352.5</ele>
<speed>4.4</speed>
<course>326.8</course>
<desc>Speed 4.4 km/h Distance 6.55 km</desc>
<time>2010-03-14T11:51:38.89</time>
<name>5143</name>
</trkpt>
<trkpt lat="48.937155" lon="8.670543">
<ele>352.0</ele>
<speed>3.9</speed>
<course>310.9</course>
<desc>Speed 3.9 km/h Distance 6.55 km</desc>
<time>2010-03-14T11:51:39.88</time>
<name>5144</name>
</trkpt>
<trkpt lat="48.937162" lon="8.670532">
<ele>351.5</ele>
<speed>2.8</speed>
<course>315.5</course>
<desc>Speed 2.8 km/h Distance 6.55 km</desc>
<time>2010-03-14T11:51:40.88</time>
<name>5145</name>
</trkpt>
<trkpt lat="48.937168" lon="8.670522">
<ele>351.0</ele>
<speed>2.9</speed>
<course>294.6</course>
<desc>Speed 2.9 km/h Distance 6.55 km</desc>
<time>2010-03-14T11:51:41.88</time>
<name>5146</name>
</trkpt>
<trkpt lat="48.937173" lon="8.670505">
<ele>350.5</ele>
<speed>2.7</speed>
<course>307.3</course>
<desc>Speed 2.7 km/h Distance 6.55 km</desc>
<time>2010-03-14T11:51:42.89</time>
<name>5147</name>
</trkpt>
<trkpt lat="48.937182" lon="8.670488">
<ele>349.5</ele>
<speed>3.3</speed>
<course>316.8</course>
<desc>Speed 3.3 km/h Distance 6.55 km</desc>
<time>2010-03-14T11:51:43.88</time>
<name>5148</name>
</trkpt>
<trkpt lat="48.937193" lon="8.670472">
<ele>348.0</ele>
<speed>4.2</speed>
<course>339.8</course>
<desc>Speed 4.2 km/h Distance 6.55 km</desc>
<time>2010-03-14T11:51:44.88</time>
<name>5149</name>
</trkpt>
<trkpt lat="48.937205" lon="8.670465">
<ele>347.0</ele>
<speed>3.8</speed>
<course>338.4</course>
<desc>Speed 3.8 km/h Distance 6.55 km</desc>
<time>2010-03-14T11:51:45.89</time>
<name>5150</name>
</trkpt>
<trkpt lat="48.937222" lon="8.670455">
<ele>345.0</ele>
<speed>4.9</speed>
<course>336.3</course>
<desc>Speed 4.9 km/h Distance 6.56 km</desc>
<time>2010-03-14T11:51:46.89</time>
<name>5151</name>
</trkpt>
<trkpt lat="48.937237" lon="8.670445">
<ele>343.5</ele>
<speed>4.9</speed>
<course>348.4</course>
<desc>Speed 4.9 km/h Distance 6.56 km</desc>
<time>2010-03-14T11:51:47.89</time>
<name>5152</name>
</trkpt>
<trkpt lat="48.937247" lon="8.670442">
<ele>343.5</ele>
<speed>3.0</speed>
<course>349.6</course>
<desc>Speed 3.0 km/h Distance 6.56 km</desc>
<time>2010-03-14T11:51:48.88</time>
<name>5153</name>
</trkpt>
<trkpt lat="48.937258" lon="8.670438">
<ele>343.0</ele>
<speed>3.1</speed>
<course>351.9</course>
<desc>Speed 3.1 km/h Distance 6.56 km</desc>
<time>2010-03-14T11:51:49.89</time>
<name>5154</name>
</trkpt>
<trkpt lat="48.937273" lon="8.670435">
<ele>343.0</ele>
<speed>4.4</speed>
<course>339.4</course>
<desc>Speed 4.4 km/h Distance 6.56 km</desc>
<time>2010-03-14T11:51:50.88</time>
<name>5155</name>
</trkpt>
<trkpt lat="48.937285" lon="8.670428">
<ele>341.5</ele>
<speed>3.4</speed>
<course>337.7</course>
<desc>Speed 3.4 km/h Distance 6.56 km</desc>
<time>2010-03-14T11:51:51.89</time>
<name>5156</name>
</trkpt>
<trkpt lat="48.937298" lon="8.670420">
<ele>340.5</ele>
<speed>4.1</speed>
<course>326.6</course>
<desc>Speed 4.1 km/h Distance 6.57 km</desc>
<time>2010-03-14T11:51:52.89</time>
<name>5157</name>
</trkpt>
<trkpt lat="48.937312" lon="8.670407">
<ele>340.0</ele>
<speed>4.2</speed>
<course>334.0</course>
<desc>Speed 4.2 km/h Distance 6.57 km</desc>
<time>2010-03-14T11:51:53.88</time>
<name>5158</name>
</trkpt>
<trkpt lat="48.937325" lon="8.670397">
<ele>339.5</ele>
<speed>4.0</speed>
<course>339.8</course>
<desc>Speed 4.0 km/h Distance 6.57 km</desc>
<time>2010-03-14T11:51:54.88</time>
<name>5159</name>
</trkpt>
<trkpt lat="48.937337" lon="8.670390">
<ele>338.5</ele>
<speed>4.2</speed>
<course>339.4</course>
<desc>Speed 4.2 km/h Distance 6.57 km</desc>
<time>2010-03-14T11:51:55.90</time>
<name>5160</name>
</trkpt>
<trkpt lat="48.937348" lon="8.670383">
<ele>337.0</ele>
<speed>4.6</speed>
<course>334.8</course>
<desc>Speed 4.6 km/h Distance 6.57 km</desc>
<time>2010-03-14T11:51:56.88</time>
<name>5161</name>
</trkpt>
<trkpt lat="48.937360" lon="8.670375">
<ele>335.5</ele>
<speed>4.1</speed>
<course>337.4</course>
<desc>Speed 4.1 km/h Distance 6.57 km</desc>
<time>2010-03-14T11:51:57.88</time>
<name>5162</name>
</trkpt>
<trkpt lat="48.937373" lon="8.670367">
<ele>335.5</ele>
<speed>4.1</speed>
<course>312.4</course>
<desc>Speed 4.1 km/h Distance 6.57 km</desc>
<time>2010-03-14T11:51:58.88</time>
<name>5163</name>
</trkpt>
<trkpt lat="48.937383" lon="8.670350">
<ele>334.5</ele>
<speed>4.5</speed>
<course>309.7</course>
<desc>Speed 4.5 km/h Distance 6.58 km</desc>
<time>2010-03-14T11:51:59.88</time>
<name>5164</name>
</trkpt>
<trkpt lat="48.937393" lon="8.670332">
<ele>334.0</ele>
<speed>4.7</speed>
<course>301.3</course>
<desc>Speed 4.7 km/h Distance 6.58 km</desc>
<time>2010-03-14T11:52:00.88</time>
<name>5165</name>
</trkpt>
<trkpt lat="48.937403" lon="8.670307">
<ele>334.0</ele>
<speed>5.4</speed>
<course>334.8</course>
<desc>Speed 5.4 km/h Distance 6.58 km</desc>
<time>2010-03-14T11:52:01.88</time>
<name>5166</name>
</trkpt>
<trkpt lat="48.937415" lon="8.670298">
<ele>334.0</ele>
<speed>4.2</speed>
<course>307.3</course>
<desc>Speed 4.2 km/h Distance 6.58 km</desc>
<time>2010-03-14T11:52:02.88</time>
<name>5167</name>
</trkpt>
<trkpt lat="48.937423" lon="8.670282">
<ele>333.0</ele>
<speed>4.2</speed>
<course>337.9</course>
<desc>Speed 4.2 km/h Distance 6.58 km</desc>
<time>2010-03-14T11:52:03.88</time>
<name>5168</name>
</trkpt>
<trkpt lat="48.937437" lon="8.670273">
<ele>331.5</ele>
<speed>4.4</speed>
<course>334.8</course>
<desc>Speed 4.4 km/h Distance 6.58 km</desc>
<time>2010-03-14T11:52:04.88</time>
<name>5169</name>
</trkpt>
<trkpt lat="48.937448" lon="8.670265">
<ele>330.5</ele>
<speed>4.4</speed>
<course>346.5</course>
<desc>Speed 4.4 km/h Distance 6.59 km</desc>
<time>2010-03-14T11:52:05.88</time>
<name>5170</name>
</trkpt>
<trkpt lat="48.937462" lon="8.670260">
<ele>329.5</ele>
<speed>4.4</speed>
<course>336.2</course>
<desc>Speed 4.4 km/h Distance 6.59 km</desc>
<time>2010-03-14T11:52:06.88</time>
<name>5171</name>
</trkpt>
<trkpt lat="48.937472" lon="8.670253">
<ele>329.5</ele>
<speed>4.5</speed>
<course>352.6</course>
<desc>Speed 4.5 km/h Distance 6.59 km</desc>
<time>2010-03-14T11:52:07.88</time>
<name>5172</name>
</trkpt>
<trkpt lat="48.937478" lon="8.670252">
<ele>329.0</ele>
<speed>2.2</speed>
<course>299.0</course>
<desc>Speed 2.2 km/h Distance 6.59 km</desc>
<time>2010-03-14T11:52:08.88</time>
<name>5173</name>
</trkpt>
<trkpt lat="48.937485" lon="8.670233">
<ele>328.5</ele>
<speed>5.4</speed>
<course>276.2</course>
<desc>Speed 5.4 km/h Distance 6.59 km</desc>
<time>2010-03-14T11:52:09.87</time>
<name>5174</name>
</trkpt>
<trkpt lat="48.937487" lon="8.670210">
<ele>328.5</ele>
<speed>4.6</speed>
<course>345.1</course>
<desc>Speed 4.6 km/h Distance 6.59 km</desc>
<time>2010-03-14T11:52:10.87</time>
<name>5175</name>
</trkpt>
<trkpt lat="48.937498" lon="8.670205">
<ele>327.0</ele>
<speed>3.5</speed>
<course>341.6</course>
<desc>Speed 3.5 km/h Distance 6.59 km</desc>
<time>2010-03-14T11:52:11.87</time>
<name>5176</name>
</trkpt>
<trkpt lat="48.937512" lon="8.670198">
<ele>327.0</ele>
<speed>4.8</speed>
<course>337.9</course>
<desc>Speed 4.8 km/h Distance 6.60 km</desc>
<time>2010-03-14T11:52:12.88</time>
<name>5177</name>
</trkpt>
<trkpt lat="48.937525" lon="8.670190">
<ele>325.5</ele>
<speed>5.2</speed>
<course>334.8</course>
<desc>Speed 5.2 km/h Distance 6.60 km</desc>
<time>2010-03-14T11:52:13.87</time>
<name>5178</name>
</trkpt>
<trkpt lat="48.937537" lon="8.670182">
<ele>324.0</ele>
<speed>4.3</speed>
<course>319.8</course>
<desc>Speed 4.3 km/h Distance 6.60 km</desc>
<time>2010-03-14T11:52:14.87</time>
<name>5179</name>
</trkpt>
<trkpt lat="48.937548" lon="8.670167">
<ele>323.5</ele>
<speed>4.5</speed>
<course>313.5</course>
<desc>Speed 4.5 km/h Distance 6.60 km</desc>
<time>2010-03-14T11:52:15.87</time>
<name>5180</name>
</trkpt>
<trkpt lat="48.937557" lon="8.670153">
<ele>324.0</ele>
<speed>3.9</speed>
<course>279.6</course>
<desc>Speed 3.9 km/h Distance 6.60 km</desc>
<time>2010-03-14T11:52:16.87</time>
<name>5181</name>
</trkpt>
<trkpt lat="48.937558" lon="8.670138">
<ele>325.0</ele>
<speed>2.6</speed>
<course>347.4</course>
<desc>Speed 2.6 km/h Distance 6.60 km</desc>
<time>2010-03-14T11:52:17.87</time>
<name>5182</name>
</trkpt>
<trkpt lat="48.937568" lon="8.670135">
<ele>325.5</ele>
<speed>3.3</speed>
<course>326.5</course>
<desc>Speed 3.3 km/h Distance 6.60 km</desc>
<time>2010-03-14T11:52:18.87</time>
<name>5183</name>
</trkpt>
<trkpt lat="48.937577" lon="8.670127">
<ele>324.0</ele>
<speed>3.4</speed>
<course>337.4</course>
<desc>Speed 3.4 km/h Distance 6.61 km</desc>
<time>2010-03-14T11:52:19.87</time>
<name>5184</name>
</trkpt>
<trkpt lat="48.937590" lon="8.670118">
<ele>323.0</ele>
<speed>4.0</speed>
<course>307.3</course>
<desc>Speed 4.0 km/h Distance 6.61 km</desc>
<time>2010-03-14T11:52:20.87</time>
<name>5185</name>
</trkpt>
<trkpt lat="48.937600" lon="8.670098">
<ele>322.0</ele>
<speed>4.2</speed>
<course>299.7</course>
<desc>Speed 4.2 km/h Distance 6.61 km</desc>
<time>2010-03-14T11:52:21.87</time>
<name>5186</name>
</trkpt>
<trkpt lat="48.937605" lon="8.670085">
<ele>321.5</ele>
<speed>4.0</speed>
<course>278.6</course>
<desc>Speed 4.0 km/h Distance 6.61 km</desc>
<time>2010-03-14T11:52:22.87</time>
<name>5187</name>
</trkpt>
<trkpt lat="48.937607" lon="8.670068">
<ele>323.0</ele>
<speed>2.4</speed>
<course>276.2</course>
<desc>Speed 2.4 km/h Distance 6.61 km</desc>
<time>2010-03-14T11:52:23.86</time>
<name>5188</name>
</trkpt>
<trkpt lat="48.937608" lon="8.670045">
<ele>323.5</ele>
<speed>3.5</speed>
<course>270.0</course>
<desc>Speed 3.5 km/h Distance 6.61 km</desc>
<time>2010-03-14T11:52:24.86</time>
<name>5189</name>
</trkpt>
<trkpt lat="48.937608" lon="8.670015">
<ele>325.0</ele>
<speed>3.9</speed>
<course>326.6</course>
<desc>Speed 3.9 km/h Distance 6.62 km</desc>
<time>2010-03-14T11:52:25.86</time>
<name>5190</name>
</trkpt>
<trkpt lat="48.937618" lon="8.670005">
<ele>324.5</ele>
<speed>2.7</speed>
<course>317.4</course>
<desc>Speed 2.7 km/h Distance 6.62 km</desc>
<time>2010-03-14T11:52:26.87</time>
<name>5191</name>
</trkpt>
<trkpt lat="48.937627" lon="8.669993">
<ele>324.0</ele>
<speed>4.2</speed>
<course>323.1</course>
<desc>Speed 4.2 km/h Distance 6.62 km</desc>
<time>2010-03-14T11:52:27.87</time>
<name>5192</name>
</trkpt>
<trkpt lat="48.937638" lon="8.669980">
<ele>323.5</ele>
<speed>5.0</speed>
<course>302.4</course>
<desc>Speed 5.0 km/h Distance 6.62 km</desc>
<time>2010-03-14T11:52:28.87</time>
<name>5193</name>
</trkpt>
<trkpt lat="48.937647" lon="8.669960">
<ele>324.0</ele>
<speed>4.8</speed>
<course>298.5</course>
<desc>Speed 4.8 km/h Distance 6.62 km</desc>
<time>2010-03-14T11:52:29.87</time>
<name>5194</name>
</trkpt>
<trkpt lat="48.937655" lon="8.669937">
<ele>324.5</ele>
<speed>5.0</speed>
<course>289.7</course>
<desc>Speed 5.0 km/h Distance 6.62 km</desc>
<time>2010-03-14T11:52:30.87</time>
<name>5195</name>
</trkpt>
<trkpt lat="48.937662" lon="8.669908">
<ele>326.0</ele>
<speed>4.5</speed>
<course>262.8</course>
<desc>Speed 4.5 km/h Distance 6.63 km</desc>
<time>2010-03-14T11:52:31.86</time>
<name>5196</name>
</trkpt>
<trkpt lat="48.937660" lon="8.669888">
<ele>328.0</ele>
<speed>2.9</speed>
<course>307.2</course>
<desc>Speed 2.9 km/h Distance 6.63 km</desc>
<time>2010-03-14T11:52:32.86</time>
<name>5197</name>
</trkpt>
<trkpt lat="48.937673" lon="8.669862">
<ele>330.0</ele>
<speed>8.4</speed>
<course>299.0</course>
<desc>Speed 8.4 km/h Distance 6.63 km</desc>
<time>2010-03-14T11:52:33.86</time>
<name>5198</name>
</trkpt>
<trkpt lat="48.937680" lon="8.669843">
<ele>331.0</ele>
<speed>3.6</speed>
<course>326.8</course>
<desc>Speed 3.6 km/h Distance 6.63 km</desc>
<time>2010-03-14T11:52:34.86</time>
<name>5199</name>
</trkpt>
<trkpt lat="48.937690" lon="8.669833">
<ele>331.0</ele>
<speed>4.1</speed>
<course>311.3</course>
<desc>Speed 4.1 km/h Distance 6.63 km</desc>
<time>2010-03-14T11:52:35.87</time>
<name>5200</name>
</trkpt>
<trkpt lat="48.937697" lon="8.669822">
<ele>329.0</ele>
<speed>3.6</speed>
<course>296.9</course>
<desc>Speed 3.6 km/h Distance 6.63 km</desc>
<time>2010-03-14T11:52:36.87</time>
<name>5201</name>
</trkpt>
<trkpt lat="48.937702" lon="8.669807">
<ele>328.0</ele>
<speed>3.6</speed>
<course>301.3</course>
<desc>Speed 3.6 km/h Distance 6.63 km</desc>
<time>2010-03-14T11:52:37.87</time>
<name>5202</name>
</trkpt>
<trkpt lat="48.937708" lon="8.669790">
<ele>327.5</ele>
<speed>3.1</speed>
<course>293.5</course>
<desc>Speed 3.1 km/h Distance 6.64 km</desc>
<time>2010-03-14T11:52:38.87</time>
<name>5203</name>
</trkpt>
<trkpt lat="48.937715" lon="8.669767">
<ele>328.0</ele>
<speed>4.0</speed>
<course>334.0</course>
<desc>Speed 4.0 km/h Distance 6.64 km</desc>
<time>2010-03-14T11:52:39.87</time>
<name>5204</name>
</trkpt>
<trkpt lat="48.937728" lon="8.669757">
<ele>326.5</ele>
<speed>5.4</speed>
<course>344.0</course>
<desc>Speed 5.4 km/h Distance 6.64 km</desc>
<time>2010-03-14T11:52:40.87</time>
<name>5205</name>
</trkpt>
<trkpt lat="48.937740" lon="8.669752">
<ele>325.5</ele>
<speed>3.5</speed>
<course>339.4</course>
<desc>Speed 3.5 km/h Distance 6.64 km</desc>
<time>2010-03-14T11:52:41.87</time>
<name>5206</name>
</trkpt>
<trkpt lat="48.937752" lon="8.669745">
<ele>325.5</ele>
<speed>3.1</speed>
<course>326.8</course>
<desc>Speed 3.1 km/h Distance 6.64 km</desc>
<time>2010-03-14T11:52:42.87</time>
<name>5207</name>
</trkpt>
<trkpt lat="48.937760" lon="8.669737">
<ele>324.5</ele>
<speed>3.2</speed>
<course>326.8</course>
<desc>Speed 3.2 km/h Distance 6.64 km</desc>
<time>2010-03-14T11:52:43.87</time>
<name>5208</name>
</trkpt>
<trkpt lat="48.937770" lon="8.669727">
<ele>324.0</ele>
<speed>3.5</speed>
<course>334.8</course>
<desc>Speed 3.5 km/h Distance 6.64 km</desc>
<time>2010-03-14T11:52:44.87</time>
<name>5209</name>
</trkpt>
<trkpt lat="48.937782" lon="8.669718">
<ele>324.5</ele>
<speed>3.7</speed>
<course>337.4</course>
<desc>Speed 3.7 km/h Distance 6.65 km</desc>
<time>2010-03-14T11:52:45.86</time>
<name>5210</name>
</trkpt>
<trkpt lat="48.937795" lon="8.669710">
<ele>323.0</ele>
<speed>4.8</speed>
<course>330.0</course>
<desc>Speed 4.8 km/h Distance 6.65 km</desc>
<time>2010-03-14T11:52:46.86</time>
<name>5211</name>
</trkpt>
<trkpt lat="48.937808" lon="8.669698">
<ele>321.5</ele>
<speed>4.1</speed>
<course>312.4</course>
<desc>Speed 4.1 km/h Distance 6.65 km</desc>
<time>2010-03-14T11:52:47.87</time>
<name>5212</name>
</trkpt>
<trkpt lat="48.937818" lon="8.669682">
<ele>320.0</ele>
<speed>2.6</speed>
<course>304.1</course>
<desc>Speed 2.6 km/h Distance 6.65 km</desc>
<time>2010-03-14T11:52:48.86</time>
<name>5213</name>
</trkpt>
<trkpt lat="48.937825" lon="8.669667">
<ele>318.5</ele>
<speed>3.0</speed>
<course>338.5</course>
<desc>Speed 3.0 km/h Distance 6.65 km</desc>
<time>2010-03-14T11:52:49.86</time>
<name>5214</name>
</trkpt>
<trkpt lat="48.937842" lon="8.669657">
<ele>320.5</ele>
<speed>6.0</speed>
<course>338.5</course>
<desc>Speed 6.0 km/h Distance 6.65 km</desc>
<time>2010-03-14T11:52:50.86</time>
<name>5215</name>
</trkpt>
<trkpt lat="48.937858" lon="8.669647">
<ele>320.0</ele>
<speed>5.2</speed>
<course>337.3</course>
<desc>Speed 5.2 km/h Distance 6.66 km</desc>
<time>2010-03-14T11:52:51.86</time>
<name>5216</name>
</trkpt>
<trkpt lat="48.937877" lon="8.669635">
<ele>320.0</ele>
<speed>4.5</speed>
<course>319.8</course>
<desc>Speed 4.5 km/h Distance 6.66 km</desc>
<time>2010-03-14T11:52:52.86</time>
<name>5217</name>
</trkpt>
<trkpt lat="48.937888" lon="8.669620">
<ele>318.0</ele>
<speed>3.6</speed>
<course>315.4</course>
<desc>Speed 3.6 km/h Distance 6.66 km</desc>
<time>2010-03-14T11:52:53.86</time>
<name>5218</name>
</trkpt>
<trkpt lat="48.937902" lon="8.669600">
<ele>316.0</ele>
<speed>3.5</speed>
<course>307.3</course>
<desc>Speed 3.5 km/h Distance 6.66 km</desc>
<time>2010-03-14T11:52:54.86</time>
<name>5219</name>
</trkpt>
<trkpt lat="48.937913" lon="8.669577">
<ele>315.0</ele>
<speed>3.9</speed>
<course>303.1</course>
<desc>Speed 3.9 km/h Distance 6.66 km</desc>
<time>2010-03-14T11:52:55.85</time>
<name>5220</name>
</trkpt>
<trkpt lat="48.937923" lon="8.669553">
<ele>315.5</ele>
<speed>4.4</speed>
<course>329.6</course>
<desc>Speed 4.4 km/h Distance 6.67 km</desc>
<time>2010-03-14T11:52:56.85</time>
<name>5221</name>
</trkpt>
<trkpt lat="48.937938" lon="8.669540">
<ele>315.0</ele>
<speed>4.4</speed>
<course>343.4</course>
<desc>Speed 4.4 km/h Distance 6.67 km</desc>
<time>2010-03-14T11:52:57.85</time>
<name>5222</name>
</trkpt>
<trkpt lat="48.937953" lon="8.669533">
<ele>316.5</ele>
<speed>2.5</speed>
<course>317.4</course>
<desc>Speed 2.5 km/h Distance 6.67 km</desc>
<time>2010-03-14T11:52:58.86</time>
<name>5223</name>
</trkpt>
<trkpt lat="48.937962" lon="8.669522">
<ele>315.5</ele>
<speed>4.0</speed>
<course>294.6</course>
<desc>Speed 4.0 km/h Distance 6.67 km</desc>
<time>2010-03-14T11:52:59.86</time>
<name>5224</name>
</trkpt>
<trkpt lat="48.937967" lon="8.669505">
<ele>315.5</ele>
<speed>2.5</speed>
<course>313.5</course>
<desc>Speed 2.5 km/h Distance 6.67 km</desc>
<time>2010-03-14T11:53:00.86</time>
<name>5225</name>
</trkpt>
<trkpt lat="48.937975" lon="8.669492">
<ele>317.0</ele>
<speed>4.0</speed>
<course>292.1</course>
<desc>Speed 4.0 km/h Distance 6.67 km</desc>
<time>2010-03-14T11:53:01.86</time>
<name>5226</name>
</trkpt>
<trkpt lat="48.937982" lon="8.669467">
<ele>319.5</ele>
<speed>3.6</speed>
<course>282.3</course>
<desc>Speed 3.6 km/h Distance 6.68 km</desc>
<time>2010-03-14T11:53:02.85</time>
<name>5227</name>
</trkpt>
<trkpt lat="48.937985" lon="8.669443">
<ele>320.5</ele>
<speed>3.4</speed>
<course>281.5</course>
<desc>Speed 3.4 km/h Distance 6.68 km</desc>
<time>2010-03-14T11:53:03.85</time>
<name>5228</name>
</trkpt>
<trkpt lat="48.937988" lon="8.669418">
<ele>322.0</ele>
<speed>3.4</speed>
<course>288.0</course>
<desc>Speed 3.4 km/h Distance 6.68 km</desc>
<time>2010-03-14T11:53:04.85</time>
<name>5229</name>
</trkpt>
<trkpt lat="48.937993" lon="8.669395">
<ele>324.5</ele>
<speed>4.0</speed>
<course>339.1</course>
<desc>Speed 4.0 km/h Distance 6.68 km</desc>
<time>2010-03-14T11:53:05.85</time>
<name>5230</name>
</trkpt>
<trkpt lat="48.938005" lon="8.669388">
<ele>323.5</ele>
<speed>3.9</speed>
<course>339.1</course>
<desc>Speed 3.9 km/h Distance 6.68 km</desc>
<time>2010-03-14T11:53:06.86</time>
<name>5231</name>
</trkpt>
<trkpt lat="48.938017" lon="8.669382">
<ele>323.5</ele>
<speed>3.7</speed>
<course>348.4</course>
<desc>Speed 3.7 km/h Distance 6.68 km</desc>
<time>2010-03-14T11:53:07.85</time>
<name>5232</name>
</trkpt>
<trkpt lat="48.938027" lon="8.669378">
<ele>324.5</ele>
<speed>2.4</speed>
<course>323.1</course>
<desc>Speed 2.4 km/h Distance 6.69 km</desc>
<time>2010-03-14T11:53:08.85</time>
<name>5233</name>
</trkpt>
<trkpt lat="48.938038" lon="8.669365">
<ele>325.5</ele>
<speed>3.5</speed>
<course>313.5</course>
<desc>Speed 3.5 km/h Distance 6.69 km</desc>
<time>2010-03-14T11:53:09.85</time>
<name>5234</name>
</trkpt>
<trkpt lat="48.938047" lon="8.669352">
<ele>326.0</ele>
<speed>2.3</speed>
<course>278.7</course>
<desc>Speed 2.3 km/h Distance 6.69 km</desc>
<time>2010-03-14T11:53:10.86</time>
<name>5235</name>
</trkpt>
<trkpt lat="48.938048" lon="8.669335">
<ele>326.5</ele>
<speed>2.5</speed>
<course>323.1</course>
<desc>Speed 2.5 km/h Distance 6.69 km</desc>
<time>2010-03-14T11:53:11.85</time>
<name>5236</name>
</trkpt>
<trkpt lat="48.938060" lon="8.669322">
<ele>326.0</ele>
<speed>3.6</speed>
<course>313.5</course>
<desc>Speed 3.6 km/h Distance 6.69 km</desc>
<time>2010-03-14T11:53:12.85</time>
<name>5237</name>
</trkpt>
<trkpt lat="48.938068" lon="8.669308">
<ele>326.0</ele>
<speed>2.3</speed>
<course>340.3</course>
<desc>Speed 2.3 km/h Distance 6.69 km</desc>
<time>2010-03-14T11:53:13.85</time>
<name>5238</name>
</trkpt>
<trkpt lat="48.938087" lon="8.669298">
<ele>326.0</ele>
<speed>3.4</speed>
<course>326.7</course>
<desc>Speed 3.4 km/h Distance 6.69 km</desc>
<time>2010-03-14T11:53:14.85</time>
<name>5239</name>
</trkpt>
<trkpt lat="48.938103" lon="8.669282">
<ele>325.5</ele>
<speed>3.7</speed>
<course>331.4</course>
<desc>Speed 3.7 km/h Distance 6.70 km</desc>
<time>2010-03-14T11:53:15.85</time>
<name>5240</name>
</trkpt>
<trkpt lat="48.938113" lon="8.669273">
<ele>324.0</ele>
<speed>3.7</speed>
<course>308.1</course>
<desc>Speed 3.7 km/h Distance 6.70 km</desc>
<time>2010-03-14T11:53:16.85</time>
<name>5241</name>
</trkpt>
<trkpt lat="48.938115" lon="8.669270">
<ele>323.5</ele>
<speed>1.1</speed>
<course>307.3</course>
<desc>Speed 1.1 km/h Distance 6.70 km</desc>
<time>2010-03-14T11:53:17.85</time>
<name>5242</name>
</trkpt>
<trkpt lat="48.938122" lon="8.669257">
<ele>323.0</ele>
<speed>2.3</speed>
<course>320.6</course>
<desc>Speed 2.3 km/h Distance 6.70 km</desc>
<time>2010-03-14T11:53:18.85</time>
<name>5243</name>
</trkpt>
<trkpt lat="48.938128" lon="8.669248">
<ele>322.5</ele>
<speed>1.7</speed>
<course>312.6</course>
<desc>Speed 1.7 km/h Distance 6.70 km</desc>
<time>2010-03-14T11:53:19.85</time>
<name>5244</name>
</trkpt>
<trkpt lat="48.938133" lon="8.669240">
<ele>322.5</ele>
<speed>0.5</speed>
<course>308.1</course>
<desc>Speed 0.5 km/h Distance 6.70 km</desc>
<time>2010-03-14T11:53:20.85</time>
<name>5245</name>
</trkpt>
<trkpt lat="48.938135" lon="8.669237">
<ele>322.5</ele>
<speed>0.2</speed>
<course>270.0</course>
<desc>Speed 0.2 km/h Distance 6.70 km</desc>
<time>2010-03-14T11:53:21.85</time>
<name>5246</name>
</trkpt>
<trkpt lat="48.938135" lon="8.669235">
<ele>322.5</ele>
<speed>0.2</speed>
<course>306.1</course>
<desc>Speed 0.2 km/h Distance 6.70 km</desc>
<time>2010-03-14T11:53:22.84</time>
<name>5247</name>
</trkpt>
<trkpt lat="48.938137" lon="8.669232">
<ele>322.5</ele>
<speed>0.1</speed>
<course>270.0</course>
<desc>Speed 0.1 km/h Distance 6.70 km</desc>
<time>2010-03-14T11:53:23.85</time>
<name>5248</name>
</trkpt>
<trkpt lat="48.938137" lon="8.669230">
<ele>322.5</ele>
<speed>0.1</speed>
<course>0.0</course>
<desc>Speed 0.1 km/h Distance 6.70 km</desc>
<time>2010-03-14T11:53:24.85</time>
<name>5249</name>
</trkpt>
<trkpt lat="48.938140" lon="8.669230">
<ele>323.0</ele>
<speed>0.5</speed>
<course>346.5</course>
<desc>Speed 0.5 km/h Distance 6.70 km</desc>
<time>2010-03-14T11:53:25.84</time>
<name>5250</name>
</trkpt>
<trkpt lat="48.938153" lon="8.669225">
<ele>324.0</ele>
<speed>2.8</speed>
<course>310.9</course>
<desc>Speed 2.8 km/h Distance 6.70 km</desc>
<time>2010-03-14T11:53:26.84</time>
<name>5251</name>
</trkpt>
<trkpt lat="48.938160" lon="8.669213">
<ele>322.5</ele>
<speed>2.7</speed>
<course>326.3</course>
<desc>Speed 2.7 km/h Distance 6.71 km</desc>
<time>2010-03-14T11:53:27.85</time>
<name>5252</name>
</trkpt>
<trkpt lat="48.938167" lon="8.669207">
<ele>322.0</ele>
<speed>2.0</speed>
<course>307.3</course>
<desc>Speed 2.0 km/h Distance 6.71 km</desc>
<time>2010-03-14T11:53:28.85</time>
<name>5253</name>
</trkpt>
<trkpt lat="48.938173" lon="8.669193">
<ele>321.0</ele>
<speed>3.1</speed>
<course>322.7</course>
<desc>Speed 3.1 km/h Distance 6.71 km</desc>
<time>2010-03-14T11:53:29.85</time>
<name>5254</name>
</trkpt>
<trkpt lat="48.938183" lon="8.669182">
<ele>321.0</ele>
<speed>3.4</speed>
<course>331.4</course>
<desc>Speed 3.4 km/h Distance 6.71 km</desc>
<time>2010-03-14T11:53:30.84</time>
<name>5255</name>
</trkpt>
<trkpt lat="48.938193" lon="8.669173">
<ele>321.0</ele>
<speed>4.2</speed>
<course>315.5</course>
<desc>Speed 4.2 km/h Distance 6.71 km</desc>
<time>2010-03-14T11:53:31.85</time>
<name>5256</name>
</trkpt>
<trkpt lat="48.938200" lon="8.669163">
<ele>320.5</ele>
<speed>3.5</speed>
<course>326.6</course>
<desc>Speed 3.5 km/h Distance 6.71 km</desc>
<time>2010-03-14T11:53:32.85</time>
<name>5257</name>
</trkpt>
<trkpt lat="48.938212" lon="8.669152">
<ele>319.5</ele>
<speed>4.2</speed>
<course>326.6</course>
<desc>Speed 4.2 km/h Distance 6.71 km</desc>
<time>2010-03-14T11:53:33.85</time>
<name>5258</name>
</trkpt>
<trkpt lat="48.938223" lon="8.669140">
<ele>319.0</ele>
<speed>3.7</speed>
<course>336.3</course>
<desc>Speed 3.7 km/h Distance 6.71 km</desc>
<time>2010-03-14T11:53:34.84</time>
<name>5259</name>
</trkpt>
<trkpt lat="48.938238" lon="8.669130">
<ele>318.0</ele>
<speed>3.6</speed>
<course>336.3</course>
<desc>Speed 3.6 km/h Distance 6.72 km</desc>
<time>2010-03-14T11:53:35.84</time>
<name>5260</name>
</trkpt>
<trkpt lat="48.938253" lon="8.669120">
<ele>316.0</ele>
<speed>3.1</speed>
<course>333.0</course>
<desc>Speed 3.1 km/h Distance 6.72 km</desc>
<time>2010-03-14T11:53:36.84</time>
<name>5261</name>
</trkpt>
<trkpt lat="48.938268" lon="8.669108">
<ele>314.5</ele>
<speed>3.6</speed>
<course>333.0</course>
<desc>Speed 3.6 km/h Distance 6.72 km</desc>
<time>2010-03-14T11:53:37.84</time>
<name>5262</name>
</trkpt>
<trkpt lat="48.938283" lon="8.669097">
<ele>314.0</ele>
<speed>3.9</speed>
<course>341.9</course>
<desc>Speed 3.9 km/h Distance 6.72 km</desc>
<time>2010-03-14T11:53:38.84</time>
<name>5263</name>
</trkpt>
<trkpt lat="48.938297" lon="8.669090">
<ele>314.0</ele>
<speed>3.9</speed>
<course>344.0</course>
<desc>Speed 3.9 km/h Distance 6.72 km</desc>
<time>2010-03-14T11:53:39.84</time>
<name>5264</name>
</trkpt>
<trkpt lat="48.938312" lon="8.669083">
<ele>313.0</ele>
<speed>4.3</speed>
<course>338.5</course>
<desc>Speed 4.3 km/h Distance 6.72 km</desc>
<time>2010-03-14T11:53:40.84</time>
<name>5265</name>
</trkpt>
<trkpt lat="48.938328" lon="8.669073">
<ele>312.0</ele>
<speed>4.6</speed>
<course>319.8</course>
<desc>Speed 4.6 km/h Distance 6.73 km</desc>
<time>2010-03-14T11:53:41.85</time>
<name>5266</name>
</trkpt>
<trkpt lat="48.938340" lon="8.669058">
<ele>312.0</ele>
<speed>3.4</speed>
<course>341.9</course>
<desc>Speed 3.4 km/h Distance 6.73 km</desc>
<time>2010-03-14T11:53:42.84</time>
<name>5267</name>
</trkpt>
<trkpt lat="48.938353" lon="8.669052">
<ele>312.5</ele>
<speed>3.2</speed>
<course>330.6</course>
<desc>Speed 3.2 km/h Distance 6.73 km</desc>
<time>2010-03-14T11:53:43.84</time>
<name>5268</name>
</trkpt>
<trkpt lat="48.938365" lon="8.669042">
<ele>312.0</ele>
<speed>3.9</speed>
<course>323.6</course>
<desc>Speed 3.9 km/h Distance 6.73 km</desc>
<time>2010-03-14T11:53:44.84</time>
<name>5269</name>
</trkpt>
<trkpt lat="48.938378" lon="8.669027">
<ele>311.0</ele>
<speed>4.4</speed>
<course>320.6</course>
<desc>Speed 4.4 km/h Distance 6.73 km</desc>
<time>2010-03-14T11:53:45.84</time>
<name>5270</name>
</trkpt>
<trkpt lat="48.938392" lon="8.669010">
<ele>311.0</ele>
<speed>3.9</speed>
<course>307.3</course>
<desc>Speed 3.9 km/h Distance 6.74 km</desc>
<time>2010-03-14T11:53:46.84</time>
<name>5271</name>
</trkpt>
<trkpt lat="48.938400" lon="8.668993">
<ele>310.0</ele>
<speed>2.6</speed>
<course>307.3</course>
<desc>Speed 2.6 km/h Distance 6.74 km</desc>
<time>2010-03-14T11:53:47.84</time>
<name>5272</name>
</trkpt>
<trkpt lat="48.938410" lon="8.668973">
<ele>310.5</ele>
<speed>3.0</speed>
<course>341.9</course>
<desc>Speed 3.0 km/h Distance 6.74 km</desc>
<time>2010-03-14T11:53:48.84</time>
<name>5273</name>
</trkpt>
<trkpt lat="48.938423" lon="8.668967">
<ele>310.5</ele>
<speed>3.3</speed>
<course>334.0</course>
<desc>Speed 3.3 km/h Distance 6.74 km</desc>
<time>2010-03-14T11:53:49.84</time>
<name>5274</name>
</trkpt>
<trkpt lat="48.938437" lon="8.668957">
<ele>310.0</ele>
<speed>3.7</speed>
<course>336.3</course>
<desc>Speed 3.7 km/h Distance 6.74 km</desc>
<time>2010-03-14T11:53:50.84</time>
<name>5275</name>
</trkpt>
<trkpt lat="48.938452" lon="8.668947">
<ele>308.0</ele>
<speed>4.2</speed>
<course>317.4</course>
<desc>Speed 4.2 km/h Distance 6.74 km</desc>
<time>2010-03-14T11:53:51.84</time>
<name>5276</name>
</trkpt>
<trkpt lat="48.938460" lon="8.668935">
<ele>307.5</ele>
<speed>3.7</speed>
<course>331.0</course>
<desc>Speed 3.7 km/h Distance 6.75 km</desc>
<time>2010-03-14T11:53:52.84</time>
<name>5277</name>
</trkpt>
<trkpt lat="48.938472" lon="8.668925">
<ele>305.5</ele>
<speed>4.5</speed>
<course>321.9</course>
<desc>Speed 4.5 km/h Distance 6.75 km</desc>
<time>2010-03-14T11:53:53.84</time>
<name>5278</name>
</trkpt>
<trkpt lat="48.938480" lon="8.668915">
<ele>305.0</ele>
<speed>2.7</speed>
<course>316.9</course>
<desc>Speed 2.7 km/h Distance 6.75 km</desc>
<time>2010-03-14T11:53:54.84</time>
<name>5279</name>
</trkpt>
<trkpt lat="48.938492" lon="8.668898">
<ele>303.0</ele>
<speed>3.9</speed>
<course>315.5</course>
<desc>Speed 3.9 km/h Distance 6.75 km</desc>
<time>2010-03-14T11:53:55.84</time>
<name>5280</name>
</trkpt>
<trkpt lat="48.938502" lon="8.668883">
<ele>302.5</ele>
<speed>4.5</speed>
<course>307.3</course>
<desc>Speed 4.5 km/h Distance 6.75 km</desc>
<time>2010-03-14T11:53:56.84</time>
<name>5281</name>
</trkpt>
<trkpt lat="48.938510" lon="8.668867">
<ele>302.0</ele>
<speed>3.7</speed>
<course>309.3</course>
<desc>Speed 3.7 km/h Distance 6.75 km</desc>
<time>2010-03-14T11:53:57.84</time>
<name>5282</name>
</trkpt>
<trkpt lat="48.938522" lon="8.668845">
<ele>301.5</ele>
<speed>5.4</speed>
<course>320.6</course>
<desc>Speed 5.4 km/h Distance 6.75 km</desc>
<time>2010-03-14T11:53:58.83</time>
<name>5283</name>
</trkpt>
<trkpt lat="48.938535" lon="8.668828">
<ele>300.0</ele>
<speed>4.2</speed>
<course>344.0</course>
<desc>Speed 4.2 km/h Distance 6.76 km</desc>
<time>2010-03-14T11:53:59.83</time>
<name>5284</name>
</trkpt>
<trkpt lat="48.938547" lon="8.668823">
<ele>299.5</ele>
<speed>3.5</speed>
<course>322.5</course>
<desc>Speed 3.5 km/h Distance 6.76 km</desc>
<time>2010-03-14T11:54:00.83</time>
<name>5285</name>
</trkpt>
<trkpt lat="48.938557" lon="8.668812">
<ele>297.0</ele>
<speed>4.3</speed>
<course>330.6</course>
<desc>Speed 4.3 km/h Distance 6.76 km</desc>
<time>2010-03-14T11:54:01.84</time>
<name>5286</name>
</trkpt>
<trkpt lat="48.938568" lon="8.668802">
<ele>295.0</ele>
<speed>4.2</speed>
<course>330.6</course>
<desc>Speed 4.2 km/h Distance 6.76 km</desc>
<time>2010-03-14T11:54:02.83</time>
<name>5287</name>
</trkpt>
<trkpt lat="48.938580" lon="8.668792">
<ele>294.0</ele>
<speed>3.7</speed>
<course>323.1</course>
<desc>Speed 3.7 km/h Distance 6.76 km</desc>
<time>2010-03-14T11:54:03.83</time>
<name>5288</name>
</trkpt>
<trkpt lat="48.938592" lon="8.668778">
<ele>292.5</ele>
<speed>4.0</speed>
<course>301.4</course>
<desc>Speed 4.0 km/h Distance 6.76 km</desc>
<time>2010-03-14T11:54:04.83</time>
<name>5289</name>
</trkpt>
<trkpt lat="48.938598" lon="8.668762">
<ele>293.5</ele>
<speed>2.7</speed>
<course>334.8</course>
<desc>Speed 2.7 km/h Distance 6.77 km</desc>
<time>2010-03-14T11:54:05.83</time>
<name>5290</name>
</trkpt>
<trkpt lat="48.938610" lon="8.668753">
<ele>293.0</ele>
<speed>3.2</speed>
<course>345.4</course>
<desc>Speed 3.2 km/h Distance 6.77 km</desc>
<time>2010-03-14T11:54:06.83</time>
<name>5291</name>
</trkpt>
<trkpt lat="48.938627" lon="8.668747">
<ele>293.0</ele>
<speed>4.6</speed>
<course>350.8</course>
<desc>Speed 4.6 km/h Distance 6.77 km</desc>
<time>2010-03-14T11:54:07.85</time>
<name>5292</name>
</trkpt>
<trkpt lat="48.938647" lon="8.668742">
<ele>294.0</ele>
<speed>5.1</speed>
<course>330.2</course>
<desc>Speed 5.1 km/h Distance 6.77 km</desc>
<time>2010-03-14T11:54:08.83</time>
<name>5293</name>
</trkpt>
<trkpt lat="48.938660" lon="8.668730">
<ele>293.5</ele>
<speed>4.1</speed>
<course>330.0</course>
<desc>Speed 4.1 km/h Distance 6.77 km</desc>
<time>2010-03-14T11:54:09.83</time>
<name>5294</name>
</trkpt>
<trkpt lat="48.938673" lon="8.668718">
<ele>294.0</ele>
<speed>3.2</speed>
<course>330.2</course>
<desc>Speed 3.2 km/h Distance 6.77 km</desc>
<time>2010-03-14T11:54:10.83</time>
<name>5295</name>
</trkpt>
<trkpt lat="48.938687" lon="8.668707">
<ele>294.0</ele>
<speed>4.2</speed>
<course>318.7</course>
<desc>Speed 4.2 km/h Distance 6.78 km</desc>
<time>2010-03-14T11:54:11.83</time>
<name>5296</name>
</trkpt>
<trkpt lat="48.938697" lon="8.668693">
<ele>294.5</ele>
<speed>3.4</speed>
<course>326.6</course>
<desc>Speed 3.4 km/h Distance 6.78 km</desc>
<time>2010-03-14T11:54:12.83</time>
<name>5297</name>
</trkpt>
<trkpt lat="48.938710" lon="8.668680">
<ele>295.5</ele>
<speed>4.4</speed>
<course>309.6</course>
<desc>Speed 4.4 km/h Distance 6.78 km</desc>
<time>2010-03-14T11:54:13.83</time>
<name>5298</name>
</trkpt>
<trkpt lat="48.938720" lon="8.668662">
<ele>295.5</ele>
<speed>3.7</speed>
<course>333.8</course>
<desc>Speed 3.7 km/h Distance 6.78 km</desc>
<time>2010-03-14T11:54:14.83</time>
<name>5299</name>
</trkpt>
<trkpt lat="48.938733" lon="8.668652">
<ele>294.5</ele>
<speed>4.5</speed>
<course>330.6</course>
<desc>Speed 4.5 km/h Distance 6.78 km</desc>
<time>2010-03-14T11:54:15.83</time>
<name>5300</name>
</trkpt>
<trkpt lat="48.938745" lon="8.668642">
<ele>294.5</ele>
<speed>3.8</speed>
<course>334.8</course>
<desc>Speed 3.8 km/h Distance 6.78 km</desc>
<time>2010-03-14T11:54:16.83</time>
<name>5301</name>
</trkpt>
<trkpt lat="48.938757" lon="8.668633">
<ele>295.0</ele>
<speed>3.6</speed>
<course>339.4</course>
<desc>Speed 3.6 km/h Distance 6.79 km</desc>
<time>2010-03-14T11:54:17.83</time>
<name>5302</name>
</trkpt>
<trkpt lat="48.938768" lon="8.668627">
<ele>295.0</ele>
<speed>3.2</speed>
<course>339.9</course>
<desc>Speed 3.2 km/h Distance 6.79 km</desc>
<time>2010-03-14T11:54:18.83</time>
<name>5303</name>
</trkpt>
<trkpt lat="48.938783" lon="8.668618">
<ele>294.0</ele>
<speed>4.5</speed>
<course>344.0</course>
<desc>Speed 4.5 km/h Distance 6.79 km</desc>
<time>2010-03-14T11:54:19.82</time>
<name>5304</name>
</trkpt>
<trkpt lat="48.938795" lon="8.668613">
<ele>294.5</ele>
<speed>3.4</speed>
<course>315.5</course>
<desc>Speed 3.4 km/h Distance 6.79 km</desc>
<time>2010-03-14T11:54:20.82</time>
<name>5305</name>
</trkpt>
<trkpt lat="48.938802" lon="8.668603">
<ele>294.5</ele>
<speed>3.2</speed>
<course>307.0</course>
<desc>Speed 3.2 km/h Distance 6.79 km</desc>
<time>2010-03-14T11:54:21.82</time>
<name>5306</name>
</trkpt>
<trkpt lat="48.938808" lon="8.668590">
<ele>294.5</ele>
<speed>3.0</speed>
<course>307.2</course>
<desc>Speed 3.0 km/h Distance 6.79 km</desc>
<time>2010-03-14T11:54:22.83</time>
<name>5307</name>
</trkpt>
<trkpt lat="48.938818" lon="8.668570">
<ele>295.0</ele>
<speed>4.4</speed>
<course>292.1</course>
<desc>Speed 4.4 km/h Distance 6.79 km</desc>
<time>2010-03-14T11:54:23.83</time>
<name>5308</name>
</trkpt>
<trkpt lat="48.938825" lon="8.668545">
<ele>294.0</ele>
<speed>4.0</speed>
<course>307.3</course>
<desc>Speed 4.0 km/h Distance 6.80 km</desc>
<time>2010-03-14T11:54:24.83</time>
<name>5309</name>
</trkpt>
<trkpt lat="48.938832" lon="8.668532">
<ele>294.0</ele>
<speed>3.7</speed>
<course>265.2</course>
<desc>Speed 3.7 km/h Distance 6.80 km</desc>
<time>2010-03-14T11:54:25.82</time>
<name>5310</name>
</trkpt>
<trkpt lat="48.938830" lon="8.668502">
<ele>296.0</ele>
<speed>2.8</speed>
<course>315.5</course>
<desc>Speed 2.8 km/h Distance 6.80 km</desc>
<time>2010-03-14T11:54:26.82</time>
<name>5311</name>
</trkpt>
<trkpt lat="48.938837" lon="8.668492">
<ele>295.5</ele>
<speed>3.0</speed>
<course>313.5</course>
<desc>Speed 3.0 km/h Distance 6.80 km</desc>
<time>2010-03-14T11:54:27.82</time>
<name>5312</name>
</trkpt>
<trkpt lat="48.938845" lon="8.668478">
<ele>295.5</ele>
<speed>2.8</speed>
<course>326.6</course>
<desc>Speed 2.8 km/h Distance 6.80 km</desc>
<time>2010-03-14T11:54:28.82</time>
<name>5313</name>
</trkpt>
<trkpt lat="48.938857" lon="8.668467">
<ele>297.5</ele>
<speed>3.2</speed>
<course>277.9</course>
<desc>Speed 3.2 km/h Distance 6.80 km</desc>
<time>2010-03-14T11:54:29.82</time>
<name>5314</name>
</trkpt>
<trkpt lat="48.938858" lon="8.668448">
<ele>297.5</ele>
<speed>2.3</speed>
<course>349.6</course>
<desc>Speed 2.3 km/h Distance 6.81 km</desc>
<time>2010-03-14T11:54:30.82</time>
<name>5315</name>
</trkpt>
<trkpt lat="48.938870" lon="8.668445">
<ele>297.5</ele>
<speed>2.9</speed>
<course>331.7</course>
<desc>Speed 2.9 km/h Distance 6.81 km</desc>
<time>2010-03-14T11:54:31.82</time>
<name>5316</name>
</trkpt>
<trkpt lat="48.938878" lon="8.668438">
<ele>298.0</ele>
<speed>2.7</speed>
<course>333.8</course>
<desc>Speed 2.7 km/h Distance 6.81 km</desc>
<time>2010-03-14T11:54:32.82</time>
<name>5317</name>
</trkpt>
<trkpt lat="48.938892" lon="8.668428">
<ele>297.5</ele>
<speed>3.7</speed>
<course>336.2</course>
<desc>Speed 3.7 km/h Distance 6.81 km</desc>
<time>2010-03-14T11:54:33.82</time>
<name>5318</name>
</trkpt>
<trkpt lat="48.938902" lon="8.668422">
<ele>296.5</ele>
<speed>3.2</speed>
<course>336.2</course>
<desc>Speed 3.2 km/h Distance 6.81 km</desc>
<time>2010-03-14T11:54:34.82</time>
<name>5319</name>
</trkpt>
<trkpt lat="48.938912" lon="8.668415">
<ele>296.0</ele>
<speed>3.1</speed>
<course>330.2</course>
<desc>Speed 3.1 km/h Distance 6.81 km</desc>
<time>2010-03-14T11:54:35.82</time>
<name>5320</name>
</trkpt>
<trkpt lat="48.938925" lon="8.668403">
<ele>295.5</ele>
<speed>3.6</speed>
<course>343.4</course>
<desc>Speed 3.6 km/h Distance 6.81 km</desc>
<time>2010-03-14T11:54:36.82</time>
<name>5321</name>
</trkpt>
<trkpt lat="48.938943" lon="8.668395">
<ele>295.0</ele>
<speed>4.1</speed>
<course>309.4</course>
<desc>Speed 4.1 km/h Distance 6.82 km</desc>
<time>2010-03-14T11:54:37.82</time>
<name>5322</name>
</trkpt>
<trkpt lat="48.938955" lon="8.668373">
<ele>294.0</ele>
<speed>3.4</speed>
<course>348.3</course>
<desc>Speed 3.4 km/h Distance 6.82 km</desc>
<time>2010-03-14T11:54:38.82</time>
<name>5323</name>
</trkpt>
<trkpt lat="48.938970" lon="8.668368">
<ele>293.5</ele>
<speed>5.0</speed>
<course>339.4</course>
<desc>Speed 5.0 km/h Distance 6.82 km</desc>
<time>2010-03-14T11:54:39.82</time>
<name>5324</name>
</trkpt>
<trkpt lat="48.938982" lon="8.668362">
<ele>293.0</ele>
<speed>4.2</speed>
<course>313.6</course>
<desc>Speed 4.2 km/h Distance 6.82 km</desc>
<time>2010-03-14T11:54:40.82</time>
<name>5325</name>
</trkpt>
<trkpt lat="48.938990" lon="8.668348">
<ele>292.5</ele>
<speed>3.5</speed>
<course>312.4</course>
<desc>Speed 3.5 km/h Distance 6.82 km</desc>
<time>2010-03-14T11:54:41.81</time>
<name>5326</name>
</trkpt>
<trkpt lat="48.939000" lon="8.668332">
<ele>293.0</ele>
<speed>3.2</speed>
<course>314.1</course>
<desc>Speed 3.2 km/h Distance 6.82 km</desc>
<time>2010-03-14T11:54:42.81</time>
<name>5327</name>
</trkpt>
<trkpt lat="48.939012" lon="8.668313">
<ele>293.5</ele>
<speed>5.1</speed>
<course>270.0</course>
<desc>Speed 5.1 km/h Distance 6.83 km</desc>
<time>2010-03-14T11:54:43.81</time>
<name>5328</name>
</trkpt>
<trkpt lat="48.939012" lon="8.668282">
<ele>294.5</ele>
<speed>2.1</speed>
<course>274.4</course>
<desc>Speed 2.1 km/h Distance 6.83 km</desc>
<time>2010-03-14T11:54:44.81</time>
<name>5329</name>
</trkpt>
<trkpt lat="48.939013" lon="8.668248">
<ele>295.5</ele>
<speed>2.6</speed>
<course>303.1</course>
<desc>Speed 2.6 km/h Distance 6.83 km</desc>
<time>2010-03-14T11:54:45.82</time>
<name>5330</name>
</trkpt>
<trkpt lat="48.939018" lon="8.668237">
<ele>295.0</ele>
<speed>2.4</speed>
<course>290.9</course>
<desc>Speed 2.4 km/h Distance 6.83 km</desc>
<time>2010-03-14T11:54:46.82</time>
<name>5331</name>
</trkpt>
<trkpt lat="48.939022" lon="8.668223">
<ele>295.0</ele>
<speed>2.3</speed>
<course>348.8</course>
<desc>Speed 2.3 km/h Distance 6.83 km</desc>
<time>2010-03-14T11:54:47.82</time>
<name>5332</name>
</trkpt>
<trkpt lat="48.939033" lon="8.668220">
<ele>295.0</ele>
<speed>1.8</speed>
<course>350.4</course>
<desc>Speed 1.8 km/h Distance 6.83 km</desc>
<time>2010-03-14T11:54:48.82</time>
<name>5333</name>
</trkpt>
<trkpt lat="48.939042" lon="8.668218">
<ele>296.5</ele>
<speed>0.4</speed>
<course>334.8</course>
<desc>Speed 0.4 km/h Distance 6.83 km</desc>
<time>2010-03-14T11:54:49.82</time>
<name>5334</name>
</trkpt>
<trkpt lat="48.939053" lon="8.668210">
<ele>296.5</ele>
<speed>2.6</speed>
<course>323.1</course>
<desc>Speed 2.6 km/h Distance 6.84 km</desc>
<time>2010-03-14T11:54:50.82</time>
<name>5335</name>
</trkpt>
<trkpt lat="48.939065" lon="8.668197">
<ele>295.5</ele>
<speed>3.7</speed>
<course>319.8</course>
<desc>Speed 3.7 km/h Distance 6.84 km</desc>
<time>2010-03-14T11:54:51.82</time>
<name>5336</name>
</trkpt>
<trkpt lat="48.939077" lon="8.668182">
<ele>295.0</ele>
<speed>3.9</speed>
<course>326.7</course>
<desc>Speed 3.9 km/h Distance 6.84 km</desc>
<time>2010-03-14T11:54:52.81</time>
<name>5337</name>
</trkpt>
<trkpt lat="48.939092" lon="8.668167">
<ele>296.5</ele>
<speed>3.5</speed>
<course>295.1</course>
<desc>Speed 3.5 km/h Distance 6.84 km</desc>
<time>2010-03-14T11:54:53.81</time>
<name>5338</name>
</trkpt>
<trkpt lat="48.939098" lon="8.668145">
<ele>297.5</ele>
<speed>2.5</speed>
<course>275.8</course>
<desc>Speed 2.5 km/h Distance 6.84 km</desc>
<time>2010-03-14T11:54:54.81</time>
<name>5339</name>
</trkpt>
<trkpt lat="48.939100" lon="8.668120">
<ele>298.0</ele>
<speed>2.3</speed>
<course>279.1</course>
<desc>Speed 2.3 km/h Distance 6.84 km</desc>
<time>2010-03-14T11:54:55.81</time>
<name>5340</name>
</trkpt>
<trkpt lat="48.939103" lon="8.668088">
<ele>299.0</ele>
<speed>3.3</speed>
<course>326.9</course>
<desc>Speed 3.3 km/h Distance 6.85 km</desc>
<time>2010-03-14T11:54:56.81</time>
<name>5341</name>
</trkpt>
<trkpt lat="48.939115" lon="8.668077">
<ele>299.0</ele>
<speed>4.1</speed>
<course>326.6</course>
<desc>Speed 4.1 km/h Distance 6.85 km</desc>
<time>2010-03-14T11:54:57.81</time>
<name>5342</name>
</trkpt>
<trkpt lat="48.939127" lon="8.668065">
<ele>299.5</ele>
<speed>4.4</speed>
<course>334.8</course>
<desc>Speed 4.4 km/h Distance 6.85 km</desc>
<time>2010-03-14T11:54:58.82</time>
<name>5343</name>
</trkpt>
<trkpt lat="48.939138" lon="8.668057">
<ele>298.5</ele>
<speed>4.1</speed>
<course>326.8</course>
<desc>Speed 4.1 km/h Distance 6.85 km</desc>
<time>2010-03-14T11:54:59.81</time>
<name>5344</name>
</trkpt>
<trkpt lat="48.939147" lon="8.668048">
<ele>298.0</ele>
<speed>2.9</speed>
<course>337.7</course>
<desc>Speed 2.9 km/h Distance 6.85 km</desc>
<time>2010-03-14T11:55:00.81</time>
<name>5345</name>
</trkpt>
<trkpt lat="48.939160" lon="8.668040">
<ele>298.0</ele>
<speed>4.0</speed>
<course>330.2</course>
<desc>Speed 4.0 km/h Distance 6.85 km</desc>
<time>2010-03-14T11:55:01.82</time>
<name>5346</name>
</trkpt>
<trkpt lat="48.939173" lon="8.668028">
<ele>297.5</ele>
<speed>4.9</speed>
<course>335.3</course>
<desc>Speed 4.9 km/h Distance 6.86 km</desc>
<time>2010-03-14T11:55:02.81</time>
<name>5347</name>
</trkpt>
<trkpt lat="48.939190" lon="8.668017">
<ele>296.0</ele>
<speed>4.9</speed>
<course>338.4</course>
<desc>Speed 4.9 km/h Distance 6.86 km</desc>
<time>2010-03-14T11:55:03.81</time>
<name>5348</name>
</trkpt>
<trkpt lat="48.939207" lon="8.668007">
<ele>294.5</ele>
<speed>3.7</speed>
<course>333.8</course>
<desc>Speed 3.7 km/h Distance 6.86 km</desc>
<time>2010-03-14T11:55:04.81</time>
<name>5349</name>
</trkpt>
<trkpt lat="48.939227" lon="8.667992">
<ele>294.0</ele>
<speed>4.8</speed>
<course>324.3</course>
<desc>Speed 4.8 km/h Distance 6.86 km</desc>
<time>2010-03-14T11:55:05.80</time>
<name>5350</name>
</trkpt>
<trkpt lat="48.939245" lon="8.667972">
<ele>293.0</ele>
<speed>4.3</speed>
<course>326.7</course>
<desc>Speed 4.3 km/h Distance 6.87 km</desc>
<time>2010-03-14T11:55:06.80</time>
<name>5351</name>
</trkpt>
<trkpt lat="48.939262" lon="8.667955">
<ele>294.5</ele>
<speed>5.0</speed>
<course>290.8</course>
<desc>Speed 5.0 km/h Distance 6.87 km</desc>
<time>2010-03-14T11:55:07.80</time>
<name>5352</name>
</trkpt>
<trkpt lat="48.939268" lon="8.667928">
<ele>294.5</ele>
<speed>4.2</speed>
<course>279.1</course>
<desc>Speed 4.2 km/h Distance 6.87 km</desc>
<time>2010-03-14T11:55:08.80</time>
<name>5353</name>
</trkpt>
<trkpt lat="48.939272" lon="8.667897">
<ele>294.5</ele>
<speed>3.7</speed>
<course>299.7</course>
<desc>Speed 3.7 km/h Distance 6.87 km</desc>
<time>2010-03-14T11:55:09.80</time>
<name>5354</name>
</trkpt>
<trkpt lat="48.939277" lon="8.667883">
<ele>293.0</ele>
<speed>2.8</speed>
<course>316.9</course>
<desc>Speed 2.8 km/h Distance 6.87 km</desc>
<time>2010-03-14T11:55:10.80</time>
<name>5355</name>
</trkpt>
<trkpt lat="48.939288" lon="8.667867">
<ele>292.0</ele>
<speed>4.7</speed>
<course>290.8</course>
<desc>Speed 4.7 km/h Distance 6.87 km</desc>
<time>2010-03-14T11:55:11.81</time>
<name>5356</name>
</trkpt>
<trkpt lat="48.939293" lon="8.667847">
<ele>292.5</ele>
<speed>3.3</speed>
<course>352.6</course>
<desc>Speed 3.3 km/h Distance 6.88 km</desc>
<time>2010-03-14T11:55:12.80</time>
<name>5357</name>
</trkpt>
<trkpt lat="48.939318" lon="8.667842">
<ele>294.5</ele>
<speed>4.1</speed>
<course>350.0</course>
<desc>Speed 4.1 km/h Distance 6.88 km</desc>
<time>2010-03-14T11:55:13.80</time>
<name>5358</name>
</trkpt>
<trkpt lat="48.939343" lon="8.667835">
<ele>297.0</ele>
<speed>3.3</speed>
<course>320.6</course>
<desc>Speed 3.3 km/h Distance 6.88 km</desc>
<time>2010-03-14T11:55:14.80</time>
<name>5359</name>
</trkpt>
<trkpt lat="48.939357" lon="8.667818">
<ele>296.5</ele>
<speed>4.3</speed>
<course>340.3</course>
<desc>Speed 4.3 km/h Distance 6.88 km</desc>
<time>2010-03-14T11:55:15.80</time>
<name>5360</name>
</trkpt>
<trkpt lat="48.939375" lon="8.667808">
<ele>295.0</ele>
<speed>4.1</speed>
<course>339.8</course>
<desc>Speed 4.1 km/h Distance 6.89 km</desc>
<time>2010-03-14T11:55:16.81</time>
<name>5361</name>
</trkpt>
<trkpt lat="48.939387" lon="8.667802">
<ele>294.5</ele>
<speed>2.9</speed>
<course>322.5</course>
<desc>Speed 2.9 km/h Distance 6.89 km</desc>
<time>2010-03-14T11:55:17.81</time>
<name>5362</name>
</trkpt>
<trkpt lat="48.939397" lon="8.667790">
<ele>294.0</ele>
<speed>3.6</speed>
<course>312.4</course>
<desc>Speed 3.6 km/h Distance 6.89 km</desc>
<time>2010-03-14T11:55:18.80</time>
<name>5363</name>
</trkpt>
<trkpt lat="48.939407" lon="8.667773">
<ele>293.5</ele>
<speed>4.1</speed>
<course>341.9</course>
<desc>Speed 4.1 km/h Distance 6.89 km</desc>
<time>2010-03-14T11:55:19.81</time>
<name>5364</name>
</trkpt>
<trkpt lat="48.939420" lon="8.667767">
<ele>292.5</ele>
<speed>3.6</speed>
<course>326.8</course>
<desc>Speed 3.6 km/h Distance 6.89 km</desc>
<time>2010-03-14T11:55:20.81</time>
<name>5365</name>
</trkpt>
<trkpt lat="48.939430" lon="8.667757">
<ele>291.0</ele>
<speed>3.7</speed>
<course>312.4</course>
<desc>Speed 3.7 km/h Distance 6.89 km</desc>
<time>2010-03-14T11:55:21.80</time>
<name>5366</name>
</trkpt>
<trkpt lat="48.939440" lon="8.667740">
<ele>289.5</ele>
<speed>3.5</speed>
<course>307.3</course>
<desc>Speed 3.5 km/h Distance 6.90 km</desc>
<time>2010-03-14T11:55:22.80</time>
<name>5367</name>
</trkpt>
<trkpt lat="48.939450" lon="8.667720">
<ele>289.0</ele>
<speed>4.2</speed>
<course>310.1</course>
<desc>Speed 4.2 km/h Distance 6.90 km</desc>
<time>2010-03-14T11:55:23.81</time>
<name>5368</name>
</trkpt>
<trkpt lat="48.939458" lon="8.667705">
<ele>288.5</ele>
<speed>4.2</speed>
<course>322.5</course>
<desc>Speed 4.2 km/h Distance 6.90 km</desc>
<time>2010-03-14T11:55:24.80</time>
<name>5369</name>
</trkpt>
<trkpt lat="48.939468" lon="8.667693">
<ele>287.0</ele>
<speed>3.8</speed>
<course>315.5</course>
<desc>Speed 3.8 km/h Distance 6.90 km</desc>
<time>2010-03-14T11:55:25.80</time>
<name>5370</name>
</trkpt>
<trkpt lat="48.939478" lon="8.667678">
<ele>286.5</ele>
<speed>3.7</speed>
<course>307.3</course>
<desc>Speed 3.7 km/h Distance 6.90 km</desc>
<time>2010-03-14T11:55:26.80</time>
<name>5371</name>
</trkpt>
<trkpt lat="48.939488" lon="8.667658">
<ele>285.0</ele>
<speed>3.6</speed>
<course>336.3</course>
<desc>Speed 3.6 km/h Distance 6.90 km</desc>
<time>2010-03-14T11:55:27.80</time>
<name>5372</name>
</trkpt>
<trkpt lat="48.939503" lon="8.667648">
<ele>283.5</ele>
<speed>4.1</speed>
<course>332.8</course>
<desc>Speed 4.1 km/h Distance 6.90 km</desc>
<time>2010-03-14T11:55:28.80</time>
<name>5373</name>
</trkpt>
<trkpt lat="48.939518" lon="8.667637">
<ele>283.5</ele>
<speed>4.4</speed>
<course>313.5</course>
<desc>Speed 4.4 km/h Distance 6.91 km</desc>
<time>2010-03-14T11:55:29.80</time>
<name>5374</name>
</trkpt>
<trkpt lat="48.939527" lon="8.667623">
<ele>283.0</ele>
<speed>3.4</speed>
<course>310.9</course>
<desc>Speed 3.4 km/h Distance 6.91 km</desc>
<time>2010-03-14T11:55:30.80</time>
<name>5375</name>
</trkpt>
<trkpt lat="48.939533" lon="8.667612">
<ele>283.5</ele>
<speed>2.8</speed>
<course>315.5</course>
<desc>Speed 2.8 km/h Distance 6.91 km</desc>
<time>2010-03-14T11:55:31.80</time>
<name>5376</name>
</trkpt>
<trkpt lat="48.939543" lon="8.667597">
<ele>284.5</ele>
<speed>3.5</speed>
<course>283.2</course>
<desc>Speed 3.5 km/h Distance 6.91 km</desc>
<time>2010-03-14T11:55:32.80</time>
<name>5377</name>
</trkpt>
<trkpt lat="48.939547" lon="8.667575">
<ele>284.0</ele>
<speed>3.9</speed>
<course>275.1</course>
<desc>Speed 3.9 km/h Distance 6.91 km</desc>
<time>2010-03-14T11:55:33.80</time>
<name>5378</name>
</trkpt>
<trkpt lat="48.939548" lon="8.667547">
<ele>284.5</ele>
<speed>4.4</speed>
<course>333.8</course>
<desc>Speed 4.4 km/h Distance 6.91 km</desc>
<time>2010-03-14T11:55:34.80</time>
<name>5379</name>
</trkpt>
<trkpt lat="48.939562" lon="8.667537">
<ele>284.0</ele>
<speed>4.2</speed>
<course>340.1</course>
<desc>Speed 4.2 km/h Distance 6.92 km</desc>
<time>2010-03-14T11:55:35.80</time>
<name>5380</name>
</trkpt>
<trkpt lat="48.939577" lon="8.667528">
<ele>284.0</ele>
<speed>3.7</speed>
<course>339.9</course>
<desc>Speed 3.7 km/h Distance 6.92 km</desc>
<time>2010-03-14T11:55:36.80</time>
<name>5381</name>
</trkpt>
<trkpt lat="48.939592" lon="8.667520">
<ele>283.0</ele>
<speed>3.8</speed>
<course>340.3</course>
<desc>Speed 3.8 km/h Distance 6.92 km</desc>
<time>2010-03-14T11:55:37.80</time>
<name>5382</name>
</trkpt>
<trkpt lat="48.939610" lon="8.667510">
<ele>281.5</ele>
<speed>4.4</speed>
<course>346.0</course>
<desc>Speed 4.4 km/h Distance 6.92 km</desc>
<time>2010-03-14T11:55:38.79</time>
<name>5383</name>
</trkpt>
<trkpt lat="48.939623" lon="8.667505">
<ele>281.5</ele>
<speed>4.6</speed>
<course>333.6</course>
<desc>Speed 4.6 km/h Distance 6.92 km</desc>
<time>2010-03-14T11:55:39.79</time>
<name>5384</name>
</trkpt>
<trkpt lat="48.939637" lon="8.667495">
<ele>281.0</ele>
<speed>4.5</speed>
<course>349.6</course>
<desc>Speed 4.5 km/h Distance 6.93 km</desc>
<time>2010-03-14T11:55:40.79</time>
<name>5385</name>
</trkpt>
<trkpt lat="48.939653" lon="8.667490">
<ele>281.0</ele>
<speed>4.3</speed>
<course>352.3</course>
<desc>Speed 4.3 km/h Distance 6.93 km</desc>
<time>2010-03-14T11:55:41.80</time>
<name>5386</name>
</trkpt>
<trkpt lat="48.939670" lon="8.667487">
<ele>281.0</ele>
<speed>3.6</speed>
<course>301.4</course>
<desc>Speed 3.6 km/h Distance 6.93 km</desc>
<time>2010-03-14T11:55:42.79</time>
<name>5387</name>
</trkpt>
<trkpt lat="48.939673" lon="8.667478">
<ele>281.0</ele>
<speed>1.4</speed>
<course>282.3</course>
<desc>Speed 1.4 km/h Distance 6.93 km</desc>
<time>2010-03-14T11:55:43.80</time>
<name>5388</name>
</trkpt>
<trkpt lat="48.939675" lon="8.667467">
<ele>281.0</ele>
<speed>1.1</speed>
<course>292.6</course>
<desc>Speed 1.1 km/h Distance 6.93 km</desc>
<time>2010-03-14T11:55:44.80</time>
<name>5389</name>
</trkpt>
<trkpt lat="48.939680" lon="8.667448">
<ele>280.5</ele>
<speed>2.4</speed>
<course>265.2</course>
<desc>Speed 2.4 km/h Distance 6.93 km</desc>
<time>2010-03-14T11:55:45.80</time>
<name>5390</name>
</trkpt>
<trkpt lat="48.939678" lon="8.667418">
<ele>280.5</ele>
<speed>2.0</speed>
<course>270.0</course>
<desc>Speed 2.0 km/h Distance 6.93 km</desc>
<time>2010-03-14T11:55:46.80</time>
<name>5391</name>
</trkpt>
<trkpt lat="48.939678" lon="8.667333">
<ele>279.0</ele>
<speed>3.7</speed>
<course>318.8</course>
<desc>Speed 3.7 km/h Distance 6.94 km</desc>
<time>2010-03-14T11:55:48.80</time>
<name>5392</name>
</trkpt>
<trkpt lat="48.939688" lon="8.667320">
<ele>278.5</ele>
<speed>2.0</speed>
<course>294.6</course>
<desc>Speed 2.0 km/h Distance 6.94 km</desc>
<time>2010-03-14T11:55:49.80</time>
<name>5393</name>
</trkpt>
<trkpt lat="48.939693" lon="8.667303">
<ele>277.5</ele>
<speed>3.7</speed>
<course>330.6</course>
<desc>Speed 3.7 km/h Distance 6.94 km</desc>
<time>2010-03-14T11:55:50.80</time>
<name>5394</name>
</trkpt>
<trkpt lat="48.939705" lon="8.667293">
<ele>277.0</ele>
<speed>3.6</speed>
<course>335.3</course>
<desc>Speed 3.6 km/h Distance 6.94 km</desc>
<time>2010-03-14T11:55:51.80</time>
<name>5395</name>
</trkpt>
<trkpt lat="48.939722" lon="8.667282">
<ele>276.0</ele>
<speed>4.4</speed>
<course>335.1</course>
<desc>Speed 4.4 km/h Distance 6.95 km</desc>
<time>2010-03-14T11:55:52.80</time>
<name>5396</name>
</trkpt>
<trkpt lat="48.939733" lon="8.667273">
<ele>275.0</ele>
<speed>3.5</speed>
<course>340.6</course>
<desc>Speed 3.5 km/h Distance 6.95 km</desc>
<time>2010-03-14T11:55:53.79</time>
<name>5397</name>
</trkpt>
<trkpt lat="48.939755" lon="8.667262">
<ele>273.5</ele>
<speed>3.7</speed>
<course>334.0</course>
<desc>Speed 3.7 km/h Distance 6.95 km</desc>
<time>2010-03-14T11:55:55.79</time>
<name>5398</name>
</trkpt>
<trkpt lat="48.939768" lon="8.667252">
<ele>273.5</ele>
<speed>3.7</speed>
<course>332.3</course>
<desc>Speed 3.7 km/h Distance 6.95 km</desc>
<time>2010-03-14T11:55:56.79</time>
<name>5399</name>
</trkpt>
<trkpt lat="48.939785" lon="8.667238">
<ele>273.5</ele>
<speed>4.4</speed>
<course>315.3</course>
<desc>Speed 4.4 km/h Distance 6.95 km</desc>
<time>2010-03-14T11:55:57.79</time>
<name>5400</name>
</trkpt>
<trkpt lat="48.939798" lon="8.667218">
<ele>273.5</ele>
<speed>3.4</speed>
<course>338.5</course>
<desc>Speed 3.4 km/h Distance 6.96 km</desc>
<time>2010-03-14T11:55:58.79</time>
<name>5401</name>
</trkpt>
<trkpt lat="48.939807" lon="8.667213">
<ele>274.0</ele>
<speed>1.5</speed>
<course>333.6</course>
<desc>Speed 1.5 km/h Distance 6.96 km</desc>
<time>2010-03-14T11:55:59.79</time>
<name>5402</name>
</trkpt>
<trkpt lat="48.939813" lon="8.667208">
<ele>273.0</ele>
<speed>1.9</speed>
<course>319.8</course>
<desc>Speed 1.9 km/h Distance 6.96 km</desc>
<time>2010-03-14T11:56:00.79</time>
<name>5403</name>
</trkpt>
<trkpt lat="48.939825" lon="8.667193">
<ele>272.5</ele>
<speed>3.3</speed>
<course>341.8</course>
<desc>Speed 3.3 km/h Distance 6.96 km</desc>
<time>2010-03-14T11:56:01.80</time>
<name>5404</name>
</trkpt>
<trkpt lat="48.939848" lon="8.667182">
<ele>270.5</ele>
<speed>2.5</speed>
<course>326.8</course>
<desc>Speed 2.5 km/h Distance 6.96 km</desc>
<time>2010-03-14T11:56:03.79</time>
<name>5405</name>
</trkpt>
<trkpt lat="48.939857" lon="8.667173">
<ele>269.5</ele>
<speed>2.5</speed>
<course>333.8</course>
<desc>Speed 2.5 km/h Distance 6.96 km</desc>
<time>2010-03-14T11:56:04.79</time>
<name>5406</name>
</trkpt>
<trkpt lat="48.939870" lon="8.667163">
<ele>269.0</ele>
<speed>3.5</speed>
<course>329.2</course>
<desc>Speed 3.5 km/h Distance 6.97 km</desc>
<time>2010-03-14T11:56:05.79</time>
<name>5407</name>
</trkpt>
<trkpt lat="48.939887" lon="8.667148">
<ele>268.0</ele>
<speed>3.8</speed>
<course>326.8</course>
<desc>Speed 3.8 km/h Distance 6.97 km</desc>
<time>2010-03-14T11:56:06.79</time>
<name>5408</name>
</trkpt>
<trkpt lat="48.939897" lon="8.667138">
<ele>268.0</ele>
<speed>3.2</speed>
<course>285.5</course>
<desc>Speed 3.2 km/h Distance 6.97 km</desc>
<time>2010-03-14T11:56:07.79</time>
<name>5409</name>
</trkpt>
<trkpt lat="48.939900" lon="8.667120">
<ele>267.5</ele>
<speed>2.7</speed>
<course>275.8</course>
<desc>Speed 2.7 km/h Distance 6.97 km</desc>
<time>2010-03-14T11:56:08.79</time>
<name>5410</name>
</trkpt>
<trkpt lat="48.939902" lon="8.667095">
<ele>268.0</ele>
<speed>2.0</speed>
<course>257.7</course>
<desc>Speed 2.0 km/h Distance 6.97 km</desc>
<time>2010-03-14T11:56:09.79</time>
<name>5411</name>
</trkpt>
<trkpt lat="48.939898" lon="8.667072">
<ele>268.0</ele>
<speed>3.0</speed>
<course>317.4</course>
<desc>Speed 3.0 km/h Distance 6.97 km</desc>
<time>2010-03-14T11:56:10.79</time>
<name>5412</name>
</trkpt>
<trkpt lat="48.939907" lon="8.667060">
<ele>268.0</ele>
<speed>2.8</speed>
<course>328.4</course>
<desc>Speed 2.8 km/h Distance 6.98 km</desc>
<time>2010-03-14T11:56:11.79</time>
<name>5413</name>
</trkpt>
<trkpt lat="48.939933" lon="8.667035">
<ele>266.0</ele>
<speed>3.1</speed>
<course>319.8</course>
<desc>Speed 3.1 km/h Distance 6.98 km</desc>
<time>2010-03-14T11:56:14.79</time>
<name>5414</name>
</trkpt>
<trkpt lat="48.939945" lon="8.667020">
<ele>265.0</ele>
<speed>2.6</speed>
<course>305.0</course>
<desc>Speed 2.6 km/h Distance 6.98 km</desc>
<time>2010-03-14T11:56:15.79</time>
<name>5415</name>
</trkpt>
<trkpt lat="48.939955" lon="8.666998">
<ele>264.5</ele>
<speed>4.1</speed>
<course>301.3</course>
<desc>Speed 4.1 km/h Distance 6.98 km</desc>
<time>2010-03-14T11:56:16.79</time>
<name>5416</name>
</trkpt>
<trkpt lat="48.939965" lon="8.666973">
<ele>264.0</ele>
<speed>3.5</speed>
<course>287.8</course>
<desc>Speed 3.5 km/h Distance 6.98 km</desc>
<time>2010-03-14T11:56:17.79</time>
<name>5417</name>
</trkpt>
<trkpt lat="48.939972" lon="8.666942">
<ele>264.0</ele>
<speed>2.9</speed>
<course>285.9</course>
<desc>Speed 2.9 km/h Distance 6.99 km</desc>
<time>2010-03-14T11:56:18.79</time>
<name>5418</name>
</trkpt>
<trkpt lat="48.939977" lon="8.666915">
<ele>264.0</ele>
<speed>3.1</speed>
<course>330.6</course>
<desc>Speed 3.1 km/h Distance 6.99 km</desc>
<time>2010-03-14T11:56:19.79</time>
<name>5419</name>
</trkpt>
<trkpt lat="48.939988" lon="8.666905">
<ele>264.5</ele>
<speed>2.2</speed>
<course>299.0</course>
<desc>Speed 2.2 km/h Distance 6.99 km</desc>
<time>2010-03-14T11:56:20.79</time>
<name>5420</name>
</trkpt>
<trkpt lat="48.939995" lon="8.666887">
<ele>264.0</ele>
<speed>3.4</speed>
<course>345.1</course>
<desc>Speed 3.4 km/h Distance 6.99 km</desc>
<time>2010-03-14T11:56:21.79</time>
<name>5421</name>
</trkpt>
<trkpt lat="48.940007" lon="8.666882">
<ele>263.5</ele>
<speed>2.7</speed>
<course>326.8</course>
<desc>Speed 2.7 km/h Distance 6.99 km</desc>
<time>2010-03-14T11:56:22.79</time>
<name>5422</name>
</trkpt>
<trkpt lat="48.940020" lon="8.666868">
<ele>262.5</ele>
<speed>3.8</speed>
<course>341.9</course>
<desc>Speed 3.8 km/h Distance 7.00 km</desc>
<time>2010-03-14T11:56:23.79</time>
<name>5423</name>
</trkpt>
<trkpt lat="48.940037" lon="8.666860">
<ele>261.5</ele>
<speed>3.1</speed>
<course>329.7</course>
<desc>Speed 3.1 km/h Distance 7.00 km</desc>
<time>2010-03-14T11:56:24.79</time>
<name>5424</name>
</trkpt>
<trkpt lat="48.940052" lon="8.666847">
<ele>261.5</ele>
<speed>2.9</speed>
<course>343.5</course>
<desc>Speed 2.9 km/h Distance 7.00 km</desc>
<time>2010-03-14T11:56:25.79</time>
<name>5425</name>
</trkpt>
<trkpt lat="48.940085" lon="8.666832">
<ele>260.5</ele>
<speed>2.9</speed>
<course>320.5</course>
<desc>Speed 2.9 km/h Distance 7.00 km</desc>
<time>2010-03-14T11:56:27.78</time>
<name>5426</name>
</trkpt>
<trkpt lat="48.940098" lon="8.666815">
<ele>259.5</ele>
<speed>3.7</speed>
<course>312.4</course>
<desc>Speed 3.7 km/h Distance 7.00 km</desc>
<time>2010-03-14T11:56:28.78</time>
<name>5427</name>
</trkpt>
<trkpt lat="48.940108" lon="8.666798">
<ele>259.0</ele>
<speed>2.2</speed>
<course>332.3</course>
<desc>Speed 2.2 km/h Distance 7.01 km</desc>
<time>2010-03-14T11:56:29.78</time>
<name>5428</name>
</trkpt>
<trkpt lat="48.940125" lon="8.666785">
<ele>259.0</ele>
<speed>2.5</speed>
<course>352.2</course>
<desc>Speed 2.5 km/h Distance 7.01 km</desc>
<time>2010-03-14T11:56:30.78</time>
<name>5429</name>
</trkpt>
<trkpt lat="48.940165" lon="8.666777">
<ele>259.5</ele>
<speed>3.7</speed>
<course>331.7</course>
<desc>Speed 3.7 km/h Distance 7.01 km</desc>
<time>2010-03-14T11:56:33.78</time>
<name>5430</name>
</trkpt>
<trkpt lat="48.940183" lon="8.666762">
<ele>259.0</ele>
<speed>4.1</speed>
<course>332.2</course>
<desc>Speed 4.1 km/h Distance 7.02 km</desc>
<time>2010-03-14T11:56:34.78</time>
<name>5431</name>
</trkpt>
<trkpt lat="48.940200" lon="8.666748">
<ele>258.5</ele>
<speed>4.0</speed>
<course>329.9</course>
<desc>Speed 4.0 km/h Distance 7.02 km</desc>
<time>2010-03-14T11:56:35.78</time>
<name>5432</name>
</trkpt>
<trkpt lat="48.940228" lon="8.666723">
<ele>255.5</ele>
<speed>3.7</speed>
<course>326.6</course>
<desc>Speed 3.7 km/h Distance 7.02 km</desc>
<time>2010-03-14T11:56:38.78</time>
<name>5433</name>
</trkpt>
<trkpt lat="48.940242" lon="8.666710">
<ele>255.0</ele>
<speed>4.3</speed>
<course>301.4</course>
<desc>Speed 4.3 km/h Distance 7.02 km</desc>
<time>2010-03-14T11:56:39.78</time>
<name>5434</name>
</trkpt>
<trkpt lat="48.940252" lon="8.666685">
<ele>254.0</ele>
<speed>4.3</speed>
<course>283.5</course>
<desc>Speed 4.3 km/h Distance 7.02 km</desc>
<time>2010-03-14T11:56:40.78</time>
<name>5435</name>
</trkpt>
<trkpt lat="48.940257" lon="8.666653">
<ele>253.5</ele>
<speed>3.7</speed>
<course>279.6</course>
<desc>Speed 3.7 km/h Distance 7.03 km</desc>
<time>2010-03-14T11:56:41.78</time>
<name>5436</name>
</trkpt>
<trkpt lat="48.940260" lon="8.666623">
<ele>254.0</ele>
<speed>3.6</speed>
<course>275.1</course>
<desc>Speed 3.6 km/h Distance 7.03 km</desc>
<time>2010-03-14T11:56:42.78</time>
<name>5437</name>
</trkpt>
<trkpt lat="48.940262" lon="8.666595">
<ele>254.5</ele>
<speed>3.5</speed>
<course>282.3</course>
<desc>Speed 3.5 km/h Distance 7.03 km</desc>
<time>2010-03-14T11:56:43.78</time>
<name>5438</name>
</trkpt>
<trkpt lat="48.940267" lon="8.666560">
<ele>254.0</ele>
<speed>4.0</speed>
<course>346.8</course>
<desc>Speed 4.0 km/h Distance 7.03 km</desc>
<time>2010-03-14T11:56:44.78</time>
<name>5439</name>
</trkpt>
<trkpt lat="48.940290" lon="8.666552">
<ele>254.0</ele>
<speed>4.3</speed>
<course>336.2</course>
<desc>Speed 4.3 km/h Distance 7.04 km</desc>
<time>2010-03-14T11:56:45.78</time>
<name>5440</name>
</trkpt>
<trkpt lat="48.940310" lon="8.666538">
<ele>251.5</ele>
<speed>3.3</speed>
<course>343.4</course>
<desc>Speed 3.3 km/h Distance 7.04 km</desc>
<time>2010-03-14T11:56:47.78</time>
<name>5441</name>
</trkpt>
<trkpt lat="48.940325" lon="8.666532">
<ele>251.0</ele>
<speed>3.9</speed>
<course>335.3</course>
<desc>Speed 3.9 km/h Distance 7.04 km</desc>
<time>2010-03-14T11:56:48.78</time>
<name>5442</name>
</trkpt>
<trkpt lat="48.940342" lon="8.666520">
<ele>250.5</ele>
<speed>3.7</speed>
<course>340.6</course>
<desc>Speed 3.7 km/h Distance 7.04 km</desc>
<time>2010-03-14T11:56:49.78</time>
<name>5443</name>
</trkpt>
<trkpt lat="48.940363" lon="8.666508">
<ele>248.5</ele>
<speed>3.3</speed>
<course>334.8</course>
<desc>Speed 3.3 km/h Distance 7.05 km</desc>
<time>2010-03-14T11:56:51.78</time>
<name>5444</name>
</trkpt>
<trkpt lat="48.940375" lon="8.666500">
<ele>248.0</ele>
<speed>3.2</speed>
<course>330.2</course>
<desc>Speed 3.2 km/h Distance 7.05 km</desc>
<time>2010-03-14T11:56:52.78</time>
<name>5445</name>
</trkpt>
<trkpt lat="48.940388" lon="8.666488">
<ele>247.5</ele>
<speed>3.6</speed>
<course>341.8</course>
<desc>Speed 3.6 km/h Distance 7.05 km</desc>
<time>2010-03-14T11:56:53.78</time>
<name>5446</name>
</trkpt>
<trkpt lat="48.940408" lon="8.666478">
<ele>248.0</ele>
<speed>5.1</speed>
<course>330.6</course>
<desc>Speed 5.1 km/h Distance 7.05 km</desc>
<time>2010-03-14T11:56:54.78</time>
<name>5447</name>
</trkpt>
<trkpt lat="48.940420" lon="8.666468">
<ele>247.0</ele>
<speed>5.5</speed>
<course>327.7</course>
<desc>Speed 5.5 km/h Distance 7.05 km</desc>
<time>2010-03-14T11:56:55.77</time>
<name>5448</name>
</trkpt>
<trkpt lat="48.940465" lon="8.666425">
<ele>245.5</ele>
<speed>4.8</speed>
<course>318.8</course>
<desc>Speed 4.8 km/h Distance 7.06 km</desc>
<time>2010-03-14T11:56:59.77</time>
<name>5449</name>
</trkpt>
<trkpt lat="48.940480" lon="8.666405">
<ele>245.0</ele>
<speed>5.3</speed>
<course>307.3</course>
<desc>Speed 5.3 km/h Distance 7.06 km</desc>
<time>2010-03-14T11:57:00.77</time>
<name>5450</name>
</trkpt>
<trkpt lat="48.940495" lon="8.666375">
<ele>244.5</ele>
<speed>5.4</speed>
<course>280.8</course>
<desc>Speed 5.4 km/h Distance 7.06 km</desc>
<time>2010-03-14T11:57:01.78</time>
<name>5451</name>
</trkpt>
<trkpt lat="48.940500" lon="8.666335">
<ele>245.0</ele>
<speed>4.4</speed>
<course>326.6</course>
<desc>Speed 4.4 km/h Distance 7.07 km</desc>
<time>2010-03-14T11:57:02.77</time>
<name>5452</name>
</trkpt>
<trkpt lat="48.940513" lon="8.666322">
<ele>244.5</ele>
<speed>4.6</speed>
<course>329.7</course>
<desc>Speed 4.6 km/h Distance 7.07 km</desc>
<time>2010-03-14T11:57:03.77</time>
<name>5453</name>
</trkpt>
<trkpt lat="48.940528" lon="8.666308">
<ele>244.5</ele>
<speed>3.7</speed>
<course>323.6</course>
<desc>Speed 3.7 km/h Distance 7.07 km</desc>
<time>2010-03-14T11:57:04.77</time>
<name>5454</name>
</trkpt>
<trkpt lat="48.940542" lon="8.666293">
<ele>244.5</ele>
<speed>3.9</speed>
<course>315.4</course>
<desc>Speed 3.9 km/h Distance 7.07 km</desc>
<time>2010-03-14T11:57:05.77</time>
<name>5455</name>
</trkpt>
<trkpt lat="48.940562" lon="8.666263">
<ele>242.0</ele>
<speed>3.7</speed>
<course>313.6</course>
<desc>Speed 3.7 km/h Distance 7.08 km</desc>
<time>2010-03-14T11:57:08.77</time>
<name>5456</name>
</trkpt>
<trkpt lat="48.940570" lon="8.666250">
<ele>242.0</ele>
<speed>2.8</speed>
<course>305.1</course>
<desc>Speed 2.8 km/h Distance 7.08 km</desc>
<time>2010-03-14T11:57:09.77</time>
<name>5457</name>
</trkpt>
<trkpt lat="48.940580" lon="8.666228">
<ele>242.0</ele>
<speed>3.7</speed>
<course>303.7</course>
<desc>Speed 3.7 km/h Distance 7.08 km</desc>
<time>2010-03-14T11:57:10.77</time>
<name>5458</name>
</trkpt>
<trkpt lat="48.940592" lon="8.666202">
<ele>242.5</ele>
<speed>3.7</speed>
<course>291.8</course>
<desc>Speed 3.7 km/h Distance 7.08 km</desc>
<time>2010-03-14T11:57:11.77</time>
<name>5459</name>
</trkpt>
<trkpt lat="48.940600" lon="8.666170">
<ele>243.0</ele>
<speed>3.7</speed>
<course>337.4</course>
<desc>Speed 3.7 km/h Distance 7.08 km</desc>
<time>2010-03-14T11:57:12.77</time>
<name>5460</name>
</trkpt>
<trkpt lat="48.940618" lon="8.666158">
<ele>243.5</ele>
<speed>2.4</speed>
<course>344.1</course>
<desc>Speed 2.4 km/h Distance 7.09 km</desc>
<time>2010-03-14T11:57:13.77</time>
<name>5461</name>
</trkpt>
<trkpt lat="48.940668" lon="8.666137">
<ele>244.5</ele>
<speed>3.0</speed>
<course>318.4</course>
<desc>Speed 3.0 km/h Distance 7.09 km</desc>
<time>2010-03-14T11:57:15.77</time>
<name>5462</name>
</trkpt>
<trkpt lat="48.940702" lon="8.666092">
<ele>245.5</ele>
<speed>3.6</speed>
<course>338.5</course>
<desc>Speed 3.6 km/h Distance 7.10 km</desc>
<time>2010-03-14T11:57:17.77</time>
<name>5463</name>
</trkpt>
<trkpt lat="48.940718" lon="8.666082">
<ele>245.5</ele>
<speed>4.3</speed>
<course>326.6</course>
<desc>Speed 4.3 km/h Distance 7.10 km</desc>
<time>2010-03-14T11:57:18.77</time>
<name>5464</name>
</trkpt>
<trkpt lat="48.940732" lon="8.666068">
<ele>245.0</ele>
<speed>3.2</speed>
<course>288.7</course>
<desc>Speed 3.2 km/h Distance 7.10 km</desc>
<time>2010-03-14T11:57:19.77</time>
<name>5465</name>
</trkpt>
<trkpt lat="48.940735" lon="8.666053">
<ele>245.0</ele>
<speed>1.9</speed>
<course>296.9</course>
<desc>Speed 1.9 km/h Distance 7.10 km</desc>
<time>2010-03-14T11:57:20.77</time>
<name>5466</name>
</trkpt>
<trkpt lat="48.940742" lon="8.666033">
<ele>245.0</ele>
<speed>2.7</speed>
<course>350.3</course>
<desc>Speed 2.7 km/h Distance 7.10 km</desc>
<time>2010-03-14T11:57:21.77</time>
<name>5467</name>
</trkpt>
<trkpt lat="48.940755" lon="8.666030">
<ele>245.0</ele>
<speed>2.3</speed>
<course>347.8</course>
<desc>Speed 2.3 km/h Distance 7.10 km</desc>
<time>2010-03-14T11:57:22.77</time>
<name>5468</name>
</trkpt>
<trkpt lat="48.940770" lon="8.666025">
<ele>245.5</ele>
<speed>2.7</speed>
<course>331.4</course>
<desc>Speed 2.7 km/h Distance 7.11 km</desc>
<time>2010-03-14T11:57:23.76</time>
<name>5469</name>
</trkpt>
<trkpt lat="48.940780" lon="8.666017">
<ele>245.5</ele>
<speed>1.1</speed>
<course>299.7</course>
<desc>Speed 1.1 km/h Distance 7.11 km</desc>
<time>2010-03-14T11:57:24.77</time>
<name>5470</name>
</trkpt>
<trkpt lat="48.940785" lon="8.666003">
<ele>245.5</ele>
<speed>2.4</speed>
<course>310.2</course>
<desc>Speed 2.4 km/h Distance 7.11 km</desc>
<time>2010-03-14T11:57:25.77</time>
<name>5471</name>
</trkpt>
<trkpt lat="48.940793" lon="8.665988">
<ele>245.5</ele>
<speed>3.9</speed>
<course>293.5</course>
<desc>Speed 3.9 km/h Distance 7.11 km</desc>
<time>2010-03-14T11:57:26.77</time>
<name>5472</name>
</trkpt>
<trkpt lat="48.940797" lon="8.665977">
<ele>245.0</ele>
<speed>2.9</speed>
<course>8.7</course>
<desc>Speed 2.9 km/h Distance 7.11 km</desc>
<time>2010-03-14T11:57:27.77</time>
<name>5473</name>
</trkpt>
<trkpt lat="48.940818" lon="8.665982">
<ele>245.0</ele>
<speed>8.1</speed>
<course>3.9</course>
<desc>Speed 8.1 km/h Distance 7.11 km</desc>
<time>2010-03-14T11:57:28.76</time>
<name>5474</name>
</trkpt>
<trkpt lat="48.940832" lon="8.665983">
<ele>245.0</ele>
<speed>4.2</speed>
<course>4.7</course>
<desc>Speed 4.2 km/h Distance 7.11 km</desc>
<time>2010-03-14T11:57:29.76</time>
<name>5475</name>
</trkpt>
<trkpt lat="48.940843" lon="8.665985">
<ele>245.0</ele>
<speed>4.7</speed>
<course>10.3</course>
<desc>Speed 4.7 km/h Distance 7.12 km</desc>
<time>2010-03-14T11:57:30.76</time>
<name>5476</name>
</trkpt>
<trkpt lat="48.940850" lon="8.665987">
<ele>245.0</ele>
<speed>4.3</speed>
<course>355.6</course>
<desc>Speed 4.3 km/h Distance 7.12 km</desc>
<time>2010-03-14T11:57:31.76</time>
<name>5477</name>
</trkpt>
<trkpt lat="48.940860" lon="8.665985">
<ele>244.5</ele>
<speed>3.4</speed>
<course>353.4</course>
<desc>Speed 3.4 km/h Distance 7.12 km</desc>
<time>2010-03-14T11:57:32.76</time>
<name>5478</name>
</trkpt>
<trkpt lat="48.940870" lon="8.665983">
<ele>244.5</ele>
<speed>3.3</speed>
<course>351.0</course>
<desc>Speed 3.3 km/h Distance 7.12 km</desc>
<time>2010-03-14T11:57:33.76</time>
<name>5479</name>
</trkpt>
<trkpt lat="48.940883" lon="8.665980">
<ele>245.0</ele>
<speed>4.4</speed>
<course>21.5</course>
<desc>Speed 4.4 km/h Distance 7.12 km</desc>
<time>2010-03-14T11:57:34.76</time>
<name>5480</name>
</trkpt>
<trkpt lat="48.940892" lon="8.665985">
<ele>245.0</ele>
<speed>4.2</speed>
<course>0.0</course>
<desc>Speed 4.2 km/h Distance 7.12 km</desc>
<time>2010-03-14T11:57:35.76</time>
<name>5481</name>
</trkpt>
<trkpt lat="48.940897" lon="8.665985">
<ele>243.5</ele>
<speed>2.3</speed>
<course>31.6</course>
<desc>Speed 2.3 km/h Distance 7.12 km</desc>
<time>2010-03-14T11:57:36.76</time>
<name>5482</name>
</trkpt>
<trkpt lat="48.940900" lon="8.665988">
<ele>242.5</ele>
<speed>2.7</speed>
<course>7.4</course>
<desc>Speed 2.7 km/h Distance 7.12 km</desc>
<time>2010-03-14T11:57:37.76</time>
<name>5483</name>
</trkpt>
<trkpt lat="48.940907" lon="8.665990">
<ele>242.0</ele>
<speed>3.3</speed>
<course>20.9</course>
<desc>Speed 3.3 km/h Distance 7.12 km</desc>
<time>2010-03-14T11:57:38.75</time>
<name>5484</name>
</trkpt>
<trkpt lat="48.940918" lon="8.665997">
<ele>241.5</ele>
<speed>3.2</speed>
<course>31.6</course>
<desc>Speed 3.2 km/h Distance 7.12 km</desc>
<time>2010-03-14T11:57:39.75</time>
<name>5485</name>
</trkpt>
<trkpt lat="48.940922" lon="8.666000">
<ele>240.5</ele>
<speed>2.5</speed>
<course>51.9</course>
<desc>Speed 2.5 km/h Distance 7.13 km</desc>
<time>2010-03-14T11:57:40.75</time>
<name>5486</name>
</trkpt>
<trkpt lat="48.940923" lon="8.666003">
<ele>239.5</ele>
<speed>3.0</speed>
<course>12.6</course>
<desc>Speed 3.0 km/h Distance 7.13 km</desc>
<time>2010-03-14T11:57:41.75</time>
<name>5487</name>
</trkpt>
<trkpt lat="48.940928" lon="8.666003">
<ele>239.5</ele>
<speed>3.1</speed>
<course>23.0</course>
<desc>Speed 3.1 km/h Distance 7.13 km</desc>
<time>2010-03-14T11:57:42.75</time>
<name>5488</name>
</trkpt>
<trkpt lat="48.940932" lon="8.666005">
<ele>239.0</ele>
<speed>3.3</speed>
<course>33.7</course>
<desc>Speed 3.3 km/h Distance 7.13 km</desc>
<time>2010-03-14T11:57:43.75</time>
<name>5489</name>
</trkpt>
<trkpt lat="48.940935" lon="8.666008">
<ele>239.0</ele>
<speed>3.6</speed>
<course>14.9</course>
<desc>Speed 3.6 km/h Distance 7.13 km</desc>
<time>2010-03-14T11:57:44.76</time>
<name>5490</name>
</trkpt>
<trkpt lat="48.940943" lon="8.666012">
<ele>238.5</ele>
<speed>2.0</speed>
<course>10.3</course>
<desc>Speed 2.0 km/h Distance 7.13 km</desc>
<time>2010-03-14T11:57:45.75</time>
<name>5491</name>
</trkpt>
<trkpt lat="48.940950" lon="8.666013">
<ele>237.5</ele>
<speed>2.1</speed>
<course>21.5</course>
<desc>Speed 2.1 km/h Distance 7.13 km</desc>
<time>2010-03-14T11:57:46.76</time>
<name>5492</name>
</trkpt>
<trkpt lat="48.940958" lon="8.666018">
<ele>238.0</ele>
<speed>4.3</speed>
<course>26.0</course>
<desc>Speed 4.3 km/h Distance 7.13 km</desc>
<time>2010-03-14T11:57:47.76</time>
<name>5493</name>
</trkpt>
<trkpt lat="48.940972" lon="8.666028">
<ele>238.0</ele>
<speed>3.5</speed>
<course>44.5</course>
<desc>Speed 3.5 km/h Distance 7.13 km</desc>
<time>2010-03-14T11:57:48.76</time>
<name>5494</name>
</trkpt>
<trkpt lat="48.940978" lon="8.666038">
<ele>238.0</ele>
<speed>3.3</speed>
<course>41.4</course>
<desc>Speed 3.3 km/h Distance 7.13 km</desc>
<time>2010-03-14T11:57:49.76</time>
<name>5495</name>
</trkpt>
<trkpt lat="48.940983" lon="8.666045">
<ele>237.5</ele>
<speed>2.5</speed>
<course>33.7</course>
<desc>Speed 2.5 km/h Distance 7.13 km</desc>
<time>2010-03-14T11:57:50.75</time>
<name>5496</name>
</trkpt>
<trkpt lat="48.940990" lon="8.666052">
<ele>237.5</ele>
<speed>3.1</speed>
<course>26.4</course>
<desc>Speed 3.1 km/h Distance 7.13 km</desc>
<time>2010-03-14T11:57:51.76</time>
<name>5497</name>
</trkpt>
<trkpt lat="48.941003" lon="8.666062">
<ele>237.5</ele>
<speed>4.2</speed>
<course>29.8</course>
<desc>Speed 4.2 km/h Distance 7.14 km</desc>
<time>2010-03-14T11:57:52.76</time>
<name>5498</name>
</trkpt>
<trkpt lat="48.941017" lon="8.666073">
<ele>238.0</ele>
<speed>4.5</speed>
<course>33.5</course>
<desc>Speed 4.5 km/h Distance 7.14 km</desc>
<time>2010-03-14T11:57:53.75</time>
<name>5499</name>
</trkpt>
<trkpt lat="48.941025" lon="8.666082">
<ele>238.0</ele>
<speed>2.9</speed>
<course>27.9</course>
<desc>Speed 2.9 km/h Distance 7.14 km</desc>
<time>2010-03-14T11:57:54.76</time>
<name>5500</name>
</trkpt>
<trkpt lat="48.941033" lon="8.666088">
<ele>237.5</ele>
<speed>3.6</speed>
<course>11.6</course>
<desc>Speed 3.6 km/h Distance 7.14 km</desc>
<time>2010-03-14T11:57:55.76</time>
<name>5501</name>
</trkpt>
<trkpt lat="48.941043" lon="8.666092">
<ele>236.5</ele>
<speed>2.7</speed>
<course>44.5</course>
<desc>Speed 2.7 km/h Distance 7.14 km</desc>
<time>2010-03-14T11:57:56.76</time>
<name>5502</name>
</trkpt>
<trkpt lat="48.941050" lon="8.666102">
<ele>237.0</ele>
<speed>3.6</speed>
<course>33.3</course>
<desc>Speed 3.6 km/h Distance 7.14 km</desc>
<time>2010-03-14T11:57:57.75</time>
<name>5503</name>
</trkpt>
<trkpt lat="48.941062" lon="8.666113">
<ele>236.0</ele>
<speed>3.7</speed>
<course>26.4</course>
<desc>Speed 3.7 km/h Distance 7.14 km</desc>
<time>2010-03-14T11:57:58.75</time>
<name>5504</name>
</trkpt>
<trkpt lat="48.941075" lon="8.666123">
<ele>236.0</ele>
<speed>4.1</speed>
<course>25.2</course>
<desc>Speed 4.1 km/h Distance 7.14 km</desc>
<time>2010-03-14T11:57:59.75</time>
<name>5505</name>
</trkpt>
<trkpt lat="48.941087" lon="8.666132">
<ele>236.0</ele>
<speed>3.1</speed>
<course>22.6</course>
<desc>Speed 3.1 km/h Distance 7.15 km</desc>
<time>2010-03-14T11:58:00.75</time>
<name>5506</name>
</trkpt>
<trkpt lat="48.941100" lon="8.666140">
<ele>236.5</ele>
<speed>4.6</speed>
<course>30.9</course>
<desc>Speed 4.6 km/h Distance 7.15 km</desc>
<time>2010-03-14T11:58:01.76</time>
<name>5507</name>
</trkpt>
<trkpt lat="48.941118" lon="8.666157">
<ele>235.5</ele>
<speed>3.4</speed>
<course>23.8</course>
<desc>Speed 3.4 km/h Distance 7.15 km</desc>
<time>2010-03-14T11:58:03.75</time>
<name>5508</name>
</trkpt>
<trkpt lat="48.941133" lon="8.666167">
<ele>235.5</ele>
<speed>3.4</speed>
<course>33.4</course>
<desc>Speed 3.4 km/h Distance 7.15 km</desc>
<time>2010-03-14T11:58:04.75</time>
<name>5509</name>
</trkpt>
<trkpt lat="48.941147" lon="8.666180">
<ele>235.5</ele>
<speed>4.1</speed>
<course>12.6</course>
<desc>Speed 4.1 km/h Distance 7.15 km</desc>
<time>2010-03-14T11:58:05.75</time>
<name>5510</name>
</trkpt>
<trkpt lat="48.941162" lon="8.666185">
<ele>235.5</ele>
<speed>3.9</speed>
<course>7.7</course>
<desc>Speed 3.9 km/h Distance 7.16 km</desc>
<time>2010-03-14T11:58:06.75</time>
<name>5511</name>
</trkpt>
<trkpt lat="48.941178" lon="8.666188">
<ele>236.0</ele>
<speed>2.9</speed>
<course>40.2</course>
<desc>Speed 2.9 km/h Distance 7.16 km</desc>
<time>2010-03-14T11:58:07.75</time>
<name>5512</name>
</trkpt>
<trkpt lat="48.941190" lon="8.666203">
<ele>236.0</ele>
<speed>4.7</speed>
<course>21.5</course>
<desc>Speed 4.7 km/h Distance 7.16 km</desc>
<time>2010-03-14T11:58:08.75</time>
<name>5513</name>
</trkpt>
<trkpt lat="48.941198" lon="8.666208">
<ele>235.0</ele>
<speed>2.9</speed>
<course>40.9</course>
<desc>Speed 2.9 km/h Distance 7.16 km</desc>
<time>2010-03-14T11:58:09.75</time>
<name>5514</name>
</trkpt>
<trkpt lat="48.941203" lon="8.666215">
<ele>234.5</ele>
<speed>3.2</speed>
<course>13.8</course>
<desc>Speed 3.2 km/h Distance 7.16 km</desc>
<time>2010-03-14T11:58:10.75</time>
<name>5515</name>
</trkpt>
<trkpt lat="48.941212" lon="8.666218">
<ele>234.5</ele>
<speed>2.7</speed>
<course>69.1</course>
<desc>Speed 2.7 km/h Distance 7.16 km</desc>
<time>2010-03-14T11:58:11.75</time>
<name>5516</name>
</trkpt>
<trkpt lat="48.941213" lon="8.666225">
<ele>233.5</ele>
<speed>2.8</speed>
<course>27.5</course>
<desc>Speed 2.8 km/h Distance 7.16 km</desc>
<time>2010-03-14T11:58:12.75</time>
<name>5517</name>
</trkpt>
<trkpt lat="48.941222" lon="8.666232">
<ele>232.5</ele>
<speed>3.1</speed>
<course>33.2</course>
<desc>Speed 3.1 km/h Distance 7.16 km</desc>
<time>2010-03-14T11:58:13.75</time>
<name>5518</name>
</trkpt>
<trkpt lat="48.941232" lon="8.666242">
<ele>232.0</ele>
<speed>3.1</speed>
<course>23.7</course>
<desc>Speed 3.1 km/h Distance 7.16 km</desc>
<time>2010-03-14T11:58:14.75</time>
<name>5519</name>
</trkpt>
<trkpt lat="48.941247" lon="8.666252">
<ele>231.5</ele>
<speed>3.7</speed>
<course>22.7</course>
<desc>Speed 3.7 km/h Distance 7.17 km</desc>
<time>2010-03-14T11:58:15.75</time>
<name>5520</name>
</trkpt>
<trkpt lat="48.941265" lon="8.666263">
<ele>233.5</ele>
<speed>5.7</speed>
<course>26.2</course>
<desc>Speed 5.7 km/h Distance 7.17 km</desc>
<time>2010-03-14T11:58:16.75</time>
<name>5521</name>
</trkpt>
<trkpt lat="48.941285" lon="8.666278">
<ele>234.5</ele>
<speed>4.7</speed>
<course>41.3</course>
<desc>Speed 4.7 km/h Distance 7.17 km</desc>
<time>2010-03-14T11:58:17.75</time>
<name>5522</name>
</trkpt>
<trkpt lat="48.941295" lon="8.666292">
<ele>234.5</ele>
<speed>3.9</speed>
<course>15.5</course>
<desc>Speed 3.9 km/h Distance 7.17 km</desc>
<time>2010-03-14T11:58:18.75</time>
<name>5523</name>
</trkpt>
<trkpt lat="48.941307" lon="8.666297">
<ele>235.0</ele>
<speed>3.0</speed>
<course>16.0</course>
<desc>Speed 3.0 km/h Distance 7.17 km</desc>
<time>2010-03-14T11:58:19.75</time>
<name>5524</name>
</trkpt>
<trkpt lat="48.941322" lon="8.666303">
<ele>234.5</ele>
<speed>3.3</speed>
<course>33.2</course>
<desc>Speed 3.3 km/h Distance 7.18 km</desc>
<time>2010-03-14T11:58:20.75</time>
<name>5525</name>
</trkpt>
<trkpt lat="48.941332" lon="8.666313">
<ele>234.0</ele>
<speed>3.8</speed>
<course>8.7</course>
<desc>Speed 3.8 km/h Distance 7.18 km</desc>
<time>2010-03-14T11:58:21.75</time>
<name>5526</name>
</trkpt>
<trkpt lat="48.941353" lon="8.666318">
<ele>235.0</ele>
<speed>4.9</speed>
<course>49.8</course>
<desc>Speed 4.9 km/h Distance 7.18 km</desc>
<time>2010-03-14T11:58:22.75</time>
<name>5527</name>
</trkpt>
<trkpt lat="48.941362" lon="8.666333">
<ele>235.0</ele>
<speed>4.6</speed>
<course>65.5</course>
<desc>Speed 4.6 km/h Distance 7.18 km</desc>
<time>2010-03-14T11:58:23.75</time>
<name>5528</name>
</trkpt>
<trkpt lat="48.941367" lon="8.666350">
<ele>235.5</ele>
<speed>4.0</speed>
<course>36.9</course>
<desc>Speed 4.0 km/h Distance 7.18 km</desc>
<time>2010-03-14T11:58:24.75</time>
<name>5529</name>
</trkpt>
<trkpt lat="48.941378" lon="8.666363">
<ele>235.5</ele>
<speed>4.4</speed>
<course>23.8</course>
<desc>Speed 4.4 km/h Distance 7.18 km</desc>
<time>2010-03-14T11:58:25.75</time>
<name>5530</name>
</trkpt>
<trkpt lat="48.941388" lon="8.666370">
<ele>234.5</ele>
<speed>3.4</speed>
<course>33.4</course>
<desc>Speed 3.4 km/h Distance 7.19 km</desc>
<time>2010-03-14T11:58:26.75</time>
<name>5531</name>
</trkpt>
<trkpt lat="48.941400" lon="8.666382">
<ele>234.0</ele>
<speed>4.2</speed>
<course>38.1</course>
<desc>Speed 4.2 km/h Distance 7.19 km</desc>
<time>2010-03-14T11:58:27.74</time>
<name>5532</name>
</trkpt>
<trkpt lat="48.941408" lon="8.666392">
<ele>234.0</ele>
<speed>4.1</speed>
<course>25.2</course>
<desc>Speed 4.1 km/h Distance 7.19 km</desc>
<time>2010-03-14T11:58:28.74</time>
<name>5533</name>
</trkpt>
<trkpt lat="48.941420" lon="8.666400">
<ele>234.0</ele>
<speed>3.7</speed>
<course>44.5</course>
<desc>Speed 3.7 km/h Distance 7.19 km</desc>
<time>2010-03-14T11:58:29.74</time>
<name>5534</name>
</trkpt>
<trkpt lat="48.941427" lon="8.666410">
<ele>233.0</ele>
<speed>3.5</speed>
<course>44.5</course>
<desc>Speed 3.5 km/h Distance 7.19 km</desc>
<time>2010-03-14T11:58:30.75</time>
<name>5535</name>
</trkpt>
<trkpt lat="48.941433" lon="8.666420">
<ele>233.0</ele>
<speed>3.2</speed>
<course>27.9</course>
<desc>Speed 3.2 km/h Distance 7.19 km</desc>
<time>2010-03-14T11:58:31.74</time>
<name>5536</name>
</trkpt>
<trkpt lat="48.941442" lon="8.666427">
<ele>232.0</ele>
<speed>2.9</speed>
<course>43.7</course>
<desc>Speed 2.9 km/h Distance 7.19 km</desc>
<time>2010-03-14T11:58:32.75</time>
<name>5537</name>
</trkpt>
<trkpt lat="48.941500" lon="8.666512">
<ele>224.0</ele>
<speed>3.1</speed>
<course>63.1</course>
<desc>Speed 3.1 km/h Distance 7.20 km</desc>
<time>2010-03-14T11:58:41.74</time>
<name>5538</name>
</trkpt>
<trkpt lat="48.941515" lon="8.666557">
<ele>222.0</ele>
<speed>3.3</speed>
<course>40.0</course>
<desc>Speed 3.3 km/h Distance 7.21 km</desc>
<time>2010-03-14T11:58:45.74</time>
<name>5539</name>
</trkpt>
<trkpt lat="48.941545" lon="8.666595">
<ele>222.0</ele>
<speed>5.0</speed>
<course>47.6</course>
<desc>Speed 5.0 km/h Distance 7.21 km</desc>
<time>2010-03-14T11:58:48.73</time>
<name>5540</name>
</trkpt>
<trkpt lat="48.941555" lon="8.666612">
<ele>222.5</ele>
<speed>3.6</speed>
<course>16.7</course>
<desc>Speed 3.6 km/h Distance 7.21 km</desc>
<time>2010-03-14T11:58:49.73</time>
<name>5541</name>
</trkpt>
<trkpt lat="48.941577" lon="8.666622">
<ele>223.0</ele>
<speed>4.0</speed>
<course>15.5</course>
<desc>Speed 4.0 km/h Distance 7.21 km</desc>
<time>2010-03-14T11:58:50.74</time>
<name>5542</name>
</trkpt>
<trkpt lat="48.941608" lon="8.666635">
<ele>222.0</ele>
<speed>4.6</speed>
<course>12.6</course>
<desc>Speed 4.6 km/h Distance 7.22 km</desc>
<time>2010-03-14T11:58:53.73</time>
<name>5543</name>
</trkpt>
<trkpt lat="48.941628" lon="8.666642">
<ele>223.0</ele>
<speed>4.3</speed>
<course>5.6</course>
<desc>Speed 4.3 km/h Distance 7.22 km</desc>
<time>2010-03-14T11:58:54.73</time>
<name>5544</name>
</trkpt>
<trkpt lat="48.941648" lon="8.666645">
<ele>223.5</ele>
<speed>4.6</speed>
<course>16.4</course>
<desc>Speed 4.6 km/h Distance 7.22 km</desc>
<time>2010-03-14T11:58:55.74</time>
<name>5545</name>
</trkpt>
<trkpt lat="48.941667" lon="8.666653">
<ele>224.0</ele>
<speed>3.9</speed>
<course>16.4</course>
<desc>Speed 3.9 km/h Distance 7.22 km</desc>
<time>2010-03-14T11:58:56.73</time>
<name>5546</name>
</trkpt>
<trkpt lat="48.941685" lon="8.666662">
<ele>225.0</ele>
<speed>3.1</speed>
<course>9.6</course>
<desc>Speed 3.1 km/h Distance 7.23 km</desc>
<time>2010-03-14T11:58:57.73</time>
<name>5547</name>
</trkpt>
<trkpt lat="48.941782" lon="8.666687">
<ele>231.5</ele>
<speed>3.3</speed>
<course>8.7</course>
<desc>Speed 3.3 km/h Distance 7.24 km</desc>
<time>2010-03-14T11:59:01.73</time>
<name>5548</name>
</trkpt>
<trkpt lat="48.941803" lon="8.666692">
<ele>233.0</ele>
<speed>3.9</speed>
<course>21.5</course>
<desc>Speed 3.9 km/h Distance 7.24 km</desc>
<time>2010-03-14T11:59:02.73</time>
<name>5549</name>
</trkpt>
<trkpt lat="48.941812" lon="8.666697">
<ele>233.0</ele>
<speed>2.9</speed>
<course>9.2</course>
<desc>Speed 2.9 km/h Distance 7.24 km</desc>
<time>2010-03-14T11:59:03.73</time>
<name>5550</name>
</trkpt>
<trkpt lat="48.941832" lon="8.666702">
<ele>234.0</ele>
<speed>2.9</speed>
<course>8.0</course>
<desc>Speed 2.9 km/h Distance 7.24 km</desc>
<time>2010-03-14T11:59:04.87</time>
<name>5551</name>
</trkpt>
<trkpt lat="48.941870" lon="8.666710">
<ele>235.5</ele>
<speed>4.0</speed>
<course>9.0</course>
<desc>Speed 4.0 km/h Distance 7.25 km</desc>
<time>2010-03-14T11:59:06.73</time>
<name>5552</name>
</trkpt>
<trkpt lat="48.941918" lon="8.666722">
<ele>238.0</ele>
<speed>3.9</speed>
<course>0.0</course>
<desc>Speed 3.9 km/h Distance 7.25 km</desc>
<time>2010-03-14T11:59:08.73</time>
<name>5553</name>
</trkpt>
<trkpt lat="48.941927" lon="8.666722">
<ele>238.5</ele>
<speed>3.3</speed>
<course>11.6</course>
<desc>Speed 3.3 km/h Distance 7.25 km</desc>
<time>2010-03-14T11:59:09.73</time>
<name>5554</name>
</trkpt>
<trkpt lat="48.941937" lon="8.666725">
<ele>238.5</ele>
<speed>4.1</speed>
<course>11.2</course>
<desc>Speed 4.1 km/h Distance 7.25 km</desc>
<time>2010-03-14T11:59:10.73</time>
<name>5555</name>
</trkpt>
<trkpt lat="48.941948" lon="8.666728">
<ele>238.5</ele>
<speed>3.9</speed>
<course>2.2</course>
<desc>Speed 3.9 km/h Distance 7.26 km</desc>
<time>2010-03-14T11:59:11.73</time>
<name>5556</name>
</trkpt>
<trkpt lat="48.941960" lon="8.666728">
<ele>239.0</ele>
<speed>3.5</speed>
<course>2.2</course>
<desc>Speed 3.5 km/h Distance 7.26 km</desc>
<time>2010-03-14T11:59:12.73</time>
<name>5557</name>
</trkpt>
<trkpt lat="48.941972" lon="8.666728">
<ele>239.0</ele>
<speed>4.0</speed>
<course>7.8</course>
<desc>Speed 4.0 km/h Distance 7.26 km</desc>
<time>2010-03-14T11:59:13.73</time>
<name>5558</name>
</trkpt>
<trkpt lat="48.942012" lon="8.666737">
<ele>241.0</ele>
<speed>3.7</speed>
<course>0.0</course>
<desc>Speed 3.7 km/h Distance 7.26 km</desc>
<time>2010-03-14T11:59:15.72</time>
<name>5559</name>
</trkpt>
<trkpt lat="48.942027" lon="8.666737">
<ele>241.0</ele>
<speed>3.9</speed>
<course>5.0</course>
<desc>Speed 3.9 km/h Distance 7.26 km</desc>
<time>2010-03-14T11:59:16.72</time>
<name>5560</name>
</trkpt>
<trkpt lat="48.942035" lon="8.666737">
<ele>241.0</ele>
<speed>3.2</speed>
<course>5.9</course>
<desc>Speed 3.2 km/h Distance 7.27 km</desc>
<time>2010-03-14T11:59:17.72</time>
<name>5561</name>
</trkpt>
<trkpt lat="48.942057" lon="8.666740">
<ele>243.0</ele>
<speed>3.1</speed>
<course>9.7</course>
<desc>Speed 3.1 km/h Distance 7.27 km</desc>
<time>2010-03-14T11:59:18.73</time>
<name>5562</name>
</trkpt>
<trkpt lat="48.942070" lon="8.666743">
<ele>243.5</ele>
<speed>3.9</speed>
<course>0.0</course>
<desc>Speed 3.9 km/h Distance 7.27 km</desc>
<time>2010-03-14T11:59:19.72</time>
<name>5563</name>
</trkpt>
<trkpt lat="48.942080" lon="8.666743">
<ele>243.0</ele>
<speed>3.4</speed>
<course>14.9</course>
<desc>Speed 3.4 km/h Distance 7.27 km</desc>
<time>2010-03-14T11:59:20.72</time>
<name>5564</name>
</trkpt>
<trkpt lat="48.942092" lon="8.666748">
<ele>243.0</ele>
<speed>4.1</speed>
<course>353.0</course>
<desc>Speed 4.1 km/h Distance 7.27 km</desc>
<time>2010-03-14T11:59:21.72</time>
<name>5565</name>
</trkpt>
<trkpt lat="48.942110" lon="8.666745">
<ele>244.0</ele>
<speed>3.8</speed>
<course>0.0</course>
<desc>Speed 3.8 km/h Distance 7.27 km</desc>
<time>2010-03-14T11:59:22.72</time>
<name>5566</name>
</trkpt>
<trkpt lat="48.942122" lon="8.666745">
<ele>242.5</ele>
<speed>2.8</speed>
<course>2.8</course>
<desc>Speed 2.8 km/h Distance 7.28 km</desc>
<time>2010-03-14T11:59:23.72</time>
<name>5567</name>
</trkpt>
<trkpt lat="48.942138" lon="8.666745">
<ele>243.5</ele>
<speed>5.0</speed>
<course>2.2</course>
<desc>Speed 5.0 km/h Distance 7.28 km</desc>
<time>2010-03-14T11:59:24.72</time>
<name>5568</name>
</trkpt>
<trkpt lat="48.942150" lon="8.666745">
<ele>243.0</ele>
<speed>4.2</speed>
<course>4.7</course>
<desc>Speed 4.2 km/h Distance 7.28 km</desc>
<time>2010-03-14T11:59:25.72</time>
<name>5569</name>
</trkpt>
<trkpt lat="48.942162" lon="8.666747">
<ele>242.5</ele>
<speed>4.0</speed>
<course>0.0</course>
<desc>Speed 4.0 km/h Distance 7.28 km</desc>
<time>2010-03-14T11:59:26.71</time>
<name>5570</name>
</trkpt>
<trkpt lat="48.942172" lon="8.666747">
<ele>242.0</ele>
<speed>3.6</speed>
<course>355.3</course>
<desc>Speed 3.6 km/h Distance 7.28 km</desc>
<time>2010-03-14T11:59:27.71</time>
<name>5571</name>
</trkpt>
<trkpt lat="48.942183" lon="8.666745">
<ele>241.5</ele>
<speed>3.7</speed>
<course>345.1</course>
<desc>Speed 3.7 km/h Distance 7.28 km</desc>
<time>2010-03-14T11:59:28.71</time>
<name>5572</name>
</trkpt>
<trkpt lat="48.942192" lon="8.666742">
<ele>241.5</ele>
<speed>3.0</speed>
<course>356.3</course>
<desc>Speed 3.0 km/h Distance 7.28 km</desc>
<time>2010-03-14T11:59:29.71</time>
<name>5573</name>
</trkpt>
<trkpt lat="48.942210" lon="8.666740">
<ele>243.0</ele>
<speed>3.9</speed>
<course>355.3</course>
<desc>Speed 3.9 km/h Distance 7.29 km</desc>
<time>2010-03-14T11:59:30.71</time>
<name>5574</name>
</trkpt>
<trkpt lat="48.942222" lon="8.666738">
<ele>243.0</ele>
<speed>3.4</speed>
<course>0.0</course>
<desc>Speed 3.4 km/h Distance 7.29 km</desc>
<time>2010-03-14T11:59:31.72</time>
<name>5575</name>
</trkpt>
<trkpt lat="48.942232" lon="8.666738">
<ele>243.0</ele>
<speed>2.9</speed>
<course>4.7</course>
<desc>Speed 2.9 km/h Distance 7.29 km</desc>
<time>2010-03-14T11:59:32.74</time>
<name>5576</name>
</trkpt>
<trkpt lat="48.942243" lon="8.666740">
<ele>243.0</ele>
<speed>3.5</speed>
<course>0.0</course>
<desc>Speed 3.5 km/h Distance 7.29 km</desc>
<time>2010-03-14T11:59:33.71</time>
<name>5577</name>
</trkpt>
<trkpt lat="48.942255" lon="8.666740">
<ele>243.0</ele>
<speed>4.3</speed>
<course>1.2</course>
<desc>Speed 4.3 km/h Distance 7.29 km</desc>
<time>2010-03-14T11:59:34.71</time>
<name>5578</name>
</trkpt>
<trkpt lat="48.942268" lon="8.666740">
<ele>243.0</ele>
<speed>4.7</speed>
<course>7.5</course>
<desc>Speed 4.7 km/h Distance 7.29 km</desc>
<time>2010-03-14T11:59:35.71</time>
<name>5579</name>
</trkpt>
<trkpt lat="48.942283" lon="8.666743">
<ele>243.5</ele>
<speed>5.1</speed>
<course>357.2</course>
<desc>Speed 5.1 km/h Distance 7.29 km</desc>
<time>2010-03-14T11:59:36.71</time>
<name>5580</name>
</trkpt>
<trkpt lat="48.942300" lon="8.666742">
<ele>244.0</ele>
<speed>5.0</speed>
<course>4.7</course>
<desc>Speed 5.0 km/h Distance 7.30 km</desc>
<time>2010-03-14T11:59:37.71</time>
<name>5581</name>
</trkpt>
<trkpt lat="48.942312" lon="8.666743">
<ele>244.0</ele>
<speed>3.4</speed>
<course>5.0</course>
<desc>Speed 3.4 km/h Distance 7.30 km</desc>
<time>2010-03-14T11:59:38.71</time>
<name>5582</name>
</trkpt>
<trkpt lat="48.942320" lon="8.666745">
<ele>244.5</ele>
<speed>2.3</speed>
<course>1.2</course>
<desc>Speed 2.3 km/h Distance 7.30 km</desc>
<time>2010-03-14T11:59:39.71</time>
<name>5583</name>
</trkpt>
<trkpt lat="48.942333" lon="8.666747">
<ele>245.5</ele>
<speed>3.7</speed>
<course>356.2</course>
<desc>Speed 3.7 km/h Distance 7.30 km</desc>
<time>2010-03-14T11:59:40.71</time>
<name>5584</name>
</trkpt>
<trkpt lat="48.942348" lon="8.666745">
<ele>246.5</ele>
<speed>3.6</speed>
<course>346.4</course>
<desc>Speed 3.6 km/h Distance 7.30 km</desc>
<time>2010-03-14T11:59:41.71</time>
<name>5585</name>
</trkpt>
<trkpt lat="48.942367" lon="8.666738">
<ele>247.0</ele>
<speed>4.2</speed>
<course>351.6</course>
<desc>Speed 4.2 km/h Distance 7.30 km</desc>
<time>2010-03-14T11:59:42.71</time>
<name>5586</name>
</trkpt>
<trkpt lat="48.942388" lon="8.666733">
<ele>249.0</ele>
<speed>5.0</speed>
<course>0.0</course>
<desc>Speed 5.0 km/h Distance 7.31 km</desc>
<time>2010-03-14T11:59:43.71</time>
<name>5587</name>
</trkpt>
<trkpt lat="48.942407" lon="8.666733">
<ele>249.5</ele>
<speed>5.7</speed>
<course>11.2</course>
<desc>Speed 5.7 km/h Distance 7.31 km</desc>
<time>2010-03-14T11:59:44.70</time>
<name>5588</name>
</trkpt>
<trkpt lat="48.942423" lon="8.666738">
<ele>250.5</ele>
<speed>5.1</speed>
<course>3.8</course>
<desc>Speed 5.1 km/h Distance 7.31 km</desc>
<time>2010-03-14T11:59:45.70</time>
<name>5589</name>
</trkpt>
<trkpt lat="48.942438" lon="8.666740">
<ele>251.5</ele>
<speed>4.2</speed>
<course>0.0</course>
<desc>Speed 4.2 km/h Distance 7.31 km</desc>
<time>2010-03-14T11:59:46.70</time>
<name>5590</name>
</trkpt>
<trkpt lat="48.942455" lon="8.666740">
<ele>252.5</ele>
<speed>4.4</speed>
<course>349.8</course>
<desc>Speed 4.4 km/h Distance 7.31 km</desc>
<time>2010-03-14T11:59:47.70</time>
<name>5591</name>
</trkpt>
<trkpt lat="48.942473" lon="8.666735">
<ele>254.5</ele>
<speed>4.8</speed>
<course>347.4</course>
<desc>Speed 4.8 km/h Distance 7.31 km</desc>
<time>2010-03-14T11:59:48.70</time>
<name>5592</name>
</trkpt>
<trkpt lat="48.942488" lon="8.666730">
<ele>255.0</ele>
<speed>5.5</speed>
<course>352.3</course>
<desc>Speed 5.5 km/h Distance 7.32 km</desc>
<time>2010-03-14T11:59:49.70</time>
<name>5593</name>
</trkpt>
<trkpt lat="48.942505" lon="8.666727">
<ele>256.0</ele>
<speed>5.0</speed>
<course>353.5</course>
<desc>Speed 5.0 km/h Distance 7.32 km</desc>
<time>2010-03-14T11:59:50.70</time>
<name>5594</name>
</trkpt>
<trkpt lat="48.942523" lon="8.666723">
<ele>257.0</ele>
<speed>4.8</speed>
<course>4.7</course>
<desc>Speed 4.8 km/h Distance 7.32 km</desc>
<time>2010-03-14T11:59:51.70</time>
<name>5595</name>
</trkpt>
<trkpt lat="48.942535" lon="8.666725">
<ele>259.0</ele>
<speed>3.4</speed>
<course>349.8</course>
<desc>Speed 3.4 km/h Distance 7.32 km</desc>
<time>2010-03-14T11:59:52.70</time>
<name>5596</name>
</trkpt>
<trkpt lat="48.942553" lon="8.666720">
<ele>259.5</ele>
<speed>3.7</speed>
<course>2.8</course>
<desc>Speed 3.7 km/h Distance 7.32 km</desc>
<time>2010-03-14T11:59:53.69</time>
<name>5597</name>
</trkpt>
<trkpt lat="48.942570" lon="8.666722">
<ele>261.0</ele>
<speed>3.2</speed>
<course>356.2</course>
<desc>Speed 3.2 km/h Distance 7.33 km</desc>
<time>2010-03-14T11:59:54.70</time>
<name>5598</name>
</trkpt>
<trkpt lat="48.942585" lon="8.666720">
<ele>262.5</ele>
<speed>4.1</speed>
<course>339.1</course>
<desc>Speed 4.1 km/h Distance 7.33 km</desc>
<time>2010-03-14T11:59:55.69</time>
<name>5599</name>
</trkpt>
<trkpt lat="48.942597" lon="8.666713">
<ele>263.0</ele>
<speed>3.3</speed>
<course>344.0</course>
<desc>Speed 3.3 km/h Distance 7.33 km</desc>
<time>2010-03-14T11:59:56.70</time>
<name>5600</name>
</trkpt>
<trkpt lat="48.942612" lon="8.666707">
<ele>264.5</ele>
<speed>4.1</speed>
<course>345.1</course>
<desc>Speed 4.1 km/h Distance 7.33 km</desc>
<time>2010-03-14T11:59:57.70</time>
<name>5601</name>
</trkpt>
<trkpt lat="48.942628" lon="8.666700">
<ele>266.0</ele>
<speed>3.6</speed>
<course>343.4</course>
<desc>Speed 3.6 km/h Distance 7.33 km</desc>
<time>2010-03-14T11:59:58.69</time>
<name>5602</name>
</trkpt>
<trkpt lat="48.942643" lon="8.666693">
<ele>268.0</ele>
<speed>3.2</speed>
<course>354.7</course>
<desc>Speed 3.2 km/h Distance 7.33 km</desc>
<time>2010-03-14T11:59:59.69</time>
<name>5603</name>
</trkpt>
<trkpt lat="48.942657" lon="8.666692">
<ele>269.5</ele>
<speed>4.1</speed>
<course>346.5</course>
<desc>Speed 4.1 km/h Distance 7.34 km</desc>
<time>2010-03-14T12:00:00.70</time>
<name>5604</name>
</trkpt>
<trkpt lat="48.942670" lon="8.666687">
<ele>270.0</ele>
<speed>5.0</speed>
<course>346.5</course>
<desc>Speed 5.0 km/h Distance 7.34 km</desc>
<time>2010-03-14T12:00:01.70</time>
<name>5605</name>
</trkpt>
<trkpt lat="48.942683" lon="8.666682">
<ele>271.0</ele>
<speed>3.7</speed>
<course>0.0</course>
<desc>Speed 3.7 km/h Distance 7.34 km</desc>
<time>2010-03-14T12:00:02.69</time>
<name>5606</name>
</trkpt>
<trkpt lat="48.942693" lon="8.666682">
<ele>271.5</ele>
<speed>2.7</speed>
<course>1.2</course>
<desc>Speed 2.7 km/h Distance 7.34 km</desc>
<time>2010-03-14T12:00:03.70</time>
<name>5607</name>
</trkpt>
<trkpt lat="48.942707" lon="8.666683">
<ele>271.5</ele>
<speed>3.9</speed>
<course>9.6</course>
<desc>Speed 3.9 km/h Distance 7.34 km</desc>
<time>2010-03-14T12:00:04.70</time>
<name>5608</name>
</trkpt>
<trkpt lat="48.942715" lon="8.666685">
<ele>271.5</ele>
<speed>3.0</speed>
<course>353.7</course>
<desc>Speed 3.0 km/h Distance 7.34 km</desc>
<time>2010-03-14T12:00:05.69</time>
<name>5609</name>
</trkpt>
<trkpt lat="48.942727" lon="8.666683">
<ele>271.0</ele>
<speed>3.5</speed>
<course>1.9</course>
<desc>Speed 3.5 km/h Distance 7.34 km</desc>
<time>2010-03-14T12:00:06.70</time>
<name>5610</name>
</trkpt>
<trkpt lat="48.942742" lon="8.666685">
<ele>272.0</ele>
<speed>4.5</speed>
<course>2.2</course>
<desc>Speed 4.5 km/h Distance 7.35 km</desc>
<time>2010-03-14T12:00:07.69</time>
<name>5611</name>
</trkpt>
<trkpt lat="48.942753" lon="8.666687">
<ele>271.5</ele>
<speed>4.2</speed>
<course>326.8</course>
<desc>Speed 4.2 km/h Distance 7.35 km</desc>
<time>2010-03-14T12:00:08.69</time>
<name>5612</name>
</trkpt>
<trkpt lat="48.942762" lon="8.666678">
<ele>271.5</ele>
<speed>3.7</speed>
<course>326.8</course>
<desc>Speed 3.7 km/h Distance 7.35 km</desc>
<time>2010-03-14T12:00:09.69</time>
<name>5613</name>
</trkpt>
<trkpt lat="48.942772" lon="8.666668">
<ele>271.5</ele>
<speed>4.1</speed>
<course>330.6</course>
<desc>Speed 4.1 km/h Distance 7.35 km</desc>
<time>2010-03-14T12:00:10.69</time>
<name>5614</name>
</trkpt>
<trkpt lat="48.942783" lon="8.666658">
<ele>271.5</ele>
<speed>4.1</speed>
<course>330.6</course>
<desc>Speed 4.1 km/h Distance 7.35 km</desc>
<time>2010-03-14T12:00:11.69</time>
<name>5615</name>
</trkpt>
<trkpt lat="48.942795" lon="8.666648">
<ele>272.5</ele>
<speed>4.9</speed>
<course>338.5</course>
<desc>Speed 4.9 km/h Distance 7.35 km</desc>
<time>2010-03-14T12:00:12.69</time>
<name>5616</name>
</trkpt>
<trkpt lat="48.942812" lon="8.666638">
<ele>273.0</ele>
<speed>5.0</speed>
<course>333.8</course>
<desc>Speed 5.0 km/h Distance 7.35 km</desc>
<time>2010-03-14T12:00:13.69</time>
<name>5617</name>
</trkpt>
<trkpt lat="48.942825" lon="8.666628">
<ele>273.5</ele>
<speed>4.5</speed>
<course>326.6</course>
<desc>Speed 4.5 km/h Distance 7.36 km</desc>
<time>2010-03-14T12:00:14.69</time>
<name>5618</name>
</trkpt>
<trkpt lat="48.942837" lon="8.666617">
<ele>274.0</ele>
<speed>4.4</speed>
<course>323.1</course>
<desc>Speed 4.4 km/h Distance 7.36 km</desc>
<time>2010-03-14T12:00:15.69</time>
<name>5619</name>
</trkpt>
<trkpt lat="48.942848" lon="8.666603">
<ele>274.5</ele>
<speed>4.9</speed>
<course>323.5</course>
<desc>Speed 4.9 km/h Distance 7.36 km</desc>
<time>2010-03-14T12:00:16.69</time>
<name>5620</name>
</trkpt>
<trkpt lat="48.942862" lon="8.666588">
<ele>275.0</ele>
<speed>4.9</speed>
<course>323.1</course>
<desc>Speed 4.9 km/h Distance 7.36 km</desc>
<time>2010-03-14T12:00:17.69</time>
<name>5621</name>
</trkpt>
<trkpt lat="48.942873" lon="8.666575">
<ele>276.0</ele>
<speed>5.0</speed>
<course>307.3</course>
<desc>Speed 5.0 km/h Distance 7.36 km</desc>
<time>2010-03-14T12:00:18.69</time>
<name>5622</name>
</trkpt>
<trkpt lat="48.942883" lon="8.666555">
<ele>277.0</ele>
<speed>5.2</speed>
<course>336.3</course>
<desc>Speed 5.2 km/h Distance 7.36 km</desc>
<time>2010-03-14T12:00:19.69</time>
<name>5623</name>
</trkpt>
<trkpt lat="48.942898" lon="8.666545">
<ele>277.0</ele>
<speed>5.0</speed>
<course>319.8</course>
<desc>Speed 5.0 km/h Distance 7.37 km</desc>
<time>2010-03-14T12:00:20.69</time>
<name>5624</name>
</trkpt>
<trkpt lat="48.942910" lon="8.666530">
<ele>277.5</ele>
<speed>4.6</speed>
<course>309.7</course>
<desc>Speed 4.6 km/h Distance 7.37 km</desc>
<time>2010-03-14T12:00:21.69</time>
<name>5625</name>
</trkpt>
<trkpt lat="48.942920" lon="8.666512">
<ele>278.0</ele>
<speed>5.2</speed>
<course>323.1</course>
<desc>Speed 5.2 km/h Distance 7.37 km</desc>
<time>2010-03-14T12:00:22.69</time>
<name>5626</name>
</trkpt>
<trkpt lat="48.942932" lon="8.666498">
<ele>278.5</ele>
<speed>5.2</speed>
<course>326.6</course>
<desc>Speed 5.2 km/h Distance 7.37 km</desc>
<time>2010-03-14T12:00:23.69</time>
<name>5627</name>
</trkpt>
<trkpt lat="48.942943" lon="8.666487">
<ele>278.5</ele>
<speed>4.6</speed>
<course>343.7</course>
<desc>Speed 4.6 km/h Distance 7.37 km</desc>
<time>2010-03-14T12:00:24.69</time>
<name>5628</name>
</trkpt>
<trkpt lat="48.942958" lon="8.666480">
<ele>279.0</ele>
<speed>4.6</speed>
<course>309.7</course>
<desc>Speed 4.6 km/h Distance 7.37 km</desc>
<time>2010-03-14T12:00:25.68</time>
<name>5629</name>
</trkpt>
<trkpt lat="48.942968" lon="8.666462">
<ele>279.5</ele>
<speed>5.2</speed>
<course>316.8</course>
<desc>Speed 5.2 km/h Distance 7.38 km</desc>
<time>2010-03-14T12:00:26.68</time>
<name>5630</name>
</trkpt>
<trkpt lat="48.942980" lon="8.666445">
<ele>280.5</ele>
<speed>5.1</speed>
<course>341.9</course>
<desc>Speed 5.1 km/h Distance 7.38 km</desc>
<time>2010-03-14T12:00:27.68</time>
<name>5631</name>
</trkpt>
<trkpt lat="48.942993" lon="8.666438">
<ele>280.5</ele>
<speed>4.6</speed>
<course>13.5</course>
<desc>Speed 4.6 km/h Distance 7.38 km</desc>
<time>2010-03-14T12:00:28.68</time>
<name>5632</name>
</trkpt>
<trkpt lat="48.943007" lon="8.666443">
<ele>280.5</ele>
<speed>4.5</speed>
<course>15.3</course>
<desc>Speed 4.5 km/h Distance 7.38 km</desc>
<time>2010-03-14T12:00:29.68</time>
<name>5633</name>
</trkpt>
<trkpt lat="48.943027" lon="8.666452">
<ele>283.0</ele>
<speed>4.2</speed>
<course>12.6</course>
<desc>Speed 4.2 km/h Distance 7.38 km</desc>
<time>2010-03-14T12:00:30.68</time>
<name>5634</name>
</trkpt>
<trkpt lat="48.943037" lon="8.666455">
<ele>283.0</ele>
<speed>3.5</speed>
<course>25.2</course>
<desc>Speed 3.5 km/h Distance 7.38 km</desc>
<time>2010-03-14T12:00:31.68</time>
<name>5635</name>
</trkpt>
<trkpt lat="48.943048" lon="8.666463">
<ele>283.5</ele>
<speed>3.5</speed>
<course>38.1</course>
<desc>Speed 3.5 km/h Distance 7.39 km</desc>
<time>2010-03-14T12:00:32.68</time>
<name>5636</name>
</trkpt>
<trkpt lat="48.943057" lon="8.666473">
<ele>284.5</ele>
<speed>1.9</speed>
<course>44.5</course>
<desc>Speed 1.9 km/h Distance 7.39 km</desc>
<time>2010-03-14T12:00:33.68</time>
<name>5637</name>
</trkpt>
<trkpt lat="48.943060" lon="8.666478">
<ele>284.0</ele>
<speed>1.8</speed>
<course>38.1</course>
<desc>Speed 1.8 km/h Distance 7.39 km</desc>
<time>2010-03-14T12:00:34.67</time>
<name>5638</name>
</trkpt>
<trkpt lat="48.943068" lon="8.666488">
<ele>283.5</ele>
<speed>3.3</speed>
<course>40.3</course>
<desc>Speed 3.3 km/h Distance 7.39 km</desc>
<time>2010-03-14T12:00:35.68</time>
<name>5639</name>
</trkpt>
<trkpt lat="48.943080" lon="8.666503">
<ele>282.5</ele>
<speed>5.3</speed>
<course>12.6</course>
<desc>Speed 5.3 km/h Distance 7.39 km</desc>
<time>2010-03-14T12:00:36.68</time>
<name>5640</name>
</trkpt>
<trkpt lat="48.943085" lon="8.666505">
<ele>283.0</ele>
<speed>1.0</speed>
<course>33.7</course>
<desc>Speed 1.0 km/h Distance 7.39 km</desc>
<time>2010-03-14T12:00:37.68</time>
<name>5641</name>
</trkpt>
<trkpt lat="48.943088" lon="8.666508">
<ele>283.0</ele>
<speed>2.2</speed>
<course>297.4</course>
<desc>Speed 2.2 km/h Distance 7.39 km</desc>
<time>2010-03-14T12:00:38.68</time>
<name>5642</name>
</trkpt>
<trkpt lat="48.943090" lon="8.666503">
<ele>285.0</ele>
<speed>1.8</speed>
<course>33.2</course>
<desc>Speed 1.8 km/h Distance 7.39 km</desc>
<time>2010-03-14T12:00:39.68</time>
<name>5643</name>
</trkpt>
<trkpt lat="48.943097" lon="8.666510">
<ele>284.5</ele>
<speed>3.1</speed>
<course>44.5</course>
<desc>Speed 3.1 km/h Distance 7.39 km</desc>
<time>2010-03-14T12:00:40.68</time>
<name>5644</name>
</trkpt>
<trkpt lat="48.943100" lon="8.666515">
<ele>284.0</ele>
<speed>2.5</speed>
<course>32.5</course>
<desc>Speed 2.5 km/h Distance 7.39 km</desc>
<time>2010-03-14T12:00:41.68</time>
<name>5645</name>
</trkpt>
<trkpt lat="48.943153" lon="8.666567">
<ele>291.5</ele>
<speed>3.0</speed>
<course>79.3</course>
<desc>Speed 3.0 km/h Distance 7.40 km</desc>
<time>2010-03-14T12:00:43.68</time>
<name>5646</name>
</trkpt>
<trkpt lat="48.943155" lon="8.666580">
<ele>291.0</ele>
<speed>3.5</speed>
<course>61.5</course>
<desc>Speed 3.5 km/h Distance 7.40 km</desc>
<time>2010-03-14T12:00:44.68</time>
<name>5647</name>
</trkpt>
<trkpt lat="48.943163" lon="8.666603">
<ele>290.5</ele>
<speed>5.8</speed>
<course>65.4</course>
<desc>Speed 5.8 km/h Distance 7.40 km</desc>
<time>2010-03-14T12:00:45.67</time>
<name>5648</name>
</trkpt>
<trkpt lat="48.943168" lon="8.666620">
<ele>291.0</ele>
<speed>4.1</speed>
<course>79.3</course>
<desc>Speed 4.1 km/h Distance 7.40 km</desc>
<time>2010-03-14T12:00:46.67</time>
<name>5649</name>
</trkpt>
<trkpt lat="48.943170" lon="8.666633">
<ele>291.5</ele>
<speed>2.7</speed>
<course>52.6</course>
<desc>Speed 2.7 km/h Distance 7.41 km</desc>
<time>2010-03-14T12:00:47.67</time>
<name>5650</name>
</trkpt>
<trkpt lat="48.943175" lon="8.666643">
<ele>293.0</ele>
<speed>2.4</speed>
<course>172.6</course>
<desc>Speed 2.4 km/h Distance 7.41 km</desc>
<time>2010-03-14T12:00:48.67</time>
<name>5651</name>
</trkpt>
<trkpt lat="48.943168" lon="8.666645">
<ele>294.0</ele>
<speed>3.7</speed>
<course>207.9</course>
<desc>Speed 3.7 km/h Distance 7.41 km</desc>
<time>2010-03-14T12:00:49.67</time>
<name>5652</name>
</trkpt>
<trkpt lat="48.943160" lon="8.666638">
<ele>295.5</ele>
<speed>2.8</speed>
<course>249.3</course>
<desc>Speed 2.8 km/h Distance 7.41 km</desc>
<time>2010-03-14T12:00:50.67</time>
<name>5653</name>
</trkpt>
<trkpt lat="48.943157" lon="8.666625">
<ele>295.5</ele>
<speed>2.2</speed>
<course>97.9</course>
<desc>Speed 2.2 km/h Distance 7.41 km</desc>
<time>2010-03-14T12:00:51.67</time>
<name>5654</name>
</trkpt>
<trkpt lat="48.943155" lon="8.666643">
<ele>296.0</ele>
<speed>5.6</speed>
<course>97.9</course>
<desc>Speed 5.6 km/h Distance 7.41 km</desc>
<time>2010-03-14T12:00:52.67</time>
<name>5655</name>
</trkpt>
</trkseg>
</trk>
</gpx>
